<?xml version='1.0' encoding='UTF-8'?><gpx version="1.1" creator="JPX - https://github.com/jenetics/jpx" xmlns="http://www.topografix.com/GPX/1/1"><trk><trkseg><trkpt lat="44.39874941043915" lon="11.337133791907322"><ele>141.0</ele><time>2026-04-28T05:55:58Z</time></trkpt><trkpt lat="44.3987144310884" lon="11.336942943401576"><ele>141.0</ele><time>2026-04-28T05:56:00Z</time></trkpt><trkpt lat="44.398736618579534" lon="11.336843182919752"><ele>141.0</ele><time>2026-04-28T05:56:01Z</time></trkpt><trkpt lat="44.39873269049046" lon="11.336729997199619"><ele>141.0</ele><time>2026-04-28T05:56:02Z</time></trkpt><trkpt lat="44.39874979490414" lon="11.33660864661253"><ele>141.0</ele><time>2026-04-28T05:56:03Z</time></trkpt><trkpt lat="44.39876738524126" lon="11.33647986917683"><ele>142.8</ele><time>2026-04-28T05:56:04Z</time></trkpt><trkpt lat="44.39877743733102" lon="11.336347914407288"><ele>144.6</ele><time>2026-04-28T05:56:05Z</time></trkpt><trkpt lat="44.39879174477129" lon="11.336206466999945"><ele>146.4</ele><time>2026-04-28T05:56:06Z</time></trkpt><trkpt lat="44.398807374823775" lon="11.336064911324067"><ele>148.2</ele><time>2026-04-28T05:56:07Z</time></trkpt><trkpt lat="44.39881990907668" lon="11.335917665010934"><ele>150.0</ele><time>2026-04-28T05:56:08Z</time></trkpt><trkpt lat="44.39882948487091" lon="11.335762887103439"><ele>150.4</ele><time>2026-04-28T05:56:09Z</time></trkpt><trkpt lat="44.39884349926086" lon="11.335612504624088"><ele>150.8</ele><time>2026-04-28T05:56:10Z</time></trkpt><trkpt lat="44.39885855374677" lon="11.335455556992867"><ele>151.2</ele><time>2026-04-28T05:56:11Z</time></trkpt><trkpt lat="44.39886554031058" lon="11.335313083022005"><ele>151.6</ele><time>2026-04-28T05:56:12Z</time></trkpt><trkpt lat="44.39885248005784" lon="11.335179807017264"><ele>152.0</ele><time>2026-04-28T05:56:13Z</time></trkpt><trkpt lat="44.39880224407292" lon="11.335046542525777"><ele>153.0</ele><time>2026-04-28T05:56:14Z</time></trkpt><trkpt lat="44.398736393886644" lon="11.334916248435285"><ele>154.0</ele><time>2026-04-28T05:56:15Z</time></trkpt><trkpt lat="44.39862247942713" lon="11.33484005760318"><ele>155.0</ele><time>2026-04-28T05:56:16Z</time></trkpt><trkpt lat="44.398507895061265" lon="11.334749511532296"><ele>156.0</ele><time>2026-04-28T05:56:17Z</time></trkpt><trkpt lat="44.39838297688688" lon="11.33466362646617"><ele>156.75</ele><time>2026-04-28T05:56:18Z</time></trkpt><trkpt lat="44.39826071179789" lon="11.334583025018814"><ele>157.5</ele><time>2026-04-28T05:56:19Z</time></trkpt><trkpt lat="44.39812487349876" lon="11.334495333492073"><ele>158.25</ele><time>2026-04-28T05:56:20Z</time></trkpt><trkpt lat="44.39799321403116" lon="11.334406737285024"><ele>159.0</ele><time>2026-04-28T05:56:21Z</time></trkpt><trkpt lat="44.39784910880586" lon="11.334305475514132"><ele>159.0</ele><time>2026-04-28T05:56:22Z</time></trkpt><trkpt lat="44.39770498284827" lon="11.334207485558695"><ele>159.0</ele><time>2026-04-28T05:56:23Z</time></trkpt><trkpt lat="44.39755567180309" lon="11.334108255603862"><ele>159.0</ele><time>2026-04-28T05:56:24Z</time></trkpt><trkpt lat="44.39739726988887" lon="11.334009662055012"><ele>159.0</ele><time>2026-04-28T05:56:25Z</time></trkpt><trkpt lat="44.3972356652539" lon="11.333910647592623"><ele>159.0</ele><time>2026-04-28T05:56:26Z</time></trkpt><trkpt lat="44.39707459992028" lon="11.333807715259875"><ele>159.0</ele><time>2026-04-28T05:56:27Z</time></trkpt><trkpt lat="44.39690639857872" lon="11.333697959505589"><ele>160.33333333333334</ele><time>2026-04-28T05:56:28Z</time></trkpt><trkpt lat="44.396733022832684" lon="11.333591630818756"><ele>161.66666666666669</ele><time>2026-04-28T05:56:29Z</time></trkpt><trkpt lat="44.39656797784448" lon="11.333483920806511"><ele>163.0</ele><time>2026-04-28T05:56:30Z</time></trkpt><trkpt lat="44.39640048399082" lon="11.333379767968529"><ele>163.0</ele><time>2026-04-28T05:56:31Z</time></trkpt><trkpt lat="44.39623463058633" lon="11.33327202442173"><ele>163.0</ele><time>2026-04-28T05:56:32Z</time></trkpt><trkpt lat="44.396065882072655" lon="11.333165643056109"><ele>163.0</ele><time>2026-04-28T05:56:33Z</time></trkpt><trkpt lat="44.395907273454135" lon="11.333057696729746"><ele>164.0</ele><time>2026-04-28T05:56:34Z</time></trkpt><trkpt lat="44.39575307938969" lon="11.332966560842271"><ele>165.0</ele><time>2026-04-28T05:56:35Z</time></trkpt><trkpt lat="44.39560041513446" lon="11.332871622399987"><ele>166.0</ele><time>2026-04-28T05:56:36Z</time></trkpt><trkpt lat="44.395446051084065" lon="11.33276923714475"><ele>166.0</ele><time>2026-04-28T05:56:37Z</time></trkpt><trkpt lat="44.39528220727036" lon="11.332669047707567"><ele>166.0</ele><time>2026-04-28T05:56:38Z</time></trkpt><trkpt lat="44.39511407455036" lon="11.332565619188959"><ele>166.0</ele><time>2026-04-28T05:56:39Z</time></trkpt><trkpt lat="44.394941224548475" lon="11.332455971517357"><ele>166.0</ele><time>2026-04-28T05:56:40Z</time></trkpt><trkpt lat="44.3947788183564" lon="11.332354678569551"><ele>166.0</ele><time>2026-04-28T05:56:41Z</time></trkpt><trkpt lat="44.39463505731662" lon="11.332257574694218"><ele>166.0</ele><time>2026-04-28T05:56:42Z</time></trkpt><trkpt lat="44.39450237657141" lon="11.33217154985741"><ele>166.25</ele><time>2026-04-28T05:56:43Z</time></trkpt><trkpt lat="44.39437774767826" lon="11.332091625026166"><ele>166.5</ele><time>2026-04-28T05:56:44Z</time></trkpt><trkpt lat="44.39426909759115" lon="11.331995391063797"><ele>166.75</ele><time>2026-04-28T05:56:45Z</time></trkpt><trkpt lat="44.39417457654035" lon="11.33189077903729"><ele>167.0</ele><time>2026-04-28T05:56:46Z</time></trkpt><trkpt lat="44.39409334240316" lon="11.33174970106336"><ele>167.0</ele><time>2026-04-28T05:56:47Z</time></trkpt><trkpt lat="44.3940348074961" lon="11.331569067898812"><ele>167.0</ele><time>2026-04-28T05:56:48Z</time></trkpt><trkpt lat="44.39397824685434" lon="11.331382986573198"><ele>167.0</ele><time>2026-04-28T05:56:49Z</time></trkpt><trkpt lat="44.393917507098465" lon="11.33117637401165"><ele>167.0</ele><time>2026-04-28T05:56:50Z</time></trkpt><trkpt lat="44.393863095329635" lon="11.330975102434486"><ele>167.5</ele><time>2026-04-28T05:56:51Z</time></trkpt><trkpt lat="44.39380747347632" lon="11.33079311257572"><ele>168.0</ele><time>2026-04-28T05:56:52Z</time></trkpt><trkpt lat="44.393763036695574" lon="11.330625413617097"><ele>168.5</ele><time>2026-04-28T05:56:53Z</time></trkpt><trkpt lat="44.39370267434822" lon="11.330470370989742"><ele>169.0</ele><time>2026-04-28T05:56:54Z</time></trkpt><trkpt lat="44.393625033153675" lon="11.330330925278268"><ele>169.25</ele><time>2026-04-28T05:56:55Z</time></trkpt><trkpt lat="44.393515031305085" lon="11.330215217469732"><ele>169.5</ele><time>2026-04-28T05:56:56Z</time></trkpt><trkpt lat="44.39338106620987" lon="11.33012292746193"><ele>169.75</ele><time>2026-04-28T05:56:57Z</time></trkpt><trkpt lat="44.393251402636864" lon="11.33002663067024"><ele>170.0</ele><time>2026-04-28T05:56:58Z</time></trkpt><trkpt lat="44.39309846833835" lon="11.329949104219017"><ele>169.66666666666666</ele><time>2026-04-28T05:56:59Z</time></trkpt><trkpt lat="44.39295121095015" lon="11.329847691561174"><ele>169.33333333333334</ele><time>2026-04-28T05:57:00Z</time></trkpt><trkpt lat="44.39279672355259" lon="11.32974467027343"><ele>169.0</ele><time>2026-04-28T05:57:01Z</time></trkpt><trkpt lat="44.39263516197015" lon="11.329642018072498"><ele>170.66666666666669</ele><time>2026-04-28T05:57:02Z</time></trkpt><trkpt lat="44.39247838765345" lon="11.329536280963994"><ele>172.33333333333334</ele><time>2026-04-28T05:57:03Z</time></trkpt><trkpt lat="44.39232316124938" lon="11.32943492957286"><ele>174.0</ele><time>2026-04-28T05:57:04Z</time></trkpt><trkpt lat="44.392171808832686" lon="11.329339026733207"><ele>176.66666666666666</ele><time>2026-04-28T05:57:05Z</time></trkpt><trkpt lat="44.39201395626792" lon="11.329240977863725"><ele>179.33333333333331</ele><time>2026-04-28T05:57:06Z</time></trkpt><trkpt lat="44.39184881481007" lon="11.329135515717512"><ele>182.0</ele><time>2026-04-28T05:57:07Z</time></trkpt><trkpt lat="44.391683031158095" lon="11.32902481612115"><ele>182.0</ele><time>2026-04-28T05:57:08Z</time></trkpt><trkpt lat="44.391515061949946" lon="11.328916166517356"><ele>182.0</ele><time>2026-04-28T05:57:09Z</time></trkpt><trkpt lat="44.39133318519537" lon="11.328798709884198"><ele>182.0</ele><time>2026-04-28T05:57:10Z</time></trkpt><trkpt lat="44.39115792429983" lon="11.32867645088822"><ele>186.0</ele><time>2026-04-28T05:57:11Z</time></trkpt><trkpt lat="44.390991721712055" lon="11.328566676533267"><ele>190.0</ele><time>2026-04-28T05:57:12Z</time></trkpt><trkpt lat="44.39083774001807" lon="11.328460317184703"><ele>194.0</ele><time>2026-04-28T05:57:13Z</time></trkpt><trkpt lat="44.390684575977936" lon="11.32835128729363"><ele>194.0</ele><time>2026-04-28T05:57:14Z</time></trkpt><trkpt lat="44.39053732738944" lon="11.328242639564577"><ele>194.0</ele><time>2026-04-28T05:57:15Z</time></trkpt><trkpt lat="44.39039744712216" lon="11.328145407359706"><ele>194.0</ele><time>2026-04-28T05:57:16Z</time></trkpt><trkpt lat="44.39027207236342" lon="11.328054390992383"><ele>195.50000000000003</ele><time>2026-04-28T05:57:17Z</time></trkpt><trkpt lat="44.3901690286443" lon="11.327985455407104"><ele>197.0</ele><time>2026-04-28T05:57:18Z</time></trkpt><trkpt lat="44.39008320910467" lon="11.327930024180514"><ele>198.5</ele><time>2026-04-28T05:57:19Z</time></trkpt><trkpt lat="44.39001066085679" lon="11.327869424586538"><ele>200.0</ele><time>2026-04-28T05:57:20Z</time></trkpt><trkpt lat="44.3899733523677" lon="11.327790835889479"><ele>201.50000000000003</ele><time>2026-04-28T05:57:21Z</time></trkpt><trkpt lat="44.38997158524787" lon="11.327687419091946"><ele>203.0</ele><time>2026-04-28T05:57:22Z</time></trkpt><trkpt lat="44.39006796336819" lon="11.327545448850778"><ele>203.0</ele><time>2026-04-28T05:57:24Z</time></trkpt><trkpt lat="44.3901402163776" lon="11.327524598392776"><ele>203.0</ele><time>2026-04-28T05:57:25Z</time></trkpt><trkpt lat="44.390233508903634" lon="11.327536688585718"><ele>203.0</ele><time>2026-04-28T05:57:26Z</time></trkpt><trkpt lat="44.39034904120279" lon="11.327567934900996"><ele>203.0</ele><time>2026-04-28T05:57:27Z</time></trkpt><trkpt lat="44.39046104104584" lon="11.327620255070693"><ele>203.0</ele><time>2026-04-28T05:57:28Z</time></trkpt><trkpt lat="44.39056095200044" lon="11.32770561660934"><ele>203.60000000000002</ele><time>2026-04-28T05:57:29Z</time></trkpt><trkpt lat="44.39065591561562" lon="11.32778551385038"><ele>204.20000000000002</ele><time>2026-04-28T05:57:30Z</time></trkpt><trkpt lat="44.39074163273653" lon="11.327853507384901"><ele>204.8</ele><time>2026-04-28T05:57:31Z</time></trkpt><trkpt lat="44.390823282693866" lon="11.327886257619149"><ele>205.4</ele><time>2026-04-28T05:57:32Z</time></trkpt><trkpt lat="44.39090706599928" lon="11.327874895908092"><ele>206.0</ele><time>2026-04-28T05:57:33Z</time></trkpt><trkpt lat="44.390994163791525" lon="11.327800244983427"><ele>206.0</ele><time>2026-04-28T05:57:35Z</time></trkpt><trkpt lat="44.391009023240024" lon="11.327663168436622"><ele>206.0</ele><time>2026-04-28T05:57:37Z</time></trkpt><trkpt lat="44.39095944352105" lon="11.327473926517387"><ele>206.0</ele><time>2026-04-28T05:57:39Z</time></trkpt><trkpt lat="44.39090307251114" lon="11.327356151221247"><ele>206.0</ele><time>2026-04-28T05:57:40Z</time></trkpt><trkpt lat="44.39082931006927" lon="11.327235813449574"><ele>208.25</ele><time>2026-04-28T05:57:41Z</time></trkpt><trkpt lat="44.39076280100183" lon="11.32711254910283"><ele>210.5</ele><time>2026-04-28T05:57:42Z</time></trkpt><trkpt lat="44.39069081650998" lon="11.32698411182122"><ele>212.75</ele><time>2026-04-28T05:57:43Z</time></trkpt><trkpt lat="44.39061205922916" lon="11.326857418536301"><ele>215.0</ele><time>2026-04-28T05:57:44Z</time></trkpt><trkpt lat="44.39053270545122" lon="11.32672403504625"><ele>214.8</ele><time>2026-04-28T05:57:45Z</time></trkpt><trkpt lat="44.39045694455392" lon="11.326585426851457"><ele>214.6</ele><time>2026-04-28T05:57:46Z</time></trkpt><trkpt lat="44.390379162295055" lon="11.326456896222224"><ele>214.39999999999998</ele><time>2026-04-28T05:57:47Z</time></trkpt><trkpt lat="44.39031151688106" lon="11.326350868955895"><ele>214.2</ele><time>2026-04-28T05:57:48Z</time></trkpt><trkpt lat="44.390239639808954" lon="11.326252650174466"><ele>214.0</ele><time>2026-04-28T05:57:49Z</time></trkpt><trkpt lat="44.39015086663306" lon="11.326187290756677"><ele>214.0</ele><time>2026-04-28T05:57:50Z</time></trkpt><trkpt lat="44.390047254232755" lon="11.32616204250945"><ele>213.99999999999997</ele><time>2026-04-28T05:57:51Z</time></trkpt><trkpt lat="44.389948286656264" lon="11.326197183773786"><ele>213.99999999999997</ele><time>2026-04-28T05:57:52Z</time></trkpt><trkpt lat="44.38984958733499" lon="11.326267446359408"><ele>214.0</ele><time>2026-04-28T05:57:53Z</time></trkpt><trkpt lat="44.38975853102167" lon="11.326381384374734"><ele>214.0</ele><time>2026-04-28T05:57:54Z</time></trkpt><trkpt lat="44.38967628177032" lon="11.326520524156502"><ele>218.79999999999998</ele><time>2026-04-28T05:57:55Z</time></trkpt><trkpt lat="44.3896084075348" lon="11.32664359656814"><ele>223.59999999999997</ele><time>2026-04-28T05:57:56Z</time></trkpt><trkpt lat="44.38955979798006" lon="11.326755333251137"><ele>228.4</ele><time>2026-04-28T05:57:57Z</time></trkpt><trkpt lat="44.38949495835056" lon="11.326845154801592"><ele>233.2</ele><time>2026-04-28T05:57:58.001Z</time></trkpt><trkpt lat="44.38939573863864" lon="11.326938828602557"><ele>238.0</ele><time>2026-04-28T05:57:59.001Z</time></trkpt><trkpt lat="44.389277458803775" lon="11.326988285045916"><ele>238.0</ele><time>2026-04-28T05:58:00.001Z</time></trkpt><trkpt lat="44.38915514368498" lon="11.327030188105658"><ele>238.0</ele><time>2026-04-28T05:58:01.001Z</time></trkpt><trkpt lat="44.38902042087016" lon="11.327069825076897"><ele>238.0</ele><time>2026-04-28T05:58:02.001Z</time></trkpt><trkpt lat="44.38888282158019" lon="11.327109077307703"><ele>238.0</ele><time>2026-04-28T05:58:03.001Z</time></trkpt><trkpt lat="44.38874877555966" lon="11.327153244497033"><ele>239.0</ele><time>2026-04-28T05:58:04.001Z</time></trkpt><trkpt lat="44.38862205812895" lon="11.327182026090568"><ele>240.0</ele><time>2026-04-28T05:58:05.001Z</time></trkpt><trkpt lat="44.388509290449065" lon="11.32725173559275"><ele>241.0</ele><time>2026-04-28T05:58:06.001Z</time></trkpt><trkpt lat="44.388406178928086" lon="11.327326220440307"><ele>242.0</ele><time>2026-04-28T05:58:07.001Z</time></trkpt><trkpt lat="44.38830972140126" lon="11.32735971340026"><ele>242.0</ele><time>2026-04-28T05:58:08.001Z</time></trkpt><trkpt lat="44.388226494844524" lon="11.327355895957016"><ele>242.0</ele><time>2026-04-28T05:58:09.001Z</time></trkpt><trkpt lat="44.38816664488043" lon="11.327308858768793"><ele>242.0</ele><time>2026-04-28T05:58:10.001Z</time></trkpt><trkpt lat="44.38812564085635" lon="11.327204656960864"><ele>242.0</ele><time>2026-04-28T05:58:11.001Z</time></trkpt><trkpt lat="44.388093245348095" lon="11.327070213389522"><ele>242.0</ele><time>2026-04-28T05:58:12.001Z</time></trkpt><trkpt lat="44.38805708531497" lon="11.326914849835772"><ele>242.0</ele><time>2026-04-28T05:58:13.001Z</time></trkpt><trkpt lat="44.388040400322105" lon="11.326744310006827"><ele>242.0</ele><time>2026-04-28T05:58:14.001Z</time></trkpt><trkpt lat="44.38806257006945" lon="11.326578418224026"><ele>242.0</ele><time>2026-04-28T05:58:15.001Z</time></trkpt><trkpt lat="44.388128459366705" lon="11.3264136735473"><ele>242.0</ele><time>2026-04-28T05:58:16.001Z</time></trkpt><trkpt lat="44.38821037217712" lon="11.326267023113331"><ele>243.5</ele><time>2026-04-28T05:58:17.001Z</time></trkpt><trkpt lat="44.388302478362924" lon="11.32611834604"><ele>245.0</ele><time>2026-04-28T05:58:18.001Z</time></trkpt><trkpt lat="44.388382222264575" lon="11.325963682297935"><ele>246.5</ele><time>2026-04-28T05:58:19.001Z</time></trkpt><trkpt lat="44.38844430005447" lon="11.325798843366812"><ele>248.0</ele><time>2026-04-28T05:58:20.001Z</time></trkpt><trkpt lat="44.3885005006198" lon="11.32561402356072"><ele>247.25</ele><time>2026-04-28T05:58:21.001Z</time></trkpt><trkpt lat="44.38856453590045" lon="11.325436995766365"><ele>246.5</ele><time>2026-04-28T05:58:22.001Z</time></trkpt><trkpt lat="44.388634839092305" lon="11.325275509782266"><ele>245.75</ele><time>2026-04-28T05:58:23.001Z</time></trkpt><trkpt lat="44.38869957403006" lon="11.325112074469889"><ele>245.0</ele><time>2026-04-28T05:58:24.001Z</time></trkpt><trkpt lat="44.38874649673755" lon="11.324938193561788"><ele>245.0</ele><time>2026-04-28T05:58:25.001Z</time></trkpt><trkpt lat="44.38876857633857" lon="11.324751134024602"><ele>245.0</ele><time>2026-04-28T05:58:26.001Z</time></trkpt><trkpt lat="44.388763763528196" lon="11.32455482112652"><ele>245.0</ele><time>2026-04-28T05:58:27.001Z</time></trkpt><trkpt lat="44.388743111404324" lon="11.32434566850541"><ele>245.0</ele><time>2026-04-28T05:58:28.001Z</time></trkpt><trkpt lat="44.38872015263876" lon="11.324128845462976"><ele>244.75</ele><time>2026-04-28T05:58:29.001Z</time></trkpt><trkpt lat="44.388701957425496" lon="11.323923927180576"><ele>244.5</ele><time>2026-04-28T05:58:30.001Z</time></trkpt><trkpt lat="44.38868234539633" lon="11.323727769940586"><ele>244.25</ele><time>2026-04-28T05:58:31.001Z</time></trkpt><trkpt lat="44.388666166110795" lon="11.32354993827365"><ele>244.0</ele><time>2026-04-28T05:58:32.001Z</time></trkpt><trkpt lat="44.38866969352056" lon="11.323382216287664"><ele>245.0</ele><time>2026-04-28T05:58:33.001Z</time></trkpt><trkpt lat="44.38869524826186" lon="11.323203218765615"><ele>246.0</ele><time>2026-04-28T05:58:34.001Z</time></trkpt><trkpt lat="44.388743216794616" lon="11.323034707515477"><ele>247.0</ele><time>2026-04-28T05:58:35.001Z</time></trkpt><trkpt lat="44.38881630436924" lon="11.322899687917603"><ele>248.0</ele><time>2026-04-28T05:58:36.001Z</time></trkpt><trkpt lat="44.388912007818526" lon="11.32279778715745"><ele>252.25</ele><time>2026-04-28T05:58:37.001Z</time></trkpt><trkpt lat="44.38900882674765" lon="11.322693145356853"><ele>256.5</ele><time>2026-04-28T05:58:38.001Z</time></trkpt><trkpt lat="44.389099627935366" lon="11.322553871651156"><ele>260.75</ele><time>2026-04-28T05:58:39.001Z</time></trkpt><trkpt lat="44.389173334972405" lon="11.322380327985924"><ele>265.0</ele><time>2026-04-28T05:58:40.001Z</time></trkpt><trkpt lat="44.3892262291369" lon="11.322196926251435"><ele>265.0</ele><time>2026-04-28T05:58:41.001Z</time></trkpt><trkpt lat="44.38927473872336" lon="11.322007462461535"><ele>265.0</ele><time>2026-04-28T05:58:42.001Z</time></trkpt><trkpt lat="44.38934314567448" lon="11.321819947757584"><ele>265.0</ele><time>2026-04-28T05:58:43.001Z</time></trkpt><trkpt lat="44.389433008227776" lon="11.321640889329897"><ele>265.0</ele><time>2026-04-28T05:58:44.001Z</time></trkpt><trkpt lat="44.3895409516526" lon="11.321488844516152"><ele>265.0</ele><time>2026-04-28T05:58:45.001Z</time></trkpt><trkpt lat="44.38966742724463" lon="11.321361027107324"><ele>265.0</ele><time>2026-04-28T05:58:46.001Z</time></trkpt><trkpt lat="44.38980857085561" lon="11.321264422075192"><ele>267.0</ele><time>2026-04-28T05:58:47.001Z</time></trkpt><trkpt lat="44.38994815514665" lon="11.321183621771182"><ele>269.0</ele><time>2026-04-28T05:58:48.001Z</time></trkpt><trkpt lat="44.39008838890321" lon="11.321099278241626"><ele>271.0</ele><time>2026-04-28T05:58:49.001Z</time></trkpt><trkpt lat="44.390223207329655" lon="11.321012597477466"><ele>271.0</ele><time>2026-04-28T05:58:50.001Z</time></trkpt><trkpt lat="44.390338894862104" lon="11.32087626925274"><ele>271.0</ele><time>2026-04-28T05:58:51.001Z</time></trkpt><trkpt lat="44.39045132271264" lon="11.320712482021234"><ele>271.0</ele><time>2026-04-28T05:58:52.001Z</time></trkpt><trkpt lat="44.39056237248099" lon="11.320560343868356"><ele>273.25</ele><time>2026-04-28T05:58:53.001Z</time></trkpt><trkpt lat="44.39067392602304" lon="11.320426807907618"><ele>275.5</ele><time>2026-04-28T05:58:54.001Z</time></trkpt><trkpt lat="44.39079364461897" lon="11.320303228689973"><ele>277.75</ele><time>2026-04-28T05:58:55.001Z</time></trkpt><trkpt lat="44.390893067382336" lon="11.320148854350101"><ele>280.0</ele><time>2026-04-28T05:58:56.001Z</time></trkpt><trkpt lat="44.3909835531522" lon="11.31994196671136"><ele>280.0</ele><time>2026-04-28T05:58:57.001Z</time></trkpt><trkpt lat="44.39107428715489" lon="11.319742829099699"><ele>280.0</ele><time>2026-04-28T05:58:58.001Z</time></trkpt><trkpt lat="44.39115942355224" lon="11.31956542984072"><ele>280.0</ele><time>2026-04-28T05:58:59.001Z</time></trkpt><trkpt lat="44.39124416968091" lon="11.319397266053237"><ele>278.5</ele><time>2026-04-28T05:59:00.001Z</time></trkpt><trkpt lat="44.3913237571279" lon="11.319228212912861"><ele>277.0</ele><time>2026-04-28T05:59:01.001Z</time></trkpt><trkpt lat="44.39141321341054" lon="11.319064289846887"><ele>275.5</ele><time>2026-04-28T05:59:02.001Z</time></trkpt><trkpt lat="44.39150536778372" lon="11.318903528571472"><ele>274.0</ele><time>2026-04-28T05:59:03.001Z</time></trkpt><trkpt lat="44.39160992328631" lon="11.318750425753098"><ele>278.3333333333333</ele><time>2026-04-28T05:59:04.001Z</time></trkpt><trkpt lat="44.391714159774516" lon="11.318597967732362"><ele>282.6666666666667</ele><time>2026-04-28T05:59:05.001Z</time></trkpt><trkpt lat="44.39181562980522" lon="11.318440104751572"><ele>287.0</ele><time>2026-04-28T05:59:06.001Z</time></trkpt><trkpt lat="44.39191747908934" lon="11.318283140184496"><ele>287.0</ele><time>2026-04-28T05:59:07.001Z</time></trkpt><trkpt lat="44.39201120806387" lon="11.318143603016198"><ele>287.0</ele><time>2026-04-28T05:59:08.001Z</time></trkpt><trkpt lat="44.39209473944126" lon="11.318022300230487"><ele>287.0</ele><time>2026-04-28T05:59:09.001Z</time></trkpt><trkpt lat="44.392187257156806" lon="11.317911038134973"><ele>287.0</ele><time>2026-04-28T05:59:10.001Z</time></trkpt><trkpt lat="44.39228728298032" lon="11.31781685895463"><ele>289.25</ele><time>2026-04-28T05:59:11.001Z</time></trkpt><trkpt lat="44.39239182412536" lon="11.317741044161453"><ele>291.5</ele><time>2026-04-28T05:59:12.001Z</time></trkpt><trkpt lat="44.39248665688593" lon="11.317653801527744"><ele>293.75</ele><time>2026-04-28T05:59:13.001Z</time></trkpt><trkpt lat="44.39256582554237" lon="11.317543161200584"><ele>296.0</ele><time>2026-04-28T05:59:14.001Z</time></trkpt><trkpt lat="44.39262000882615" lon="11.317397407476166"><ele>296.0</ele><time>2026-04-28T05:59:15.001Z</time></trkpt><trkpt lat="44.392653592675956" lon="11.31725246401727"><ele>296.0</ele><time>2026-04-28T05:59:16.001Z</time></trkpt><trkpt lat="44.39268171821937" lon="11.317107995897485"><ele>296.0</ele><time>2026-04-28T05:59:17.001Z</time></trkpt><trkpt lat="44.39272985791567" lon="11.316981098319056"><ele>296.0</ele><time>2026-04-28T05:59:18.001Z</time></trkpt><trkpt lat="44.39278253479546" lon="11.31687538451247"><ele>296.0</ele><time>2026-04-28T05:59:19.001Z</time></trkpt><trkpt lat="44.39284486507327" lon="11.316771767318906"><ele>296.0</ele><time>2026-04-28T05:59:20.001Z</time></trkpt><trkpt lat="44.39290281708111" lon="11.316656187723334"><ele>296.0</ele><time>2026-04-28T05:59:21.001Z</time></trkpt><trkpt lat="44.39293745126772" lon="11.31650687328089"><ele>296.0</ele><time>2026-04-28T05:59:22.001Z</time></trkpt><trkpt lat="44.39295072090704" lon="11.316355018385702"><ele>296.0</ele><time>2026-04-28T05:59:23.001Z</time></trkpt><trkpt lat="44.39295570336439" lon="11.316229251667252"><ele>296.0</ele><time>2026-04-28T05:59:24.001Z</time></trkpt><trkpt lat="44.39295500069057" lon="11.316100294194365"><ele>297.0</ele><time>2026-04-28T05:59:25.001Z</time></trkpt><trkpt lat="44.392954033727534" lon="11.315963753538645"><ele>298.0</ele><time>2026-04-28T05:59:26.001Z</time></trkpt><trkpt lat="44.392958892283694" lon="11.315816444704547"><ele>299.0</ele><time>2026-04-28T05:59:27.001Z</time></trkpt><trkpt lat="44.392969759699696" lon="11.315658998561851"><ele>300.0</ele><time>2026-04-28T05:59:28.001Z</time></trkpt><trkpt lat="44.39300083113631" lon="11.31549690214117"><ele>301.0</ele><time>2026-04-28T05:59:29.001Z</time></trkpt><trkpt lat="44.3930271419656" lon="11.315340519293846"><ele>301.0</ele><time>2026-04-28T05:59:30.001Z</time></trkpt><trkpt lat="44.393060724203906" lon="11.315187280005459"><ele>301.0</ele><time>2026-04-28T05:59:31.001Z</time></trkpt><trkpt lat="44.39309765075479" lon="11.315046548391416"><ele>301.0</ele><time>2026-04-28T05:59:32.001Z</time></trkpt><trkpt lat="44.393124204222325" lon="11.314910697437393"><ele>301.0</ele><time>2026-04-28T05:59:33.001Z</time></trkpt><trkpt lat="44.3931485238399" lon="11.314784504790852"><ele>301.0</ele><time>2026-04-28T05:59:34.001Z</time></trkpt><trkpt lat="44.393172987126604" lon="11.314618282471677"><ele>302.25</ele><time>2026-04-28T05:59:35.001Z</time></trkpt><trkpt lat="44.39320342426703" lon="11.314450500096248"><ele>303.5</ele><time>2026-04-28T05:59:36.001Z</time></trkpt><trkpt lat="44.393249977546944" lon="11.314255256727627"><ele>304.75</ele><time>2026-04-28T05:59:37.001Z</time></trkpt><trkpt lat="44.393283462594034" lon="11.314070625164895"><ele>306.0</ele><time>2026-04-28T05:59:38.001Z</time></trkpt><trkpt lat="44.393309450664155" lon="11.313897082025608"><ele>306.0</ele><time>2026-04-28T05:59:39.001Z</time></trkpt><trkpt lat="44.39332897732444" lon="11.313727753269896"><ele>306.0</ele><time>2026-04-28T05:59:40.001Z</time></trkpt><trkpt lat="44.393344874680984" lon="11.313572815650486"><ele>306.0</ele><time>2026-04-28T05:59:41.001Z</time></trkpt><trkpt lat="44.39336054128142" lon="11.313421184926671"><ele>306.0</ele><time>2026-04-28T05:59:42.001Z</time></trkpt><trkpt lat="44.393370763260805" lon="11.313281187004312"><ele>306.0</ele><time>2026-04-28T05:59:43.001Z</time></trkpt><trkpt lat="44.39338184993257" lon="11.313137349852052"><ele>306.40000000000003</ele><time>2026-04-28T05:59:44.001Z</time></trkpt><trkpt lat="44.393393520058424" lon="11.312992574534883"><ele>306.8</ele><time>2026-04-28T05:59:45.001Z</time></trkpt><trkpt lat="44.3934076614775" lon="11.31284056945742"><ele>307.20000000000005</ele><time>2026-04-28T05:59:46.001Z</time></trkpt><trkpt lat="44.39342187749889" lon="11.312687206347748"><ele>307.6</ele><time>2026-04-28T05:59:47.001Z</time></trkpt><trkpt lat="44.39343827906162" lon="11.31253109945401"><ele>308.0</ele><time>2026-04-28T05:59:48.001Z</time></trkpt><trkpt lat="44.393450253080076" lon="11.312369919123116"><ele>309.25</ele><time>2026-04-28T05:59:49.001Z</time></trkpt><trkpt lat="44.393454547305524" lon="11.312200990753421"><ele>310.5</ele><time>2026-04-28T05:59:50.001Z</time></trkpt><trkpt lat="44.393448753537626" lon="11.312031010713994"><ele>311.75</ele><time>2026-04-28T05:59:51.001Z</time></trkpt><trkpt lat="44.39343432502747" lon="11.311861959012043"><ele>313.0</ele><time>2026-04-28T05:59:52.001Z</time></trkpt><trkpt lat="44.3934067317613" lon="11.311689075219087"><ele>313.0</ele><time>2026-04-28T05:59:53.001Z</time></trkpt><trkpt lat="44.39337527766748" lon="11.311513494711752"><ele>313.0</ele><time>2026-04-28T05:59:54.001Z</time></trkpt><trkpt lat="44.39333754197942" lon="11.311330063556566"><ele>313.0</ele><time>2026-04-28T05:59:55.001Z</time></trkpt><trkpt lat="44.39330158766055" lon="11.31114999921848"><ele>313.0</ele><time>2026-04-28T05:59:56.001Z</time></trkpt><trkpt lat="44.39326418327464" lon="11.310974853841534"><ele>312.75</ele><time>2026-04-28T05:59:57.001Z</time></trkpt><trkpt lat="44.393223722516915" lon="11.310809898238368"><ele>312.5</ele><time>2026-04-28T05:59:58.001Z</time></trkpt><trkpt lat="44.39316895239783" lon="11.310656753748727"><ele>312.25</ele><time>2026-04-28T05:59:59.001Z</time></trkpt><trkpt lat="44.39309039266085" lon="11.310521221401876"><ele>312.0</ele><time>2026-04-28T06:00:00.001Z</time></trkpt><trkpt lat="44.392994525757196" lon="11.310411578553937"><ele>312.0</ele><time>2026-04-28T06:00:01.001Z</time></trkpt><trkpt lat="44.39290653048099" lon="11.310307298966748"><ele>312.0</ele><time>2026-04-28T06:00:02.001Z</time></trkpt><trkpt lat="44.392820001778695" lon="11.310210156352934"><ele>312.0</ele><time>2026-04-28T06:00:03.001Z</time></trkpt><trkpt lat="44.39273531947496" lon="11.310113549431032"><ele>312.0</ele><time>2026-04-28T06:00:04.001Z</time></trkpt><trkpt lat="44.39264093423971" lon="11.31002154201941"><ele>312.0</ele><time>2026-04-28T06:00:05.001Z</time></trkpt><trkpt lat="44.3925493378807" lon="11.309953290287728"><ele>312.0</ele><time>2026-04-28T06:00:06.001Z</time></trkpt><trkpt lat="44.39244991952999" lon="11.309900152417269"><ele>312.0</ele><time>2026-04-28T06:00:07.001Z</time></trkpt><trkpt lat="44.39236672697301" lon="11.309851914087947"><ele>312.0</ele><time>2026-04-28T06:00:08.001Z</time></trkpt><trkpt lat="44.3923176108171" lon="11.309796098453102"><ele>312.0</ele><time>2026-04-28T06:00:09.001Z</time></trkpt><trkpt lat="44.39228640228048" lon="11.30971115111384"><ele>312.0</ele><time>2026-04-28T06:00:11.001Z</time></trkpt><trkpt lat="44.39235625874404" lon="11.309530575885855"><ele>311.8</ele><time>2026-04-28T06:00:12.001Z</time></trkpt><trkpt lat="44.392433156832" lon="11.309429980423324"><ele>311.6</ele><time>2026-04-28T06:00:13.001Z</time></trkpt><trkpt lat="44.392504249569875" lon="11.309341166930887"><ele>311.40000000000003</ele><time>2026-04-28T06:00:14.001Z</time></trkpt><trkpt lat="44.39258407706403" lon="11.309247372530185"><ele>311.2</ele><time>2026-04-28T06:00:15.001Z</time></trkpt><trkpt lat="44.39267423097669" lon="11.309146865561722"><ele>311.0</ele><time>2026-04-28T06:00:16.001Z</time></trkpt><trkpt lat="44.392767453147" lon="11.309035820223167"><ele>311.0</ele><time>2026-04-28T06:00:17.001Z</time></trkpt><trkpt lat="44.3928652524592" lon="11.308925327242537"><ele>311.0</ele><time>2026-04-28T06:00:18.001Z</time></trkpt><trkpt lat="44.3929789122994" lon="11.30882808682515"><ele>311.0</ele><time>2026-04-28T06:00:19.001Z</time></trkpt><trkpt lat="44.393083495374135" lon="11.308719634029277"><ele>311.0</ele><time>2026-04-28T06:00:20.001Z</time></trkpt><trkpt lat="44.393198159079965" lon="11.308656595507117"><ele>311.2</ele><time>2026-04-28T06:00:21.001Z</time></trkpt><trkpt lat="44.393306383118706" lon="11.308603695337782"><ele>311.40000000000003</ele><time>2026-04-28T06:00:22.001Z</time></trkpt><trkpt lat="44.393412121245795" lon="11.308547993107686"><ele>311.6</ele><time>2026-04-28T06:00:23.001Z</time></trkpt><trkpt lat="44.393514292824534" lon="11.30850511385191"><ele>311.8</ele><time>2026-04-28T06:00:24.001Z</time></trkpt><trkpt lat="44.393597682141376" lon="11.30846044733897"><ele>312.0</ele><time>2026-04-28T06:00:25.001Z</time></trkpt><trkpt lat="44.39366482367005" lon="11.308429438857845"><ele>312.0</ele><time>2026-04-28T06:00:26.001Z</time></trkpt><trkpt lat="44.3937199695103" lon="11.3083516629878"><ele>312.0</ele><time>2026-04-28T06:00:27.006Z</time></trkpt><trkpt lat="44.393747680273755" lon="11.308243139426052"><ele>312.0</ele><time>2026-04-28T06:00:28.006Z</time></trkpt><trkpt lat="44.39375891340004" lon="11.30809259051532"><ele>312.0</ele><time>2026-04-28T06:00:29.006Z</time></trkpt><trkpt lat="44.39373802779477" lon="11.307939399674733"><ele>312.0</ele><time>2026-04-28T06:00:30.006Z</time></trkpt><trkpt lat="44.39368185531598" lon="11.307785637628392"><ele>309.75</ele><time>2026-04-28T06:00:31.006Z</time></trkpt><trkpt lat="44.393628982520525" lon="11.307620460221768"><ele>307.5</ele><time>2026-04-28T06:00:32.006Z</time></trkpt><trkpt lat="44.39357966137915" lon="11.307448647914981"><ele>305.25</ele><time>2026-04-28T06:00:33.006Z</time></trkpt><trkpt lat="44.39354410834561" lon="11.307257458729861"><ele>303.0</ele><time>2026-04-28T06:00:34.006Z</time></trkpt><trkpt lat="44.39348847729741" lon="11.30707623012711"><ele>301.5</ele><time>2026-04-28T06:00:35.006Z</time></trkpt><trkpt lat="44.39344347089677" lon="11.306902710647117"><ele>300.0</ele><time>2026-04-28T06:00:36.006Z</time></trkpt><trkpt lat="44.393404900947736" lon="11.306728322452743"><ele>298.5</ele><time>2026-04-28T06:00:37.006Z</time></trkpt><trkpt lat="44.39336844419098" lon="11.306552118222285"><ele>297.0</ele><time>2026-04-28T06:00:38.006Z</time></trkpt><trkpt lat="44.393342547675715" lon="11.30637128206618"><ele>295.5</ele><time>2026-04-28T06:00:39.006Z</time></trkpt><trkpt lat="44.393329383391624" lon="11.306189499395751"><ele>294.0</ele><time>2026-04-28T06:00:40.006Z</time></trkpt><trkpt lat="44.39333744864978" lon="11.306004187050691"><ele>292.5</ele><time>2026-04-28T06:00:41.006Z</time></trkpt><trkpt lat="44.393359260018165" lon="11.305803376937385"><ele>291.0</ele><time>2026-04-28T06:00:42.006Z</time></trkpt><trkpt lat="44.39338756539576" lon="11.305596150656337"><ele>287.3333333333333</ele><time>2026-04-28T06:00:43.006Z</time></trkpt><trkpt lat="44.39343571265918" lon="11.305372960651775"><ele>283.66666666666663</ele><time>2026-04-28T06:00:44.006Z</time></trkpt><trkpt lat="44.39346751465197" lon="11.305141810023436"><ele>280.0</ele><time>2026-04-28T06:00:45.006Z</time></trkpt><trkpt lat="44.39349719914797" lon="11.304894510515647"><ele>278.0</ele><time>2026-04-28T06:00:46.006Z</time></trkpt><trkpt lat="44.393513308727364" lon="11.304643097380895"><ele>276.0</ele><time>2026-04-28T06:00:47.006Z</time></trkpt><trkpt lat="44.393526159083144" lon="11.304399678752201"><ele>274.0</ele><time>2026-04-28T06:00:48.006Z</time></trkpt><trkpt lat="44.39353049758223" lon="11.304146146003118"><ele>272.3333333333333</ele><time>2026-04-28T06:00:49.006Z</time></trkpt><trkpt lat="44.39353165699844" lon="11.303888092187519"><ele>270.6666666666667</ele><time>2026-04-28T06:00:50.006Z</time></trkpt><trkpt lat="44.39352715377296" lon="11.303642360671978"><ele>269.0</ele><time>2026-04-28T06:00:51.006Z</time></trkpt><trkpt lat="44.39351949537299" lon="11.303398906922654"><ele>269.0</ele><time>2026-04-28T06:00:52.006Z</time></trkpt><trkpt lat="44.3935163370239" lon="11.303158748098417"><ele>269.0</ele><time>2026-04-28T06:00:53.006Z</time></trkpt><trkpt lat="44.39351509853637" lon="11.30291990049254"><ele>269.0</ele><time>2026-04-28T06:00:54.006Z</time></trkpt><trkpt lat="44.39351264045133" lon="11.30268857010992"><ele>270.33333333333337</ele><time>2026-04-28T06:00:55.006Z</time></trkpt><trkpt lat="44.39350137845569" lon="11.302472886821498"><ele>271.6666666666667</ele><time>2026-04-28T06:00:56.006Z</time></trkpt><trkpt lat="44.393476562444754" lon="11.30225598335266"><ele>273.0</ele><time>2026-04-28T06:00:57.006Z</time></trkpt><trkpt lat="44.3934258622006" lon="11.30205071408168"><ele>272.75</ele><time>2026-04-28T06:00:58.006Z</time></trkpt><trkpt lat="44.39337724901996" lon="11.30185242006107"><ele>272.5</ele><time>2026-04-28T06:00:59.006Z</time></trkpt><trkpt lat="44.39332105333951" lon="11.301667538395915"><ele>272.25</ele><time>2026-04-28T06:01:00.006Z</time></trkpt><trkpt lat="44.393255202745806" lon="11.301475508803367"><ele>272.0</ele><time>2026-04-28T06:01:01.006Z</time></trkpt><trkpt lat="44.393183368120255" lon="11.301293195313143"><ele>272.0</ele><time>2026-04-28T06:01:02.006Z</time></trkpt><trkpt lat="44.393117807016665" lon="11.301120196740406"><ele>272.0</ele><time>2026-04-28T06:01:03.006Z</time></trkpt><trkpt lat="44.39306241516844" lon="11.300936575038802"><ele>272.0</ele><time>2026-04-28T06:01:04.006Z</time></trkpt><trkpt lat="44.39301614245824" lon="11.300752988450965"><ele>272.0</ele><time>2026-04-28T06:01:05.006Z</time></trkpt><trkpt lat="44.39297879973205" lon="11.300572313348566"><ele>265.0</ele><time>2026-04-28T06:01:06.006Z</time></trkpt><trkpt lat="44.39294905539468" lon="11.300365788517457"><ele>258.0</ele><time>2026-04-28T06:01:07.006Z</time></trkpt><trkpt lat="44.392948387997414" lon="11.300145533486187"><ele>251.0</ele><time>2026-04-28T06:01:08.006Z</time></trkpt><trkpt lat="44.39294776435774" lon="11.299917722008006"><ele>250.0</ele><time>2026-04-28T06:01:09.006Z</time></trkpt><trkpt lat="44.39295642294212" lon="11.29968659829309"><ele>249.0</ele><time>2026-04-28T06:01:10.006Z</time></trkpt><trkpt lat="44.39296608940413" lon="11.299470103723632"><ele>248.0</ele><time>2026-04-28T06:01:11.006Z</time></trkpt><trkpt lat="44.39297365349" lon="11.299271996418183"><ele>248.0</ele><time>2026-04-28T06:01:12.006Z</time></trkpt><trkpt lat="44.39297681779712" lon="11.299080575130043"><ele>248.0</ele><time>2026-04-28T06:01:13.006Z</time></trkpt><trkpt lat="44.392980558310526" lon="11.298898672066962"><ele>248.0</ele><time>2026-04-28T06:01:14.006Z</time></trkpt><trkpt lat="44.39298260015828" lon="11.29872004665621"><ele>248.0</ele><time>2026-04-28T06:01:15.006Z</time></trkpt><trkpt lat="44.39298037153629" lon="11.298535702978088"><ele>248.0</ele><time>2026-04-28T06:01:16.006Z</time></trkpt><trkpt lat="44.39296120819822" lon="11.298339445562739"><ele>248.0</ele><time>2026-04-28T06:01:17.006Z</time></trkpt><trkpt lat="44.392924548047446" lon="11.298140369658084"><ele>248.0</ele><time>2026-04-28T06:01:18.006Z</time></trkpt><trkpt lat="44.39286601294423" lon="11.297936984539476"><ele>248.0</ele><time>2026-04-28T06:01:19.006Z</time></trkpt><trkpt lat="44.392802680522905" lon="11.297719660054744"><ele>248.0</ele><time>2026-04-28T06:01:20.005Z</time></trkpt><trkpt lat="44.3927369978687" lon="11.297516642391189"><ele>248.0</ele><time>2026-04-28T06:01:21.005Z</time></trkpt><trkpt lat="44.39266957000791" lon="11.29733354953051"><ele>248.0</ele><time>2026-04-28T06:01:22.005Z</time></trkpt><trkpt lat="44.39260045047488" lon="11.297154216780715"><ele>246.5</ele><time>2026-04-28T06:01:23.006Z</time></trkpt><trkpt lat="44.39251488891344" lon="11.296984013895802"><ele>245.0</ele><time>2026-04-28T06:01:24.006Z</time></trkpt><trkpt lat="44.39242325532954" lon="11.296832911357674"><ele>243.5</ele><time>2026-04-28T06:01:25.006Z</time></trkpt><trkpt lat="44.39232415102127" lon="11.296691836059207"><ele>242.0</ele><time>2026-04-28T06:01:26.006Z</time></trkpt><trkpt lat="44.39221198293165" lon="11.29655451126685"><ele>242.0</ele><time>2026-04-28T06:01:27.006Z</time></trkpt><trkpt lat="44.39209572217457" lon="11.296423176642197"><ele>242.0</ele><time>2026-04-28T06:01:28.006Z</time></trkpt><trkpt lat="44.39197906228702" lon="11.296298354427398"><ele>242.0</ele><time>2026-04-28T06:01:29.006Z</time></trkpt><trkpt lat="44.39186256998192" lon="11.296179199470192"><ele>242.0</ele><time>2026-04-28T06:01:30.006Z</time></trkpt><trkpt lat="44.391749691129256" lon="11.296065677173061"><ele>242.0</ele><time>2026-04-28T06:01:31.006Z</time></trkpt><trkpt lat="44.39164111673847" lon="11.295951536951401"><ele>242.0</ele><time>2026-04-28T06:01:32.006Z</time></trkpt><trkpt lat="44.391539479422306" lon="11.295827425688493"><ele>242.0</ele><time>2026-04-28T06:01:33.006Z</time></trkpt><trkpt lat="44.39143782538604" lon="11.295688056207323"><ele>242.0</ele><time>2026-04-28T06:01:34.006Z</time></trkpt><trkpt lat="44.39134203774091" lon="11.29552416451151"><ele>236.33333333333334</ele><time>2026-04-28T06:01:35.006Z</time></trkpt><trkpt lat="44.391263785286256" lon="11.295339492201391"><ele>230.66666666666669</ele><time>2026-04-28T06:01:36.006Z</time></trkpt><trkpt lat="44.39120355555499" lon="11.295142687508571"><ele>225.0</ele><time>2026-04-28T06:01:37.006Z</time></trkpt><trkpt lat="44.39116913330643" lon="11.29493885541484"><ele>223.66666666666669</ele><time>2026-04-28T06:01:38.006Z</time></trkpt><trkpt lat="44.39114919478215" lon="11.294725173889205"><ele>222.33333333333334</ele><time>2026-04-28T06:01:39.006Z</time></trkpt><trkpt lat="44.391145650118396" lon="11.294508013262835"><ele>221.0</ele><time>2026-04-28T06:01:40.006Z</time></trkpt><trkpt lat="44.39115104770688" lon="11.294276649858967"><ele>221.0</ele><time>2026-04-28T06:01:41.006Z</time></trkpt><trkpt lat="44.39116997090244" lon="11.29406390772629"><ele>221.0</ele><time>2026-04-28T06:01:42.006Z</time></trkpt><trkpt lat="44.39118606381292" lon="11.293871978204882"><ele>221.0</ele><time>2026-04-28T06:01:43.006Z</time></trkpt><trkpt lat="44.39121013334872" lon="11.293709134039577"><ele>221.0</ele><time>2026-04-28T06:01:44.006Z</time></trkpt><trkpt lat="44.391233388285684" lon="11.293555501869545"><ele>221.4</ele><time>2026-04-28T06:01:45.006Z</time></trkpt><trkpt lat="44.391269404506616" lon="11.29342348217972"><ele>221.8</ele><time>2026-04-28T06:01:46.006Z</time></trkpt><trkpt lat="44.39132128413467" lon="11.293302871953955"><ele>222.20000000000002</ele><time>2026-04-28T06:01:47.006Z</time></trkpt><trkpt lat="44.39140009138843" lon="11.293211364308268"><ele>222.60000000000002</ele><time>2026-04-28T06:01:48.006Z</time></trkpt><trkpt lat="44.39148978428171" lon="11.293168274456002"><ele>223.0</ele><time>2026-04-28T06:01:49.006Z</time></trkpt><trkpt lat="44.39158325636795" lon="11.293164621843719"><ele>224.0</ele><time>2026-04-28T06:01:50.006Z</time></trkpt><trkpt lat="44.39168735638701" lon="11.293178282670834"><ele>225.0</ele><time>2026-04-28T06:01:51.006Z</time></trkpt><trkpt lat="44.39178654071904" lon="11.293199692587331"><ele>226.0</ele><time>2026-04-28T06:01:52.006Z</time></trkpt><trkpt lat="44.39188709840512" lon="11.293224735512855"><ele>227.0</ele><time>2026-04-28T06:01:53.006Z</time></trkpt><trkpt lat="44.391976181367326" lon="11.293256655708118"><ele>228.0</ele><time>2026-04-28T06:01:54.006Z</time></trkpt><trkpt lat="44.39206143482213" lon="11.293328402896107"><ele>228.0</ele><time>2026-04-28T06:01:55.006Z</time></trkpt><trkpt lat="44.39214624670211" lon="11.293448145129783"><ele>228.0</ele><time>2026-04-28T06:01:56.006Z</time></trkpt><trkpt lat="44.39222982145112" lon="11.293588517228763"><ele>228.0</ele><time>2026-04-28T06:01:57.006Z</time></trkpt><trkpt lat="44.39229450903186" lon="11.293746267707052"><ele>228.0</ele><time>2026-04-28T06:01:58.006Z</time></trkpt><trkpt lat="44.39235581574821" lon="11.293899060552564"><ele>222.25</ele><time>2026-04-28T06:01:59.006Z</time></trkpt><trkpt lat="44.39242184893758" lon="11.294058493659039"><ele>216.5</ele><time>2026-04-28T06:02:00.006Z</time></trkpt><trkpt lat="44.39249317143911" lon="11.294210027328335"><ele>210.75</ele><time>2026-04-28T06:02:01.006Z</time></trkpt><trkpt lat="44.392579175356765" lon="11.29434659743492"><ele>205.0</ele><time>2026-04-28T06:02:02.006Z</time></trkpt><trkpt lat="44.39266437747099" lon="11.294463597381414"><ele>205.0</ele><time>2026-04-28T06:02:03.006Z</time></trkpt><trkpt lat="44.392749279055" lon="11.294555672621758"><ele>205.0</ele><time>2026-04-28T06:02:04.006Z</time></trkpt><trkpt lat="44.39283149959909" lon="11.294624332750946"><ele>205.0</ele><time>2026-04-28T06:02:05.006Z</time></trkpt><trkpt lat="44.39291412999667" lon="11.294668993561288"><ele>205.0</ele><time>2026-04-28T06:02:06.006Z</time></trkpt><trkpt lat="44.39301706375399" lon="11.294681549238712"><ele>205.0</ele><time>2026-04-28T06:02:07.006Z</time></trkpt><trkpt lat="44.39312862033565" lon="11.294657611966896"><ele>199.0</ele><time>2026-04-28T06:02:08.006Z</time></trkpt><trkpt lat="44.393240839358604" lon="11.294613908619924"><ele>193.0</ele><time>2026-04-28T06:02:09.006Z</time></trkpt><trkpt lat="44.39336158631121" lon="11.294553427157943"><ele>187.0</ele><time>2026-04-28T06:02:10.006Z</time></trkpt><trkpt lat="44.39348557422063" lon="11.294496906095848"><ele>181.0</ele><time>2026-04-28T06:02:11.006Z</time></trkpt><trkpt lat="44.39360092416035" lon="11.294434871358703"><ele>181.0</ele><time>2026-04-28T06:02:12.006Z</time></trkpt><trkpt lat="44.39370647251813" lon="11.294338233505044"><ele>181.0</ele><time>2026-04-28T06:02:13.006Z</time></trkpt><trkpt lat="44.39380078271836" lon="11.294210633047326"><ele>181.0</ele><time>2026-04-28T06:02:14.006Z</time></trkpt><trkpt lat="44.39387580044992" lon="11.294050058785052"><ele>181.0</ele><time>2026-04-28T06:02:15.006Z</time></trkpt><trkpt lat="44.393947246161616" lon="11.293866350284748"><ele>177.25</ele><time>2026-04-28T06:02:16.006Z</time></trkpt><trkpt lat="44.39401309092094" lon="11.293690376053043"><ele>173.5</ele><time>2026-04-28T06:02:17.006Z</time></trkpt><trkpt lat="44.394077305599396" lon="11.293509975720262"><ele>169.75</ele><time>2026-04-28T06:02:18.006Z</time></trkpt><trkpt lat="44.39413385544142" lon="11.293327895561276"><ele>166.0</ele><time>2026-04-28T06:02:19.006Z</time></trkpt><trkpt lat="44.394178957521255" lon="11.293129796029568"><ele>164.33333333333334</ele><time>2026-04-28T06:02:20.006Z</time></trkpt><trkpt lat="44.39420504262019" lon="11.292921255910016"><ele>162.66666666666666</ele><time>2026-04-28T06:02:21.006Z</time></trkpt><trkpt lat="44.39421481464482" lon="11.29270864170893"><ele>161.0</ele><time>2026-04-28T06:02:22.006Z</time></trkpt><trkpt lat="44.394232048250046" lon="11.292492229245264"><ele>161.0</ele><time>2026-04-28T06:02:23.006Z</time></trkpt><trkpt lat="44.39421549962102" lon="11.292275579607331"><ele>161.0</ele><time>2026-04-28T06:02:24.006Z</time></trkpt><trkpt lat="44.39415909817858" lon="11.29207701928211"><ele>161.0</ele><time>2026-04-28T06:02:25.006Z</time></trkpt><trkpt lat="44.394112368681135" lon="11.291887119840863"><ele>159.75</ele><time>2026-04-28T06:02:26.006Z</time></trkpt><trkpt lat="44.39407502703442" lon="11.291709934243164"><ele>158.5</ele><time>2026-04-28T06:02:27.006Z</time></trkpt><trkpt lat="44.39405946628274" lon="11.291530708804501"><ele>157.25</ele><time>2026-04-28T06:02:28.006Z</time></trkpt><trkpt lat="44.3940646110606" lon="11.291347169307784"><ele>156.0</ele><time>2026-04-28T06:02:29.006Z</time></trkpt><trkpt lat="44.39409827592448" lon="11.291168305010757"><ele>155.25</ele><time>2026-04-28T06:02:30.006Z</time></trkpt><trkpt lat="44.39413478343172" lon="11.290990978313914"><ele>154.5</ele><time>2026-04-28T06:02:31.006Z</time></trkpt><trkpt lat="44.39417259162615" lon="11.290815747837492"><ele>153.75</ele><time>2026-04-28T06:02:32.006Z</time></trkpt><trkpt lat="44.394202474560885" lon="11.290633698033016"><ele>153.0</ele><time>2026-04-28T06:02:33.006Z</time></trkpt><trkpt lat="44.39422351219892" lon="11.29044715738138"><ele>151.0</ele><time>2026-04-28T06:02:34.006Z</time></trkpt><trkpt lat="44.39423838206292" lon="11.29026462657185"><ele>149.0</ele><time>2026-04-28T06:02:35.006Z</time></trkpt><trkpt lat="44.394248189944754" lon="11.290079811203737"><ele>147.0</ele><time>2026-04-28T06:02:36.006Z</time></trkpt><trkpt lat="44.39424295840867" lon="11.289891563546878"><ele>145.0</ele><time>2026-04-28T06:02:37.006Z</time></trkpt><trkpt lat="44.39422135520076" lon="11.289703715333998"><ele>143.0</ele><time>2026-04-28T06:02:38.006Z</time></trkpt><trkpt lat="44.394192494264495" lon="11.28952277403881"><ele>141.0</ele><time>2026-04-28T06:02:39.006Z</time></trkpt><trkpt lat="44.394157513238746" lon="11.289342366042407"><ele>139.0</ele><time>2026-04-28T06:02:40.006Z</time></trkpt><trkpt lat="44.39411181161293" lon="11.289172343803871"><ele>137.0</ele><time>2026-04-28T06:02:41.006Z</time></trkpt><trkpt lat="44.39406502816178" lon="11.289026128850296"><ele>134.79999999999998</ele><time>2026-04-28T06:02:42.006Z</time></trkpt><trkpt lat="44.3940276529156" lon="11.288891424020504"><ele>132.6</ele><time>2026-04-28T06:02:43.006Z</time></trkpt><trkpt lat="44.39400597068357" lon="11.288753396830547"><ele>130.39999999999998</ele><time>2026-04-28T06:02:44.006Z</time></trkpt><trkpt lat="44.39400598341402" lon="11.28862815373443"><ele>128.2</ele><time>2026-04-28T06:02:45.006Z</time></trkpt><trkpt lat="44.394040509213035" lon="11.288519344203499"><ele>126.0</ele><time>2026-04-28T06:02:46.006Z</time></trkpt><trkpt lat="44.39411235547743" lon="11.288421546399192"><ele>126.0</ele><time>2026-04-28T06:02:47.006Z</time></trkpt><trkpt lat="44.39420222406909" lon="11.288328070835455"><ele>126.0</ele><time>2026-04-28T06:02:48.006Z</time></trkpt><trkpt lat="44.394302171831036" lon="11.288233194033412"><ele>126.0</ele><time>2026-04-28T06:02:49.006Z</time></trkpt><trkpt lat="44.39440912234468" lon="11.288121955444467"><ele>126.0</ele><time>2026-04-28T06:02:50.006Z</time></trkpt><trkpt lat="44.39450850160881" lon="11.288000239427069"><ele>123.4</ele><time>2026-04-28T06:02:51.006Z</time></trkpt><trkpt lat="44.39459558704752" lon="11.287874802023659"><ele>120.8</ele><time>2026-04-28T06:02:52.006Z</time></trkpt><trkpt lat="44.39468293282551" lon="11.287765517812808"><ele>118.20000000000002</ele><time>2026-04-28T06:02:53.006Z</time></trkpt><trkpt lat="44.3947457384082" lon="11.287664539274278"><ele>115.60000000000001</ele><time>2026-04-28T06:02:54.006Z</time></trkpt><trkpt lat="44.39480191943356" lon="11.287577993593072"><ele>113.0</ele><time>2026-04-28T06:02:55.006Z</time></trkpt><trkpt lat="44.39485167972641" lon="11.287511920778483"><ele>112.99999999999999</ele><time>2026-04-28T06:02:56.006Z</time></trkpt><trkpt lat="44.3949259773304" lon="11.287428463733775"><ele>113.0</ele><time>2026-04-28T06:02:58.006Z</time></trkpt><trkpt lat="44.39500850333712" lon="11.287372470312306"><ele>113.0</ele><time>2026-04-28T06:03:07.006Z</time></trkpt><trkpt lat="44.39508466211123" lon="11.28733849616647"><ele>113.0</ele><time>2026-04-28T06:03:09.006Z</time></trkpt><trkpt lat="44.3951454912918" lon="11.287275528069557"><ele>112.99999999999999</ele><time>2026-04-28T06:03:11.006Z</time></trkpt><trkpt lat="44.39521866933631" lon="11.287218621575624"><ele>113.0</ele><time>2026-04-28T06:03:13.006Z</time></trkpt><trkpt lat="44.39529862337806" lon="11.287153754128589"><ele>112.16666666666666</ele><time>2026-04-28T06:03:15.006Z</time></trkpt><trkpt lat="44.39534444193695" lon="11.287093081674541"><ele>111.33333333333333</ele><time>2026-04-28T06:03:20.006Z</time></trkpt><trkpt lat="44.3953659027735" lon="11.28697865771025"><ele>110.5</ele><time>2026-04-28T06:03:30.006Z</time></trkpt><trkpt lat="44.39537431571737" lon="11.2868632632944"><ele>109.66666666666666</ele><time>2026-04-28T06:03:33.006Z</time></trkpt><trkpt lat="44.39541718114163" lon="11.286684762591511"><ele>108.83333333333333</ele><time>2026-04-28T06:03:35.006Z</time></trkpt><trkpt lat="44.39541598815265" lon="11.286573810889537"><ele>108.0</ele><time>2026-04-28T06:03:36.006Z</time></trkpt><trkpt lat="44.395430175823776" lon="11.28647968136088"><ele>107.5</ele><time>2026-04-28T06:03:37.006Z</time></trkpt><trkpt lat="44.39545685050758" lon="11.286363240454353"><ele>107.0</ele><time>2026-04-28T06:03:39.006Z</time></trkpt><trkpt lat="44.39548092347189" lon="11.286245646501587"><ele>106.5</ele><time>2026-04-28T06:03:45.006Z</time></trkpt><trkpt lat="44.395493554246315" lon="11.2861489301579"><ele>106.0</ele><time>2026-04-28T06:03:47.006Z</time></trkpt><trkpt lat="44.3954962898632" lon="11.286031870886083"><ele>105.5</ele><time>2026-04-28T06:03:55.006Z</time></trkpt><trkpt lat="44.39550722018808" lon="11.285934729636475"><ele>105.0</ele><time>2026-04-28T06:03:56.006Z</time></trkpt><trkpt lat="44.39553400580714" lon="11.285827082363586"><ele>106.16666666666667</ele><time>2026-04-28T06:03:57.006Z</time></trkpt><trkpt lat="44.395553229943935" lon="11.28568495257889"><ele>107.33333333333334</ele><time>2026-04-28T06:03:58.006Z</time></trkpt><trkpt lat="44.39557308340964" lon="11.285532038720383"><ele>108.5</ele><time>2026-04-28T06:03:59.006Z</time></trkpt><trkpt lat="44.39558872606897" lon="11.285404626793294"><ele>109.66666666666667</ele><time>2026-04-28T06:04:00.006Z</time></trkpt><trkpt lat="44.395584801224466" lon="11.285304119818628"><ele>110.83333333333334</ele><time>2026-04-28T06:04:01.006Z</time></trkpt><trkpt lat="44.395596695113156" lon="11.285217587386386"><ele>112.0</ele><time>2026-04-28T06:04:02.006Z</time></trkpt><trkpt lat="44.39562424594793" lon="11.285051865875522"><ele>112.00000000000001</ele><time>2026-04-28T06:04:04.006Z</time></trkpt><trkpt lat="44.395629043381426" lon="11.284956139029461"><ele>112.0</ele><time>2026-04-28T06:04:05.006Z</time></trkpt><trkpt lat="44.39565767204903" lon="11.284861202885933"><ele>112.0</ele><time>2026-04-28T06:04:06.006Z</time></trkpt><trkpt lat="44.3956782229901" lon="11.284754696708163"><ele>112.0</ele><time>2026-04-28T06:04:07.006Z</time></trkpt><trkpt lat="44.39569332608572" lon="11.284645378634192"><ele>112.00000000000001</ele><time>2026-04-28T06:04:08.006Z</time></trkpt><trkpt lat="44.395706206101686" lon="11.284518191857906"><ele>112.0</ele><time>2026-04-28T06:04:09.006Z</time></trkpt><trkpt lat="44.39571943824057" lon="11.284378159423422"><ele>110.25</ele><time>2026-04-28T06:04:10.006Z</time></trkpt><trkpt lat="44.39571156411185" lon="11.284219048291025"><ele>108.5</ele><time>2026-04-28T06:04:11.006Z</time></trkpt><trkpt lat="44.39569274459239" lon="11.284041800373437"><ele>106.75</ele><time>2026-04-28T06:04:12.006Z</time></trkpt><trkpt lat="44.39567587537017" lon="11.283852819562991"><ele>105.0</ele><time>2026-04-28T06:04:13.006Z</time></trkpt><trkpt lat="44.39565669819899" lon="11.283651522846782"><ele>103.66666666666666</ele><time>2026-04-28T06:04:14.006Z</time></trkpt><trkpt lat="44.395637537309796" lon="11.283447053551834"><ele>102.33333333333333</ele><time>2026-04-28T06:04:15.006Z</time></trkpt><trkpt lat="44.395607931953826" lon="11.28323947611147"><ele>101.0</ele><time>2026-04-28T06:04:16.006Z</time></trkpt><trkpt lat="44.3955758760186" lon="11.283025392949975"><ele>100.33333333333333</ele><time>2026-04-28T06:04:17.006Z</time></trkpt><trkpt lat="44.39554406901831" lon="11.28280722265452"><ele>99.66666666666666</ele><time>2026-04-28T06:04:18.006Z</time></trkpt><trkpt lat="44.39551775558452" lon="11.282584284851286"><ele>99.0</ele><time>2026-04-28T06:04:19.006Z</time></trkpt><trkpt lat="44.395485030157325" lon="11.282352619174345"><ele>104.33333333333334</ele><time>2026-04-28T06:04:20.006Z</time></trkpt><trkpt lat="44.395455573740435" lon="11.28212394776375"><ele>109.66666666666667</ele><time>2026-04-28T06:04:21.006Z</time></trkpt><trkpt lat="44.395429828019765" lon="11.281902606075967"><ele>115.0</ele><time>2026-04-28T06:04:22.006Z</time></trkpt><trkpt lat="44.39541139231448" lon="11.281679824712764"><ele>115.0</ele><time>2026-04-28T06:04:23.006Z</time></trkpt><trkpt lat="44.395406972780314" lon="11.28145586488355"><ele>115.0</ele><time>2026-04-28T06:04:24.006Z</time></trkpt><trkpt lat="44.39541228377223" lon="11.28124634609541"><ele>115.0</ele><time>2026-04-28T06:04:25.006Z</time></trkpt><trkpt lat="44.395419861425125" lon="11.28104491028942"><ele>115.0</ele><time>2026-04-28T06:04:26.006Z</time></trkpt><trkpt lat="44.3954311325378" lon="11.280859242983151"><ele>115.0</ele><time>2026-04-28T06:04:27.006Z</time></trkpt><trkpt lat="44.39544918226596" lon="11.280685989909774"><ele>115.0</ele><time>2026-04-28T06:04:28.006Z</time></trkpt><trkpt lat="44.395465992080396" lon="11.28051842664083"><ele>115.0</ele><time>2026-04-28T06:04:29.006Z</time></trkpt><trkpt lat="44.395484015975136" lon="11.280364882247918"><ele>115.6</ele><time>2026-04-28T06:04:30.006Z</time></trkpt><trkpt lat="44.39549121527693" lon="11.280215617256593"><ele>116.2</ele><time>2026-04-28T06:04:31.006Z</time></trkpt><trkpt lat="44.395480764749536" lon="11.280070282549076"><ele>116.80000000000001</ele><time>2026-04-28T06:04:32.006Z</time></trkpt><trkpt lat="44.39545610734831" lon="11.279936749350227"><ele>117.4</ele><time>2026-04-28T06:04:33.006Z</time></trkpt><trkpt lat="44.395411345001186" lon="11.279826183376654"><ele>118.0</ele><time>2026-04-28T06:04:34.006Z</time></trkpt><trkpt lat="44.39536919560177" lon="11.27973524199299"><ele>118.00000000000001</ele><time>2026-04-28T06:04:35.006Z</time></trkpt><trkpt lat="44.39532605360103" lon="11.279661598552764"><ele>118.0</ele><time>2026-04-28T06:04:36.006Z</time></trkpt><trkpt lat="44.395213885554504" lon="11.279563885148876"><ele>118.0</ele><time>2026-04-28T06:04:38.006Z</time></trkpt><trkpt lat="44.39514656404982" lon="11.279545094469912"><ele>118.0</ele><time>2026-04-28T06:04:39.006Z</time></trkpt><trkpt lat="44.3950797463058" lon="11.279534883271861"><ele>118.00000000000001</ele><time>2026-04-28T06:04:40.006Z</time></trkpt><trkpt lat="44.39498391901287" lon="11.279500985571774"><ele>118.0</ele><time>2026-04-28T06:04:41.006Z</time></trkpt><trkpt lat="44.39488308393231" lon="11.279462397897829"><ele>118.0</ele><time>2026-04-28T06:04:42.006Z</time></trkpt><trkpt lat="44.394785975012546" lon="11.279416474972907"><ele>118.00000000000001</ele><time>2026-04-28T06:04:43.006Z</time></trkpt><trkpt lat="44.394697466707875" lon="11.279365992826966"><ele>118.00000000000001</ele><time>2026-04-28T06:04:44.006Z</time></trkpt><trkpt lat="44.39461602261745" lon="11.279294946273046"><ele>118.0</ele><time>2026-04-28T06:04:45.006Z</time></trkpt><trkpt lat="44.39453321900239" lon="11.279217507624322"><ele>118.0</ele><time>2026-04-28T06:04:46.006Z</time></trkpt><trkpt lat="44.39445286865481" lon="11.279131920921213"><ele>117.80000000000001</ele><time>2026-04-28T06:04:47.006Z</time></trkpt><trkpt lat="44.39438466039899" lon="11.279035974054231"><ele>117.60000000000001</ele><time>2026-04-28T06:04:48.006Z</time></trkpt><trkpt lat="44.39430646050306" lon="11.278945902253334"><ele>117.39999999999999</ele><time>2026-04-28T06:04:49.006Z</time></trkpt><trkpt lat="44.394231715231925" lon="11.278838099638987"><ele>117.19999999999999</ele><time>2026-04-28T06:04:50.006Z</time></trkpt><trkpt lat="44.394159038979986" lon="11.278732998456524"><ele>117.0</ele><time>2026-04-28T06:04:51.006Z</time></trkpt><trkpt lat="44.39410177389634" lon="11.278636827338028"><ele>117.5</ele><time>2026-04-28T06:04:52.006Z</time></trkpt><trkpt lat="44.39406451104387" lon="11.278535103208013"><ele>118.0</ele><time>2026-04-28T06:04:53.006Z</time></trkpt><trkpt lat="44.39404395510212" lon="11.278434379555888"><ele>118.5</ele><time>2026-04-28T06:04:54.006Z</time></trkpt><trkpt lat="44.39405193517758" lon="11.278323351882669"><ele>119.0</ele><time>2026-04-28T06:04:55.006Z</time></trkpt><trkpt lat="44.3940867118299" lon="11.278209818794078"><ele>119.5</ele><time>2026-04-28T06:04:56.006Z</time></trkpt><trkpt lat="44.3941437104229" lon="11.278110485638177"><ele>120.0</ele><time>2026-04-28T06:04:57.006Z</time></trkpt><trkpt lat="44.394225928240736" lon="11.278026618215899"><ele>123.5</ele><time>2026-04-28T06:04:58.006Z</time></trkpt><trkpt lat="44.39432241320635" lon="11.2779453416776"><ele>127.0</ele><time>2026-04-28T06:04:59.006Z</time></trkpt><trkpt lat="44.394426034253186" lon="11.277852627733663"><ele>130.5</ele><time>2026-04-28T06:05:00.006Z</time></trkpt><trkpt lat="44.394532861957956" lon="11.27775386647617"><ele>134.0</ele><time>2026-04-28T06:05:01.006Z</time></trkpt><trkpt lat="44.394637264208505" lon="11.277633068730736"><ele>132.75</ele><time>2026-04-28T06:05:02.006Z</time></trkpt><trkpt lat="44.39474509620738" lon="11.277520863796239"><ele>131.5</ele><time>2026-04-28T06:05:03.006Z</time></trkpt><trkpt lat="44.394851471803335" lon="11.277406523615513"><ele>130.25</ele><time>2026-04-28T06:05:04.006Z</time></trkpt><trkpt lat="44.394953175577776" lon="11.27729263948895"><ele>129.0</ele><time>2026-04-28T06:05:05.006Z</time></trkpt><trkpt lat="44.3950469065573" lon="11.277183316507625"><ele>131.2</ele><time>2026-04-28T06:05:06.006Z</time></trkpt><trkpt lat="44.395127744222464" lon="11.277078543801164"><ele>133.4</ele><time>2026-04-28T06:05:07.006Z</time></trkpt><trkpt lat="44.39518799165909" lon="11.27697004478472"><ele>135.6</ele><time>2026-04-28T06:05:08.006Z</time></trkpt><trkpt lat="44.39521993245737" lon="11.276847766980163"><ele>137.8</ele><time>2026-04-28T06:05:09.006Z</time></trkpt><trkpt lat="44.39523388499013" lon="11.276725357909164"><ele>140.0</ele><time>2026-04-28T06:05:10.006Z</time></trkpt><trkpt lat="44.39522931810361" lon="11.276586716498215"><ele>140.0</ele><time>2026-04-28T06:05:11.006Z</time></trkpt><trkpt lat="44.39521331982906" lon="11.276449140121395"><ele>140.0</ele><time>2026-04-28T06:05:12.006Z</time></trkpt><trkpt lat="44.39519827477898" lon="11.276302879429787"><ele>140.0</ele><time>2026-04-28T06:05:13.006Z</time></trkpt><trkpt lat="44.39518305627574" lon="11.276164227069371"><ele>140.0</ele><time>2026-04-28T06:05:14.006Z</time></trkpt><trkpt lat="44.39517514380625" lon="11.276011080224228"><ele>140.0</ele><time>2026-04-28T06:05:15.006Z</time></trkpt><trkpt lat="44.39516445528338" lon="11.275864163538296"><ele>141.8</ele><time>2026-04-28T06:05:16.006Z</time></trkpt><trkpt lat="44.39514818846559" lon="11.275720524472282"><ele>143.6</ele><time>2026-04-28T06:05:17.006Z</time></trkpt><trkpt lat="44.395129663773425" lon="11.275583785859126"><ele>145.4</ele><time>2026-04-28T06:05:18.006Z</time></trkpt><trkpt lat="44.39510836113107" lon="11.275444082928683"><ele>147.2</ele><time>2026-04-28T06:05:19.006Z</time></trkpt><trkpt lat="44.395088357630755" lon="11.275315935425692"><ele>149.0</ele><time>2026-04-28T06:05:20.006Z</time></trkpt><trkpt lat="44.395066728705416" lon="11.275187992698793"><ele>149.0</ele><time>2026-04-28T06:05:21.006Z</time></trkpt><trkpt lat="44.39502302800476" lon="11.275067486359161"><ele>149.0</ele><time>2026-04-28T06:05:22.006Z</time></trkpt><trkpt lat="44.39497748640798" lon="11.274910668987777"><ele>149.0</ele><time>2026-04-28T06:05:23.006Z</time></trkpt><trkpt lat="44.394866275202645" lon="11.274772651494475"><ele>149.0</ele><time>2026-04-28T06:05:24.006Z</time></trkpt><trkpt lat="44.394757344423184" lon="11.274663210662634"><ele>146.25</ele><time>2026-04-28T06:05:25.006Z</time></trkpt><trkpt lat="44.3946641837753" lon="11.274565584667881"><ele>143.5</ele><time>2026-04-28T06:05:26.006Z</time></trkpt><trkpt lat="44.3945647941131" lon="11.274461034676417"><ele>140.75</ele><time>2026-04-28T06:05:27.006Z</time></trkpt><trkpt lat="44.39446057915088" lon="11.274361630923597"><ele>138.0</ele><time>2026-04-28T06:05:28.006Z</time></trkpt><trkpt lat="44.39435658062107" lon="11.274269563088716"><ele>138.0</ele><time>2026-04-28T06:05:29.006Z</time></trkpt><trkpt lat="44.3942646511015" lon="11.274151429905569"><ele>138.0</ele><time>2026-04-28T06:05:30.006Z</time></trkpt><trkpt lat="44.39418039709537" lon="11.274006616157068"><ele>138.0</ele><time>2026-04-28T06:05:31.007Z</time></trkpt><trkpt lat="44.39411414505769" lon="11.273850095861933"><ele>138.0</ele><time>2026-04-28T06:05:32.006Z</time></trkpt><trkpt lat="44.39407487908967" lon="11.273677612581945"><ele>132.25</ele><time>2026-04-28T06:05:33.006Z</time></trkpt><trkpt lat="44.39404549446014" lon="11.273489686733793"><ele>126.5</ele><time>2026-04-28T06:05:34.006Z</time></trkpt><trkpt lat="44.394021121497964" lon="11.273302974073438"><ele>120.75</ele><time>2026-04-28T06:05:35.006Z</time></trkpt><trkpt lat="44.39399546699852" lon="11.273105565007196"><ele>115.0</ele><time>2026-04-28T06:05:36.006Z</time></trkpt><trkpt lat="44.393957974312826" lon="11.272916165212205"><ele>116.75</ele><time>2026-04-28T06:05:37.006Z</time></trkpt><trkpt lat="44.39391931184399" lon="11.272733897593787"><ele>118.5</ele><time>2026-04-28T06:05:38.006Z</time></trkpt><trkpt lat="44.39386709341128" lon="11.272572093089932"><ele>120.25</ele><time>2026-04-28T06:05:39.006Z</time></trkpt><trkpt lat="44.39382411221703" lon="11.27240542098213"><ele>122.0</ele><time>2026-04-28T06:05:40.006Z</time></trkpt><trkpt lat="44.39376652671378" lon="11.272260057973813"><ele>122.0</ele><time>2026-04-28T06:05:41.006Z</time></trkpt><trkpt lat="44.39370847495358" lon="11.27211398589913"><ele>122.0</ele><time>2026-04-28T06:05:42.006Z</time></trkpt><trkpt lat="44.39364497671799" lon="11.271968874394672"><ele>122.0</ele><time>2026-04-28T06:05:43.006Z</time></trkpt><trkpt lat="44.39361129145471" lon="11.271796287320702"><ele>122.0</ele><time>2026-04-28T06:05:44.006Z</time></trkpt><trkpt lat="44.39359907180781" lon="11.271619733683139"><ele>123.75</ele><time>2026-04-28T06:05:45.006Z</time></trkpt><trkpt lat="44.39360625545999" lon="11.27143071262341"><ele>125.5</ele><time>2026-04-28T06:05:46.006Z</time></trkpt><trkpt lat="44.39363153708462" lon="11.271239938629432"><ele>127.25</ele><time>2026-04-28T06:05:47.006Z</time></trkpt><trkpt lat="44.393654497546756" lon="11.271041156035105"><ele>129.0</ele><time>2026-04-28T06:05:48.006Z</time></trkpt><trkpt lat="44.39367151039849" lon="11.27083240036544"><ele>129.0</ele><time>2026-04-28T06:05:49.006Z</time></trkpt><trkpt lat="44.39367480729199" lon="11.270621508662575"><ele>129.0</ele><time>2026-04-28T06:05:50.006Z</time></trkpt><trkpt lat="44.39366629486146" lon="11.270404141248997"><ele>129.0</ele><time>2026-04-28T06:05:51.006Z</time></trkpt><trkpt lat="44.39364826208618" lon="11.270175982790523"><ele>127.0</ele><time>2026-04-28T06:05:52.006Z</time></trkpt><trkpt lat="44.39361505930015" lon="11.269943070312623"><ele>125.0</ele><time>2026-04-28T06:05:53.006Z</time></trkpt><trkpt lat="44.393588822667" lon="11.269712522211847"><ele>123.0</ele><time>2026-04-28T06:05:54.006Z</time></trkpt><trkpt lat="44.39356563930457" lon="11.269482639477337"><ele>120.33333333333334</ele><time>2026-04-28T06:05:55.006Z</time></trkpt><trkpt lat="44.393549015112015" lon="11.269257547612794"><ele>117.66666666666667</ele><time>2026-04-28T06:05:56.006Z</time></trkpt><trkpt lat="44.39352296392339" lon="11.269034282826032"><ele>115.0</ele><time>2026-04-28T06:05:57.006Z</time></trkpt><trkpt lat="44.39349645345638" lon="11.268811770943797"><ele>112.66666666666667</ele><time>2026-04-28T06:05:58.006Z</time></trkpt><trkpt lat="44.39346940326771" lon="11.268586087674505"><ele>110.33333333333334</ele><time>2026-04-28T06:05:59.006Z</time></trkpt><trkpt lat="44.39344785481398" lon="11.268356294554467"><ele>108.0</ele><time>2026-04-28T06:06:00.006Z</time></trkpt><trkpt lat="44.393428817035925" lon="11.268134183351872"><ele>105.33333333333334</ele><time>2026-04-28T06:06:01.006Z</time></trkpt><trkpt lat="44.393410903635555" lon="11.267912074237865"><ele>102.66666666666667</ele><time>2026-04-28T06:06:02.006Z</time></trkpt><trkpt lat="44.393395252277124" lon="11.2677013830511"><ele>100.0</ele><time>2026-04-28T06:06:03.006Z</time></trkpt><trkpt lat="44.39338353211504" lon="11.26750398536525"><ele>100.0</ele><time>2026-04-28T06:06:04.006Z</time></trkpt><trkpt lat="44.39337203132754" lon="11.26731555674355"><ele>100.0</ele><time>2026-04-28T06:06:05.006Z</time></trkpt><trkpt lat="44.393357956292405" lon="11.267118978859383"><ele>100.0</ele><time>2026-04-28T06:06:06.006Z</time></trkpt><trkpt lat="44.39334449148153" lon="11.266929762830221"><ele>100.0</ele><time>2026-04-28T06:06:07.006Z</time></trkpt><trkpt lat="44.39334651538759" lon="11.266734645776495"><ele>99.5</ele><time>2026-04-28T06:06:08.006Z</time></trkpt><trkpt lat="44.39333554389835" lon="11.266535889896437"><ele>99.0</ele><time>2026-04-28T06:06:09.006Z</time></trkpt><trkpt lat="44.39332526045644" lon="11.266347674203352"><ele>98.5</ele><time>2026-04-28T06:06:10.006Z</time></trkpt><trkpt lat="44.393315697395906" lon="11.266156795482505"><ele>98.0</ele><time>2026-04-28T06:06:11.006Z</time></trkpt><trkpt lat="44.39330771211171" lon="11.265977836825115"><ele>98.0</ele><time>2026-04-28T06:06:12.006Z</time></trkpt><trkpt lat="44.3932832186719" lon="11.2657927936534"><ele>98.0</ele><time>2026-04-28T06:06:13.006Z</time></trkpt><trkpt lat="44.393287130218454" lon="11.265592240347381"><ele>98.0</ele><time>2026-04-28T06:06:14.006Z</time></trkpt><trkpt lat="44.39328101940191" lon="11.265386504948207"><ele>98.0</ele><time>2026-04-28T06:06:15.006Z</time></trkpt><trkpt lat="44.3932744879587" lon="11.265183601013153"><ele>98.33333333333333</ele><time>2026-04-28T06:06:16.006Z</time></trkpt><trkpt lat="44.39326479453601" lon="11.264971623568988"><ele>98.66666666666666</ele><time>2026-04-28T06:06:17.006Z</time></trkpt><trkpt lat="44.393264290883195" lon="11.264746993350593"><ele>99.0</ele><time>2026-04-28T06:06:18.006Z</time></trkpt><trkpt lat="44.39326040795888" lon="11.264513848539833"><ele>99.0</ele><time>2026-04-28T06:06:19.006Z</time></trkpt><trkpt lat="44.39324298951339" lon="11.264270804742905"><ele>99.0</ele><time>2026-04-28T06:06:20.006Z</time></trkpt><trkpt lat="44.39321054417431" lon="11.264035225594508"><ele>99.0</ele><time>2026-04-28T06:06:21.006Z</time></trkpt><trkpt lat="44.393151883405494" lon="11.26379923703914"><ele>99.0</ele><time>2026-04-28T06:06:22.006Z</time></trkpt><trkpt lat="44.39310995698392" lon="11.263576167533255"><ele>99.0</ele><time>2026-04-28T06:06:23.006Z</time></trkpt><trkpt lat="44.393092773371" lon="11.263361743584483"><ele>99.0</ele><time>2026-04-28T06:06:24.006Z</time></trkpt><trkpt lat="44.39305313529311" lon="11.263156786302394"><ele>98.0</ele><time>2026-04-28T06:06:25.006Z</time></trkpt><trkpt lat="44.39302723790878" lon="11.262953606661965"><ele>97.0</ele><time>2026-04-28T06:06:26.006Z</time></trkpt><trkpt lat="44.393004223636765" lon="11.262746066120812"><ele>96.0</ele><time>2026-04-28T06:06:27.006Z</time></trkpt><trkpt lat="44.39298272828612" lon="11.26254896353112"><ele>95.0</ele><time>2026-04-28T06:06:28.006Z</time></trkpt><trkpt lat="44.39295971662868" lon="11.262372028451322"><ele>98.75</ele><time>2026-04-28T06:06:29.006Z</time></trkpt><trkpt lat="44.39294094546042" lon="11.262197312669661"><ele>102.5</ele><time>2026-04-28T06:06:30.006Z</time></trkpt><trkpt lat="44.39292582754555" lon="11.262013092176682"><ele>106.25</ele><time>2026-04-28T06:06:31.006Z</time></trkpt><trkpt lat="44.39290237318422" lon="11.261814987245721"><ele>110.0</ele><time>2026-04-28T06:06:32.006Z</time></trkpt><trkpt lat="44.39290071856874" lon="11.261624524775732"><ele>109.0</ele><time>2026-04-28T06:06:33.006Z</time></trkpt><trkpt lat="44.39289428060064" lon="11.261419689170877"><ele>108.0</ele><time>2026-04-28T06:06:34.006Z</time></trkpt><trkpt lat="44.392895628044634" lon="11.26121728437565"><ele>107.0</ele><time>2026-04-28T06:06:35.006Z</time></trkpt><trkpt lat="44.39288858334007" lon="11.261017053042425"><ele>106.0</ele><time>2026-04-28T06:06:36.006Z</time></trkpt><trkpt lat="44.39288150267804" lon="11.260822518574379"><ele>106.0</ele><time>2026-04-28T06:06:37.006Z</time></trkpt><trkpt lat="44.392868108129164" lon="11.260633357830145"><ele>106.0</ele><time>2026-04-28T06:06:38.006Z</time></trkpt><trkpt lat="44.392850822634934" lon="11.260449042986583"><ele>106.0</ele><time>2026-04-28T06:06:39.006Z</time></trkpt><trkpt lat="44.39283243333452" lon="11.260267418695985"><ele>106.0</ele><time>2026-04-28T06:06:40.006Z</time></trkpt><trkpt lat="44.3928131854862" lon="11.260084218165495"><ele>105.5</ele><time>2026-04-28T06:06:41.006Z</time></trkpt><trkpt lat="44.392808239029904" lon="11.259888494691214"><ele>105.0</ele><time>2026-04-28T06:06:42.006Z</time></trkpt><trkpt lat="44.39277229151561" lon="11.259700005497427"><ele>104.5</ele><time>2026-04-28T06:06:43.006Z</time></trkpt><trkpt lat="44.39272632520076" lon="11.25951830773551"><ele>104.0</ele><time>2026-04-28T06:06:44.006Z</time></trkpt><trkpt lat="44.39267829015811" lon="11.259337253174092"><ele>102.75</ele><time>2026-04-28T06:06:45.006Z</time></trkpt><trkpt lat="44.392631848518896" lon="11.259168433434425"><ele>101.5</ele><time>2026-04-28T06:06:46.006Z</time></trkpt><trkpt lat="44.39258555252184" lon="11.259014145399997"><ele>100.25</ele><time>2026-04-28T06:06:47.006Z</time></trkpt><trkpt lat="44.39253976714071" lon="11.258879676292292"><ele>99.0</ele><time>2026-04-28T06:06:48.006Z</time></trkpt><trkpt lat="44.39249401954607" lon="11.258745751940998"><ele>98.33333333333333</ele><time>2026-04-28T06:06:49.006Z</time></trkpt><trkpt lat="44.39245631889337" lon="11.258641267854758"><ele>97.66666666666667</ele><time>2026-04-28T06:06:50.006Z</time></trkpt><trkpt lat="44.39242756410398" lon="11.25855768401703"><ele>97.0</ele><time>2026-04-28T06:06:51.006Z</time></trkpt><trkpt lat="44.39237546478936" lon="11.258452430466118"><ele>96.33333333333334</ele><time>2026-04-28T06:06:54.006Z</time></trkpt><trkpt lat="44.392346949273325" lon="11.258361262481706"><ele>95.66666666666667</ele><time>2026-04-28T06:06:56.006Z</time></trkpt><trkpt lat="44.392315153383144" lon="11.258273959921071"><ele>95.0</ele><time>2026-04-28T06:06:58.006Z</time></trkpt><trkpt lat="44.392267009332386" lon="11.258164054600764"><ele>94.2</ele><time>2026-04-28T06:07:00.006Z</time></trkpt><trkpt lat="44.392202454085336" lon="11.258090912444793"><ele>93.4</ele><time>2026-04-28T06:07:02.006Z</time></trkpt><trkpt lat="44.39215781735029" lon="11.25802811111239"><ele>92.6</ele><time>2026-04-28T06:07:05.006Z</time></trkpt><trkpt lat="44.39210444840216" lon="11.257958928595187"><ele>91.8</ele><time>2026-04-28T06:07:07.006Z</time></trkpt><trkpt lat="44.39199582984435" lon="11.258024854500075"><ele>91.0</ele><time>2026-04-28T06:07:08.006Z</time></trkpt><trkpt lat="44.39188764290743" lon="11.258099863361434"><ele>92.8</ele><time>2026-04-28T06:07:10.006Z</time></trkpt><trkpt lat="44.39181793905224" lon="11.258138175811304"><ele>94.6</ele><time>2026-04-28T06:07:11.006Z</time></trkpt><trkpt lat="44.3917387389358" lon="11.258179106182402"><ele>96.4</ele><time>2026-04-28T06:07:12.006Z</time></trkpt><trkpt lat="44.39164930373155" lon="11.258170067267757"><ele>98.2</ele><time>2026-04-28T06:07:13.006Z</time></trkpt><trkpt lat="44.39155153433472" lon="11.258136143791917"><ele>100.0</ele><time>2026-04-28T06:07:14.006Z</time></trkpt><trkpt lat="44.39145918701687" lon="11.25807384583102"><ele>100.0</ele><time>2026-04-28T06:07:15.006Z</time></trkpt><trkpt lat="44.39138100324674" lon="11.257992570709003"><ele>100.0</ele><time>2026-04-28T06:07:16.006Z</time></trkpt><trkpt lat="44.39130784440675" lon="11.25788657574951"><ele>100.0</ele><time>2026-04-28T06:07:17.006Z</time></trkpt><trkpt lat="44.39124026965382" lon="11.25775117579055"><ele>100.0</ele><time>2026-04-28T06:07:18.006Z</time></trkpt><trkpt lat="44.391193223091804" lon="11.25760610336047"><ele>100.0</ele><time>2026-04-28T06:07:19.006Z</time></trkpt><trkpt lat="44.391140063421076" lon="11.257456528532087"><ele>101.75</ele><time>2026-04-28T06:07:20.006Z</time></trkpt><trkpt lat="44.39109373522043" lon="11.257306877266709"><ele>103.5</ele><time>2026-04-28T06:07:21.006Z</time></trkpt><trkpt lat="44.39104573580392" lon="11.257149091815638"><ele>105.25</ele><time>2026-04-28T06:07:22.006Z</time></trkpt><trkpt lat="44.39099677625732" lon="11.256986189757674"><ele>107.0</ele><time>2026-04-28T06:07:23.006Z</time></trkpt><trkpt lat="44.39094212282031" lon="11.256831589107266"><ele>107.0</ele><time>2026-04-28T06:07:24.006Z</time></trkpt><trkpt lat="44.39089674683676" lon="11.25667125490239"><ele>107.0</ele><time>2026-04-28T06:07:25.006Z</time></trkpt><trkpt lat="44.390848148975365" lon="11.25650804093641"><ele>107.0</ele><time>2026-04-28T06:07:26.006Z</time></trkpt><trkpt lat="44.390813972907445" lon="11.256337161328537"><ele>107.0</ele><time>2026-04-28T06:07:27.006Z</time></trkpt><trkpt lat="44.390780327250326" lon="11.256164299315728"><ele>107.0</ele><time>2026-04-28T06:07:28.006Z</time></trkpt><trkpt lat="44.390743341654954" lon="11.25598049343595"><ele>107.0</ele><time>2026-04-28T06:07:29.006Z</time></trkpt><trkpt lat="44.39072337901118" lon="11.255792984329176"><ele>107.0</ele><time>2026-04-28T06:07:30.006Z</time></trkpt><trkpt lat="44.39069583474029" lon="11.255596932716285"><ele>107.0</ele><time>2026-04-28T06:07:31.007Z</time></trkpt><trkpt lat="44.39066311832761" lon="11.255401258083307"><ele>106.25</ele><time>2026-04-28T06:07:32.007Z</time></trkpt><trkpt lat="44.390633335852854" lon="11.255219022245836"><ele>105.5</ele><time>2026-04-28T06:07:33.007Z</time></trkpt><trkpt lat="44.39061293239395" lon="11.255013612244799"><ele>104.75</ele><time>2026-04-28T06:07:34.007Z</time></trkpt><trkpt lat="44.39055041738471" lon="11.254811806372885"><ele>104.0</ele><time>2026-04-28T06:07:35.007Z</time></trkpt><trkpt lat="44.39048915198362" lon="11.254623116293635"><ele>106.0</ele><time>2026-04-28T06:07:36.007Z</time></trkpt><trkpt lat="44.39043271066386" lon="11.254439430007697"><ele>108.0</ele><time>2026-04-28T06:07:37.007Z</time></trkpt><trkpt lat="44.390363923236634" lon="11.25426627896089"><ele>110.0</ele><time>2026-04-28T06:07:38.007Z</time></trkpt><trkpt lat="44.39029556677441" lon="11.254106413423653"><ele>112.0</ele><time>2026-04-28T06:07:39.007Z</time></trkpt><trkpt lat="44.390236190967045" lon="11.253926866216053"><ele>112.0</ele><time>2026-04-28T06:07:40.007Z</time></trkpt><trkpt lat="44.390182522313154" lon="11.253745601120404"><ele>112.0</ele><time>2026-04-28T06:07:41.007Z</time></trkpt><trkpt lat="44.39014172877721" lon="11.253553124948084"><ele>112.0</ele><time>2026-04-28T06:07:42.007Z</time></trkpt><trkpt lat="44.390108564593184" lon="11.253351747878304"><ele>112.0</ele><time>2026-04-28T06:07:43.007Z</time></trkpt><trkpt lat="44.39008549777362" lon="11.25315281902866"><ele>112.25</ele><time>2026-04-28T06:07:44.007Z</time></trkpt><trkpt lat="44.39006536486544" lon="11.252950795524116"><ele>112.5</ele><time>2026-04-28T06:07:45.007Z</time></trkpt><trkpt lat="44.39005212542054" lon="11.252751064512372"><ele>112.75</ele><time>2026-04-28T06:07:46.007Z</time></trkpt><trkpt lat="44.39003852726981" lon="11.252554809279536"><ele>113.0</ele><time>2026-04-28T06:07:47.007Z</time></trkpt><trkpt lat="44.39001973275915" lon="11.252358740242913"><ele>113.5</ele><time>2026-04-28T06:07:48.007Z</time></trkpt><trkpt lat="44.3900030165098" lon="11.252173622900921"><ele>114.0</ele><time>2026-04-28T06:07:49.007Z</time></trkpt><trkpt lat="44.38998538287143" lon="11.251990627477175"><ele>114.5</ele><time>2026-04-28T06:07:50.007Z</time></trkpt><trkpt lat="44.38995819137404" lon="11.251806531667437"><ele>115.0</ele><time>2026-04-28T06:07:51.007Z</time></trkpt><trkpt lat="44.38994144719971" lon="11.251621687123158"><ele>114.25</ele><time>2026-04-28T06:07:52.007Z</time></trkpt><trkpt lat="44.38993073867594" lon="11.251433932691299"><ele>113.5</ele><time>2026-04-28T06:07:53.007Z</time></trkpt><trkpt lat="44.38991154359034" lon="11.251240624206424"><ele>112.75</ele><time>2026-04-28T06:07:54.007Z</time></trkpt><trkpt lat="44.389889245187845" lon="11.251057736683215"><ele>112.0</ele><time>2026-04-28T06:07:55.007Z</time></trkpt><trkpt lat="44.3898604193785" lon="11.250874261095351"><ele>112.0</ele><time>2026-04-28T06:07:56.007Z</time></trkpt><trkpt lat="44.38983337337198" lon="11.250686612580433"><ele>112.0</ele><time>2026-04-28T06:07:57.007Z</time></trkpt><trkpt lat="44.38979334153352" lon="11.250505570692576"><ele>112.0</ele><time>2026-04-28T06:07:58.007Z</time></trkpt><trkpt lat="44.38974650492704" lon="11.250330648524253"><ele>112.0</ele><time>2026-04-28T06:07:59.007Z</time></trkpt><trkpt lat="44.38969962703959" lon="11.250144144190218"><ele>114.0</ele><time>2026-04-28T06:08:00.007Z</time></trkpt><trkpt lat="44.389639289903066" lon="11.249968454828926"><ele>116.0</ele><time>2026-04-28T06:08:01.007Z</time></trkpt><trkpt lat="44.3895832399419" lon="11.249790405015528"><ele>118.0</ele><time>2026-04-28T06:08:02.007Z</time></trkpt><trkpt lat="44.38952214172331" lon="11.249619621984843"><ele>120.0</ele><time>2026-04-28T06:08:03.007Z</time></trkpt><trkpt lat="44.38948250506595" lon="11.249439447670634"><ele>120.0</ele><time>2026-04-28T06:08:04.007Z</time></trkpt><trkpt lat="44.389428819347394" lon="11.24927202359496"><ele>120.0</ele><time>2026-04-28T06:08:05.007Z</time></trkpt><trkpt lat="44.389363854509" lon="11.24913022821589"><ele>120.0</ele><time>2026-04-28T06:08:06.007Z</time></trkpt><trkpt lat="44.38931997372153" lon="11.248973054956931"><ele>120.0</ele><time>2026-04-28T06:08:07.007Z</time></trkpt><trkpt lat="44.389263205119384" lon="11.248822059600101"><ele>118.0</ele><time>2026-04-28T06:08:08.007Z</time></trkpt><trkpt lat="44.3892043468415" lon="11.24867064841719"><ele>116.0</ele><time>2026-04-28T06:08:09.007Z</time></trkpt><trkpt lat="44.38915449317555" lon="11.24851410503386"><ele>114.0</ele><time>2026-04-28T06:08:10.007Z</time></trkpt><trkpt lat="44.389107280345314" lon="11.248360862182937"><ele>112.0</ele><time>2026-04-28T06:08:11.007Z</time></trkpt><trkpt lat="44.38905978356314" lon="11.24821759885187"><ele>110.6</ele><time>2026-04-28T06:08:12.007Z</time></trkpt><trkpt lat="44.38902014348461" lon="11.248080986776376"><ele>109.19999999999999</ele><time>2026-04-28T06:08:13.007Z</time></trkpt><trkpt lat="44.38897881976673" lon="11.247932246719301"><ele>107.8</ele><time>2026-04-28T06:08:14.007Z</time></trkpt><trkpt lat="44.38892046903181" lon="11.247804565768144"><ele>106.4</ele><time>2026-04-28T06:08:15.007Z</time></trkpt><trkpt lat="44.38885786903997" lon="11.247681066141217"><ele>105.0</ele><time>2026-04-28T06:08:16.007Z</time></trkpt><trkpt lat="44.388797566754874" lon="11.247574363878238"><ele>106.16666666666667</ele><time>2026-04-28T06:08:17.007Z</time></trkpt><trkpt lat="44.388742488711046" lon="11.247488235865747"><ele>107.33333333333334</ele><time>2026-04-28T06:08:18.007Z</time></trkpt><trkpt lat="44.388691336564584" lon="11.247426088646414"><ele>108.5</ele><time>2026-04-28T06:08:19.007Z</time></trkpt><trkpt lat="44.38861084531904" lon="11.24735227516286"><ele>109.66666666666667</ele><time>2026-04-28T06:08:21.007Z</time></trkpt><trkpt lat="44.3885458318458" lon="11.247324981507612"><ele>110.83333333333334</ele><time>2026-04-28T06:08:23.007Z</time></trkpt><trkpt lat="44.388467854783684" lon="11.247276862248912"><ele>112.0</ele><time>2026-04-28T06:08:25.007Z</time></trkpt><trkpt lat="44.38836813847431" lon="11.24716080420375"><ele>112.00000000000001</ele><time>2026-04-28T06:08:27.007Z</time></trkpt><trkpt lat="44.38829463850041" lon="11.247136134662258"><ele>112.0</ele><time>2026-04-28T06:08:28.007Z</time></trkpt><trkpt lat="44.38825064033123" lon="11.247067610494542"><ele>112.0</ele><time>2026-04-28T06:08:29.007Z</time></trkpt><trkpt lat="44.388162005001995" lon="11.247199830834884"><ele>112.0</ele><time>2026-04-28T06:08:30.007Z</time></trkpt><trkpt lat="44.38812359905134" lon="11.247296683800414"><ele>112.00000000000001</ele><time>2026-04-28T06:08:31.007Z</time></trkpt><trkpt lat="44.38812432735066" lon="11.247397442440871"><ele>112.0</ele><time>2026-04-28T06:08:32.007Z</time></trkpt><trkpt lat="44.38815627658958" lon="11.247502294013676"><ele>113.8</ele><time>2026-04-28T06:08:33.007Z</time></trkpt><trkpt lat="44.38821461073824" lon="11.247581700459147"><ele>115.6</ele><time>2026-04-28T06:08:34.007Z</time></trkpt><trkpt lat="44.38829980352378" lon="11.247636254567917"><ele>117.39999999999999</ele><time>2026-04-28T06:08:35.007Z</time></trkpt><trkpt lat="44.38839982081675" lon="11.247646327081442"><ele>119.19999999999999</ele><time>2026-04-28T06:08:36.007Z</time></trkpt><trkpt lat="44.38848875935365" lon="11.247766877271193"><ele>121.0</ele><time>2026-04-28T06:08:37.007Z</time></trkpt><trkpt lat="44.388570039918484" lon="11.247871495095122"><ele>121.0</ele><time>2026-04-28T06:08:38.007Z</time></trkpt><trkpt lat="44.3886440222276" lon="11.248003506333633"><ele>121.0</ele><time>2026-04-28T06:08:39.007Z</time></trkpt><trkpt lat="44.388717529701964" lon="11.248155269123925"><ele>121.0</ele><time>2026-04-28T06:08:40.007Z</time></trkpt><trkpt lat="44.38879206769193" lon="11.248308592375915"><ele>121.0</ele><time>2026-04-28T06:08:41.007Z</time></trkpt><trkpt lat="44.38886918141564" lon="11.248473224118719"><ele>120.75</ele><time>2026-04-28T06:08:42.007Z</time></trkpt><trkpt lat="44.38894889683856" lon="11.248642631244714"><ele>120.5</ele><time>2026-04-28T06:08:43.007Z</time></trkpt><trkpt lat="44.38902168621196" lon="11.248802946819517"><ele>120.25</ele><time>2026-04-28T06:08:44.007Z</time></trkpt><trkpt lat="44.38908433306881" lon="11.248969067602015"><ele>120.0</ele><time>2026-04-28T06:08:45.007Z</time></trkpt><trkpt lat="44.38915277392859" lon="11.249125998251387"><ele>120.0</ele><time>2026-04-28T06:08:46.007Z</time></trkpt><trkpt lat="44.38920289722214" lon="11.24928912802664"><ele>120.0</ele><time>2026-04-28T06:08:47.007Z</time></trkpt><trkpt lat="44.389179877079435" lon="11.24948241452261"><ele>120.0</ele><time>2026-04-28T06:08:48.007Z</time></trkpt><trkpt lat="44.38916958308267" lon="11.24964689667907"><ele>120.0</ele><time>2026-04-28T06:08:49.007Z</time></trkpt><trkpt lat="44.389143009366066" lon="11.249779951137903"><ele>120.16666666666667</ele><time>2026-04-28T06:08:50.007Z</time></trkpt><trkpt lat="44.389094159961196" lon="11.249879464731803"><ele>120.33333333333334</ele><time>2026-04-28T06:08:51.007Z</time></trkpt><trkpt lat="44.38902381479791" lon="11.249940444796064"><ele>120.5</ele><time>2026-04-28T06:08:52.007Z</time></trkpt><trkpt lat="44.388943251292844" lon="11.249964429073113"><ele>120.66666666666667</ele><time>2026-04-28T06:08:53.007Z</time></trkpt><trkpt lat="44.38885458497176" lon="11.249946825087166"><ele>120.83333333333334</ele><time>2026-04-28T06:08:54.007Z</time></trkpt><trkpt lat="44.38876309359689" lon="11.249887127096653"><ele>121.0</ele><time>2026-04-28T06:08:55.007Z</time></trkpt><trkpt lat="44.38867136932645" lon="11.24979594246305"><ele>121.0</ele><time>2026-04-28T06:08:56.007Z</time></trkpt><trkpt lat="44.3885684580363" lon="11.249688706843923"><ele>121.0</ele><time>2026-04-28T06:08:57.007Z</time></trkpt><trkpt lat="44.388442629006704" lon="11.249597844136254"><ele>121.0</ele><time>2026-04-28T06:08:58.007Z</time></trkpt><trkpt lat="44.388338469830316" lon="11.249427141923057"><ele>121.0</ele><time>2026-04-28T06:08:59.007Z</time></trkpt><trkpt lat="44.38822019952953" lon="11.249298203223475"><ele>121.0</ele><time>2026-04-28T06:09:00.007Z</time></trkpt><trkpt lat="44.388088620885" lon="11.249170154270136"><ele>121.0</ele><time>2026-04-28T06:09:01.007Z</time></trkpt><trkpt lat="44.38793848431952" lon="11.249046377614569"><ele>121.0</ele><time>2026-04-28T06:09:02.007Z</time></trkpt><trkpt lat="44.38777423734704" lon="11.248918039845192"><ele>121.33333333333334</ele><time>2026-04-28T06:09:03.007Z</time></trkpt><trkpt lat="44.38760310858461" lon="11.248796791160563"><ele>121.66666666666666</ele><time>2026-04-28T06:09:04.007Z</time></trkpt><trkpt lat="44.387429043490556" lon="11.24868358390103"><ele>122.0</ele><time>2026-04-28T06:09:05.007Z</time></trkpt><trkpt lat="44.38724396848657" lon="11.248584746672035"><ele>122.66666666666666</ele><time>2026-04-28T06:09:06.007Z</time></trkpt><trkpt lat="44.387044607691024" lon="11.248505285198231"><ele>123.33333333333334</ele><time>2026-04-28T06:09:07.007Z</time></trkpt><trkpt lat="44.38683565363347" lon="11.24843882929562"><ele>124.0</ele><time>2026-04-28T06:09:08.007Z</time></trkpt><trkpt lat="44.3866178522128" lon="11.248389186534853"><ele>124.0</ele><time>2026-04-28T06:09:09.007Z</time></trkpt><trkpt lat="44.38639805828009" lon="11.248365375707133"><ele>124.0</ele><time>2026-04-28T06:09:10.007Z</time></trkpt><trkpt lat="44.386182733374795" lon="11.24835596511952"><ele>124.0</ele><time>2026-04-28T06:09:11.007Z</time></trkpt><trkpt lat="44.38596320816691" lon="11.24836939960412"><ele>123.33333333333334</ele><time>2026-04-28T06:09:12.007Z</time></trkpt><trkpt lat="44.38574647673548" lon="11.248405572593382"><ele>122.66666666666666</ele><time>2026-04-28T06:09:13.007Z</time></trkpt><trkpt lat="44.38553397373043" lon="11.248462188465144"><ele>122.0</ele><time>2026-04-28T06:09:14.007Z</time></trkpt><trkpt lat="44.38533285371514" lon="11.248517102394738"><ele>118.66666666666666</ele><time>2026-04-28T06:09:15.007Z</time></trkpt><trkpt lat="44.385146127319025" lon="11.24862228873233"><ele>115.33333333333334</ele><time>2026-04-28T06:09:16.007Z</time></trkpt><trkpt lat="44.384956748770975" lon="11.24871754934262"><ele>112.0</ele><time>2026-04-28T06:09:17.007Z</time></trkpt><trkpt lat="44.384763245213016" lon="11.248829279544944"><ele>114.66666666666667</ele><time>2026-04-28T06:09:18.007Z</time></trkpt><trkpt lat="44.38457614800623" lon="11.248966904259591"><ele>117.33333333333334</ele><time>2026-04-28T06:09:19.007Z</time></trkpt><trkpt lat="44.38438836484685" lon="11.249116359933751"><ele>120.0</ele><time>2026-04-28T06:09:20.007Z</time></trkpt><trkpt lat="44.384198718470685" lon="11.2492719583109"><ele>120.0</ele><time>2026-04-28T06:09:21.007Z</time></trkpt><trkpt lat="44.38400633361588" lon="11.249436749934427"><ele>120.0</ele><time>2026-04-28T06:09:22.007Z</time></trkpt><trkpt lat="44.383809405372475" lon="11.249590534684508"><ele>117.5</ele><time>2026-04-28T06:09:23.007Z</time></trkpt><trkpt lat="44.383603022860896" lon="11.249749058351416"><ele>115.0</ele><time>2026-04-28T06:09:24.007Z</time></trkpt><trkpt lat="44.38338846464365" lon="11.249913421998551"><ele>113.5</ele><time>2026-04-28T06:09:25.007Z</time></trkpt><trkpt lat="44.383177188585" lon="11.250083684409004"><ele>112.0</ele><time>2026-04-28T06:09:26.007Z</time></trkpt><trkpt lat="44.38297816364122" lon="11.250245115963754"><ele>112.0</ele><time>2026-04-28T06:09:27.007Z</time></trkpt><trkpt lat="44.38277911181468" lon="11.25040523312381"><ele>112.0</ele><time>2026-04-28T06:09:28.007Z</time></trkpt><trkpt lat="44.38257919978041" lon="11.250563859131484"><ele>112.5</ele><time>2026-04-28T06:09:29.007Z</time></trkpt><trkpt lat="44.38237301406906" lon="11.250706055792879"><ele>113.0</ele><time>2026-04-28T06:09:30.007Z</time></trkpt><trkpt lat="44.38216016219974" lon="11.250852365817147"><ele>113.0</ele><time>2026-04-28T06:09:31.007Z</time></trkpt><trkpt lat="44.38194491584546" lon="11.250991569268932"><ele>113.0</ele><time>2026-04-28T06:09:32.007Z</time></trkpt><trkpt lat="44.38172385584241" lon="11.251114097276592"><ele>113.0</ele><time>2026-04-28T06:09:33.007Z</time></trkpt><trkpt lat="44.381489747325666" lon="11.251219013712833"><ele>113.0</ele><time>2026-04-28T06:09:34.007Z</time></trkpt><trkpt lat="44.38124343755613" lon="11.251305678274756"><ele>112.0</ele><time>2026-04-28T06:09:35.007Z</time></trkpt><trkpt lat="44.381008186922685" lon="11.251375389845625"><ele>111.0</ele><time>2026-04-28T06:09:36.007Z</time></trkpt><trkpt lat="44.380779687388156" lon="11.251420443987755"><ele>117.33333333333334</ele><time>2026-04-28T06:09:37.007Z</time></trkpt><trkpt lat="44.38055612744986" lon="11.251457422864851"><ele>123.66666666666667</ele><time>2026-04-28T06:09:38.008Z</time></trkpt><trkpt lat="44.38033700044596" lon="11.251493717963154"><ele>130.0</ele><time>2026-04-28T06:09:39.008Z</time></trkpt><trkpt lat="44.3801221439834" lon="11.251530016862532"><ele>130.0</ele><time>2026-04-28T06:09:40.008Z</time></trkpt><trkpt lat="44.37990967297448" lon="11.251570732754002"><ele>130.0</ele><time>2026-04-28T06:09:41.008Z</time></trkpt><trkpt lat="44.37969958963959" lon="11.251614059183959"><ele>130.0</ele><time>2026-04-28T06:09:42.008Z</time></trkpt><trkpt lat="44.37949269564516" lon="11.251656648330874"><ele>128.33333333333334</ele><time>2026-04-28T06:09:43.008Z</time></trkpt><trkpt lat="44.379289699224465" lon="11.251714505069984"><ele>126.66666666666666</ele><time>2026-04-28T06:09:44.008Z</time></trkpt><trkpt lat="44.37909450016022" lon="11.251787553586174"><ele>125.0</ele><time>2026-04-28T06:09:45.008Z</time></trkpt><trkpt lat="44.37890068507117" lon="11.251869961637286"><ele>122.0</ele><time>2026-04-28T06:09:46.007Z</time></trkpt><trkpt lat="44.37870585081759" lon="11.25196182577893"><ele>119.0</ele><time>2026-04-28T06:09:47.008Z</time></trkpt><trkpt lat="44.37849736686502" lon="11.25205825775884"><ele>116.0</ele><time>2026-04-28T06:09:48.008Z</time></trkpt><trkpt lat="44.37828679693737" lon="11.252156090416655"><ele>116.0</ele><time>2026-04-28T06:09:49.008Z</time></trkpt><trkpt lat="44.378078572859074" lon="11.252253286411879"><ele>116.0</ele><time>2026-04-28T06:09:50.008Z</time></trkpt><trkpt lat="44.37787722042589" lon="11.252337734375235"><ele>116.0</ele><time>2026-04-28T06:09:51.008Z</time></trkpt><trkpt lat="44.377683486848525" lon="11.252429455709276"><ele>117.33333333333333</ele><time>2026-04-28T06:09:52.008Z</time></trkpt><trkpt lat="44.377486385339495" lon="11.252512994250965"><ele>118.66666666666666</ele><time>2026-04-28T06:09:53.008Z</time></trkpt><trkpt lat="44.37728501088284" lon="11.252579951075223"><ele>120.0</ele><time>2026-04-28T06:09:54.008Z</time></trkpt><trkpt lat="44.37707622533082" lon="11.252624360461944"><ele>120.0</ele><time>2026-04-28T06:09:55.008Z</time></trkpt><trkpt lat="44.37686694504744" lon="11.252651863898283"><ele>120.0</ele><time>2026-04-28T06:09:56.008Z</time></trkpt><trkpt lat="44.37665072704786" lon="11.25266537611518"><ele>120.0</ele><time>2026-04-28T06:09:57.008Z</time></trkpt><trkpt lat="44.3764364092963" lon="11.2526632821695"><ele>121.5</ele><time>2026-04-28T06:09:58.008Z</time></trkpt><trkpt lat="44.37621488895718" lon="11.25265467585039"><ele>123.0</ele><time>2026-04-28T06:09:59.008Z</time></trkpt><trkpt lat="44.375980271025895" lon="11.252641359814229"><ele>123.0</ele><time>2026-04-28T06:10:00.008Z</time></trkpt><trkpt lat="44.375742189127905" lon="11.252636560592716"><ele>123.0</ele><time>2026-04-28T06:10:01.008Z</time></trkpt><trkpt lat="44.37551113228502" lon="11.252634073069604"><ele>123.33333333333334</ele><time>2026-04-28T06:10:02.008Z</time></trkpt><trkpt lat="44.37529260632019" lon="11.25263559204254"><ele>123.66666666666667</ele><time>2026-04-28T06:10:03.008Z</time></trkpt><trkpt lat="44.37508090839635" lon="11.252640034916993"><ele>124.0</ele><time>2026-04-28T06:10:04.008Z</time></trkpt><trkpt lat="44.37486998658788" lon="11.252657179045691"><ele>122.0</ele><time>2026-04-28T06:10:05.008Z</time></trkpt><trkpt lat="44.374652506377664" lon="11.252681209469001"><ele>120.0</ele><time>2026-04-28T06:10:06.008Z</time></trkpt><trkpt lat="44.37442835752141" lon="11.252726229880615"><ele>118.0</ele><time>2026-04-28T06:10:07.008Z</time></trkpt><trkpt lat="44.374208246481246" lon="11.25278913023394"><ele>118.0</ele><time>2026-04-28T06:10:08.008Z</time></trkpt><trkpt lat="44.373984000357076" lon="11.252872907003354"><ele>118.0</ele><time>2026-04-28T06:10:09.008Z</time></trkpt><trkpt lat="44.3737577270631" lon="11.252968394892877"><ele>115.5</ele><time>2026-04-28T06:10:10.008Z</time></trkpt><trkpt lat="44.373535195253666" lon="11.25308840016978"><ele>113.0</ele><time>2026-04-28T06:10:11.008Z</time></trkpt><trkpt lat="44.37330308417759" lon="11.253229646940987"><ele>117.0</ele><time>2026-04-28T06:10:12.008Z</time></trkpt><trkpt lat="44.373072707136295" lon="11.253385315232096"><ele>121.0</ele><time>2026-04-28T06:10:13.008Z</time></trkpt><trkpt lat="44.372839967251984" lon="11.253555323212364"><ele>121.0</ele><time>2026-04-28T06:10:14.008Z</time></trkpt><trkpt lat="44.37260750690853" lon="11.253736743422085"><ele>121.0</ele><time>2026-04-28T06:10:15.008Z</time></trkpt><trkpt lat="44.37236841358882" lon="11.253926780973229"><ele>122.0</ele><time>2026-04-28T06:10:16.008Z</time></trkpt><trkpt lat="44.37212488946287" lon="11.254112575742933"><ele>123.0</ele><time>2026-04-28T06:10:17.008Z</time></trkpt><trkpt lat="44.371878018309694" lon="11.254291449820943"><ele>123.0</ele><time>2026-04-28T06:10:18.008Z</time></trkpt><trkpt lat="44.371645797234464" lon="11.254467657334954"><ele>123.0</ele><time>2026-04-28T06:10:19.008Z</time></trkpt><trkpt lat="44.37141835784561" lon="11.254637197930066"><ele>120.0</ele><time>2026-04-28T06:10:20.008Z</time></trkpt><trkpt lat="44.371202663512506" lon="11.254800244741316"><ele>117.0</ele><time>2026-04-28T06:10:21.008Z</time></trkpt><trkpt lat="44.371002205930985" lon="11.254953607478138"><ele>117.0</ele><time>2026-04-28T06:10:22.008Z</time></trkpt><trkpt lat="44.370812787221375" lon="11.255092704100576"><ele>117.0</ele><time>2026-04-28T06:10:23.008Z</time></trkpt><trkpt lat="44.370637489735834" lon="11.255228127657038"><ele>117.0</ele><time>2026-04-28T06:10:24.008Z</time></trkpt><trkpt lat="44.37047001136533" lon="11.25536091505974"><ele>115.66666666666666</ele><time>2026-04-28T06:10:25.008Z</time></trkpt><trkpt lat="44.370305985669205" lon="11.255495284417298"><ele>114.33333333333333</ele><time>2026-04-28T06:10:26.008Z</time></trkpt><trkpt lat="44.370142843140094" lon="11.255635073037702"><ele>113.0</ele><time>2026-04-28T06:10:27.008Z</time></trkpt><trkpt lat="44.369989110777546" lon="11.25578338913315"><ele>113.0</ele><time>2026-04-28T06:10:28.008Z</time></trkpt><trkpt lat="44.36983927485472" lon="11.255944629004983"><ele>113.0</ele><time>2026-04-28T06:10:29.008Z</time></trkpt><trkpt lat="44.36968834146042" lon="11.256105814744409"><ele>113.0</ele><time>2026-04-28T06:10:30.008Z</time></trkpt><trkpt lat="44.36952656926803" lon="11.256256233074557"><ele>112.66666666666666</ele><time>2026-04-28T06:10:31.008Z</time></trkpt><trkpt lat="44.36935916427604" lon="11.25639177254696"><ele>112.33333333333334</ele><time>2026-04-28T06:10:32.008Z</time></trkpt><trkpt lat="44.369187584721125" lon="11.25652080262119"><ele>112.0</ele><time>2026-04-28T06:10:33.008Z</time></trkpt><trkpt lat="44.369010914666" lon="11.256642663718301"><ele>111.0</ele><time>2026-04-28T06:10:34.008Z</time></trkpt><trkpt lat="44.36882896721602" lon="11.25677226877569"><ele>110.0</ele><time>2026-04-28T06:10:35.008Z</time></trkpt><trkpt lat="44.36865271009145" lon="11.256905896883508"><ele>109.0</ele><time>2026-04-28T06:10:36.008Z</time></trkpt><trkpt lat="44.36848003378272" lon="11.257036462783057"><ele>109.0</ele><time>2026-04-28T06:10:37.008Z</time></trkpt><trkpt lat="44.36830977409553" lon="11.25716370075756"><ele>109.0</ele><time>2026-04-28T06:10:38.008Z</time></trkpt><trkpt lat="44.368144463163425" lon="11.257286274091554"><ele>109.0</ele><time>2026-04-28T06:10:39.008Z</time></trkpt><trkpt lat="44.36798471734536" lon="11.257413775603954"><ele>109.33333333333334</ele><time>2026-04-28T06:10:40.008Z</time></trkpt><trkpt lat="44.36782990098292" lon="11.257551184302605"><ele>109.66666666666666</ele><time>2026-04-28T06:10:41.008Z</time></trkpt><trkpt lat="44.367682583817526" lon="11.25770046869467"><ele>110.0</ele><time>2026-04-28T06:10:42.008Z</time></trkpt><trkpt lat="44.36754790165138" lon="11.257844328947352"><ele>110.0</ele><time>2026-04-28T06:10:43.008Z</time></trkpt><trkpt lat="44.36742524309331" lon="11.25798771859348"><ele>110.0</ele><time>2026-04-28T06:10:44.008Z</time></trkpt><trkpt lat="44.367312042383816" lon="11.258129970394519"><ele>110.0</ele><time>2026-04-28T06:10:45.008Z</time></trkpt><trkpt lat="44.36720397455243" lon="11.258273693763794"><ele>110.33333333333333</ele><time>2026-04-28T06:10:46.008Z</time></trkpt><trkpt lat="44.36710253978507" lon="11.258414307465223"><ele>110.66666666666666</ele><time>2026-04-28T06:10:47.008Z</time></trkpt><trkpt lat="44.36699248803529" lon="11.25856559892294"><ele>111.0</ele><time>2026-04-28T06:10:48.152Z</time></trkpt><trkpt lat="44.366848954125594" lon="11.258762519444629"><ele>111.0</ele><time>2026-04-28T06:10:50.008Z</time></trkpt><trkpt lat="44.366819386072386" lon="11.258922403344588"><ele>111.0</ele><time>2026-04-28T06:10:52.008Z</time></trkpt><trkpt lat="44.366769810259434" lon="11.259029700996024"><ele>111.0</ele><time>2026-04-28T06:10:54.008Z</time></trkpt><trkpt lat="44.36671232239056" lon="11.25909789720563"><ele>111.0</ele><time>2026-04-28T06:11:15.008Z</time></trkpt><trkpt lat="44.366608199153994" lon="11.259233666135268"><ele>111.0</ele><time>2026-04-28T06:11:17.008Z</time></trkpt><trkpt lat="44.36651541768217" lon="11.259279707022662"><ele>111.0</ele><time>2026-04-28T06:11:18.008Z</time></trkpt><trkpt lat="44.36642204660213" lon="11.259300235876045"><ele>111.0</ele><time>2026-04-28T06:11:19.008Z</time></trkpt><trkpt lat="44.36632800596022" lon="11.259319265842882"><ele>111.0</ele><time>2026-04-28T06:11:20.008Z</time></trkpt><trkpt lat="44.366255613798685" lon="11.25936225648191"><ele>111.0</ele><time>2026-04-28T06:11:21.008Z</time></trkpt><trkpt lat="44.366208214894336" lon="11.259429984648882"><ele>111.0</ele><time>2026-04-28T06:11:22.008Z</time></trkpt><trkpt lat="44.366191484982195" lon="11.259517895173065"><ele>111.0</ele><time>2026-04-28T06:11:23.008Z</time></trkpt><trkpt lat="44.36619655251525" lon="11.259620839117902"><ele>111.0</ele><time>2026-04-28T06:11:24.008Z</time></trkpt><trkpt lat="44.36622394251621" lon="11.25971272783427"><ele>111.0</ele><time>2026-04-28T06:11:25.008Z</time></trkpt><trkpt lat="44.36627385610405" lon="11.259770847991598"><ele>111.0</ele><time>2026-04-28T06:11:26.008Z</time></trkpt><trkpt lat="44.36633550221686" lon="11.259806335528037"><ele>111.0</ele><time>2026-04-28T06:11:27.008Z</time></trkpt><trkpt lat="44.36643523750099" lon="11.259802636313406"><ele>111.0</ele><time>2026-04-28T06:11:29.008Z</time></trkpt><trkpt lat="44.36650125632851" lon="11.259765448772932"><ele>111.0</ele><time>2026-04-28T06:11:32.008Z</time></trkpt><trkpt lat="44.366540898628905" lon="11.259624906438887"><ele>111.19999999999999</ele><time>2026-04-28T06:11:34.008Z</time></trkpt><trkpt lat="44.366552718253686" lon="11.25951048285969"><ele>111.39999999999999</ele><time>2026-04-28T06:11:35.008Z</time></trkpt><trkpt lat="44.36658874695888" lon="11.259388646754507"><ele>111.6</ele><time>2026-04-28T06:11:36.008Z</time></trkpt><trkpt lat="44.366649988912634" lon="11.259270231044846"><ele>111.8</ele><time>2026-04-28T06:11:37.008Z</time></trkpt><trkpt lat="44.36673610009612" lon="11.259147207173434"><ele>112.0</ele><time>2026-04-28T06:11:38.008Z</time></trkpt><trkpt lat="44.3668404524861" lon="11.25900801858088"><ele>111.66666666666667</ele><time>2026-04-28T06:11:39.008Z</time></trkpt><trkpt lat="44.366947050042704" lon="11.258851218345798"><ele>111.33333333333334</ele><time>2026-04-28T06:11:40.008Z</time></trkpt><trkpt lat="44.367054872313375" lon="11.258674476670183"><ele>111.0</ele><time>2026-04-28T06:11:41.008Z</time></trkpt><trkpt lat="44.36716703560905" lon="11.258486953784434"><ele>111.33333333333334</ele><time>2026-04-28T06:11:42.008Z</time></trkpt><trkpt lat="44.367289753071795" lon="11.258295466783094"><ele>111.66666666666667</ele><time>2026-04-28T06:11:43.009Z</time></trkpt><trkpt lat="44.367421582342594" lon="11.25810840919729"><ele>112.0</ele><time>2026-04-28T06:11:44.009Z</time></trkpt><trkpt lat="44.36756511346971" lon="11.257928866143091"><ele>111.33333333333334</ele><time>2026-04-28T06:11:45.009Z</time></trkpt><trkpt lat="44.36772100171713" lon="11.25776186590979"><ele>110.66666666666666</ele><time>2026-04-28T06:11:46.008Z</time></trkpt><trkpt lat="44.36789580019614" lon="11.257594686992189"><ele>110.0</ele><time>2026-04-28T06:11:47.008Z</time></trkpt><trkpt lat="44.36808466559488" lon="11.257433420698478"><ele>109.5</ele><time>2026-04-28T06:11:48.008Z</time></trkpt><trkpt lat="44.36828781149358" lon="11.257278789120653"><ele>109.0</ele><time>2026-04-28T06:11:49.009Z</time></trkpt><trkpt lat="44.36847567138722" lon="11.257100586788063"><ele>109.0</ele><time>2026-04-28T06:11:50.008Z</time></trkpt><trkpt lat="44.36864886427252" lon="11.256939005959493"><ele>109.0</ele><time>2026-04-28T06:11:51.008Z</time></trkpt><trkpt lat="44.36884423983698" lon="11.256797737980014"><ele>109.0</ele><time>2026-04-28T06:11:52.009Z</time></trkpt><trkpt lat="44.369037008339866" lon="11.25666744055071"><ele>110.0</ele><time>2026-04-28T06:11:53.009Z</time></trkpt><trkpt lat="44.3692095140646" lon="11.256540117552685"><ele>111.0</ele><time>2026-04-28T06:11:54.009Z</time></trkpt><trkpt lat="44.36936947630476" lon="11.25641646813534"><ele>112.0</ele><time>2026-04-28T06:11:55.008Z</time></trkpt><trkpt lat="44.36953518628435" lon="11.256284611513594"><ele>112.33333333333334</ele><time>2026-04-28T06:11:56.008Z</time></trkpt><trkpt lat="44.369700472025464" lon="11.256136584751568"><ele>112.66666666666666</ele><time>2026-04-28T06:11:57.008Z</time></trkpt><trkpt lat="44.36986371243294" lon="11.255970287521174"><ele>113.0</ele><time>2026-04-28T06:11:58.008Z</time></trkpt><trkpt lat="44.37003353911691" lon="11.255815288947884"><ele>113.0</ele><time>2026-04-28T06:11:59.008Z</time></trkpt><trkpt lat="44.370209131180665" lon="11.255660934551283"><ele>113.0</ele><time>2026-04-28T06:12:00.008Z</time></trkpt><trkpt lat="44.37039509434216" lon="11.255509914850185"><ele>113.0</ele><time>2026-04-28T06:12:01.008Z</time></trkpt><trkpt lat="44.370582182038916" lon="11.255365581499877"><ele>114.33333333333333</ele><time>2026-04-28T06:12:02.008Z</time></trkpt><trkpt lat="44.370770183484225" lon="11.255218623856555"><ele>115.66666666666666</ele><time>2026-04-28T06:12:03.008Z</time></trkpt><trkpt lat="44.37096249592692" lon="11.2550669442699"><ele>117.0</ele><time>2026-04-28T06:12:04.008Z</time></trkpt><trkpt lat="44.37115790672679" lon="11.254889530833784"><ele>120.0</ele><time>2026-04-28T06:12:05.008Z</time></trkpt><trkpt lat="44.37137062552615" lon="11.254735779956793"><ele>123.0</ele><time>2026-04-28T06:12:06.008Z</time></trkpt><trkpt lat="44.37158132196848" lon="11.254575034916153"><ele>123.0</ele><time>2026-04-28T06:12:07.008Z</time></trkpt><trkpt lat="44.37180043451627" lon="11.254405903939668"><ele>123.0</ele><time>2026-04-28T06:12:08.008Z</time></trkpt><trkpt lat="44.372025009753294" lon="11.254234764862098"><ele>122.0</ele><time>2026-04-28T06:12:09.008Z</time></trkpt><trkpt lat="44.37224460192291" lon="11.254068560751298"><ele>121.0</ele><time>2026-04-28T06:12:10.008Z</time></trkpt><trkpt lat="44.372451907337556" lon="11.253907961612201"><ele>121.0</ele><time>2026-04-28T06:12:11.008Z</time></trkpt><trkpt lat="44.37264433721402" lon="11.253764208168453"><ele>121.0</ele><time>2026-04-28T06:12:12.008Z</time></trkpt><trkpt lat="44.372831991564865" lon="11.25362154968076"><ele>121.0</ele><time>2026-04-28T06:12:13.008Z</time></trkpt><trkpt lat="44.373022747086154" lon="11.253483465518302"><ele>122.66666666666667</ele><time>2026-04-28T06:12:14.008Z</time></trkpt><trkpt lat="44.37321021816078" lon="11.253343218701922"><ele>124.33333333333334</ele><time>2026-04-28T06:12:15.008Z</time></trkpt><trkpt lat="44.37340375722504" lon="11.253213982209063"><ele>126.0</ele><time>2026-04-28T06:12:16.008Z</time></trkpt><trkpt lat="44.37360398249893" lon="11.253092365878658"><ele>122.0</ele><time>2026-04-28T06:12:17.008Z</time></trkpt><trkpt lat="44.37381843207697" lon="11.252990308144879"><ele>118.0</ele><time>2026-04-28T06:12:18.008Z</time></trkpt><trkpt lat="44.374036031465764" lon="11.252895423746534"><ele>118.0</ele><time>2026-04-28T06:12:19.008Z</time></trkpt><trkpt lat="44.37425546676553" lon="11.25281436102376"><ele>118.0</ele><time>2026-04-28T06:12:20.008Z</time></trkpt><trkpt lat="44.3744787204041" lon="11.252755515782482"><ele>121.0</ele><time>2026-04-28T06:12:21.008Z</time></trkpt><trkpt lat="44.374702966338205" lon="11.252709022298012"><ele>124.0</ele><time>2026-04-28T06:12:22.008Z</time></trkpt><trkpt lat="44.37493307499668" lon="11.252686373787574"><ele>124.0</ele><time>2026-04-28T06:12:23.008Z</time></trkpt><trkpt lat="44.375173661894" lon="11.252670017141513"><ele>124.0</ele><time>2026-04-28T06:12:24.008Z</time></trkpt><trkpt lat="44.37542328969594" lon="11.252672822323463"><ele>123.5</ele><time>2026-04-28T06:12:25.008Z</time></trkpt><trkpt lat="44.3756813047737" lon="11.25267412694863"><ele>123.0</ele><time>2026-04-28T06:12:26.008Z</time></trkpt><trkpt lat="44.37593656652397" lon="11.252686023102418"><ele>123.0</ele><time>2026-04-28T06:12:27.008Z</time></trkpt><trkpt lat="44.37617013801932" lon="11.25269464894647"><ele>123.0</ele><time>2026-04-28T06:12:28.008Z</time></trkpt><trkpt lat="44.37640917738325" lon="11.252694980533693"><ele>121.5</ele><time>2026-04-28T06:12:29.008Z</time></trkpt><trkpt lat="44.3766390837836" lon="11.252692267003486"><ele>120.0</ele><time>2026-04-28T06:12:30.008Z</time></trkpt><trkpt lat="44.37686641595086" lon="11.25268171312657"><ele>120.0</ele><time>2026-04-28T06:12:31.008Z</time></trkpt><trkpt lat="44.377090422735186" lon="11.252653263804026"><ele>120.0</ele><time>2026-04-28T06:12:32.008Z</time></trkpt><trkpt lat="44.37730135442255" lon="11.25260860678818"><ele>120.0</ele><time>2026-04-28T06:12:33.008Z</time></trkpt><trkpt lat="44.37751098279712" lon="11.252547465163211"><ele>120.5</ele><time>2026-04-28T06:12:34.008Z</time></trkpt><trkpt lat="44.3777293040306" lon="11.2524641398772"><ele>121.0</ele><time>2026-04-28T06:12:35.008Z</time></trkpt><trkpt lat="44.377953256208635" lon="11.252368398913747"><ele>118.5</ele><time>2026-04-28T06:12:36.008Z</time></trkpt><trkpt lat="44.378177827052625" lon="11.252265613838013"><ele>116.0</ele><time>2026-04-28T06:12:37.008Z</time></trkpt><trkpt lat="44.378412268347006" lon="11.252153154341604"><ele>116.0</ele><time>2026-04-28T06:12:38.008Z</time></trkpt><trkpt lat="44.37864589297218" lon="11.252045979542414"><ele>116.0</ele><time>2026-04-28T06:12:39.008Z</time></trkpt><trkpt lat="44.378863294989124" lon="11.25194104711445"><ele>119.0</ele><time>2026-04-28T06:12:40.008Z</time></trkpt><trkpt lat="44.37906958051108" lon="11.251857954445944"><ele>122.0</ele><time>2026-04-28T06:12:41.008Z</time></trkpt><trkpt lat="44.37927336617709" lon="11.251783131051084"><ele>125.0</ele><time>2026-04-28T06:12:42.008Z</time></trkpt><trkpt lat="44.37948631339582" lon="11.25171569114971"><ele>127.5</ele><time>2026-04-28T06:12:43.008Z</time></trkpt><trkpt lat="44.37971693762217" lon="11.251667537193075"><ele>130.0</ele><time>2026-04-28T06:12:44.008Z</time></trkpt><trkpt lat="44.37993701101347" lon="11.251613266538232"><ele>130.0</ele><time>2026-04-28T06:12:45.008Z</time></trkpt><trkpt lat="44.38014923055569" lon="11.251575743928672"><ele>130.0</ele><time>2026-04-28T06:12:46.008Z</time></trkpt><trkpt lat="44.380360299003264" lon="11.251534979528257"><ele>130.0</ele><time>2026-04-28T06:12:47.008Z</time></trkpt><trkpt lat="44.38057531552307" lon="11.251493813254974"><ele>123.66666666666667</ele><time>2026-04-28T06:12:48.008Z</time></trkpt><trkpt lat="44.38078863505113" lon="11.251449870436115"><ele>117.33333333333334</ele><time>2026-04-28T06:12:49.008Z</time></trkpt><trkpt lat="44.38100399443177" lon="11.251401179243562"><ele>111.0</ele><time>2026-04-28T06:12:50.008Z</time></trkpt><trkpt lat="44.38122124877052" lon="11.251350754438528"><ele>112.0</ele><time>2026-04-28T06:12:51.008Z</time></trkpt><trkpt lat="44.38143922648903" lon="11.251281863388341"><ele>113.0</ele><time>2026-04-28T06:12:52.008Z</time></trkpt><trkpt lat="44.381663329455876" lon="11.25118872013843"><ele>113.0</ele><time>2026-04-28T06:12:53.008Z</time></trkpt><trkpt lat="44.38187311666484" lon="11.251075300206534"><ele>113.0</ele><time>2026-04-28T06:12:54.008Z</time></trkpt><trkpt lat="44.382085687238956" lon="11.250960737700144"><ele>112.66666666666666</ele><time>2026-04-28T06:12:55.008Z</time></trkpt><trkpt lat="44.382280827802" lon="11.250833913647108"><ele>112.33333333333334</ele><time>2026-04-28T06:12:56.008Z</time></trkpt><trkpt lat="44.38245817115207" lon="11.250702094862454"><ele>112.0</ele><time>2026-04-28T06:12:57.008Z</time></trkpt><trkpt lat="44.38262215611129" lon="11.250570681590423"><ele>112.0</ele><time>2026-04-28T06:12:58.008Z</time></trkpt><trkpt lat="44.38278994456449" lon="11.250431008184078"><ele>112.0</ele><time>2026-04-28T06:12:59.008Z</time></trkpt><trkpt lat="44.382965768758" lon="11.2502979650313"><ele>112.0</ele><time>2026-04-28T06:13:00.008Z</time></trkpt><trkpt lat="44.38313813051172" lon="11.250169259464643"><ele>113.0</ele><time>2026-04-28T06:13:01.008Z</time></trkpt><trkpt lat="44.383313317512716" lon="11.250039350113688"><ele>114.0</ele><time>2026-04-28T06:13:02.008Z</time></trkpt><trkpt lat="44.383482011138405" lon="11.24990643489454"><ele>115.0</ele><time>2026-04-28T06:13:03.008Z</time></trkpt><trkpt lat="44.38364682677348" lon="11.249773629828015"><ele>115.0</ele><time>2026-04-28T06:13:04.008Z</time></trkpt><trkpt lat="44.38380548458038" lon="11.249647145068707"><ele>115.0</ele><time>2026-04-28T06:13:05.008Z</time></trkpt><trkpt lat="44.38396396718029" lon="11.249521845961453"><ele>115.0</ele><time>2026-04-28T06:13:06.008Z</time></trkpt><trkpt lat="44.38411864753987" lon="11.249397586619558"><ele>116.66666666666667</ele><time>2026-04-28T06:13:07.008Z</time></trkpt><trkpt lat="44.38427595176553" lon="11.249279417617856"><ele>118.33333333333334</ele><time>2026-04-28T06:13:08.008Z</time></trkpt><trkpt lat="44.38443752982058" lon="11.249158099341258"><ele>120.0</ele><time>2026-04-28T06:13:09.008Z</time></trkpt><trkpt lat="44.384590829204164" lon="11.249037759778759"><ele>117.33333333333334</ele><time>2026-04-28T06:13:10.008Z</time></trkpt><trkpt lat="44.38474542477377" lon="11.248923655029076"><ele>114.66666666666667</ele><time>2026-04-28T06:13:11.008Z</time></trkpt><trkpt lat="44.3848989306523" lon="11.24881214333232"><ele>112.0</ele><time>2026-04-28T06:13:12.008Z</time></trkpt><trkpt lat="44.38505927947974" lon="11.248723242709666"><ele>112.0</ele><time>2026-04-28T06:13:13.008Z</time></trkpt><trkpt lat="44.38522355581552" lon="11.248644845928714"><ele>112.0</ele><time>2026-04-28T06:13:14.008Z</time></trkpt><trkpt lat="44.38538522663088" lon="11.248581055276125"><ele>112.0</ele><time>2026-04-28T06:13:15.008Z</time></trkpt><trkpt lat="44.38554977297386" lon="11.24852691637934"><ele>115.33333333333334</ele><time>2026-04-28T06:13:16.008Z</time></trkpt><trkpt lat="44.38571286344225" lon="11.248482275542294"><ele>118.66666666666666</ele><time>2026-04-28T06:13:17.008Z</time></trkpt><trkpt lat="44.385874461025125" lon="11.248454061131099"><ele>122.0</ele><time>2026-04-28T06:13:18.008Z</time></trkpt><trkpt lat="44.386042407247075" lon="11.248435989526008"><ele>122.0</ele><time>2026-04-28T06:13:19.008Z</time></trkpt><trkpt lat="44.38621265931383" lon="11.248424370030602"><ele>122.0</ele><time>2026-04-28T06:13:20.008Z</time></trkpt><trkpt lat="44.38638295736673" lon="11.248425722815757"><ele>122.0</ele><time>2026-04-28T06:13:21.008Z</time></trkpt><trkpt lat="44.38655409053561" lon="11.24843947985505"><ele>122.66666666666666</ele><time>2026-04-28T06:13:22.008Z</time></trkpt><trkpt lat="44.38671694233437" lon="11.248466437086885"><ele>123.33333333333334</ele><time>2026-04-28T06:13:23.008Z</time></trkpt><trkpt lat="44.38687808749087" lon="11.248506223314012"><ele>124.0</ele><time>2026-04-28T06:13:24.008Z</time></trkpt><trkpt lat="44.38703904665016" lon="11.248557994102788"><ele>123.33333333333334</ele><time>2026-04-28T06:13:25.008Z</time></trkpt><trkpt lat="44.387197873989386" lon="11.248614232709032"><ele>122.66666666666666</ele><time>2026-04-28T06:13:26.008Z</time></trkpt><trkpt lat="44.387351670842854" lon="11.248693729178497"><ele>122.0</ele><time>2026-04-28T06:13:27.008Z</time></trkpt><trkpt lat="44.38750529068354" lon="11.24877654774561"><ele>122.0</ele><time>2026-04-28T06:13:28.008Z</time></trkpt><trkpt lat="44.38764849454299" lon="11.248869459246377"><ele>122.0</ele><time>2026-04-28T06:13:29.008Z</time></trkpt><trkpt lat="44.38778333840657" lon="11.248964485281896"><ele>122.0</ele><time>2026-04-28T06:13:30.008Z</time></trkpt><trkpt lat="44.38791058484321" lon="11.249071335386668"><ele>121.75</ele><time>2026-04-28T06:13:31.008Z</time></trkpt><trkpt lat="44.388025450471545" lon="11.2491704154357"><ele>121.5</ele><time>2026-04-28T06:13:32.008Z</time></trkpt><trkpt lat="44.38811941083389" lon="11.249292427016577"><ele>121.25</ele><time>2026-04-28T06:13:33.008Z</time></trkpt><trkpt lat="44.388220692919454" lon="11.249393376121573"><ele>121.0</ele><time>2026-04-28T06:13:34.008Z</time></trkpt><trkpt lat="44.38831412098664" lon="11.249497328793993"><ele>121.0</ele><time>2026-04-28T06:13:35.008Z</time></trkpt><trkpt lat="44.38840087288757" lon="11.249603887989771"><ele>121.0</ele><time>2026-04-28T06:13:36.008Z</time></trkpt><trkpt lat="44.38847999387228" lon="11.249703775328435"><ele>121.0</ele><time>2026-04-28T06:13:37.008Z</time></trkpt><trkpt lat="44.38854230348099" lon="11.249809204830614"><ele>121.0</ele><time>2026-04-28T06:13:38.008Z</time></trkpt><trkpt lat="44.38860697721616" lon="11.249895379702082"><ele>121.0</ele><time>2026-04-28T06:13:39.008Z</time></trkpt><trkpt lat="44.38866982756664" lon="11.249977979785077"><ele>121.0</ele><time>2026-04-28T06:13:40.008Z</time></trkpt><trkpt lat="44.38872842062542" lon="11.250049234064264"><ele>121.0</ele><time>2026-04-28T06:13:41.008Z</time></trkpt><trkpt lat="44.38878143560968" lon="11.250113187020965"><ele>121.0</ele><time>2026-04-28T06:13:42.008Z</time></trkpt><trkpt lat="44.388870815505534" lon="11.250199650925694"><ele>121.0</ele><time>2026-04-28T06:13:44.008Z</time></trkpt><trkpt lat="44.38895235729606" lon="11.25026542226989"><ele>121.0</ele><time>2026-04-28T06:13:46.008Z</time></trkpt><trkpt lat="44.38902301808977" lon="11.250422111751538"><ele>121.0</ele><time>2026-04-28T06:13:48.008Z</time></trkpt><trkpt lat="44.389062595461844" lon="11.250505841582514"><ele>120.99999999999999</ele><time>2026-04-28T06:13:49.009Z</time></trkpt><trkpt lat="44.38911783548694" lon="11.250570631360322"><ele>121.0</ele><time>2026-04-28T06:13:50.009Z</time></trkpt><trkpt lat="44.38918616204763" lon="11.250613128310555"><ele>121.0</ele><time>2026-04-28T06:13:51.009Z</time></trkpt><trkpt lat="44.38926228097656" lon="11.250604739983144"><ele>120.99999999999999</ele><time>2026-04-28T06:13:52.009Z</time></trkpt><trkpt lat="44.389330818924485" lon="11.250560284331806"><ele>121.0</ele><time>2026-04-28T06:13:53.009Z</time></trkpt><trkpt lat="44.38937702890885" lon="11.250488946816109"><ele>121.0</ele><time>2026-04-28T06:13:54.009Z</time></trkpt><trkpt lat="44.38939593928425" lon="11.250403654697864"><ele>121.0</ele><time>2026-04-28T06:13:55.009Z</time></trkpt><trkpt lat="44.3893885880188" lon="11.25024468209912"><ele>121.0</ele><time>2026-04-28T06:13:57.009Z</time></trkpt><trkpt lat="44.38936252719492" lon="11.250160862892761"><ele>121.0</ele><time>2026-04-28T06:13:58.009Z</time></trkpt><trkpt lat="44.389307845774546" lon="11.250011457113967"><ele>121.0</ele><time>2026-04-28T06:14:00.009Z</time></trkpt><trkpt lat="44.38931295067499" lon="11.24980876960696"><ele>121.0</ele><time>2026-04-28T06:14:02.009Z</time></trkpt><trkpt lat="44.38930717373257" lon="11.249653445883103"><ele>120.75</ele><time>2026-04-28T06:14:03.009Z</time></trkpt><trkpt lat="44.38929067471238" lon="11.249474861992503"><ele>120.5</ele><time>2026-04-28T06:14:04.009Z</time></trkpt><trkpt lat="44.389251234938115" lon="11.249270821472265"><ele>120.25</ele><time>2026-04-28T06:14:05.009Z</time></trkpt><trkpt lat="44.38919148832503" lon="11.249078144041594"><ele>120.0</ele><time>2026-04-28T06:14:06.009Z</time></trkpt><trkpt lat="44.38912718373549" lon="11.248919010116303"><ele>118.4</ele><time>2026-04-28T06:14:07.009Z</time></trkpt><trkpt lat="44.38905204050094" lon="11.248784868769334"><ele>116.8</ele><time>2026-04-28T06:14:08.009Z</time></trkpt><trkpt lat="44.38898795686453" lon="11.248651575758814"><ele>115.19999999999999</ele><time>2026-04-28T06:14:09.009Z</time></trkpt><trkpt lat="44.38893109677742" lon="11.248523511819702"><ele>113.6</ele><time>2026-04-28T06:14:10.009Z</time></trkpt><trkpt lat="44.38888308164947" lon="11.24840563236617"><ele>112.0</ele><time>2026-04-28T06:14:11.009Z</time></trkpt><trkpt lat="44.38884300548898" lon="11.248307895794909"><ele>113.50000000000001</ele><time>2026-04-28T06:14:12.009Z</time></trkpt><trkpt lat="44.38880290390385" lon="11.248219568181808"><ele>115.0</ele><time>2026-04-28T06:14:13.009Z</time></trkpt><trkpt lat="44.38876559340863" lon="11.248141126236485"><ele>116.5</ele><time>2026-04-28T06:14:14.009Z</time></trkpt><trkpt lat="44.38872866971465" lon="11.24806317442945"><ele>118.0</ele><time>2026-04-28T06:14:15.009Z</time></trkpt><trkpt lat="44.388661947011826" lon="11.247928114014691"><ele>119.50000000000001</ele><time>2026-04-28T06:14:17.009Z</time></trkpt><trkpt lat="44.38859353134187" lon="11.247812862093422"><ele>121.0</ele><time>2026-04-28T06:14:19.009Z</time></trkpt><trkpt lat="44.38851740943166" lon="11.247697767868003"><ele>121.0</ele><time>2026-04-28T06:14:21.009Z</time></trkpt><trkpt lat="44.38845094281945" lon="11.247597202903533"><ele>121.0</ele><time>2026-04-28T06:14:23.009Z</time></trkpt><trkpt lat="44.388491076786686" lon="11.247469880864854"><ele>121.0</ele><time>2026-04-28T06:14:24.009Z</time></trkpt><trkpt lat="44.38848613182861" lon="11.24731668311436"><ele>121.0</ele><time>2026-04-28T06:14:26.009Z</time></trkpt><trkpt lat="44.388472496830246" lon="11.247208354558417"><ele>121.0</ele><time>2026-04-28T06:14:28.009Z</time></trkpt><trkpt lat="44.38859746192691" lon="11.247127552578704"><ele>118.75</ele><time>2026-04-28T06:14:30.009Z</time></trkpt><trkpt lat="44.38868830169891" lon="11.247069390616135"><ele>116.5</ele><time>2026-04-28T06:14:31.009Z</time></trkpt><trkpt lat="44.388791708407595" lon="11.247001882885558"><ele>114.25</ele><time>2026-04-28T06:14:32.009Z</time></trkpt><trkpt lat="44.38892522916541" lon="11.246952350414245"><ele>112.0</ele><time>2026-04-28T06:14:33.009Z</time></trkpt><trkpt lat="44.38907779535381" lon="11.24686431580708"><ele>108.33333333333334</ele><time>2026-04-28T06:14:34.009Z</time></trkpt><trkpt lat="44.38925000035734" lon="11.246793724116367"><ele>104.66666666666666</ele><time>2026-04-28T06:14:35.01Z</time></trkpt><trkpt lat="44.38942576604624" lon="11.246718080540955"><ele>101.0</ele><time>2026-04-28T06:14:36.01Z</time></trkpt><trkpt lat="44.389625028472025" lon="11.246632497810344"><ele>99.66666666666666</ele><time>2026-04-28T06:14:37.01Z</time></trkpt><trkpt lat="44.38982965037027" lon="11.246540244221636"><ele>98.33333333333334</ele><time>2026-04-28T06:14:38.01Z</time></trkpt><trkpt lat="44.39001045298354" lon="11.246452634787287"><ele>97.0</ele><time>2026-04-28T06:14:39.01Z</time></trkpt><trkpt lat="44.390170390075944" lon="11.246377907928684"><ele>100.5</ele><time>2026-04-28T06:14:40.01Z</time></trkpt><trkpt lat="44.3903155036586" lon="11.246317808441148"><ele>104.0</ele><time>2026-04-28T06:14:41.01Z</time></trkpt><trkpt lat="44.39044325665557" lon="11.246267089097769"><ele>107.5</ele><time>2026-04-28T06:14:42.01Z</time></trkpt><trkpt lat="44.39055117218225" lon="11.24621818411647"><ele>111.0</ele><time>2026-04-28T06:14:43.01Z</time></trkpt><trkpt lat="44.39064382148048" lon="11.246176033886112"><ele>114.4</ele><time>2026-04-28T06:14:44.01Z</time></trkpt><trkpt lat="44.39075893192812" lon="11.246256241721412"><ele>117.8</ele><time>2026-04-28T06:14:45.01Z</time></trkpt><trkpt lat="44.39085994916515" lon="11.24625925304732"><ele>121.20000000000002</ele><time>2026-04-28T06:14:46.01Z</time></trkpt><trkpt lat="44.39096819824935" lon="11.246245216055385"><ele>124.60000000000001</ele><time>2026-04-28T06:14:47.01Z</time></trkpt><trkpt lat="44.39106315518683" lon="11.246201133779536"><ele>128.0</ele><time>2026-04-28T06:14:48.01Z</time></trkpt><trkpt lat="44.391171169336445" lon="11.246137271187646"><ele>128.0</ele><time>2026-04-28T06:14:49.01Z</time></trkpt><trkpt lat="44.39128565792951" lon="11.246086991874556"><ele>128.0</ele><time>2026-04-28T06:14:50.01Z</time></trkpt><trkpt lat="44.39140781857498" lon="11.246070283751568"><ele>128.0</ele><time>2026-04-28T06:14:51.01Z</time></trkpt><trkpt lat="44.391525784230474" lon="11.246076248610938"><ele>128.0</ele><time>2026-04-28T06:14:52.01Z</time></trkpt><trkpt lat="44.3916494727764" lon="11.246103246720605"><ele>128.75</ele><time>2026-04-28T06:14:53.01Z</time></trkpt><trkpt lat="44.391772443902354" lon="11.246157666802779"><ele>129.5</ele><time>2026-04-28T06:14:54.01Z</time></trkpt><trkpt lat="44.39189308867381" lon="11.24621949587073"><ele>130.25</ele><time>2026-04-28T06:14:55.01Z</time></trkpt><trkpt lat="44.391999739789426" lon="11.246275993301667"><ele>131.0</ele><time>2026-04-28T06:14:56.01Z</time></trkpt><trkpt lat="44.39209369119363" lon="11.246318063794432"><ele>131.0</ele><time>2026-04-28T06:14:57.01Z</time></trkpt><trkpt lat="44.3921819766449" lon="11.246360905225313"><ele>131.0</ele><time>2026-04-28T06:14:58.01Z</time></trkpt><trkpt lat="44.39227134188793" lon="11.246399673334356"><ele>131.0</ele><time>2026-04-28T06:14:59.01Z</time></trkpt><trkpt lat="44.392351921254935" lon="11.246426140575446"><ele>131.0</ele><time>2026-04-28T06:15:00.01Z</time></trkpt><trkpt lat="44.39242912589187" lon="11.246462740965573"><ele>131.0</ele><time>2026-04-28T06:15:01.01Z</time></trkpt><trkpt lat="44.3925043198045" lon="11.246486064654585"><ele>131.0</ele><time>2026-04-28T06:15:02.01Z</time></trkpt><trkpt lat="44.39257811574494" lon="11.246516065672054"><ele>130.5</ele><time>2026-04-28T06:15:03.01Z</time></trkpt><trkpt lat="44.39264088236964" lon="11.246537285689636"><ele>130.0</ele><time>2026-04-28T06:15:04.01Z</time></trkpt><trkpt lat="44.392701227679595" lon="11.246568959333574"><ele>129.5</ele><time>2026-04-28T06:15:05.01Z</time></trkpt><trkpt lat="44.392762166778894" lon="11.246595097984924"><ele>129.0</ele><time>2026-04-28T06:15:07.01Z</time></trkpt><trkpt lat="44.39282366935328" lon="11.246636867221065"><ele>128.5</ele><time>2026-04-28T06:15:46.01Z</time></trkpt><trkpt lat="44.392897028192166" lon="11.246670756540537"><ele>128.0</ele><time>2026-04-28T06:15:48.01Z</time></trkpt><trkpt lat="44.39302708481428" lon="11.24670667476224"><ele>127.60000000000001</ele><time>2026-04-28T06:15:50.01Z</time></trkpt><trkpt lat="44.393108859820565" lon="11.24674564875303"><ele>127.20000000000002</ele><time>2026-04-28T06:15:51.01Z</time></trkpt><trkpt lat="44.393195226585874" lon="11.246809544896424"><ele>126.8</ele><time>2026-04-28T06:15:52.01Z</time></trkpt><trkpt lat="44.39328910073328" lon="11.246853194537392"><ele>126.4</ele><time>2026-04-28T06:15:53.01Z</time></trkpt><trkpt lat="44.393391648138" lon="11.246900877084888"><ele>126.0</ele><time>2026-04-28T06:15:54.01Z</time></trkpt><trkpt lat="44.39349380929517" lon="11.246948380024136"><ele>126.0</ele><time>2026-04-28T06:15:55.01Z</time></trkpt><trkpt lat="44.39360041088887" lon="11.24699794770807"><ele>126.0</ele><time>2026-04-28T06:15:56.01Z</time></trkpt><trkpt lat="44.39370027311387" lon="11.24704438135151"><ele>126.0</ele><time>2026-04-28T06:15:57.01Z</time></trkpt><trkpt lat="44.3937877751448" lon="11.247085173576096"><ele>126.0</ele><time>2026-04-28T06:15:58.01Z</time></trkpt><trkpt lat="44.3938773417048" lon="11.2471268320665"><ele>126.0</ele><time>2026-04-28T06:15:59.01Z</time></trkpt><trkpt lat="44.3939529363261" lon="11.247162007233058"><ele>125.83333333333333</ele><time>2026-04-28T06:16:00.01Z</time></trkpt><trkpt lat="44.3940195432532" lon="11.24719300031378"><ele>125.66666666666666</ele><time>2026-04-28T06:16:01.011Z</time></trkpt><trkpt lat="44.39412799097493" lon="11.247243210171394"><ele>125.5</ele><time>2026-04-28T06:16:03.011Z</time></trkpt><trkpt lat="44.39419452604913" lon="11.24727355071141"><ele>125.33333333333333</ele><time>2026-04-28T06:16:04.01Z</time></trkpt><trkpt lat="44.394259538383665" lon="11.247303196883518"><ele>125.16666666666666</ele><time>2026-04-28T06:16:05.01Z</time></trkpt><trkpt lat="44.39434208223643" lon="11.247344390103786"><ele>125.0</ele><time>2026-04-28T06:16:06.01Z</time></trkpt><trkpt lat="44.394440513817614" lon="11.247403695541482"><ele>125.0</ele><time>2026-04-28T06:16:07.011Z</time></trkpt><trkpt lat="44.394541885574185" lon="11.247451335566579"><ele>125.0</ele><time>2026-04-28T06:16:08.01Z</time></trkpt><trkpt lat="44.394644200367296" lon="11.247498421443941"><ele>125.0</ele><time>2026-04-28T06:16:09.01Z</time></trkpt><trkpt lat="44.394734771896786" lon="11.247556681724731"><ele>125.0</ele><time>2026-04-28T06:16:10.01Z</time></trkpt><trkpt lat="44.394840149507445" lon="11.247602087587143"><ele>125.0</ele><time>2026-04-28T06:16:11.01Z</time></trkpt><trkpt lat="44.39495706557465" lon="11.247663718323725"><ele>125.25</ele><time>2026-04-28T06:16:12.01Z</time></trkpt><trkpt lat="44.395072499242204" lon="11.247716183536074"><ele>125.5</ele><time>2026-04-28T06:16:13.01Z</time></trkpt><trkpt lat="44.39519937826297" lon="11.247770774098646"><ele>125.75</ele><time>2026-04-28T06:16:14.01Z</time></trkpt><trkpt lat="44.395352163430836" lon="11.24783101606297"><ele>126.0</ele><time>2026-04-28T06:16:15.01Z</time></trkpt><trkpt lat="44.39548500113481" lon="11.247891440414595"><ele>126.5</ele><time>2026-04-28T06:16:16.01Z</time></trkpt><trkpt lat="44.395617024927866" lon="11.247944414739875"><ele>127.0</ele><time>2026-04-28T06:16:17.01Z</time></trkpt><trkpt lat="44.3957481361533" lon="11.247979254220288"><ele>127.5</ele><time>2026-04-28T06:16:18.01Z</time></trkpt><trkpt lat="44.39590000365851" lon="11.248004428084128"><ele>128.0</ele><time>2026-04-28T06:16:19.01Z</time></trkpt><trkpt lat="44.39604062840252" lon="11.248023975572236"><ele>128.0</ele><time>2026-04-28T06:16:20.01Z</time></trkpt><trkpt lat="44.39618031619351" lon="11.248047496555886"><ele>128.0</ele><time>2026-04-28T06:16:21.01Z</time></trkpt><trkpt lat="44.39631772746378" lon="11.248045185932781"><ele>128.0</ele><time>2026-04-28T06:16:22.01Z</time></trkpt><trkpt lat="44.3964434447327" lon="11.248043962753599"><ele>128.0</ele><time>2026-04-28T06:16:23.01Z</time></trkpt><trkpt lat="44.39655651511652" lon="11.248045231527463"><ele>128.25</ele><time>2026-04-28T06:16:24.01Z</time></trkpt><trkpt lat="44.39668354978011" lon="11.24804980910773"><ele>128.5</ele><time>2026-04-28T06:16:25.01Z</time></trkpt><trkpt lat="44.39680297593809" lon="11.248039410976514"><ele>128.75</ele><time>2026-04-28T06:16:26.01Z</time></trkpt><trkpt lat="44.396927451464144" lon="11.248044505448316"><ele>129.0</ele><time>2026-04-28T06:16:27.01Z</time></trkpt><trkpt lat="44.39705959599479" lon="11.248058251286379"><ele>129.25</ele><time>2026-04-28T06:16:28.01Z</time></trkpt><trkpt lat="44.39718539410578" lon="11.24807634569437"><ele>129.5</ele><time>2026-04-28T06:16:29.01Z</time></trkpt><trkpt lat="44.3973092634971" lon="11.24805003590229"><ele>129.75</ele><time>2026-04-28T06:16:30.01Z</time></trkpt><trkpt lat="44.39743410376998" lon="11.24806767889434"><ele>130.0</ele><time>2026-04-28T06:16:31.01Z</time></trkpt><trkpt lat="44.397547787029424" lon="11.248051651028995"><ele>130.0</ele><time>2026-04-28T06:16:32.01Z</time></trkpt><trkpt lat="44.39767726747626" lon="11.248045485721846"><ele>130.0</ele><time>2026-04-28T06:16:33.01Z</time></trkpt><trkpt lat="44.397790362286074" lon="11.248043947688233"><ele>130.0</ele><time>2026-04-28T06:16:34.01Z</time></trkpt><trkpt lat="44.39790160824415" lon="11.248046761625048"><ele>130.0</ele><time>2026-04-28T06:16:35.01Z</time></trkpt><trkpt lat="44.39800563132132" lon="11.248056104236401"><ele>130.4</ele><time>2026-04-28T06:16:36.01Z</time></trkpt><trkpt lat="44.398116212315216" lon="11.248068082453086"><ele>130.8</ele><time>2026-04-28T06:16:37.01Z</time></trkpt><trkpt lat="44.39819365191299" lon="11.248069200486208"><ele>131.2</ele><time>2026-04-28T06:16:38.01Z</time></trkpt><trkpt lat="44.39830593221819" lon="11.248081039552492"><ele>131.6</ele><time>2026-04-28T06:16:40.01Z</time></trkpt><trkpt lat="44.39839469266765" lon="11.248096722888295"><ele>132.0</ele><time>2026-04-28T06:16:42.01Z</time></trkpt><trkpt lat="44.39846690577662" lon="11.24810523390845"><ele>131.79999999999998</ele><time>2026-04-28T06:16:44.01Z</time></trkpt><trkpt lat="44.39854913642087" lon="11.248128619810537"><ele>131.6</ele><time>2026-04-28T06:17:12.01Z</time></trkpt><trkpt lat="44.39861809033009" lon="11.248128601601485"><ele>131.39999999999998</ele><time>2026-04-28T06:17:13.01Z</time></trkpt><trkpt lat="44.398708902858736" lon="11.248131761285132"><ele>131.2</ele><time>2026-04-28T06:17:14.01Z</time></trkpt><trkpt lat="44.39881419644342" lon="11.24813587982322"><ele>131.0</ele><time>2026-04-28T06:17:15.01Z</time></trkpt><trkpt lat="44.39893718241064" lon="11.248139857457756"><ele>131.0</ele><time>2026-04-28T06:17:16.01Z</time></trkpt><trkpt lat="44.399060155546245" lon="11.248136865407101"><ele>131.0</ele><time>2026-04-28T06:17:17.01Z</time></trkpt><trkpt lat="44.39919019900568" lon="11.24813752923762"><ele>131.0</ele><time>2026-04-28T06:17:18.01Z</time></trkpt><trkpt lat="44.39932211401622" lon="11.248138456164817"><ele>131.0</ele><time>2026-04-28T06:17:19.01Z</time></trkpt><trkpt lat="44.39945873810291" lon="11.248139173831715"><ele>131.0</ele><time>2026-04-28T06:17:20.01Z</time></trkpt><trkpt lat="44.39960047147272" lon="11.248136648277624"><ele>131.0</ele><time>2026-04-28T06:17:21.01Z</time></trkpt><trkpt lat="44.399749407766876" lon="11.2481372090918"><ele>131.0</ele><time>2026-04-28T06:17:22.01Z</time></trkpt><trkpt lat="44.399908725773805" lon="11.248141354986895"><ele>130.33333333333331</ele><time>2026-04-28T06:17:23.01Z</time></trkpt><trkpt lat="44.4000724786478" lon="11.24814747595272"><ele>129.66666666666666</ele><time>2026-04-28T06:17:24.01Z</time></trkpt><trkpt lat="44.40023223691845" lon="11.24815911908248"><ele>129.0</ele><time>2026-04-28T06:17:25.01Z</time></trkpt><trkpt lat="44.400402470307405" lon="11.248178319884747"><ele>128.66666666666666</ele><time>2026-04-28T06:17:26.01Z</time></trkpt><trkpt lat="44.40056670357043" lon="11.248215471162158"><ele>128.33333333333331</ele><time>2026-04-28T06:17:27.01Z</time></trkpt><trkpt lat="44.40072349407228" lon="11.248258322965832"><ele>128.0</ele><time>2026-04-28T06:17:28.01Z</time></trkpt><trkpt lat="44.40088496097845" lon="11.248312754083013"><ele>128.0</ele><time>2026-04-28T06:17:29.01Z</time></trkpt><trkpt lat="44.401050065991804" lon="11.24836804843413"><ele>128.0</ele><time>2026-04-28T06:17:30.01Z</time></trkpt><trkpt lat="44.40121169236759" lon="11.248436764748647"><ele>128.0</ele><time>2026-04-28T06:17:31.01Z</time></trkpt><trkpt lat="44.40137038366938" lon="11.24851164591606"><ele>129.33333333333331</ele><time>2026-04-28T06:17:32.01Z</time></trkpt><trkpt lat="44.40152235564659" lon="11.248599869464172"><ele>130.66666666666666</ele><time>2026-04-28T06:17:33.01Z</time></trkpt><trkpt lat="44.401667933158755" lon="11.248691263139008"><ele>132.0</ele><time>2026-04-28T06:17:34.01Z</time></trkpt><trkpt lat="44.40181618930111" lon="11.248779306099484"><ele>132.0</ele><time>2026-04-28T06:17:35.01Z</time></trkpt><trkpt lat="44.40196766842385" lon="11.248875054121703"><ele>132.0</ele><time>2026-04-28T06:17:36.01Z</time></trkpt><trkpt lat="44.40211828785757" lon="11.248972526962145"><ele>132.0</ele><time>2026-04-28T06:17:37.01Z</time></trkpt><trkpt lat="44.402270315289975" lon="11.249069607270851"><ele>130.66666666666666</ele><time>2026-04-28T06:17:38.01Z</time></trkpt><trkpt lat="44.40242070009212" lon="11.249164931035518"><ele>129.33333333333331</ele><time>2026-04-28T06:17:39.01Z</time></trkpt><trkpt lat="44.402577405398304" lon="11.249264506403753"><ele>128.0</ele><time>2026-04-28T06:17:40.01Z</time></trkpt><trkpt lat="44.4027341481984" lon="11.249367060857322"><ele>128.0</ele><time>2026-04-28T06:17:41.01Z</time></trkpt><trkpt lat="44.40289095803739" lon="11.249475225239921"><ele>128.0</ele><time>2026-04-28T06:17:42.01Z</time></trkpt><trkpt lat="44.40304529667136" lon="11.24959283756952"><ele>128.0</ele><time>2026-04-28T06:17:43.01Z</time></trkpt><trkpt lat="44.403200636865904" lon="11.249706023418838"><ele>128.0</ele><time>2026-04-28T06:17:44.01Z</time></trkpt><trkpt lat="44.403349894596445" lon="11.249822352971586"><ele>128.0</ele><time>2026-04-28T06:17:45.01Z</time></trkpt><trkpt lat="44.40350739397582" lon="11.249924097022943"><ele>128.0</ele><time>2026-04-28T06:17:46.01Z</time></trkpt><trkpt lat="44.4036631079369" lon="11.250025363522136"><ele>128.0</ele><time>2026-04-28T06:17:47.01Z</time></trkpt><trkpt lat="44.40382220772611" lon="11.250123860690827"><ele>128.0</ele><time>2026-04-28T06:17:48.01Z</time></trkpt><trkpt lat="44.403979714034" lon="11.250239409852757"><ele>128.0</ele><time>2026-04-28T06:17:49.01Z</time></trkpt><trkpt lat="44.40412746661334" lon="11.250343299164959"><ele>127.66666666666666</ele><time>2026-04-28T06:17:50.01Z</time></trkpt><trkpt lat="44.404272645317626" lon="11.250459167296325"><ele>127.33333333333334</ele><time>2026-04-28T06:17:51.01Z</time></trkpt><trkpt lat="44.404428609452296" lon="11.250547360287886"><ele>127.0</ele><time>2026-04-28T06:17:52.01Z</time></trkpt><trkpt lat="44.40458818647059" lon="11.250661599662605"><ele>127.66666666666667</ele><time>2026-04-28T06:17:53.01Z</time></trkpt><trkpt lat="44.40474172546888" lon="11.250762169001502"><ele>128.33333333333334</ele><time>2026-04-28T06:17:54.01Z</time></trkpt><trkpt lat="44.40488645244508" lon="11.25086096844276"><ele>129.0</ele><time>2026-04-28T06:17:55.01Z</time></trkpt><trkpt lat="44.40501750202619" lon="11.250946538711027"><ele>129.0</ele><time>2026-04-28T06:17:56.01Z</time></trkpt><trkpt lat="44.405115735381564" lon="11.251016453208981"><ele>129.0</ele><time>2026-04-28T06:17:57.01Z</time></trkpt><trkpt lat="44.40519830812483" lon="11.251077879048413"><ele>129.0</ele><time>2026-04-28T06:17:58.01Z</time></trkpt><trkpt lat="44.40526913237395" lon="11.251135486267343"><ele>129.0</ele><time>2026-04-28T06:17:59.01Z</time></trkpt><trkpt lat="44.405374334198356" lon="11.251227993109438"><ele>129.0</ele><time>2026-04-28T06:18:01.011Z</time></trkpt><trkpt lat="44.40548229257181" lon="11.251292322139648"><ele>129.4</ele><time>2026-04-28T06:18:03.011Z</time></trkpt><trkpt lat="44.405586846833195" lon="11.251372165610325"><ele>129.8</ele><time>2026-04-28T06:18:05.011Z</time></trkpt><trkpt lat="44.40565965663212" lon="11.251415822476037"><ele>130.2</ele><time>2026-04-28T06:18:06.011Z</time></trkpt><trkpt lat="44.40573304676905" lon="11.251457519761296"><ele>130.6</ele><time>2026-04-28T06:18:07.011Z</time></trkpt><trkpt lat="44.40583314458085" lon="11.251514653103095"><ele>131.0</ele><time>2026-04-28T06:18:08.011Z</time></trkpt><trkpt lat="44.405967923933815" lon="11.251617697557373"><ele>131.0</ele><time>2026-04-28T06:18:09.011Z</time></trkpt><trkpt lat="44.40610697051097" lon="11.251722348474296"><ele>131.0</ele><time>2026-04-28T06:18:10.011Z</time></trkpt><trkpt lat="44.40624608648161" lon="11.251836680969701"><ele>131.0</ele><time>2026-04-28T06:18:11.011Z</time></trkpt><trkpt lat="44.406405354047074" lon="11.251940583821595"><ele>129.66666666666666</ele><time>2026-04-28T06:18:12.011Z</time></trkpt><trkpt lat="44.40657273290181" lon="11.252052008158655"><ele>128.33333333333334</ele><time>2026-04-28T06:18:13.011Z</time></trkpt><trkpt lat="44.40673194477795" lon="11.252150361946045"><ele>127.0</ele><time>2026-04-28T06:18:14.011Z</time></trkpt><trkpt lat="44.40687924023849" lon="11.252265389843226"><ele>125.66666666666667</ele><time>2026-04-28T06:18:15.011Z</time></trkpt><trkpt lat="44.407036406707945" lon="11.252371821261846"><ele>124.33333333333334</ele><time>2026-04-28T06:18:16.011Z</time></trkpt><trkpt lat="44.40718488544587" lon="11.252462143051877"><ele>123.0</ele><time>2026-04-28T06:18:17.011Z</time></trkpt><trkpt lat="44.40732606242057" lon="11.252558341706964"><ele>122.66666666666666</ele><time>2026-04-28T06:18:18.011Z</time></trkpt><trkpt lat="44.40746967345473" lon="11.2526562916847"><ele>122.33333333333333</ele><time>2026-04-28T06:18:19.011Z</time></trkpt><trkpt lat="44.40761545060537" lon="11.25276294346212"><ele>122.0</ele><time>2026-04-28T06:18:20.011Z</time></trkpt><trkpt lat="44.40776594719639" lon="11.252874135546168"><ele>122.0</ele><time>2026-04-28T06:18:21.011Z</time></trkpt><trkpt lat="44.407906921731794" lon="11.253013047588556"><ele>122.0</ele><time>2026-04-28T06:18:22.011Z</time></trkpt><trkpt lat="44.408032467510644" lon="11.25318439000836"><ele>122.0</ele><time>2026-04-28T06:18:23.011Z</time></trkpt><trkpt lat="44.408147118500764" lon="11.253380214385954"><ele>120.0</ele><time>2026-04-28T06:18:24.011Z</time></trkpt><trkpt lat="44.408256385847245" lon="11.253585746097466"><ele>118.0</ele><time>2026-04-28T06:18:25.011Z</time></trkpt><trkpt lat="44.40837008161279" lon="11.253791506505621"><ele>116.0</ele><time>2026-04-28T06:18:26.011Z</time></trkpt><trkpt lat="44.40848541659416" lon="11.253995629136305"><ele>115.33333333333333</ele><time>2026-04-28T06:18:27.011Z</time></trkpt><trkpt lat="44.408607823207134" lon="11.254199039358953"><ele>114.66666666666666</ele><time>2026-04-28T06:18:28.011Z</time></trkpt><trkpt lat="44.40872681825238" lon="11.25440158497563"><ele>114.0</ele><time>2026-04-28T06:18:29.011Z</time></trkpt><trkpt lat="44.40884316954702" lon="11.254594665870846"><ele>114.0</ele><time>2026-04-28T06:18:30.011Z</time></trkpt><trkpt lat="44.40894888801273" lon="11.254780474852822"><ele>114.0</ele><time>2026-04-28T06:18:31.011Z</time></trkpt><trkpt lat="44.40904064129273" lon="11.254943654237907"><ele>114.0</ele><time>2026-04-28T06:18:32.011Z</time></trkpt><trkpt lat="44.409109760721506" lon="11.25508098290959"><ele>114.0</ele><time>2026-04-28T06:18:33.011Z</time></trkpt><trkpt lat="44.40915339281374" lon="11.255203204138818"><ele>114.0</ele><time>2026-04-28T06:18:34.011Z</time></trkpt><trkpt lat="44.40918213664679" lon="11.255322634516443"><ele>114.0</ele><time>2026-04-28T06:18:35.011Z</time></trkpt><trkpt lat="44.40921048652883" lon="11.25543623117659"><ele>114.0</ele><time>2026-04-28T06:18:36.011Z</time></trkpt><trkpt lat="44.409275738437216" lon="11.255530236138414"><ele>114.0</ele><time>2026-04-28T06:18:37.011Z</time></trkpt><trkpt lat="44.40936927971543" lon="11.25561095040098"><ele>114.0</ele><time>2026-04-28T06:18:38.011Z</time></trkpt><trkpt lat="44.409468840610174" lon="11.255719395462837"><ele>113.66666666666666</ele><time>2026-04-28T06:18:39.011Z</time></trkpt><trkpt lat="44.409557828618944" lon="11.255883043387371"><ele>113.33333333333333</ele><time>2026-04-28T06:18:40.011Z</time></trkpt><trkpt lat="44.409656187582975" lon="11.256059323990264"><ele>113.0</ele><time>2026-04-28T06:18:41.011Z</time></trkpt><trkpt lat="44.40975873845767" lon="11.256233180494739"><ele>114.0</ele><time>2026-04-28T06:18:42.011Z</time></trkpt><trkpt lat="44.40986125088555" lon="11.256410652646872"><ele>115.0</ele><time>2026-04-28T06:18:43.011Z</time></trkpt><trkpt lat="44.40996726363779" lon="11.256588393864924"><ele>116.0</ele><time>2026-04-28T06:18:44.011Z</time></trkpt><trkpt lat="44.41008389172095" lon="11.256770360301033"><ele>116.0</ele><time>2026-04-28T06:18:45.011Z</time></trkpt><trkpt lat="44.410195817122634" lon="11.256951473418177"><ele>116.0</ele><time>2026-04-28T06:18:46.011Z</time></trkpt><trkpt lat="44.410308267680094" lon="11.257126107623902"><ele>116.0</ele><time>2026-04-28T06:18:47.011Z</time></trkpt><trkpt lat="44.410428739128086" lon="11.257286655197364"><ele>118.33333333333333</ele><time>2026-04-28T06:18:48.011Z</time></trkpt><trkpt lat="44.4105614178577" lon="11.257411549360834"><ele>120.66666666666666</ele><time>2026-04-28T06:18:49.011Z</time></trkpt><trkpt lat="44.41071424799174" lon="11.25751517486846"><ele>123.0</ele><time>2026-04-28T06:18:50.011Z</time></trkpt><trkpt lat="44.4108790910665" lon="11.257591919258088"><ele>123.0</ele><time>2026-04-28T06:18:51.011Z</time></trkpt><trkpt lat="44.41105511124187" lon="11.257641913189742"><ele>123.0</ele><time>2026-04-28T06:18:52.011Z</time></trkpt><trkpt lat="44.41123857181324" lon="11.25766237132921"><ele>123.0</ele><time>2026-04-28T06:18:53.011Z</time></trkpt><trkpt lat="44.41142320693104" lon="11.25768121079614"><ele>123.33333333333334</ele><time>2026-04-28T06:18:54.011Z</time></trkpt><trkpt lat="44.411601071528594" lon="11.257706005763767"><ele>123.66666666666667</ele><time>2026-04-28T06:18:55.011Z</time></trkpt><trkpt lat="44.411770522439205" lon="11.25772432915104"><ele>124.0</ele><time>2026-04-28T06:18:56.011Z</time></trkpt><trkpt lat="44.411949821047024" lon="11.25774892120674"><ele>124.0</ele><time>2026-04-28T06:18:57.011Z</time></trkpt><trkpt lat="44.4121391779852" lon="11.257784274566982"><ele>124.0</ele><time>2026-04-28T06:18:58.011Z</time></trkpt><trkpt lat="44.41233100536351" lon="11.257806753487383"><ele>124.0</ele><time>2026-04-28T06:18:59.011Z</time></trkpt><trkpt lat="44.41252258131334" lon="11.257838706520477"><ele>124.0</ele><time>2026-04-28T06:19:00.011Z</time></trkpt><trkpt lat="44.41271373096556" lon="11.257880746910512"><ele>124.0</ele><time>2026-04-28T06:19:01.011Z</time></trkpt><trkpt lat="44.41290471711248" lon="11.25794002529337"><ele>124.0</ele><time>2026-04-28T06:19:02.011Z</time></trkpt><trkpt lat="44.41309341340615" lon="11.258006577554461"><ele>124.0</ele><time>2026-04-28T06:19:03.011Z</time></trkpt><trkpt lat="44.41328059323317" lon="11.258071665735864"><ele>124.0</ele><time>2026-04-28T06:19:04.011Z</time></trkpt><trkpt lat="44.413472556327825" lon="11.258134984577058"><ele>124.0</ele><time>2026-04-28T06:19:05.011Z</time></trkpt><trkpt lat="44.41366551224978" lon="11.258205584817942"><ele>123.66666666666667</ele><time>2026-04-28T06:19:06.011Z</time></trkpt><trkpt lat="44.41386449693797" lon="11.258278898690703"><ele>123.33333333333334</ele><time>2026-04-28T06:19:07.011Z</time></trkpt><trkpt lat="44.414061487975225" lon="11.25836278969679"><ele>123.0</ele><time>2026-04-28T06:19:08.011Z</time></trkpt><trkpt lat="44.414255916100004" lon="11.258445903437394"><ele>123.0</ele><time>2026-04-28T06:19:09.011Z</time></trkpt><trkpt lat="44.41444777163373" lon="11.25851619868357"><ele>123.0</ele><time>2026-04-28T06:19:10.011Z</time></trkpt><trkpt lat="44.414636196279524" lon="11.258591206805818"><ele>123.0</ele><time>2026-04-28T06:19:11.011Z</time></trkpt><trkpt lat="44.41482624241256" lon="11.258661034574823"><ele>122.33333333333334</ele><time>2026-04-28T06:19:12.011Z</time></trkpt><trkpt lat="44.415017158142334" lon="11.25873135131543"><ele>121.66666666666667</ele><time>2026-04-28T06:19:13.011Z</time></trkpt><trkpt lat="44.41521126490648" lon="11.258803879534033"><ele>121.0</ele><time>2026-04-28T06:19:14.011Z</time></trkpt><trkpt lat="44.41541056336421" lon="11.258870405723517"><ele>121.33333333333334</ele><time>2026-04-28T06:19:15.011Z</time></trkpt><trkpt lat="44.41560806800846" lon="11.258936625561304"><ele>121.66666666666666</ele><time>2026-04-28T06:19:16.011Z</time></trkpt><trkpt lat="44.41580433934265" lon="11.25900498962217"><ele>122.0</ele><time>2026-04-28T06:19:17.011Z</time></trkpt><trkpt lat="44.4160027354523" lon="11.259074189541634"><ele>122.0</ele><time>2026-04-28T06:19:18.011Z</time></trkpt><trkpt lat="44.41619443231722" lon="11.259141237364117"><ele>122.0</ele><time>2026-04-28T06:19:19.011Z</time></trkpt><trkpt lat="44.41638554741012" lon="11.259213372659888"><ele>122.0</ele><time>2026-04-28T06:19:20.011Z</time></trkpt><trkpt lat="44.416574336113904" lon="11.259287883093618"><ele>121.66666666666666</ele><time>2026-04-28T06:19:21.011Z</time></trkpt><trkpt lat="44.4167642609611" lon="11.259370551847615"><ele>121.33333333333334</ele><time>2026-04-28T06:19:22.011Z</time></trkpt><trkpt lat="44.41695515723001" lon="11.259458363374856"><ele>121.0</ele><time>2026-04-28T06:19:23.011Z</time></trkpt><trkpt lat="44.41714227532359" lon="11.259557395115875"><ele>122.0</ele><time>2026-04-28T06:19:24.011Z</time></trkpt><trkpt lat="44.41732921659242" lon="11.259663127473567"><ele>123.0</ele><time>2026-04-28T06:19:25.011Z</time></trkpt><trkpt lat="44.417507643049746" lon="11.259792413788293"><ele>124.0</ele><time>2026-04-28T06:19:26.011Z</time></trkpt><trkpt lat="44.41769573652322" lon="11.259907126787136"><ele>124.0</ele><time>2026-04-28T06:19:27.011Z</time></trkpt><trkpt lat="44.41788240102536" lon="11.260022285577532"><ele>124.0</ele><time>2026-04-28T06:19:28.011Z</time></trkpt><trkpt lat="44.41807258535629" lon="11.260137568520964"><ele>124.0</ele><time>2026-04-28T06:19:29.011Z</time></trkpt><trkpt lat="44.41826696213427" lon="11.260255589156248"><ele>124.33333333333334</ele><time>2026-04-28T06:19:30.011Z</time></trkpt><trkpt lat="44.4184613974049" lon="11.260372948712003"><ele>124.66666666666666</ele><time>2026-04-28T06:19:31.011Z</time></trkpt><trkpt lat="44.41865444911677" lon="11.260502850839869"><ele>125.0</ele><time>2026-04-28T06:19:32.011Z</time></trkpt><trkpt lat="44.41884554530495" lon="11.260632887102869"><ele>122.0</ele><time>2026-04-28T06:19:33.011Z</time></trkpt><trkpt lat="44.419039104283186" lon="11.26075745179026"><ele>119.0</ele><time>2026-04-28T06:19:34.011Z</time></trkpt><trkpt lat="44.419229311581354" lon="11.260882352743977"><ele>116.0</ele><time>2026-04-28T06:19:35.011Z</time></trkpt><trkpt lat="44.41941786757754" lon="11.261003778800609"><ele>116.0</ele><time>2026-04-28T06:19:36.011Z</time></trkpt><trkpt lat="44.41960474855204" lon="11.261129221908702"><ele>116.0</ele><time>2026-04-28T06:19:37.011Z</time></trkpt><trkpt lat="44.41979549911628" lon="11.261256916851016"><ele>116.0</ele><time>2026-04-28T06:19:38.011Z</time></trkpt><trkpt lat="44.41998530517026" lon="11.26138316858349"><ele>116.0</ele><time>2026-04-28T06:19:39.011Z</time></trkpt><trkpt lat="44.42017723489769" lon="11.261508475927819"><ele>116.0</ele><time>2026-04-28T06:19:40.011Z</time></trkpt><trkpt lat="44.42037683115005" lon="11.26163580817495"><ele>116.0</ele><time>2026-04-28T06:19:41.011Z</time></trkpt><trkpt lat="44.42057609609949" lon="11.261761016231068"><ele>116.0</ele><time>2026-04-28T06:19:42.011Z</time></trkpt><trkpt lat="44.420778153063985" lon="11.26188586883669"><ele>116.0</ele><time>2026-04-28T06:19:43.011Z</time></trkpt><trkpt lat="44.420981217399415" lon="11.262011936732385"><ele>116.0</ele><time>2026-04-28T06:19:44.011Z</time></trkpt><trkpt lat="44.42118787449035" lon="11.262137244371635"><ele>117.0</ele><time>2026-04-28T06:19:45.011Z</time></trkpt><trkpt lat="44.42139752923487" lon="11.262270474069688"><ele>118.0</ele><time>2026-04-28T06:19:46.011Z</time></trkpt><trkpt lat="44.421608768540324" lon="11.26240804647479"><ele>115.0</ele><time>2026-04-28T06:19:47.011Z</time></trkpt><trkpt lat="44.421816312687014" lon="11.262544298662405"><ele>112.0</ele><time>2026-04-28T06:19:48.011Z</time></trkpt><trkpt lat="44.4220295415164" lon="11.26268131306772"><ele>111.5</ele><time>2026-04-28T06:19:49.011Z</time></trkpt><trkpt lat="44.422241397141946" lon="11.262816078295787"><ele>111.0</ele><time>2026-04-28T06:19:50.011Z</time></trkpt><trkpt lat="44.42245436681844" lon="11.262956619016272"><ele>111.0</ele><time>2026-04-28T06:19:51.011Z</time></trkpt><trkpt lat="44.42264354060914" lon="11.2631071728372"><ele>111.0</ele><time>2026-04-28T06:19:52.011Z</time></trkpt><trkpt lat="44.422816880473" lon="11.263273449348668"><ele>111.0</ele><time>2026-04-28T06:19:53.011Z</time></trkpt><trkpt lat="44.42296047034768" lon="11.263471740587212"><ele>110.0</ele><time>2026-04-28T06:19:54.011Z</time></trkpt><trkpt lat="44.42309296829699" lon="11.26365770603281"><ele>109.0</ele><time>2026-04-28T06:19:55.011Z</time></trkpt><trkpt lat="44.42324885214009" lon="11.263854868449242"><ele>108.0</ele><time>2026-04-28T06:19:56.011Z</time></trkpt><trkpt lat="44.423380511807515" lon="11.26408276454315"><ele>106.66666666666666</ele><time>2026-04-28T06:19:57.011Z</time></trkpt><trkpt lat="44.42351876529442" lon="11.264287769310972"><ele>105.33333333333333</ele><time>2026-04-28T06:19:58.011Z</time></trkpt><trkpt lat="44.42364955682709" lon="11.264485184471688"><ele>104.0</ele><time>2026-04-28T06:19:59.011Z</time></trkpt><trkpt lat="44.42377220373485" lon="11.26466985867029"><ele>102.0</ele><time>2026-04-28T06:20:00.011Z</time></trkpt><trkpt lat="44.423897794944466" lon="11.26485844365461"><ele>100.0</ele><time>2026-04-28T06:20:01.011Z</time></trkpt><trkpt lat="44.42402472697927" lon="11.265047819505421"><ele>98.0</ele><time>2026-04-28T06:20:02.011Z</time></trkpt><trkpt lat="44.42414954623144" lon="11.265234043153416"><ele>98.0</ele><time>2026-04-28T06:20:03.011Z</time></trkpt><trkpt lat="44.42428291969839" lon="11.265431337081948"><ele>98.0</ele><time>2026-04-28T06:20:04.011Z</time></trkpt><trkpt lat="44.424407550182764" lon="11.265614145332286"><ele>98.0</ele><time>2026-04-28T06:20:05.011Z</time></trkpt><trkpt lat="44.42453806780039" lon="11.265801917891995"><ele>97.33333333333333</ele><time>2026-04-28T06:20:06.011Z</time></trkpt><trkpt lat="44.42468465411243" lon="11.265980009801261"><ele>96.66666666666666</ele><time>2026-04-28T06:20:07.012Z</time></trkpt><trkpt lat="44.42482306918455" lon="11.266174728222294"><ele>96.0</ele><time>2026-04-28T06:20:08.012Z</time></trkpt><trkpt lat="44.4249695858986" lon="11.26635498760671"><ele>95.33333333333333</ele><time>2026-04-28T06:20:09.012Z</time></trkpt><trkpt lat="44.42511743602336" lon="11.26651405958597"><ele>94.66666666666666</ele><time>2026-04-28T06:20:10.011Z</time></trkpt><trkpt lat="44.42527272561864" lon="11.266672812354091"><ele>94.0</ele><time>2026-04-28T06:20:11.011Z</time></trkpt><trkpt lat="44.42542762675082" lon="11.26684033539458"><ele>95.0</ele><time>2026-04-28T06:20:12.011Z</time></trkpt><trkpt lat="44.42556681420836" lon="11.267022799073423"><ele>96.0</ele><time>2026-04-28T06:20:13.012Z</time></trkpt><trkpt lat="44.42572819439585" lon="11.267188585136468"><ele>97.0</ele><time>2026-04-28T06:20:14.011Z</time></trkpt><trkpt lat="44.425887440557574" lon="11.267358080108677"><ele>95.33333333333334</ele><time>2026-04-28T06:20:15.011Z</time></trkpt><trkpt lat="44.4260489712426" lon="11.267526278307818"><ele>93.66666666666667</ele><time>2026-04-28T06:20:16.012Z</time></trkpt><trkpt lat="44.42620484616052" lon="11.267698123076675"><ele>92.0</ele><time>2026-04-28T06:20:17.011Z</time></trkpt><trkpt lat="44.426357568089394" lon="11.2678740598219"><ele>92.0</ele><time>2026-04-28T06:20:18.011Z</time></trkpt><trkpt lat="44.42651149746058" lon="11.268050044185758"><ele>92.0</ele><time>2026-04-28T06:20:19.011Z</time></trkpt><trkpt lat="44.42666419131861" lon="11.2682052937179"><ele>92.0</ele><time>2026-04-28T06:20:20.012Z</time></trkpt><trkpt lat="44.426810619347656" lon="11.26833773881528"><ele>92.0</ele><time>2026-04-28T06:20:21.012Z</time></trkpt><trkpt lat="44.426950703726014" lon="11.26845920704218"><ele>92.0</ele><time>2026-04-28T06:20:22.012Z</time></trkpt><trkpt lat="44.42709386557255" lon="11.268578131674902"><ele>92.0</ele><time>2026-04-28T06:20:23.012Z</time></trkpt><trkpt lat="44.42723640638771" lon="11.268667176503818"><ele>92.0</ele><time>2026-04-28T06:20:24.012Z</time></trkpt><trkpt lat="44.427370601860204" lon="11.268747011162702"><ele>92.0</ele><time>2026-04-28T06:20:25.012Z</time></trkpt><trkpt lat="44.42750901251215" lon="11.26881183255293"><ele>92.0</ele><time>2026-04-28T06:20:26.012Z</time></trkpt><trkpt lat="44.42766156000313" lon="11.268876644084813"><ele>92.0</ele><time>2026-04-28T06:20:27.012Z</time></trkpt><trkpt lat="44.427835235483144" lon="11.268935188050143"><ele>92.0</ele><time>2026-04-28T06:20:28.012Z</time></trkpt><trkpt lat="44.428004306387585" lon="11.268996111995065"><ele>92.0</ele><time>2026-04-28T06:20:29.012Z</time></trkpt><trkpt lat="44.4281789027044" lon="11.269052146985684"><ele>90.0</ele><time>2026-04-28T06:20:30.012Z</time></trkpt><trkpt lat="44.42835562251108" lon="11.269094122561697"><ele>88.0</ele><time>2026-04-28T06:20:31.012Z</time></trkpt><trkpt lat="44.428540520344875" lon="11.269133050581116"><ele>86.0</ele><time>2026-04-28T06:20:32.012Z</time></trkpt><trkpt lat="44.428731302814725" lon="11.26917069700885"><ele>85.33333333333334</ele><time>2026-04-28T06:20:33.012Z</time></trkpt><trkpt lat="44.42892325329771" lon="11.269209127438533"><ele>84.66666666666667</ele><time>2026-04-28T06:20:34.012Z</time></trkpt><trkpt lat="44.42912510619377" lon="11.269244537588591"><ele>84.0</ele><time>2026-04-28T06:20:35.012Z</time></trkpt><trkpt lat="44.429328793452676" lon="11.269286690764316"><ele>84.0</ele><time>2026-04-28T06:20:36.012Z</time></trkpt><trkpt lat="44.42953271058025" lon="11.269337190922899"><ele>84.0</ele><time>2026-04-28T06:20:37.012Z</time></trkpt><trkpt lat="44.42973521330175" lon="11.269391676745295"><ele>84.0</ele><time>2026-04-28T06:20:38.012Z</time></trkpt><trkpt lat="44.429931382284366" lon="11.269443222617937"><ele>83.66666666666667</ele><time>2026-04-28T06:20:39.012Z</time></trkpt><trkpt lat="44.43012030955375" lon="11.26947267637097"><ele>83.33333333333334</ele><time>2026-04-28T06:20:40.012Z</time></trkpt><trkpt lat="44.430318635240745" lon="11.26951125674964"><ele>83.0</ele><time>2026-04-28T06:20:41.012Z</time></trkpt><trkpt lat="44.43051808772833" lon="11.269554160403642"><ele>83.66666666666667</ele><time>2026-04-28T06:20:42.012Z</time></trkpt><trkpt lat="44.4307156181832" lon="11.269592727229202"><ele>84.33333333333333</ele><time>2026-04-28T06:20:43.012Z</time></trkpt><trkpt lat="44.43091684404887" lon="11.269633725565566"><ele>85.0</ele><time>2026-04-28T06:20:44.012Z</time></trkpt><trkpt lat="44.43112066183457" lon="11.269672577406782"><ele>85.33333333333333</ele><time>2026-04-28T06:20:45.012Z</time></trkpt><trkpt lat="44.43133010355959" lon="11.269713088077197"><ele>85.66666666666667</ele><time>2026-04-28T06:20:46.012Z</time></trkpt><trkpt lat="44.43153637645749" lon="11.269755501866136"><ele>86.0</ele><time>2026-04-28T06:20:47.012Z</time></trkpt><trkpt lat="44.43173206162965" lon="11.269803754799675"><ele>84.66666666666667</ele><time>2026-04-28T06:20:48.012Z</time></trkpt><trkpt lat="44.43192477973883" lon="11.269852956524542"><ele>83.33333333333333</ele><time>2026-04-28T06:20:49.012Z</time></trkpt><trkpt lat="44.43210828864639" lon="11.26992182218378"><ele>82.0</ele><time>2026-04-28T06:20:50.012Z</time></trkpt><trkpt lat="44.43227713185302" lon="11.269996687063573"><ele>82.0</ele><time>2026-04-28T06:20:51.012Z</time></trkpt><trkpt lat="44.43244144026295" lon="11.27008008395561"><ele>82.0</ele><time>2026-04-28T06:20:52.012Z</time></trkpt><trkpt lat="44.432604550300745" lon="11.270193617994547"><ele>82.0</ele><time>2026-04-28T06:20:53.012Z</time></trkpt><trkpt lat="44.4327708720009" lon="11.27032350857375"><ele>82.0</ele><time>2026-04-28T06:20:54.012Z</time></trkpt><trkpt lat="44.43294823298183" lon="11.270469873387942"><ele>82.0</ele><time>2026-04-28T06:20:55.012Z</time></trkpt><trkpt lat="44.43313147505488" lon="11.270621758146888"><ele>82.0</ele><time>2026-04-28T06:20:56.012Z</time></trkpt><trkpt lat="44.43330949529333" lon="11.270774121841079"><ele>81.33333333333333</ele><time>2026-04-28T06:20:57.012Z</time></trkpt><trkpt lat="44.433488915638215" lon="11.270913321244956"><ele>80.66666666666667</ele><time>2026-04-28T06:20:58.012Z</time></trkpt><trkpt lat="44.43365543471212" lon="11.271040099317688"><ele>80.0</ele><time>2026-04-28T06:20:59.012Z</time></trkpt><trkpt lat="44.43382095130082" lon="11.27115433669886"><ele>83.33333333333334</ele><time>2026-04-28T06:21:00.012Z</time></trkpt><trkpt lat="44.433990841878966" lon="11.271254656862462"><ele>86.66666666666667</ele><time>2026-04-28T06:21:01.012Z</time></trkpt><trkpt lat="44.43415629201682" lon="11.27134066316357"><ele>90.0</ele><time>2026-04-28T06:21:02.012Z</time></trkpt><trkpt lat="44.43432740624086" lon="11.271417335383585"><ele>87.66666666666667</ele><time>2026-04-28T06:21:03.012Z</time></trkpt><trkpt lat="44.434493737066575" lon="11.271487277470683"><ele>85.33333333333334</ele><time>2026-04-28T06:21:04.012Z</time></trkpt><trkpt lat="44.43467086665271" lon="11.271562380380193"><ele>83.0</ele><time>2026-04-28T06:21:05.012Z</time></trkpt><trkpt lat="44.43484904958576" lon="11.271639526830874"><ele>83.0</ele><time>2026-04-28T06:21:06.012Z</time></trkpt><trkpt lat="44.435037845322896" lon="11.271717966014174"><ele>83.0</ele><time>2026-04-28T06:21:07.012Z</time></trkpt><trkpt lat="44.43523199210111" lon="11.271794587906085"><ele>83.0</ele><time>2026-04-28T06:21:08.012Z</time></trkpt><trkpt lat="44.435428644290056" lon="11.27187183197162"><ele>83.66666666666667</ele><time>2026-04-28T06:21:09.012Z</time></trkpt><trkpt lat="44.43562657694203" lon="11.27195215133165"><ele>84.33333333333333</ele><time>2026-04-28T06:21:10.012Z</time></trkpt><trkpt lat="44.43581136344145" lon="11.272030671063147"><ele>85.0</ele><time>2026-04-28T06:21:11.012Z</time></trkpt><trkpt lat="44.43599535243959" lon="11.272108059053124"><ele>85.0</ele><time>2026-04-28T06:21:12.012Z</time></trkpt><trkpt lat="44.43618672117197" lon="11.272152968594638"><ele>85.0</ele><time>2026-04-28T06:21:13.012Z</time></trkpt><trkpt lat="44.43637903624469" lon="11.272179000012743"><ele>85.0</ele><time>2026-04-28T06:21:14.012Z</time></trkpt><trkpt lat="44.436582223317494" lon="11.272177672430173"><ele>84.66666666666666</ele><time>2026-04-28T06:21:15.012Z</time></trkpt><trkpt lat="44.436787221061664" lon="11.272160001279838"><ele>84.33333333333333</ele><time>2026-04-28T06:21:16.012Z</time></trkpt><trkpt lat="44.43698962254016" lon="11.272127720304653"><ele>84.0</ele><time>2026-04-28T06:21:17.012Z</time></trkpt><trkpt lat="44.43719384848118" lon="11.27210398679041"><ele>83.33333333333333</ele><time>2026-04-28T06:21:18.012Z</time></trkpt><trkpt lat="44.43739675462659" lon="11.2720730905682"><ele>82.66666666666666</ele><time>2026-04-28T06:21:19.012Z</time></trkpt><trkpt lat="44.43758714838799" lon="11.272039707121165"><ele>82.0</ele><time>2026-04-28T06:21:20.012Z</time></trkpt><trkpt lat="44.43777784565591" lon="11.272013305430601"><ele>82.0</ele><time>2026-04-28T06:21:21.012Z</time></trkpt><trkpt lat="44.43796609709875" lon="11.271989234238024"><ele>82.0</ele><time>2026-04-28T06:21:22.012Z</time></trkpt><trkpt lat="44.43813373638309" lon="11.271965713686638"><ele>82.0</ele><time>2026-04-28T06:21:23.012Z</time></trkpt><trkpt lat="44.43829658684298" lon="11.27194017004811"><ele>81.0</ele><time>2026-04-28T06:21:24.012Z</time></trkpt><trkpt lat="44.438451911346355" lon="11.271924985165603"><ele>80.0</ele><time>2026-04-28T06:21:25.012Z</time></trkpt><trkpt lat="44.43860861281479" lon="11.27191293111838"><ele>79.0</ele><time>2026-04-28T06:21:26.012Z</time></trkpt><trkpt lat="44.4387678281076" lon="11.271889736422882"><ele>78.33333333333333</ele><time>2026-04-28T06:21:27.012Z</time></trkpt><trkpt lat="44.43893892739368" lon="11.271855897138806"><ele>77.66666666666667</ele><time>2026-04-28T06:21:28.012Z</time></trkpt><trkpt lat="44.43911629538041" lon="11.271816330562867"><ele>77.0</ele><time>2026-04-28T06:21:29.012Z</time></trkpt><trkpt lat="44.439300191817004" lon="11.271771138848774"><ele>77.0</ele><time>2026-04-28T06:21:30.012Z</time></trkpt><trkpt lat="44.43948394821025" lon="11.271726205518167"><ele>77.0</ele><time>2026-04-28T06:21:31.012Z</time></trkpt><trkpt lat="44.4396684888411" lon="11.271702926885599"><ele>77.0</ele><time>2026-04-28T06:21:32.012Z</time></trkpt><trkpt lat="44.43984443949233" lon="11.271668822792408"><ele>75.33333333333334</ele><time>2026-04-28T06:21:33.012Z</time></trkpt><trkpt lat="44.440012877326105" lon="11.2716388636977"><ele>73.66666666666667</ele><time>2026-04-28T06:21:34.012Z</time></trkpt><trkpt lat="44.440193035335334" lon="11.271605638171364"><ele>72.0</ele><time>2026-04-28T06:21:35.012Z</time></trkpt><trkpt lat="44.440367547475745" lon="11.271578548146673"><ele>72.33333333333333</ele><time>2026-04-28T06:21:36.012Z</time></trkpt><trkpt lat="44.44053640711957" lon="11.271563375245996"><ele>72.66666666666666</ele><time>2026-04-28T06:21:37.012Z</time></trkpt><trkpt lat="44.440705063893596" lon="11.271536984972126"><ele>73.0</ele><time>2026-04-28T06:21:38.012Z</time></trkpt><trkpt lat="44.44088345599346" lon="11.271525353466028"><ele>73.0</ele><time>2026-04-28T06:21:39.012Z</time></trkpt><trkpt lat="44.44105433364843" lon="11.27150014914077"><ele>73.0</ele><time>2026-04-28T06:21:40.012Z</time></trkpt><trkpt lat="44.44121652823248" lon="11.271460824893923"><ele>73.0</ele><time>2026-04-28T06:21:41.012Z</time></trkpt><trkpt lat="44.441366480027376" lon="11.271421884059029"><ele>75.66666666666666</ele><time>2026-04-28T06:21:42.012Z</time></trkpt><trkpt lat="44.44152183087737" lon="11.271393548648708"><ele>78.33333333333333</ele><time>2026-04-28T06:21:43.012Z</time></trkpt><trkpt lat="44.44169108247491" lon="11.271379970971289"><ele>81.0</ele><time>2026-04-28T06:21:44.012Z</time></trkpt><trkpt lat="44.44184946132496" lon="11.271363094913452"><ele>81.0</ele><time>2026-04-28T06:21:45.012Z</time></trkpt><trkpt lat="44.44200904861224" lon="11.271329561717737"><ele>81.0</ele><time>2026-04-28T06:21:46.012Z</time></trkpt><trkpt lat="44.4421775310075" lon="11.271307986732495"><ele>81.0</ele><time>2026-04-28T06:21:47.012Z</time></trkpt><trkpt lat="44.44233397598084" lon="11.271295245023245"><ele>81.5</ele><time>2026-04-28T06:21:48.012Z</time></trkpt><trkpt lat="44.442472968721894" lon="11.27128982966207"><ele>82.0</ele><time>2026-04-28T06:21:49.012Z</time></trkpt><trkpt lat="44.44260628524438" lon="11.271294856027138"><ele>82.5</ele><time>2026-04-28T06:21:50.012Z</time></trkpt><trkpt lat="44.442723946307844" lon="11.271302700573692"><ele>83.0</ele><time>2026-04-28T06:21:51.012Z</time></trkpt><trkpt lat="44.44282259925772" lon="11.271344844723638"><ele>83.0</ele><time>2026-04-28T06:21:52.012Z</time></trkpt><trkpt lat="44.44291607117944" lon="11.271367435511701"><ele>83.0</ele><time>2026-04-28T06:21:53.012Z</time></trkpt><trkpt lat="44.44300504914177" lon="11.271363975364615"><ele>83.0</ele><time>2026-04-28T06:21:54.012Z</time></trkpt><trkpt lat="44.443085703443366" lon="11.271359464066355"><ele>83.0</ele><time>2026-04-28T06:21:55.012Z</time></trkpt><trkpt lat="44.443200773219246" lon="11.271351512364916"><ele>83.0</ele><time>2026-04-28T06:21:57.012Z</time></trkpt><trkpt lat="44.44331694594405" lon="11.27135122876948"><ele>83.16666666666667</ele><time>2026-04-28T06:21:59.012Z</time></trkpt><trkpt lat="44.44339979000466" lon="11.271364693243338"><ele>83.33333333333334</ele><time>2026-04-28T06:22:00.012Z</time></trkpt><trkpt lat="44.443477191396305" lon="11.271416226761183"><ele>83.5</ele><time>2026-04-28T06:22:01.012Z</time></trkpt><trkpt lat="44.44354738741292" lon="11.271406082556812"><ele>83.66666666666667</ele><time>2026-04-28T06:22:02.012Z</time></trkpt><trkpt lat="44.443614050980756" lon="11.271423661094016"><ele>83.83333333333333</ele><time>2026-04-28T06:22:03.012Z</time></trkpt><trkpt lat="44.443680475115656" lon="11.271433749671782"><ele>84.0</ele><time>2026-04-28T06:22:04.012Z</time></trkpt><trkpt lat="44.443755502366336" lon="11.271448165672487"><ele>83.14285714285714</ele><time>2026-04-28T06:22:05.012Z</time></trkpt><trkpt lat="44.443828414545344" lon="11.271460877590156"><ele>82.28571428571428</ele><time>2026-04-28T06:22:06.012Z</time></trkpt><trkpt lat="44.443904807695894" lon="11.271470635174971"><ele>81.42857142857143</ele><time>2026-04-28T06:22:07.012Z</time></trkpt><trkpt lat="44.44397905373182" lon="11.271480132479399"><ele>80.57142857142857</ele><time>2026-04-28T06:22:08.012Z</time></trkpt><trkpt lat="44.44404897798089" lon="11.27148773370449"><ele>79.71428571428571</ele><time>2026-04-28T06:22:09.012Z</time></trkpt><trkpt lat="44.44411541172269" lon="11.271516902349664"><ele>78.85714285714286</ele><time>2026-04-28T06:22:10.012Z</time></trkpt><trkpt lat="44.444181244528195" lon="11.271527049887768"><ele>78.0</ele><time>2026-04-28T06:22:11.012Z</time></trkpt><trkpt lat="44.44424438347713" lon="11.271536648005808"><ele>78.0</ele><time>2026-04-28T06:22:12.012Z</time></trkpt><trkpt lat="44.444369536734705" lon="11.271556314773079"><ele>78.0</ele><time>2026-04-28T06:22:14.013Z</time></trkpt><trkpt lat="44.44447203155702" lon="11.271572336367475"><ele>78.0</ele><time>2026-04-28T06:22:16.013Z</time></trkpt><trkpt lat="44.44455889769463" lon="11.271585914823529"><ele>78.0</ele><time>2026-04-28T06:22:18.013Z</time></trkpt><trkpt lat="44.44463103183875" lon="11.271597190429198"><ele>78.0</ele><time>2026-04-28T06:22:21.012Z</time></trkpt><trkpt lat="44.44473174429016" lon="11.271616443088256"><ele>78.2</ele><time>2026-04-28T06:23:21.013Z</time></trkpt><trkpt lat="44.44479616977904" lon="11.271628612938406"><ele>78.4</ele><time>2026-04-28T06:23:22.013Z</time></trkpt><trkpt lat="44.44488398187525" lon="11.271646669370922"><ele>78.60000000000001</ele><time>2026-04-28T06:23:23.013Z</time></trkpt><trkpt lat="44.444983970686025" lon="11.271669154848373"><ele>78.8</ele><time>2026-04-28T06:23:24.013Z</time></trkpt><trkpt lat="44.44508993214357" lon="11.271695596842648"><ele>79.0</ele><time>2026-04-28T06:23:25.013Z</time></trkpt><trkpt lat="44.44520836091862" lon="11.271725973613483"><ele>79.0</ele><time>2026-04-28T06:23:26.013Z</time></trkpt><trkpt lat="44.44533203193545" lon="11.271759036134622"><ele>79.0</ele><time>2026-04-28T06:23:27.013Z</time></trkpt><trkpt lat="44.445462062322356" lon="11.271793613018485"><ele>79.0</ele><time>2026-04-28T06:23:28.013Z</time></trkpt><trkpt lat="44.445607634162684" lon="11.271794037711384"><ele>79.0</ele><time>2026-04-28T06:23:29.013Z</time></trkpt><trkpt lat="44.445752697378325" lon="11.271835844580142"><ele>78.66666666666666</ele><time>2026-04-28T06:23:30.013Z</time></trkpt><trkpt lat="44.44590497206794" lon="11.271875366292596"><ele>78.33333333333333</ele><time>2026-04-28T06:23:31.013Z</time></trkpt><trkpt lat="44.44605991646098" lon="11.271917349877123"><ele>78.0</ele><time>2026-04-28T06:23:32.013Z</time></trkpt><trkpt lat="44.44621141485139" lon="11.271954293018648"><ele>79.25</ele><time>2026-04-28T06:23:33.013Z</time></trkpt><trkpt lat="44.44635437673393" lon="11.271987489116187"><ele>80.5</ele><time>2026-04-28T06:23:34.013Z</time></trkpt><trkpt lat="44.44648984188274" lon="11.272035129629543"><ele>81.75</ele><time>2026-04-28T06:23:35.013Z</time></trkpt><trkpt lat="44.44662105481519" lon="11.27207343115751"><ele>83.0</ele><time>2026-04-28T06:23:36.013Z</time></trkpt><trkpt lat="44.446740239496386" lon="11.272109272268288"><ele>83.0</ele><time>2026-04-28T06:23:37.013Z</time></trkpt><trkpt lat="44.446849905232156" lon="11.272143323301936"><ele>83.0</ele><time>2026-04-28T06:23:38.013Z</time></trkpt><trkpt lat="44.44694477356037" lon="11.272188503204545"><ele>83.0</ele><time>2026-04-28T06:23:39.013Z</time></trkpt><trkpt lat="44.44702643166138" lon="11.272254234369703"><ele>83.0</ele><time>2026-04-28T06:23:40.013Z</time></trkpt><trkpt lat="44.44708403672767" lon="11.272332810532673"><ele>83.0</ele><time>2026-04-28T06:23:41.013Z</time></trkpt><trkpt lat="44.4471228479007" lon="11.272439546768915"><ele>82.5</ele><time>2026-04-28T06:23:42.013Z</time></trkpt><trkpt lat="44.447131353384485" lon="11.272575508217122"><ele>82.0</ele><time>2026-04-28T06:23:43.013Z</time></trkpt><trkpt lat="44.44714731315014" lon="11.27270212044321"><ele>81.5</ele><time>2026-04-28T06:23:44.013Z</time></trkpt><trkpt lat="44.447197916717016" lon="11.272796725796526"><ele>81.0</ele><time>2026-04-28T06:23:45.013Z</time></trkpt><trkpt lat="44.447268075060315" lon="11.272841856107002"><ele>80.5</ele><time>2026-04-28T06:23:46.013Z</time></trkpt><trkpt lat="44.447352853461666" lon="11.272841698479393"><ele>80.0</ele><time>2026-04-28T06:23:47.013Z</time></trkpt><trkpt lat="44.44744054320849" lon="11.272800261264674"><ele>80.0</ele><time>2026-04-28T06:23:48.013Z</time></trkpt><trkpt lat="44.44752237821301" lon="11.272703853400879"><ele>80.0</ele><time>2026-04-28T06:23:49.013Z</time></trkpt><trkpt lat="44.44757103614305" lon="11.272577048519896"><ele>80.0</ele><time>2026-04-28T06:23:50.013Z</time></trkpt><trkpt lat="44.44761601871116" lon="11.27246643864314"><ele>80.0</ele><time>2026-04-28T06:23:51.013Z</time></trkpt><trkpt lat="44.447689957131466" lon="11.27238641191295"><ele>80.0</ele><time>2026-04-28T06:23:52.013Z</time></trkpt><trkpt lat="44.447772889957584" lon="11.272351118020667"><ele>80.0</ele><time>2026-04-28T06:23:53.013Z</time></trkpt><trkpt lat="44.44788636381085" lon="11.272409321773122"><ele>80.0</ele><time>2026-04-28T06:23:54.013Z</time></trkpt><trkpt lat="44.44801978279351" lon="11.27241528156656"><ele>80.0</ele><time>2026-04-28T06:23:55.013Z</time></trkpt><trkpt lat="44.448172797587745" lon="11.272409696834696"><ele>80.0</ele><time>2026-04-28T06:23:56.013Z</time></trkpt><trkpt lat="44.44833346711074" lon="11.272379897637402"><ele>80.0</ele><time>2026-04-28T06:23:57.013Z</time></trkpt><trkpt lat="44.44849782393399" lon="11.272380072554277"><ele>80.0</ele><time>2026-04-28T06:23:58.013Z</time></trkpt><trkpt lat="44.44868027975851" lon="11.272346080063597"><ele>80.0</ele><time>2026-04-28T06:23:59.013Z</time></trkpt><trkpt lat="44.44886502750662" lon="11.272307819041899"><ele>81.66666666666667</ele><time>2026-04-28T06:24:00.013Z</time></trkpt><trkpt lat="44.449055687828924" lon="11.272260463845322"><ele>83.33333333333333</ele><time>2026-04-28T06:24:01.013Z</time></trkpt><trkpt lat="44.44925613323743" lon="11.272210041181356"><ele>85.0</ele><time>2026-04-28T06:24:02.013Z</time></trkpt><trkpt lat="44.449461354225484" lon="11.272159560249492"><ele>83.33333333333333</ele><time>2026-04-28T06:24:03.013Z</time></trkpt><trkpt lat="44.44967101525619" lon="11.272112535772715"><ele>81.66666666666667</ele><time>2026-04-28T06:24:04.013Z</time></trkpt><trkpt lat="44.44988071640849" lon="11.272063528950717"><ele>80.0</ele><time>2026-04-28T06:24:05.013Z</time></trkpt><trkpt lat="44.45008799060812" lon="11.272009302292176"><ele>80.0</ele><time>2026-04-28T06:24:06.013Z</time></trkpt><trkpt lat="44.45029399993976" lon="11.2719593442275"><ele>80.0</ele><time>2026-04-28T06:24:07.013Z</time></trkpt><trkpt lat="44.45050026049491" lon="11.27190639931024"><ele>80.0</ele><time>2026-04-28T06:24:08.013Z</time></trkpt><trkpt lat="44.45071582720696" lon="11.271853937760506"><ele>81.33333333333334</ele><time>2026-04-28T06:24:09.013Z</time></trkpt><trkpt lat="44.45093645949276" lon="11.27180350934774"><ele>82.66666666666667</ele><time>2026-04-28T06:24:10.013Z</time></trkpt><trkpt lat="44.45114740568365" lon="11.271751326147994"><ele>84.0</ele><time>2026-04-28T06:24:11.013Z</time></trkpt><trkpt lat="44.45134359416238" lon="11.271707959651636"><ele>85.66666666666667</ele><time>2026-04-28T06:24:12.013Z</time></trkpt><trkpt lat="44.45152688756529" lon="11.27166349958835"><ele>87.33333333333334</ele><time>2026-04-28T06:24:13.013Z</time></trkpt><trkpt lat="44.45170198361317" lon="11.271611368409722"><ele>89.0</ele><time>2026-04-28T06:24:14.013Z</time></trkpt><trkpt lat="44.45187780275727" lon="11.271565869532502"><ele>89.0</ele><time>2026-04-28T06:24:15.013Z</time></trkpt><trkpt lat="44.45204276736024" lon="11.271519765296947"><ele>89.0</ele><time>2026-04-28T06:24:16.013Z</time></trkpt><trkpt lat="44.45219974146813" lon="11.27147514315629"><ele>89.0</ele><time>2026-04-28T06:24:17.013Z</time></trkpt><trkpt lat="44.452345004093125" lon="11.271443045911736"><ele>88.6</ele><time>2026-04-28T06:24:18.013Z</time></trkpt><trkpt lat="44.45246919775597" lon="11.271407883449362"><ele>88.2</ele><time>2026-04-28T06:24:19.013Z</time></trkpt><trkpt lat="44.45258191287676" lon="11.271393663135777"><ele>87.8</ele><time>2026-04-28T06:24:20.014Z</time></trkpt><trkpt lat="44.45268314585239" lon="11.271378978997747"><ele>87.39999999999999</ele><time>2026-04-28T06:24:21.014Z</time></trkpt><trkpt lat="44.452780134448794" lon="11.271352615785267"><ele>87.0</ele><time>2026-04-28T06:24:22.013Z</time></trkpt><trkpt lat="44.452882649071576" lon="11.271324482882049"><ele>87.19999999999999</ele><time>2026-04-28T06:24:23.014Z</time></trkpt><trkpt lat="44.452984911712164" lon="11.271299227379663"><ele>87.4</ele><time>2026-04-28T06:24:24.014Z</time></trkpt><trkpt lat="44.45309139995662" lon="11.271283353021671"><ele>87.6</ele><time>2026-04-28T06:24:25.014Z</time></trkpt><trkpt lat="44.45319569995211" lon="11.271265084742328"><ele>87.80000000000001</ele><time>2026-04-28T06:24:26.013Z</time></trkpt><trkpt lat="44.45329500785514" lon="11.271244712783002"><ele>88.0</ele><time>2026-04-28T06:24:27.013Z</time></trkpt><trkpt lat="44.453385079438696" lon="11.271216288501353"><ele>88.0</ele><time>2026-04-28T06:24:28.013Z</time></trkpt><trkpt lat="44.45347283723441" lon="11.271192881832949"><ele>88.0</ele><time>2026-04-28T06:24:29.013Z</time></trkpt><trkpt lat="44.45354569294474" lon="11.271173337779441"><ele>88.0</ele><time>2026-04-28T06:24:30.013Z</time></trkpt><trkpt lat="44.45362505867498" lon="11.271155320129244"><ele>88.0</ele><time>2026-04-28T06:24:31.013Z</time></trkpt><trkpt lat="44.4536982373588" lon="11.271128375083414"><ele>88.0</ele><time>2026-04-28T06:24:32.014Z</time></trkpt><trkpt lat="44.45376682366345" lon="11.271110589384273"><ele>88.0</ele><time>2026-04-28T06:24:33.014Z</time></trkpt><trkpt lat="44.45385362789983" lon="11.271096016916614"><ele>88.16666666666666</ele><time>2026-04-28T06:24:35.014Z</time></trkpt><trkpt lat="44.453928419390266" lon="11.27108697393131"><ele>88.33333333333333</ele><time>2026-04-28T06:24:38.014Z</time></trkpt><trkpt lat="44.454020255087855" lon="11.27108338347155"><ele>88.5</ele><time>2026-04-28T06:24:53.014Z</time></trkpt><trkpt lat="44.45408696386965" lon="11.27107135783626"><ele>88.66666666666667</ele><time>2026-04-28T06:24:54.014Z</time></trkpt><trkpt lat="44.454176126319496" lon="11.271045391098308"><ele>88.83333333333334</ele><time>2026-04-28T06:24:55.014Z</time></trkpt><trkpt lat="44.45428674441662" lon="11.270994913875553"><ele>89.0</ele><time>2026-04-28T06:24:56.014Z</time></trkpt><trkpt lat="44.45440519590833" lon="11.270941237491614"><ele>89.0</ele><time>2026-04-28T06:24:57.014Z</time></trkpt><trkpt lat="44.45454268264956" lon="11.270864964673974"><ele>89.0</ele><time>2026-04-28T06:24:58.014Z</time></trkpt><trkpt lat="44.45469002913289" lon="11.270763555773822"><ele>89.0</ele><time>2026-04-28T06:24:59.014Z</time></trkpt><trkpt lat="44.454845563073505" lon="11.270637005892032"><ele>89.66666666666667</ele><time>2026-04-28T06:25:00.014Z</time></trkpt><trkpt lat="44.45501150092986" lon="11.270491618381458"><ele>90.33333333333333</ele><time>2026-04-28T06:25:01.014Z</time></trkpt><trkpt lat="44.455165129313116" lon="11.270354015411023"><ele>91.0</ele><time>2026-04-28T06:25:02.014Z</time></trkpt><trkpt lat="44.45531235550452" lon="11.270219027636289"><ele>91.33333333333333</ele><time>2026-04-28T06:25:03.014Z</time></trkpt><trkpt lat="44.45546098358347" lon="11.270093943071636"><ele>91.66666666666667</ele><time>2026-04-28T06:25:04.014Z</time></trkpt><trkpt lat="44.45561483825926" lon="11.269981016923483"><ele>92.0</ele><time>2026-04-28T06:25:05.014Z</time></trkpt><trkpt lat="44.4557628223599" lon="11.26988044116929"><ele>92.0</ele><time>2026-04-28T06:25:06.014Z</time></trkpt><trkpt lat="44.45591824849166" lon="11.269797991959138"><ele>92.0</ele><time>2026-04-28T06:25:07.014Z</time></trkpt><trkpt lat="44.456095788528884" lon="11.269737395990221"><ele>92.0</ele><time>2026-04-28T06:25:08.014Z</time></trkpt><trkpt lat="44.45627584770228" lon="11.269687296721978"><ele>91.66666666666667</ele><time>2026-04-28T06:25:09.014Z</time></trkpt><trkpt lat="44.45644338549787" lon="11.269633505459286"><ele>91.33333333333333</ele><time>2026-04-28T06:25:10.014Z</time></trkpt><trkpt lat="44.45659730069692" lon="11.269585844610999"><ele>91.0</ele><time>2026-04-28T06:25:11.014Z</time></trkpt><trkpt lat="44.45672154099654" lon="11.269536668452373"><ele>91.0</ele><time>2026-04-28T06:25:12.014Z</time></trkpt><trkpt lat="44.45681716265417" lon="11.269502548116048"><ele>91.0</ele><time>2026-04-28T06:25:13.014Z</time></trkpt><trkpt lat="44.45691041812097" lon="11.26949354643701"><ele>91.0</ele><time>2026-04-28T06:25:14.014Z</time></trkpt><trkpt lat="44.45700958751191" lon="11.269530401620477"><ele>91.0</ele><time>2026-04-28T06:25:15.014Z</time></trkpt><trkpt lat="44.457103133746074" lon="11.269543490405733"><ele>91.0</ele><time>2026-04-28T06:25:16.014Z</time></trkpt><trkpt lat="44.45719974097497" lon="11.269492693969624"><ele>90.5</ele><time>2026-04-28T06:25:17.014Z</time></trkpt><trkpt lat="44.45731104334492" lon="11.269400808798673"><ele>90.0</ele><time>2026-04-28T06:25:18.014Z</time></trkpt><trkpt lat="44.457459604978304" lon="11.269333259233933"><ele>89.5</ele><time>2026-04-28T06:25:19.014Z</time></trkpt><trkpt lat="44.45760747433594" lon="11.269288863142819"><ele>89.0</ele><time>2026-04-28T06:25:20.014Z</time></trkpt><trkpt lat="44.457782680666526" lon="11.269248725349538"><ele>88.33333333333334</ele><time>2026-04-28T06:25:21.014Z</time></trkpt><trkpt lat="44.45796535320948" lon="11.269207595960394"><ele>87.66666666666667</ele><time>2026-04-28T06:25:22.014Z</time></trkpt><trkpt lat="44.45815589364485" lon="11.26916365247343"><ele>87.0</ele><time>2026-04-28T06:25:23.014Z</time></trkpt><trkpt lat="44.45835771710456" lon="11.269128768809738"><ele>87.0</ele><time>2026-04-28T06:25:24.014Z</time></trkpt><trkpt lat="44.458570536100815" lon="11.269111523480914"><ele>87.0</ele><time>2026-04-28T06:25:25.014Z</time></trkpt><trkpt lat="44.45877541825336" lon="11.269100210126977"><ele>87.0</ele><time>2026-04-28T06:25:26.014Z</time></trkpt><trkpt lat="44.45896865130896" lon="11.269109236486349"><ele>87.33333333333333</ele><time>2026-04-28T06:25:27.014Z</time></trkpt><trkpt lat="44.459151886754654" lon="11.269134545030076"><ele>87.66666666666666</ele><time>2026-04-28T06:25:28.014Z</time></trkpt><trkpt lat="44.45933943210081" lon="11.269189381133934"><ele>88.0</ele><time>2026-04-28T06:25:29.014Z</time></trkpt><trkpt lat="44.45953443561824" lon="11.269274700645143"><ele>87.0</ele><time>2026-04-28T06:25:30.014Z</time></trkpt><trkpt lat="44.45970570228387" lon="11.26936438523006"><ele>86.0</ele><time>2026-04-28T06:25:31.014Z</time></trkpt><trkpt lat="44.45987008864339" lon="11.269445928611395"><ele>85.0</ele><time>2026-04-28T06:25:32.014Z</time></trkpt><trkpt lat="44.46001760058112" lon="11.269549817333212"><ele>85.0</ele><time>2026-04-28T06:25:33.014Z</time></trkpt><trkpt lat="44.46015256004835" lon="11.269667724686704"><ele>85.0</ele><time>2026-04-28T06:25:34.014Z</time></trkpt><trkpt lat="44.460265389303046" lon="11.269823166307818"><ele>85.0</ele><time>2026-04-28T06:25:35.014Z</time></trkpt><trkpt lat="44.460367604843896" lon="11.270005113302258"><ele>84.33333333333333</ele><time>2026-04-28T06:25:36.014Z</time></trkpt><trkpt lat="44.460465072130404" lon="11.27018665103323"><ele>83.66666666666667</ele><time>2026-04-28T06:25:37.014Z</time></trkpt><trkpt lat="44.46055472737774" lon="11.270362127527136"><ele>83.0</ele><time>2026-04-28T06:25:38.014Z</time></trkpt><trkpt lat="44.46065167463169" lon="11.270490908243833"><ele>83.0</ele><time>2026-04-28T06:25:39.014Z</time></trkpt><trkpt lat="44.460747911144836" lon="11.270561951690784"><ele>83.0</ele><time>2026-04-28T06:25:40.014Z</time></trkpt><trkpt lat="44.46081976289971" lon="11.270629339796027"><ele>83.0</ele><time>2026-04-28T06:25:41.014Z</time></trkpt><trkpt lat="44.46088643382674" lon="11.270688473725146"><ele>83.0</ele><time>2026-04-28T06:25:42.014Z</time></trkpt><trkpt lat="44.46093643721366" lon="11.270758653931232"><ele>83.0</ele><time>2026-04-28T06:25:43.014Z</time></trkpt><trkpt lat="44.46099988221357" lon="11.270807521760933"><ele>83.0</ele><time>2026-04-28T06:25:44.014Z</time></trkpt><trkpt lat="44.46108821423023" lon="11.27082347151061"><ele>83.25</ele><time>2026-04-28T06:25:45.014Z</time></trkpt><trkpt lat="44.46121406210287" lon="11.270834155085756"><ele>83.5</ele><time>2026-04-28T06:25:46.014Z</time></trkpt><trkpt lat="44.46134831542095" lon="11.270835980334311"><ele>83.75</ele><time>2026-04-28T06:25:47.014Z</time></trkpt><trkpt lat="44.461498907572135" lon="11.270866203084728"><ele>84.0</ele><time>2026-04-28T06:25:48.014Z</time></trkpt><trkpt lat="44.46167357970583" lon="11.270853275490108"><ele>83.66666666666667</ele><time>2026-04-28T06:25:49.014Z</time></trkpt><trkpt lat="44.46186116405578" lon="11.270872351697246"><ele>83.33333333333334</ele><time>2026-04-28T06:25:50.014Z</time></trkpt><trkpt lat="44.46205113267476" lon="11.270863752042102"><ele>83.0</ele><time>2026-04-28T06:25:51.014Z</time></trkpt><trkpt lat="44.46222774975442" lon="11.270840367573085"><ele>83.0</ele><time>2026-04-28T06:25:52.014Z</time></trkpt><trkpt lat="44.46238965890889" lon="11.270798136930186"><ele>83.0</ele><time>2026-04-28T06:25:53.014Z</time></trkpt><trkpt lat="44.46253948298924" lon="11.270739741055387"><ele>83.0</ele><time>2026-04-28T06:25:54.014Z</time></trkpt><trkpt lat="44.462684096268" lon="11.27065023425109"><ele>83.0</ele><time>2026-04-28T06:25:55.014Z</time></trkpt><trkpt lat="44.462819545084635" lon="11.270511605716454"><ele>83.0</ele><time>2026-04-28T06:25:56.014Z</time></trkpt><trkpt lat="44.46295706664079" lon="11.270341102113992"><ele>83.0</ele><time>2026-04-28T06:25:57.014Z</time></trkpt><trkpt lat="44.46310131846407" lon="11.270142881000002"><ele>83.33333333333334</ele><time>2026-04-28T06:25:58.014Z</time></trkpt><trkpt lat="44.46323463116398" lon="11.269913477769766"><ele>83.66666666666667</ele><time>2026-04-28T06:25:59.014Z</time></trkpt><trkpt lat="44.463376544327076" lon="11.269674784554322"><ele>84.0</ele><time>2026-04-28T06:26:00.014Z</time></trkpt><trkpt lat="44.463498237423025" lon="11.26945121468336"><ele>84.0</ele><time>2026-04-28T06:26:01.014Z</time></trkpt><trkpt lat="44.46361555217138" lon="11.269259505006032"><ele>84.0</ele><time>2026-04-28T06:26:02.014Z</time></trkpt><trkpt lat="44.463720953358745" lon="11.269088781413814"><ele>84.0</ele><time>2026-04-28T06:26:03.014Z</time></trkpt><trkpt lat="44.463848478818505" lon="11.268943036166684"><ele>85.25</ele><time>2026-04-28T06:26:04.014Z</time></trkpt><trkpt lat="44.46397802583647" lon="11.268833697700273"><ele>86.5</ele><time>2026-04-28T06:26:05.014Z</time></trkpt><trkpt lat="44.46410931462872" lon="11.268756236325531"><ele>87.75</ele><time>2026-04-28T06:26:06.014Z</time></trkpt><trkpt lat="44.46424955853038" lon="11.268704875834834"><ele>89.0</ele><time>2026-04-28T06:26:07.014Z</time></trkpt><trkpt lat="44.46439952389014" lon="11.268677663644713"><ele>89.0</ele><time>2026-04-28T06:26:08.014Z</time></trkpt><trkpt lat="44.46454371581645" lon="11.268674202851301"><ele>89.0</ele><time>2026-04-28T06:26:09.014Z</time></trkpt><trkpt lat="44.46467003525073" lon="11.268691534535048"><ele>89.0</ele><time>2026-04-28T06:26:10.014Z</time></trkpt><trkpt lat="44.46477508400455" lon="11.268739395636185"><ele>89.0</ele><time>2026-04-28T06:26:11.014Z</time></trkpt><trkpt lat="44.46486240870746" lon="11.268788927489027"><ele>88.66666666666667</ele><time>2026-04-28T06:26:12.014Z</time></trkpt><trkpt lat="44.464935424842714" lon="11.268851389241053"><ele>88.33333333333334</ele><time>2026-04-28T06:26:13.014Z</time></trkpt><trkpt lat="44.46498446237144" lon="11.268926214743386"><ele>88.0</ele><time>2026-04-28T06:26:14.014Z</time></trkpt><trkpt lat="44.4650256197127" lon="11.269002320330184"><ele>87.66666666666667</ele><time>2026-04-28T06:26:15.014Z</time></trkpt><trkpt lat="44.4651276949783" lon="11.269077835729524"><ele>87.33333333333333</ele><time>2026-04-28T06:26:17.014Z</time></trkpt><trkpt lat="44.465190673300185" lon="11.269064311637695"><ele>87.0</ele><time>2026-04-28T06:26:18.014Z</time></trkpt><trkpt lat="44.465301758545586" lon="11.269030389937868"><ele>87.0</ele><time>2026-04-28T06:26:20.014Z</time></trkpt><trkpt lat="44.465384246231025" lon="11.269062018705144"><ele>87.0</ele><time>2026-04-28T06:26:21.014Z</time></trkpt><trkpt lat="44.46548253307469" lon="11.269110533548822"><ele>87.0</ele><time>2026-04-28T06:26:22.014Z</time></trkpt><trkpt lat="44.465593709037435" lon="11.26918534037621"><ele>87.0</ele><time>2026-04-28T06:26:23.014Z</time></trkpt><trkpt lat="44.46573083004962" lon="11.269253288422952"><ele>87.0</ele><time>2026-04-28T06:26:24.014Z</time></trkpt><trkpt lat="44.46587681905148" lon="11.269344838364205"><ele>87.0</ele><time>2026-04-28T06:26:25.014Z</time></trkpt><trkpt lat="44.46602706233953" lon="11.26943348688539"><ele>87.0</ele><time>2026-04-28T06:26:26.014Z</time></trkpt><trkpt lat="44.46619241168786" lon="11.269539372664388"><ele>87.0</ele><time>2026-04-28T06:26:27.014Z</time></trkpt><trkpt lat="44.46635907913154" lon="11.269635677900169"><ele>87.0</ele><time>2026-04-28T06:26:28.014Z</time></trkpt><trkpt lat="44.46651908575331" lon="11.269720680755249"><ele>87.0</ele><time>2026-04-28T06:26:29.015Z</time></trkpt><trkpt lat="44.466668569770356" lon="11.269809487473031"><ele>87.0</ele><time>2026-04-28T06:26:30.015Z</time></trkpt><trkpt lat="44.466814556271274" lon="11.269896125570321"><ele>87.0</ele><time>2026-04-28T06:26:31.014Z</time></trkpt><trkpt lat="44.46696420726385" lon="11.26996809167742"><ele>87.0</ele><time>2026-04-28T06:26:32.015Z</time></trkpt><trkpt lat="44.467112742374894" lon="11.270040199782777"><ele>87.33333333333333</ele><time>2026-04-28T06:26:33.015Z</time></trkpt><trkpt lat="44.46726332550627" lon="11.270116519789841"><ele>87.66666666666666</ele><time>2026-04-28T06:26:34.014Z</time></trkpt><trkpt lat="44.4674102139219" lon="11.27018580479656"><ele>88.0</ele><time>2026-04-28T06:26:35.014Z</time></trkpt><trkpt lat="44.4675517641338" lon="11.270267894455921"><ele>88.0</ele><time>2026-04-28T06:26:36.014Z</time></trkpt><trkpt lat="44.467695124950595" lon="11.270351447571862"><ele>88.0</ele><time>2026-04-28T06:26:37.014Z</time></trkpt><trkpt lat="44.46784583455797" lon="11.270429168044457"><ele>88.0</ele><time>2026-04-28T06:26:38.014Z</time></trkpt><trkpt lat="44.467991606350274" lon="11.270508591728328"><ele>86.0</ele><time>2026-04-28T06:26:39.014Z</time></trkpt><trkpt lat="44.46813509554968" lon="11.270588223548131"><ele>84.0</ele><time>2026-04-28T06:26:40.014Z</time></trkpt><trkpt lat="44.46828343528929" lon="11.270672553602026"><ele>82.0</ele><time>2026-04-28T06:26:41.014Z</time></trkpt><trkpt lat="44.46842290897414" lon="11.270748799324206"><ele>82.0</ele><time>2026-04-28T06:26:42.014Z</time></trkpt><trkpt lat="44.468565489080255" lon="11.270822905129908"><ele>82.0</ele><time>2026-04-28T06:26:43.014Z</time></trkpt><trkpt lat="44.468681490921426" lon="11.270881171341907"><ele>82.0</ele><time>2026-04-28T06:26:44.014Z</time></trkpt><trkpt lat="44.46877248375283" lon="11.270946886420727"><ele>82.0</ele><time>2026-04-28T06:26:45.014Z</time></trkpt><trkpt lat="44.46888240468008" lon="11.27102225467297"><ele>81.25</ele><time>2026-04-28T06:26:46.014Z</time></trkpt><trkpt lat="44.46901290358959" lon="11.271080127943218"><ele>80.5</ele><time>2026-04-28T06:26:47.014Z</time></trkpt><trkpt lat="44.469142708828585" lon="11.271164465856087"><ele>79.75</ele><time>2026-04-28T06:26:48.014Z</time></trkpt><trkpt lat="44.469277977682886" lon="11.271240086039843"><ele>79.0</ele><time>2026-04-28T06:26:49.014Z</time></trkpt><trkpt lat="44.469416803174354" lon="11.271316302846621"><ele>79.0</ele><time>2026-04-28T06:26:50.014Z</time></trkpt><trkpt lat="44.46957546242706" lon="11.271403639820289"><ele>79.0</ele><time>2026-04-28T06:26:51.014Z</time></trkpt><trkpt lat="44.46974225120562" lon="11.271450007471591"><ele>79.0</ele><time>2026-04-28T06:26:52.014Z</time></trkpt><trkpt lat="44.469877584365754" lon="11.271535335769602"><ele>79.25</ele><time>2026-04-28T06:26:53.014Z</time></trkpt><trkpt lat="44.470003619239804" lon="11.27162456997452"><ele>79.5</ele><time>2026-04-28T06:26:54.014Z</time></trkpt><trkpt lat="44.47012857291317" lon="11.271704816365972"><ele>79.75</ele><time>2026-04-28T06:26:55.014Z</time></trkpt><trkpt lat="44.47023775435244" lon="11.271781166773303"><ele>80.0</ele><time>2026-04-28T06:26:56.014Z</time></trkpt><trkpt lat="44.47033458166666" lon="11.271850020822699"><ele>80.0</ele><time>2026-04-28T06:26:57.014Z</time></trkpt><trkpt lat="44.47041272544122" lon="11.271934381785302"><ele>80.0</ele><time>2026-04-28T06:26:58.014Z</time></trkpt><trkpt lat="44.47047783131174" lon="11.272022817861865"><ele>80.0</ele><time>2026-04-28T06:26:59.014Z</time></trkpt><trkpt lat="44.47052899451376" lon="11.272117483927605"><ele>80.0</ele><time>2026-04-28T06:27:00.014Z</time></trkpt><trkpt lat="44.47057603911885" lon="11.272190732886196"><ele>80.0</ele><time>2026-04-28T06:27:01.014Z</time></trkpt><trkpt lat="44.470636093726604" lon="11.272219285788813"><ele>80.0</ele><time>2026-04-28T06:27:02.014Z</time></trkpt><trkpt lat="44.470753284259025" lon="11.272145994986063"><ele>80.0</ele><time>2026-04-28T06:27:04.014Z</time></trkpt><trkpt lat="44.470812408771216" lon="11.272069029405781"><ele>80.0</ele><time>2026-04-28T06:27:05.014Z</time></trkpt><trkpt lat="44.47087545727431" lon="11.272008528774585"><ele>80.0</ele><time>2026-04-28T06:27:06.014Z</time></trkpt><trkpt lat="44.47095573579675" lon="11.272015146765884"><ele>80.0</ele><time>2026-04-28T06:27:07.014Z</time></trkpt><trkpt lat="44.47105108857601" lon="11.272017631096523"><ele>80.0</ele><time>2026-04-28T06:27:08.014Z</time></trkpt><trkpt lat="44.471159843926806" lon="11.272022201263985"><ele>80.0</ele><time>2026-04-28T06:27:09.014Z</time></trkpt><trkpt lat="44.471270294581245" lon="11.272030953732994"><ele>80.6</ele><time>2026-04-28T06:27:10.014Z</time></trkpt><trkpt lat="44.471384422365304" lon="11.27201363763605"><ele>81.2</ele><time>2026-04-28T06:27:11.014Z</time></trkpt><trkpt lat="44.47145910645195" lon="11.27210410465934"><ele>81.80000000000001</ele><time>2026-04-28T06:27:12.014Z</time></trkpt><trkpt lat="44.47153321993985" lon="11.27213591126501"><ele>82.4</ele><time>2026-04-28T06:27:13.014Z</time></trkpt><trkpt lat="44.47163064975869" lon="11.272227442127965"><ele>83.0</ele><time>2026-04-28T06:27:15.014Z</time></trkpt><trkpt lat="44.47170678935807" lon="11.272280267933366"><ele>82.4</ele><time>2026-04-28T06:27:17.014Z</time></trkpt><trkpt lat="44.47178301498749" lon="11.272415579635044"><ele>81.80000000000001</ele><time>2026-04-28T06:27:20.014Z</time></trkpt><trkpt lat="44.471868079746265" lon="11.272401976242476"><ele>81.2</ele><time>2026-04-28T06:27:25.014Z</time></trkpt><trkpt lat="44.471956959636955" lon="11.272341872369399"><ele>80.6</ele><time>2026-04-28T06:27:27.014Z</time></trkpt><trkpt lat="44.47207611623596" lon="11.27232908361757"><ele>80.0</ele><time>2026-04-28T06:27:29.014Z</time></trkpt><trkpt lat="44.47213951196572" lon="11.272295057963408"><ele>80.0</ele><time>2026-04-28T06:27:30.014Z</time></trkpt><trkpt lat="44.47220765546417" lon="11.272281810597118"><ele>80.0</ele><time>2026-04-28T06:27:31.014Z</time></trkpt><trkpt lat="44.4722788451285" lon="11.272280547593097"><ele>80.0</ele><time>2026-04-28T06:27:32.014Z</time></trkpt><trkpt lat="44.47237053790763" lon="11.27228840670129"><ele>80.0</ele><time>2026-04-28T06:27:33.014Z</time></trkpt><trkpt lat="44.47246639428518" lon="11.272294944043757"><ele>80.0</ele><time>2026-04-28T06:27:34.014Z</time></trkpt><trkpt lat="44.47256990830907" lon="11.272314647321375"><ele>80.0</ele><time>2026-04-28T06:27:35.014Z</time></trkpt><trkpt lat="44.472687781555685" lon="11.272334113078943"><ele>80.0</ele><time>2026-04-28T06:27:36.014Z</time></trkpt><trkpt lat="44.4728117915475" lon="11.272356833772337"><ele>80.0</ele><time>2026-04-28T06:27:37.014Z</time></trkpt><trkpt lat="44.47292721967379" lon="11.272372917999986"><ele>80.0</ele><time>2026-04-28T06:27:38.014Z</time></trkpt><trkpt lat="44.47303833698347" lon="11.272376378549275"><ele>80.0</ele><time>2026-04-28T06:27:39.014Z</time></trkpt><trkpt lat="44.47313673795758" lon="11.272376266800602"><ele>80.33333333333334</ele><time>2026-04-28T06:27:40.014Z</time></trkpt><trkpt lat="44.473223721483684" lon="11.272398233340207"><ele>80.66666666666667</ele><time>2026-04-28T06:27:41.014Z</time></trkpt><trkpt lat="44.47331001483145" lon="11.272399237012698"><ele>81.0</ele><time>2026-04-28T06:27:42.014Z</time></trkpt><trkpt lat="44.47339225838942" lon="11.272419020426874"><ele>81.33333333333333</ele><time>2026-04-28T06:27:43.014Z</time></trkpt><trkpt lat="44.473460917974826" lon="11.272429276991502"><ele>81.66666666666666</ele><time>2026-04-28T06:27:44.014Z</time></trkpt><trkpt lat="44.47356413064234" lon="11.27244453678856"><ele>82.0</ele><time>2026-04-28T06:27:46.014Z</time></trkpt><trkpt lat="44.473685723210444" lon="11.27245373040386"><ele>82.0</ele><time>2026-04-28T06:27:48.014Z</time></trkpt><trkpt lat="44.47376734940239" lon="11.272516349965684"><ele>82.0</ele><time>2026-04-28T06:27:49.014Z</time></trkpt><trkpt lat="44.47390014923429" lon="11.272515867407987"><ele>82.0</ele><time>2026-04-28T06:27:50.014Z</time></trkpt><trkpt lat="44.474030572770864" lon="11.27250677870648"><ele>82.0</ele><time>2026-04-28T06:27:51.014Z</time></trkpt><trkpt lat="44.474178502369284" lon="11.272486350177275"><ele>81.66666666666666</ele><time>2026-04-28T06:27:52.014Z</time></trkpt><trkpt lat="44.474333085845785" lon="11.272458812915573"><ele>81.33333333333333</ele><time>2026-04-28T06:27:53.014Z</time></trkpt><trkpt lat="44.474474767375206" lon="11.272427338714508"><ele>81.0</ele><time>2026-04-28T06:27:54.014Z</time></trkpt><trkpt lat="44.474628438307974" lon="11.272384898863303"><ele>81.5</ele><time>2026-04-28T06:27:55.014Z</time></trkpt><trkpt lat="44.474780263442035" lon="11.272320862617597"><ele>82.0</ele><time>2026-04-28T06:27:56.014Z</time></trkpt><trkpt lat="44.47491725138058" lon="11.272282563640589"><ele>82.5</ele><time>2026-04-28T06:27:57.014Z</time></trkpt><trkpt lat="44.475032179150595" lon="11.27222326523936"><ele>83.0</ele><time>2026-04-28T06:27:58.014Z</time></trkpt><trkpt lat="44.47515103978498" lon="11.272153176471221"><ele>83.0</ele><time>2026-04-28T06:27:59.014Z</time></trkpt><trkpt lat="44.47527604290888" lon="11.272077975704171"><ele>83.0</ele><time>2026-04-28T06:28:00.014Z</time></trkpt><trkpt lat="44.47540867486179" lon="11.271996474788454"><ele>83.0</ele><time>2026-04-28T06:28:01.014Z</time></trkpt><trkpt lat="44.475529628296336" lon="11.27188705378027"><ele>83.0</ele><time>2026-04-28T06:28:02.014Z</time></trkpt><trkpt lat="44.47568606766275" lon="11.271788686785776"><ele>83.0</ele><time>2026-04-28T06:28:03.014Z</time></trkpt><trkpt lat="44.475812665377205" lon="11.271651299897831"><ele>83.0</ele><time>2026-04-28T06:28:04.014Z</time></trkpt><trkpt lat="44.475973825514224" lon="11.271549250759271"><ele>83.0</ele><time>2026-04-28T06:28:05.014Z</time></trkpt><trkpt lat="44.476098799985905" lon="11.271427457191878"><ele>83.0</ele><time>2026-04-28T06:28:06.014Z</time></trkpt><trkpt lat="44.476228594887985" lon="11.27128886964434"><ele>83.0</ele><time>2026-04-28T06:28:07.014Z</time></trkpt><trkpt lat="44.476375235866584" lon="11.271157905980841"><ele>83.0</ele><time>2026-04-28T06:28:08.014Z</time></trkpt><trkpt lat="44.476525146668806" lon="11.271019241468274"><ele>81.0</ele><time>2026-04-28T06:28:09.014Z</time></trkpt><trkpt lat="44.476667436424805" lon="11.270879088286406"><ele>79.0</ele><time>2026-04-28T06:28:10.014Z</time></trkpt><trkpt lat="44.47681368701591" lon="11.270741938121557"><ele>77.0</ele><time>2026-04-28T06:28:11.014Z</time></trkpt><trkpt lat="44.47694110868594" lon="11.27061555831268"><ele>76.75</ele><time>2026-04-28T06:28:12.014Z</time></trkpt><trkpt lat="44.477066555972456" lon="11.270493017042504"><ele>76.5</ele><time>2026-04-28T06:28:13.014Z</time></trkpt><trkpt lat="44.47719153272382" lon="11.270391661099387"><ele>76.25</ele><time>2026-04-28T06:28:14.014Z</time></trkpt><trkpt lat="44.47732702352003" lon="11.270297267702949"><ele>76.0</ele><time>2026-04-28T06:28:15.014Z</time></trkpt><trkpt lat="44.47745961910646" lon="11.270212582187328"><ele>76.0</ele><time>2026-04-28T06:28:16.014Z</time></trkpt><trkpt lat="44.4775915976343" lon="11.270185684660055"><ele>76.0</ele><time>2026-04-28T06:28:17.014Z</time></trkpt><trkpt lat="44.47771620614098" lon="11.270157853525046"><ele>76.0</ele><time>2026-04-28T06:28:18.014Z</time></trkpt><trkpt lat="44.47782547026441" lon="11.270148259319495"><ele>76.0</ele><time>2026-04-28T06:28:19.014Z</time></trkpt><trkpt lat="44.47792844501247" lon="11.270150513593437"><ele>75.8</ele><time>2026-04-28T06:28:20.014Z</time></trkpt><trkpt lat="44.47802699758326" lon="11.270163643786947"><ele>75.6</ele><time>2026-04-28T06:28:21.014Z</time></trkpt><trkpt lat="44.47812947007185" lon="11.270184574531152"><ele>75.4</ele><time>2026-04-28T06:28:22.014Z</time></trkpt><trkpt lat="44.478235957881644" lon="11.270224652818579"><ele>75.2</ele><time>2026-04-28T06:28:23.014Z</time></trkpt><trkpt lat="44.47833189403977" lon="11.270245838892947"><ele>75.0</ele><time>2026-04-28T06:28:24.014Z</time></trkpt><trkpt lat="44.478409543422885" lon="11.270299903983078"><ele>75.0</ele><time>2026-04-28T06:28:25.014Z</time></trkpt><trkpt lat="44.47848256035423" lon="11.270346104477825"><ele>75.0</ele><time>2026-04-28T06:28:26.014Z</time></trkpt><trkpt lat="44.47855002610569" lon="11.270396788929835"><ele>75.0</ele><time>2026-04-28T06:28:27.014Z</time></trkpt><trkpt lat="44.478611138667944" lon="11.270453653849264"><ele>75.0</ele><time>2026-04-28T06:28:28.014Z</time></trkpt><trkpt lat="44.478663103186726" lon="11.270534308611659"><ele>75.0</ele><time>2026-04-28T06:28:29.014Z</time></trkpt><trkpt lat="44.47873238988257" lon="11.27058384193227"><ele>75.0</ele><time>2026-04-28T06:28:30.014Z</time></trkpt><trkpt lat="44.478783253816886" lon="11.270662656481358"><ele>74.16666666666667</ele><time>2026-04-28T06:28:31.015Z</time></trkpt><trkpt lat="44.478828498555394" lon="11.270738034333121"><ele>73.33333333333333</ele><time>2026-04-28T06:28:32.015Z</time></trkpt><trkpt lat="44.478904132816034" lon="11.270857552176727"><ele>72.5</ele><time>2026-04-28T06:28:34.015Z</time></trkpt><trkpt lat="44.47894900016671" lon="11.270925111392279"><ele>71.66666666666666</ele><time>2026-04-28T06:28:35.014Z</time></trkpt><trkpt lat="44.478978164842694" lon="11.271033917285296"><ele>70.83333333333333</ele><time>2026-04-28T06:28:36.014Z</time></trkpt><trkpt lat="44.479041655082085" lon="11.271102182357406"><ele>70.0</ele><time>2026-04-28T06:28:37.015Z</time></trkpt><trkpt lat="44.47906248820803" lon="11.271231401798799"><ele>70.0</ele><time>2026-04-28T06:28:38.014Z</time></trkpt><trkpt lat="44.4790713201647" lon="11.271368640332806"><ele>70.0</ele><time>2026-04-28T06:28:39.014Z</time></trkpt><trkpt lat="44.47909213815318" lon="11.27147837797808"><ele>70.0</ele><time>2026-04-28T06:28:40.015Z</time></trkpt><trkpt lat="44.479141554814156" lon="11.271566898879131"><ele>70.0</ele><time>2026-04-28T06:28:41.015Z</time></trkpt><trkpt lat="44.479205891377596" lon="11.271624335282956"><ele>70.0</ele><time>2026-04-28T06:28:42.015Z</time></trkpt><trkpt lat="44.4792957117368" lon="11.271642053508494"><ele>70.0</ele><time>2026-04-28T06:28:43.015Z</time></trkpt><trkpt lat="44.47938859620628" lon="11.271622155501836"><ele>69.5</ele><time>2026-04-28T06:28:44.015Z</time></trkpt><trkpt lat="44.479487531847894" lon="11.271567578795239"><ele>69.0</ele><time>2026-04-28T06:28:45.015Z</time></trkpt><trkpt lat="44.479607793239836" lon="11.271531463132295"><ele>68.5</ele><time>2026-04-28T06:28:46.015Z</time></trkpt><trkpt lat="44.47973142806959" lon="11.271469161243518"><ele>68.0</ele><time>2026-04-28T06:28:47.015Z</time></trkpt><trkpt lat="44.47986518755405" lon="11.271386931760162"><ele>67.66666666666667</ele><time>2026-04-28T06:28:48.015Z</time></trkpt><trkpt lat="44.48001927651784" lon="11.271407237114108"><ele>67.33333333333333</ele><time>2026-04-28T06:28:49.015Z</time></trkpt><trkpt lat="44.480175641625806" lon="11.2713873480428"><ele>67.0</ele><time>2026-04-28T06:28:50.015Z</time></trkpt><trkpt lat="44.48033103330467" lon="11.271367584639478"><ele>66.66666666666666</ele><time>2026-04-28T06:28:51.015Z</time></trkpt><trkpt lat="44.48048132318414" lon="11.271348468315518"><ele>66.33333333333333</ele><time>2026-04-28T06:28:52.015Z</time></trkpt><trkpt lat="44.48063093821192" lon="11.271328954057662"><ele>66.0</ele><time>2026-04-28T06:28:53.015Z</time></trkpt><trkpt lat="44.48077777801145" lon="11.271294901374478"><ele>66.0</ele><time>2026-04-28T06:28:54.015Z</time></trkpt><trkpt lat="44.48092761349649" lon="11.271275201530074"><ele>66.0</ele><time>2026-04-28T06:28:55.015Z</time></trkpt><trkpt lat="44.48106861738426" lon="11.271246004634202"><ele>66.0</ele><time>2026-04-28T06:28:56.015Z</time></trkpt><trkpt lat="44.48120422925667" lon="11.271216773551036"><ele>66.0</ele><time>2026-04-28T06:28:57.015Z</time></trkpt><trkpt lat="44.481332945222206" lon="11.271196160720079"><ele>67.0</ele><time>2026-04-28T06:28:58.015Z</time></trkpt><trkpt lat="44.48145478902403" lon="11.27119250852287"><ele>68.0</ele><time>2026-04-28T06:28:59.015Z</time></trkpt><trkpt lat="44.48156719627457" lon="11.271198910066587"><ele>69.0</ele><time>2026-04-28T06:29:00.015Z</time></trkpt><trkpt lat="44.481671272731724" lon="11.271213157779565"><ele>70.0</ele><time>2026-04-28T06:29:01.015Z</time></trkpt><trkpt lat="44.48176788671117" lon="11.271225276146616"><ele>71.0</ele><time>2026-04-28T06:29:02.015Z</time></trkpt><trkpt lat="44.48185994872259" lon="11.271240304609965"><ele>71.0</ele><time>2026-04-28T06:29:03.015Z</time></trkpt><trkpt lat="44.48196808340851" lon="11.27125756890189"><ele>71.0</ele><time>2026-04-28T06:29:04.015Z</time></trkpt><trkpt lat="44.48208891797838" lon="11.271271397334822"><ele>71.0</ele><time>2026-04-28T06:29:05.015Z</time></trkpt><trkpt lat="44.48221826261578" lon="11.271273863464275"><ele>71.0</ele><time>2026-04-28T06:29:06.015Z</time></trkpt><trkpt lat="44.48234559457305" lon="11.271294643303921"><ele>69.75</ele><time>2026-04-28T06:29:07.015Z</time></trkpt><trkpt lat="44.482457196615144" lon="11.27131763118141"><ele>68.5</ele><time>2026-04-28T06:29:08.015Z</time></trkpt><trkpt lat="44.48257285448056" lon="11.271326686084903"><ele>67.25</ele><time>2026-04-28T06:29:09.015Z</time></trkpt><trkpt lat="44.482700146621426" lon="11.271336709455026"><ele>66.0</ele><time>2026-04-28T06:29:10.015Z</time></trkpt><trkpt lat="44.48283590488662" lon="11.271350225141504"><ele>65.5</ele><time>2026-04-28T06:29:11.015Z</time></trkpt><trkpt lat="44.482983169834284" lon="11.271348031434817"><ele>65.0</ele><time>2026-04-28T06:29:12.015Z</time></trkpt><trkpt lat="44.48312274470404" lon="11.271339266882729"><ele>64.5</ele><time>2026-04-28T06:29:13.015Z</time></trkpt><trkpt lat="44.48325339808837" lon="11.271320441857538"><ele>64.0</ele><time>2026-04-28T06:29:14.015Z</time></trkpt><trkpt lat="44.48338015091553" lon="11.271288078881216"><ele>64.0</ele><time>2026-04-28T06:29:15.015Z</time></trkpt><trkpt lat="44.48349549057282" lon="11.271250633402568"><ele>64.0</ele><time>2026-04-28T06:29:16.015Z</time></trkpt><trkpt lat="44.48361737959295" lon="11.271207394811295"><ele>64.0</ele><time>2026-04-28T06:29:17.015Z</time></trkpt><trkpt lat="44.48373836559548" lon="11.271158543521645"><ele>64.0</ele><time>2026-04-28T06:29:18.015Z</time></trkpt><trkpt lat="44.4838133348662" lon="11.271124676087911"><ele>64.0</ele><time>2026-04-28T06:29:19.015Z</time></trkpt><trkpt lat="44.48390269814445" lon="11.271078716416609"><ele>63.6</ele><time>2026-04-28T06:29:20.015Z</time></trkpt><trkpt lat="44.483988767239524" lon="11.271021115460414"><ele>63.2</ele><time>2026-04-28T06:29:21.015Z</time></trkpt><trkpt lat="44.48406912377123" lon="11.270942406283641"><ele>62.800000000000004</ele><time>2026-04-28T06:29:22.015Z</time></trkpt><trkpt lat="44.484122731909856" lon="11.270877244080525"><ele>62.400000000000006</ele><time>2026-04-28T06:29:23.015Z</time></trkpt><trkpt lat="44.484203878948065" lon="11.27074197445099"><ele>62.0</ele><time>2026-04-28T06:29:25.015Z</time></trkpt><trkpt lat="44.48424582025663" lon="11.270604313008961"><ele>62.00000000000001</ele><time>2026-04-28T06:29:26.015Z</time></trkpt><trkpt lat="44.48428101675935" lon="11.27048944356306"><ele>62.0</ele><time>2026-04-28T06:29:27.015Z</time></trkpt><trkpt lat="44.484312150835635" lon="11.270394327301776"><ele>62.0</ele><time>2026-04-28T06:29:28.015Z</time></trkpt><trkpt lat="44.484348904821246" lon="11.270288536166616"><ele>62.0</ele><time>2026-04-28T06:29:29.015Z</time></trkpt><trkpt lat="44.4843929441369" lon="11.270191128053595"><ele>62.00000000000001</ele><time>2026-04-28T06:29:30.015Z</time></trkpt><trkpt lat="44.48448989033443" lon="11.270111847728192"><ele>62.0</ele><time>2026-04-28T06:29:32.015Z</time></trkpt><trkpt lat="44.484588648447534" lon="11.270050123437722"><ele>61.833333333333336</ele><time>2026-04-28T06:29:34.015Z</time></trkpt><trkpt lat="44.484655067133254" lon="11.270021113539414"><ele>61.66666666666667</ele><time>2026-04-28T06:29:37.015Z</time></trkpt><trkpt lat="44.48474608944772" lon="11.270069068809354"><ele>61.5</ele><time>2026-04-28T06:29:40.015Z</time></trkpt><trkpt lat="44.484829159361894" lon="11.270197953548108"><ele>61.33333333333333</ele><time>2026-04-28T06:29:41.015Z</time></trkpt><trkpt lat="44.48483726363919" lon="11.270300276907737"><ele>61.166666666666664</ele><time>2026-04-28T06:29:42.015Z</time></trkpt><trkpt lat="44.48485575975293" lon="11.2704031871866"><ele>61.0</ele><time>2026-04-28T06:29:43.015Z</time></trkpt><trkpt lat="44.48487904871288" lon="11.270488873903062"><ele>61.0</ele><time>2026-04-28T06:29:44.015Z</time></trkpt><trkpt lat="44.48483182461591" lon="11.270654820457231"><ele>61.0</ele><time>2026-04-28T06:29:45.015Z</time></trkpt><trkpt lat="44.48474115318643" lon="11.270757105423789"><ele>61.0</ele><time>2026-04-28T06:29:46.015Z</time></trkpt><trkpt lat="44.48464420519276" lon="11.270848190321697"><ele>61.0</ele><time>2026-04-28T06:29:47.015Z</time></trkpt><trkpt lat="44.48454347942878" lon="11.270964319647753"><ele>61.0</ele><time>2026-04-28T06:29:48.015Z</time></trkpt><trkpt lat="44.484432637097186" lon="11.271083146974009"><ele>61.0</ele><time>2026-04-28T06:29:49.015Z</time></trkpt><trkpt lat="44.4843009780958" lon="11.271177784488145"><ele>61.0</ele><time>2026-04-28T06:29:50.015Z</time></trkpt><trkpt lat="44.48419086969576" lon="11.27131745683528"><ele>61.0</ele><time>2026-04-28T06:29:51.015Z</time></trkpt><trkpt lat="44.484081615989396" lon="11.271433992349975"><ele>61.0</ele><time>2026-04-28T06:29:52.015Z</time></trkpt><trkpt lat="44.483986033527145" lon="11.271540710390386"><ele>61.0</ele><time>2026-04-28T06:29:53.015Z</time></trkpt><trkpt lat="44.483902059058664" lon="11.271649888102548"><ele>61.0</ele><time>2026-04-28T06:29:54.015Z</time></trkpt><trkpt lat="44.48381932500451" lon="11.271756660846986"><ele>61.0</ele><time>2026-04-28T06:29:55.015Z</time></trkpt><trkpt lat="44.483742763101894" lon="11.271859471088533"><ele>61.166666666666664</ele><time>2026-04-28T06:29:56.015Z</time></trkpt><trkpt lat="44.48367570986362" lon="11.271965515779852"><ele>61.33333333333333</ele><time>2026-04-28T06:29:57.015Z</time></trkpt><trkpt lat="44.48361835254247" lon="11.272068479054402"><ele>61.5</ele><time>2026-04-28T06:29:58.015Z</time></trkpt><trkpt lat="44.483575664961684" lon="11.272151205696"><ele>61.66666666666667</ele><time>2026-04-28T06:29:59.015Z</time></trkpt><trkpt lat="44.483534315608345" lon="11.272237044191575"><ele>61.833333333333336</ele><time>2026-04-28T06:30:01.015Z</time></trkpt><trkpt lat="44.483519382281045" lon="11.272371764910748"><ele>62.0</ele><time>2026-04-28T06:30:23.015Z</time></trkpt><trkpt lat="44.48351661686829" lon="11.272472358469377"><ele>61.0</ele><time>2026-04-28T06:30:24.015Z</time></trkpt><trkpt lat="44.48353715652349" lon="11.272607410315636"><ele>60.0</ele><time>2026-04-28T06:30:25.015Z</time></trkpt><trkpt lat="44.48357446357966" lon="11.272760894804101"><ele>59.0</ele><time>2026-04-28T06:30:26.015Z</time></trkpt><trkpt lat="44.48365427394876" lon="11.272923024329481"><ele>58.0</ele><time>2026-04-28T06:30:27.015Z</time></trkpt><trkpt lat="44.483759840238505" lon="11.273052000911864"><ele>58.5</ele><time>2026-04-28T06:30:28.015Z</time></trkpt><trkpt lat="44.4838871878374" lon="11.273156526582948"><ele>59.0</ele><time>2026-04-28T06:30:29.015Z</time></trkpt><trkpt lat="44.48401713885831" lon="11.273211218633858"><ele>59.5</ele><time>2026-04-28T06:30:30.015Z</time></trkpt><trkpt lat="44.484134969466034" lon="11.273225866508687"><ele>60.0</ele><time>2026-04-28T06:30:31.015Z</time></trkpt><trkpt lat="44.484234540103024" lon="11.27320236500274"><ele>60.0</ele><time>2026-04-28T06:30:32.015Z</time></trkpt><trkpt lat="44.484324848451024" lon="11.273140933441661"><ele>60.0</ele><time>2026-04-28T06:30:33.015Z</time></trkpt><trkpt lat="44.484389620096806" lon="11.273011168297135"><ele>60.0</ele><time>2026-04-28T06:30:34.015Z</time></trkpt><trkpt lat="44.48446111144693" lon="11.272903629691717"><ele>60.0</ele><time>2026-04-28T06:30:35.015Z</time></trkpt><trkpt lat="44.48454076787209" lon="11.272851392027116"><ele>60.0</ele><time>2026-04-28T06:30:36.015Z</time></trkpt><trkpt lat="44.484637303189736" lon="11.272840409495904"><ele>59.75</ele><time>2026-04-28T06:30:37.016Z</time></trkpt><trkpt lat="44.48474758121895" lon="11.272867901940772"><ele>59.5</ele><time>2026-04-28T06:30:38.016Z</time></trkpt><trkpt lat="44.48485834870577" lon="11.272923749202777"><ele>59.25</ele><time>2026-04-28T06:30:39.016Z</time></trkpt><trkpt lat="44.484980302835275" lon="11.272992927534082"><ele>59.0</ele><time>2026-04-28T06:30:40.016Z</time></trkpt><trkpt lat="44.48511394034995" lon="11.273074121497123"><ele>59.333333333333336</ele><time>2026-04-28T06:30:41.016Z</time></trkpt><trkpt lat="44.48525241955023" lon="11.273153936898764"><ele>59.66666666666667</ele><time>2026-04-28T06:30:42.016Z</time></trkpt><trkpt lat="44.48539763027267" lon="11.273229218491931"><ele>60.0</ele><time>2026-04-28T06:30:43.016Z</time></trkpt><trkpt lat="44.48554542179521" lon="11.273311113358865"><ele>59.33333333333333</ele><time>2026-04-28T06:30:44.015Z</time></trkpt><trkpt lat="44.48569606736101" lon="11.273398968174748"><ele>58.666666666666664</ele><time>2026-04-28T06:30:45.015Z</time></trkpt><trkpt lat="44.48584509138003" lon="11.273483020386797"><ele>58.0</ele><time>2026-04-28T06:30:46.015Z</time></trkpt><trkpt lat="44.485992501732746" lon="11.273573661688227"><ele>58.0</ele><time>2026-04-28T06:30:47.015Z</time></trkpt><trkpt lat="44.486143849756914" lon="11.273661911807483"><ele>58.0</ele><time>2026-04-28T06:30:48.015Z</time></trkpt><trkpt lat="44.48630175401604" lon="11.273761526478523"><ele>58.0</ele><time>2026-04-28T06:30:49.015Z</time></trkpt><trkpt lat="44.4864704645998" lon="11.273865442932232"><ele>57.666666666666664</ele><time>2026-04-28T06:30:50.016Z</time></trkpt><trkpt lat="44.48664186982802" lon="11.273979083442935"><ele>57.33333333333333</ele><time>2026-04-28T06:30:51.016Z</time></trkpt><trkpt lat="44.48682111664662" lon="11.274090299330075"><ele>57.0</ele><time>2026-04-28T06:30:52.016Z</time></trkpt><trkpt lat="44.48701229398881" lon="11.274213845584686"><ele>56.0</ele><time>2026-04-28T06:30:53.016Z</time></trkpt><trkpt lat="44.48721162090173" lon="11.274332971585226"><ele>55.0</ele><time>2026-04-28T06:30:54.016Z</time></trkpt><trkpt lat="44.48741708683847" lon="11.274459795086928"><ele>54.0</ele><time>2026-04-28T06:30:55.016Z</time></trkpt><trkpt lat="44.48760388403872" lon="11.274579050487153"><ele>54.0</ele><time>2026-04-28T06:30:56.016Z</time></trkpt><trkpt lat="44.487774855496895" lon="11.274697068698465"><ele>54.0</ele><time>2026-04-28T06:30:57.016Z</time></trkpt><trkpt lat="44.487927934805725" lon="11.274788066067076"><ele>54.0</ele><time>2026-04-28T06:30:58.016Z</time></trkpt><trkpt lat="44.48806988398211" lon="11.274854710138385"><ele>53.75</ele><time>2026-04-28T06:30:59.016Z</time></trkpt><trkpt lat="44.488197739721166" lon="11.274902679400485"><ele>53.5</ele><time>2026-04-28T06:31:00.016Z</time></trkpt><trkpt lat="44.48833237000084" lon="11.274911268980707"><ele>53.25</ele><time>2026-04-28T06:31:01.016Z</time></trkpt><trkpt lat="44.4884599318503" lon="11.274877986248901"><ele>53.0</ele><time>2026-04-28T06:31:02.016Z</time></trkpt><trkpt lat="44.48858610935394" lon="11.274814561700055"><ele>53.0</ele><time>2026-04-28T06:31:03.016Z</time></trkpt><trkpt lat="44.488706570189116" lon="11.274724351812837"><ele>53.0</ele><time>2026-04-28T06:31:04.016Z</time></trkpt><trkpt lat="44.48881610758444" lon="11.27459625863365"><ele>53.0</ele><time>2026-04-28T06:31:05.016Z</time></trkpt><trkpt lat="44.48890479905206" lon="11.27444545613756"><ele>53.0</ele><time>2026-04-28T06:31:06.016Z</time></trkpt><trkpt lat="44.48896933041226" lon="11.274271764952873"><ele>53.0</ele><time>2026-04-28T06:31:07.016Z</time></trkpt><trkpt lat="44.48900992171915" lon="11.27405860565092"><ele>53.0</ele><time>2026-04-28T06:31:08.016Z</time></trkpt><trkpt lat="44.48903044157606" lon="11.273823083557469"><ele>53.0</ele><time>2026-04-28T06:31:09.016Z</time></trkpt><trkpt lat="44.48905085172199" lon="11.2735641194116"><ele>52.333333333333336</ele><time>2026-04-28T06:31:10.016Z</time></trkpt><trkpt lat="44.48907485127915" lon="11.273293164478279"><ele>51.66666666666667</ele><time>2026-04-28T06:31:11.016Z</time></trkpt><trkpt lat="44.489101155955" lon="11.273024654951083"><ele>51.0</ele><time>2026-04-28T06:31:12.016Z</time></trkpt><trkpt lat="44.4891297484302" lon="11.272785819797626"><ele>51.0</ele><time>2026-04-28T06:31:13.016Z</time></trkpt><trkpt lat="44.48917470480105" lon="11.272589558540822"><ele>51.0</ele><time>2026-04-28T06:31:14.016Z</time></trkpt><trkpt lat="44.48922950097171" lon="11.27242176815801"><ele>51.0</ele><time>2026-04-28T06:31:15.016Z</time></trkpt><trkpt lat="44.48928115304712" lon="11.272289690357722"><ele>51.0</ele><time>2026-04-28T06:31:16.016Z</time></trkpt><trkpt lat="44.48932378282022" lon="11.272153862905645"><ele>51.25</ele><time>2026-04-28T06:31:17.016Z</time></trkpt><trkpt lat="44.4893722738645" lon="11.272004543620836"><ele>51.5</ele><time>2026-04-28T06:31:18.016Z</time></trkpt><trkpt lat="44.48943292200895" lon="11.271828185542272"><ele>51.75</ele><time>2026-04-28T06:31:19.016Z</time></trkpt><trkpt lat="44.489521460082635" lon="11.271621430878902"><ele>52.0</ele><time>2026-04-28T06:31:20.016Z</time></trkpt><trkpt lat="44.48961315603003" lon="11.271419291016384"><ele>52.0</ele><time>2026-04-28T06:31:21.016Z</time></trkpt><trkpt lat="44.48972507088609" lon="11.271215655495592"><ele>52.0</ele><time>2026-04-28T06:31:22.016Z</time></trkpt><trkpt lat="44.48985323084527" lon="11.271002570073405"><ele>52.0</ele><time>2026-04-28T06:31:23.016Z</time></trkpt><trkpt lat="44.48998038377238" lon="11.2707710141804"><ele>52.666666666666664</ele><time>2026-04-28T06:31:24.016Z</time></trkpt><trkpt lat="44.49011041365768" lon="11.270533198012703"><ele>53.33333333333333</ele><time>2026-04-28T06:31:25.016Z</time></trkpt><trkpt lat="44.49023876288996" lon="11.270262139910896"><ele>54.0</ele><time>2026-04-28T06:31:26.016Z</time></trkpt><trkpt lat="44.49035757239778" lon="11.269981571409863"><ele>54.5</ele><time>2026-04-28T06:31:27.016Z</time></trkpt><trkpt lat="44.49046269267399" lon="11.269693581405734"><ele>55.0</ele><time>2026-04-28T06:31:28.016Z</time></trkpt><trkpt lat="44.490563343301396" lon="11.269412374918483"><ele>55.0</ele><time>2026-04-28T06:31:29.016Z</time></trkpt><trkpt lat="44.49065721513141" lon="11.269126602532962"><ele>55.0</ele><time>2026-04-28T06:31:30.016Z</time></trkpt><trkpt lat="44.49074693096371" lon="11.268833100487749"><ele>55.0</ele><time>2026-04-28T06:31:31.016Z</time></trkpt><trkpt lat="44.4908161215921" lon="11.268533060239296"><ele>55.0</ele><time>2026-04-28T06:31:32.016Z</time></trkpt><trkpt lat="44.49088521488054" lon="11.268227970881423"><ele>56.0</ele><time>2026-04-28T06:31:33.016Z</time></trkpt><trkpt lat="44.490939501193665" lon="11.2679120943107"><ele>57.0</ele><time>2026-04-28T06:31:34.016Z</time></trkpt><trkpt lat="44.49100237078681" lon="11.267608401552774"><ele>57.0</ele><time>2026-04-28T06:31:35.016Z</time></trkpt><trkpt lat="44.491061818489946" lon="11.267301674213947"><ele>57.0</ele><time>2026-04-28T06:31:36.016Z</time></trkpt><trkpt lat="44.49112578181543" lon="11.267012096098872"><ele>57.0</ele><time>2026-04-28T06:31:37.016Z</time></trkpt><trkpt lat="44.49118600839711" lon="11.266725583202781"><ele>57.0</ele><time>2026-04-28T06:31:38.016Z</time></trkpt><trkpt lat="44.49124206947689" lon="11.266444352235881"><ele>57.0</ele><time>2026-04-28T06:31:39.016Z</time></trkpt><trkpt lat="44.49129661472839" lon="11.266161154333512"><ele>57.0</ele><time>2026-04-28T06:31:40.016Z</time></trkpt><trkpt lat="44.49135415070633" lon="11.26588064736535"><ele>57.33333333333333</ele><time>2026-04-28T06:31:41.016Z</time></trkpt><trkpt lat="44.491415805734626" lon="11.265603100045329"><ele>57.666666666666664</ele><time>2026-04-28T06:31:42.016Z</time></trkpt><trkpt lat="44.49147032515247" lon="11.265315408076923"><ele>58.0</ele><time>2026-04-28T06:31:43.016Z</time></trkpt><trkpt lat="44.49152966543906" lon="11.26501270135785"><ele>57.0</ele><time>2026-04-28T06:31:44.016Z</time></trkpt><trkpt lat="44.49159158650208" lon="11.264703023681358"><ele>56.0</ele><time>2026-04-28T06:31:45.016Z</time></trkpt><trkpt lat="44.49165183476641" lon="11.26438096822385"><ele>56.0</ele><time>2026-04-28T06:31:46.016Z</time></trkpt><trkpt lat="44.49171601397104" lon="11.264063297072505"><ele>56.0</ele><time>2026-04-28T06:31:47.016Z</time></trkpt><trkpt lat="44.49177716828069" lon="11.263746518613695"><ele>56.5</ele><time>2026-04-28T06:31:48.016Z</time></trkpt><trkpt lat="44.4918413593457" lon="11.263435159237993"><ele>57.0</ele><time>2026-04-28T06:31:49.016Z</time></trkpt><trkpt lat="44.49190482245049" lon="11.263126233841993"><ele>57.5</ele><time>2026-04-28T06:31:50.016Z</time></trkpt><trkpt lat="44.49196616991444" lon="11.262811696408514"><ele>58.0</ele><time>2026-04-28T06:31:51.016Z</time></trkpt><trkpt lat="44.4920313584104" lon="11.262493688778992"><ele>57.0</ele><time>2026-04-28T06:31:52.016Z</time></trkpt><trkpt lat="44.492093875826946" lon="11.262183038953419"><ele>56.0</ele><time>2026-04-28T06:31:53.016Z</time></trkpt><trkpt lat="44.49215223164422" lon="11.261872603891062"><ele>56.0</ele><time>2026-04-28T06:31:54.016Z</time></trkpt><trkpt lat="44.49221430440165" lon="11.261570807700036"><ele>56.0</ele><time>2026-04-28T06:31:55.016Z</time></trkpt><trkpt lat="44.49227838451905" lon="11.261276806506602"><ele>56.0</ele><time>2026-04-28T06:31:56.016Z</time></trkpt><trkpt lat="44.492337507655634" lon="11.260988596772167"><ele>55.333333333333336</ele><time>2026-04-28T06:31:57.016Z</time></trkpt><trkpt lat="44.49239741271806" lon="11.26070262362248"><ele>54.66666666666667</ele><time>2026-04-28T06:31:58.016Z</time></trkpt><trkpt lat="44.492456263832366" lon="11.26041772088766"><ele>54.0</ele><time>2026-04-28T06:31:59.016Z</time></trkpt><trkpt lat="44.49251563101161" lon="11.260127665448168"><ele>54.0</ele><time>2026-04-28T06:32:00.016Z</time></trkpt><trkpt lat="44.49257381216169" lon="11.259834329174398"><ele>54.0</ele><time>2026-04-28T06:32:01.016Z</time></trkpt><trkpt lat="44.4926335058222" lon="11.259528964241284"><ele>54.0</ele><time>2026-04-28T06:32:02.016Z</time></trkpt><trkpt lat="44.492692067116984" lon="11.259205945869368"><ele>55.0</ele><time>2026-04-28T06:32:03.016Z</time></trkpt><trkpt lat="44.49276133299112" lon="11.258870902440373"><ele>56.0</ele><time>2026-04-28T06:32:04.016Z</time></trkpt><trkpt lat="44.49283035812639" lon="11.258522321724675"><ele>56.0</ele><time>2026-04-28T06:32:05.016Z</time></trkpt><trkpt lat="44.49290128114215" lon="11.25817443419359"><ele>56.0</ele><time>2026-04-28T06:32:06.016Z</time></trkpt><trkpt lat="44.492970909114426" lon="11.25785115569401"><ele>56.0</ele><time>2026-04-28T06:32:07.016Z</time></trkpt><trkpt lat="44.49302513332287" lon="11.257543569215883"><ele>56.0</ele><time>2026-04-28T06:32:08.016Z</time></trkpt><trkpt lat="44.493071598405585" lon="11.257253790797293"><ele>56.0</ele><time>2026-04-28T06:32:09.016Z</time></trkpt><trkpt lat="44.49310877511225" lon="11.25697088969382"><ele>56.0</ele><time>2026-04-28T06:32:10.016Z</time></trkpt><trkpt lat="44.493138533454704" lon="11.256695632552015"><ele>56.0</ele><time>2026-04-28T06:32:11.016Z</time></trkpt><trkpt lat="44.49315931491852" lon="11.2564209070326"><ele>56.0</ele><time>2026-04-28T06:32:12.016Z</time></trkpt><trkpt lat="44.493183272440945" lon="11.256144258990847"><ele>56.66666666666667</ele><time>2026-04-28T06:32:13.016Z</time></trkpt><trkpt lat="44.493197673779804" lon="11.255861548594693"><ele>57.33333333333333</ele><time>2026-04-28T06:32:14.016Z</time></trkpt><trkpt lat="44.49320693025985" lon="11.255575361083958"><ele>58.0</ele><time>2026-04-28T06:32:15.016Z</time></trkpt><trkpt lat="44.49320538484756" lon="11.25529140117461"><ele>58.33333333333333</ele><time>2026-04-28T06:32:16.016Z</time></trkpt><trkpt lat="44.493202008338315" lon="11.25500664921567"><ele>58.66666666666667</ele><time>2026-04-28T06:32:17.016Z</time></trkpt><trkpt lat="44.49319086375435" lon="11.25472419701421"><ele>59.0</ele><time>2026-04-28T06:32:18.016Z</time></trkpt><trkpt lat="44.49317120654897" lon="11.254431408566198"><ele>59.333333333333336</ele><time>2026-04-28T06:32:19.016Z</time></trkpt><trkpt lat="44.49314769155917" lon="11.254141986633341"><ele>59.66666666666667</ele><time>2026-04-28T06:32:20.016Z</time></trkpt><trkpt lat="44.49311443583912" lon="11.253851904206083"><ele>60.0</ele><time>2026-04-28T06:32:21.016Z</time></trkpt><trkpt lat="44.49307674875063" lon="11.253562422552614"><ele>60.33333333333333</ele><time>2026-04-28T06:32:22.016Z</time></trkpt><trkpt lat="44.49303138768767" lon="11.253269130632859"><ele>60.666666666666664</ele><time>2026-04-28T06:32:23.016Z</time></trkpt><trkpt lat="44.49297855758138" lon="11.252978490967841"><ele>61.0</ele><time>2026-04-28T06:32:24.016Z</time></trkpt><trkpt lat="44.49292098891822" lon="11.252689749376204"><ele>61.0</ele><time>2026-04-28T06:32:25.016Z</time></trkpt><trkpt lat="44.49285547179408" lon="11.252399639905459"><ele>61.0</ele><time>2026-04-28T06:32:26.016Z</time></trkpt><trkpt lat="44.492789720925785" lon="11.252113753343037"><ele>61.0</ele><time>2026-04-28T06:32:27.016Z</time></trkpt><trkpt lat="44.49271860057028" lon="11.251840143664781"><ele>61.0</ele><time>2026-04-28T06:32:28.016Z</time></trkpt><trkpt lat="44.492646892724316" lon="11.251573747151514"><ele>61.0</ele><time>2026-04-28T06:32:29.016Z</time></trkpt><trkpt lat="44.492570370723314" lon="11.251323327625238"><ele>61.0</ele><time>2026-04-28T06:32:30.016Z</time></trkpt><trkpt lat="44.492497465989" lon="11.251077732745985"><ele>61.33333333333333</ele><time>2026-04-28T06:32:31.016Z</time></trkpt><trkpt lat="44.49242283519801" lon="11.250830843605545"><ele>61.66666666666667</ele><time>2026-04-28T06:32:32.016Z</time></trkpt><trkpt lat="44.4923490781626" lon="11.250587962673283"><ele>62.0</ele><time>2026-04-28T06:32:33.016Z</time></trkpt><trkpt lat="44.49227097033412" lon="11.250339141075662"><ele>62.333333333333336</ele><time>2026-04-28T06:32:34.016Z</time></trkpt><trkpt lat="44.49220059082207" lon="11.250098718498979"><ele>62.66666666666667</ele><time>2026-04-28T06:32:35.016Z</time></trkpt><trkpt lat="44.49213400403832" lon="11.249869391872826"><ele>63.0</ele><time>2026-04-28T06:32:36.016Z</time></trkpt><trkpt lat="44.492064967888886" lon="11.249644209705298"><ele>63.33333333333333</ele><time>2026-04-28T06:32:37.016Z</time></trkpt><trkpt lat="44.491995174696676" lon="11.24942613627854"><ele>63.666666666666664</ele><time>2026-04-28T06:32:38.016Z</time></trkpt><trkpt lat="44.49193097598778" lon="11.24921495268589"><ele>64.0</ele><time>2026-04-28T06:32:39.016Z</time></trkpt><trkpt lat="44.491866049301464" lon="11.24900311075035"><ele>64.0</ele><time>2026-04-28T06:32:40.016Z</time></trkpt><trkpt lat="44.49180565310944" lon="11.248797599509935"><ele>64.0</ele><time>2026-04-28T06:32:41.016Z</time></trkpt><trkpt lat="44.49174187850256" lon="11.248588011892243"><ele>64.0</ele><time>2026-04-28T06:32:42.016Z</time></trkpt><trkpt lat="44.491670855490334" lon="11.248377182142299"><ele>64.0</ele><time>2026-04-28T06:32:43.016Z</time></trkpt><trkpt lat="44.49160327343079" lon="11.248160878269093"><ele>64.0</ele><time>2026-04-28T06:32:44.016Z</time></trkpt><trkpt lat="44.49152989895321" lon="11.247936582382842"><ele>64.0</ele><time>2026-04-28T06:32:45.016Z</time></trkpt><trkpt lat="44.491463276358886" lon="11.247699403699148"><ele>64.0</ele><time>2026-04-28T06:32:46.016Z</time></trkpt><trkpt lat="44.49138569378672" lon="11.2474474226029"><ele>64.0</ele><time>2026-04-28T06:32:47.016Z</time></trkpt><trkpt lat="44.49130183062268" lon="11.247173679651306"><ele>64.0</ele><time>2026-04-28T06:32:48.017Z</time></trkpt><trkpt lat="44.491216134886926" lon="11.246887807984459"><ele>64.33333333333333</ele><time>2026-04-28T06:32:49.016Z</time></trkpt><trkpt lat="44.49113364474969" lon="11.246596430760093"><ele>64.66666666666667</ele><time>2026-04-28T06:32:50.016Z</time></trkpt><trkpt lat="44.49104932481259" lon="11.246304787312065"><ele>65.0</ele><time>2026-04-28T06:32:51.016Z</time></trkpt><trkpt lat="44.49096632732473" lon="11.246015331059553"><ele>66.0</ele><time>2026-04-28T06:32:52.016Z</time></trkpt><trkpt lat="44.49087664334894" lon="11.245724877070444"><ele>67.0</ele><time>2026-04-28T06:32:53.016Z</time></trkpt><trkpt lat="44.49079020575301" lon="11.245433817491504"><ele>67.5</ele><time>2026-04-28T06:32:54.016Z</time></trkpt><trkpt lat="44.490702672166464" lon="11.245136492171065"><ele>68.0</ele><time>2026-04-28T06:32:55.016Z</time></trkpt><trkpt lat="44.490614614153" lon="11.244836222391495"><ele>67.0</ele><time>2026-04-28T06:32:56.016Z</time></trkpt><trkpt lat="44.49052486650313" lon="11.244539633503273"><ele>66.0</ele><time>2026-04-28T06:32:57.016Z</time></trkpt><trkpt lat="44.49043688050541" lon="11.244249718496212"><ele>67.0</ele><time>2026-04-28T06:32:58.016Z</time></trkpt><trkpt lat="44.49034974085527" lon="11.243955335351544"><ele>68.0</ele><time>2026-04-28T06:32:59.016Z</time></trkpt><trkpt lat="44.49026344064294" lon="11.243663905344942"><ele>68.0</ele><time>2026-04-28T06:33:00.016Z</time></trkpt><trkpt lat="44.49017434926668" lon="11.243369656109945"><ele>68.0</ele><time>2026-04-28T06:33:01.016Z</time></trkpt><trkpt lat="44.49008417419444" lon="11.243063707112427"><ele>69.5</ele><time>2026-04-28T06:33:02.016Z</time></trkpt><trkpt lat="44.48998874400058" lon="11.242748683993819"><ele>71.0</ele><time>2026-04-28T06:33:03.016Z</time></trkpt><trkpt lat="44.48989032262533" lon="11.242423814810921"><ele>71.0</ele><time>2026-04-28T06:33:04.016Z</time></trkpt><trkpt lat="44.48979803934208" lon="11.242085163686626"><ele>71.0</ele><time>2026-04-28T06:33:05.016Z</time></trkpt><trkpt lat="44.48970197879361" lon="11.241738013156766"><ele>71.5</ele><time>2026-04-28T06:33:06.016Z</time></trkpt><trkpt lat="44.489618470419934" lon="11.241380293320807"><ele>72.0</ele><time>2026-04-28T06:33:07.016Z</time></trkpt><trkpt lat="44.4895421009866" lon="11.241008408490178"><ele>71.5</ele><time>2026-04-28T06:33:08.016Z</time></trkpt><trkpt lat="44.48947541423334" lon="11.240625073470705"><ele>71.0</ele><time>2026-04-28T06:33:09.016Z</time></trkpt><trkpt lat="44.489419380729686" lon="11.240239479005867"><ele>71.0</ele><time>2026-04-28T06:33:10.016Z</time></trkpt><trkpt lat="44.48937591707215" lon="11.23985254303793"><ele>71.0</ele><time>2026-04-28T06:33:11.016Z</time></trkpt><trkpt lat="44.48933649837403" lon="11.23947048327129"><ele>70.0</ele><time>2026-04-28T06:33:12.016Z</time></trkpt><trkpt lat="44.48929965263328" lon="11.23908965330973"><ele>69.0</ele><time>2026-04-28T06:33:13.016Z</time></trkpt><trkpt lat="44.48927107255456" lon="11.238710268476328"><ele>69.0</ele><time>2026-04-28T06:33:14.016Z</time></trkpt><trkpt lat="44.489253461121" lon="11.23831822469969"><ele>69.0</ele><time>2026-04-28T06:33:15.016Z</time></trkpt><trkpt lat="44.48924042363521" lon="11.237916635402753"><ele>69.0</ele><time>2026-04-28T06:33:16.016Z</time></trkpt><trkpt lat="44.48923484531436" lon="11.23751095823663"><ele>69.0</ele><time>2026-04-28T06:33:17.016Z</time></trkpt><trkpt lat="44.4892437111604" lon="11.23713616953161"><ele>70.0</ele><time>2026-04-28T06:33:18.016Z</time></trkpt><trkpt lat="44.48926128476494" lon="11.236778605665588"><ele>71.0</ele><time>2026-04-28T06:33:19.016Z</time></trkpt><trkpt lat="44.48928464635453" lon="11.236434400778778"><ele>71.33333333333334</ele><time>2026-04-28T06:33:20.016Z</time></trkpt><trkpt lat="44.48931093379832" lon="11.236109867730681"><ele>71.66666666666667</ele><time>2026-04-28T06:33:21.016Z</time></trkpt><trkpt lat="44.489340918025675" lon="11.235812064531531"><ele>72.0</ele><time>2026-04-28T06:33:22.016Z</time></trkpt><trkpt lat="44.48937184775974" lon="11.23553423498266"><ele>72.0</ele><time>2026-04-28T06:33:23.016Z</time></trkpt><trkpt lat="44.489406783711644" lon="11.235270016424524"><ele>72.0</ele><time>2026-04-28T06:33:24.016Z</time></trkpt><trkpt lat="44.48943973478689" lon="11.235021480681391"><ele>72.0</ele><time>2026-04-28T06:33:25.016Z</time></trkpt><trkpt lat="44.489472639119114" lon="11.234790700217195"><ele>72.33333333333333</ele><time>2026-04-28T06:33:26.016Z</time></trkpt><trkpt lat="44.48950305550417" lon="11.23456395261594"><ele>72.66666666666666</ele><time>2026-04-28T06:33:27.016Z</time></trkpt><trkpt lat="44.48952966938563" lon="11.234336141389134"><ele>73.0</ele><time>2026-04-28T06:33:28.016Z</time></trkpt><trkpt lat="44.4895600636703" lon="11.23410620543956"><ele>73.33333333333333</ele><time>2026-04-28T06:33:29.016Z</time></trkpt><trkpt lat="44.489589891895854" lon="11.233864699609335"><ele>73.66666666666667</ele><time>2026-04-28T06:33:30.016Z</time></trkpt><trkpt lat="44.489618368393984" lon="11.233630619716548"><ele>74.0</ele><time>2026-04-28T06:33:31.016Z</time></trkpt><trkpt lat="44.489648144777846" lon="11.233409714418128"><ele>73.75</ele><time>2026-04-28T06:33:32.016Z</time></trkpt><trkpt lat="44.48967784584725" lon="11.233203573820743"><ele>73.5</ele><time>2026-04-28T06:33:33.016Z</time></trkpt><trkpt lat="44.48970457151243" lon="11.233005740076146"><ele>73.25</ele><time>2026-04-28T06:33:34.016Z</time></trkpt><trkpt lat="44.48973757305064" lon="11.23281052241874"><ele>73.0</ele><time>2026-04-28T06:33:35.016Z</time></trkpt><trkpt lat="44.489788011027386" lon="11.232608167988534"><ele>73.0</ele><time>2026-04-28T06:33:36.016Z</time></trkpt><trkpt lat="44.489857846996706" lon="11.232417197288468"><ele>73.0</ele><time>2026-04-28T06:33:37.016Z</time></trkpt><trkpt lat="44.489941789155516" lon="11.232253331401282"><ele>73.0</ele><time>2026-04-28T06:33:38.016Z</time></trkpt><trkpt lat="44.49004758387787" lon="11.23210861136559"><ele>73.0</ele><time>2026-04-28T06:33:39.016Z</time></trkpt><trkpt lat="44.49016927422317" lon="11.231977720379936"><ele>73.25</ele><time>2026-04-28T06:33:40.016Z</time></trkpt><trkpt lat="44.49030516391716" lon="11.231883857639463"><ele>73.5</ele><time>2026-04-28T06:33:41.016Z</time></trkpt><trkpt lat="44.49044285196234" lon="11.231822007613578"><ele>73.75</ele><time>2026-04-28T06:33:42.016Z</time></trkpt><trkpt lat="44.49056293640373" lon="11.231803246147576"><ele>74.0</ele><time>2026-04-28T06:33:43.016Z</time></trkpt><trkpt lat="44.490677724702095" lon="11.231807426843897"><ele>73.5</ele><time>2026-04-28T06:33:44.016Z</time></trkpt><trkpt lat="44.490801539431146" lon="11.23182403323821"><ele>73.0</ele><time>2026-04-28T06:33:45.016Z</time></trkpt><trkpt lat="44.49093379428155" lon="11.23185693431847"><ele>72.5</ele><time>2026-04-28T06:33:46.016Z</time></trkpt><trkpt lat="44.49107575274931" lon="11.23189401450355"><ele>72.0</ele><time>2026-04-28T06:33:47.016Z</time></trkpt><trkpt lat="44.49121444949248" lon="11.23191521949973"><ele>71.0</ele><time>2026-04-28T06:33:48.016Z</time></trkpt><trkpt lat="44.49134436700514" lon="11.231907610398736"><ele>70.0</ele><time>2026-04-28T06:33:49.016Z</time></trkpt><trkpt lat="44.49147030489385" lon="11.231874954425933"><ele>69.0</ele><time>2026-04-28T06:33:50.016Z</time></trkpt><trkpt lat="44.49158771885268" lon="11.231826423264385"><ele>68.0</ele><time>2026-04-28T06:33:51.016Z</time></trkpt><trkpt lat="44.49169521068231" lon="11.231775399985757"><ele>68.0</ele><time>2026-04-28T06:33:52.016Z</time></trkpt><trkpt lat="44.49179757853193" lon="11.231714086676993"><ele>68.0</ele><time>2026-04-28T06:33:53.016Z</time></trkpt><trkpt lat="44.491882620478435" lon="11.23165897875182"><ele>68.0</ele><time>2026-04-28T06:33:54.016Z</time></trkpt><trkpt lat="44.49195352359915" lon="11.231590342015055"><ele>68.0</ele><time>2026-04-28T06:33:55.016Z</time></trkpt><trkpt lat="44.49206130945299" lon="11.2316557745931"><ele>68.0</ele><time>2026-04-28T06:33:56.016Z</time></trkpt><trkpt lat="44.4921257376958" lon="11.231618024384257"><ele>68.16666666666667</ele><time>2026-04-28T06:33:57.016Z</time></trkpt><trkpt lat="44.492167346676574" lon="11.231505525774203"><ele>68.33333333333334</ele><time>2026-04-28T06:33:58.016Z</time></trkpt><trkpt lat="44.492158195112474" lon="11.231383918457414"><ele>68.5</ele><time>2026-04-28T06:33:59.016Z</time></trkpt><trkpt lat="44.49210836304566" lon="11.231285862602153"><ele>68.66666666666667</ele><time>2026-04-28T06:34:00.016Z</time></trkpt><trkpt lat="44.49204526519399" lon="11.231258248836827"><ele>68.83333333333333</ele><time>2026-04-28T06:34:01.016Z</time></trkpt><trkpt lat="44.49204437614454" lon="11.231120557912627"><ele>69.0</ele><time>2026-04-28T06:34:02.016Z</time></trkpt><trkpt lat="44.49202198219589" lon="11.231013648757921"><ele>69.0</ele><time>2026-04-28T06:34:03.016Z</time></trkpt><trkpt lat="44.49199605141728" lon="11.230917822448228"><ele>69.0</ele><time>2026-04-28T06:34:04.016Z</time></trkpt><trkpt lat="44.49197122307067" lon="11.230814453651057"><ele>69.0</ele><time>2026-04-28T06:34:05.016Z</time></trkpt><trkpt lat="44.491947549085076" lon="11.230709639336693"><ele>69.0</ele><time>2026-04-28T06:34:06.016Z</time></trkpt><trkpt lat="44.49192460928046" lon="11.230615853556642"><ele>69.0</ele><time>2026-04-28T06:34:07.016Z</time></trkpt><trkpt lat="44.491898016720036" lon="11.230520125907528"><ele>69.0</ele><time>2026-04-28T06:34:08.016Z</time></trkpt><trkpt lat="44.491859320007926" lon="11.230368924878071"><ele>69.16666666666667</ele><time>2026-04-28T06:34:10.016Z</time></trkpt><trkpt lat="44.49183574288289" lon="11.23028696504243"><ele>69.33333333333333</ele><time>2026-04-28T06:34:11.016Z</time></trkpt><trkpt lat="44.491810143246916" lon="11.230190667996462"><ele>69.5</ele><time>2026-04-28T06:34:12.016Z</time></trkpt><trkpt lat="44.491789122276785" lon="11.23008523797259"><ele>69.66666666666666</ele><time>2026-04-28T06:34:13.016Z</time></trkpt><trkpt lat="44.491776512127096" lon="11.229977404305243"><ele>69.83333333333333</ele><time>2026-04-28T06:34:14.016Z</time></trkpt><trkpt lat="44.49176325019165" lon="11.2298544962874"><ele>70.0</ele><time>2026-04-28T06:34:15.016Z</time></trkpt><trkpt lat="44.49175785460595" lon="11.229732802153139"><ele>70.4</ele><time>2026-04-28T06:34:16.016Z</time></trkpt><trkpt lat="44.49175757488529" lon="11.229607364458882"><ele>70.8</ele><time>2026-04-28T06:34:17.016Z</time></trkpt><trkpt lat="44.49177418533122" lon="11.229484004531821"><ele>71.2</ele><time>2026-04-28T06:34:18.016Z</time></trkpt><trkpt lat="44.49180130062314" lon="11.229317330273268"><ele>71.6</ele><time>2026-04-28T06:34:19.016Z</time></trkpt><trkpt lat="44.49184191374232" lon="11.229148039915968"><ele>72.0</ele><time>2026-04-28T06:34:20.016Z</time></trkpt><trkpt lat="44.49188043177233" lon="11.228949045386361"><ele>72.5</ele><time>2026-04-28T06:34:21.016Z</time></trkpt><trkpt lat="44.49191776715416" lon="11.228754996593201"><ele>73.0</ele><time>2026-04-28T06:34:22.016Z</time></trkpt><trkpt lat="44.49194175804863" lon="11.228565644964814"><ele>73.5</ele><time>2026-04-28T06:34:23.016Z</time></trkpt><trkpt lat="44.49195173202443" lon="11.228396603977135"><ele>74.0</ele><time>2026-04-28T06:34:24.016Z</time></trkpt><trkpt lat="44.491960433988496" lon="11.228234118545657"><ele>74.60000000000001</ele><time>2026-04-28T06:34:25.016Z</time></trkpt><trkpt lat="44.49196629451061" lon="11.228081927726123"><ele>75.2</ele><time>2026-04-28T06:34:26.016Z</time></trkpt><trkpt lat="44.4919785910268" lon="11.227954363190836"><ele>75.80000000000001</ele><time>2026-04-28T06:34:27.016Z</time></trkpt><trkpt lat="44.49198280018578" lon="11.227850358404117"><ele>76.4</ele><time>2026-04-28T06:34:28.016Z</time></trkpt><trkpt lat="44.491992807005836" lon="11.227730128382026"><ele>77.0</ele><time>2026-04-28T06:34:32.016Z</time></trkpt><trkpt lat="44.492054997547335" lon="11.22759892975529"><ele>76.6</ele><time>2026-04-28T06:34:34.016Z</time></trkpt><trkpt lat="44.492119424029184" lon="11.227482402889834"><ele>76.2</ele><time>2026-04-28T06:34:35.016Z</time></trkpt><trkpt lat="44.49216952462696" lon="11.227330046521683"><ele>75.8</ele><time>2026-04-28T06:34:36.016Z</time></trkpt><trkpt lat="44.49217965922275" lon="11.227190098666165"><ele>75.4</ele><time>2026-04-28T06:34:37.016Z</time></trkpt><trkpt lat="44.49214904821877" lon="11.227054412383579"><ele>75.0</ele><time>2026-04-28T06:34:38.016Z</time></trkpt><trkpt lat="44.492092650450374" lon="11.22693996791121"><ele>75.8</ele><time>2026-04-28T06:34:39.016Z</time></trkpt><trkpt lat="44.492012131843765" lon="11.226845636592454"><ele>76.6</ele><time>2026-04-28T06:34:40.016Z</time></trkpt><trkpt lat="44.49191483025449" lon="11.226821404260216"><ele>77.4</ele><time>2026-04-28T06:34:41.016Z</time></trkpt><trkpt lat="44.491814789380314" lon="11.226832760291678"><ele>78.2</ele><time>2026-04-28T06:34:42.016Z</time></trkpt><trkpt lat="44.491717972953445" lon="11.22684422263536"><ele>79.0</ele><time>2026-04-28T06:34:43.016Z</time></trkpt><trkpt lat="44.49164087181373" lon="11.22699124787821"><ele>79.0</ele><time>2026-04-28T06:34:44.016Z</time></trkpt><trkpt lat="44.491584081926185" lon="11.227106615240737"><ele>79.0</ele><time>2026-04-28T06:34:45.016Z</time></trkpt><trkpt lat="44.49156093147684" lon="11.22725231314998"><ele>79.0</ele><time>2026-04-28T06:34:46.016Z</time></trkpt><trkpt lat="44.491574544530934" lon="11.227404312649947"><ele>79.0</ele><time>2026-04-28T06:34:47.016Z</time></trkpt><trkpt lat="44.49162476545464" lon="11.227516160345626"><ele>79.0</ele><time>2026-04-28T06:34:48.017Z</time></trkpt><trkpt lat="44.49169369855766" lon="11.227614555334513"><ele>78.60000000000001</ele><time>2026-04-28T06:34:49.017Z</time></trkpt><trkpt lat="44.49178737153097" lon="11.227687785291776"><ele>78.2</ele><time>2026-04-28T06:34:50.017Z</time></trkpt><trkpt lat="44.49185467998879" lon="11.227803906594506"><ele>77.80000000000001</ele><time>2026-04-28T06:34:51.017Z</time></trkpt><trkpt lat="44.491909245102875" lon="11.227928385248807"><ele>77.4</ele><time>2026-04-28T06:34:52.016Z</time></trkpt><trkpt lat="44.491928651158055" lon="11.22808485741773"><ele>77.0</ele><time>2026-04-28T06:34:53.016Z</time></trkpt><trkpt lat="44.49192710429367" lon="11.228260607952691"><ele>76.4</ele><time>2026-04-28T06:34:54.017Z</time></trkpt><trkpt lat="44.49189979233856" lon="11.228439194627889"><ele>75.80000000000001</ele><time>2026-04-28T06:34:55.016Z</time></trkpt><trkpt lat="44.491871693733074" lon="11.228587100037474"><ele>75.2</ele><time>2026-04-28T06:34:56.016Z</time></trkpt><trkpt lat="44.491853434698676" lon="11.228713533052368"><ele>74.60000000000001</ele><time>2026-04-28T06:34:57.017Z</time></trkpt><trkpt lat="44.491844101118076" lon="11.228811162620698"><ele>74.0</ele><time>2026-04-28T06:34:58.017Z</time></trkpt><trkpt lat="44.49182688491" lon="11.228924805021181"><ele>73.60000000000001</ele><time>2026-04-28T06:35:00.017Z</time></trkpt><trkpt lat="44.49180029433991" lon="11.229066886603789"><ele>73.2</ele><time>2026-04-28T06:35:02.016Z</time></trkpt><trkpt lat="44.49178020703167" lon="11.229195660084358"><ele>72.80000000000001</ele><time>2026-04-28T06:35:04.016Z</time></trkpt><trkpt lat="44.491757579880506" lon="11.229291903235122"><ele>72.4</ele><time>2026-04-28T06:35:06.016Z</time></trkpt><trkpt lat="44.49173749886818" lon="11.229422121746776"><ele>72.0</ele><time>2026-04-28T06:35:08.016Z</time></trkpt><trkpt lat="44.491720116992916" lon="11.22956426492839"><ele>72.0</ele><time>2026-04-28T06:35:10.016Z</time></trkpt><trkpt lat="44.49171233254665" lon="11.229686079972105"><ele>72.0</ele><time>2026-04-28T06:35:12.016Z</time></trkpt><trkpt lat="44.49171987321678" lon="11.229804883880762"><ele>72.0</ele><time>2026-04-28T06:35:14.016Z</time></trkpt><trkpt lat="44.4917330773529" lon="11.229924318914131"><ele>72.0</ele><time>2026-04-28T06:35:16.016Z</time></trkpt><trkpt lat="44.49172483644918" lon="11.230028687944023"><ele>72.0</ele><time>2026-04-28T06:35:18.016Z</time></trkpt><trkpt lat="44.4916663857795" lon="11.230071145697156"><ele>72.0</ele><time>2026-04-28T06:35:20.016Z</time></trkpt><trkpt lat="44.491597358179234" lon="11.230106134006965"><ele>70.0</ele><time>2026-04-28T06:35:24.016Z</time></trkpt></trkseg><trkseg><trkpt lat="44.4916501035609" lon="11.230091990184805"><ele>70.0</ele><time>2026-04-28T07:02:20.017Z</time></trkpt><trkpt lat="44.49160590577895" lon="11.230027477989498"><ele>70.0</ele><time>2026-04-28T07:02:32.017Z</time></trkpt><trkpt lat="44.491543788937605" lon="11.229996154431868"><ele>70.0</ele><time>2026-04-28T07:03:10.015Z</time></trkpt><trkpt lat="44.491585918781354" lon="11.230079938884472"><ele>70.0</ele><time>2026-04-28T07:03:34.015Z</time></trkpt><trkpt lat="44.49162699822851" lon="11.230147078717193"><ele>70.0</ele><time>2026-04-28T07:03:40.015Z</time></trkpt><trkpt lat="44.49169723576835" lon="11.230165608480094"><ele>70.0</ele><time>2026-04-28T07:03:42.015Z</time></trkpt><trkpt lat="44.49176555704693" lon="11.230206749240146"><ele>70.0</ele><time>2026-04-28T07:03:44.015Z</time></trkpt><trkpt lat="44.49179935187955" lon="11.230352497359533"><ele>70.0</ele><time>2026-04-28T07:03:46.015Z</time></trkpt><trkpt lat="44.491835903159924" lon="11.23049727381637"><ele>70.0</ele><time>2026-04-28T07:03:48.015Z</time></trkpt><trkpt lat="44.4918894859105" lon="11.230658976375514"><ele>70.0</ele><time>2026-04-28T07:03:50.015Z</time></trkpt><trkpt lat="44.49191360987921" lon="11.23074629643902"><ele>70.0</ele><time>2026-04-28T07:03:51.015Z</time></trkpt><trkpt lat="44.49194319007846" lon="11.230898410094811"><ele>70.0</ele><time>2026-04-28T07:03:53.015Z</time></trkpt><trkpt lat="44.491968636023024" lon="11.231039628776623"><ele>69.8</ele><time>2026-04-28T07:03:55.015Z</time></trkpt><trkpt lat="44.491971707606005" lon="11.231174648358078"><ele>69.6</ele><time>2026-04-28T07:03:57.015Z</time></trkpt><trkpt lat="44.49195288775748" lon="11.23127504806013"><ele>69.4</ele><time>2026-04-28T07:03:58.015Z</time></trkpt><trkpt lat="44.491933584970155" lon="11.231375410316184"><ele>69.2</ele><time>2026-04-28T07:03:59.015Z</time></trkpt><trkpt lat="44.49193455861474" lon="11.231539397422628"><ele>69.0</ele><time>2026-04-28T07:04:01.015Z</time></trkpt><trkpt lat="44.492014241788816" lon="11.23166220899713"><ele>69.0</ele><time>2026-04-28T07:04:03.015Z</time></trkpt><trkpt lat="44.49209084990133" lon="11.2316630934296"><ele>69.0</ele><time>2026-04-28T07:04:04.015Z</time></trkpt><trkpt lat="44.49215496304981" lon="11.231581248046444"><ele>69.0</ele><time>2026-04-28T07:04:05.015Z</time></trkpt><trkpt lat="44.492179444536376" lon="11.231497721948577"><ele>69.0</ele><time>2026-04-28T07:04:06.015Z</time></trkpt><trkpt lat="44.492142099667554" lon="11.231375224103385"><ele>69.0</ele><time>2026-04-28T07:04:07.015Z</time></trkpt><trkpt lat="44.49211014248547" lon="11.231291087481315"><ele>69.0</ele><time>2026-04-28T07:04:08.015Z</time></trkpt><trkpt lat="44.49205309487818" lon="11.231200786668154"><ele>69.0</ele><time>2026-04-28T07:04:09.015Z</time></trkpt><trkpt lat="44.49202404776156" lon="11.231058461641338"><ele>69.0</ele><time>2026-04-28T07:04:10.015Z</time></trkpt><trkpt lat="44.49198809166489" lon="11.230929464848664"><ele>69.0</ele><time>2026-04-28T07:04:11.015Z</time></trkpt><trkpt lat="44.49196803760114" lon="11.230820183655789"><ele>69.0</ele><time>2026-04-28T07:04:12.015Z</time></trkpt><trkpt lat="44.4919493437861" lon="11.23073154150127"><ele>69.0</ele><time>2026-04-28T07:04:13.015Z</time></trkpt><trkpt lat="44.49190921785713" lon="11.230560684061269"><ele>69.2</ele><time>2026-04-28T07:04:15.015Z</time></trkpt><trkpt lat="44.49188920716202" lon="11.23047499015075"><ele>69.4</ele><time>2026-04-28T07:04:16.015Z</time></trkpt><trkpt lat="44.491849346246966" lon="11.230312471478541"><ele>69.6</ele><time>2026-04-28T07:04:18.015Z</time></trkpt><trkpt lat="44.49180344460155" lon="11.230142908585217"><ele>69.8</ele><time>2026-04-28T07:04:20.015Z</time></trkpt><trkpt lat="44.49177812874244" lon="11.229969833531488"><ele>70.0</ele><time>2026-04-28T07:04:22.015Z</time></trkpt><trkpt lat="44.491764305752206" lon="11.229874050936822"><ele>70.33333333333333</ele><time>2026-04-28T07:04:23.015Z</time></trkpt><trkpt lat="44.491764152627404" lon="11.22976457730483"><ele>70.66666666666666</ele><time>2026-04-28T07:04:24.015Z</time></trkpt><trkpt lat="44.491763075731456" lon="11.229662597840395"><ele>71.0</ele><time>2026-04-28T07:04:25.015Z</time></trkpt><trkpt lat="44.49175864441704" lon="11.229560644757289"><ele>71.33333333333333</ele><time>2026-04-28T07:04:26.015Z</time></trkpt><trkpt lat="44.49177288622255" lon="11.229473043920807"><ele>71.66666666666667</ele><time>2026-04-28T07:04:27.015Z</time></trkpt><trkpt lat="44.491790713916245" lon="11.229340269066805"><ele>72.0</ele><time>2026-04-28T07:04:28.015Z</time></trkpt><trkpt lat="44.49181196495871" lon="11.229224567346435"><ele>72.0</ele><time>2026-04-28T07:04:29.014Z</time></trkpt><trkpt lat="44.49183955192546" lon="11.229118435941851"><ele>72.0</ele><time>2026-04-28T07:04:30.012Z</time></trkpt><trkpt lat="44.491859809285366" lon="11.229013925750198"><ele>72.0</ele><time>2026-04-28T07:04:31.01Z</time></trkpt><trkpt lat="44.49188271036187" lon="11.228902866834778"><ele>72.0</ele><time>2026-04-28T07:04:32.008Z</time></trkpt><trkpt lat="44.4919036536429" lon="11.228790616210867"><ele>72.0</ele><time>2026-04-28T07:04:33.006Z</time></trkpt><trkpt lat="44.491915555904924" lon="11.22865652774209"><ele>72.0</ele><time>2026-04-28T07:04:34.005Z</time></trkpt><trkpt lat="44.491930828417914" lon="11.228533826791706"><ele>72.33333333333333</ele><time>2026-04-28T07:04:35.003Z</time></trkpt><trkpt lat="44.49193519330808" lon="11.228409019145017"><ele>72.66666666666667</ele><time>2026-04-28T07:04:36.002Z</time></trkpt><trkpt lat="44.49194071464277" lon="11.22830311726297"><ele>73.0</ele><time>2026-04-28T07:04:37Z</time></trkpt><trkpt lat="44.49193975159603" lon="11.228208705676717"><ele>73.33333333333334</ele><time>2026-04-28T07:04:37.999Z</time></trkpt><trkpt lat="44.491949471840655" lon="11.228116229639749"><ele>73.66666666666667</ele><time>2026-04-28T07:04:38.998Z</time></trkpt><trkpt lat="44.49196016991924" lon="11.227985036919577"><ele>74.0</ele><time>2026-04-28T07:04:40.996Z</time></trkpt><trkpt lat="44.49199453066079" lon="11.227817715305985"><ele>74.2</ele><time>2026-04-28T07:04:42.994Z</time></trkpt><trkpt lat="44.49207276857841" lon="11.227640354674307"><ele>74.4</ele><time>2026-04-28T07:04:44.992Z</time></trkpt><trkpt lat="44.49212479227568" lon="11.227543828478193"><ele>74.6</ele><time>2026-04-28T07:04:45.992Z</time></trkpt><trkpt lat="44.49215311886849" lon="11.227450754848109"><ele>74.8</ele><time>2026-04-28T07:04:46.991Z</time></trkpt><trkpt lat="44.49217844293349" lon="11.227354198542908"><ele>75.0</ele><time>2026-04-28T07:04:47.99Z</time></trkpt><trkpt lat="44.492188036278904" lon="11.227253936695076"><ele>75.0</ele><time>2026-04-28T07:04:48.99Z</time></trkpt><trkpt lat="44.492183069215244" lon="11.227158648704272"><ele>75.0</ele><time>2026-04-28T07:04:49.989Z</time></trkpt><trkpt lat="44.49216689000559" lon="11.227070903112796"><ele>75.0</ele><time>2026-04-28T07:04:50.989Z</time></trkpt><trkpt lat="44.492074479585355" lon="11.226921303538653"><ele>75.0</ele><time>2026-04-28T07:04:52.988Z</time></trkpt><trkpt lat="44.491981268331855" lon="11.226867125412385"><ele>75.0</ele><time>2026-04-28T07:04:53.987Z</time></trkpt><trkpt lat="44.49189392604844" lon="11.226839665645862"><ele>75.8</ele><time>2026-04-28T07:04:54.987Z</time></trkpt><trkpt lat="44.491805074740235" lon="11.226855154922141"><ele>76.6</ele><time>2026-04-28T07:04:55.986Z</time></trkpt><trkpt lat="44.491716643169056" lon="11.226893620783486"><ele>77.4</ele><time>2026-04-28T07:04:56.986Z</time></trkpt><trkpt lat="44.49162653599341" lon="11.226964151027156"><ele>78.2</ele><time>2026-04-28T07:04:57.986Z</time></trkpt><trkpt lat="44.49153903098504" lon="11.227037522024967"><ele>79.0</ele><time>2026-04-28T07:04:58.985Z</time></trkpt><trkpt lat="44.49145143020298" lon="11.227120918254204"><ele>79.0</ele><time>2026-04-28T07:04:59.985Z</time></trkpt><trkpt lat="44.49136035007416" lon="11.227208049518985"><ele>79.0</ele><time>2026-04-28T07:05:00.985Z</time></trkpt><trkpt lat="44.49125510679968" lon="11.227287602580617"><ele>79.0</ele><time>2026-04-28T07:05:01.983Z</time></trkpt><trkpt lat="44.49113475539918" lon="11.227360586601224"><ele>79.0</ele><time>2026-04-28T07:05:02.983Z</time></trkpt><trkpt lat="44.49101569185294" lon="11.227401166096856"><ele>78.0</ele><time>2026-04-28T07:05:03.983Z</time></trkpt><trkpt lat="44.49087536971443" lon="11.227433718352028"><ele>77.0</ele><time>2026-04-28T07:05:04.982Z</time></trkpt><trkpt lat="44.49073220304917" lon="11.227389055983341"><ele>76.0</ele><time>2026-04-28T07:05:05.982Z</time></trkpt><trkpt lat="44.4906063137382" lon="11.227364951364258"><ele>75.0</ele><time>2026-04-28T07:05:06.982Z</time></trkpt><trkpt lat="44.490488122150936" lon="11.227340520854325"><ele>75.0</ele><time>2026-04-28T07:05:07.982Z</time></trkpt><trkpt lat="44.490371694461786" lon="11.227312529719615"><ele>75.0</ele><time>2026-04-28T07:05:08.981Z</time></trkpt><trkpt lat="44.49026061809465" lon="11.227290239277954"><ele>75.0</ele><time>2026-04-28T07:05:09.981Z</time></trkpt><trkpt lat="44.490163246774046" lon="11.227268350737022"><ele>75.0</ele><time>2026-04-28T07:05:10.981Z</time></trkpt><trkpt lat="44.490067595613844" lon="11.227243478604914"><ele>75.0</ele><time>2026-04-28T07:05:11.981Z</time></trkpt><trkpt lat="44.48998302802528" lon="11.227220551315062"><ele>75.0</ele><time>2026-04-28T07:05:12.981Z</time></trkpt><trkpt lat="44.489848907786644" lon="11.227194202090002"><ele>75.0</ele><time>2026-04-28T07:05:14.98Z</time></trkpt><trkpt lat="44.48975935156697" lon="11.227182351823862"><ele>75.0</ele><time>2026-04-28T07:05:15.98Z</time></trkpt><trkpt lat="44.489679982862576" lon="11.227175438856843"><ele>75.0</ele><time>2026-04-28T07:05:16.98Z</time></trkpt><trkpt lat="44.489592475402844" lon="11.227163864317085"><ele>75.0</ele><time>2026-04-28T07:05:17.98Z</time></trkpt><trkpt lat="44.48949330250139" lon="11.22714219300326"><ele>75.25</ele><time>2026-04-28T07:05:18.979Z</time></trkpt><trkpt lat="44.48938970697791" lon="11.227118701072799"><ele>75.5</ele><time>2026-04-28T07:05:19.979Z</time></trkpt><trkpt lat="44.489277257615164" lon="11.22709746274245"><ele>75.75</ele><time>2026-04-28T07:05:20.979Z</time></trkpt><trkpt lat="44.48916036409417" lon="11.227073764208184"><ele>76.0</ele><time>2026-04-28T07:05:21.979Z</time></trkpt><trkpt lat="44.489045746448944" lon="11.227049346265998"><ele>76.0</ele><time>2026-04-28T07:05:22.979Z</time></trkpt><trkpt lat="44.48892516229013" lon="11.22702692884524"><ele>76.0</ele><time>2026-04-28T07:05:23.979Z</time></trkpt><trkpt lat="44.48880383658356" lon="11.227007953924407"><ele>76.0</ele><time>2026-04-28T07:05:24.979Z</time></trkpt><trkpt lat="44.488674745440235" lon="11.227003657118733"><ele>76.0</ele><time>2026-04-28T07:05:25.979Z</time></trkpt><trkpt lat="44.48855112918361" lon="11.22701240207621"><ele>76.6</ele><time>2026-04-28T07:05:26.979Z</time></trkpt><trkpt lat="44.48843535319115" lon="11.227037449905454"><ele>77.19999999999999</ele><time>2026-04-28T07:05:27.979Z</time></trkpt><trkpt lat="44.48833114885889" lon="11.227077946973044"><ele>77.80000000000001</ele><time>2026-04-28T07:05:28.979Z</time></trkpt><trkpt lat="44.488229449286514" lon="11.227102749739505"><ele>78.4</ele><time>2026-04-28T07:05:29.979Z</time></trkpt><trkpt lat="44.48814377324872" lon="11.227119392762736"><ele>79.0</ele><time>2026-04-28T07:05:30.979Z</time></trkpt><trkpt lat="44.48805933089931" lon="11.227112347125596"><ele>79.0</ele><time>2026-04-28T07:05:32.979Z</time></trkpt><trkpt lat="44.48799115187177" lon="11.227121043353568"><ele>79.0</ele><time>2026-04-28T07:05:34.978Z</time></trkpt><trkpt lat="44.48792200179533" lon="11.227084405907544"><ele>79.0</ele><time>2026-04-28T07:05:37.978Z</time></trkpt><trkpt lat="44.48785104620813" lon="11.22703773950456"><ele>79.0</ele><time>2026-04-28T07:05:39.978Z</time></trkpt><trkpt lat="44.48778581706809" lon="11.226979604206017"><ele>79.0</ele><time>2026-04-28T07:05:40.978Z</time></trkpt><trkpt lat="44.48772263885766" lon="11.22687933400509"><ele>79.0</ele><time>2026-04-28T07:05:41.978Z</time></trkpt><trkpt lat="44.487658077487744" lon="11.226767009427652"><ele>79.2</ele><time>2026-04-28T07:05:42.978Z</time></trkpt><trkpt lat="44.48757745561364" lon="11.226694511560417"><ele>79.4</ele><time>2026-04-28T07:05:43.978Z</time></trkpt><trkpt lat="44.48748042698262" lon="11.226631314511515"><ele>79.6</ele><time>2026-04-28T07:05:44.978Z</time></trkpt><trkpt lat="44.48737460823255" lon="11.226554849205527"><ele>79.8</ele><time>2026-04-28T07:05:45.978Z</time></trkpt><trkpt lat="44.48727119469797" lon="11.226493860824544"><ele>80.0</ele><time>2026-04-28T07:05:46.978Z</time></trkpt><trkpt lat="44.487173592362595" lon="11.226427241569318"><ele>80.2</ele><time>2026-04-28T07:05:47.978Z</time></trkpt><trkpt lat="44.48708446281148" lon="11.226360661717745"><ele>80.4</ele><time>2026-04-28T07:05:48.978Z</time></trkpt><trkpt lat="44.486991883660856" lon="11.22633222606986"><ele>80.6</ele><time>2026-04-28T07:05:49.978Z</time></trkpt><trkpt lat="44.486912802037835" lon="11.226243598745397"><ele>80.8</ele><time>2026-04-28T07:05:50.978Z</time></trkpt><trkpt lat="44.48682704106066" lon="11.226183468202361"><ele>81.0</ele><time>2026-04-28T07:05:51.978Z</time></trkpt><trkpt lat="44.486739975840976" lon="11.226120556660021"><ele>81.0</ele><time>2026-04-28T07:05:52.978Z</time></trkpt><trkpt lat="44.486652102871645" lon="11.226054739478847"><ele>81.0</ele><time>2026-04-28T07:05:53.978Z</time></trkpt><trkpt lat="44.48656095595097" lon="11.22599555475644"><ele>81.0</ele><time>2026-04-28T07:05:54.978Z</time></trkpt><trkpt lat="44.48646562414179" lon="11.225933940890604"><ele>81.0</ele><time>2026-04-28T07:05:55.978Z</time></trkpt><trkpt lat="44.48636537899475" lon="11.225867588402659"><ele>81.0</ele><time>2026-04-28T07:05:56.978Z</time></trkpt><trkpt lat="44.48626337369039" lon="11.225797387250358"><ele>80.6</ele><time>2026-04-28T07:05:57.978Z</time></trkpt><trkpt lat="44.486175142543736" lon="11.225738927221364"><ele>80.19999999999999</ele><time>2026-04-28T07:05:58.978Z</time></trkpt><trkpt lat="44.48607602270706" lon="11.22567322061756"><ele>79.80000000000001</ele><time>2026-04-28T07:05:59.978Z</time></trkpt><trkpt lat="44.48597488559053" lon="11.225608180557812"><ele>79.4</ele><time>2026-04-28T07:06:00.978Z</time></trkpt><trkpt lat="44.4858847338481" lon="11.225543859292104"><ele>79.0</ele><time>2026-04-28T07:06:01.978Z</time></trkpt><trkpt lat="44.48578677423334" lon="11.225478134851203"><ele>79.0</ele><time>2026-04-28T07:06:02.978Z</time></trkpt><trkpt lat="44.48570134605358" lon="11.225419591742256"><ele>79.0</ele><time>2026-04-28T07:06:03.978Z</time></trkpt><trkpt lat="44.48561716201213" lon="11.225366170842724"><ele>79.0</ele><time>2026-04-28T07:06:04.978Z</time></trkpt><trkpt lat="44.48555218095755" lon="11.225329235752552"><ele>79.0</ele><time>2026-04-28T07:06:05.978Z</time></trkpt><trkpt lat="44.48543187563419" lon="11.225262696017424"><ele>79.0</ele><time>2026-04-28T07:06:07.978Z</time></trkpt><trkpt lat="44.48536762159324" lon="11.225244749191903"><ele>79.16666666666666</ele><time>2026-04-28T07:06:08.978Z</time></trkpt><trkpt lat="44.48526055186644" lon="11.22519009339065"><ele>79.33333333333333</ele><time>2026-04-28T07:06:10.978Z</time></trkpt><trkpt lat="44.48513251758177" lon="11.225142946668965"><ele>79.5</ele><time>2026-04-28T07:06:12.978Z</time></trkpt><trkpt lat="44.48506629918834" lon="11.225125545662511"><ele>79.66666666666667</ele><time>2026-04-28T07:06:13.978Z</time></trkpt><trkpt lat="44.48500120081995" lon="11.225104805393968"><ele>79.83333333333334</ele><time>2026-04-28T07:06:14.978Z</time></trkpt><trkpt lat="44.48493883271817" lon="11.225087844956079"><ele>80.0</ele><time>2026-04-28T07:06:15.978Z</time></trkpt><trkpt lat="44.48487258691909" lon="11.225068849715877"><ele>80.0</ele><time>2026-04-28T07:06:16.978Z</time></trkpt><trkpt lat="44.48480646459618" lon="11.2250470296453"><ele>80.0</ele><time>2026-04-28T07:06:17.978Z</time></trkpt><trkpt lat="44.484727859811464" lon="11.225019600214825"><ele>80.0</ele><time>2026-04-28T07:06:18.978Z</time></trkpt><trkpt lat="44.4846462808996" lon="11.224997124164977"><ele>80.0</ele><time>2026-04-28T07:06:19.977Z</time></trkpt><trkpt lat="44.484566879736114" lon="11.224968656602792"><ele>80.0</ele><time>2026-04-28T07:06:20.977Z</time></trkpt><trkpt lat="44.48447989870115" lon="11.224947108124548"><ele>80.0</ele><time>2026-04-28T07:06:21.977Z</time></trkpt><trkpt lat="44.48438558796603" lon="11.22492157292743"><ele>80.0</ele><time>2026-04-28T07:06:22.977Z</time></trkpt><trkpt lat="44.48429054522933" lon="11.224894828103299"><ele>80.0</ele><time>2026-04-28T07:06:23.977Z</time></trkpt><trkpt lat="44.48418578781524" lon="11.224871060464045"><ele>80.0</ele><time>2026-04-28T07:06:24.977Z</time></trkpt><trkpt lat="44.48408369930579" lon="11.22484565113572"><ele>80.0</ele><time>2026-04-28T07:06:25.977Z</time></trkpt><trkpt lat="44.48397873662929" lon="11.224817484159582"><ele>80.0</ele><time>2026-04-28T07:06:26.977Z</time></trkpt><trkpt lat="44.483870866500396" lon="11.224789148101337"><ele>80.0</ele><time>2026-04-28T07:06:27.977Z</time></trkpt><trkpt lat="44.48376555626252" lon="11.224765920864197"><ele>80.0</ele><time>2026-04-28T07:06:28.977Z</time></trkpt><trkpt lat="44.48365930271303" lon="11.22473055392902"><ele>80.0</ele><time>2026-04-28T07:06:29.977Z</time></trkpt><trkpt lat="44.48355699438962" lon="11.224699662959711"><ele>80.0</ele><time>2026-04-28T07:06:30.977Z</time></trkpt><trkpt lat="44.48344958194512" lon="11.224676176732078"><ele>80.0</ele><time>2026-04-28T07:06:31.977Z</time></trkpt><trkpt lat="44.483337725913664" lon="11.224645371657424"><ele>79.75</ele><time>2026-04-28T07:06:32.977Z</time></trkpt><trkpt lat="44.483223080278286" lon="11.224612781175283"><ele>79.5</ele><time>2026-04-28T07:06:33.977Z</time></trkpt><trkpt lat="44.483105589288954" lon="11.224579990736013"><ele>79.25</ele><time>2026-04-28T07:06:34.977Z</time></trkpt><trkpt lat="44.482988007790695" lon="11.22454348016092"><ele>79.0</ele><time>2026-04-28T07:06:35.977Z</time></trkpt><trkpt lat="44.48287328084972" lon="11.224505616108411"><ele>79.5</ele><time>2026-04-28T07:06:36.977Z</time></trkpt><trkpt lat="44.48275808546661" lon="11.224474473214928"><ele>80.0</ele><time>2026-04-28T07:06:37.977Z</time></trkpt><trkpt lat="44.482642966369994" lon="11.224438586102144"><ele>80.5</ele><time>2026-04-28T07:06:38.977Z</time></trkpt><trkpt lat="44.48252600191403" lon="11.22439595648748"><ele>81.0</ele><time>2026-04-28T07:06:39.977Z</time></trkpt><trkpt lat="44.482402612555" lon="11.224357564776897"><ele>81.0</ele><time>2026-04-28T07:06:40.977Z</time></trkpt><trkpt lat="44.48227868704165" lon="11.224316483758443"><ele>81.0</ele><time>2026-04-28T07:06:41.977Z</time></trkpt><trkpt lat="44.4821585094068" lon="11.224280549999023"><ele>81.0</ele><time>2026-04-28T07:06:42.977Z</time></trkpt><trkpt lat="44.48203723045969" lon="11.224258142376456"><ele>81.0</ele><time>2026-04-28T07:06:43.977Z</time></trkpt><trkpt lat="44.481924911728534" lon="11.224232854355542"><ele>81.5</ele><time>2026-04-28T07:06:44.977Z</time></trkpt><trkpt lat="44.48181130775149" lon="11.224200482912353"><ele>82.0</ele><time>2026-04-28T07:06:45.977Z</time></trkpt><trkpt lat="44.48169468356975" lon="11.224165028320211"><ele>82.5</ele><time>2026-04-28T07:06:46.977Z</time></trkpt><trkpt lat="44.48158257172408" lon="11.22412491992959"><ele>83.0</ele><time>2026-04-28T07:06:47.977Z</time></trkpt><trkpt lat="44.48147988901701" lon="11.22408680360739"><ele>83.0</ele><time>2026-04-28T07:06:48.977Z</time></trkpt><trkpt lat="44.481374995123964" lon="11.22405083766853"><ele>83.0</ele><time>2026-04-28T07:06:49.977Z</time></trkpt><trkpt lat="44.4812602269901" lon="11.224026258390104"><ele>83.0</ele><time>2026-04-28T07:06:50.977Z</time></trkpt><trkpt lat="44.48114620464734" lon="11.223995400803796"><ele>83.0</ele><time>2026-04-28T07:06:51.977Z</time></trkpt><trkpt lat="44.48102522668046" lon="11.223966177491436"><ele>82.5</ele><time>2026-04-28T07:06:52.977Z</time></trkpt><trkpt lat="44.480899560916335" lon="11.223922715805626"><ele>82.0</ele><time>2026-04-28T07:06:53.977Z</time></trkpt><trkpt lat="44.480769150498915" lon="11.223890784250367"><ele>81.5</ele><time>2026-04-28T07:06:54.977Z</time></trkpt><trkpt lat="44.480623344049256" lon="11.223846087319197"><ele>81.0</ele><time>2026-04-28T07:06:55.977Z</time></trkpt><trkpt lat="44.48048385703158" lon="11.223800616381935"><ele>81.25</ele><time>2026-04-28T07:06:56.977Z</time></trkpt><trkpt lat="44.48034656587979" lon="11.223779708741754"><ele>81.5</ele><time>2026-04-28T07:06:57.977Z</time></trkpt><trkpt lat="44.48021225753584" lon="11.22373372748884"><ele>81.75</ele><time>2026-04-28T07:06:58.977Z</time></trkpt><trkpt lat="44.480084984150935" lon="11.223698285663312"><ele>82.0</ele><time>2026-04-28T07:06:59.977Z</time></trkpt><trkpt lat="44.47994781123426" lon="11.223650629673482"><ele>82.0</ele><time>2026-04-28T07:07:00.977Z</time></trkpt><trkpt lat="44.47981075877811" lon="11.22360868441536"><ele>82.0</ele><time>2026-04-28T07:07:01.977Z</time></trkpt><trkpt lat="44.479680523628765" lon="11.223570473412849"><ele>82.0</ele><time>2026-04-28T07:07:02.977Z</time></trkpt><trkpt lat="44.47956235171291" lon="11.223542490072571"><ele>82.0</ele><time>2026-04-28T07:07:03.977Z</time></trkpt><trkpt lat="44.479435510271394" lon="11.223510475956987"><ele>83.0</ele><time>2026-04-28T07:07:04.977Z</time></trkpt><trkpt lat="44.479307931489366" lon="11.223462790532963"><ele>84.0</ele><time>2026-04-28T07:07:05.977Z</time></trkpt><trkpt lat="44.47918157618021" lon="11.223426617491729"><ele>85.0</ele><time>2026-04-28T07:07:06.977Z</time></trkpt><trkpt lat="44.47906694090847" lon="11.223395926165926"><ele>86.0</ele><time>2026-04-28T07:07:07.977Z</time></trkpt><trkpt lat="44.478958306250945" lon="11.22335892296254"><ele>86.0</ele><time>2026-04-28T07:07:08.976Z</time></trkpt><trkpt lat="44.478842482402115" lon="11.22331954289962"><ele>86.0</ele><time>2026-04-28T07:07:09.976Z</time></trkpt><trkpt lat="44.478727504800815" lon="11.223271741732503"><ele>86.0</ele><time>2026-04-28T07:07:10.977Z</time></trkpt><trkpt lat="44.47861476278994" lon="11.223208283446054"><ele>86.0</ele><time>2026-04-28T07:07:11.976Z</time></trkpt><trkpt lat="44.47850366663746" lon="11.223131643247557"><ele>86.0</ele><time>2026-04-28T07:07:12.976Z</time></trkpt><trkpt lat="44.47839970705256" lon="11.223050759136918"><ele>86.0</ele><time>2026-04-28T07:07:13.977Z</time></trkpt><trkpt lat="44.47829802593166" lon="11.222958791662323"><ele>86.0</ele><time>2026-04-28T07:07:14.976Z</time></trkpt><trkpt lat="44.4781964227922" lon="11.222844621349774"><ele>86.0</ele><time>2026-04-28T07:07:15.976Z</time></trkpt><trkpt lat="44.47809813758575" lon="11.222707661682913"><ele>86.0</ele><time>2026-04-28T07:07:16.976Z</time></trkpt><trkpt lat="44.4780025815961" lon="11.222558967633837"><ele>86.0</ele><time>2026-04-28T07:07:17.976Z</time></trkpt><trkpt lat="44.47791242756881" lon="11.222396101826066"><ele>86.0</ele><time>2026-04-28T07:07:18.976Z</time></trkpt><trkpt lat="44.47783020575069" lon="11.222214350509843"><ele>86.0</ele><time>2026-04-28T07:07:19.976Z</time></trkpt><trkpt lat="44.477754858346174" lon="11.222017798834436"><ele>88.0</ele><time>2026-04-28T07:07:20.976Z</time></trkpt><trkpt lat="44.47769980325426" lon="11.221813330601409"><ele>90.0</ele><time>2026-04-28T07:07:21.976Z</time></trkpt><trkpt lat="44.47765722515551" lon="11.221606165463273"><ele>92.0</ele><time>2026-04-28T07:07:22.976Z</time></trkpt><trkpt lat="44.47761968455185" lon="11.221412663240857"><ele>92.0</ele><time>2026-04-28T07:07:23.976Z</time></trkpt><trkpt lat="44.47758426411641" lon="11.221224449244346"><ele>92.0</ele><time>2026-04-28T07:07:24.976Z</time></trkpt><trkpt lat="44.47754040726944" lon="11.221054430352224"><ele>92.0</ele><time>2026-04-28T07:07:25.976Z</time></trkpt><trkpt lat="44.47748403740399" lon="11.220887104360386"><ele>92.0</ele><time>2026-04-28T07:07:26.976Z</time></trkpt><trkpt lat="44.4774130250582" lon="11.220738434513672"><ele>91.75</ele><time>2026-04-28T07:07:27.976Z</time></trkpt><trkpt lat="44.47733446868845" lon="11.220601428246631"><ele>91.5</ele><time>2026-04-28T07:07:28.976Z</time></trkpt><trkpt lat="44.47726004939648" lon="11.220467723385203"><ele>91.25</ele><time>2026-04-28T07:07:29.976Z</time></trkpt><trkpt lat="44.47719852522592" lon="11.220319515112637"><ele>91.0</ele><time>2026-04-28T07:07:30.976Z</time></trkpt><trkpt lat="44.47712135103506" lon="11.220187050302789"><ele>91.5</ele><time>2026-04-28T07:07:31.976Z</time></trkpt><trkpt lat="44.47703109497981" lon="11.220068146522955"><ele>92.0</ele><time>2026-04-28T07:07:32.976Z</time></trkpt><trkpt lat="44.47696049115909" lon="11.219937646620936"><ele>92.5</ele><time>2026-04-28T07:07:33.976Z</time></trkpt><trkpt lat="44.47689169870461" lon="11.219821000345698"><ele>93.0</ele><time>2026-04-28T07:07:34.976Z</time></trkpt><trkpt lat="44.476827434096045" lon="11.21969612101214"><ele>92.0</ele><time>2026-04-28T07:07:35.976Z</time></trkpt><trkpt lat="44.47675375128587" lon="11.219584240588562"><ele>91.0</ele><time>2026-04-28T07:07:36.976Z</time></trkpt><trkpt lat="44.47668407920204" lon="11.219457215142562"><ele>90.0</ele><time>2026-04-28T07:07:37.976Z</time></trkpt><trkpt lat="44.4766190423586" lon="11.21933744777131"><ele>89.0</ele><time>2026-04-28T07:07:38.976Z</time></trkpt><trkpt lat="44.476557650410896" lon="11.219223824821047"><ele>88.0</ele><time>2026-04-28T07:07:39.976Z</time></trkpt><trkpt lat="44.47649844473027" lon="11.219116460942798"><ele>88.0</ele><time>2026-04-28T07:07:40.976Z</time></trkpt><trkpt lat="44.476430295742865" lon="11.219000763403153"><ele>88.0</ele><time>2026-04-28T07:07:41.976Z</time></trkpt><trkpt lat="44.4763737152705" lon="11.218891266658744"><ele>88.0</ele><time>2026-04-28T07:07:42.976Z</time></trkpt><trkpt lat="44.47630688025411" lon="11.21877177993181"><ele>88.0</ele><time>2026-04-28T07:07:43.976Z</time></trkpt><trkpt lat="44.47624584997419" lon="11.218662288900928"><ele>88.0</ele><time>2026-04-28T07:07:44.976Z</time></trkpt><trkpt lat="44.47617703285979" lon="11.218532775048326"><ele>88.0</ele><time>2026-04-28T07:07:45.976Z</time></trkpt><trkpt lat="44.476108040938485" lon="11.218414862281428"><ele>88.0</ele><time>2026-04-28T07:07:46.976Z</time></trkpt><trkpt lat="44.476038129011314" lon="11.218289116296145"><ele>88.0</ele><time>2026-04-28T07:07:47.976Z</time></trkpt><trkpt lat="44.47596644428662" lon="11.21815186867833"><ele>88.0</ele><time>2026-04-28T07:07:48.976Z</time></trkpt><trkpt lat="44.47590510557269" lon="11.218014878575543"><ele>87.5</ele><time>2026-04-28T07:07:49.976Z</time></trkpt><trkpt lat="44.47584238029082" lon="11.217873701896904"><ele>87.0</ele><time>2026-04-28T07:07:50.976Z</time></trkpt><trkpt lat="44.475780112939084" lon="11.217733827243578"><ele>86.5</ele><time>2026-04-28T07:07:51.976Z</time></trkpt><trkpt lat="44.475721419066936" lon="11.21758944885206"><ele>86.0</ele><time>2026-04-28T07:07:52.976Z</time></trkpt><trkpt lat="44.47566545675072" lon="11.217441763390225"><ele>85.75</ele><time>2026-04-28T07:07:53.976Z</time></trkpt><trkpt lat="44.47560982951579" lon="11.217287574832557"><ele>85.5</ele><time>2026-04-28T07:07:54.976Z</time></trkpt><trkpt lat="44.475557744928366" lon="11.217132701223571"><ele>85.25</ele><time>2026-04-28T07:07:55.976Z</time></trkpt><trkpt lat="44.475504116450004" lon="11.216974479144623"><ele>85.0</ele><time>2026-04-28T07:07:56.976Z</time></trkpt><trkpt lat="44.47545525300318" lon="11.216828844144311"><ele>86.2</ele><time>2026-04-28T07:07:57.976Z</time></trkpt><trkpt lat="44.47541096032021" lon="11.216686822531223"><ele>87.4</ele><time>2026-04-28T07:07:58.976Z</time></trkpt><trkpt lat="44.47536933202252" lon="11.216552903110854"><ele>88.6</ele><time>2026-04-28T07:07:59.976Z</time></trkpt><trkpt lat="44.47533541634465" lon="11.216415550620946"><ele>89.8</ele><time>2026-04-28T07:08:00.976Z</time></trkpt><trkpt lat="44.47530063766694" lon="11.216265440600226"><ele>91.0</ele><time>2026-04-28T07:08:01.976Z</time></trkpt><trkpt lat="44.47527162989954" lon="11.216115049569382"><ele>91.4</ele><time>2026-04-28T07:08:02.976Z</time></trkpt><trkpt lat="44.47525135610155" lon="11.215963261630577"><ele>91.8</ele><time>2026-04-28T07:08:03.976Z</time></trkpt><trkpt lat="44.47523170751075" lon="11.21581131809987"><ele>92.2</ele><time>2026-04-28T07:08:04.976Z</time></trkpt><trkpt lat="44.47521507334927" lon="11.21565512335556"><ele>92.60000000000001</ele><time>2026-04-28T07:08:05.976Z</time></trkpt><trkpt lat="44.47519169163509" lon="11.215505728942821"><ele>93.0</ele><time>2026-04-28T07:08:06.976Z</time></trkpt><trkpt lat="44.475170956816356" lon="11.215352401272309"><ele>93.5</ele><time>2026-04-28T07:08:07.976Z</time></trkpt><trkpt lat="44.47514920371492" lon="11.215204639717944"><ele>94.0</ele><time>2026-04-28T07:08:08.976Z</time></trkpt><trkpt lat="44.475117712535095" lon="11.21505204712704"><ele>94.5</ele><time>2026-04-28T07:08:09.976Z</time></trkpt><trkpt lat="44.47508668626452" lon="11.214892056389633"><ele>95.0</ele><time>2026-04-28T07:08:10.976Z</time></trkpt><trkpt lat="44.47503581313439" lon="11.214726069042408"><ele>95.0</ele><time>2026-04-28T07:08:11.976Z</time></trkpt><trkpt lat="44.47497201451054" lon="11.214555824837872"><ele>95.0</ele><time>2026-04-28T07:08:12.976Z</time></trkpt><trkpt lat="44.47489319862145" lon="11.214387255264244"><ele>95.0</ele><time>2026-04-28T07:08:13.976Z</time></trkpt><trkpt lat="44.474802950241276" lon="11.214224582607995"><ele>95.0</ele><time>2026-04-28T07:08:14.976Z</time></trkpt><trkpt lat="44.47470537612075" lon="11.21407329365212"><ele>95.25</ele><time>2026-04-28T07:08:15.976Z</time></trkpt><trkpt lat="44.47459735052" lon="11.213929023059201"><ele>95.5</ele><time>2026-04-28T07:08:16.976Z</time></trkpt><trkpt lat="44.47448981394171" lon="11.213793238495482"><ele>95.75</ele><time>2026-04-28T07:08:17.975Z</time></trkpt><trkpt lat="44.4743823168097" lon="11.213659186672963"><ele>96.0</ele><time>2026-04-28T07:08:18.975Z</time></trkpt><trkpt lat="44.47427961169404" lon="11.213525221240092"><ele>96.0</ele><time>2026-04-28T07:08:19.975Z</time></trkpt><trkpt lat="44.474178672018" lon="11.21338494191481"><ele>96.0</ele><time>2026-04-28T07:08:20.975Z</time></trkpt><trkpt lat="44.47407381683096" lon="11.213235073970807"><ele>96.0</ele><time>2026-04-28T07:08:21.975Z</time></trkpt><trkpt lat="44.47398352743831" lon="11.21307654499515"><ele>96.0</ele><time>2026-04-28T07:08:22.975Z</time></trkpt><trkpt lat="44.473893757958905" lon="11.21290409899194"><ele>97.0</ele><time>2026-04-28T07:08:23.975Z</time></trkpt><trkpt lat="44.473811025305565" lon="11.212714360720488"><ele>98.0</ele><time>2026-04-28T07:08:24.975Z</time></trkpt><trkpt lat="44.473736277591684" lon="11.21250172444067"><ele>99.0</ele><time>2026-04-28T07:08:25.975Z</time></trkpt><trkpt lat="44.47365332397138" lon="11.212279932156667"><ele>99.0</ele><time>2026-04-28T07:08:26.975Z</time></trkpt><trkpt lat="44.47359145432797" lon="11.212050348347997"><ele>99.0</ele><time>2026-04-28T07:08:27.975Z</time></trkpt><trkpt lat="44.473514707115484" lon="11.211834138716176"><ele>99.0</ele><time>2026-04-28T07:08:28.975Z</time></trkpt><trkpt lat="44.473433449996655" lon="11.211645347092603"><ele>98.33333333333334</ele><time>2026-04-28T07:08:29.975Z</time></trkpt><trkpt lat="44.47332565459518" lon="11.21144942774126"><ele>97.66666666666667</ele><time>2026-04-28T07:08:30.975Z</time></trkpt><trkpt lat="44.47323376232495" lon="11.211247471801096"><ele>97.0</ele><time>2026-04-28T07:08:31.975Z</time></trkpt><trkpt lat="44.47313822119226" lon="11.211037968542898"><ele>97.0</ele><time>2026-04-28T07:08:32.975Z</time></trkpt><trkpt lat="44.47303810912592" lon="11.210823762950906"><ele>97.0</ele><time>2026-04-28T07:08:33.975Z</time></trkpt><trkpt lat="44.472940403640415" lon="11.21061480560155"><ele>97.0</ele><time>2026-04-28T07:08:34.975Z</time></trkpt><trkpt lat="44.47283402466801" lon="11.210406164876861"><ele>98.0</ele><time>2026-04-28T07:08:35.975Z</time></trkpt><trkpt lat="44.47273410853458" lon="11.21019599196857"><ele>99.0</ele><time>2026-04-28T07:08:36.975Z</time></trkpt><trkpt lat="44.47265049332965" lon="11.209994771352147"><ele>100.0</ele><time>2026-04-28T07:08:37.975Z</time></trkpt><trkpt lat="44.47256685691531" lon="11.209777409591387"><ele>100.0</ele><time>2026-04-28T07:08:38.975Z</time></trkpt><trkpt lat="44.47249701903346" lon="11.209564473188701"><ele>100.0</ele><time>2026-04-28T07:08:39.975Z</time></trkpt><trkpt lat="44.47243698363966" lon="11.209355001178269"><ele>100.0</ele><time>2026-04-28T07:08:40.975Z</time></trkpt><trkpt lat="44.472384259437476" lon="11.209131970343678"><ele>101.33333333333334</ele><time>2026-04-28T07:08:41.975Z</time></trkpt><trkpt lat="44.47235533770769" lon="11.208915391958584"><ele>102.66666666666666</ele><time>2026-04-28T07:08:42.975Z</time></trkpt><trkpt lat="44.472336139131784" lon="11.208695937569892"><ele>104.0</ele><time>2026-04-28T07:08:43.975Z</time></trkpt><trkpt lat="44.47231622588412" lon="11.208494232452846"><ele>104.0</ele><time>2026-04-28T07:08:44.975Z</time></trkpt><trkpt lat="44.472296525688634" lon="11.20829997288575"><ele>104.0</ele><time>2026-04-28T07:08:45.975Z</time></trkpt><trkpt lat="44.4722765459328" lon="11.208117294505723"><ele>104.0</ele><time>2026-04-28T07:08:46.975Z</time></trkpt><trkpt lat="44.47225656149671" lon="11.207946416471348"><ele>104.0</ele><time>2026-04-28T07:08:47.975Z</time></trkpt><trkpt lat="44.472228818508306" lon="11.207770133096819"><ele>104.5</ele><time>2026-04-28T07:08:48.975Z</time></trkpt><trkpt lat="44.47219021608136" lon="11.207597008305445"><ele>105.0</ele><time>2026-04-28T07:08:49.975Z</time></trkpt><trkpt lat="44.47214473019632" lon="11.207427890129274"><ele>105.5</ele><time>2026-04-28T07:08:50.975Z</time></trkpt><trkpt lat="44.47209495015801" lon="11.207256659311328"><ele>106.0</ele><time>2026-04-28T07:08:51.975Z</time></trkpt><trkpt lat="44.47204200979941" lon="11.207088021310597"><ele>106.0</ele><time>2026-04-28T07:08:52.975Z</time></trkpt><trkpt lat="44.47199083481118" lon="11.206910436917727"><ele>106.0</ele><time>2026-04-28T07:08:53.975Z</time></trkpt><trkpt lat="44.47192891869029" lon="11.206732757263788"><ele>106.0</ele><time>2026-04-28T07:08:54.975Z</time></trkpt><trkpt lat="44.471865180666896" lon="11.206556742057813"><ele>106.0</ele><time>2026-04-28T07:08:55.975Z</time></trkpt><trkpt lat="44.471787751376276" lon="11.206390117880847"><ele>105.33333333333334</ele><time>2026-04-28T07:08:56.975Z</time></trkpt><trkpt lat="44.47170378087508" lon="11.206216031996783"><ele>104.66666666666666</ele><time>2026-04-28T07:08:57.975Z</time></trkpt><trkpt lat="44.471601777007486" lon="11.206062145799027"><ele>104.0</ele><time>2026-04-28T07:08:58.975Z</time></trkpt><trkpt lat="44.47148850706465" lon="11.205904930996736"><ele>104.0</ele><time>2026-04-28T07:08:59.975Z</time></trkpt><trkpt lat="44.47135980157108" lon="11.205768686942342"><ele>104.0</ele><time>2026-04-28T07:09:00.975Z</time></trkpt><trkpt lat="44.47121058222513" lon="11.20565960487939"><ele>104.0</ele><time>2026-04-28T07:09:01.975Z</time></trkpt><trkpt lat="44.47104290418213" lon="11.205567986874662"><ele>106.0</ele><time>2026-04-28T07:09:02.975Z</time></trkpt><trkpt lat="44.47087946559283" lon="11.205502325816772"><ele>108.0</ele><time>2026-04-28T07:09:03.975Z</time></trkpt><trkpt lat="44.470740116995245" lon="11.205447275406602"><ele>110.0</ele><time>2026-04-28T07:09:04.975Z</time></trkpt><trkpt lat="44.47061618193514" lon="11.20533653172255"><ele>110.0</ele><time>2026-04-28T07:09:05.975Z</time></trkpt><trkpt lat="44.4704881472779" lon="11.205227913306398"><ele>110.0</ele><time>2026-04-28T07:09:06.975Z</time></trkpt><trkpt lat="44.47036630893566" lon="11.20510699626777"><ele>110.0</ele><time>2026-04-28T07:09:07.975Z</time></trkpt><trkpt lat="44.470242913848345" lon="11.204993465332379"><ele>110.0</ele><time>2026-04-28T07:09:08.975Z</time></trkpt><trkpt lat="44.470123129196985" lon="11.204855717125968"><ele>109.66666666666666</ele><time>2026-04-28T07:09:09.975Z</time></trkpt><trkpt lat="44.47000632160886" lon="11.204699534833043"><ele>109.33333333333334</ele><time>2026-04-28T07:09:10.975Z</time></trkpt><trkpt lat="44.469913986213044" lon="11.204519149032205"><ele>109.0</ele><time>2026-04-28T07:09:11.975Z</time></trkpt><trkpt lat="44.4698090573442" lon="11.20434030115622"><ele>109.0</ele><time>2026-04-28T07:09:12.975Z</time></trkpt><trkpt lat="44.469705421946614" lon="11.204157031458653"><ele>109.0</ele><time>2026-04-28T07:09:13.974Z</time></trkpt><trkpt lat="44.46960894224884" lon="11.204000424666111"><ele>109.0</ele><time>2026-04-28T07:09:14.974Z</time></trkpt><trkpt lat="44.46950151050989" lon="11.203803578948039"><ele>109.33333333333334</ele><time>2026-04-28T07:09:15.974Z</time></trkpt><trkpt lat="44.46940601599363" lon="11.203628447951044"><ele>109.66666666666666</ele><time>2026-04-28T07:09:16.974Z</time></trkpt><trkpt lat="44.46929660654192" lon="11.203439389254454"><ele>110.0</ele><time>2026-04-28T07:09:17.974Z</time></trkpt><trkpt lat="44.46919578164219" lon="11.203255504894296"><ele>109.66666666666666</ele><time>2026-04-28T07:09:18.974Z</time></trkpt><trkpt lat="44.4690847595292" lon="11.203091996227267"><ele>109.33333333333334</ele><time>2026-04-28T07:09:19.974Z</time></trkpt><trkpt lat="44.46898287548013" lon="11.202928912256601"><ele>109.0</ele><time>2026-04-28T07:09:20.973Z</time></trkpt><trkpt lat="44.468887572363386" lon="11.202774929412382"><ele>109.0</ele><time>2026-04-28T07:09:21.973Z</time></trkpt><trkpt lat="44.468794145143505" lon="11.202634150578692"><ele>109.0</ele><time>2026-04-28T07:09:22.974Z</time></trkpt><trkpt lat="44.46870985339911" lon="11.202498543466694"><ele>109.0</ele><time>2026-04-28T07:09:23.974Z</time></trkpt><trkpt lat="44.468639647786766" lon="11.202377187991166"><ele>109.0</ele><time>2026-04-28T07:09:24.974Z</time></trkpt><trkpt lat="44.46857850921261" lon="11.202229924691808"><ele>109.2</ele><time>2026-04-28T07:09:25.974Z</time></trkpt><trkpt lat="44.468506464843266" lon="11.20210800207698"><ele>109.4</ele><time>2026-04-28T07:09:26.974Z</time></trkpt><trkpt lat="44.46844874038935" lon="11.201995482162578"><ele>109.6</ele><time>2026-04-28T07:09:27.974Z</time></trkpt><trkpt lat="44.46837853945129" lon="11.201881745046965"><ele>109.8</ele><time>2026-04-28T07:09:28.974Z</time></trkpt><trkpt lat="44.46828589606383" lon="11.20178381211839"><ele>110.0</ele><time>2026-04-28T07:09:29.974Z</time></trkpt><trkpt lat="44.46816984371185" lon="11.201723457360357"><ele>110.0</ele><time>2026-04-28T07:09:30.974Z</time></trkpt><trkpt lat="44.4680362374902" lon="11.201708375606863"><ele>110.0</ele><time>2026-04-28T07:09:31.974Z</time></trkpt><trkpt lat="44.46789413635696" lon="11.201718487892046"><ele>110.0</ele><time>2026-04-28T07:09:32.974Z</time></trkpt><trkpt lat="44.46773847491127" lon="11.201726114129878"><ele>110.0</ele><time>2026-04-28T07:09:33.974Z</time></trkpt><trkpt lat="44.46757429169503" lon="11.201744284451369"><ele>108.33333333333333</ele><time>2026-04-28T07:09:34.974Z</time></trkpt><trkpt lat="44.467394541965675" lon="11.201764325842507"><ele>106.66666666666666</ele><time>2026-04-28T07:09:35.974Z</time></trkpt><trkpt lat="44.46722779752907" lon="11.20178011159888"><ele>105.0</ele><time>2026-04-28T07:09:36.974Z</time></trkpt><trkpt lat="44.46706122453437" lon="11.201778666228828"><ele>105.0</ele><time>2026-04-28T07:09:37.974Z</time></trkpt><trkpt lat="44.46689499601899" lon="11.201756629925182"><ele>105.0</ele><time>2026-04-28T07:09:38.974Z</time></trkpt><trkpt lat="44.466728551420175" lon="11.201709888799881"><ele>105.0</ele><time>2026-04-28T07:09:39.974Z</time></trkpt><trkpt lat="44.46656511595081" lon="11.20164614406874"><ele>105.0</ele><time>2026-04-28T07:09:40.974Z</time></trkpt><trkpt lat="44.466405540396856" lon="11.201564044497392"><ele>105.0</ele><time>2026-04-28T07:09:41.974Z</time></trkpt><trkpt lat="44.46624628794726" lon="11.201458609573457"><ele>105.0</ele><time>2026-04-28T07:09:42.974Z</time></trkpt><trkpt lat="44.466090032694325" lon="11.201364958607188"><ele>103.33333333333334</ele><time>2026-04-28T07:09:43.974Z</time></trkpt><trkpt lat="44.46594718945733" lon="11.201280041483768"><ele>101.66666666666667</ele><time>2026-04-28T07:09:44.974Z</time></trkpt><trkpt lat="44.46580001310971" lon="11.201187485315419"><ele>100.0</ele><time>2026-04-28T07:09:45.973Z</time></trkpt><trkpt lat="44.46566384676036" lon="11.20110623699486"><ele>100.0</ele><time>2026-04-28T07:09:46.973Z</time></trkpt><trkpt lat="44.46553267205396" lon="11.201022012261545"><ele>100.0</ele><time>2026-04-28T07:09:47.973Z</time></trkpt><trkpt lat="44.465404741992224" lon="11.200936827436784"><ele>100.0</ele><time>2026-04-28T07:09:48.973Z</time></trkpt><trkpt lat="44.465276439476135" lon="11.200852442461459"><ele>100.0</ele><time>2026-04-28T07:09:49.973Z</time></trkpt><trkpt lat="44.46515471198656" lon="11.200769667533034"><ele>100.75</ele><time>2026-04-28T07:09:50.973Z</time></trkpt><trkpt lat="44.46504197583408" lon="11.200695959896688"><ele>101.5</ele><time>2026-04-28T07:09:51.973Z</time></trkpt><trkpt lat="44.46493182745673" lon="11.200619279460568"><ele>102.25</ele><time>2026-04-28T07:09:52.973Z</time></trkpt><trkpt lat="44.46482704212623" lon="11.200548988682593"><ele>103.0</ele><time>2026-04-28T07:09:53.973Z</time></trkpt><trkpt lat="44.46473027106402" lon="11.200483366624512"><ele>103.0</ele><time>2026-04-28T07:09:54.973Z</time></trkpt><trkpt lat="44.46463688061911" lon="11.20041445740526"><ele>103.0</ele><time>2026-04-28T07:09:55.973Z</time></trkpt><trkpt lat="44.464548615499794" lon="11.200328737736942"><ele>103.0</ele><time>2026-04-28T07:09:56.973Z</time></trkpt><trkpt lat="44.46447830922379" lon="11.200231991441512"><ele>103.0</ele><time>2026-04-28T07:09:57.973Z</time></trkpt><trkpt lat="44.46443157897268" lon="11.200122407271152"><ele>103.0</ele><time>2026-04-28T07:09:58.973Z</time></trkpt><trkpt lat="44.46441984020277" lon="11.200009063209695"><ele>103.00000000000001</ele><time>2026-04-28T07:09:59.973Z</time></trkpt><trkpt lat="44.46443828293912" lon="11.199898800510985"><ele>103.0</ele><time>2026-04-28T07:10:00.973Z</time></trkpt><trkpt lat="44.46447683348123" lon="11.199791660495741"><ele>103.0</ele><time>2026-04-28T07:10:01.973Z</time></trkpt><trkpt lat="44.464519076079554" lon="11.199668045826055"><ele>103.0</ele><time>2026-04-28T07:10:02.973Z</time></trkpt><trkpt lat="44.46455858184087" lon="11.199549816409883"><ele>103.00000000000001</ele><time>2026-04-28T07:10:03.973Z</time></trkpt><trkpt lat="44.464597348731594" lon="11.199445422741274"><ele>103.0</ele><time>2026-04-28T07:10:04.973Z</time></trkpt><trkpt lat="44.46463185296902" lon="11.199340142262654"><ele>103.33333333333334</ele><time>2026-04-28T07:10:05.973Z</time></trkpt><trkpt lat="44.46466926251367" lon="11.199235983609846"><ele>103.66666666666667</ele><time>2026-04-28T07:10:06.973Z</time></trkpt><trkpt lat="44.46470406980645" lon="11.199130471858671"><ele>104.0</ele><time>2026-04-28T07:10:07.973Z</time></trkpt><trkpt lat="44.46474309436927" lon="11.199023512856082"><ele>104.33333333333334</ele><time>2026-04-28T07:10:08.973Z</time></trkpt><trkpt lat="44.46477967483148" lon="11.198934135745581"><ele>104.66666666666667</ele><time>2026-04-28T07:10:09.973Z</time></trkpt><trkpt lat="44.464811435686926" lon="11.198846933125889"><ele>105.0</ele><time>2026-04-28T07:10:10.973Z</time></trkpt><trkpt lat="44.46484075345211" lon="11.198766909380144"><ele>105.5</ele><time>2026-04-28T07:10:11.973Z</time></trkpt><trkpt lat="44.464870818454415" lon="11.198681244077656"><ele>106.0</ele><time>2026-04-28T07:10:12.973Z</time></trkpt><trkpt lat="44.46490647401941" lon="11.198580864605736"><ele>106.5</ele><time>2026-04-28T07:10:13.973Z</time></trkpt><trkpt lat="44.464952644566445" lon="11.198475157263541"><ele>107.0</ele><time>2026-04-28T07:10:14.973Z</time></trkpt><trkpt lat="44.46499550305535" lon="11.198358199795386"><ele>107.5</ele><time>2026-04-28T07:10:15.973Z</time></trkpt><trkpt lat="44.46503705174052" lon="11.198235669558013"><ele>108.0</ele><time>2026-04-28T07:10:16.973Z</time></trkpt><trkpt lat="44.46508042398724" lon="11.198110468542412"><ele>108.80000000000001</ele><time>2026-04-28T07:10:17.973Z</time></trkpt><trkpt lat="44.465122000488144" lon="11.197973264409521"><ele>109.60000000000001</ele><time>2026-04-28T07:10:18.973Z</time></trkpt><trkpt lat="44.46516478614824" lon="11.197848662641297"><ele>110.39999999999999</ele><time>2026-04-28T07:10:19.973Z</time></trkpt><trkpt lat="44.46521194603821" lon="11.19772709409045"><ele>111.19999999999999</ele><time>2026-04-28T07:10:20.973Z</time></trkpt><trkpt lat="44.46527987632729" lon="11.197621467492159"><ele>112.0</ele><time>2026-04-28T07:10:21.973Z</time></trkpt><trkpt lat="44.46534052780242" lon="11.197520067383413"><ele>112.00000000000001</ele><time>2026-04-28T07:10:22.973Z</time></trkpt><trkpt lat="44.4653982764988" lon="11.197426106008372"><ele>112.0</ele><time>2026-04-28T07:10:23.973Z</time></trkpt><trkpt lat="44.46545219109984" lon="11.19734743686438"><ele>112.0</ele><time>2026-04-28T07:10:24.973Z</time></trkpt><trkpt lat="44.46550487301784" lon="11.197275273711965"><ele>112.0</ele><time>2026-04-28T07:10:25.973Z</time></trkpt><trkpt lat="44.46555834181268" lon="11.197207215647865"><ele>112.00000000000001</ele><time>2026-04-28T07:10:26.973Z</time></trkpt><trkpt lat="44.46561667310336" lon="11.19713684854786"><ele>112.0</ele><time>2026-04-28T07:10:27.973Z</time></trkpt><trkpt lat="44.4656836104617" lon="11.197058271619914"><ele>109.8</ele><time>2026-04-28T07:10:28.973Z</time></trkpt><trkpt lat="44.46576366277756" lon="11.196964517286562"><ele>107.6</ele><time>2026-04-28T07:10:29.973Z</time></trkpt><trkpt lat="44.465838455304365" lon="11.19687692388163"><ele>105.39999999999999</ele><time>2026-04-28T07:10:30.973Z</time></trkpt><trkpt lat="44.465921277866286" lon="11.196781920362056"><ele>103.19999999999999</ele><time>2026-04-28T07:10:31.973Z</time></trkpt><trkpt lat="44.46600444222875" lon="11.19668649253864"><ele>101.0</ele><time>2026-04-28T07:10:32.973Z</time></trkpt><trkpt lat="44.46608835720589" lon="11.196590793229682"><ele>101.0</ele><time>2026-04-28T07:10:33.973Z</time></trkpt><trkpt lat="44.46617430579242" lon="11.196492774372832"><ele>101.0</ele><time>2026-04-28T07:10:34.973Z</time></trkpt><trkpt lat="44.46625556161278" lon="11.196400107517938"><ele>101.0</ele><time>2026-04-28T07:10:35.973Z</time></trkpt><trkpt lat="44.46632423430475" lon="11.196292858688878"><ele>101.0</ele><time>2026-04-28T07:10:36.973Z</time></trkpt><trkpt lat="44.466408449827725" lon="11.19621663040838"><ele>101.0</ele><time>2026-04-28T07:10:37.973Z</time></trkpt><trkpt lat="44.466488952354574" lon="11.196129073052195"><ele>101.0</ele><time>2026-04-28T07:10:38.973Z</time></trkpt><trkpt lat="44.46657084026437" lon="11.196046457584467"><ele>101.0</ele><time>2026-04-28T07:10:39.973Z</time></trkpt><trkpt lat="44.466645558483975" lon="11.195957483492327"><ele>101.0</ele><time>2026-04-28T07:10:40.973Z</time></trkpt><trkpt lat="44.466721097107765" lon="11.195875489987138"><ele>101.0</ele><time>2026-04-28T07:10:41.973Z</time></trkpt><trkpt lat="44.46678660141379" lon="11.195801358786865"><ele>101.0</ele><time>2026-04-28T07:10:42.973Z</time></trkpt><trkpt lat="44.4668602329005" lon="11.195748678625845"><ele>101.49999999999999</ele><time>2026-04-28T07:10:43.973Z</time></trkpt><trkpt lat="44.466914805616426" lon="11.195664288282137"><ele>102.0</ele><time>2026-04-28T07:10:44.973Z</time></trkpt><trkpt lat="44.46696851419991" lon="11.19557942413563"><ele>102.5</ele><time>2026-04-28T07:10:45.973Z</time></trkpt><trkpt lat="44.467008871034444" lon="11.195490337782358"><ele>103.0</ele><time>2026-04-28T07:10:46.973Z</time></trkpt><trkpt lat="44.467034078633866" lon="11.195383075993668"><ele>103.49999999999999</ele><time>2026-04-28T07:10:47.973Z</time></trkpt><trkpt lat="44.467030948364304" lon="11.195284758305425"><ele>104.0</ele><time>2026-04-28T07:10:48.973Z</time></trkpt><trkpt lat="44.46702123817839" lon="11.195169530685408"><ele>104.0</ele><time>2026-04-28T07:10:49.973Z</time></trkpt><trkpt lat="44.466993536028546" lon="11.195036848336468"><ele>104.0</ele><time>2026-04-28T07:10:50.973Z</time></trkpt><trkpt lat="44.46694773300042" lon="11.194906128368677"><ele>104.0</ele><time>2026-04-28T07:10:51.973Z</time></trkpt><trkpt lat="44.46691593453618" lon="11.194758292660707"><ele>104.0</ele><time>2026-04-28T07:10:52.973Z</time></trkpt><trkpt lat="44.46688349120871" lon="11.194604146786997"><ele>104.0</ele><time>2026-04-28T07:10:53.973Z</time></trkpt><trkpt lat="44.466858520166376" lon="11.194465552709941"><ele>104.6</ele><time>2026-04-28T07:10:54.973Z</time></trkpt><trkpt lat="44.466829275700874" lon="11.194334391490829"><ele>105.2</ele><time>2026-04-28T07:10:55.973Z</time></trkpt><trkpt lat="44.466800085328124" lon="11.194209183915218"><ele>105.79999999999998</ele><time>2026-04-28T07:10:56.973Z</time></trkpt><trkpt lat="44.46676828149142" lon="11.194080953172172"><ele>106.39999999999999</ele><time>2026-04-28T07:10:57.973Z</time></trkpt><trkpt lat="44.46674359877814" lon="11.19393639685245"><ele>107.0</ele><time>2026-04-28T07:10:58.973Z</time></trkpt><trkpt lat="44.466687391739896" lon="11.193786530525253"><ele>107.75</ele><time>2026-04-28T07:10:59.973Z</time></trkpt><trkpt lat="44.46662738084228" lon="11.193646474216454"><ele>108.5</ele><time>2026-04-28T07:11:00.973Z</time></trkpt><trkpt lat="44.466556280716446" lon="11.19349617504957"><ele>109.25</ele><time>2026-04-28T07:11:01.973Z</time></trkpt><trkpt lat="44.46647780659264" lon="11.193336848721037"><ele>110.0</ele><time>2026-04-28T07:11:02.973Z</time></trkpt><trkpt lat="44.46640087547215" lon="11.193173404922458"><ele>109.75</ele><time>2026-04-28T07:11:03.973Z</time></trkpt><trkpt lat="44.46632276888833" lon="11.193017315167054"><ele>109.5</ele><time>2026-04-28T07:11:04.973Z</time></trkpt><trkpt lat="44.46624295223887" lon="11.192850778248232"><ele>109.25</ele><time>2026-04-28T07:11:05.973Z</time></trkpt><trkpt lat="44.46616308823989" lon="11.192679624728253"><ele>109.0</ele><time>2026-04-28T07:11:06.973Z</time></trkpt><trkpt lat="44.466083635373195" lon="11.192500800595889"><ele>109.75</ele><time>2026-04-28T07:11:07.973Z</time></trkpt><trkpt lat="44.466006955009306" lon="11.192323164663705"><ele>110.5</ele><time>2026-04-28T07:11:08.973Z</time></trkpt><trkpt lat="44.46593614567513" lon="11.192155767959976"><ele>111.25</ele><time>2026-04-28T07:11:09.973Z</time></trkpt><trkpt lat="44.46586077229626" lon="11.191999397853808"><ele>112.0</ele><time>2026-04-28T07:11:10.973Z</time></trkpt><trkpt lat="44.46577334775135" lon="11.191849424302205"><ele>112.0</ele><time>2026-04-28T07:11:11.973Z</time></trkpt><trkpt lat="44.46567189958968" lon="11.19171143268583"><ele>112.0</ele><time>2026-04-28T07:11:12.973Z</time></trkpt><trkpt lat="44.465571658314396" lon="11.191578092229637"><ele>112.0</ele><time>2026-04-28T07:11:13.973Z</time></trkpt><trkpt lat="44.46548098111696" lon="11.19143389735212"><ele>112.0</ele><time>2026-04-28T07:11:14.973Z</time></trkpt><trkpt lat="44.46539598783225" lon="11.191281323582489"><ele>112.0</ele><time>2026-04-28T07:11:15.973Z</time></trkpt><trkpt lat="44.46533138243359" lon="11.191122328605914"><ele>112.0</ele><time>2026-04-28T07:11:16.973Z</time></trkpt><trkpt lat="44.4652869303258" lon="11.190949979037777"><ele>112.0</ele><time>2026-04-28T07:11:17.973Z</time></trkpt><trkpt lat="44.465256945224404" lon="11.190775468821322"><ele>112.0</ele><time>2026-04-28T07:11:18.972Z</time></trkpt><trkpt lat="44.46524009567721" lon="11.190597038621602"><ele>112.0</ele><time>2026-04-28T07:11:19.972Z</time></trkpt><trkpt lat="44.46523631238943" lon="11.190407209789258"><ele>112.0</ele><time>2026-04-28T07:11:20.972Z</time></trkpt><trkpt lat="44.465254796038636" lon="11.1902100397334"><ele>112.0</ele><time>2026-04-28T07:11:21.972Z</time></trkpt><trkpt lat="44.46524338690891" lon="11.190011755169651"><ele>112.0</ele><time>2026-04-28T07:11:22.972Z</time></trkpt><trkpt lat="44.46520644478009" lon="11.189824233221229"><ele>112.5</ele><time>2026-04-28T07:11:23.972Z</time></trkpt><trkpt lat="44.46515119687337" lon="11.1896401901579"><ele>113.0</ele><time>2026-04-28T07:11:24.972Z</time></trkpt><trkpt lat="44.46509039050262" lon="11.18945686154552"><ele>113.5</ele><time>2026-04-28T07:11:25.972Z</time></trkpt><trkpt lat="44.4650345458333" lon="11.189267954515206"><ele>114.0</ele><time>2026-04-28T07:11:26.972Z</time></trkpt><trkpt lat="44.46497888586054" lon="11.189093627665565"><ele>115.75</ele><time>2026-04-28T07:11:27.972Z</time></trkpt><trkpt lat="44.46493052875567" lon="11.188939341243682"><ele>117.5</ele><time>2026-04-28T07:11:28.971Z</time></trkpt><trkpt lat="44.46487923909983" lon="11.188789910094343"><ele>119.25</ele><time>2026-04-28T07:11:29.971Z</time></trkpt><trkpt lat="44.46482780917947" lon="11.188650458358339"><ele>121.0</ele><time>2026-04-28T07:11:30.971Z</time></trkpt><trkpt lat="44.464780065047236" lon="11.188514978731584"><ele>121.0</ele><time>2026-04-28T07:11:31.972Z</time></trkpt><trkpt lat="44.464735269496" lon="11.188361402421027"><ele>121.0</ele><time>2026-04-28T07:11:32.972Z</time></trkpt><trkpt lat="44.46469139686332" lon="11.188198702662765"><ele>121.0</ele><time>2026-04-28T07:11:33.972Z</time></trkpt><trkpt lat="44.46467193931168" lon="11.188041510957119"><ele>121.0</ele><time>2026-04-28T07:11:34.972Z</time></trkpt><trkpt lat="44.464664797990544" lon="11.187877479978988"><ele>120.75</ele><time>2026-04-28T07:11:35.972Z</time></trkpt><trkpt lat="44.46468162093344" lon="11.187702044852468"><ele>120.5</ele><time>2026-04-28T07:11:36.972Z</time></trkpt><trkpt lat="44.46472356967484" lon="11.187539485325654"><ele>120.25</ele><time>2026-04-28T07:11:37.972Z</time></trkpt><trkpt lat="44.46476445341753" lon="11.187360315866766"><ele>120.0</ele><time>2026-04-28T07:11:38.972Z</time></trkpt><trkpt lat="44.464836856779606" lon="11.187198952976223"><ele>120.0</ele><time>2026-04-28T07:11:39.972Z</time></trkpt><trkpt lat="44.464912316938424" lon="11.18705771383576"><ele>120.0</ele><time>2026-04-28T07:11:40.972Z</time></trkpt><trkpt lat="44.4649913877096" lon="11.186910915567298"><ele>120.0</ele><time>2026-04-28T07:11:41.972Z</time></trkpt><trkpt lat="44.465056710497436" lon="11.186754794119205"><ele>120.0</ele><time>2026-04-28T07:11:42.972Z</time></trkpt><trkpt lat="44.46509945876665" lon="11.18658300776545"><ele>120.25</ele><time>2026-04-28T07:11:43.972Z</time></trkpt><trkpt lat="44.46510956613965" lon="11.186384916775317"><ele>120.5</ele><time>2026-04-28T07:11:44.972Z</time></trkpt><trkpt lat="44.46509624005076" lon="11.186171331648627"><ele>120.75</ele><time>2026-04-28T07:11:45.972Z</time></trkpt><trkpt lat="44.46503946202574" lon="11.185979444188186"><ele>121.0</ele><time>2026-04-28T07:11:46.972Z</time></trkpt><trkpt lat="44.46498335715369" lon="11.185787341066924"><ele>120.66666666666667</ele><time>2026-04-28T07:11:47.972Z</time></trkpt><trkpt lat="44.46496066590312" lon="11.185587736048568"><ele>120.33333333333334</ele><time>2026-04-28T07:11:48.972Z</time></trkpt><trkpt lat="44.46493711495959" lon="11.1853787150242"><ele>120.0</ele><time>2026-04-28T07:11:49.972Z</time></trkpt><trkpt lat="44.464924613362776" lon="11.185152130788413"><ele>120.0</ele><time>2026-04-28T07:11:50.972Z</time></trkpt><trkpt lat="44.46492597015076" lon="11.18494929864851"><ele>120.0</ele><time>2026-04-28T07:11:51.972Z</time></trkpt><trkpt lat="44.46493815393514" lon="11.184730542603528"><ele>120.0</ele><time>2026-04-28T07:11:52.972Z</time></trkpt><trkpt lat="44.46496061669365" lon="11.184521063240203"><ele>119.33333333333334</ele><time>2026-04-28T07:11:53.972Z</time></trkpt><trkpt lat="44.46497966492761" lon="11.184295765431255"><ele>118.66666666666667</ele><time>2026-04-28T07:11:54.972Z</time></trkpt><trkpt lat="44.465006110249035" lon="11.184074521020992"><ele>118.0</ele><time>2026-04-28T07:11:55.972Z</time></trkpt><trkpt lat="44.46500521927753" lon="11.183834305976868"><ele>117.66666666666667</ele><time>2026-04-28T07:11:56.972Z</time></trkpt><trkpt lat="44.46497568066093" lon="11.183593082014053"><ele>117.33333333333334</ele><time>2026-04-28T07:11:57.972Z</time></trkpt><trkpt lat="44.464926978371615" lon="11.183367853048429"><ele>117.0</ele><time>2026-04-28T07:11:58.972Z</time></trkpt><trkpt lat="44.46486386499837" lon="11.18314954918545"><ele>117.66666666666666</ele><time>2026-04-28T07:11:59.972Z</time></trkpt><trkpt lat="44.464803374466975" lon="11.182929005764107"><ele>118.33333333333333</ele><time>2026-04-28T07:12:00.972Z</time></trkpt><trkpt lat="44.464744079190226" lon="11.182710351325312"><ele>119.0</ele><time>2026-04-28T07:12:01.972Z</time></trkpt><trkpt lat="44.46468519401407" lon="11.182481097938787"><ele>119.66666666666666</ele><time>2026-04-28T07:12:02.972Z</time></trkpt><trkpt lat="44.46462256389074" lon="11.182255639804973"><ele>120.33333333333334</ele><time>2026-04-28T07:12:03.972Z</time></trkpt><trkpt lat="44.46456637019139" lon="11.182047805421064"><ele>121.0</ele><time>2026-04-28T07:12:04.972Z</time></trkpt><trkpt lat="44.46451539320451" lon="11.181840878974121"><ele>119.66666666666667</ele><time>2026-04-28T07:12:05.972Z</time></trkpt><trkpt lat="44.464460001814" lon="11.181630779541978"><ele>118.33333333333334</ele><time>2026-04-28T07:12:06.972Z</time></trkpt><trkpt lat="44.464408651649066" lon="11.181421624182795"><ele>117.0</ele><time>2026-04-28T07:12:07.972Z</time></trkpt><trkpt lat="44.4643577421571" lon="11.181210834087926"><ele>116.66666666666666</ele><time>2026-04-28T07:12:08.972Z</time></trkpt><trkpt lat="44.46431367892926" lon="11.181001240123335"><ele>116.33333333333333</ele><time>2026-04-28T07:12:09.972Z</time></trkpt><trkpt lat="44.46425681068426" lon="11.180796336133923"><ele>116.0</ele><time>2026-04-28T07:12:10.972Z</time></trkpt><trkpt lat="44.4642038420957" lon="11.180604384289765"><ele>116.75</ele><time>2026-04-28T07:12:11.972Z</time></trkpt><trkpt lat="44.46415033018166" lon="11.180410169578753"><ele>117.5</ele><time>2026-04-28T07:12:12.972Z</time></trkpt><trkpt lat="44.464100273992436" lon="11.180217845324297"><ele>118.25</ele><time>2026-04-28T07:12:13.972Z</time></trkpt><trkpt lat="44.46405393415205" lon="11.180024473243796"><ele>119.0</ele><time>2026-04-28T07:12:14.972Z</time></trkpt><trkpt lat="44.46400842718063" lon="11.179836134801965"><ele>121.0</ele><time>2026-04-28T07:12:15.972Z</time></trkpt><trkpt lat="44.46395960943856" lon="11.179651318887403"><ele>123.0</ele><time>2026-04-28T07:12:16.972Z</time></trkpt><trkpt lat="44.463909961516876" lon="11.17946042221349"><ele>125.0</ele><time>2026-04-28T07:12:17.972Z</time></trkpt><trkpt lat="44.46386164641708" lon="11.179279422765733"><ele>127.0</ele><time>2026-04-28T07:12:18.972Z</time></trkpt><trkpt lat="44.46382090025771" lon="11.179110040589972"><ele>126.39999999999999</ele><time>2026-04-28T07:12:19.972Z</time></trkpt><trkpt lat="44.4637871749776" lon="11.178956867626821"><ele>125.79999999999998</ele><time>2026-04-28T07:12:20.972Z</time></trkpt><trkpt lat="44.46376101545599" lon="11.178832517203375"><ele>125.2</ele><time>2026-04-28T07:12:21.972Z</time></trkpt><trkpt lat="44.463739361847345" lon="11.17870695664993"><ele>124.6</ele><time>2026-04-28T07:12:22.972Z</time></trkpt><trkpt lat="44.4637073545969" lon="11.178572102395588"><ele>124.0</ele><time>2026-04-28T07:12:23.972Z</time></trkpt><trkpt lat="44.46366674455712" lon="11.178424033164282"><ele>124.0</ele><time>2026-04-28T07:12:24.972Z</time></trkpt><trkpt lat="44.463630066040864" lon="11.178280083762347"><ele>124.0</ele><time>2026-04-28T07:12:25.972Z</time></trkpt><trkpt lat="44.46359249823839" lon="11.178140032714692"><ele>124.0</ele><time>2026-04-28T07:12:26.972Z</time></trkpt><trkpt lat="44.463555450210876" lon="11.177978426768577"><ele>124.0</ele><time>2026-04-28T07:12:27.972Z</time></trkpt><trkpt lat="44.463516520195284" lon="11.17783383546668"><ele>124.0</ele><time>2026-04-28T07:12:28.972Z</time></trkpt><trkpt lat="44.46348022344827" lon="11.177682815581354"><ele>125.0</ele><time>2026-04-28T07:12:29.972Z</time></trkpt><trkpt lat="44.463455387346876" lon="11.17752233633473"><ele>126.0</ele><time>2026-04-28T07:12:30.972Z</time></trkpt><trkpt lat="44.46344189163695" lon="11.177369253443983"><ele>127.0</ele><time>2026-04-28T07:12:31.972Z</time></trkpt><trkpt lat="44.46342274677132" lon="11.177208292511024"><ele>128.0</ele><time>2026-04-28T07:12:32.972Z</time></trkpt><trkpt lat="44.46341537026131" lon="11.177048169819102"><ele>128.0</ele><time>2026-04-28T07:12:33.972Z</time></trkpt><trkpt lat="44.46342370313678" lon="11.176874126216555"><ele>128.0</ele><time>2026-04-28T07:12:34.972Z</time></trkpt><trkpt lat="44.46343114985451" lon="11.176705468515205"><ele>128.0</ele><time>2026-04-28T07:12:35.972Z</time></trkpt><trkpt lat="44.46344096896499" lon="11.176539262436457"><ele>128.0</ele><time>2026-04-28T07:12:36.972Z</time></trkpt><trkpt lat="44.46345429528721" lon="11.176370468072811"><ele>128.5</ele><time>2026-04-28T07:12:37.971Z</time></trkpt><trkpt lat="44.46345990642638" lon="11.176190699092663"><ele>129.0</ele><time>2026-04-28T07:12:38.971Z</time></trkpt><trkpt lat="44.46346154029379" lon="11.176011850423384"><ele>129.5</ele><time>2026-04-28T07:12:39.971Z</time></trkpt><trkpt lat="44.46343945674341" lon="11.175828710287961"><ele>130.0</ele><time>2026-04-28T07:12:40.971Z</time></trkpt><trkpt lat="44.46342017386799" lon="11.17564034270188"><ele>131.25</ele><time>2026-04-28T07:12:41.971Z</time></trkpt><trkpt lat="44.4633987286786" lon="11.17544673718722"><ele>132.5</ele><time>2026-04-28T07:12:42.971Z</time></trkpt><trkpt lat="44.46336944760722" lon="11.175243056099092"><ele>133.75</ele><time>2026-04-28T07:12:43.971Z</time></trkpt><trkpt lat="44.463347164447654" lon="11.175045162322462"><ele>135.0</ele><time>2026-04-28T07:12:44.971Z</time></trkpt><trkpt lat="44.46333000272902" lon="11.174842612202898"><ele>137.25</ele><time>2026-04-28T07:12:45.971Z</time></trkpt><trkpt lat="44.463304887892775" lon="11.174655712168354"><ele>139.5</ele><time>2026-04-28T07:12:46.971Z</time></trkpt><trkpt lat="44.463261593539215" lon="11.174477694960581"><ele>141.75</ele><time>2026-04-28T07:12:47.971Z</time></trkpt><trkpt lat="44.463203115532465" lon="11.174316326981376"><ele>144.0</ele><time>2026-04-28T07:12:48.971Z</time></trkpt><trkpt lat="44.46311929314045" lon="11.17415627551106"><ele>147.5</ele><time>2026-04-28T07:12:49.971Z</time></trkpt><trkpt lat="44.46302194923067" lon="11.174004897103483"><ele>151.0</ele><time>2026-04-28T07:12:50.971Z</time></trkpt><trkpt lat="44.46292891848838" lon="11.173869839712589"><ele>154.5</ele><time>2026-04-28T07:12:51.971Z</time></trkpt><trkpt lat="44.46284655366188" lon="11.173730285495715"><ele>158.0</ele><time>2026-04-28T07:12:52.971Z</time></trkpt><trkpt lat="44.4627770235214" lon="11.17357360211799"><ele>151.0</ele><time>2026-04-28T07:12:53.971Z</time></trkpt><trkpt lat="44.462748464543104" lon="11.173392893257326"><ele>144.0</ele><time>2026-04-28T07:12:54.971Z</time></trkpt><trkpt lat="44.462716278834456" lon="11.173207371338036"><ele>137.0</ele><time>2026-04-28T07:12:55.971Z</time></trkpt><trkpt lat="44.462683427112424" lon="11.172997850229375"><ele>130.0</ele><time>2026-04-28T07:12:56.971Z</time></trkpt><trkpt lat="44.46265205342038" lon="11.172791717548153"><ele>130.0</ele><time>2026-04-28T07:12:57.971Z</time></trkpt><trkpt lat="44.462619614352114" lon="11.172578585080691"><ele>130.0</ele><time>2026-04-28T07:12:58.971Z</time></trkpt><trkpt lat="44.46258836214642" lon="11.172373553773525"><ele>130.0</ele><time>2026-04-28T07:12:59.971Z</time></trkpt><trkpt lat="44.46255605571971" lon="11.172182585808404"><ele>130.0</ele><time>2026-04-28T07:13:00.971Z</time></trkpt><trkpt lat="44.46251280501835" lon="11.171992182247624"><ele>131.25</ele><time>2026-04-28T07:13:01.971Z</time></trkpt><trkpt lat="44.46244792409808" lon="11.171819114814221"><ele>132.5</ele><time>2026-04-28T07:13:02.971Z</time></trkpt><trkpt lat="44.462352122664534" lon="11.171677469738292"><ele>133.75</ele><time>2026-04-28T07:13:03.971Z</time></trkpt><trkpt lat="44.462225253107114" lon="11.171554040770273"><ele>135.0</ele><time>2026-04-28T07:13:04.971Z</time></trkpt><trkpt lat="44.46209908187488" lon="11.171458637977187"><ele>136.5</ele><time>2026-04-28T07:13:05.971Z</time></trkpt><trkpt lat="44.46199009601064" lon="11.171322726795383"><ele>138.0</ele><time>2026-04-28T07:13:06.971Z</time></trkpt><trkpt lat="44.46187207201402" lon="11.171204564273769"><ele>139.5</ele><time>2026-04-28T07:13:07.971Z</time></trkpt><trkpt lat="44.461749588927425" lon="11.171081937512406"><ele>141.0</ele><time>2026-04-28T07:13:08.971Z</time></trkpt><trkpt lat="44.461634688251486" lon="11.170966901935554"><ele>141.0</ele><time>2026-04-28T07:13:09.971Z</time></trkpt><trkpt lat="44.461509701784934" lon="11.170871610313025"><ele>141.0</ele><time>2026-04-28T07:13:10.971Z</time></trkpt><trkpt lat="44.46139412454912" lon="11.170751959034622"><ele>141.0</ele><time>2026-04-28T07:13:11.971Z</time></trkpt><trkpt lat="44.46127918611577" lon="11.170638827242591"><ele>141.0</ele><time>2026-04-28T07:13:12.971Z</time></trkpt><trkpt lat="44.46116024391128" lon="11.17052205224636"><ele>143.0</ele><time>2026-04-28T07:13:13.971Z</time></trkpt><trkpt lat="44.46104669694798" lon="11.170401715484028"><ele>145.0</ele><time>2026-04-28T07:13:14.971Z</time></trkpt><trkpt lat="44.4609452070873" lon="11.17027405873293"><ele>147.0</ele><time>2026-04-28T07:13:15.971Z</time></trkpt><trkpt lat="44.460850175832846" lon="11.170136599951466"><ele>149.0</ele><time>2026-04-28T07:13:16.971Z</time></trkpt><trkpt lat="44.46076086828109" lon="11.170003989962089"><ele>149.0</ele><time>2026-04-28T07:13:17.971Z</time></trkpt><trkpt lat="44.46067687362059" lon="11.169869378026096"><ele>149.0</ele><time>2026-04-28T07:13:18.971Z</time></trkpt><trkpt lat="44.46059951572757" lon="11.16974302178051"><ele>149.0</ele><time>2026-04-28T07:13:19.971Z</time></trkpt><trkpt lat="44.46053544822019" lon="11.169643198571535"><ele>149.0</ele><time>2026-04-28T07:13:20.971Z</time></trkpt><trkpt lat="44.46050603202416" lon="11.169544418778324"><ele>149.0</ele><time>2026-04-28T07:13:21.971Z</time></trkpt><trkpt lat="44.46044010750752" lon="11.169436403740052"><ele>150.0</ele><time>2026-04-28T07:13:23.971Z</time></trkpt><trkpt lat="44.46039158016089" lon="11.169364888047653"><ele>151.0</ele><time>2026-04-28T07:13:26.97Z</time></trkpt><trkpt lat="44.46035138388129" lon="11.169295774811175"><ele>152.0</ele><time>2026-04-28T07:13:31.97Z</time></trkpt><trkpt lat="44.46029423499367" lon="11.16920810719402"><ele>153.0</ele><time>2026-04-28T07:13:39.969Z</time></trkpt><trkpt lat="44.460218761445084" lon="11.169078748158478"><ele>154.0</ele><time>2026-04-28T07:13:41.969Z</time></trkpt><trkpt lat="44.46016881146975" lon="11.169002730786953"><ele>155.0</ele><time>2026-04-28T07:13:42.969Z</time></trkpt><trkpt lat="44.460116125143045" lon="11.16891635135193"><ele>155.0</ele><time>2026-04-28T07:13:43.969Z</time></trkpt><trkpt lat="44.46006625742408" lon="11.168838155202508"><ele>155.0</ele><time>2026-04-28T07:13:44.969Z</time></trkpt><trkpt lat="44.460011054309454" lon="11.16874083382549"><ele>155.0</ele><time>2026-04-28T07:13:45.969Z</time></trkpt><trkpt lat="44.45995654061257" lon="11.168647930434318"><ele>155.0</ele><time>2026-04-28T07:13:46.969Z</time></trkpt><trkpt lat="44.45989970003165" lon="11.168551987475297"><ele>155.0</ele><time>2026-04-28T07:13:47.969Z</time></trkpt><trkpt lat="44.45984293486223" lon="11.168458911879522"><ele>155.0</ele><time>2026-04-28T07:13:48.969Z</time></trkpt><trkpt lat="44.459769899063204" lon="11.16837186746288"><ele>155.0</ele><time>2026-04-28T07:13:49.969Z</time></trkpt><trkpt lat="44.459702962217946" lon="11.168272440741182"><ele>155.0</ele><time>2026-04-28T07:13:50.969Z</time></trkpt><trkpt lat="44.45962206840961" lon="11.168172644245313"><ele>155.0</ele><time>2026-04-28T07:13:51.969Z</time></trkpt><trkpt lat="44.45953367608965" lon="11.168061717709996"><ele>155.0</ele><time>2026-04-28T07:13:52.969Z</time></trkpt><trkpt lat="44.45943772669136" lon="11.167947690135579"><ele>151.75</ele><time>2026-04-28T07:13:53.969Z</time></trkpt><trkpt lat="44.4593338629451" lon="11.167826509690467"><ele>148.5</ele><time>2026-04-28T07:13:54.969Z</time></trkpt><trkpt lat="44.459236441019215" lon="11.167711604173332"><ele>145.25</ele><time>2026-04-28T07:13:55.969Z</time></trkpt><trkpt lat="44.45914424531281" lon="11.167599161362714"><ele>142.0</ele><time>2026-04-28T07:13:56.969Z</time></trkpt><trkpt lat="44.45905421956658" lon="11.167496318700785"><ele>142.0</ele><time>2026-04-28T07:13:57.969Z</time></trkpt><trkpt lat="44.458965515708186" lon="11.167381904875997"><ele>142.0</ele><time>2026-04-28T07:13:58.969Z</time></trkpt><trkpt lat="44.45889085193101" lon="11.16727136959624"><ele>142.0</ele><time>2026-04-28T07:13:59.969Z</time></trkpt><trkpt lat="44.45881950129247" lon="11.16714607600201"><ele>142.0</ele><time>2026-04-28T07:14:00.969Z</time></trkpt><trkpt lat="44.458752906622195" lon="11.167016812593884"><ele>140.5</ele><time>2026-04-28T07:14:01.969Z</time></trkpt><trkpt lat="44.458695631949716" lon="11.16688135633513"><ele>139.0</ele><time>2026-04-28T07:14:02.969Z</time></trkpt><trkpt lat="44.45865490322017" lon="11.166720122800065"><ele>137.5</ele><time>2026-04-28T07:14:03.969Z</time></trkpt><trkpt lat="44.458620700718164" lon="11.166544992676828"><ele>136.0</ele><time>2026-04-28T07:14:04.969Z</time></trkpt><trkpt lat="44.45861138403709" lon="11.166370761836692"><ele>136.0</ele><time>2026-04-28T07:14:05.969Z</time></trkpt><trkpt lat="44.45861770160474" lon="11.166203773801898"><ele>136.0</ele><time>2026-04-28T07:14:06.969Z</time></trkpt><trkpt lat="44.458639217301155" lon="11.166052902801002"><ele>136.0</ele><time>2026-04-28T07:14:07.969Z</time></trkpt><trkpt lat="44.458680426539495" lon="11.165887558924094"><ele>136.0</ele><time>2026-04-28T07:14:08.969Z</time></trkpt><trkpt lat="44.45872808955345" lon="11.165738664002244"><ele>136.4</ele><time>2026-04-28T07:14:09.969Z</time></trkpt><trkpt lat="44.4587687404856" lon="11.165596573553717"><ele>136.8</ele><time>2026-04-28T07:14:10.969Z</time></trkpt><trkpt lat="44.458785143433595" lon="11.16544954540474"><ele>137.20000000000002</ele><time>2026-04-28T07:14:11.969Z</time></trkpt><trkpt lat="44.45877289218726" lon="11.16529475033779"><ele>137.6</ele><time>2026-04-28T07:14:12.969Z</time></trkpt><trkpt lat="44.45871467027706" lon="11.165150600779812"><ele>138.0</ele><time>2026-04-28T07:14:13.969Z</time></trkpt><trkpt lat="44.45862434317203" lon="11.165019983201178"><ele>138.0</ele><time>2026-04-28T07:14:14.969Z</time></trkpt><trkpt lat="44.45853071742203" lon="11.164887738086493"><ele>138.0</ele><time>2026-04-28T07:14:15.969Z</time></trkpt><trkpt lat="44.458431452698186" lon="11.16475050005995"><ele>138.0</ele><time>2026-04-28T07:14:16.969Z</time></trkpt><trkpt lat="44.45832748717043" lon="11.164612907960652"><ele>138.0</ele><time>2026-04-28T07:14:17.969Z</time></trkpt><trkpt lat="44.45822629337948" lon="11.164476593108366"><ele>138.75</ele><time>2026-04-28T07:14:18.969Z</time></trkpt><trkpt lat="44.45812119770297" lon="11.164339404399351"><ele>139.5</ele><time>2026-04-28T07:14:19.969Z</time></trkpt><trkpt lat="44.45801958031153" lon="11.164213548817342"><ele>140.25</ele><time>2026-04-28T07:14:20.969Z</time></trkpt><trkpt lat="44.45794961811118" lon="11.164090074745834"><ele>141.0</ele><time>2026-04-28T07:14:21.969Z</time></trkpt><trkpt lat="44.457876021476075" lon="11.1639938910825"><ele>141.6</ele><time>2026-04-28T07:14:22.969Z</time></trkpt><trkpt lat="44.45781365552138" lon="11.163901863205725"><ele>142.2</ele><time>2026-04-28T07:14:23.969Z</time></trkpt><trkpt lat="44.45775369203125" lon="11.163801253734894"><ele>142.8</ele><time>2026-04-28T07:14:24.969Z</time></trkpt><trkpt lat="44.4576980149852" lon="11.163694212347103"><ele>143.4</ele><time>2026-04-28T07:14:25.969Z</time></trkpt><trkpt lat="44.45764211270829" lon="11.16357123844266"><ele>144.0</ele><time>2026-04-28T07:14:26.969Z</time></trkpt><trkpt lat="44.45760485043773" lon="11.163432964859627"><ele>144.0</ele><time>2026-04-28T07:14:27.969Z</time></trkpt><trkpt lat="44.45756677179092" lon="11.163284086302662"><ele>144.0</ele><time>2026-04-28T07:14:28.969Z</time></trkpt><trkpt lat="44.45753131459757" lon="11.163144028932116"><ele>144.0</ele><time>2026-04-28T07:14:29.969Z</time></trkpt><trkpt lat="44.457502982704156" lon="11.162975977705203"><ele>144.0</ele><time>2026-04-28T07:14:30.969Z</time></trkpt><trkpt lat="44.457474349494994" lon="11.162805620715863"><ele>146.25</ele><time>2026-04-28T07:14:31.969Z</time></trkpt><trkpt lat="44.457440789300485" lon="11.162625455636237"><ele>148.5</ele><time>2026-04-28T07:14:32.969Z</time></trkpt><trkpt lat="44.457412289923994" lon="11.16244252676685"><ele>150.75</ele><time>2026-04-28T07:14:33.969Z</time></trkpt><trkpt lat="44.457378360106" lon="11.162243977488899"><ele>153.0</ele><time>2026-04-28T07:14:34.969Z</time></trkpt><trkpt lat="44.457287411816" lon="11.162080261986269"><ele>149.66666666666666</ele><time>2026-04-28T07:14:35.969Z</time></trkpt><trkpt lat="44.45718589408246" lon="11.161934891248109"><ele>146.33333333333331</ele><time>2026-04-28T07:14:36.969Z</time></trkpt><trkpt lat="44.45708775017608" lon="11.161763239872917"><ele>143.0</ele><time>2026-04-28T07:14:37.969Z</time></trkpt><trkpt lat="44.457004892038434" lon="11.161591817020039"><ele>147.0</ele><time>2026-04-28T07:14:38.969Z</time></trkpt><trkpt lat="44.456927740839035" lon="11.1614182120216"><ele>151.0</ele><time>2026-04-28T07:14:39.969Z</time></trkpt><trkpt lat="44.456839565978925" lon="11.161237070225338"><ele>155.0</ele><time>2026-04-28T07:14:40.969Z</time></trkpt><trkpt lat="44.45672218352936" lon="11.161068692864164"><ele>155.0</ele><time>2026-04-28T07:14:41.969Z</time></trkpt><trkpt lat="44.45660154203361" lon="11.160920106014013"><ele>155.0</ele><time>2026-04-28T07:14:42.969Z</time></trkpt><trkpt lat="44.4564721092883" lon="11.1607890684158"><ele>155.0</ele><time>2026-04-28T07:14:43.969Z</time></trkpt><trkpt lat="44.45636992891874" lon="11.160624359407898"><ele>154.75</ele><time>2026-04-28T07:14:44.969Z</time></trkpt><trkpt lat="44.456255707945786" lon="11.160479791996531"><ele>154.5</ele><time>2026-04-28T07:14:45.969Z</time></trkpt><trkpt lat="44.456140968424734" lon="11.160350383520928"><ele>154.25</ele><time>2026-04-28T07:14:46.969Z</time></trkpt><trkpt lat="44.45602663456536" lon="11.160229444180175"><ele>154.0</ele><time>2026-04-28T07:14:47.969Z</time></trkpt><trkpt lat="44.455910061650805" lon="11.1601090972719"><ele>154.0</ele><time>2026-04-28T07:14:48.969Z</time></trkpt><trkpt lat="44.455785484575664" lon="11.159994404515697"><ele>154.0</ele><time>2026-04-28T07:14:49.969Z</time></trkpt><trkpt lat="44.45565917470244" lon="11.159874073981477"><ele>154.0</ele><time>2026-04-28T07:14:50.969Z</time></trkpt><trkpt lat="44.45554067765149" lon="11.159761237685013"><ele>154.0</ele><time>2026-04-28T07:14:51.969Z</time></trkpt><trkpt lat="44.455422215881526" lon="11.159649149384924"><ele>155.5</ele><time>2026-04-28T07:14:52.969Z</time></trkpt><trkpt lat="44.45529992759999" lon="11.159549198686456"><ele>157.0</ele><time>2026-04-28T07:14:53.969Z</time></trkpt><trkpt lat="44.45518259843866" lon="11.159477167989019"><ele>158.5</ele><time>2026-04-28T07:14:54.969Z</time></trkpt><trkpt lat="44.45507033624517" lon="11.159420796507963"><ele>160.0</ele><time>2026-04-28T07:14:55.969Z</time></trkpt><trkpt lat="44.454967638372224" lon="11.159368358935488"><ele>160.0</ele><time>2026-04-28T07:14:56.969Z</time></trkpt><trkpt lat="44.45487568414109" lon="11.159289580514077"><ele>160.0</ele><time>2026-04-28T07:14:57.969Z</time></trkpt><trkpt lat="44.454803600983894" lon="11.159180824911237"><ele>160.0</ele><time>2026-04-28T07:14:58.969Z</time></trkpt><trkpt lat="44.45475591782249" lon="11.159066499552766"><ele>160.0</ele><time>2026-04-28T07:14:59.969Z</time></trkpt><trkpt lat="44.454732443259346" lon="11.158925150185603"><ele>160.0</ele><time>2026-04-28T07:15:00.969Z</time></trkpt><trkpt lat="44.454735260992955" lon="11.15875567560259"><ele>158.75</ele><time>2026-04-28T07:15:01.969Z</time></trkpt><trkpt lat="44.454706884692676" lon="11.158580280706564"><ele>157.5</ele><time>2026-04-28T07:15:02.969Z</time></trkpt><trkpt lat="44.454639674682376" lon="11.158408631920713"><ele>156.25</ele><time>2026-04-28T07:15:03.969Z</time></trkpt><trkpt lat="44.454534537745566" lon="11.158270578706876"><ele>155.0</ele><time>2026-04-28T07:15:04.969Z</time></trkpt><trkpt lat="44.45440019122368" lon="11.158164992241517"><ele>155.0</ele><time>2026-04-28T07:15:05.969Z</time></trkpt><trkpt lat="44.45427948160396" lon="11.158060242518443"><ele>155.0</ele><time>2026-04-28T07:15:06.968Z</time></trkpt><trkpt lat="44.45416840470765" lon="11.15791992669518"><ele>155.0</ele><time>2026-04-28T07:15:07.968Z</time></trkpt><trkpt lat="44.454055368115405" lon="11.157740938827777"><ele>155.0</ele><time>2026-04-28T07:15:08.968Z</time></trkpt><trkpt lat="44.45394707160946" lon="11.157561607720718"><ele>155.0</ele><time>2026-04-28T07:15:09.968Z</time></trkpt><trkpt lat="44.45384903274834" lon="11.15739811866281"><ele>155.0</ele><time>2026-04-28T07:15:10.968Z</time></trkpt><trkpt lat="44.45375965870932" lon="11.15724702225011"><ele>155.25</ele><time>2026-04-28T07:15:11.968Z</time></trkpt><trkpt lat="44.453676082647206" lon="11.157105727264325"><ele>155.5</ele><time>2026-04-28T07:15:12.968Z</time></trkpt><trkpt lat="44.453598422818374" lon="11.156975374467534"><ele>155.75</ele><time>2026-04-28T07:15:13.968Z</time></trkpt><trkpt lat="44.453513394512825" lon="11.156846996469037"><ele>156.0</ele><time>2026-04-28T07:15:14.968Z</time></trkpt><trkpt lat="44.453475499069114" lon="11.156669955585699"><ele>157.25</ele><time>2026-04-28T07:15:15.968Z</time></trkpt><trkpt lat="44.45342822249383" lon="11.156499419175852"><ele>158.5</ele><time>2026-04-28T07:15:16.968Z</time></trkpt><trkpt lat="44.453379942741535" lon="11.15632649878285"><ele>159.75</ele><time>2026-04-28T07:15:17.968Z</time></trkpt><trkpt lat="44.45332195002112" lon="11.156147514072547"><ele>161.0</ele><time>2026-04-28T07:15:18.968Z</time></trkpt><trkpt lat="44.453243835363075" lon="11.155969279432012"><ele>161.0</ele><time>2026-04-28T07:15:19.968Z</time></trkpt><trkpt lat="44.45311955120865" lon="11.15583416361109"><ele>161.0</ele><time>2026-04-28T07:15:20.968Z</time></trkpt><trkpt lat="44.453012577146346" lon="11.155673085214051"><ele>161.0</ele><time>2026-04-28T07:15:21.968Z</time></trkpt><trkpt lat="44.4528949076537" lon="11.155529625753017"><ele>161.5</ele><time>2026-04-28T07:15:22.968Z</time></trkpt><trkpt lat="44.4527722028908" lon="11.155423002503056"><ele>162.0</ele><time>2026-04-28T07:15:23.968Z</time></trkpt><trkpt lat="44.45267337646416" lon="11.155286569464357"><ele>162.5</ele><time>2026-04-28T07:15:24.968Z</time></trkpt><trkpt lat="44.45255798748019" lon="11.155191383175522"><ele>163.0</ele><time>2026-04-28T07:15:25.968Z</time></trkpt><trkpt lat="44.45245356274256" lon="11.155069534372315"><ele>163.0</ele><time>2026-04-28T07:15:26.968Z</time></trkpt><trkpt lat="44.45238294602897" lon="11.154921283805626"><ele>163.0</ele><time>2026-04-28T07:15:27.968Z</time></trkpt><trkpt lat="44.452322137196724" lon="11.154764841773526"><ele>163.0</ele><time>2026-04-28T07:15:28.968Z</time></trkpt><trkpt lat="44.45226966623896" lon="11.154608721945314"><ele>163.0</ele><time>2026-04-28T07:15:29.968Z</time></trkpt><trkpt lat="44.452191724530344" lon="11.154450073264922"><ele>162.25</ele><time>2026-04-28T07:15:30.968Z</time></trkpt><trkpt lat="44.45211403832494" lon="11.154304911758153"><ele>161.5</ele><time>2026-04-28T07:15:31.968Z</time></trkpt><trkpt lat="44.452026695574354" lon="11.15414837264658"><ele>160.75</ele><time>2026-04-28T07:15:32.968Z</time></trkpt><trkpt lat="44.45192818067986" lon="11.154005503658311"><ele>160.0</ele><time>2026-04-28T07:15:33.968Z</time></trkpt><trkpt lat="44.45182208381584" lon="11.153875070152685"><ele>160.0</ele><time>2026-04-28T07:15:34.968Z</time></trkpt><trkpt lat="44.45173246258655" lon="11.15375307260888"><ele>160.0</ele><time>2026-04-28T07:15:35.968Z</time></trkpt><trkpt lat="44.45165992455151" lon="11.15361699730807"><ele>160.0</ele><time>2026-04-28T07:15:36.968Z</time></trkpt><trkpt lat="44.45160125219215" lon="11.153462430905469"><ele>160.0</ele><time>2026-04-28T07:15:37.968Z</time></trkpt><trkpt lat="44.451561728486396" lon="11.153284291061006"><ele>162.75</ele><time>2026-04-28T07:15:38.968Z</time></trkpt><trkpt lat="44.45152899270482" lon="11.15309759057971"><ele>165.5</ele><time>2026-04-28T07:15:39.968Z</time></trkpt><trkpt lat="44.451503029453356" lon="11.152922350078027"><ele>168.25</ele><time>2026-04-28T07:15:40.968Z</time></trkpt><trkpt lat="44.45147308392967" lon="11.152744431803832"><ele>171.0</ele><time>2026-04-28T07:15:41.968Z</time></trkpt><trkpt lat="44.45141419544906" lon="11.152590922943599"><ele>171.0</ele><time>2026-04-28T07:15:42.968Z</time></trkpt><trkpt lat="44.451332581046294" lon="11.152453271776203"><ele>171.0</ele><time>2026-04-28T07:15:43.968Z</time></trkpt><trkpt lat="44.451223722584615" lon="11.152316020858771"><ele>171.0</ele><time>2026-04-28T07:15:44.968Z</time></trkpt><trkpt lat="44.451109702276675" lon="11.152176436538047"><ele>171.0</ele><time>2026-04-28T07:15:45.968Z</time></trkpt><trkpt lat="44.45100255576033" lon="11.152020174868676"><ele>167.0</ele><time>2026-04-28T07:15:46.968Z</time></trkpt><trkpt lat="44.450907554136506" lon="11.151848032312603"><ele>163.0</ele><time>2026-04-28T07:15:47.968Z</time></trkpt><trkpt lat="44.450824077524" lon="11.151665063958372"><ele>159.0</ele><time>2026-04-28T07:15:48.968Z</time></trkpt><trkpt lat="44.450764549198375" lon="11.151482854873322"><ele>159.0</ele><time>2026-04-28T07:15:49.968Z</time></trkpt><trkpt lat="44.45072181036213" lon="11.151311380116796"><ele>159.0</ele><time>2026-04-28T07:15:50.968Z</time></trkpt><trkpt lat="44.45068451965626" lon="11.151152665996127"><ele>159.0</ele><time>2026-04-28T07:15:51.968Z</time></trkpt><trkpt lat="44.45066972520438" lon="11.151008186760253"><ele>159.0</ele><time>2026-04-28T07:15:52.968Z</time></trkpt><trkpt lat="44.45068289081967" lon="11.150837410931972"><ele>158.75</ele><time>2026-04-28T07:15:53.968Z</time></trkpt><trkpt lat="44.45073033910203" lon="11.150680384005948"><ele>158.5</ele><time>2026-04-28T07:15:54.968Z</time></trkpt><trkpt lat="44.450798516636716" lon="11.150529567495537"><ele>158.25</ele><time>2026-04-28T07:15:55.968Z</time></trkpt><trkpt lat="44.450868816501455" lon="11.150368916677184"><ele>158.0</ele><time>2026-04-28T07:15:56.968Z</time></trkpt><trkpt lat="44.450937426719065" lon="11.1501981547778"><ele>158.0</ele><time>2026-04-28T07:15:57.968Z</time></trkpt><trkpt lat="44.45100353803998" lon="11.15003262348288"><ele>158.0</ele><time>2026-04-28T07:15:58.968Z</time></trkpt><trkpt lat="44.451075843790754" lon="11.14988335655489"><ele>158.0</ele><time>2026-04-28T07:15:59.968Z</time></trkpt><trkpt lat="44.451157233843865" lon="11.149743789629875"><ele>158.0</ele><time>2026-04-28T07:16:00.968Z</time></trkpt><trkpt lat="44.451235073002486" lon="11.149591756968878"><ele>159.0</ele><time>2026-04-28T07:16:01.968Z</time></trkpt><trkpt lat="44.45129467504475" lon="11.14941947914015"><ele>160.0</ele><time>2026-04-28T07:16:02.968Z</time></trkpt><trkpt lat="44.45134041458698" lon="11.14922942463919"><ele>161.0</ele><time>2026-04-28T07:16:03.968Z</time></trkpt><trkpt lat="44.4513664453267" lon="11.149039287150973"><ele>162.0</ele><time>2026-04-28T07:16:04.968Z</time></trkpt><trkpt lat="44.45138741072705" lon="11.148830303193137"><ele>162.0</ele><time>2026-04-28T07:16:05.968Z</time></trkpt><trkpt lat="44.45140936679691" lon="11.148609620997641"><ele>162.0</ele><time>2026-04-28T07:16:06.968Z</time></trkpt><trkpt lat="44.45144732171703" lon="11.148395806502455"><ele>162.0</ele><time>2026-04-28T07:16:07.968Z</time></trkpt><trkpt lat="44.45148449050815" lon="11.148188542158353"><ele>162.0</ele><time>2026-04-28T07:16:08.968Z</time></trkpt><trkpt lat="44.451521246751334" lon="11.14800063684834"><ele>162.0</ele><time>2026-04-28T07:16:09.968Z</time></trkpt><trkpt lat="44.45156941761525" lon="11.147831682266649"><ele>162.0</ele><time>2026-04-28T07:16:10.968Z</time></trkpt><trkpt lat="44.45163896232741" lon="11.147664811195037"><ele>162.0</ele><time>2026-04-28T07:16:11.968Z</time></trkpt><trkpt lat="44.45171650188168" lon="11.147507891993975"><ele>162.0</ele><time>2026-04-28T07:16:12.968Z</time></trkpt><trkpt lat="44.451772967938005" lon="11.14734647590396"><ele>162.0</ele><time>2026-04-28T07:16:13.968Z</time></trkpt><trkpt lat="44.45179771992248" lon="11.147168651275567"><ele>162.0</ele><time>2026-04-28T07:16:14.968Z</time></trkpt><trkpt lat="44.451802366705955" lon="11.147006140342942"><ele>162.0</ele><time>2026-04-28T07:16:15.968Z</time></trkpt><trkpt lat="44.45182065342339" lon="11.146842971784181"><ele>162.0</ele><time>2026-04-28T07:16:16.968Z</time></trkpt><trkpt lat="44.45186714130158" lon="11.146675907920134"><ele>162.0</ele><time>2026-04-28T07:16:17.968Z</time></trkpt><trkpt lat="44.45193475584675" lon="11.146512901878296"><ele>162.0</ele><time>2026-04-28T07:16:18.968Z</time></trkpt><trkpt lat="44.45201221271664" lon="11.146347437811192"><ele>162.0</ele><time>2026-04-28T07:16:19.968Z</time></trkpt><trkpt lat="44.45208374392533" lon="11.146177727448952"><ele>162.25</ele><time>2026-04-28T07:16:20.968Z</time></trkpt><trkpt lat="44.452142171324056" lon="11.146009400197649"><ele>162.5</ele><time>2026-04-28T07:16:21.968Z</time></trkpt><trkpt lat="44.452202709955586" lon="11.14585128989258"><ele>162.75</ele><time>2026-04-28T07:16:22.968Z</time></trkpt><trkpt lat="44.45224613566875" lon="11.145688117445232"><ele>163.0</ele><time>2026-04-28T07:16:23.968Z</time></trkpt><trkpt lat="44.45228615342911" lon="11.145525235315926"><ele>163.0</ele><time>2026-04-28T07:16:24.968Z</time></trkpt><trkpt lat="44.45232475727036" lon="11.145353294116875"><ele>163.0</ele><time>2026-04-28T07:16:25.968Z</time></trkpt><trkpt lat="44.452379617180945" lon="11.145190154545391"><ele>163.0</ele><time>2026-04-28T07:16:26.968Z</time></trkpt><trkpt lat="44.45244748202487" lon="11.145036042860868"><ele>163.0</ele><time>2026-04-28T07:16:27.968Z</time></trkpt><trkpt lat="44.45251634694397" lon="11.144892075589343"><ele>164.0</ele><time>2026-04-28T07:16:28.968Z</time></trkpt><trkpt lat="44.45256912052397" lon="11.144748080070269"><ele>165.0</ele><time>2026-04-28T07:16:29.968Z</time></trkpt><trkpt lat="44.45259278682479" lon="11.144589386506711"><ele>166.0</ele><time>2026-04-28T07:16:30.968Z</time></trkpt><trkpt lat="44.452582469026964" lon="11.144431981257233"><ele>167.0</ele><time>2026-04-28T07:16:31.968Z</time></trkpt><trkpt lat="44.45255772148153" lon="11.144287379892527"><ele>167.0</ele><time>2026-04-28T07:16:32.968Z</time></trkpt><trkpt lat="44.452538997019204" lon="11.144143275479431"><ele>167.0</ele><time>2026-04-28T07:16:33.968Z</time></trkpt><trkpt lat="44.45254338749726" lon="11.144006824536966"><ele>167.0</ele><time>2026-04-28T07:16:34.968Z</time></trkpt><trkpt lat="44.4525752679864" lon="11.143861236622532"><ele>167.0</ele><time>2026-04-28T07:16:35.967Z</time></trkpt><trkpt lat="44.452627319093274" lon="11.143714029169715"><ele>167.0</ele><time>2026-04-28T07:16:36.967Z</time></trkpt><trkpt lat="44.45268386981983" lon="11.14356328149055"><ele>166.25</ele><time>2026-04-28T07:16:37.967Z</time></trkpt><trkpt lat="44.45272528976557" lon="11.143404594810864"><ele>165.5</ele><time>2026-04-28T07:16:38.967Z</time></trkpt><trkpt lat="44.452748522717826" lon="11.143242751820512"><ele>164.75</ele><time>2026-04-28T07:16:39.967Z</time></trkpt><trkpt lat="44.452752973202855" lon="11.143076996228189"><ele>164.0</ele><time>2026-04-28T07:16:40.967Z</time></trkpt><trkpt lat="44.45273958370332" lon="11.142903881883392"><ele>164.0</ele><time>2026-04-28T07:16:41.967Z</time></trkpt><trkpt lat="44.45270438253153" lon="11.14271821616588"><ele>164.0</ele><time>2026-04-28T07:16:42.967Z</time></trkpt><trkpt lat="44.45264898489574" lon="11.142538891928135"><ele>164.0</ele><time>2026-04-28T07:16:43.967Z</time></trkpt><trkpt lat="44.45257659148326" lon="11.142373220484629"><ele>164.0</ele><time>2026-04-28T07:16:44.967Z</time></trkpt><trkpt lat="44.45249457327763" lon="11.142203445996945"><ele>164.75</ele><time>2026-04-28T07:16:45.967Z</time></trkpt><trkpt lat="44.4524202497444" lon="11.14202456616313"><ele>165.5</ele><time>2026-04-28T07:16:46.967Z</time></trkpt><trkpt lat="44.45233512359889" lon="11.141850054846188"><ele>166.25</ele><time>2026-04-28T07:16:47.967Z</time></trkpt><trkpt lat="44.45226330099859" lon="11.141667908074222"><ele>167.0</ele><time>2026-04-28T07:16:48.967Z</time></trkpt><trkpt lat="44.45220879743817" lon="11.141488077466807"><ele>167.5</ele><time>2026-04-28T07:16:49.967Z</time></trkpt><trkpt lat="44.45216867801955" lon="11.141296298128648"><ele>168.0</ele><time>2026-04-28T07:16:50.967Z</time></trkpt><trkpt lat="44.45213351076891" lon="11.141109561344411"><ele>168.5</ele><time>2026-04-28T07:16:51.967Z</time></trkpt><trkpt lat="44.45207165827425" lon="11.14093370684244"><ele>169.0</ele><time>2026-04-28T07:16:52.967Z</time></trkpt><trkpt lat="44.45206346834265" lon="11.140724593887589"><ele>169.0</ele><time>2026-04-28T07:16:53.967Z</time></trkpt><trkpt lat="44.45201843425354" lon="11.140546210118014"><ele>169.0</ele><time>2026-04-28T07:16:54.967Z</time></trkpt><trkpt lat="44.452015955270845" lon="11.140347786685306"><ele>169.0</ele><time>2026-04-28T07:16:55.967Z</time></trkpt><trkpt lat="44.45201896356126" lon="11.140153415019311"><ele>169.0</ele><time>2026-04-28T07:16:56.967Z</time></trkpt><trkpt lat="44.45203929904371" lon="11.139965715065394"><ele>170.25</ele><time>2026-04-28T07:16:57.967Z</time></trkpt><trkpt lat="44.452067166205715" lon="11.139787207594164"><ele>171.5</ele><time>2026-04-28T07:16:58.967Z</time></trkpt><trkpt lat="44.45209624116109" lon="11.139627128466604"><ele>172.75</ele><time>2026-04-28T07:16:59.967Z</time></trkpt><trkpt lat="44.45214773773489" lon="11.139487108699972"><ele>174.0</ele><time>2026-04-28T07:17:00.967Z</time></trkpt><trkpt lat="44.45223515001499" lon="11.139359243522138"><ele>174.5</ele><time>2026-04-28T07:17:01.967Z</time></trkpt><trkpt lat="44.45235418035425" lon="11.13922933011489"><ele>175.0</ele><time>2026-04-28T07:17:02.967Z</time></trkpt><trkpt lat="44.4524438738065" lon="11.139079782474056"><ele>175.5</ele><time>2026-04-28T07:17:03.967Z</time></trkpt><trkpt lat="44.452545524578554" lon="11.138946119675932"><ele>176.0</ele><time>2026-04-28T07:17:04.967Z</time></trkpt><trkpt lat="44.45263471246745" lon="11.138793136179748"><ele>177.75</ele><time>2026-04-28T07:17:05.967Z</time></trkpt><trkpt lat="44.45271449939848" lon="11.138648434629872"><ele>179.5</ele><time>2026-04-28T07:17:06.967Z</time></trkpt><trkpt lat="44.45279243735857" lon="11.138503993338908"><ele>181.25</ele><time>2026-04-28T07:17:07.967Z</time></trkpt><trkpt lat="44.45285913167128" lon="11.138383730792125"><ele>183.0</ele><time>2026-04-28T07:17:08.967Z</time></trkpt><trkpt lat="44.4529369942674" lon="11.138276779135083"><ele>183.60000000000002</ele><time>2026-04-28T07:17:09.967Z</time></trkpt><trkpt lat="44.45302662954765" lon="11.138180499773854"><ele>184.20000000000002</ele><time>2026-04-28T07:17:10.967Z</time></trkpt><trkpt lat="44.45310947685604" lon="11.138070350474775"><ele>184.8</ele><time>2026-04-28T07:17:11.967Z</time></trkpt><trkpt lat="44.45319261091807" lon="11.137967375521296"><ele>185.4</ele><time>2026-04-28T07:17:12.967Z</time></trkpt><trkpt lat="44.45327689079602" lon="11.137869020867827"><ele>186.0</ele><time>2026-04-28T07:17:13.967Z</time></trkpt><trkpt lat="44.45335748844233" lon="11.137746307022454"><ele>186.0</ele><time>2026-04-28T07:17:14.967Z</time></trkpt><trkpt lat="44.45344278424381" lon="11.137613968356025"><ele>186.0</ele><time>2026-04-28T07:17:15.967Z</time></trkpt><trkpt lat="44.45351354957727" lon="11.137476412261478"><ele>186.0</ele><time>2026-04-28T07:17:16.967Z</time></trkpt><trkpt lat="44.45358090314853" lon="11.137332311671889"><ele>186.0</ele><time>2026-04-28T07:17:17.967Z</time></trkpt><trkpt lat="44.4536491495091" lon="11.137183564784173"><ele>188.0</ele><time>2026-04-28T07:17:18.967Z</time></trkpt><trkpt lat="44.453722457381005" lon="11.13703489025436"><ele>190.0</ele><time>2026-04-28T07:17:19.967Z</time></trkpt><trkpt lat="44.45378948437456" lon="11.136884810185876"><ele>192.0</ele><time>2026-04-28T07:17:20.967Z</time></trkpt><trkpt lat="44.45385401825606" lon="11.136733024896882"><ele>194.0</ele><time>2026-04-28T07:17:21.967Z</time></trkpt><trkpt lat="44.45392182902968" lon="11.13657683354525"><ele>194.5</ele><time>2026-04-28T07:17:22.967Z</time></trkpt><trkpt lat="44.45397833023778" lon="11.136414623038984"><ele>195.0</ele><time>2026-04-28T07:17:23.967Z</time></trkpt><trkpt lat="44.45402023719667" lon="11.136235431616106"><ele>195.5</ele><time>2026-04-28T07:17:24.967Z</time></trkpt><trkpt lat="44.45404645662389" lon="11.136053502991807"><ele>196.0</ele><time>2026-04-28T07:17:25.967Z</time></trkpt><trkpt lat="44.45403973829954" lon="11.135874519788313"><ele>199.5</ele><time>2026-04-28T07:17:26.967Z</time></trkpt><trkpt lat="44.45401078920085" lon="11.135695332277141"><ele>203.0</ele><time>2026-04-28T07:17:27.967Z</time></trkpt><trkpt lat="44.45397163859926" lon="11.13551485686985"><ele>206.5</ele><time>2026-04-28T07:17:28.967Z</time></trkpt><trkpt lat="44.45394341868133" lon="11.13531987000346"><ele>210.0</ele><time>2026-04-28T07:17:29.967Z</time></trkpt><trkpt lat="44.4539312729478" lon="11.135119673355542"><ele>210.0</ele><time>2026-04-28T07:17:30.967Z</time></trkpt><trkpt lat="44.45392913849533" lon="11.134927455133807"><ele>210.0</ele><time>2026-04-28T07:17:31.967Z</time></trkpt><trkpt lat="44.453936133681324" lon="11.134746783762875"><ele>210.0</ele><time>2026-04-28T07:17:32.967Z</time></trkpt><trkpt lat="44.45395380513372" lon="11.134573295030354"><ele>210.0</ele><time>2026-04-28T07:17:33.967Z</time></trkpt><trkpt lat="44.45397454580032" lon="11.134414381027078"><ele>211.0</ele><time>2026-04-28T07:17:34.967Z</time></trkpt><trkpt lat="44.45398456965632" lon="11.134265534775622"><ele>212.0</ele><time>2026-04-28T07:17:35.967Z</time></trkpt><trkpt lat="44.45397536741426" lon="11.134134491185074"><ele>213.0</ele><time>2026-04-28T07:17:36.967Z</time></trkpt><trkpt lat="44.45394664288955" lon="11.13402569283347"><ele>214.0</ele><time>2026-04-28T07:17:37.966Z</time></trkpt><trkpt lat="44.453922557353536" lon="11.133931889761488"><ele>215.0</ele><time>2026-04-28T07:17:38.966Z</time></trkpt><trkpt lat="44.45388636266617" lon="11.1338135939165"><ele>216.0</ele><time>2026-04-28T07:17:40.966Z</time></trkpt><trkpt lat="44.45383669078492" lon="11.133670021079666"><ele>219.4</ele><time>2026-04-28T07:17:42.965Z</time></trkpt><trkpt lat="44.453783186907415" lon="11.133620862433926"><ele>222.8</ele><time>2026-04-28T07:17:43.966Z</time></trkpt><trkpt lat="44.45368103350889" lon="11.133637977718463"><ele>226.20000000000002</ele><time>2026-04-28T07:17:44.966Z</time></trkpt><trkpt lat="44.453657912526154" lon="11.133795814422937"><ele>229.60000000000002</ele><time>2026-04-28T07:17:45.966Z</time></trkpt><trkpt lat="44.453613930379234" lon="11.13388423337429"><ele>233.0</ele><time>2026-04-28T07:17:47.966Z</time></trkpt><trkpt lat="44.45355421685082" lon="11.133776611289903"><ele>233.0</ele><time>2026-04-28T07:17:51.965Z</time></trkpt><trkpt lat="44.45355428476063" lon="11.13364085511739"><ele>233.0</ele><time>2026-04-28T07:17:52.965Z</time></trkpt><trkpt lat="44.453567536724464" lon="11.13350095973061"><ele>233.0</ele><time>2026-04-28T07:17:53.965Z</time></trkpt><trkpt lat="44.45356890316839" lon="11.133347838786959"><ele>233.0</ele><time>2026-04-28T07:17:54.965Z</time></trkpt><trkpt lat="44.45355755680924" lon="11.133195274357668"><ele>233.0</ele><time>2026-04-28T07:17:55.965Z</time></trkpt><trkpt lat="44.4535459491549" lon="11.133073950367438"><ele>234.0</ele><time>2026-04-28T07:17:56.965Z</time></trkpt><trkpt lat="44.453560327718385" lon="11.132975997348327"><ele>235.0</ele><time>2026-04-28T07:17:57.965Z</time></trkpt><trkpt lat="44.45360153723902" lon="11.132903249316028"><ele>236.0</ele><time>2026-04-28T07:17:58.965Z</time></trkpt><trkpt lat="44.4536616840983" lon="11.132862450967805"><ele>237.0</ele><time>2026-04-28T07:17:59.965Z</time></trkpt><trkpt lat="44.45373595144755" lon="11.132855067633262"><ele>238.0</ele><time>2026-04-28T07:18:00.965Z</time></trkpt><trkpt lat="44.453807603795276" lon="11.132890058666817"><ele>239.0</ele><time>2026-04-28T07:18:01.965Z</time></trkpt><trkpt lat="44.45387481009413" lon="11.132953277368308"><ele>240.0</ele><time>2026-04-28T07:18:02.965Z</time></trkpt><trkpt lat="44.45395258185437" lon="11.133024069478601"><ele>240.33333333333334</ele><time>2026-04-28T07:18:03.965Z</time></trkpt><trkpt lat="44.45400322314682" lon="11.13307682152528"><ele>240.66666666666669</ele><time>2026-04-28T07:18:04.965Z</time></trkpt><trkpt lat="44.45408236964537" lon="11.133100201521207"><ele>241.0</ele><time>2026-04-28T07:18:06.965Z</time></trkpt><trkpt lat="44.454139984574354" lon="11.133013873254692"><ele>241.33333333333334</ele><time>2026-04-28T07:18:08.965Z</time></trkpt><trkpt lat="44.45408572877007" lon="11.132872616754662"><ele>241.66666666666669</ele><time>2026-04-28T07:18:09.965Z</time></trkpt><trkpt lat="44.45403079372793" lon="11.132777651790976"><ele>242.0</ele><time>2026-04-28T07:18:10.965Z</time></trkpt><trkpt lat="44.45396688391245" lon="11.132663612080458"><ele>242.0</ele><time>2026-04-28T07:18:11.965Z</time></trkpt><trkpt lat="44.45390512505274" lon="11.132514011619918"><ele>242.0</ele><time>2026-04-28T07:18:12.965Z</time></trkpt><trkpt lat="44.45385619552575" lon="11.132359270508177"><ele>242.0</ele><time>2026-04-28T07:18:13.965Z</time></trkpt><trkpt lat="44.45381037424169" lon="11.132212974992783"><ele>242.0</ele><time>2026-04-28T07:18:14.965Z</time></trkpt><trkpt lat="44.45375581416413" lon="11.132093541728114"><ele>243.6</ele><time>2026-04-28T07:18:15.965Z</time></trkpt><trkpt lat="44.45367604066103" lon="11.132017863402954"><ele>245.2</ele><time>2026-04-28T07:18:16.965Z</time></trkpt><trkpt lat="44.453565503174424" lon="11.13198986054284"><ele>246.8</ele><time>2026-04-28T07:18:17.965Z</time></trkpt><trkpt lat="44.453470670557444" lon="11.13198542798088"><ele>248.4</ele><time>2026-04-28T07:18:18.965Z</time></trkpt><trkpt lat="44.45339617295908" lon="11.131988386600682"><ele>250.0</ele><time>2026-04-28T07:18:19.965Z</time></trkpt><trkpt lat="44.45330851309532" lon="11.131978508605265"><ele>249.99999999999997</ele><time>2026-04-28T07:18:21.965Z</time></trkpt><trkpt lat="44.45324572270346" lon="11.131899739760303"><ele>250.0</ele><time>2026-04-28T07:18:23.965Z</time></trkpt><trkpt lat="44.45327334313352" lon="11.131797634917952"><ele>250.0</ele><time>2026-04-28T07:18:24.965Z</time></trkpt><trkpt lat="44.453351119352874" lon="11.131754350796543"><ele>250.0</ele><time>2026-04-28T07:18:25.965Z</time></trkpt><trkpt lat="44.4534342212721" lon="11.131715226307914"><ele>249.99999999999997</ele><time>2026-04-28T07:18:26.965Z</time></trkpt><trkpt lat="44.45353244377404" lon="11.131704106389508"><ele>250.0</ele><time>2026-04-28T07:18:27.965Z</time></trkpt><trkpt lat="44.4536485266738" lon="11.131697619567852"><ele>249.99999999999997</ele><time>2026-04-28T07:18:28.965Z</time></trkpt><trkpt lat="44.45375390069481" lon="11.131685423475998"><ele>250.0</ele><time>2026-04-28T07:18:29.965Z</time></trkpt><trkpt lat="44.453838010627535" lon="11.131646506297216"><ele>250.0</ele><time>2026-04-28T07:18:30.965Z</time></trkpt><trkpt lat="44.45391195941604" lon="11.131621325490835"><ele>250.0</ele><time>2026-04-28T07:18:31.965Z</time></trkpt><trkpt lat="44.45398905486487" lon="11.1315959754233"><ele>249.99999999999997</ele><time>2026-04-28T07:18:32.965Z</time></trkpt><trkpt lat="44.45406801174837" lon="11.131588268617335"><ele>250.0</ele><time>2026-04-28T07:18:33.965Z</time></trkpt><trkpt lat="44.45414739722468" lon="11.13160688037377"><ele>251.4</ele><time>2026-04-28T07:18:34.965Z</time></trkpt><trkpt lat="44.454218465240274" lon="11.131684556666098"><ele>252.8</ele><time>2026-04-28T07:18:35.965Z</time></trkpt><trkpt lat="44.4542883218634" lon="11.13176211598288"><ele>254.2</ele><time>2026-04-28T07:18:36.965Z</time></trkpt><trkpt lat="44.454365351307274" lon="11.131854637686049"><ele>255.6</ele><time>2026-04-28T07:18:37.965Z</time></trkpt><trkpt lat="44.454449800145944" lon="11.131944984009586"><ele>257.0</ele><time>2026-04-28T07:18:38.965Z</time></trkpt><trkpt lat="44.45455359912791" lon="11.132015513869746"><ele>261.2</ele><time>2026-04-28T07:18:39.965Z</time></trkpt><trkpt lat="44.4546480839102" lon="11.132089418416458"><ele>265.4</ele><time>2026-04-28T07:18:40.965Z</time></trkpt><trkpt lat="44.4547407105655" lon="11.132144905108238"><ele>269.6</ele><time>2026-04-28T07:18:41.965Z</time></trkpt><trkpt lat="44.454835219450985" lon="11.132190169238449"><ele>273.8</ele><time>2026-04-28T07:18:42.965Z</time></trkpt><trkpt lat="44.454933375086085" lon="11.13223514390781"><ele>278.0</ele><time>2026-04-28T07:18:43.965Z</time></trkpt><trkpt lat="44.455032036358645" lon="11.132278345396019"><ele>278.0</ele><time>2026-04-28T07:18:44.965Z</time></trkpt><trkpt lat="44.45513871921458" lon="11.132332771915856"><ele>278.0</ele><time>2026-04-28T07:18:45.965Z</time></trkpt><trkpt lat="44.45525749713527" lon="11.13239971956647"><ele>278.0</ele><time>2026-04-28T07:18:46.965Z</time></trkpt><trkpt lat="44.45535819589882" lon="11.132455480864113"><ele>278.0</ele><time>2026-04-28T07:18:47.965Z</time></trkpt><trkpt lat="44.45544164801747" lon="11.132531337855129"><ele>278.0</ele><time>2026-04-28T07:18:48.965Z</time></trkpt><trkpt lat="44.45553350998229" lon="11.132593783951338"><ele>278.2</ele><time>2026-04-28T07:18:49.965Z</time></trkpt><trkpt lat="44.45562695135675" lon="11.13265926735086"><ele>278.4</ele><time>2026-04-28T07:18:50.965Z</time></trkpt><trkpt lat="44.455716680884" lon="11.132718909399268"><ele>278.59999999999997</ele><time>2026-04-28T07:18:51.965Z</time></trkpt><trkpt lat="44.455807096073194" lon="11.132759237559977"><ele>278.8</ele><time>2026-04-28T07:18:52.965Z</time></trkpt><trkpt lat="44.45588198167415" lon="11.132786780845116"><ele>279.0</ele><time>2026-04-28T07:18:53.965Z</time></trkpt><trkpt lat="44.45599133058971" lon="11.132764035136589"><ele>279.0</ele><time>2026-04-28T07:18:55.965Z</time></trkpt><trkpt lat="44.45609946367823" lon="11.132687961027793"><ele>279.0</ele><time>2026-04-28T07:18:57.965Z</time></trkpt><trkpt lat="44.45608300072501" lon="11.132411931043071"><ele>279.0</ele><time>2026-04-28T07:18:59.965Z</time></trkpt><trkpt lat="44.45603365317717" lon="11.132265623619611"><ele>279.0</ele><time>2026-04-28T07:19:00.965Z</time></trkpt><trkpt lat="44.45596829315761" lon="11.132110415321797"><ele>278.0</ele><time>2026-04-28T07:19:01.965Z</time></trkpt><trkpt lat="44.45592258024423" lon="11.131950840090102"><ele>277.0</ele><time>2026-04-28T07:19:02.965Z</time></trkpt><trkpt lat="44.455871630755915" lon="11.131807481072888"><ele>276.0</ele><time>2026-04-28T07:19:03.965Z</time></trkpt><trkpt lat="44.45580662822603" lon="11.131668835005028"><ele>275.0</ele><time>2026-04-28T07:19:04.965Z</time></trkpt><trkpt lat="44.45574222128408" lon="11.13150848338523"><ele>273.25</ele><time>2026-04-28T07:19:05.965Z</time></trkpt><trkpt lat="44.45569079596306" lon="11.13132804309307"><ele>271.5</ele><time>2026-04-28T07:19:06.965Z</time></trkpt><trkpt lat="44.45566178148031" lon="11.131147307498773"><ele>269.75</ele><time>2026-04-28T07:19:07.965Z</time></trkpt><trkpt lat="44.45564610668885" lon="11.130946643055724"><ele>268.0</ele><time>2026-04-28T07:19:08.965Z</time></trkpt><trkpt lat="44.45566678222918" lon="11.130753426395039"><ele>268.25</ele><time>2026-04-28T07:19:09.965Z</time></trkpt><trkpt lat="44.455682597177976" lon="11.130573493563544"><ele>268.5</ele><time>2026-04-28T07:19:10.964Z</time></trkpt><trkpt lat="44.45571499516577" lon="11.130406307249102"><ele>268.75</ele><time>2026-04-28T07:19:11.964Z</time></trkpt><trkpt lat="44.455765918354146" lon="11.130231816715186"><ele>269.0</ele><time>2026-04-28T07:19:12.964Z</time></trkpt><trkpt lat="44.45583514220473" lon="11.13007103164105"><ele>269.0</ele><time>2026-04-28T07:19:13.964Z</time></trkpt><trkpt lat="44.455914565899356" lon="11.129922524443643"><ele>269.0</ele><time>2026-04-28T07:19:14.964Z</time></trkpt><trkpt lat="44.455990928480176" lon="11.129787539877029"><ele>269.0</ele><time>2026-04-28T07:19:15.964Z</time></trkpt><trkpt lat="44.45607801360016" lon="11.129665148979441"><ele>269.0</ele><time>2026-04-28T07:19:16.964Z</time></trkpt><trkpt lat="44.4561558438082" lon="11.129537855449993"><ele>269.25</ele><time>2026-04-28T07:19:17.964Z</time></trkpt><trkpt lat="44.456228639110876" lon="11.129391029514728"><ele>269.5</ele><time>2026-04-28T07:19:18.964Z</time></trkpt><trkpt lat="44.456274418412754" lon="11.129204671966427"><ele>269.75</ele><time>2026-04-28T07:19:19.964Z</time></trkpt><trkpt lat="44.45631250199122" lon="11.129011096769133"><ele>270.0</ele><time>2026-04-28T07:19:20.964Z</time></trkpt><trkpt lat="44.45634513239173" lon="11.12883066161297"><ele>262.75</ele><time>2026-04-28T07:19:21.964Z</time></trkpt><trkpt lat="44.456402409391075" lon="11.12866847090298"><ele>255.5</ele><time>2026-04-28T07:19:22.964Z</time></trkpt><trkpt lat="44.45644152643537" lon="11.128498901735522"><ele>248.25</ele><time>2026-04-28T07:19:23.964Z</time></trkpt><trkpt lat="44.456478403052685" lon="11.12833349877702"><ele>241.0</ele><time>2026-04-28T07:19:24.964Z</time></trkpt><trkpt lat="44.45649245213226" lon="11.128155952067829"><ele>240.0</ele><time>2026-04-28T07:19:25.964Z</time></trkpt><trkpt lat="44.45649147640442" lon="11.127990133555771"><ele>239.0</ele><time>2026-04-28T07:19:26.964Z</time></trkpt><trkpt lat="44.45646653066769" lon="11.127821942982928"><ele>238.0</ele><time>2026-04-28T07:19:27.964Z</time></trkpt><trkpt lat="44.45643730548828" lon="11.127647205301002"><ele>237.0</ele><time>2026-04-28T07:19:28.964Z</time></trkpt><trkpt lat="44.456414211194534" lon="11.127477086752773"><ele>235.75</ele><time>2026-04-28T07:19:29.964Z</time></trkpt><trkpt lat="44.45640774747278" lon="11.127295255841862"><ele>234.5</ele><time>2026-04-28T07:19:30.964Z</time></trkpt><trkpt lat="44.4564151570675" lon="11.127119341092616"><ele>233.25</ele><time>2026-04-28T07:19:31.964Z</time></trkpt><trkpt lat="44.456439855531116" lon="11.126945759963398"><ele>232.0</ele><time>2026-04-28T07:19:32.964Z</time></trkpt><trkpt lat="44.45647307765269" lon="11.126791684880661"><ele>232.0</ele><time>2026-04-28T07:19:33.964Z</time></trkpt><trkpt lat="44.45650519088001" lon="11.126651117807027"><ele>232.0</ele><time>2026-04-28T07:19:34.964Z</time></trkpt><trkpt lat="44.456517385162314" lon="11.126500826266751"><ele>232.0</ele><time>2026-04-28T07:19:35.964Z</time></trkpt><trkpt lat="44.45649502921469" lon="11.126333633136573"><ele>232.0</ele><time>2026-04-28T07:19:36.964Z</time></trkpt><trkpt lat="44.456448415514885" lon="11.12617099245803"><ele>231.0</ele><time>2026-04-28T07:19:37.964Z</time></trkpt><trkpt lat="44.456403777818444" lon="11.126014674851017"><ele>230.0</ele><time>2026-04-28T07:19:38.964Z</time></trkpt><trkpt lat="44.456355982981115" lon="11.125872755801533"><ele>229.0</ele><time>2026-04-28T07:19:39.964Z</time></trkpt><trkpt lat="44.45630241691387" lon="11.12573937416765"><ele>228.0</ele><time>2026-04-28T07:19:40.964Z</time></trkpt><trkpt lat="44.45624879210407" lon="11.125621234256315"><ele>227.0</ele><time>2026-04-28T07:19:41.964Z</time></trkpt><trkpt lat="44.4561950192875" lon="11.125526342109191"><ele>222.8</ele><time>2026-04-28T07:19:42.964Z</time></trkpt><trkpt lat="44.45615114238761" lon="11.125436573562974"><ele>218.6</ele><time>2026-04-28T07:19:43.965Z</time></trkpt><trkpt lat="44.45614559056455" lon="11.12531880391247"><ele>214.4</ele><time>2026-04-28T07:19:44.964Z</time></trkpt><trkpt lat="44.45615061162631" lon="11.125183539274603"><ele>210.20000000000002</ele><time>2026-04-28T07:19:45.964Z</time></trkpt><trkpt lat="44.45619026754547" lon="11.125058127153878"><ele>206.0</ele><time>2026-04-28T07:19:46.965Z</time></trkpt><trkpt lat="44.45624975447175" lon="11.124954744967683"><ele>205.0</ele><time>2026-04-28T07:19:47.964Z</time></trkpt><trkpt lat="44.45633114709159" lon="11.12488471998518"><ele>204.0</ele><time>2026-04-28T07:19:48.964Z</time></trkpt><trkpt lat="44.456427912220946" lon="11.124847596566847"><ele>203.0</ele><time>2026-04-28T07:19:49.964Z</time></trkpt><trkpt lat="44.456533441083465" lon="11.124827902136717"><ele>202.0</ele><time>2026-04-28T07:19:50.964Z</time></trkpt><trkpt lat="44.456633698088304" lon="11.124844021406894"><ele>201.0</ele><time>2026-04-28T07:19:51.964Z</time></trkpt><trkpt lat="44.45674153619998" lon="11.124872962461339"><ele>201.0</ele><time>2026-04-28T07:19:52.965Z</time></trkpt><trkpt lat="44.45684834431818" lon="11.124884961760054"><ele>201.0</ele><time>2026-04-28T07:19:53.964Z</time></trkpt><trkpt lat="44.45694808543279" lon="11.124938767637126"><ele>201.0</ele><time>2026-04-28T07:19:54.964Z</time></trkpt><trkpt lat="44.45702642580133" lon="11.1249981892109"><ele>201.0</ele><time>2026-04-28T07:19:55.963Z</time></trkpt><trkpt lat="44.45708475924095" lon="11.125060336635332"><ele>201.0</ele><time>2026-04-28T07:19:56.963Z</time></trkpt><trkpt lat="44.45718081797098" lon="11.125066961430285"><ele>199.66666666666666</ele><time>2026-04-28T07:19:58.963Z</time></trkpt><trkpt lat="44.45723050068747" lon="11.1249978117406"><ele>198.33333333333331</ele><time>2026-04-28T07:19:59.963Z</time></trkpt><trkpt lat="44.45725346328898" lon="11.124890969699551"><ele>197.0</ele><time>2026-04-28T07:20:00.963Z</time></trkpt><trkpt lat="44.45727345113868" lon="11.124774421712091"><ele>195.66666666666666</ele><time>2026-04-28T07:20:01.963Z</time></trkpt><trkpt lat="44.45729754672113" lon="11.12463744346621"><ele>194.33333333333331</ele><time>2026-04-28T07:20:02.963Z</time></trkpt><trkpt lat="44.457327251946495" lon="11.124500744540018"><ele>193.0</ele><time>2026-04-28T07:20:03.963Z</time></trkpt><trkpt lat="44.45736998101136" lon="11.124367623865037"><ele>192.8</ele><time>2026-04-28T07:20:04.963Z</time></trkpt><trkpt lat="44.45741652789624" lon="11.124230134274779"><ele>192.60000000000002</ele><time>2026-04-28T07:20:05.963Z</time></trkpt><trkpt lat="44.45747025841875" lon="11.124128603945149"><ele>192.39999999999998</ele><time>2026-04-28T07:20:06.963Z</time></trkpt><trkpt lat="44.45751262067878" lon="11.124038816568465"><ele>192.2</ele><time>2026-04-28T07:20:07.963Z</time></trkpt><trkpt lat="44.457521840151784" lon="11.123908185929203"><ele>192.0</ele><time>2026-04-28T07:20:08.963Z</time></trkpt><trkpt lat="44.4574683099497" lon="11.123767805122425"><ele>191.0</ele><time>2026-04-28T07:20:09.963Z</time></trkpt><trkpt lat="44.45736716378935" lon="11.12368331331235"><ele>190.0</ele><time>2026-04-28T07:20:10.963Z</time></trkpt><trkpt lat="44.45728868312216" lon="11.12360161749491"><ele>189.0</ele><time>2026-04-28T07:20:11.963Z</time></trkpt><trkpt lat="44.45719481785268" lon="11.123504187039194"><ele>188.0</ele><time>2026-04-28T07:20:12.963Z</time></trkpt><trkpt lat="44.45710694370476" lon="11.123407530771335"><ele>187.0</ele><time>2026-04-28T07:20:13.963Z</time></trkpt><trkpt lat="44.4570255869988" lon="11.123317264022754"><ele>187.0</ele><time>2026-04-28T07:20:14.963Z</time></trkpt><trkpt lat="44.45695214477259" lon="11.123235777669613"><ele>187.0</ele><time>2026-04-28T07:20:15.963Z</time></trkpt><trkpt lat="44.45688579432028" lon="11.123169055078684"><ele>187.0</ele><time>2026-04-28T07:20:16.963Z</time></trkpt><trkpt lat="44.45680032781896" lon="11.123133351777685"><ele>187.0</ele><time>2026-04-28T07:20:17.963Z</time></trkpt><trkpt lat="44.45671336961504" lon="11.123142253332661"><ele>187.0</ele><time>2026-04-28T07:20:18.963Z</time></trkpt><trkpt lat="44.456628093726636" lon="11.123182188830159"><ele>187.0</ele><time>2026-04-28T07:20:19.963Z</time></trkpt><trkpt lat="44.4565377060659" lon="11.12325569519432"><ele>187.0</ele><time>2026-04-28T07:20:20.963Z</time></trkpt><trkpt lat="44.456443293925325" lon="11.123360041158913"><ele>187.0</ele><time>2026-04-28T07:20:21.963Z</time></trkpt><trkpt lat="44.45635137173561" lon="11.123458222199275"><ele>187.0</ele><time>2026-04-28T07:20:22.963Z</time></trkpt><trkpt lat="44.45626972920426" lon="11.123551480326524"><ele>187.0</ele><time>2026-04-28T07:20:23.963Z</time></trkpt><trkpt lat="44.45617029328342" lon="11.12361047050127"><ele>187.0</ele><time>2026-04-28T07:20:24.963Z</time></trkpt><trkpt lat="44.45609055868403" lon="11.123686975103576"><ele>186.2</ele><time>2026-04-28T07:20:25.963Z</time></trkpt><trkpt lat="44.45600876881997" lon="11.123761784055953"><ele>185.39999999999998</ele><time>2026-04-28T07:20:26.963Z</time></trkpt><trkpt lat="44.45593140260443" lon="11.123822780810025"><ele>184.60000000000002</ele><time>2026-04-28T07:20:27.963Z</time></trkpt><trkpt lat="44.45586442757201" lon="11.123871468039324"><ele>183.8</ele><time>2026-04-28T07:20:28.963Z</time></trkpt><trkpt lat="44.45580489531044" lon="11.123913603341107"><ele>183.0</ele><time>2026-04-28T07:20:29.963Z</time></trkpt><trkpt lat="44.45568033812693" lon="11.123950650206817"><ele>183.0</ele><time>2026-04-28T07:20:31.963Z</time></trkpt><trkpt lat="44.4555828322742" lon="11.12385612238317"><ele>183.0</ele><time>2026-04-28T07:20:33.963Z</time></trkpt><trkpt lat="44.45556501402433" lon="11.12375245493429"><ele>183.0</ele><time>2026-04-28T07:20:34.963Z</time></trkpt><trkpt lat="44.455648847193274" lon="11.12366064786624"><ele>183.0</ele><time>2026-04-28T07:20:35.963Z</time></trkpt><trkpt lat="44.4557029135077" lon="11.123575306882127"><ele>183.0</ele><time>2026-04-28T07:20:36.963Z</time></trkpt><trkpt lat="44.4557638146707" lon="11.123446081410565"><ele>183.0</ele><time>2026-04-28T07:20:37.963Z</time></trkpt><trkpt lat="44.45583539339517" lon="11.123310263424862"><ele>183.0</ele><time>2026-04-28T07:20:38.963Z</time></trkpt><trkpt lat="44.45591626753707" lon="11.12317794464493"><ele>183.0</ele><time>2026-04-28T07:20:39.963Z</time></trkpt><trkpt lat="44.456003161878705" lon="11.123056970426536"><ele>183.0</ele><time>2026-04-28T07:20:40.963Z</time></trkpt><trkpt lat="44.45609513458172" lon="11.122939988749962"><ele>181.5</ele><time>2026-04-28T07:20:41.963Z</time></trkpt><trkpt lat="44.456185254719614" lon="11.122825704085143"><ele>180.0</ele><time>2026-04-28T07:20:42.963Z</time></trkpt><trkpt lat="44.45627154651955" lon="11.122723198180072"><ele>178.5</ele><time>2026-04-28T07:20:43.963Z</time></trkpt><trkpt lat="44.456351555792835" lon="11.122616734116216"><ele>177.0</ele><time>2026-04-28T07:20:44.963Z</time></trkpt><trkpt lat="44.45642132462975" lon="11.122493787353694"><ele>173.75</ele><time>2026-04-28T07:20:45.963Z</time></trkpt><trkpt lat="44.45647645977515" lon="11.122361748479252"><ele>170.5</ele><time>2026-04-28T07:20:46.963Z</time></trkpt><trkpt lat="44.45651925647822" lon="11.122216450672335"><ele>167.25</ele><time>2026-04-28T07:20:47.963Z</time></trkpt><trkpt lat="44.456548319144574" lon="11.12206451718338"><ele>164.0</ele><time>2026-04-28T07:20:48.963Z</time></trkpt><trkpt lat="44.456558154182574" lon="11.121897989050362"><ele>164.0</ele><time>2026-04-28T07:20:49.963Z</time></trkpt><trkpt lat="44.456547118029974" lon="11.121723391488967"><ele>164.0</ele><time>2026-04-28T07:20:50.963Z</time></trkpt><trkpt lat="44.45652931086486" lon="11.121556123715733"><ele>164.0</ele><time>2026-04-28T07:20:51.963Z</time></trkpt><trkpt lat="44.456508055168634" lon="11.1213974283136"><ele>164.0</ele><time>2026-04-28T07:20:52.963Z</time></trkpt><trkpt lat="44.45648610747004" lon="11.12123100306894"><ele>162.0</ele><time>2026-04-28T07:20:53.963Z</time></trkpt><trkpt lat="44.45646422114957" lon="11.121063887413301"><ele>160.0</ele><time>2026-04-28T07:20:54.963Z</time></trkpt><trkpt lat="44.45643942115085" lon="11.120896660235713"><ele>158.0</ele><time>2026-04-28T07:20:55.963Z</time></trkpt><trkpt lat="44.456423911848155" lon="11.120746747614582"><ele>156.0</ele><time>2026-04-28T07:20:56.963Z</time></trkpt><trkpt lat="44.45641160840777" lon="11.120601747813218"><ele>155.0</ele><time>2026-04-28T07:20:57.963Z</time></trkpt><trkpt lat="44.45639183307538" lon="11.120474936319884"><ele>154.0</ele><time>2026-04-28T07:20:58.963Z</time></trkpt><trkpt lat="44.45637566179988" lon="11.120350502540827"><ele>153.0</ele><time>2026-04-28T07:20:59.963Z</time></trkpt><trkpt lat="44.45636105382756" lon="11.120227882574701"><ele>152.0</ele><time>2026-04-28T07:21:00.963Z</time></trkpt><trkpt lat="44.456347084766634" lon="11.120114598994101"><ele>151.0</ele><time>2026-04-28T07:21:01.963Z</time></trkpt><trkpt lat="44.45633347586888" lon="11.120024729128186"><ele>150.0</ele><time>2026-04-28T07:21:02.963Z</time></trkpt><trkpt lat="44.45631570625078" lon="11.119891345390268"><ele>149.5</ele><time>2026-04-28T07:21:04.963Z</time></trkpt><trkpt lat="44.45630462099655" lon="11.119797557344755"><ele>149.0</ele><time>2026-04-28T07:21:07.963Z</time></trkpt><trkpt lat="44.45628877777817" lon="11.11968607649479"><ele>148.5</ele><time>2026-04-28T07:21:13.963Z</time></trkpt><trkpt lat="44.45627208240731" lon="11.119539246487523"><ele>148.0</ele><time>2026-04-28T07:21:15.963Z</time></trkpt><trkpt lat="44.456258320716714" lon="11.119393516352243"><ele>147.5</ele><time>2026-04-28T07:21:17.963Z</time></trkpt><trkpt lat="44.45624482088036" lon="11.119270143214951"><ele>147.0</ele><time>2026-04-28T07:21:19.963Z</time></trkpt><trkpt lat="44.45623609098766" lon="11.119157373563857"><ele>146.75</ele><time>2026-04-28T07:21:22.963Z</time></trkpt><trkpt lat="44.45605717517053" lon="11.119258128215522"><ele>146.5</ele><time>2026-04-28T07:21:25.962Z</time></trkpt><trkpt lat="44.45598199733137" lon="11.1193403964803"><ele>146.25</ele><time>2026-04-28T07:21:26.962Z</time></trkpt><trkpt lat="44.45589077000819" lon="11.119411323733829"><ele>146.0</ele><time>2026-04-28T07:21:27.962Z</time></trkpt><trkpt lat="44.45578483436831" lon="11.11947710514289"><ele>146.0</ele><time>2026-04-28T07:21:28.962Z</time></trkpt><trkpt lat="44.45565899868148" lon="11.119509576235492"><ele>146.0</ele><time>2026-04-28T07:21:29.962Z</time></trkpt><trkpt lat="44.45552396375138" lon="11.119511272709303"><ele>146.0</ele><time>2026-04-28T07:21:30.962Z</time></trkpt><trkpt lat="44.455382705193216" lon="11.119506276424776"><ele>146.0</ele><time>2026-04-28T07:21:31.962Z</time></trkpt><trkpt lat="44.45523154906505" lon="11.119510141101028"><ele>146.0</ele><time>2026-04-28T07:21:32.962Z</time></trkpt><trkpt lat="44.45508399645035" lon="11.11951628820403"><ele>146.0</ele><time>2026-04-28T07:21:33.962Z</time></trkpt><trkpt lat="44.454939845531285" lon="11.119520330776322"><ele>146.0</ele><time>2026-04-28T07:21:34.962Z</time></trkpt><trkpt lat="44.454791428351776" lon="11.119502798826518"><ele>146.0</ele><time>2026-04-28T07:21:35.962Z</time></trkpt><trkpt lat="44.45464023961796" lon="11.119505433032257"><ele>145.75</ele><time>2026-04-28T07:21:36.962Z</time></trkpt><trkpt lat="44.45448874844103" lon="11.119506899860875"><ele>145.5</ele><time>2026-04-28T07:21:37.962Z</time></trkpt><trkpt lat="44.45434005477302" lon="11.119504281771805"><ele>145.25</ele><time>2026-04-28T07:21:38.962Z</time></trkpt><trkpt lat="44.45419309185159" lon="11.11950965548509"><ele>145.0</ele><time>2026-04-28T07:21:39.962Z</time></trkpt><trkpt lat="44.4540367995731" lon="11.119511835620358"><ele>145.0</ele><time>2026-04-28T07:21:40.962Z</time></trkpt><trkpt lat="44.45386926320282" lon="11.11951008279421"><ele>145.0</ele><time>2026-04-28T07:21:41.962Z</time></trkpt><trkpt lat="44.45371158241419" lon="11.119515368316218"><ele>145.0</ele><time>2026-04-28T07:21:42.962Z</time></trkpt><trkpt lat="44.45354603726128" lon="11.119523296404834"><ele>145.33333333333334</ele><time>2026-04-28T07:21:43.962Z</time></trkpt><trkpt lat="44.453380922788035" lon="11.119536109013145"><ele>145.66666666666666</ele><time>2026-04-28T07:21:44.962Z</time></trkpt><trkpt lat="44.45321479727806" lon="11.119545515432224"><ele>146.0</ele><time>2026-04-28T07:21:45.962Z</time></trkpt><trkpt lat="44.45305222333843" lon="11.119558322566931"><ele>146.66666666666666</ele><time>2026-04-28T07:21:46.962Z</time></trkpt><trkpt lat="44.452895808680815" lon="11.119541179886538"><ele>147.33333333333334</ele><time>2026-04-28T07:21:47.962Z</time></trkpt><trkpt lat="44.45274345866292" lon="11.119545828393669"><ele>148.0</ele><time>2026-04-28T07:21:48.962Z</time></trkpt><trkpt lat="44.45260093507166" lon="11.119545386251728"><ele>148.0</ele><time>2026-04-28T07:21:49.962Z</time></trkpt><trkpt lat="44.45245880572868" lon="11.119540047220003"><ele>148.0</ele><time>2026-04-28T07:21:50.962Z</time></trkpt><trkpt lat="44.45231394486751" lon="11.119538041328402"><ele>148.0</ele><time>2026-04-28T07:21:51.962Z</time></trkpt><trkpt lat="44.45217340687165" lon="11.119547909649379"><ele>148.0</ele><time>2026-04-28T07:21:52.963Z</time></trkpt><trkpt lat="44.45204019560129" lon="11.119560279581975"><ele>148.25</ele><time>2026-04-28T07:21:53.962Z</time></trkpt><trkpt lat="44.451911061841685" lon="11.119560599314875"><ele>148.5</ele><time>2026-04-28T07:21:54.962Z</time></trkpt><trkpt lat="44.45177034225673" lon="11.119558939308845"><ele>148.75</ele><time>2026-04-28T07:21:55.963Z</time></trkpt><trkpt lat="44.451623900545606" lon="11.119556348820968"><ele>149.0</ele><time>2026-04-28T07:21:56.962Z</time></trkpt><trkpt lat="44.451477975316344" lon="11.119561995967729"><ele>149.0</ele><time>2026-04-28T07:21:57.962Z</time></trkpt><trkpt lat="44.451329193724035" lon="11.11956440725268"><ele>149.0</ele><time>2026-04-28T07:21:58.963Z</time></trkpt><trkpt lat="44.45118095634872" lon="11.11956838987728"><ele>149.0</ele><time>2026-04-28T07:21:59.962Z</time></trkpt><trkpt lat="44.45102760298972" lon="11.119573784339497"><ele>149.33333333333331</ele><time>2026-04-28T07:22:00.962Z</time></trkpt><trkpt lat="44.45087379990405" lon="11.11956635682519"><ele>149.66666666666666</ele><time>2026-04-28T07:22:01.962Z</time></trkpt><trkpt lat="44.4507114354617" lon="11.119565812005707"><ele>150.0</ele><time>2026-04-28T07:22:02.962Z</time></trkpt><trkpt lat="44.45054672550717" lon="11.119578725410488"><ele>149.66666666666666</ele><time>2026-04-28T07:22:03.962Z</time></trkpt><trkpt lat="44.450389296265115" lon="11.119574515517701"><ele>149.33333333333331</ele><time>2026-04-28T07:22:04.962Z</time></trkpt><trkpt lat="44.45023609650665" lon="11.119578089696311"><ele>149.0</ele><time>2026-04-28T07:22:05.962Z</time></trkpt><trkpt lat="44.45008652750618" lon="11.119577536536521"><ele>149.0</ele><time>2026-04-28T07:22:06.962Z</time></trkpt><trkpt lat="44.449934493224966" lon="11.119581697213944"><ele>149.0</ele><time>2026-04-28T07:22:07.962Z</time></trkpt><trkpt lat="44.44978348558352" lon="11.119582376893153"><ele>149.0</ele><time>2026-04-28T07:22:08.962Z</time></trkpt><trkpt lat="44.44963050298184" lon="11.119581212469162"><ele>149.5</ele><time>2026-04-28T07:22:09.962Z</time></trkpt><trkpt lat="44.4494840064232" lon="11.119584340784145"><ele>150.0</ele><time>2026-04-28T07:22:10.962Z</time></trkpt><trkpt lat="44.449335960754844" lon="11.119605900728432"><ele>150.5</ele><time>2026-04-28T07:22:11.962Z</time></trkpt><trkpt lat="44.44919040662732" lon="11.119637332983206"><ele>151.0</ele><time>2026-04-28T07:22:12.962Z</time></trkpt><trkpt lat="44.4490422333067" lon="11.119683027845985"><ele>151.0</ele><time>2026-04-28T07:22:13.962Z</time></trkpt><trkpt lat="44.44890126290679" lon="11.119741563466095"><ele>151.0</ele><time>2026-04-28T07:22:14.962Z</time></trkpt><trkpt lat="44.4487618773911" lon="11.119810337861397"><ele>151.0</ele><time>2026-04-28T07:22:15.962Z</time></trkpt><trkpt lat="44.44862929846075" lon="11.11987213167747"><ele>151.0</ele><time>2026-04-28T07:22:16.962Z</time></trkpt><trkpt lat="44.44849310502889" lon="11.119935702272329"><ele>152.25</ele><time>2026-04-28T07:22:17.962Z</time></trkpt><trkpt lat="44.44835361283255" lon="11.120002515731144"><ele>153.5</ele><time>2026-04-28T07:22:18.962Z</time></trkpt><trkpt lat="44.44821799608088" lon="11.120061630495906"><ele>154.75</ele><time>2026-04-28T07:22:19.962Z</time></trkpt><trkpt lat="44.448085411989446" lon="11.120105197602697"><ele>156.0</ele><time>2026-04-28T07:22:20.962Z</time></trkpt><trkpt lat="44.44794817747174" lon="11.120137006065852"><ele>156.66666666666666</ele><time>2026-04-28T07:22:21.962Z</time></trkpt><trkpt lat="44.44780886383275" lon="11.12014181444779"><ele>157.33333333333331</ele><time>2026-04-28T07:22:22.962Z</time></trkpt><trkpt lat="44.44765860674459" lon="11.12015259704006"><ele>158.0</ele><time>2026-04-28T07:22:23.962Z</time></trkpt><trkpt lat="44.44749552438847" lon="11.12015485050083"><ele>158.0</ele><time>2026-04-28T07:22:24.962Z</time></trkpt><trkpt lat="44.44734379129451" lon="11.120156499011703"><ele>158.0</ele><time>2026-04-28T07:22:25.962Z</time></trkpt><trkpt lat="44.44720641351468" lon="11.120156338044648"><ele>158.0</ele><time>2026-04-28T07:22:26.962Z</time></trkpt><trkpt lat="44.44707564048816" lon="11.12014031345423"><ele>158.0</ele><time>2026-04-28T07:22:27.962Z</time></trkpt><trkpt lat="44.446947766816564" lon="11.120111546452208"><ele>157.75</ele><time>2026-04-28T07:22:28.962Z</time></trkpt><trkpt lat="44.44683296682441" lon="11.120050447691673"><ele>157.5</ele><time>2026-04-28T07:22:29.962Z</time></trkpt><trkpt lat="44.44672525134501" lon="11.1199639596432"><ele>157.25</ele><time>2026-04-28T07:22:30.962Z</time></trkpt><trkpt lat="44.44662244459337" lon="11.119857014831654"><ele>157.0</ele><time>2026-04-28T07:22:31.962Z</time></trkpt><trkpt lat="44.446507728466166" lon="11.119749227787137"><ele>157.0</ele><time>2026-04-28T07:22:32.962Z</time></trkpt><trkpt lat="44.446403423556866" lon="11.119619180729467"><ele>157.0</ele><time>2026-04-28T07:22:33.962Z</time></trkpt><trkpt lat="44.446295624349446" lon="11.119499065968734"><ele>157.0</ele><time>2026-04-28T07:22:34.962Z</time></trkpt><trkpt lat="44.44617318407964" lon="11.11937649141747"><ele>157.0</ele><time>2026-04-28T07:22:35.962Z</time></trkpt><trkpt lat="44.446051963205306" lon="11.119247485865495"><ele>157.0</ele><time>2026-04-28T07:22:36.962Z</time></trkpt><trkpt lat="44.44591567260061" lon="11.119127686928099"><ele>157.0</ele><time>2026-04-28T07:22:37.962Z</time></trkpt><trkpt lat="44.445789711094136" lon="11.118987577474988"><ele>157.0</ele><time>2026-04-28T07:22:38.962Z</time></trkpt><trkpt lat="44.4456536607589" lon="11.118881925394911"><ele>157.0</ele><time>2026-04-28T07:22:39.962Z</time></trkpt><trkpt lat="44.44550522945638" lon="11.118804031213346"><ele>157.0</ele><time>2026-04-28T07:22:40.962Z</time></trkpt><trkpt lat="44.44535604068478" lon="11.118724041103448"><ele>157.0</ele><time>2026-04-28T07:22:41.962Z</time></trkpt><trkpt lat="44.44521623746946" lon="11.118626004815898"><ele>158.0</ele><time>2026-04-28T07:22:42.962Z</time></trkpt><trkpt lat="44.44508173349972" lon="11.118525034546993"><ele>159.0</ele><time>2026-04-28T07:22:43.962Z</time></trkpt><trkpt lat="44.4449610441402" lon="11.118434721185599"><ele>160.0</ele><time>2026-04-28T07:22:44.962Z</time></trkpt><trkpt lat="44.444837835113056" lon="11.11834146330488"><ele>161.0</ele><time>2026-04-28T07:22:45.962Z</time></trkpt><trkpt lat="44.444714689648244" lon="11.118260413493266"><ele>160.0</ele><time>2026-04-28T07:22:46.962Z</time></trkpt><trkpt lat="44.444590652176245" lon="11.118190364304185"><ele>159.0</ele><time>2026-04-28T07:22:47.962Z</time></trkpt><trkpt lat="44.44446223864309" lon="11.118120979564084"><ele>158.0</ele><time>2026-04-28T07:22:48.962Z</time></trkpt><trkpt lat="44.44432517869691" lon="11.118079571512988"><ele>157.0</ele><time>2026-04-28T07:22:49.962Z</time></trkpt><trkpt lat="44.444181954348714" lon="11.11806166055923"><ele>157.0</ele><time>2026-04-28T07:22:50.962Z</time></trkpt><trkpt lat="44.44403685663691" lon="11.118056534697073"><ele>157.0</ele><time>2026-04-28T07:22:51.962Z</time></trkpt><trkpt lat="44.443883986996006" lon="11.118046851795366"><ele>157.0</ele><time>2026-04-28T07:22:52.962Z</time></trkpt><trkpt lat="44.44373012386689" lon="11.118038794580011"><ele>157.66666666666669</ele><time>2026-04-28T07:22:53.962Z</time></trkpt><trkpt lat="44.44357894540109" lon="11.118032987015862"><ele>158.33333333333334</ele><time>2026-04-28T07:22:54.962Z</time></trkpt><trkpt lat="44.443427415313394" lon="11.118025170062287"><ele>159.0</ele><time>2026-04-28T07:22:55.962Z</time></trkpt><trkpt lat="44.44326936207827" lon="11.118015330387411"><ele>159.0</ele><time>2026-04-28T07:22:56.962Z</time></trkpt><trkpt lat="44.44311585279749" lon="11.118013396429522"><ele>159.0</ele><time>2026-04-28T07:22:57.962Z</time></trkpt><trkpt lat="44.44295102632855" lon="11.118000091617175"><ele>159.0</ele><time>2026-04-28T07:22:58.962Z</time></trkpt><trkpt lat="44.44278549511796" lon="11.117990158657419"><ele>159.0</ele><time>2026-04-28T07:22:59.962Z</time></trkpt><trkpt lat="44.44261820424598" lon="11.117982903983044"><ele>159.0</ele><time>2026-04-28T07:23:00.962Z</time></trkpt><trkpt lat="44.44244796931876" lon="11.117990254135638"><ele>159.0</ele><time>2026-04-28T07:23:01.962Z</time></trkpt><trkpt lat="44.44226809833414" lon="11.11798468711197"><ele>159.66666666666666</ele><time>2026-04-28T07:23:02.962Z</time></trkpt><trkpt lat="44.44208862977864" lon="11.117968728027313"><ele>160.33333333333331</ele><time>2026-04-28T07:23:03.962Z</time></trkpt><trkpt lat="44.441910703808766" lon="11.117958844358652"><ele>161.0</ele><time>2026-04-28T07:23:04.962Z</time></trkpt><trkpt lat="44.4417499066201" lon="11.117955724324197"><ele>161.0</ele><time>2026-04-28T07:23:05.962Z</time></trkpt><trkpt lat="44.44159523676925" lon="11.117944773551933"><ele>161.0</ele><time>2026-04-28T07:23:06.962Z</time></trkpt><trkpt lat="44.441458752950055" lon="11.117938754071805"><ele>161.0</ele><time>2026-04-28T07:23:07.962Z</time></trkpt><trkpt lat="44.441331062073566" lon="11.117930438749875"><ele>161.0</ele><time>2026-04-28T07:23:08.962Z</time></trkpt><trkpt lat="44.44121097290613" lon="11.117922433522391"><ele>161.0</ele><time>2026-04-28T07:23:09.962Z</time></trkpt><trkpt lat="44.44108330904273" lon="11.117920524699205"><ele>161.0</ele><time>2026-04-28T07:23:10.962Z</time></trkpt><trkpt lat="44.4409454403049" lon="11.11791325600374"><ele>161.0</ele><time>2026-04-28T07:23:11.962Z</time></trkpt><trkpt lat="44.44079555621312" lon="11.117907667922607"><ele>161.0</ele><time>2026-04-28T07:23:12.962Z</time></trkpt><trkpt lat="44.44064432617479" lon="11.117870283619345"><ele>161.0</ele><time>2026-04-28T07:23:13.962Z</time></trkpt><trkpt lat="44.44049624217409" lon="11.117826295356139"><ele>161.0</ele><time>2026-04-28T07:23:14.962Z</time></trkpt><trkpt lat="44.44035492333876" lon="11.1177562130845"><ele>161.0</ele><time>2026-04-28T07:23:15.961Z</time></trkpt><trkpt lat="44.44020677250965" lon="11.1176752330056"><ele>162.25</ele><time>2026-04-28T07:23:16.961Z</time></trkpt><trkpt lat="44.44006383172405" lon="11.117622407702243"><ele>163.5</ele><time>2026-04-28T07:23:17.961Z</time></trkpt><trkpt lat="44.43993034632704" lon="11.117551573180421"><ele>164.75</ele><time>2026-04-28T07:23:18.961Z</time></trkpt><trkpt lat="44.439800716204985" lon="11.117491564379582"><ele>166.0</ele><time>2026-04-28T07:23:19.961Z</time></trkpt><trkpt lat="44.439674731507075" lon="11.117437775358798"><ele>165.25</ele><time>2026-04-28T07:23:20.961Z</time></trkpt><trkpt lat="44.43954446982225" lon="11.11736993228466"><ele>164.5</ele><time>2026-04-28T07:23:21.961Z</time></trkpt><trkpt lat="44.43941043300197" lon="11.11733037490068"><ele>163.75</ele><time>2026-04-28T07:23:22.961Z</time></trkpt><trkpt lat="44.439280680556685" lon="11.117283523052285"><ele>163.0</ele><time>2026-04-28T07:23:23.961Z</time></trkpt><trkpt lat="44.43915434275437" lon="11.117237648937309"><ele>163.0</ele><time>2026-04-28T07:23:24.961Z</time></trkpt><trkpt lat="44.43902416734718" lon="11.117200856042782"><ele>163.0</ele><time>2026-04-28T07:23:25.961Z</time></trkpt><trkpt lat="44.438895734439896" lon="11.117161746305534"><ele>163.0</ele><time>2026-04-28T07:23:26.961Z</time></trkpt><trkpt lat="44.43877517516017" lon="11.11713078210923"><ele>163.0</ele><time>2026-04-28T07:23:27.961Z</time></trkpt><trkpt lat="44.438663535094825" lon="11.117084899019426"><ele>163.5</ele><time>2026-04-28T07:23:28.961Z</time></trkpt><trkpt lat="44.43856526419945" lon="11.117044812757179"><ele>164.0</ele><time>2026-04-28T07:23:29.961Z</time></trkpt><trkpt lat="44.438480579824606" lon="11.117015971653922"><ele>164.5</ele><time>2026-04-28T07:23:30.961Z</time></trkpt><trkpt lat="44.43841600583223" lon="11.11698744020877"><ele>165.0</ele><time>2026-04-28T07:23:31.961Z</time></trkpt><trkpt lat="44.43830832279286" lon="11.1169500336555"><ele>165.5</ele><time>2026-04-28T07:23:33.961Z</time></trkpt><trkpt lat="44.43824415511514" lon="11.116952585479014"><ele>166.0</ele><time>2026-04-28T07:23:34.961Z</time></trkpt><trkpt lat="44.438121300111064" lon="11.116922835692783"><ele>166.0</ele><time>2026-04-28T07:23:36.961Z</time></trkpt><trkpt lat="44.438016479975275" lon="11.116811795982315"><ele>166.0</ele><time>2026-04-28T07:23:38.961Z</time></trkpt><trkpt lat="44.43797155080204" lon="11.116741914731188"><ele>166.0</ele><time>2026-04-28T07:23:39.961Z</time></trkpt><trkpt lat="44.437941712823964" lon="11.116650480741736"><ele>166.0</ele><time>2026-04-28T07:23:40.961Z</time></trkpt><trkpt lat="44.437957063337606" lon="11.116504726215936"><ele>166.0</ele><time>2026-04-28T07:23:41.961Z</time></trkpt><trkpt lat="44.437979470468356" lon="11.116381621342835"><ele>165.5</ele><time>2026-04-28T07:23:42.961Z</time></trkpt><trkpt lat="44.43799088209638" lon="11.116228442688726"><ele>165.0</ele><time>2026-04-28T07:23:43.961Z</time></trkpt><trkpt lat="44.43799410716237" lon="11.11607018644517"><ele>164.5</ele><time>2026-04-28T07:23:44.961Z</time></trkpt><trkpt lat="44.43798931652614" lon="11.115880068560546"><ele>164.0</ele><time>2026-04-28T07:23:45.961Z</time></trkpt><trkpt lat="44.437969050321804" lon="11.115689391688955"><ele>164.66666666666666</ele><time>2026-04-28T07:23:46.961Z</time></trkpt><trkpt lat="44.43793127635552" lon="11.115492515291743"><ele>165.33333333333334</ele><time>2026-04-28T07:23:47.961Z</time></trkpt><trkpt lat="44.437890790520825" lon="11.115285700138744"><ele>166.0</ele><time>2026-04-28T07:23:48.961Z</time></trkpt><trkpt lat="44.437849575806425" lon="11.115067339894232"><ele>166.25</ele><time>2026-04-28T07:23:49.961Z</time></trkpt><trkpt lat="44.43780867504279" lon="11.114853127322899"><ele>166.5</ele><time>2026-04-28T07:23:50.961Z</time></trkpt><trkpt lat="44.437774647078754" lon="11.114649205140461"><ele>166.75</ele><time>2026-04-28T07:23:51.961Z</time></trkpt><trkpt lat="44.43774815692177" lon="11.11446477373774"><ele>167.0</ele><time>2026-04-28T07:23:52.961Z</time></trkpt><trkpt lat="44.43773647959161" lon="11.114288592751004"><ele>167.0</ele><time>2026-04-28T07:23:53.961Z</time></trkpt><trkpt lat="44.43773025769434" lon="11.114125361452544"><ele>167.0</ele><time>2026-04-28T07:23:54.961Z</time></trkpt><trkpt lat="44.43772545835525" lon="11.113983291912428"><ele>167.0</ele><time>2026-04-28T07:23:55.961Z</time></trkpt><trkpt lat="44.43771507889074" lon="11.11385306876174"><ele>167.0</ele><time>2026-04-28T07:23:56.961Z</time></trkpt><trkpt lat="44.437692147140424" lon="11.113744280477125"><ele>167.0</ele><time>2026-04-28T07:23:57.961Z</time></trkpt><trkpt lat="44.4376668850528" lon="11.113660694449894"><ele>168.0</ele><time>2026-04-28T07:23:58.961Z</time></trkpt><trkpt lat="44.437613217904605" lon="11.113571564169087"><ele>169.0</ele><time>2026-04-28T07:23:59.961Z</time></trkpt><trkpt lat="44.437541216491844" lon="11.113498515613749"><ele>170.0</ele><time>2026-04-28T07:24:00.961Z</time></trkpt><trkpt lat="44.437440913011656" lon="11.113503014543028"><ele>171.0</ele><time>2026-04-28T07:24:01.961Z</time></trkpt><trkpt lat="44.437342885239076" lon="11.113505250025014"><ele>172.0</ele><time>2026-04-28T07:24:02.961Z</time></trkpt><trkpt lat="44.43725504124825" lon="11.113575041444927"><ele>172.0</ele><time>2026-04-28T07:24:03.961Z</time></trkpt><trkpt lat="44.43715707568026" lon="11.11363860917309"><ele>172.0</ele><time>2026-04-28T07:24:04.961Z</time></trkpt><trkpt lat="44.43705356917314" lon="11.11370236435117"><ele>172.0</ele><time>2026-04-28T07:24:05.961Z</time></trkpt><trkpt lat="44.436951247942524" lon="11.113736803676309"><ele>172.0</ele><time>2026-04-28T07:24:06.961Z</time></trkpt><trkpt lat="44.43684514898291" lon="11.113732556707545"><ele>172.0</ele><time>2026-04-28T07:24:07.961Z</time></trkpt><trkpt lat="44.4367279669948" lon="11.113735672393592"><ele>174.25</ele><time>2026-04-28T07:24:08.961Z</time></trkpt><trkpt lat="44.43660625029911" lon="11.113715131158337"><ele>176.5</ele><time>2026-04-28T07:24:09.961Z</time></trkpt><trkpt lat="44.436480481940094" lon="11.113698694878282"><ele>178.75</ele><time>2026-04-28T07:24:10.961Z</time></trkpt><trkpt lat="44.436360318318414" lon="11.11369162424075"><ele>181.0</ele><time>2026-04-28T07:24:11.961Z</time></trkpt><trkpt lat="44.43624745847637" lon="11.113684117227718"><ele>182.0</ele><time>2026-04-28T07:24:12.961Z</time></trkpt><trkpt lat="44.43614120928982" lon="11.113674004099487"><ele>183.0</ele><time>2026-04-28T07:24:13.961Z</time></trkpt><trkpt lat="44.436030100762345" lon="11.113667450374903"><ele>184.0</ele><time>2026-04-28T07:24:14.961Z</time></trkpt><trkpt lat="44.43592058477325" lon="11.113660524388807"><ele>185.0</ele><time>2026-04-28T07:24:15.961Z</time></trkpt><trkpt lat="44.435811596894126" lon="11.11365804830676"><ele>186.0</ele><time>2026-04-28T07:24:16.961Z</time></trkpt><trkpt lat="44.43570963614183" lon="11.113617679564602"><ele>186.0</ele><time>2026-04-28T07:24:17.961Z</time></trkpt><trkpt lat="44.43561636488414" lon="11.11355536042419"><ele>186.0</ele><time>2026-04-28T07:24:18.961Z</time></trkpt><trkpt lat="44.43552918456427" lon="11.113442266219828"><ele>186.0</ele><time>2026-04-28T07:24:19.961Z</time></trkpt><trkpt lat="44.435469311055236" lon="11.113315409381128"><ele>186.0</ele><time>2026-04-28T07:24:20.961Z</time></trkpt><trkpt lat="44.435439198447675" lon="11.113169644867641"><ele>186.0</ele><time>2026-04-28T07:24:21.961Z</time></trkpt><trkpt lat="44.43544781794779" lon="11.113018489767772"><ele>188.0</ele><time>2026-04-28T07:24:22.961Z</time></trkpt><trkpt lat="44.43547882586792" lon="11.112875136788267"><ele>190.0</ele><time>2026-04-28T07:24:23.961Z</time></trkpt><trkpt lat="44.43553749165624" lon="11.112743447461034"><ele>192.0</ele><time>2026-04-28T07:24:24.961Z</time></trkpt><trkpt lat="44.43561774580603" lon="11.112635317739771"><ele>194.0</ele><time>2026-04-28T07:24:25.961Z</time></trkpt><trkpt lat="44.435715951333364" lon="11.112564374265528"><ele>196.0</ele><time>2026-04-28T07:24:26.961Z</time></trkpt><trkpt lat="44.4358214470928" lon="11.11250972083991"><ele>196.0</ele><time>2026-04-28T07:24:27.961Z</time></trkpt><trkpt lat="44.43594038616134" lon="11.1124460569599"><ele>196.0</ele><time>2026-04-28T07:24:28.961Z</time></trkpt><trkpt lat="44.436044612023025" lon="11.112369272195107"><ele>196.0</ele><time>2026-04-28T07:24:29.961Z</time></trkpt><trkpt lat="44.43615067126643" lon="11.112294922790682"><ele>196.0</ele><time>2026-04-28T07:24:30.961Z</time></trkpt><trkpt lat="44.43624015775533" lon="11.112217525075552"><ele>196.8</ele><time>2026-04-28T07:24:31.961Z</time></trkpt><trkpt lat="44.43631816177033" lon="11.112134607188292"><ele>197.60000000000002</ele><time>2026-04-28T07:24:32.961Z</time></trkpt><trkpt lat="44.43637699424742" lon="11.112009076568496"><ele>198.4</ele><time>2026-04-28T07:24:33.961Z</time></trkpt><trkpt lat="44.43642492534501" lon="11.111859142061057"><ele>199.2</ele><time>2026-04-28T07:24:34.961Z</time></trkpt><trkpt lat="44.43644950196666" lon="11.111707603566861"><ele>200.0</ele><time>2026-04-28T07:24:35.961Z</time></trkpt><trkpt lat="44.43644961547497" lon="11.1115641143186"><ele>200.8</ele><time>2026-04-28T07:24:36.961Z</time></trkpt><trkpt lat="44.436436836510445" lon="11.111427334403615"><ele>201.6</ele><time>2026-04-28T07:24:37.961Z</time></trkpt><trkpt lat="44.4364188467168" lon="11.11130360163495"><ele>202.39999999999998</ele><time>2026-04-28T07:24:38.961Z</time></trkpt><trkpt lat="44.43639391829376" lon="11.111188336083412"><ele>203.2</ele><time>2026-04-28T07:24:39.961Z</time></trkpt><trkpt lat="44.436363463408256" lon="11.111079843493425"><ele>204.0</ele><time>2026-04-28T07:24:40.961Z</time></trkpt><trkpt lat="44.43631046239339" lon="11.110957532114806"><ele>204.79999999999998</ele><time>2026-04-28T07:24:41.961Z</time></trkpt><trkpt lat="44.43625289178654" lon="11.110849225034888"><ele>205.6</ele><time>2026-04-28T07:24:42.961Z</time></trkpt><trkpt lat="44.43616148010875" lon="11.110771659645081"><ele>206.4</ele><time>2026-04-28T07:24:43.961Z</time></trkpt><trkpt lat="44.436052470192976" lon="11.110723245611648"><ele>207.2</ele><time>2026-04-28T07:24:44.961Z</time></trkpt><trkpt lat="44.43593418210896" lon="11.11071861734875"><ele>208.0</ele><time>2026-04-28T07:24:45.961Z</time></trkpt><trkpt lat="44.43581953488364" lon="11.110702776542388"><ele>209.2</ele><time>2026-04-28T07:24:46.961Z</time></trkpt><trkpt lat="44.435701081231" lon="11.110692076491695"><ele>210.4</ele><time>2026-04-28T07:24:47.961Z</time></trkpt><trkpt lat="44.435585724861006" lon="11.110687290019474"><ele>211.59999999999997</ele><time>2026-04-28T07:24:48.961Z</time></trkpt><trkpt lat="44.435478854224264" lon="11.1106618169908"><ele>212.79999999999998</ele><time>2026-04-28T07:24:49.961Z</time></trkpt><trkpt lat="44.43538518076771" lon="11.11064867606065"><ele>214.0</ele><time>2026-04-28T07:24:50.961Z</time></trkpt><trkpt lat="44.43529415551753" lon="11.110596897538596"><ele>216.25</ele><time>2026-04-28T07:24:51.961Z</time></trkpt><trkpt lat="44.43522755503527" lon="11.110472251264678"><ele>218.5</ele><time>2026-04-28T07:24:52.96Z</time></trkpt><trkpt lat="44.43518748626325" lon="11.11033667470615"><ele>220.75</ele><time>2026-04-28T07:24:53.96Z</time></trkpt><trkpt lat="44.43516077539733" lon="11.110170725001675"><ele>223.0</ele><time>2026-04-28T07:24:54.96Z</time></trkpt><trkpt lat="44.435191394305825" lon="11.110011826433539"><ele>222.8</ele><time>2026-04-28T07:24:55.96Z</time></trkpt><trkpt lat="44.435252091957096" lon="11.109881153592289"><ele>222.60000000000002</ele><time>2026-04-28T07:24:56.96Z</time></trkpt><trkpt lat="44.435329892812405" lon="11.109753808657167"><ele>222.39999999999998</ele><time>2026-04-28T07:24:57.96Z</time></trkpt><trkpt lat="44.43539276596925" lon="11.109644949122035"><ele>222.2</ele><time>2026-04-28T07:24:58.96Z</time></trkpt><trkpt lat="44.435449019294616" lon="11.109544609080412"><ele>222.0</ele><time>2026-04-28T07:25:00.96Z</time></trkpt><trkpt lat="44.435492748627205" lon="11.109471838040779"><ele>222.0</ele><time>2026-04-28T07:25:05.96Z</time></trkpt><trkpt lat="44.435538358732515" lon="11.109392875257369"><ele>222.0</ele><time>2026-04-28T07:25:08.96Z</time></trkpt><trkpt lat="44.43558215077121" lon="11.10931587605616"><ele>222.0</ele><time>2026-04-28T07:25:11.96Z</time></trkpt><trkpt lat="44.43561846032127" lon="11.109230344444905"><ele>222.0</ele><time>2026-04-28T07:25:16.96Z</time></trkpt><trkpt lat="44.43564008290969" lon="11.109144421956147"><ele>222.0</ele><time>2026-04-28T07:25:18.96Z</time></trkpt><trkpt lat="44.43564845367613" lon="11.109037321875704"><ele>222.0</ele><time>2026-04-28T07:25:20.96Z</time></trkpt><trkpt lat="44.435644678869295" lon="11.108923731545154"><ele>222.0</ele><time>2026-04-28T07:25:23.96Z</time></trkpt><trkpt lat="44.43563484851921" lon="11.108832727160053"><ele>224.75</ele><time>2026-04-28T07:25:26.96Z</time></trkpt><trkpt lat="44.43547458414043" lon="11.10882175613573"><ele>227.5</ele><time>2026-04-28T07:25:29.96Z</time></trkpt><trkpt lat="44.43540620711397" lon="11.108899941995741"><ele>230.25</ele><time>2026-04-28T07:25:30.96Z</time></trkpt><trkpt lat="44.435314710370236" lon="11.10895981757675"><ele>233.0</ele><time>2026-04-28T07:25:31.96Z</time></trkpt><trkpt lat="44.43520556910881" lon="11.109029331198496"><ele>232.0</ele><time>2026-04-28T07:25:32.96Z</time></trkpt><trkpt lat="44.43507241325202" lon="11.109110878714535"><ele>231.0</ele><time>2026-04-28T07:25:33.96Z</time></trkpt><trkpt lat="44.43494722412933" lon="11.109216809697232"><ele>230.0</ele><time>2026-04-28T07:25:34.96Z</time></trkpt><trkpt lat="44.43481895097113" lon="11.109323511722055"><ele>229.0</ele><time>2026-04-28T07:25:35.96Z</time></trkpt><trkpt lat="44.434683575422916" lon="11.109425793342423"><ele>230.33333333333331</ele><time>2026-04-28T07:25:36.96Z</time></trkpt><trkpt lat="44.4345436750605" lon="11.109528796410961"><ele>231.66666666666669</ele><time>2026-04-28T07:25:37.96Z</time></trkpt><trkpt lat="44.43440023310393" lon="11.109642402668626"><ele>233.0</ele><time>2026-04-28T07:25:38.96Z</time></trkpt><trkpt lat="44.43424386793219" lon="11.109746625126188"><ele>233.0</ele><time>2026-04-28T07:25:39.96Z</time></trkpt><trkpt lat="44.4340821509636" lon="11.109832629495507"><ele>233.0</ele><time>2026-04-28T07:25:40.96Z</time></trkpt><trkpt lat="44.43392160120926" lon="11.109902377000683"><ele>233.0</ele><time>2026-04-28T07:25:41.96Z</time></trkpt><trkpt lat="44.433774624010674" lon="11.109950933342335"><ele>230.75</ele><time>2026-04-28T07:25:42.96Z</time></trkpt><trkpt lat="44.433633365233135" lon="11.109964990389694"><ele>228.5</ele><time>2026-04-28T07:25:43.96Z</time></trkpt><trkpt lat="44.43352345973825" lon="11.109907670202714"><ele>226.25</ele><time>2026-04-28T07:25:44.96Z</time></trkpt><trkpt lat="44.433407049453955" lon="11.109863541963673"><ele>224.0</ele><time>2026-04-28T07:25:45.96Z</time></trkpt><trkpt lat="44.43325302405186" lon="11.10978099235681"><ele>226.66666666666669</ele><time>2026-04-28T07:25:46.96Z</time></trkpt><trkpt lat="44.433078160168215" lon="11.109702461486817"><ele>229.33333333333331</ele><time>2026-04-28T07:25:47.96Z</time></trkpt><trkpt lat="44.43291553853393" lon="11.109630278947073"><ele>232.0</ele><time>2026-04-28T07:25:48.96Z</time></trkpt><trkpt lat="44.432751445618095" lon="11.10955913905477"><ele>232.0</ele><time>2026-04-28T07:25:49.96Z</time></trkpt><trkpt lat="44.432590115143086" lon="11.109482119018212"><ele>232.0</ele><time>2026-04-28T07:25:50.96Z</time></trkpt><trkpt lat="44.432427733889405" lon="11.109384465723299"><ele>232.0</ele><time>2026-04-28T07:25:51.96Z</time></trkpt><trkpt lat="44.43226804610916" lon="11.10928537002233"><ele>227.66666666666666</ele><time>2026-04-28T07:25:52.96Z</time></trkpt><trkpt lat="44.43210945290152" lon="11.109174062369695"><ele>223.33333333333331</ele><time>2026-04-28T07:25:53.96Z</time></trkpt><trkpt lat="44.431939308317986" lon="11.109114376865548"><ele>219.0</ele><time>2026-04-28T07:25:54.96Z</time></trkpt><trkpt lat="44.43176224835797" lon="11.109057811079763"><ele>228.0</ele><time>2026-04-28T07:25:55.96Z</time></trkpt><trkpt lat="44.43158007517453" lon="11.10901565548859"><ele>237.0</ele><time>2026-04-28T07:25:56.96Z</time></trkpt><trkpt lat="44.431391424804474" lon="11.108987911741458"><ele>246.0</ele><time>2026-04-28T07:25:57.96Z</time></trkpt><trkpt lat="44.43121489544742" lon="11.108972801485693"><ele>246.0</ele><time>2026-04-28T07:25:58.96Z</time></trkpt><trkpt lat="44.43103632325976" lon="11.108966317717263"><ele>246.0</ele><time>2026-04-28T07:25:59.96Z</time></trkpt><trkpt lat="44.43085623252506" lon="11.108962561292483"><ele>246.0</ele><time>2026-04-28T07:26:00.96Z</time></trkpt><trkpt lat="44.43067994441936" lon="11.108961344247142"><ele>246.0</ele><time>2026-04-28T07:26:01.96Z</time></trkpt><trkpt lat="44.43051343349762" lon="11.108979163510147"><ele>246.0</ele><time>2026-04-28T07:26:02.96Z</time></trkpt><trkpt lat="44.43035182346004" lon="11.109019885496451"><ele>246.0</ele><time>2026-04-28T07:26:03.96Z</time></trkpt><trkpt lat="44.43019360586677" lon="11.10903564007268"><ele>243.0</ele><time>2026-04-28T07:26:04.959Z</time></trkpt><trkpt lat="44.43002911471317" lon="11.109017283955348"><ele>240.0</ele><time>2026-04-28T07:26:05.96Z</time></trkpt><trkpt lat="44.42986697941987" lon="11.10897338161698"><ele>237.0</ele><time>2026-04-28T07:26:06.96Z</time></trkpt><trkpt lat="44.42970867521725" lon="11.10891081366555"><ele>233.0</ele><time>2026-04-28T07:26:07.96Z</time></trkpt><trkpt lat="44.42955761039188" lon="11.108839973541272"><ele>229.0</ele><time>2026-04-28T07:26:08.96Z</time></trkpt><trkpt lat="44.42940372157185" lon="11.108764926281603"><ele>225.0</ele><time>2026-04-28T07:26:09.96Z</time></trkpt><trkpt lat="44.429250158191984" lon="11.10868877000397"><ele>225.0</ele><time>2026-04-28T07:26:10.96Z</time></trkpt><trkpt lat="44.4290929867741" lon="11.108604491199985"><ele>225.0</ele><time>2026-04-28T07:26:11.96Z</time></trkpt><trkpt lat="44.42893873817647" lon="11.108508194261379"><ele>225.0</ele><time>2026-04-28T07:26:12.96Z</time></trkpt><trkpt lat="44.42877984080753" lon="11.108415373115816"><ele>224.33333333333331</ele><time>2026-04-28T07:26:13.959Z</time></trkpt><trkpt lat="44.42861472727176" lon="11.108337502681039"><ele>223.66666666666666</ele><time>2026-04-28T07:26:14.96Z</time></trkpt><trkpt lat="44.428453154727805" lon="11.108267226027818"><ele>223.0</ele><time>2026-04-28T07:26:15.96Z</time></trkpt><trkpt lat="44.42828577032079" lon="11.10820865625571"><ele>223.0</ele><time>2026-04-28T07:26:16.96Z</time></trkpt><trkpt lat="44.42812056978994" lon="11.108161936726633"><ele>223.0</ele><time>2026-04-28T07:26:17.96Z</time></trkpt><trkpt lat="44.42795128809557" lon="11.108107600541327"><ele>223.0</ele><time>2026-04-28T07:26:18.959Z</time></trkpt><trkpt lat="44.42779155918694" lon="11.108050890828604"><ele>220.0</ele><time>2026-04-28T07:26:19.959Z</time></trkpt><trkpt lat="44.42763637006064" lon="11.107990351371196"><ele>217.0</ele><time>2026-04-28T07:26:20.959Z</time></trkpt><trkpt lat="44.42748132045302" lon="11.107921103863202"><ele>214.0</ele><time>2026-04-28T07:26:21.959Z</time></trkpt><trkpt lat="44.427331094550375" lon="11.107842884167702"><ele>214.0</ele><time>2026-04-28T07:26:22.959Z</time></trkpt><trkpt lat="44.427183495805004" lon="11.107742464289688"><ele>214.0</ele><time>2026-04-28T07:26:23.959Z</time></trkpt><trkpt lat="44.42703917004138" lon="11.107634405594311"><ele>214.0</ele><time>2026-04-28T07:26:24.959Z</time></trkpt><trkpt lat="44.42690244342104" lon="11.107520464932021"><ele>215.33333333333331</ele><time>2026-04-28T07:26:25.959Z</time></trkpt><trkpt lat="44.42676584884526" lon="11.107414250585856"><ele>216.66666666666669</ele><time>2026-04-28T07:26:26.959Z</time></trkpt><trkpt lat="44.42662836817126" lon="11.10732236191715"><ele>218.0</ele><time>2026-04-28T07:26:27.959Z</time></trkpt><trkpt lat="44.426480378920374" lon="11.107266482159247"><ele>218.0</ele><time>2026-04-28T07:26:28.959Z</time></trkpt><trkpt lat="44.426320478494965" lon="11.107228726025209"><ele>218.0</ele><time>2026-04-28T07:26:29.959Z</time></trkpt><trkpt lat="44.42615456097337" lon="11.107183635907738"><ele>218.0</ele><time>2026-04-28T07:26:30.959Z</time></trkpt><trkpt lat="44.42599043085329" lon="11.10711877290456"><ele>212.66666666666669</ele><time>2026-04-28T07:26:31.959Z</time></trkpt><trkpt lat="44.42582960030253" lon="11.107028448694644"><ele>207.33333333333331</ele><time>2026-04-28T07:26:32.959Z</time></trkpt><trkpt lat="44.42566953727885" lon="11.106934423581473"><ele>202.0</ele><time>2026-04-28T07:26:33.959Z</time></trkpt><trkpt lat="44.42551242063878" lon="11.106834366910686"><ele>202.33333333333331</ele><time>2026-04-28T07:26:34.959Z</time></trkpt><trkpt lat="44.425355088545665" lon="11.106710906939155"><ele>202.66666666666669</ele><time>2026-04-28T07:26:35.959Z</time></trkpt><trkpt lat="44.42520663412386" lon="11.10656106654821"><ele>203.0</ele><time>2026-04-28T07:26:36.959Z</time></trkpt><trkpt lat="44.42506317443109" lon="11.10641811581948"><ele>203.0</ele><time>2026-04-28T07:26:37.959Z</time></trkpt><trkpt lat="44.424926854235245" lon="11.106260897579178"><ele>203.0</ele><time>2026-04-28T07:26:38.959Z</time></trkpt><trkpt lat="44.424797225836954" lon="11.106096460592932"><ele>203.0</ele><time>2026-04-28T07:26:39.959Z</time></trkpt><trkpt lat="44.42466618356534" lon="11.105937468367836"><ele>202.33333333333334</ele><time>2026-04-28T07:26:40.959Z</time></trkpt><trkpt lat="44.42452721334777" lon="11.105787162895775"><ele>201.66666666666669</ele><time>2026-04-28T07:26:41.959Z</time></trkpt><trkpt lat="44.42436636003394" lon="11.105653347599716"><ele>201.0</ele><time>2026-04-28T07:26:42.959Z</time></trkpt><trkpt lat="44.42419528136536" lon="11.105529253577144"><ele>204.0</ele><time>2026-04-28T07:26:43.959Z</time></trkpt><trkpt lat="44.42404248730456" lon="11.105438729532118"><ele>207.0</ele><time>2026-04-28T07:26:44.959Z</time></trkpt><trkpt lat="44.423894246468876" lon="11.105375954308297"><ele>210.0</ele><time>2026-04-28T07:26:45.959Z</time></trkpt><trkpt lat="44.42375822996727" lon="11.105278621355158"><ele>210.0</ele><time>2026-04-28T07:26:46.959Z</time></trkpt><trkpt lat="44.42362272396177" lon="11.10515523967604"><ele>210.0</ele><time>2026-04-28T07:26:47.959Z</time></trkpt><trkpt lat="44.423494192612964" lon="11.10500506244233"><ele>210.0</ele><time>2026-04-28T07:26:48.959Z</time></trkpt><trkpt lat="44.423373276928054" lon="11.104853738863724"><ele>212.33333333333331</ele><time>2026-04-28T07:26:49.959Z</time></trkpt><trkpt lat="44.42324965150951" lon="11.104684276781867"><ele>214.66666666666666</ele><time>2026-04-28T07:26:50.959Z</time></trkpt><trkpt lat="44.423131222478666" lon="11.104523238631076"><ele>217.0</ele><time>2026-04-28T07:26:51.959Z</time></trkpt><trkpt lat="44.42300162682688" lon="11.104360326770598"><ele>217.66666666666666</ele><time>2026-04-28T07:26:52.959Z</time></trkpt><trkpt lat="44.422875307668356" lon="11.104204541076406"><ele>218.33333333333331</ele><time>2026-04-28T07:26:53.959Z</time></trkpt><trkpt lat="44.422744748848736" lon="11.104053300967605"><ele>219.0</ele><time>2026-04-28T07:26:54.959Z</time></trkpt><trkpt lat="44.422614923416006" lon="11.103898343293661"><ele>219.0</ele><time>2026-04-28T07:26:55.959Z</time></trkpt><trkpt lat="44.42248549430514" lon="11.103748068101131"><ele>219.0</ele><time>2026-04-28T07:26:56.959Z</time></trkpt><trkpt lat="44.422355102948444" lon="11.103605034555269"><ele>219.0</ele><time>2026-04-28T07:26:57.959Z</time></trkpt><trkpt lat="44.42221408550801" lon="11.103476796041836"><ele>219.33333333333331</ele><time>2026-04-28T07:26:58.959Z</time></trkpt><trkpt lat="44.42207041761649" lon="11.103349009096092"><ele>219.66666666666666</ele><time>2026-04-28T07:26:59.959Z</time></trkpt><trkpt lat="44.42192310277013" lon="11.103228736355696"><ele>220.0</ele><time>2026-04-28T07:27:00.959Z</time></trkpt><trkpt lat="44.42176528725068" lon="11.10312843023261"><ele>220.0</ele><time>2026-04-28T07:27:01.959Z</time></trkpt><trkpt lat="44.42159763337562" lon="11.10304455765596"><ele>220.0</ele><time>2026-04-28T07:27:02.959Z</time></trkpt><trkpt lat="44.421443104554896" lon="11.102938104130097"><ele>220.0</ele><time>2026-04-28T07:27:03.959Z</time></trkpt><trkpt lat="44.421292788402546" lon="11.102803182745328"><ele>220.0</ele><time>2026-04-28T07:27:04.959Z</time></trkpt><trkpt lat="44.421149648155634" lon="11.10265456087314"><ele>220.0</ele><time>2026-04-28T07:27:05.959Z</time></trkpt><trkpt lat="44.42100699868013" lon="11.102490774929663"><ele>220.0</ele><time>2026-04-28T07:27:06.959Z</time></trkpt><trkpt lat="44.420881365578886" lon="11.102305118141723"><ele>220.66666666666666</ele><time>2026-04-28T07:27:07.959Z</time></trkpt><trkpt lat="44.42077866603373" lon="11.10210221542938"><ele>221.33333333333331</ele><time>2026-04-28T07:27:08.959Z</time></trkpt><trkpt lat="44.42070253321029" lon="11.101897729876113"><ele>222.0</ele><time>2026-04-28T07:27:09.959Z</time></trkpt><trkpt lat="44.420649320364156" lon="11.101681643420907"><ele>222.66666666666669</ele><time>2026-04-28T07:27:10.959Z</time></trkpt><trkpt lat="44.42059993990945" lon="11.101452727760053"><ele>223.33333333333334</ele><time>2026-04-28T07:27:11.959Z</time></trkpt><trkpt lat="44.420548406468356" lon="11.101216041627342"><ele>224.0</ele><time>2026-04-28T07:27:12.959Z</time></trkpt><trkpt lat="44.420463328063114" lon="11.10099605489775"><ele>224.33333333333334</ele><time>2026-04-28T07:27:13.959Z</time></trkpt><trkpt lat="44.420355645298976" lon="11.100787193104376"><ele>224.66666666666669</ele><time>2026-04-28T07:27:14.959Z</time></trkpt><trkpt lat="44.42023038150266" lon="11.100600912815748"><ele>225.0</ele><time>2026-04-28T07:27:15.959Z</time></trkpt><trkpt lat="44.42008894883115" lon="11.100430273127456"><ele>225.0</ele><time>2026-04-28T07:27:16.959Z</time></trkpt><trkpt lat="44.419936076202816" lon="11.10028257649337"><ele>225.0</ele><time>2026-04-28T07:27:17.959Z</time></trkpt><trkpt lat="44.41976845995809" lon="11.100153956912447"><ele>225.0</ele><time>2026-04-28T07:27:18.959Z</time></trkpt><trkpt lat="44.419597280368926" lon="11.100035020784109"><ele>226.33333333333331</ele><time>2026-04-28T07:27:19.959Z</time></trkpt><trkpt lat="44.419437230939515" lon="11.09990367075229"><ele>227.66666666666666</ele><time>2026-04-28T07:27:20.959Z</time></trkpt><trkpt lat="44.41928538034931" lon="11.099763578998434"><ele>229.0</ele><time>2026-04-28T07:27:21.959Z</time></trkpt><trkpt lat="44.419134106764076" lon="11.099618774899827"><ele>229.0</ele><time>2026-04-28T07:27:22.959Z</time></trkpt><trkpt lat="44.418984149502826" lon="11.09947575433537"><ele>229.0</ele><time>2026-04-28T07:27:23.959Z</time></trkpt><trkpt lat="44.41883607901663" lon="11.099331190878774"><ele>229.0</ele><time>2026-04-28T07:27:24.959Z</time></trkpt><trkpt lat="44.418693212929306" lon="11.099189262977825"><ele>229.33333333333331</ele><time>2026-04-28T07:27:25.959Z</time></trkpt><trkpt lat="44.41854435154658" lon="11.099049032082377"><ele>229.66666666666669</ele><time>2026-04-28T07:27:26.959Z</time></trkpt><trkpt lat="44.41838754688534" lon="11.098921339761398"><ele>230.0</ele><time>2026-04-28T07:27:27.959Z</time></trkpt><trkpt lat="44.41822116641113" lon="11.098812146076796"><ele>230.0</ele><time>2026-04-28T07:27:28.959Z</time></trkpt><trkpt lat="44.41805207562637" lon="11.098707219335587"><ele>230.0</ele><time>2026-04-28T07:27:29.959Z</time></trkpt><trkpt lat="44.41788938852816" lon="11.098586146946948"><ele>230.0</ele><time>2026-04-28T07:27:30.959Z</time></trkpt><trkpt lat="44.41773839780871" lon="11.098446633304913"><ele>230.33333333333334</ele><time>2026-04-28T07:27:31.959Z</time></trkpt><trkpt lat="44.41759363765154" lon="11.098310040772754"><ele>230.66666666666669</ele><time>2026-04-28T07:27:32.959Z</time></trkpt><trkpt lat="44.41744960613378" lon="11.098199534124044"><ele>231.0</ele><time>2026-04-28T07:27:33.959Z</time></trkpt><trkpt lat="44.417290244761496" lon="11.098129877233742"><ele>231.0</ele><time>2026-04-28T07:27:34.959Z</time></trkpt><trkpt lat="44.41712443594884" lon="11.098097221133587"><ele>231.0</ele><time>2026-04-28T07:27:35.959Z</time></trkpt><trkpt lat="44.41695098469802" lon="11.098075232536862"><ele>231.0</ele><time>2026-04-28T07:27:36.959Z</time></trkpt><trkpt lat="44.41678645054441" lon="11.097997575895294"><ele>231.0</ele><time>2026-04-28T07:27:37.959Z</time></trkpt><trkpt lat="44.41662939634792" lon="11.097897231672953"><ele>231.0</ele><time>2026-04-28T07:27:38.959Z</time></trkpt><trkpt lat="44.41647931857165" lon="11.097761068826312"><ele>231.0</ele><time>2026-04-28T07:27:39.959Z</time></trkpt><trkpt lat="44.41632912840318" lon="11.097616072121898"><ele>230.66666666666669</ele><time>2026-04-28T07:27:40.959Z</time></trkpt><trkpt lat="44.416177898631936" lon="11.097468907647414"><ele>230.33333333333334</ele><time>2026-04-28T07:27:41.959Z</time></trkpt><trkpt lat="44.41603057071783" lon="11.097322801467657"><ele>230.0</ele><time>2026-04-28T07:27:42.959Z</time></trkpt><trkpt lat="44.41588673673146" lon="11.097178191996159"><ele>230.0</ele><time>2026-04-28T07:27:43.959Z</time></trkpt><trkpt lat="44.41575025472539" lon="11.097040736216671"><ele>230.0</ele><time>2026-04-28T07:27:44.959Z</time></trkpt><trkpt lat="44.41560761135335" lon="11.096910000408263"><ele>230.0</ele><time>2026-04-28T07:27:45.959Z</time></trkpt><trkpt lat="44.41547273679927" lon="11.096785331953669"><ele>230.0</ele><time>2026-04-28T07:27:46.959Z</time></trkpt><trkpt lat="44.41533576885258" lon="11.096657271689908"><ele>230.0</ele><time>2026-04-28T07:27:47.959Z</time></trkpt><trkpt lat="44.41520411216192" lon="11.09652823926277"><ele>230.0</ele><time>2026-04-28T07:27:48.959Z</time></trkpt><trkpt lat="44.415065696389455" lon="11.096389380076927"><ele>230.0</ele><time>2026-04-28T07:27:49.959Z</time></trkpt><trkpt lat="44.414932041216495" lon="11.09623800036535"><ele>230.0</ele><time>2026-04-28T07:27:50.959Z</time></trkpt><trkpt lat="44.41478231809369" lon="11.096120304022422"><ele>230.0</ele><time>2026-04-28T07:27:51.958Z</time></trkpt><trkpt lat="44.41464845463473" lon="11.095985705180972"><ele>230.33333333333334</ele><time>2026-04-28T07:27:52.958Z</time></trkpt><trkpt lat="44.41451132769102" lon="11.095855773104583"><ele>230.66666666666669</ele><time>2026-04-28T07:27:53.958Z</time></trkpt><trkpt lat="44.414360092721026" lon="11.095714360806339"><ele>231.0</ele><time>2026-04-28T07:27:54.958Z</time></trkpt><trkpt lat="44.41422365427982" lon="11.095550337683282"><ele>231.0</ele><time>2026-04-28T07:27:55.958Z</time></trkpt><trkpt lat="44.414076518425105" lon="11.095386643321058"><ele>231.0</ele><time>2026-04-28T07:27:56.958Z</time></trkpt><trkpt lat="44.413936916140706" lon="11.095210439533956"><ele>231.0</ele><time>2026-04-28T07:27:57.958Z</time></trkpt><trkpt lat="44.413796463179615" lon="11.095029424753662"><ele>230.66666666666669</ele><time>2026-04-28T07:27:58.958Z</time></trkpt><trkpt lat="44.413660595735216" lon="11.094856355613585"><ele>230.33333333333334</ele><time>2026-04-28T07:27:59.958Z</time></trkpt><trkpt lat="44.41352023565791" lon="11.094680757240047"><ele>230.0</ele><time>2026-04-28T07:28:00.958Z</time></trkpt><trkpt lat="44.41338027130712" lon="11.094500860747269"><ele>230.0</ele><time>2026-04-28T07:28:01.958Z</time></trkpt><trkpt lat="44.41324620062721" lon="11.09432568469225"><ele>230.0</ele><time>2026-04-28T07:28:02.958Z</time></trkpt><trkpt lat="44.413122475130876" lon="11.09416859216145"><ele>230.0</ele><time>2026-04-28T07:28:03.958Z</time></trkpt><trkpt lat="44.41300453143064" lon="11.094020349777052"><ele>232.0</ele><time>2026-04-28T07:28:04.958Z</time></trkpt><trkpt lat="44.412882199677746" lon="11.093893674085066"><ele>234.0</ele><time>2026-04-28T07:28:05.958Z</time></trkpt><trkpt lat="44.412758120189785" lon="11.093780597607442"><ele>236.0</ele><time>2026-04-28T07:28:06.958Z</time></trkpt><trkpt lat="44.412627982096154" lon="11.093672271741568"><ele>236.0</ele><time>2026-04-28T07:28:07.957Z</time></trkpt><trkpt lat="44.41249262995228" lon="11.093552583225346"><ele>236.0</ele><time>2026-04-28T07:28:08.958Z</time></trkpt><trkpt lat="44.41236488771418" lon="11.093414607272285"><ele>236.0</ele><time>2026-04-28T07:28:09.958Z</time></trkpt><trkpt lat="44.41223234567055" lon="11.093269512924788"><ele>234.0</ele><time>2026-04-28T07:28:10.958Z</time></trkpt><trkpt lat="44.412089230157555" lon="11.093123900955229"><ele>232.0</ele><time>2026-04-28T07:28:11.957Z</time></trkpt><trkpt lat="44.41194934153704" lon="11.092986027377421"><ele>230.0</ele><time>2026-04-28T07:28:12.957Z</time></trkpt><trkpt lat="44.41181552661091" lon="11.092846493826954"><ele>230.0</ele><time>2026-04-28T07:28:13.957Z</time></trkpt><trkpt lat="44.41167729205592" lon="11.092717923027454"><ele>230.0</ele><time>2026-04-28T07:28:14.957Z</time></trkpt><trkpt lat="44.41154916134849" lon="11.092586877927026"><ele>230.0</ele><time>2026-04-28T07:28:15.956Z</time></trkpt><trkpt lat="44.411423846051804" lon="11.092442008919699"><ele>227.66666666666669</ele><time>2026-04-28T07:28:16.957Z</time></trkpt><trkpt lat="44.411285991244355" lon="11.092301406531234"><ele>225.33333333333331</ele><time>2026-04-28T07:28:17.957Z</time></trkpt><trkpt lat="44.41114994814446" lon="11.092162791923162"><ele>223.0</ele><time>2026-04-28T07:28:18.957Z</time></trkpt><trkpt lat="44.41101598548614" lon="11.092023228848296"><ele>223.0</ele><time>2026-04-28T07:28:19.957Z</time></trkpt><trkpt lat="44.41088607713892" lon="11.091880035054347"><ele>223.0</ele><time>2026-04-28T07:28:20.957Z</time></trkpt><trkpt lat="44.41076297661679" lon="11.091744382590514"><ele>223.0</ele><time>2026-04-28T07:28:21.957Z</time></trkpt><trkpt lat="44.41064339711822" lon="11.091603708525737"><ele>223.0</ele><time>2026-04-28T07:28:22.957Z</time></trkpt><trkpt lat="44.41053105787089" lon="11.091465709268627"><ele>223.0</ele><time>2026-04-28T07:28:23.957Z</time></trkpt><trkpt lat="44.41042028373372" lon="11.091339153147855"><ele>223.0</ele><time>2026-04-28T07:28:24.957Z</time></trkpt><trkpt lat="44.410315645137224" lon="11.091228199023522"><ele>223.0</ele><time>2026-04-28T07:28:25.957Z</time></trkpt><trkpt lat="44.41020332370046" lon="11.091107860480589"><ele>223.0</ele><time>2026-04-28T07:28:26.957Z</time></trkpt><trkpt lat="44.410119583495685" lon="11.090979843783737"><ele>223.0</ele><time>2026-04-28T07:28:27.957Z</time></trkpt><trkpt lat="44.41002210981142" lon="11.090865520311226"><ele>223.0</ele><time>2026-04-28T07:28:28.957Z</time></trkpt><trkpt lat="44.409931057469194" lon="11.090749960898524"><ele>223.0</ele><time>2026-04-28T07:28:29.957Z</time></trkpt><trkpt lat="44.409824929444476" lon="11.090635715984595"><ele>224.25</ele><time>2026-04-28T07:28:30.957Z</time></trkpt><trkpt lat="44.409712513510996" lon="11.090521873914899"><ele>225.5</ele><time>2026-04-28T07:28:31.957Z</time></trkpt><trkpt lat="44.40959443125144" lon="11.090401695621134"><ele>226.75</ele><time>2026-04-28T07:28:32.957Z</time></trkpt><trkpt lat="44.40946788904647" lon="11.09028134694109"><ele>228.0</ele><time>2026-04-28T07:28:33.957Z</time></trkpt><trkpt lat="44.40933674526149" lon="11.0901595850368"><ele>227.5</ele><time>2026-04-28T07:28:34.957Z</time></trkpt><trkpt lat="44.40920982068718" lon="11.090036627642942"><ele>227.0</ele><time>2026-04-28T07:28:35.957Z</time></trkpt><trkpt lat="44.40908872817416" lon="11.089940384567852"><ele>226.5</ele><time>2026-04-28T07:28:36.957Z</time></trkpt><trkpt lat="44.40897967638124" lon="11.089841360352812"><ele>226.0</ele><time>2026-04-28T07:28:37.957Z</time></trkpt><trkpt lat="44.40886021800632" lon="11.089733729860653"><ele>225.0</ele><time>2026-04-28T07:28:38.957Z</time></trkpt><trkpt lat="44.408745367202556" lon="11.089631471544331"><ele>224.0</ele><time>2026-04-28T07:28:39.957Z</time></trkpt><trkpt lat="44.40863888406105" lon="11.089523392613671"><ele>223.0</ele><time>2026-04-28T07:28:40.957Z</time></trkpt><trkpt lat="44.40852588953408" lon="11.089406290711864"><ele>222.0</ele><time>2026-04-28T07:28:41.957Z</time></trkpt><trkpt lat="44.40840831472465" lon="11.089295702091205"><ele>222.0</ele><time>2026-04-28T07:28:42.957Z</time></trkpt><trkpt lat="44.40829207447136" lon="11.089185936390168"><ele>222.0</ele><time>2026-04-28T07:28:43.957Z</time></trkpt><trkpt lat="44.40817740059879" lon="11.08908517438151"><ele>222.0</ele><time>2026-04-28T07:28:44.957Z</time></trkpt><trkpt lat="44.40806776904808" lon="11.088982474235067"><ele>222.0</ele><time>2026-04-28T07:28:45.957Z</time></trkpt><trkpt lat="44.40795824376848" lon="11.08887566308454"><ele>222.25</ele><time>2026-04-28T07:28:46.957Z</time></trkpt><trkpt lat="44.40785069379534" lon="11.08876713288739"><ele>222.5</ele><time>2026-04-28T07:28:47.957Z</time></trkpt><trkpt lat="44.40774807634485" lon="11.088639805426174"><ele>222.75</ele><time>2026-04-28T07:28:48.957Z</time></trkpt><trkpt lat="44.407645464695214" lon="11.088501594258537"><ele>223.0</ele><time>2026-04-28T07:28:49.957Z</time></trkpt><trkpt lat="44.407536851694736" lon="11.08836943486601"><ele>225.66666666666666</ele><time>2026-04-28T07:28:50.957Z</time></trkpt><trkpt lat="44.4074356101616" lon="11.088226260130892"><ele>228.33333333333331</ele><time>2026-04-28T07:28:51.957Z</time></trkpt><trkpt lat="44.40733210891054" lon="11.088071713276152"><ele>231.0</ele><time>2026-04-28T07:28:52.906Z</time></trkpt><trkpt lat="44.407223910062186" lon="11.087912837956209"><ele>228.33333333333331</ele><time>2026-04-28T07:28:53.906Z</time></trkpt><trkpt lat="44.40710495942385" lon="11.087758372028855"><ele>225.66666666666666</ele><time>2026-04-28T07:28:54.905Z</time></trkpt><trkpt lat="44.406991768444236" lon="11.08759966511142"><ele>223.0</ele><time>2026-04-28T07:28:55.904Z</time></trkpt><trkpt lat="44.406879443932034" lon="11.087445419185446"><ele>226.0</ele><time>2026-04-28T07:28:56.903Z</time></trkpt><trkpt lat="44.40676722022642" lon="11.087291617871134"><ele>229.0</ele><time>2026-04-28T07:28:57.903Z</time></trkpt><trkpt lat="44.40665817920486" lon="11.087125521839694"><ele>232.0</ele><time>2026-04-28T07:28:58.902Z</time></trkpt><trkpt lat="44.4065443787038" lon="11.086958200236948"><ele>232.0</ele><time>2026-04-28T07:28:59.902Z</time></trkpt><trkpt lat="44.406430677830826" lon="11.08679503589559"><ele>232.0</ele><time>2026-04-28T07:29:00.901Z</time></trkpt><trkpt lat="44.40631578371551" lon="11.08663079076116"><ele>232.0</ele><time>2026-04-28T07:29:01.901Z</time></trkpt><trkpt lat="44.40620485973336" lon="11.086466761309012"><ele>230.0</ele><time>2026-04-28T07:29:02.9Z</time></trkpt><trkpt lat="44.40610263053788" lon="11.086303217717438"><ele>228.0</ele><time>2026-04-28T07:29:03.9Z</time></trkpt><trkpt lat="44.40600873106683" lon="11.086142063104997"><ele>226.0</ele><time>2026-04-28T07:29:04.899Z</time></trkpt><trkpt lat="44.40591673574729" lon="11.08597728931495"><ele>226.0</ele><time>2026-04-28T07:29:05.899Z</time></trkpt><trkpt lat="44.40582460072934" lon="11.08580539893817"><ele>226.0</ele><time>2026-04-28T07:29:06.899Z</time></trkpt><trkpt lat="44.40573008502826" lon="11.085628451174612"><ele>226.0</ele><time>2026-04-28T07:29:07.898Z</time></trkpt><trkpt lat="44.40563639523503" lon="11.085450662766787"><ele>226.66666666666666</ele><time>2026-04-28T07:29:08.898Z</time></trkpt><trkpt lat="44.40553853733" lon="11.08527633491231"><ele>227.33333333333331</ele><time>2026-04-28T07:29:09.898Z</time></trkpt><trkpt lat="44.40544313480881" lon="11.085106172881913"><ele>228.0</ele><time>2026-04-28T07:29:10.897Z</time></trkpt><trkpt lat="44.40534816044902" lon="11.084940169497557"><ele>229.0</ele><time>2026-04-28T07:29:11.897Z</time></trkpt><trkpt lat="44.40525651974347" lon="11.084777063483736"><ele>230.0</ele><time>2026-04-28T07:29:12.897Z</time></trkpt><trkpt lat="44.405162963020175" lon="11.084615062929194"><ele>231.0</ele><time>2026-04-28T07:29:13.897Z</time></trkpt><trkpt lat="44.40506962441936" lon="11.084447691507695"><ele>232.0</ele><time>2026-04-28T07:29:14.896Z</time></trkpt><trkpt lat="44.40497552312457" lon="11.084281431019082"><ele>232.0</ele><time>2026-04-28T07:29:15.896Z</time></trkpt><trkpt lat="44.40487810388669" lon="11.084117744191213"><ele>232.0</ele><time>2026-04-28T07:29:16.896Z</time></trkpt><trkpt lat="44.40478537599107" lon="11.083956784381034"><ele>232.0</ele><time>2026-04-28T07:29:17.896Z</time></trkpt><trkpt lat="44.40469125944498" lon="11.083789967560321"><ele>232.0</ele><time>2026-04-28T07:29:18.896Z</time></trkpt><trkpt lat="44.40459116169567" lon="11.083623553127612"><ele>232.0</ele><time>2026-04-28T07:29:19.895Z</time></trkpt><trkpt lat="44.40448558262546" lon="11.083437126946421"><ele>232.0</ele><time>2026-04-28T07:29:20.895Z</time></trkpt><trkpt lat="44.40437634170422" lon="11.083248471042689"><ele>233.0</ele><time>2026-04-28T07:29:21.895Z</time></trkpt><trkpt lat="44.40426139208149" lon="11.08306759153299"><ele>234.0</ele><time>2026-04-28T07:29:22.895Z</time></trkpt><trkpt lat="44.40413080753167" lon="11.082894502710204"><ele>235.0</ele><time>2026-04-28T07:29:23.895Z</time></trkpt><trkpt lat="44.4039846925301" lon="11.082719243166064"><ele>234.66666666666666</ele><time>2026-04-28T07:29:24.895Z</time></trkpt><trkpt lat="44.403824181186145" lon="11.082555741483414"><ele>234.33333333333331</ele><time>2026-04-28T07:29:25.895Z</time></trkpt><trkpt lat="44.403663847736986" lon="11.082403882155136"><ele>234.0</ele><time>2026-04-28T07:29:26.894Z</time></trkpt><trkpt lat="44.403496791989326" lon="11.082252138109824"><ele>235.33333333333331</ele><time>2026-04-28T07:29:27.894Z</time></trkpt><trkpt lat="44.4033337252469" lon="11.082102745824754"><ele>236.66666666666666</ele><time>2026-04-28T07:29:28.894Z</time></trkpt><trkpt lat="44.403173731151945" lon="11.081960718841879"><ele>238.0</ele><time>2026-04-28T07:29:29.894Z</time></trkpt><trkpt lat="44.40301432702308" lon="11.081813363406706"><ele>238.0</ele><time>2026-04-28T07:29:30.894Z</time></trkpt><trkpt lat="44.40285307405609" lon="11.081661202631691"><ele>238.0</ele><time>2026-04-28T07:29:31.894Z</time></trkpt><trkpt lat="44.40269464305853" lon="11.081511574793804"><ele>238.0</ele><time>2026-04-28T07:29:32.894Z</time></trkpt><trkpt lat="44.40253645782274" lon="11.08136013119364"><ele>238.0</ele><time>2026-04-28T07:29:33.894Z</time></trkpt><trkpt lat="44.402376935699" lon="11.081208136794265"><ele>238.0</ele><time>2026-04-28T07:29:34.894Z</time></trkpt><trkpt lat="44.40222050595215" lon="11.08106240215549"><ele>238.0</ele><time>2026-04-28T07:29:35.894Z</time></trkpt><trkpt lat="44.402067445463736" lon="11.080914921711486"><ele>238.0</ele><time>2026-04-28T07:29:36.894Z</time></trkpt><trkpt lat="44.40191580705621" lon="11.080772858519863"><ele>238.0</ele><time>2026-04-28T07:29:37.894Z</time></trkpt><trkpt lat="44.40176574070324" lon="11.080633942256782"><ele>238.0</ele><time>2026-04-28T07:29:38.893Z</time></trkpt><trkpt lat="44.40162037301113" lon="11.08049531886037"><ele>239.0</ele><time>2026-04-28T07:29:39.893Z</time></trkpt><trkpt lat="44.40148406105846" lon="11.080361984851434"><ele>240.0</ele><time>2026-04-28T07:29:40.893Z</time></trkpt><trkpt lat="44.40135566014446" lon="11.080240087139856"><ele>241.0</ele><time>2026-04-28T07:29:41.893Z</time></trkpt><trkpt lat="44.40122439955894" lon="11.080111744821375"><ele>241.0</ele><time>2026-04-28T07:29:42.893Z</time></trkpt><trkpt lat="44.40110442514838" lon="11.080000512076095"><ele>241.0</ele><time>2026-04-28T07:29:43.893Z</time></trkpt><trkpt lat="44.40098538971134" lon="11.079883798616205"><ele>241.0</ele><time>2026-04-28T07:29:44.893Z</time></trkpt><trkpt lat="44.40088502261342" lon="11.079739794594577"><ele>241.0</ele><time>2026-04-28T07:29:45.893Z</time></trkpt><trkpt lat="44.400768537801454" lon="11.079581967874114"><ele>241.0</ele><time>2026-04-28T07:29:46.893Z</time></trkpt><trkpt lat="44.40066345368373" lon="11.079424492862843"><ele>241.0</ele><time>2026-04-28T07:29:47.893Z</time></trkpt><trkpt lat="44.40056716631523" lon="11.079272494318902"><ele>241.0</ele><time>2026-04-28T07:29:48.893Z</time></trkpt><trkpt lat="44.40047378572212" lon="11.079140381566916"><ele>241.0</ele><time>2026-04-28T07:29:49.893Z</time></trkpt><trkpt lat="44.40039664947721" lon="11.079006249493299"><ele>242.0</ele><time>2026-04-28T07:29:50.893Z</time></trkpt><trkpt lat="44.400316401395166" lon="11.078870038379625"><ele>243.0</ele><time>2026-04-28T07:29:51.893Z</time></trkpt><trkpt lat="44.40022898089977" lon="11.078723298676568"><ele>244.0</ele><time>2026-04-28T07:29:52.893Z</time></trkpt><trkpt lat="44.40013531313352" lon="11.078575770576311"><ele>245.0</ele><time>2026-04-28T07:29:53.893Z</time></trkpt><trkpt lat="44.4000418341997" lon="11.078437080080755"><ele>245.0</ele><time>2026-04-28T07:29:54.893Z</time></trkpt><trkpt lat="44.39995015684836" lon="11.078303303374124"><ele>245.0</ele><time>2026-04-28T07:29:55.893Z</time></trkpt><trkpt lat="44.39985755074907" lon="11.07816487373973"><ele>245.0</ele><time>2026-04-28T07:29:56.893Z</time></trkpt><trkpt lat="44.39977270853695" lon="11.078023340567766"><ele>245.0</ele><time>2026-04-28T07:29:57.893Z</time></trkpt><trkpt lat="44.399692385883554" lon="11.077867331808415"><ele>245.0</ele><time>2026-04-28T07:29:58.893Z</time></trkpt><trkpt lat="44.399610610366985" lon="11.077721751395405"><ele>245.0</ele><time>2026-04-28T07:29:59.893Z</time></trkpt><trkpt lat="44.39950947468248" lon="11.077598212838558"><ele>245.0</ele><time>2026-04-28T07:30:00.892Z</time></trkpt><trkpt lat="44.399380610331946" lon="11.077497371913697"><ele>245.0</ele><time>2026-04-28T07:30:01.892Z</time></trkpt><trkpt lat="44.399234174397584" lon="11.077422996236532"><ele>247.0</ele><time>2026-04-28T07:30:02.892Z</time></trkpt><trkpt lat="44.39907694551018" lon="11.077353355674342"><ele>249.0</ele><time>2026-04-28T07:30:03.892Z</time></trkpt><trkpt lat="44.39891188686418" lon="11.077278642215687"><ele>251.0</ele><time>2026-04-28T07:30:04.892Z</time></trkpt><trkpt lat="44.398751999464615" lon="11.07719898017873"><ele>252.0</ele><time>2026-04-28T07:30:05.892Z</time></trkpt><trkpt lat="44.398608649408295" lon="11.077133943082353"><ele>253.0</ele><time>2026-04-28T07:30:06.892Z</time></trkpt><trkpt lat="44.39846224949677" lon="11.077067036652082"><ele>254.0</ele><time>2026-04-28T07:30:07.892Z</time></trkpt><trkpt lat="44.39832210967391" lon="11.076992180457019"><ele>254.0</ele><time>2026-04-28T07:30:08.892Z</time></trkpt><trkpt lat="44.398189823823046" lon="11.076915902721794"><ele>254.0</ele><time>2026-04-28T07:30:09.892Z</time></trkpt><trkpt lat="44.3980595626153" lon="11.076849076801064"><ele>254.0</ele><time>2026-04-28T07:30:10.892Z</time></trkpt><trkpt lat="44.39792228540135" lon="11.076776421918614"><ele>254.0</ele><time>2026-04-28T07:30:11.892Z</time></trkpt><trkpt lat="44.39779420668022" lon="11.076708230179655"><ele>253.5</ele><time>2026-04-28T07:30:12.892Z</time></trkpt><trkpt lat="44.397659531508765" lon="11.076631163223"><ele>253.0</ele><time>2026-04-28T07:30:13.892Z</time></trkpt><trkpt lat="44.39753207278083" lon="11.076556640783316"><ele>252.5</ele><time>2026-04-28T07:30:14.892Z</time></trkpt><trkpt lat="44.39741686987543" lon="11.076429281769745"><ele>252.0</ele><time>2026-04-28T07:30:15.892Z</time></trkpt><trkpt lat="44.39731938490055" lon="11.076306909266005"><ele>251.5</ele><time>2026-04-28T07:30:16.891Z</time></trkpt><trkpt lat="44.39724150050629" lon="11.076161763227132"><ele>251.0</ele><time>2026-04-28T07:30:17.892Z</time></trkpt><trkpt lat="44.397171398620166" lon="11.075995986590598"><ele>250.5</ele><time>2026-04-28T07:30:18.892Z</time></trkpt><trkpt lat="44.39708899004607" lon="11.075817139504355"><ele>250.0</ele><time>2026-04-28T07:30:19.891Z</time></trkpt><trkpt lat="44.39701429035975" lon="11.075616473671316"><ele>252.33333333333331</ele><time>2026-04-28T07:30:20.891Z</time></trkpt><trkpt lat="44.39693201420725" lon="11.075410686900266"><ele>254.66666666666669</ele><time>2026-04-28T07:30:21.891Z</time></trkpt><trkpt lat="44.39682266611531" lon="11.075275683025719"><ele>257.0</ele><time>2026-04-28T07:30:22.892Z</time></trkpt><trkpt lat="44.3967143903234" lon="11.075142160605726"><ele>257.0</ele><time>2026-04-28T07:30:23.891Z</time></trkpt><trkpt lat="44.39659784992491" lon="11.075008507022496"><ele>257.0</ele><time>2026-04-28T07:30:24.891Z</time></trkpt><trkpt lat="44.39647645813269" lon="11.074877137557595"><ele>257.0</ele><time>2026-04-28T07:30:25.892Z</time></trkpt><trkpt lat="44.39636225398574" lon="11.074759821023104"><ele>257.0</ele><time>2026-04-28T07:30:26.891Z</time></trkpt><trkpt lat="44.396261556591874" lon="11.074655967446615"><ele>257.0</ele><time>2026-04-28T07:30:27.891Z</time></trkpt><trkpt lat="44.39614842183962" lon="11.07455643939147"><ele>257.0</ele><time>2026-04-28T07:30:28.891Z</time></trkpt><trkpt lat="44.396034958847366" lon="11.074465640054877"><ele>257.0</ele><time>2026-04-28T07:30:29.891Z</time></trkpt><trkpt lat="44.39590661142504" lon="11.074389612499347"><ele>257.0</ele><time>2026-04-28T07:30:30.891Z</time></trkpt><trkpt lat="44.39577191935467" lon="11.074341507053289"><ele>257.0</ele><time>2026-04-28T07:30:31.891Z</time></trkpt><trkpt lat="44.39563316786591" lon="11.074309627622553"><ele>257.0</ele><time>2026-04-28T07:30:32.891Z</time></trkpt><trkpt lat="44.39549553833775" lon="11.074269610441014"><ele>257.0</ele><time>2026-04-28T07:30:33.891Z</time></trkpt><trkpt lat="44.395361228612884" lon="11.074198379223438"><ele>257.0</ele><time>2026-04-28T07:30:34.891Z</time></trkpt><trkpt lat="44.39523475528853" lon="11.074088129244277"><ele>256.25</ele><time>2026-04-28T07:30:35.891Z</time></trkpt><trkpt lat="44.395102699307806" lon="11.073985879462745"><ele>255.5</ele><time>2026-04-28T07:30:36.891Z</time></trkpt><trkpt lat="44.39496880668806" lon="11.073898531021745"><ele>254.75</ele><time>2026-04-28T07:30:37.891Z</time></trkpt><trkpt lat="44.39484301276471" lon="11.073805881294184"><ele>254.0</ele><time>2026-04-28T07:30:38.891Z</time></trkpt><trkpt lat="44.3947305475234" lon="11.073731296764898"><ele>253.2</ele><time>2026-04-28T07:30:39.891Z</time></trkpt><trkpt lat="44.39463640120498" lon="11.073666257687307"><ele>252.39999999999998</ele><time>2026-04-28T07:30:40.891Z</time></trkpt><trkpt lat="44.39454307218225" lon="11.073573599689036"><ele>251.6</ele><time>2026-04-28T07:30:41.891Z</time></trkpt><trkpt lat="44.39445626729732" lon="11.073511728792353"><ele>250.8</ele><time>2026-04-28T07:30:42.891Z</time></trkpt><trkpt lat="44.39435459102199" lon="11.073446767049221"><ele>250.0</ele><time>2026-04-28T07:30:43.891Z</time></trkpt><trkpt lat="44.39424965276809" lon="11.073376698237412"><ele>250.0</ele><time>2026-04-28T07:30:44.891Z</time></trkpt><trkpt lat="44.39413488234922" lon="11.073296934946223"><ele>250.0</ele><time>2026-04-28T07:30:45.891Z</time></trkpt><trkpt lat="44.39402994780243" lon="11.07320979704594"><ele>250.0</ele><time>2026-04-28T07:30:46.891Z</time></trkpt><trkpt lat="44.39392817863877" lon="11.073122547565537"><ele>250.0</ele><time>2026-04-28T07:30:47.891Z</time></trkpt><trkpt lat="44.39383488906198" lon="11.073047719539543"><ele>251.4</ele><time>2026-04-28T07:30:48.891Z</time></trkpt><trkpt lat="44.39373920343386" lon="11.072979914604877"><ele>252.8</ele><time>2026-04-28T07:30:49.891Z</time></trkpt><trkpt lat="44.39365250126735" lon="11.07291464351672"><ele>254.2</ele><time>2026-04-28T07:30:50.891Z</time></trkpt><trkpt lat="44.393567403406564" lon="11.072850210427024"><ele>255.6</ele><time>2026-04-28T07:30:51.891Z</time></trkpt><trkpt lat="44.39348216300112" lon="11.0727885402186"><ele>257.0</ele><time>2026-04-28T07:30:52.89Z</time></trkpt><trkpt lat="44.39340155320519" lon="11.072725739688343"><ele>257.0</ele><time>2026-04-28T07:30:53.89Z</time></trkpt><trkpt lat="44.39331218533908" lon="11.072662840029658"><ele>257.0</ele><time>2026-04-28T07:30:54.89Z</time></trkpt><trkpt lat="44.393228106436304" lon="11.072599632468386"><ele>257.0</ele><time>2026-04-28T07:30:55.89Z</time></trkpt><trkpt lat="44.3931389277551" lon="11.072530719520636"><ele>257.0</ele><time>2026-04-28T07:30:56.89Z</time></trkpt><trkpt lat="44.39304044160361" lon="11.07245206693969"><ele>257.0</ele><time>2026-04-28T07:30:57.89Z</time></trkpt><trkpt lat="44.39294817381313" lon="11.072385743792681"><ele>257.5</ele><time>2026-04-28T07:30:58.89Z</time></trkpt><trkpt lat="44.392840770949135" lon="11.07232191377376"><ele>258.0</ele><time>2026-04-28T07:30:59.89Z</time></trkpt><trkpt lat="44.39272238019642" lon="11.07226740769183"><ele>258.5</ele><time>2026-04-28T07:31:00.89Z</time></trkpt><trkpt lat="44.392600205492116" lon="11.07222322699964"><ele>259.0</ele><time>2026-04-28T07:31:01.89Z</time></trkpt><trkpt lat="44.392484532016155" lon="11.072183494411634"><ele>259.0</ele><time>2026-04-28T07:31:02.89Z</time></trkpt><trkpt lat="44.39237631454034" lon="11.072145667789037"><ele>259.0</ele><time>2026-04-28T07:31:03.89Z</time></trkpt><trkpt lat="44.392271835513064" lon="11.072109249211136"><ele>259.0</ele><time>2026-04-28T07:31:04.89Z</time></trkpt><trkpt lat="44.39216552219498" lon="11.072069311939043"><ele>259.0</ele><time>2026-04-28T07:31:05.89Z</time></trkpt><trkpt lat="44.39205257321751" lon="11.072029964409436"><ele>259.0</ele><time>2026-04-28T07:31:06.89Z</time></trkpt><trkpt lat="44.3919342668167" lon="11.07199226684918"><ele>258.59999999999997</ele><time>2026-04-28T07:31:07.89Z</time></trkpt><trkpt lat="44.39182101519802" lon="11.071955813728836"><ele>258.2</ele><time>2026-04-28T07:31:08.89Z</time></trkpt><trkpt lat="44.39170856787188" lon="11.071921851108343"><ele>257.79999999999995</ele><time>2026-04-28T07:31:09.89Z</time></trkpt><trkpt lat="44.39160197410695" lon="11.07188581088345"><ele>257.4</ele><time>2026-04-28T07:31:10.89Z</time></trkpt><trkpt lat="44.39150063644267" lon="11.07184542613883"><ele>257.0</ele><time>2026-04-28T07:31:11.89Z</time></trkpt><trkpt lat="44.39139215941239" lon="11.07180690769415"><ele>257.2</ele><time>2026-04-28T07:31:12.89Z</time></trkpt><trkpt lat="44.3912887817727" lon="11.071770211873098"><ele>257.4</ele><time>2026-04-28T07:31:13.89Z</time></trkpt><trkpt lat="44.391189451025326" lon="11.071732890844963"><ele>257.6</ele><time>2026-04-28T07:31:14.89Z</time></trkpt><trkpt lat="44.3910863125398" lon="11.071706264574498"><ele>257.8</ele><time>2026-04-28T07:31:15.89Z</time></trkpt><trkpt lat="44.390983949080066" lon="11.071679822967333"><ele>258.0</ele><time>2026-04-28T07:31:16.89Z</time></trkpt><trkpt lat="44.39087723886771" lon="11.071648524715787"><ele>258.0</ele><time>2026-04-28T07:31:17.89Z</time></trkpt><trkpt lat="44.390770353376794" lon="11.071613584040707"><ele>258.0</ele><time>2026-04-28T07:31:18.89Z</time></trkpt><trkpt lat="44.390665037263915" lon="11.071586919768366"><ele>258.0</ele><time>2026-04-28T07:31:19.89Z</time></trkpt><trkpt lat="44.390564687332436" lon="11.071563469333356"><ele>258.0</ele><time>2026-04-28T07:31:20.89Z</time></trkpt><trkpt lat="44.390461113210925" lon="11.071538785603328"><ele>258.0</ele><time>2026-04-28T07:31:21.89Z</time></trkpt><trkpt lat="44.39035791112871" lon="11.071506307353866"><ele>258.8</ele><time>2026-04-28T07:31:22.89Z</time></trkpt><trkpt lat="44.39025330263046" lon="11.07147842040747"><ele>259.6</ele><time>2026-04-28T07:31:23.89Z</time></trkpt><trkpt lat="44.390148388124686" lon="11.071446464949034"><ele>260.4</ele><time>2026-04-28T07:31:24.89Z</time></trkpt><trkpt lat="44.39004374559575" lon="11.071421893019174"><ele>261.2</ele><time>2026-04-28T07:31:25.89Z</time></trkpt><trkpt lat="44.3899389320414" lon="11.071395246043332"><ele>262.0</ele><time>2026-04-28T07:31:26.89Z</time></trkpt><trkpt lat="44.38983095300103" lon="11.071365845128593"><ele>262.0</ele><time>2026-04-28T07:31:27.89Z</time></trkpt><trkpt lat="44.38971984878762" lon="11.071331153481946"><ele>262.0</ele><time>2026-04-28T07:31:28.89Z</time></trkpt><trkpt lat="44.38960498959779" lon="11.071300255544438"><ele>262.0</ele><time>2026-04-28T07:31:29.89Z</time></trkpt><trkpt lat="44.389480997466634" lon="11.071269664313004"><ele>262.0</ele><time>2026-04-28T07:31:30.89Z</time></trkpt><trkpt lat="44.3893617707057" lon="11.071233534662461"><ele>262.4</ele><time>2026-04-28T07:31:31.89Z</time></trkpt><trkpt lat="44.389244536481336" lon="11.071202625661924"><ele>262.79999999999995</ele><time>2026-04-28T07:31:32.89Z</time></trkpt><trkpt lat="44.38913740438014" lon="11.071181458046407"><ele>263.2</ele><time>2026-04-28T07:31:33.89Z</time></trkpt><trkpt lat="44.38903718414559" lon="11.071186805869315"><ele>263.59999999999997</ele><time>2026-04-28T07:31:34.89Z</time></trkpt><trkpt lat="44.38897507443832" lon="11.07121817194662"><ele>264.0</ele><time>2026-04-28T07:31:35.89Z</time></trkpt><trkpt lat="44.38893557795555" lon="11.07129383521876"><ele>264.0</ele><time>2026-04-28T07:31:36.89Z</time></trkpt><trkpt lat="44.38891268832007" lon="11.071403048251934"><ele>264.0</ele><time>2026-04-28T07:31:37.889Z</time></trkpt><trkpt lat="44.388905887224105" lon="11.071551650475628"><ele>264.0</ele><time>2026-04-28T07:31:38.889Z</time></trkpt><trkpt lat="44.388917165418555" lon="11.07170309526301"><ele>264.0</ele><time>2026-04-28T07:31:39.889Z</time></trkpt><trkpt lat="44.388932935288075" lon="11.071855915191456"><ele>264.0</ele><time>2026-04-28T07:31:40.889Z</time></trkpt><trkpt lat="44.38894393232505" lon="11.071996037108864"><ele>263.6666666666667</ele><time>2026-04-28T07:31:41.889Z</time></trkpt><trkpt lat="44.388953863898486" lon="11.07212355961518"><ele>263.3333333333333</ele><time>2026-04-28T07:31:42.889Z</time></trkpt><trkpt lat="44.38896245039935" lon="11.0722357486362"><ele>263.0</ele><time>2026-04-28T07:31:43.889Z</time></trkpt><trkpt lat="44.388970634109306" lon="11.072341807756379"><ele>262.66666666666663</ele><time>2026-04-28T07:31:44.889Z</time></trkpt><trkpt lat="44.38896849181346" lon="11.072451395648457"><ele>262.3333333333333</ele><time>2026-04-28T07:31:45.889Z</time></trkpt><trkpt lat="44.388968865300605" lon="11.07255385774065"><ele>262.0</ele><time>2026-04-28T07:31:46.889Z</time></trkpt><trkpt lat="44.38896123755529" lon="11.072662389935653"><ele>262.0</ele><time>2026-04-28T07:31:47.889Z</time></trkpt><trkpt lat="44.388947022824965" lon="11.072764859273054"><ele>262.0</ele><time>2026-04-28T07:31:48.889Z</time></trkpt><trkpt lat="44.38889898059767" lon="11.07285772740714"><ele>262.0</ele><time>2026-04-28T07:31:49.889Z</time></trkpt><trkpt lat="44.388825185190996" lon="11.072928118194277"><ele>262.0</ele><time>2026-04-28T07:31:50.889Z</time></trkpt><trkpt lat="44.388744320467836" lon="11.072975786023692"><ele>262.0</ele><time>2026-04-28T07:31:51.889Z</time></trkpt><trkpt lat="44.38865357192527" lon="11.073036494137563"><ele>262.0</ele><time>2026-04-28T07:31:52.889Z</time></trkpt><trkpt lat="44.38855224617883" lon="11.073099332353904"><ele>262.25</ele><time>2026-04-28T07:31:53.889Z</time></trkpt><trkpt lat="44.388431768700315" lon="11.07315832412281"><ele>262.5</ele><time>2026-04-28T07:31:54.889Z</time></trkpt><trkpt lat="44.388313231727004" lon="11.073194243899955"><ele>262.75</ele><time>2026-04-28T07:31:55.889Z</time></trkpt><trkpt lat="44.38820167218005" lon="11.073208395608695"><ele>263.0</ele><time>2026-04-28T07:31:56.889Z</time></trkpt><trkpt lat="44.38808527269252" lon="11.073216564298509"><ele>263.2</ele><time>2026-04-28T07:31:57.889Z</time></trkpt><trkpt lat="44.387980071715184" lon="11.073214516931296"><ele>263.4</ele><time>2026-04-28T07:31:58.889Z</time></trkpt><trkpt lat="44.3878836250008" lon="11.073226665699833"><ele>263.59999999999997</ele><time>2026-04-28T07:31:59.889Z</time></trkpt><trkpt lat="44.387786864096434" lon="11.073240616356271"><ele>263.8</ele><time>2026-04-28T07:32:00.889Z</time></trkpt><trkpt lat="44.38768857443116" lon="11.073253114990912"><ele>264.0</ele><time>2026-04-28T07:32:01.889Z</time></trkpt><trkpt lat="44.38759962771679" lon="11.073254158539527"><ele>264.0</ele><time>2026-04-28T07:32:02.889Z</time></trkpt><trkpt lat="44.3875189305682" lon="11.07325732792991"><ele>264.0</ele><time>2026-04-28T07:32:03.889Z</time></trkpt><trkpt lat="44.387441999545764" lon="11.073272787708152"><ele>264.0</ele><time>2026-04-28T07:32:04.889Z</time></trkpt><trkpt lat="44.38736597442018" lon="11.073282008296882"><ele>264.0</ele><time>2026-04-28T07:32:05.889Z</time></trkpt><trkpt lat="44.3873008740814" lon="11.073294306066463"><ele>264.0</ele><time>2026-04-28T07:32:06.889Z</time></trkpt><trkpt lat="44.38721649109276" lon="11.073312150819742"><ele>264.0</ele><time>2026-04-28T07:32:07.889Z</time></trkpt><trkpt lat="44.387118399350996" lon="11.073329428046815"><ele>264.59999999999997</ele><time>2026-04-28T07:32:08.889Z</time></trkpt><trkpt lat="44.387021189416174" lon="11.073336481761473"><ele>265.2</ele><time>2026-04-28T07:32:09.889Z</time></trkpt><trkpt lat="44.386923853480425" lon="11.073344284924099"><ele>265.79999999999995</ele><time>2026-04-28T07:32:10.889Z</time></trkpt><trkpt lat="44.386824141756854" lon="11.073353581063"><ele>266.4</ele><time>2026-04-28T07:32:11.889Z</time></trkpt><trkpt lat="44.38671672206434" lon="11.073357278680064"><ele>267.0</ele><time>2026-04-28T07:32:12.889Z</time></trkpt><trkpt lat="44.386626976117704" lon="11.073376967976895"><ele>267.0</ele><time>2026-04-28T07:32:13.889Z</time></trkpt><trkpt lat="44.38651809081121" lon="11.073395600515713"><ele>267.0</ele><time>2026-04-28T07:32:14.889Z</time></trkpt><trkpt lat="44.38639786850981" lon="11.07339816324156"><ele>267.0</ele><time>2026-04-28T07:32:15.889Z</time></trkpt><trkpt lat="44.3862936581659" lon="11.073414979548899"><ele>267.0</ele><time>2026-04-28T07:32:16.889Z</time></trkpt><trkpt lat="44.3861803878256" lon="11.073428826655716"><ele>267.0</ele><time>2026-04-28T07:32:17.889Z</time></trkpt><trkpt lat="44.386065622232636" lon="11.073441073278806"><ele>267.25</ele><time>2026-04-28T07:32:18.889Z</time></trkpt><trkpt lat="44.38595273148342" lon="11.073453283925012"><ele>267.5</ele><time>2026-04-28T07:32:19.889Z</time></trkpt><trkpt lat="44.385840896272725" lon="11.073463894424322"><ele>267.75</ele><time>2026-04-28T07:32:20.889Z</time></trkpt><trkpt lat="44.38572364365486" lon="11.073474117522501"><ele>268.0</ele><time>2026-04-28T07:32:21.889Z</time></trkpt><trkpt lat="44.38559888512625" lon="11.073483383767707"><ele>268.5</ele><time>2026-04-28T07:32:22.888Z</time></trkpt><trkpt lat="44.385472146907105" lon="11.073496565871244"><ele>269.0</ele><time>2026-04-28T07:32:23.888Z</time></trkpt><trkpt lat="44.385346577598334" lon="11.073507390363414"><ele>269.5</ele><time>2026-04-28T07:32:24.888Z</time></trkpt><trkpt lat="44.38521746510439" lon="11.07352057586805"><ele>270.0</ele><time>2026-04-28T07:32:25.889Z</time></trkpt><trkpt lat="44.3850887281846" lon="11.07353884784869"><ele>270.0</ele><time>2026-04-28T07:32:26.888Z</time></trkpt><trkpt lat="44.38495946116351" lon="11.073550944701257"><ele>270.0</ele><time>2026-04-28T07:32:27.888Z</time></trkpt><trkpt lat="44.38483442988221" lon="11.073565568166009"><ele>270.0</ele><time>2026-04-28T07:32:28.888Z</time></trkpt><trkpt lat="44.38469762913597" lon="11.073580027427537"><ele>270.0</ele><time>2026-04-28T07:32:29.888Z</time></trkpt><trkpt lat="44.3845602678783" lon="11.073600246555646"><ele>270.25</ele><time>2026-04-28T07:32:30.888Z</time></trkpt><trkpt lat="44.38441224808886" lon="11.073598258551465"><ele>270.5</ele><time>2026-04-28T07:32:31.888Z</time></trkpt><trkpt lat="44.38427132752413" lon="11.073622052848624"><ele>270.75</ele><time>2026-04-28T07:32:32.888Z</time></trkpt><trkpt lat="44.384127961452265" lon="11.073639187708757"><ele>271.0</ele><time>2026-04-28T07:32:33.888Z</time></trkpt><trkpt lat="44.38397732847808" lon="11.073648257066756"><ele>272.0</ele><time>2026-04-28T07:32:34.888Z</time></trkpt><trkpt lat="44.38382523656896" lon="11.07364956161255"><ele>273.0</ele><time>2026-04-28T07:32:35.888Z</time></trkpt><trkpt lat="44.38366222892477" lon="11.073647016024825"><ele>274.0</ele><time>2026-04-28T07:32:36.888Z</time></trkpt><trkpt lat="44.38350465408109" lon="11.07363516724625"><ele>274.0</ele><time>2026-04-28T07:32:37.888Z</time></trkpt><trkpt lat="44.38334148048771" lon="11.073608474391218"><ele>274.0</ele><time>2026-04-28T07:32:38.888Z</time></trkpt><trkpt lat="44.38318584993553" lon="11.073569792860889"><ele>274.0</ele><time>2026-04-28T07:32:39.888Z</time></trkpt><trkpt lat="44.38302672521948" lon="11.073517215827772"><ele>275.0</ele><time>2026-04-28T07:32:40.888Z</time></trkpt><trkpt lat="44.38286372358774" lon="11.073451144066732"><ele>276.0</ele><time>2026-04-28T07:32:41.888Z</time></trkpt><trkpt lat="44.382705200145054" lon="11.073387339542409"><ele>277.0</ele><time>2026-04-28T07:32:42.888Z</time></trkpt><trkpt lat="44.382545420366796" lon="11.073313199590686"><ele>276.66666666666663</ele><time>2026-04-28T07:32:43.888Z</time></trkpt><trkpt lat="44.38238083291349" lon="11.073228971377763"><ele>276.3333333333333</ele><time>2026-04-28T07:32:44.888Z</time></trkpt><trkpt lat="44.382223161031476" lon="11.073128347875151"><ele>276.0</ele><time>2026-04-28T07:32:45.888Z</time></trkpt><trkpt lat="44.382065565665236" lon="11.073021746249292"><ele>276.0</ele><time>2026-04-28T07:32:46.888Z</time></trkpt><trkpt lat="44.38191262883598" lon="11.072918461049717"><ele>276.0</ele><time>2026-04-28T07:32:47.888Z</time></trkpt><trkpt lat="44.381760465727176" lon="11.072817978780572"><ele>276.0</ele><time>2026-04-28T07:32:48.888Z</time></trkpt><trkpt lat="44.38160417126094" lon="11.07271752098911"><ele>276.0</ele><time>2026-04-28T07:32:49.888Z</time></trkpt><trkpt lat="44.38146184787" lon="11.072618920716751"><ele>276.0</ele><time>2026-04-28T07:32:50.888Z</time></trkpt><trkpt lat="44.38132364055926" lon="11.072531480466536"><ele>276.0</ele><time>2026-04-28T07:32:51.888Z</time></trkpt><trkpt lat="44.38118445403684" lon="11.07244518161514"><ele>276.6666666666667</ele><time>2026-04-28T07:32:52.888Z</time></trkpt><trkpt lat="44.3810508332665" lon="11.07235664905802"><ele>277.33333333333337</ele><time>2026-04-28T07:32:53.888Z</time></trkpt><trkpt lat="44.380915770009004" lon="11.072263444829465"><ele>278.0</ele><time>2026-04-28T07:32:54.888Z</time></trkpt><trkpt lat="44.380775907330815" lon="11.072168309205987"><ele>278.0</ele><time>2026-04-28T07:32:55.888Z</time></trkpt><trkpt lat="44.3806366538655" lon="11.072080338258274"><ele>278.0</ele><time>2026-04-28T07:32:56.888Z</time></trkpt><trkpt lat="44.38050354445054" lon="11.071995520903476"><ele>278.0</ele><time>2026-04-28T07:32:57.888Z</time></trkpt><trkpt lat="44.38036949765733" lon="11.071904390658105"><ele>278.0</ele><time>2026-04-28T07:32:58.888Z</time></trkpt><trkpt lat="44.3802320046133" lon="11.071815620251574"><ele>278.33333333333337</ele><time>2026-04-28T07:32:59.888Z</time></trkpt><trkpt lat="44.3800955968902" lon="11.071727200335934"><ele>278.6666666666667</ele><time>2026-04-28T07:33:00.888Z</time></trkpt><trkpt lat="44.379951940308324" lon="11.071644454808306"><ele>279.0</ele><time>2026-04-28T07:33:01.888Z</time></trkpt><trkpt lat="44.37981622206754" lon="11.07155554355692"><ele>279.75</ele><time>2026-04-28T07:33:02.888Z</time></trkpt><trkpt lat="44.37968077861456" lon="11.071458872841289"><ele>280.5</ele><time>2026-04-28T07:33:03.888Z</time></trkpt><trkpt lat="44.379548852274745" lon="11.071365818241096"><ele>281.25</ele><time>2026-04-28T07:33:04.888Z</time></trkpt><trkpt lat="44.3794197624789" lon="11.071265835286662"><ele>282.0</ele><time>2026-04-28T07:33:05.888Z</time></trkpt><trkpt lat="44.37929265127102" lon="11.071157313927515"><ele>282.0</ele><time>2026-04-28T07:33:06.888Z</time></trkpt><trkpt lat="44.37916508449813" lon="11.071051588610835"><ele>282.0</ele><time>2026-04-28T07:33:07.888Z</time></trkpt><trkpt lat="44.379042005733595" lon="11.070950334333336"><ele>282.0</ele><time>2026-04-28T07:33:08.888Z</time></trkpt><trkpt lat="44.37890690135795" lon="11.070832862856282"><ele>283.3333333333333</ele><time>2026-04-28T07:33:09.887Z</time></trkpt><trkpt lat="44.378781908772446" lon="11.070718717702752"><ele>284.66666666666663</ele><time>2026-04-28T07:33:10.887Z</time></trkpt><trkpt lat="44.378661002105034" lon="11.070588985155167"><ele>286.0</ele><time>2026-04-28T07:33:11.887Z</time></trkpt><trkpt lat="44.37853287163212" lon="11.070458338954884"><ele>286.0</ele><time>2026-04-28T07:33:12.887Z</time></trkpt><trkpt lat="44.378402996644674" lon="11.070333002409427"><ele>286.0</ele><time>2026-04-28T07:33:13.887Z</time></trkpt><trkpt lat="44.37827223399969" lon="11.07019613288894"><ele>286.0</ele><time>2026-04-28T07:33:14.887Z</time></trkpt><trkpt lat="44.37814723960437" lon="11.070067957273107"><ele>288.3333333333333</ele><time>2026-04-28T07:33:15.887Z</time></trkpt><trkpt lat="44.37800678039399" lon="11.069929042267388"><ele>290.6666666666667</ele><time>2026-04-28T07:33:16.887Z</time></trkpt><trkpt lat="44.377874161188984" lon="11.069783728509242"><ele>293.0</ele><time>2026-04-28T07:33:17.887Z</time></trkpt><trkpt lat="44.37773465590137" lon="11.06965613082536"><ele>293.0</ele><time>2026-04-28T07:33:18.887Z</time></trkpt><trkpt lat="44.377593002734486" lon="11.06951072244354"><ele>293.0</ele><time>2026-04-28T07:33:19.887Z</time></trkpt><trkpt lat="44.37745827823966" lon="11.069371373543989"><ele>293.0</ele><time>2026-04-28T07:33:20.887Z</time></trkpt><trkpt lat="44.37732765105236" lon="11.069230382139576"><ele>292.6666666666667</ele><time>2026-04-28T07:33:21.887Z</time></trkpt><trkpt lat="44.377190674251395" lon="11.069092217497982"><ele>292.3333333333333</ele><time>2026-04-28T07:33:22.887Z</time></trkpt><trkpt lat="44.377044785328415" lon="11.068952850256315"><ele>292.0</ele><time>2026-04-28T07:33:23.887Z</time></trkpt><trkpt lat="44.376910907700484" lon="11.068823783498232"><ele>292.0</ele><time>2026-04-28T07:33:24.887Z</time></trkpt><trkpt lat="44.376783149455754" lon="11.068688857550356"><ele>292.0</ele><time>2026-04-28T07:33:25.887Z</time></trkpt><trkpt lat="44.37664869835314" lon="11.068554885949247"><ele>292.0</ele><time>2026-04-28T07:33:26.887Z</time></trkpt><trkpt lat="44.37651874222482" lon="11.068423077162043"><ele>292.0</ele><time>2026-04-28T07:33:27.887Z</time></trkpt><trkpt lat="44.37640780079113" lon="11.068307317648939"><ele>292.0</ele><time>2026-04-28T07:33:28.887Z</time></trkpt><trkpt lat="44.376316483286985" lon="11.068223607905379"><ele>292.0</ele><time>2026-04-28T07:33:29.887Z</time></trkpt><trkpt lat="44.37624278723677" lon="11.068154544818139"><ele>292.0</ele><time>2026-04-28T07:33:30.887Z</time></trkpt><trkpt lat="44.37616248905283" lon="11.068070537198649"><ele>292.0</ele><time>2026-04-28T07:33:31.887Z</time></trkpt><trkpt lat="44.37608406065204" lon="11.067954619374406"><ele>293.0</ele><time>2026-04-28T07:33:32.887Z</time></trkpt><trkpt lat="44.37604135924552" lon="11.067822038519505"><ele>294.0</ele><time>2026-04-28T07:33:33.887Z</time></trkpt><trkpt lat="44.37603482594012" lon="11.067674988984654"><ele>295.0</ele><time>2026-04-28T07:33:34.887Z</time></trkpt><trkpt lat="44.37608553380576" lon="11.067565778016808"><ele>296.0</ele><time>2026-04-28T07:33:35.887Z</time></trkpt><trkpt lat="44.37612908232075" lon="11.067427268741522"><ele>297.0</ele><time>2026-04-28T07:33:36.887Z</time></trkpt><trkpt lat="44.37618988524382" lon="11.06729803368197"><ele>298.0</ele><time>2026-04-28T07:33:37.887Z</time></trkpt><trkpt lat="44.37623521015953" lon="11.06716677119185"><ele>299.0</ele><time>2026-04-28T07:33:38.887Z</time></trkpt><trkpt lat="44.376274439188414" lon="11.0670528694066"><ele>300.0</ele><time>2026-04-28T07:33:39.887Z</time></trkpt><trkpt lat="44.37631040727196" lon="11.06695549750406"><ele>301.0</ele><time>2026-04-28T07:33:40.887Z</time></trkpt><trkpt lat="44.376325992846326" lon="11.066863222064923"><ele>302.0</ele><time>2026-04-28T07:33:41.887Z</time></trkpt><trkpt lat="44.376288293821005" lon="11.066701856356017"><ele>302.0</ele><time>2026-04-28T07:33:43.887Z</time></trkpt><trkpt lat="44.3761846325602" lon="11.066661639798776"><ele>302.0</ele><time>2026-04-28T07:33:44.887Z</time></trkpt><trkpt lat="44.37607615010529" lon="11.066647183158992"><ele>302.0</ele><time>2026-04-28T07:33:45.887Z</time></trkpt><trkpt lat="44.37595376631099" lon="11.06663175636816"><ele>302.0</ele><time>2026-04-28T07:33:46.887Z</time></trkpt><trkpt lat="44.375825174065085" lon="11.066590222773142"><ele>303.75</ele><time>2026-04-28T07:33:47.887Z</time></trkpt><trkpt lat="44.37569446117846" lon="11.066527749788662"><ele>305.5</ele><time>2026-04-28T07:33:48.887Z</time></trkpt><trkpt lat="44.3755638251299" lon="11.066445122540472"><ele>307.25</ele><time>2026-04-28T07:33:49.887Z</time></trkpt><trkpt lat="44.37542410263435" lon="11.06634302570895"><ele>309.0</ele><time>2026-04-28T07:33:50.887Z</time></trkpt><trkpt lat="44.375280523234856" lon="11.066244131910645"><ele>309.0</ele><time>2026-04-28T07:33:51.887Z</time></trkpt><trkpt lat="44.375135181783406" lon="11.066154833284465"><ele>309.0</ele><time>2026-04-28T07:33:52.887Z</time></trkpt><trkpt lat="44.374993397396885" lon="11.066079799095995"><ele>309.0</ele><time>2026-04-28T07:33:53.887Z</time></trkpt><trkpt lat="44.374854307348315" lon="11.066033864140588"><ele>309.0</ele><time>2026-04-28T07:33:54.886Z</time></trkpt><trkpt lat="44.3747071692081" lon="11.065996686906239"><ele>309.0</ele><time>2026-04-28T07:33:55.886Z</time></trkpt><trkpt lat="44.37456325336584" lon="11.065977758879486"><ele>309.0</ele><time>2026-04-28T07:33:56.886Z</time></trkpt><trkpt lat="44.374419252492885" lon="11.065953585712206"><ele>309.0</ele><time>2026-04-28T07:33:57.886Z</time></trkpt><trkpt lat="44.37427453910312" lon="11.065938699256213"><ele>309.0</ele><time>2026-04-28T07:33:58.886Z</time></trkpt><trkpt lat="44.37413766256254" lon="11.06592612734796"><ele>309.0</ele><time>2026-04-28T07:33:59.886Z</time></trkpt><trkpt lat="44.374000899052625" lon="11.06590731902283"><ele>309.0</ele><time>2026-04-28T07:34:00.886Z</time></trkpt><trkpt lat="44.373865637373996" lon="11.065885111085024"><ele>309.0</ele><time>2026-04-28T07:34:01.886Z</time></trkpt><trkpt lat="44.373725867220955" lon="11.065853124632968"><ele>308.0</ele><time>2026-04-28T07:34:02.886Z</time></trkpt><trkpt lat="44.37358616259061" lon="11.06582127477746"><ele>307.0</ele><time>2026-04-28T07:34:03.886Z</time></trkpt><trkpt lat="44.37344763477128" lon="11.06577100368104"><ele>306.0</ele><time>2026-04-28T07:34:04.886Z</time></trkpt><trkpt lat="44.37331575554465" lon="11.06571084139894"><ele>305.0</ele><time>2026-04-28T07:34:05.886Z</time></trkpt><trkpt lat="44.37318961475677" lon="11.065628216022061"><ele>305.75</ele><time>2026-04-28T07:34:06.886Z</time></trkpt><trkpt lat="44.37307853741941" lon="11.065529811780333"><ele>306.5</ele><time>2026-04-28T07:34:07.886Z</time></trkpt><trkpt lat="44.372972085115364" lon="11.06540170202387"><ele>307.25</ele><time>2026-04-28T07:34:08.886Z</time></trkpt><trkpt lat="44.3728698757875" lon="11.065277463528215"><ele>308.0</ele><time>2026-04-28T07:34:09.886Z</time></trkpt><trkpt lat="44.37276869132307" lon="11.0651470071985"><ele>308.0</ele><time>2026-04-28T07:34:10.886Z</time></trkpt><trkpt lat="44.37267014621816" lon="11.065020829714229"><ele>308.0</ele><time>2026-04-28T07:34:11.886Z</time></trkpt><trkpt lat="44.37256762844156" lon="11.064905919226204"><ele>308.0</ele><time>2026-04-28T07:34:12.886Z</time></trkpt><trkpt lat="44.372472773889314" lon="11.06480470346003"><ele>308.0</ele><time>2026-04-28T07:34:13.886Z</time></trkpt><trkpt lat="44.372383449677514" lon="11.064685061526603"><ele>307.75</ele><time>2026-04-28T07:34:14.886Z</time></trkpt><trkpt lat="44.37229045561161" lon="11.06456512658998"><ele>307.5</ele><time>2026-04-28T07:34:15.886Z</time></trkpt><trkpt lat="44.37219236525847" lon="11.064446087159435"><ele>307.25</ele><time>2026-04-28T07:34:16.886Z</time></trkpt><trkpt lat="44.37210138316902" lon="11.064324638167744"><ele>307.0</ele><time>2026-04-28T07:34:17.886Z</time></trkpt><trkpt lat="44.37201085136494" lon="11.064198384191744"><ele>309.75</ele><time>2026-04-28T07:34:18.886Z</time></trkpt><trkpt lat="44.371914580485125" lon="11.064076895733077"><ele>312.5</ele><time>2026-04-28T07:34:19.886Z</time></trkpt><trkpt lat="44.37181360359113" lon="11.063952389238331"><ele>315.25</ele><time>2026-04-28T07:34:20.886Z</time></trkpt><trkpt lat="44.371713483811284" lon="11.06381962525689"><ele>318.0</ele><time>2026-04-28T07:34:21.886Z</time></trkpt><trkpt lat="44.37161622627295" lon="11.063674448909339"><ele>318.0</ele><time>2026-04-28T07:34:22.886Z</time></trkpt><trkpt lat="44.37152618996028" lon="11.063525213784558"><ele>318.0</ele><time>2026-04-28T07:34:23.886Z</time></trkpt><trkpt lat="44.371444546447826" lon="11.063364657357239"><ele>318.0</ele><time>2026-04-28T07:34:24.886Z</time></trkpt><trkpt lat="44.37137552529437" lon="11.063185896540663"><ele>318.0</ele><time>2026-04-28T07:34:25.886Z</time></trkpt><trkpt lat="44.37130743921313" lon="11.063006797802068"><ele>317.3333333333333</ele><time>2026-04-28T07:34:26.886Z</time></trkpt><trkpt lat="44.371236665262806" lon="11.062824834298349"><ele>316.66666666666663</ele><time>2026-04-28T07:34:27.886Z</time></trkpt><trkpt lat="44.37116660224647" lon="11.062623445269343"><ele>316.0</ele><time>2026-04-28T07:34:28.886Z</time></trkpt><trkpt lat="44.37110372395688" lon="11.062407714791226"><ele>316.0</ele><time>2026-04-28T07:34:29.885Z</time></trkpt><trkpt lat="44.37103944517383" lon="11.062181096351766"><ele>316.0</ele><time>2026-04-28T07:34:30.885Z</time></trkpt><trkpt lat="44.37097310652591" lon="11.061946769908412"><ele>316.0</ele><time>2026-04-28T07:34:31.885Z</time></trkpt><trkpt lat="44.370907988536175" lon="11.061715254377283"><ele>319.3333333333333</ele><time>2026-04-28T07:34:32.886Z</time></trkpt><trkpt lat="44.37083677068" lon="11.061493625293348"><ele>322.6666666666667</ele><time>2026-04-28T07:34:33.886Z</time></trkpt><trkpt lat="44.37077293548773" lon="11.061266946481737"><ele>326.0</ele><time>2026-04-28T07:34:34.886Z</time></trkpt><trkpt lat="44.37070900145903" lon="11.06103266651094"><ele>326.0</ele><time>2026-04-28T07:34:35.886Z</time></trkpt><trkpt lat="44.37064279316929" lon="11.060806384588238"><ele>326.0</ele><time>2026-04-28T07:34:36.886Z</time></trkpt><trkpt lat="44.37057658801983" lon="11.060593007850473"><ele>326.0</ele><time>2026-04-28T07:34:37.886Z</time></trkpt><trkpt lat="44.37051146613199" lon="11.060381253167417"><ele>322.33333333333337</ele><time>2026-04-28T07:34:38.885Z</time></trkpt><trkpt lat="44.37045520838111" lon="11.060163373886644"><ele>318.6666666666667</ele><time>2026-04-28T07:34:39.885Z</time></trkpt><trkpt lat="44.37039376253792" lon="11.059945027960412"><ele>315.0</ele><time>2026-04-28T07:34:40.885Z</time></trkpt><trkpt lat="44.370323198859865" lon="11.059730060693374"><ele>315.0</ele><time>2026-04-28T07:34:41.885Z</time></trkpt><trkpt lat="44.37023032403873" lon="11.059515696524052"><ele>315.0</ele><time>2026-04-28T07:34:42.885Z</time></trkpt><trkpt lat="44.370126859886845" lon="11.05932843768391"><ele>315.0</ele><time>2026-04-28T07:34:43.885Z</time></trkpt><trkpt lat="44.36999259117891" lon="11.059163663827066"><ele>315.6666666666667</ele><time>2026-04-28T07:34:44.885Z</time></trkpt><trkpt lat="44.36986668893863" lon="11.058993537465449"><ele>316.33333333333337</ele><time>2026-04-28T07:34:45.885Z</time></trkpt><trkpt lat="44.369717149453315" lon="11.05882440080476"><ele>317.0</ele><time>2026-04-28T07:34:46.885Z</time></trkpt><trkpt lat="44.36957462925117" lon="11.058661962544981"><ele>317.0</ele><time>2026-04-28T07:34:47.885Z</time></trkpt><trkpt lat="44.369435325564126" lon="11.058495693596148"><ele>317.0</ele><time>2026-04-28T07:34:48.885Z</time></trkpt><trkpt lat="44.36929719812957" lon="11.058327742555134"><ele>317.0</ele><time>2026-04-28T07:34:49.885Z</time></trkpt><trkpt lat="44.36915602602656" lon="11.058160151506144"><ele>317.6666666666667</ele><time>2026-04-28T07:34:50.885Z</time></trkpt><trkpt lat="44.36901915509609" lon="11.057995294112134"><ele>318.3333333333333</ele><time>2026-04-28T07:34:51.885Z</time></trkpt><trkpt lat="44.36888404883538" lon="11.057838304929733"><ele>319.0</ele><time>2026-04-28T07:34:52.885Z</time></trkpt><trkpt lat="44.36875236679207" lon="11.057680320926465"><ele>319.0</ele><time>2026-04-28T07:34:53.885Z</time></trkpt><trkpt lat="44.36864299576784" lon="11.057549721032771"><ele>319.0</ele><time>2026-04-28T07:34:54.885Z</time></trkpt><trkpt lat="44.368536643982" lon="11.057412797320767"><ele>319.0</ele><time>2026-04-28T07:34:55.885Z</time></trkpt><trkpt lat="44.368423645524835" lon="11.057274846815499"><ele>319.0</ele><time>2026-04-28T07:34:56.885Z</time></trkpt><trkpt lat="44.36831458599794" lon="11.057142750520402"><ele>319.5</ele><time>2026-04-28T07:34:57.885Z</time></trkpt><trkpt lat="44.368213429592494" lon="11.057020468649773"><ele>320.0</ele><time>2026-04-28T07:34:58.885Z</time></trkpt><trkpt lat="44.36812383448075" lon="11.056905764859167"><ele>320.5</ele><time>2026-04-28T07:34:59.885Z</time></trkpt><trkpt lat="44.36803147347421" lon="11.056804706516237"><ele>321.0</ele><time>2026-04-28T07:35:00.885Z</time></trkpt><trkpt lat="44.36794116736538" lon="11.056697839179247"><ele>321.5</ele><time>2026-04-28T07:35:01.885Z</time></trkpt><trkpt lat="44.36785374669539" lon="11.056595728254708"><ele>322.0</ele><time>2026-04-28T07:35:02.885Z</time></trkpt><trkpt lat="44.36777116815149" lon="11.056487027986453"><ele>322.5</ele><time>2026-04-28T07:35:03.885Z</time></trkpt><trkpt lat="44.36767567198484" lon="11.05636988621944"><ele>323.0</ele><time>2026-04-28T07:35:04.885Z</time></trkpt><trkpt lat="44.367580315862305" lon="11.056250337656943"><ele>323.0</ele><time>2026-04-28T07:35:05.885Z</time></trkpt><trkpt lat="44.36748428391711" lon="11.056132027087687"><ele>323.0</ele><time>2026-04-28T07:35:06.885Z</time></trkpt><trkpt lat="44.367399925902326" lon="11.056023973458332"><ele>323.0</ele><time>2026-04-28T07:35:07.885Z</time></trkpt><trkpt lat="44.36730374002371" lon="11.055899043706377"><ele>323.0</ele><time>2026-04-28T07:35:08.885Z</time></trkpt><trkpt lat="44.36721045331846" lon="11.055789865142788"><ele>324.25</ele><time>2026-04-28T07:35:09.885Z</time></trkpt><trkpt lat="44.3671163323498" lon="11.055681625825445"><ele>325.5</ele><time>2026-04-28T07:35:10.885Z</time></trkpt><trkpt lat="44.36702602573428" lon="11.055569493155271"><ele>326.75</ele><time>2026-04-28T07:35:11.885Z</time></trkpt><trkpt lat="44.36692583862606" lon="11.055450714489663"><ele>328.0</ele><time>2026-04-28T07:35:12.885Z</time></trkpt><trkpt lat="44.36682532892751" lon="11.055327061331438"><ele>328.0</ele><time>2026-04-28T07:35:13.885Z</time></trkpt><trkpt lat="44.36672314606569" lon="11.055201224453558"><ele>328.0</ele><time>2026-04-28T07:35:14.885Z</time></trkpt><trkpt lat="44.36661899426862" lon="11.055073118133686"><ele>328.0</ele><time>2026-04-28T07:35:15.885Z</time></trkpt><trkpt lat="44.366513312678606" lon="11.054946360290431"><ele>328.0</ele><time>2026-04-28T07:35:16.885Z</time></trkpt><trkpt lat="44.366421773553576" lon="11.0548151030434"><ele>328.75</ele><time>2026-04-28T07:35:17.885Z</time></trkpt><trkpt lat="44.366321217567716" lon="11.054691892777502"><ele>329.5</ele><time>2026-04-28T07:35:18.885Z</time></trkpt><trkpt lat="44.36624309239189" lon="11.054556777991932"><ele>330.25</ele><time>2026-04-28T07:35:19.885Z</time></trkpt><trkpt lat="44.36616129049284" lon="11.05442240586221"><ele>331.0</ele><time>2026-04-28T07:35:20.885Z</time></trkpt><trkpt lat="44.36609923730699" lon="11.054285642349905"><ele>331.0</ele><time>2026-04-28T07:35:21.885Z</time></trkpt><trkpt lat="44.36604904688112" lon="11.054129802677329"><ele>331.0</ele><time>2026-04-28T07:35:22.885Z</time></trkpt><trkpt lat="44.36601434172899" lon="11.053994449192352"><ele>331.0</ele><time>2026-04-28T07:35:23.884Z</time></trkpt><trkpt lat="44.36599800545149" lon="11.053877800885225"><ele>331.0</ele><time>2026-04-28T07:35:24.884Z</time></trkpt><trkpt lat="44.365995634065925" lon="11.053765306223823"><ele>331.0</ele><time>2026-04-28T07:35:25.884Z</time></trkpt><trkpt lat="44.36598705777791" lon="11.053665051460799"><ele>331.3333333333333</ele><time>2026-04-28T07:35:26.884Z</time></trkpt><trkpt lat="44.36599284115249" lon="11.053530858669081"><ele>331.66666666666663</ele><time>2026-04-28T07:35:28.884Z</time></trkpt><trkpt lat="44.365975448774336" lon="11.053413183350505"><ele>332.0</ele><time>2026-04-28T07:35:30.884Z</time></trkpt><trkpt lat="44.36595068665878" lon="11.053267187826563"><ele>332.3333333333333</ele><time>2026-04-28T07:35:33.884Z</time></trkpt><trkpt lat="44.36593627113865" lon="11.053165575147974"><ele>332.6666666666667</ele><time>2026-04-28T07:35:35.884Z</time></trkpt><trkpt lat="44.36591765241007" lon="11.053075298523899"><ele>333.0</ele><time>2026-04-28T07:35:37.884Z</time></trkpt><trkpt lat="44.36590768963853" lon="11.052924094227278"><ele>333.5</ele><time>2026-04-28T07:35:39.884Z</time></trkpt><trkpt lat="44.36595447318351" lon="11.052750203330204"><ele>334.0</ele><time>2026-04-28T07:35:41.884Z</time></trkpt><trkpt lat="44.365997059101886" lon="11.052616817275018"><ele>334.5</ele><time>2026-04-28T07:35:43.884Z</time></trkpt><trkpt lat="44.36603208948907" lon="11.0524585448586"><ele>335.0</ele><time>2026-04-28T07:35:45.884Z</time></trkpt><trkpt lat="44.36606995511315" lon="11.052297647439712"><ele>335.8</ele><time>2026-04-28T07:35:47.884Z</time></trkpt><trkpt lat="44.36608144005329" lon="11.052210672397768"><ele>336.6</ele><time>2026-04-28T07:35:48.884Z</time></trkpt><trkpt lat="44.36609722428003" lon="11.052063159921847"><ele>337.4</ele><time>2026-04-28T07:35:50.884Z</time></trkpt><trkpt lat="44.36612102141978" lon="11.051913006354438"><ele>338.2</ele><time>2026-04-28T07:35:52.884Z</time></trkpt><trkpt lat="44.36613065999732" lon="11.051825864371718"><ele>339.0</ele><time>2026-04-28T07:35:53.884Z</time></trkpt><trkpt lat="44.36614066929291" lon="11.051664703755119"><ele>339.6666666666667</ele><time>2026-04-28T07:35:55.884Z</time></trkpt><trkpt lat="44.36614447211822" lon="11.051567486603487"><ele>340.3333333333333</ele><time>2026-04-28T07:35:56.884Z</time></trkpt><trkpt lat="44.36615176204224" lon="11.051473833682836"><ele>341.0</ele><time>2026-04-28T07:35:57.884Z</time></trkpt><trkpt lat="44.36616326517409" lon="11.051387193138384"><ele>341.66666666666663</ele><time>2026-04-28T07:35:58.884Z</time></trkpt><trkpt lat="44.366168687814444" lon="11.051230851415053"><ele>342.3333333333333</ele><time>2026-04-28T07:36:00.884Z</time></trkpt><trkpt lat="44.36616606766418" lon="11.051089658359256"><ele>343.0</ele><time>2026-04-28T07:36:02.884Z</time></trkpt><trkpt lat="44.366134835653305" lon="11.05093867238559"><ele>343.0</ele><time>2026-04-28T07:36:04.884Z</time></trkpt><trkpt lat="44.36610115245417" lon="11.050799689522083"><ele>343.0</ele><time>2026-04-28T07:36:06.884Z</time></trkpt><trkpt lat="44.366110649306016" lon="11.050659938946591"><ele>343.0</ele><time>2026-04-28T07:36:08.883Z</time></trkpt><trkpt lat="44.36622328580463" lon="11.050715250398696"><ele>343.0</ele><time>2026-04-28T07:36:10.883Z</time></trkpt><trkpt lat="44.3662380937677" lon="11.050803793520794"><ele>343.0</ele><time>2026-04-28T07:36:11.883Z</time></trkpt><trkpt lat="44.36630651647651" lon="11.050949092529303"><ele>343.0</ele><time>2026-04-28T07:36:13.883Z</time></trkpt><trkpt lat="44.366358042752026" lon="11.051036795757184"><ele>343.0</ele><time>2026-04-28T07:36:14.883Z</time></trkpt><trkpt lat="44.36640646380423" lon="11.051126730210406"><ele>343.0</ele><time>2026-04-28T07:36:15.883Z</time></trkpt><trkpt lat="44.36646574478539" lon="11.051215172145133"><ele>343.0</ele><time>2026-04-28T07:36:16.883Z</time></trkpt><trkpt lat="44.36651454688865" lon="11.05130939459853"><ele>343.0</ele><time>2026-04-28T07:36:17.883Z</time></trkpt><trkpt lat="44.36655612520826" lon="11.05140889830196"><ele>343.0</ele><time>2026-04-28T07:36:18.883Z</time></trkpt><trkpt lat="44.36659262083515" lon="11.051492857963062"><ele>346.0</ele><time>2026-04-28T07:36:19.883Z</time></trkpt><trkpt lat="44.36665997464577" lon="11.051634799232668"><ele>349.0</ele><time>2026-04-28T07:36:21.883Z</time></trkpt><trkpt lat="44.366696305428725" lon="11.05171284706076"><ele>352.0</ele><time>2026-04-28T07:36:22.883Z</time></trkpt><trkpt lat="44.366812021613754" lon="11.051822083950187"><ele>355.0</ele><time>2026-04-28T07:36:24.883Z</time></trkpt><trkpt lat="44.36689646432099" lon="11.051827683795866"><ele>358.0</ele><time>2026-04-28T07:36:25.883Z</time></trkpt><trkpt lat="44.36699174411612" lon="11.051822657566058"><ele>358.0</ele><time>2026-04-28T07:36:26.883Z</time></trkpt><trkpt lat="44.36708916802795" lon="11.051841965576081"><ele>358.0</ele><time>2026-04-28T07:36:27.883Z</time></trkpt><trkpt lat="44.36718606196084" lon="11.051825524120611"><ele>358.0</ele><time>2026-04-28T07:36:28.883Z</time></trkpt><trkpt lat="44.36728097307149" lon="11.051890776078228"><ele>358.0</ele><time>2026-04-28T07:36:29.883Z</time></trkpt><trkpt lat="44.36733952524411" lon="11.052009324305807"><ele>358.0</ele><time>2026-04-28T07:36:30.882Z</time></trkpt><trkpt lat="44.367377815499296" lon="11.05215426968324"><ele>360.0</ele><time>2026-04-28T07:36:31.882Z</time></trkpt><trkpt lat="44.36741245389817" lon="11.05230163667444"><ele>362.0</ele><time>2026-04-28T07:36:32.882Z</time></trkpt><trkpt lat="44.36745493325657" lon="11.052449322037683"><ele>364.0</ele><time>2026-04-28T07:36:33.883Z</time></trkpt><trkpt lat="44.36749793876597" lon="11.052571418826298"><ele>366.0</ele><time>2026-04-28T07:36:34.882Z</time></trkpt><trkpt lat="44.367540947984565" lon="11.052668277264186"><ele>368.0</ele><time>2026-04-28T07:36:35.882Z</time></trkpt><trkpt lat="44.36758788066443" lon="11.052734445240079"><ele>368.0</ele><time>2026-04-28T07:36:36.883Z</time></trkpt><trkpt lat="44.36764287812091" lon="11.052793734214873"><ele>368.0</ele><time>2026-04-28T07:36:37.883Z</time></trkpt><trkpt lat="44.36772697661965" lon="11.052791479226327"><ele>368.0</ele><time>2026-04-28T07:36:38.883Z</time></trkpt><trkpt lat="44.36781985080932" lon="11.052692970114252"><ele>368.0</ele><time>2026-04-28T07:36:39.882Z</time></trkpt><trkpt lat="44.367908883784885" lon="11.052628128969785"><ele>368.0</ele><time>2026-04-28T07:36:40.882Z</time></trkpt><trkpt lat="44.368014452670735" lon="11.052554106507246"><ele>370.5</ele><time>2026-04-28T07:36:41.882Z</time></trkpt><trkpt lat="44.368111624138756" lon="11.052489468471112"><ele>373.0</ele><time>2026-04-28T07:36:42.883Z</time></trkpt><trkpt lat="44.36822816947362" lon="11.052419146059604"><ele>375.5</ele><time>2026-04-28T07:36:43.882Z</time></trkpt><trkpt lat="44.368329934211474" lon="11.05234551866953"><ele>378.0</ele><time>2026-04-28T07:36:44.882Z</time></trkpt><trkpt lat="44.36839537285571" lon="11.05222995809077"><ele>379.0</ele><time>2026-04-28T07:36:45.882Z</time></trkpt><trkpt lat="44.36846816819284" lon="11.052138264830942"><ele>380.0</ele><time>2026-04-28T07:36:46.882Z</time></trkpt><trkpt lat="44.368531583429814" lon="11.052047413248635"><ele>381.0</ele><time>2026-04-28T07:36:47.882Z</time></trkpt><trkpt lat="44.368585596741724" lon="11.051940235335687"><ele>382.0</ele><time>2026-04-28T07:36:48.882Z</time></trkpt><trkpt lat="44.368661698604235" lon="11.05185767665585"><ele>383.0</ele><time>2026-04-28T07:36:49.882Z</time></trkpt><trkpt lat="44.36873396616344" lon="11.051761954741641"><ele>383.0</ele><time>2026-04-28T07:36:50.882Z</time></trkpt><trkpt lat="44.36880832955611" lon="11.051664197648263"><ele>383.0</ele><time>2026-04-28T07:36:51.882Z</time></trkpt><trkpt lat="44.36886992700326" lon="11.05157142441755"><ele>383.0</ele><time>2026-04-28T07:36:52.882Z</time></trkpt><trkpt lat="44.368917296887766" lon="11.051475056457766"><ele>383.0</ele><time>2026-04-28T07:36:53.882Z</time></trkpt><trkpt lat="44.36896369283083" lon="11.051369548367465"><ele>383.0</ele><time>2026-04-28T07:36:54.882Z</time></trkpt><trkpt lat="44.368970047714704" lon="11.051222086970485"><ele>388.2</ele><time>2026-04-28T07:36:55.882Z</time></trkpt><trkpt lat="44.36895201742382" lon="11.051078190754433"><ele>393.4</ele><time>2026-04-28T07:36:56.882Z</time></trkpt><trkpt lat="44.36892630457042" lon="11.050948000211202"><ele>398.59999999999997</ele><time>2026-04-28T07:36:57.882Z</time></trkpt><trkpt lat="44.36888712465808" lon="11.050807051863984"><ele>403.79999999999995</ele><time>2026-04-28T07:36:58.882Z</time></trkpt><trkpt lat="44.368860416040384" lon="11.050683739920398"><ele>409.0</ele><time>2026-04-28T07:36:59.882Z</time></trkpt><trkpt lat="44.368844201103535" lon="11.050555396719712"><ele>409.0</ele><time>2026-04-28T07:37:00.882Z</time></trkpt><trkpt lat="44.36885378917273" lon="11.05043335207802"><ele>409.0</ele><time>2026-04-28T07:37:01.882Z</time></trkpt><trkpt lat="44.36887504768955" lon="11.050290818243928"><ele>409.0</ele><time>2026-04-28T07:37:02.882Z</time></trkpt><trkpt lat="44.368857820667486" lon="11.050141025610706"><ele>409.0</ele><time>2026-04-28T07:37:03.882Z</time></trkpt><trkpt lat="44.368803320870356" lon="11.04998855149747"><ele>409.0</ele><time>2026-04-28T07:37:04.882Z</time></trkpt><trkpt lat="44.36872476290335" lon="11.049876642480937"><ele>410.2</ele><time>2026-04-28T07:37:05.882Z</time></trkpt><trkpt lat="44.36862749592032" lon="11.049802491265615"><ele>411.4</ele><time>2026-04-28T07:37:06.882Z</time></trkpt><trkpt lat="44.36853087336863" lon="11.049740461938091"><ele>412.6</ele><time>2026-04-28T07:37:07.882Z</time></trkpt><trkpt lat="44.36844652347764" lon="11.049675434664824"><ele>413.8</ele><time>2026-04-28T07:37:08.882Z</time></trkpt><trkpt lat="44.36837347210011" lon="11.04959736951535"><ele>415.0</ele><time>2026-04-28T07:37:09.882Z</time></trkpt><trkpt lat="44.3683020046836" lon="11.049507704295733"><ele>415.0</ele><time>2026-04-28T07:37:10.882Z</time></trkpt><trkpt lat="44.3682574687699" lon="11.049378299311403"><ele>415.0</ele><time>2026-04-28T07:37:11.882Z</time></trkpt><trkpt lat="44.36824332461604" lon="11.049239783258066"><ele>415.0</ele><time>2026-04-28T07:37:12.882Z</time></trkpt><trkpt lat="44.368244682722555" lon="11.049110444330298"><ele>415.0</ele><time>2026-04-28T07:37:13.882Z</time></trkpt><trkpt lat="44.36827163348298" lon="11.0489956014614"><ele>415.0</ele><time>2026-04-28T07:37:14.882Z</time></trkpt><trkpt lat="44.3683371657814" lon="11.048873351064577"><ele>415.8</ele><time>2026-04-28T07:37:15.882Z</time></trkpt><trkpt lat="44.368403275230825" lon="11.048775964903575"><ele>416.6</ele><time>2026-04-28T07:37:16.882Z</time></trkpt><trkpt lat="44.36845294493602" lon="11.048657956308634"><ele>417.4</ele><time>2026-04-28T07:37:17.882Z</time></trkpt><trkpt lat="44.36848233029483" lon="11.048510200577242"><ele>418.2</ele><time>2026-04-28T07:37:18.882Z</time></trkpt><trkpt lat="44.36846974711184" lon="11.048388458492559"><ele>419.0</ele><time>2026-04-28T07:37:19.882Z</time></trkpt><trkpt lat="44.36845602523094" lon="11.048235745590583"><ele>419.75</ele><time>2026-04-28T07:37:20.882Z</time></trkpt><trkpt lat="44.3684470153329" lon="11.048062501414563"><ele>420.5</ele><time>2026-04-28T07:37:21.882Z</time></trkpt><trkpt lat="44.368436925818095" lon="11.047883110896137"><ele>421.25</ele><time>2026-04-28T07:37:22.882Z</time></trkpt><trkpt lat="44.36842925583073" lon="11.04770483183744"><ele>422.0</ele><time>2026-04-28T07:37:23.882Z</time></trkpt><trkpt lat="44.36841770438681" lon="11.047524479846865"><ele>422.0</ele><time>2026-04-28T07:37:24.882Z</time></trkpt><trkpt lat="44.36841240708854" lon="11.047347491558691"><ele>422.0</ele><time>2026-04-28T07:37:25.881Z</time></trkpt><trkpt lat="44.36841391148251" lon="11.047174318093143"><ele>422.0</ele><time>2026-04-28T07:37:26.881Z</time></trkpt><trkpt lat="44.368416891405865" lon="11.047005495607827"><ele>422.0</ele><time>2026-04-28T07:37:27.881Z</time></trkpt><trkpt lat="44.368417582363726" lon="11.046839825983996"><ele>422.0</ele><time>2026-04-28T07:37:28.881Z</time></trkpt><trkpt lat="44.368426178574495" lon="11.046680151173092"><ele>422.0</ele><time>2026-04-28T07:37:29.881Z</time></trkpt><trkpt lat="44.36844540812849" lon="11.046521948063708"><ele>422.0</ele><time>2026-04-28T07:37:30.881Z</time></trkpt><trkpt lat="44.36846645330152" lon="11.04635980812129"><ele>422.0</ele><time>2026-04-28T07:37:31.881Z</time></trkpt><trkpt lat="44.368479088431044" lon="11.046182697654094"><ele>422.75</ele><time>2026-04-28T07:37:32.881Z</time></trkpt><trkpt lat="44.36849145516747" lon="11.046002525193595"><ele>423.5</ele><time>2026-04-28T07:37:33.881Z</time></trkpt><trkpt lat="44.36849684765323" lon="11.045837892075872"><ele>424.25</ele><time>2026-04-28T07:37:34.881Z</time></trkpt><trkpt lat="44.36848388505298" lon="11.045679641609981"><ele>425.0</ele><time>2026-04-28T07:37:35.881Z</time></trkpt><trkpt lat="44.36844316825304" lon="11.045533843039527"><ele>427.0</ele><time>2026-04-28T07:37:36.881Z</time></trkpt><trkpt lat="44.36839456241681" lon="11.045382530485703"><ele>429.0</ele><time>2026-04-28T07:37:37.881Z</time></trkpt><trkpt lat="44.368339829601084" lon="11.045230040544503"><ele>431.0</ele><time>2026-04-28T07:37:38.881Z</time></trkpt><trkpt lat="44.368278622784516" lon="11.045066482112738"><ele>433.0</ele><time>2026-04-28T07:37:39.881Z</time></trkpt><trkpt lat="44.36821319601331" lon="11.04490212483897"><ele>430.5</ele><time>2026-04-28T07:37:40.881Z</time></trkpt><trkpt lat="44.3681481241619" lon="11.044737417163946"><ele>428.0</ele><time>2026-04-28T07:37:41.881Z</time></trkpt><trkpt lat="44.36809078891033" lon="11.044593252373735"><ele>425.5</ele><time>2026-04-28T07:37:42.881Z</time></trkpt><trkpt lat="44.36803707671954" lon="11.044452211531748"><ele>423.0</ele><time>2026-04-28T07:37:43.881Z</time></trkpt><trkpt lat="44.368012337903856" lon="11.04433278696433"><ele>423.0</ele><time>2026-04-28T07:37:44.881Z</time></trkpt><trkpt lat="44.36797875955567" lon="11.044219756689886"><ele>423.0</ele><time>2026-04-28T07:37:45.881Z</time></trkpt><trkpt lat="44.36795682025261" lon="11.044124061987693"><ele>423.0</ele><time>2026-04-28T07:37:46.881Z</time></trkpt><trkpt lat="44.3679113474155" lon="11.043945593929758"><ele>423.0</ele><time>2026-04-28T07:37:48.881Z</time></trkpt><trkpt lat="44.36787545187759" lon="11.04383608594848"><ele>423.0</ele><time>2026-04-28T07:37:49.881Z</time></trkpt><trkpt lat="44.36783862165744" lon="11.043728413451369"><ele>424.0</ele><time>2026-04-28T07:37:50.881Z</time></trkpt><trkpt lat="44.36780460001812" lon="11.043634003201825"><ele>425.0</ele><time>2026-04-28T07:37:51.881Z</time></trkpt><trkpt lat="44.36776178726669" lon="11.043514242465188"><ele>425.99999999999994</ele><time>2026-04-28T07:37:52.881Z</time></trkpt><trkpt lat="44.36774239578703" lon="11.043383647794252"><ele>427.0</ele><time>2026-04-28T07:37:53.881Z</time></trkpt><trkpt lat="44.36772612506566" lon="11.04323133248129"><ele>428.0</ele><time>2026-04-28T07:37:54.881Z</time></trkpt><trkpt lat="44.36774110638677" lon="11.04309590381347"><ele>428.0</ele><time>2026-04-28T07:37:55.881Z</time></trkpt><trkpt lat="44.36777884731189" lon="11.042994240319953"><ele>427.99999999999994</ele><time>2026-04-28T07:37:56.881Z</time></trkpt><trkpt lat="44.36784258185007" lon="11.042889741082641"><ele>427.99999999999994</ele><time>2026-04-28T07:37:57.881Z</time></trkpt><trkpt lat="44.36792144324757" lon="11.042814922503025"><ele>428.0</ele><time>2026-04-28T07:37:58.881Z</time></trkpt><trkpt lat="44.36801410521549" lon="11.042744967721541"><ele>428.0</ele><time>2026-04-28T07:37:59.881Z</time></trkpt><trkpt lat="44.368115918293206" lon="11.042630016545285"><ele>433.0</ele><time>2026-04-28T07:38:00.881Z</time></trkpt><trkpt lat="44.36820169199158" lon="11.04248489656711"><ele>438.0</ele><time>2026-04-28T07:38:01.881Z</time></trkpt><trkpt lat="44.368270678468406" lon="11.042332804475238"><ele>443.0</ele><time>2026-04-28T07:38:02.881Z</time></trkpt><trkpt lat="44.36833874471323" lon="11.042193475751043"><ele>448.0</ele><time>2026-04-28T07:38:03.881Z</time></trkpt><trkpt lat="44.36840667470993" lon="11.042086827120139"><ele>448.4</ele><time>2026-04-28T07:38:04.881Z</time></trkpt><trkpt lat="44.368469041469844" lon="11.041983651514908"><ele>448.79999999999995</ele><time>2026-04-28T07:38:05.881Z</time></trkpt><trkpt lat="44.36848284291048" lon="11.041834188843355"><ele>449.2</ele><time>2026-04-28T07:38:06.881Z</time></trkpt><trkpt lat="44.368492893515786" lon="11.041682835707675"><ele>449.6</ele><time>2026-04-28T07:38:07.881Z</time></trkpt><trkpt lat="44.36850172345262" lon="11.04151406199123"><ele>450.0</ele><time>2026-04-28T07:38:08.881Z</time></trkpt><trkpt lat="44.36851179711956" lon="11.041361367696329"><ele>453.0</ele><time>2026-04-28T07:38:09.881Z</time></trkpt><trkpt lat="44.368505487458336" lon="11.041202738701926"><ele>456.0</ele><time>2026-04-28T07:38:10.88Z</time></trkpt><trkpt lat="44.368490793428734" lon="11.041035687739248"><ele>459.0</ele><time>2026-04-28T07:38:11.88Z</time></trkpt><trkpt lat="44.36844377932992" lon="11.040888102882514"><ele>462.0</ele><time>2026-04-28T07:38:12.88Z</time></trkpt><trkpt lat="44.36838187601796" lon="11.040742640640092"><ele>463.40000000000003</ele><time>2026-04-28T07:38:13.88Z</time></trkpt><trkpt lat="44.36832426272255" lon="11.040610795996455"><ele>464.80000000000007</ele><time>2026-04-28T07:38:14.88Z</time></trkpt><trkpt lat="44.36826244158627" lon="11.040501050170642"><ele>466.2</ele><time>2026-04-28T07:38:15.88Z</time></trkpt><trkpt lat="44.368227199909356" lon="11.040407241229826"><ele>467.6</ele><time>2026-04-28T07:38:16.88Z</time></trkpt><trkpt lat="44.36817693355352" lon="11.040315135670838"><ele>469.0</ele><time>2026-04-28T07:38:17.88Z</time></trkpt><trkpt lat="44.36816168449598" lon="11.040189661481923"><ele>469.0</ele><time>2026-04-28T07:38:18.88Z</time></trkpt><trkpt lat="44.36817494329833" lon="11.04006679843431"><ele>469.0</ele><time>2026-04-28T07:38:19.88Z</time></trkpt><trkpt lat="44.36820634150511" lon="11.039972337959663"><ele>469.0</ele><time>2026-04-28T07:38:20.88Z</time></trkpt><trkpt lat="44.368289664590804" lon="11.039873023393023"><ele>469.0</ele><time>2026-04-28T07:38:21.88Z</time></trkpt><trkpt lat="44.368343900020406" lon="11.039759935159356"><ele>469.0</ele><time>2026-04-28T07:38:22.88Z</time></trkpt><trkpt lat="44.36837423982036" lon="11.039642947002607"><ele>469.6</ele><time>2026-04-28T07:38:23.88Z</time></trkpt><trkpt lat="44.36836737041213" lon="11.039524710089621"><ele>470.2</ele><time>2026-04-28T07:38:24.88Z</time></trkpt><trkpt lat="44.36835235737289" lon="11.039423614166758"><ele>470.80000000000007</ele><time>2026-04-28T07:38:25.88Z</time></trkpt><trkpt lat="44.36827825690687" lon="11.039326343325309"><ele>471.40000000000003</ele><time>2026-04-28T07:38:26.88Z</time></trkpt><trkpt lat="44.36821451330472" lon="11.039249057001372"><ele>472.0</ele><time>2026-04-28T07:38:27.88Z</time></trkpt><trkpt lat="44.36812184351796" lon="11.039175513247862"><ele>472.6</ele><time>2026-04-28T07:38:28.88Z</time></trkpt><trkpt lat="44.36806058274312" lon="11.039079183832701"><ele>473.20000000000005</ele><time>2026-04-28T07:38:29.88Z</time></trkpt><trkpt lat="44.36803722602978" lon="11.03896773143654"><ele>473.8</ele><time>2026-04-28T07:38:30.88Z</time></trkpt><trkpt lat="44.368038057654545" lon="11.038815819500005"><ele>474.4</ele><time>2026-04-28T07:38:31.88Z</time></trkpt><trkpt lat="44.36800954624984" lon="11.038642876787813"><ele>475.0</ele><time>2026-04-28T07:38:32.88Z</time></trkpt><trkpt lat="44.3679777430433" lon="11.038446399743705"><ele>474.0</ele><time>2026-04-28T07:38:33.88Z</time></trkpt><trkpt lat="44.367931958152575" lon="11.038274376697473"><ele>473.0</ele><time>2026-04-28T07:38:34.88Z</time></trkpt><trkpt lat="44.36787914971668" lon="11.038104609728455"><ele>472.0</ele><time>2026-04-28T07:38:35.88Z</time></trkpt><trkpt lat="44.36783909669487" lon="11.037952661078634"><ele>471.0</ele><time>2026-04-28T07:38:36.88Z</time></trkpt><trkpt lat="44.36781162631893" lon="11.03782881108296"><ele>471.0</ele><time>2026-04-28T07:38:37.88Z</time></trkpt><trkpt lat="44.36779804764298" lon="11.037727310163344"><ele>471.0</ele><time>2026-04-28T07:38:38.88Z</time></trkpt><trkpt lat="44.36781795305796" lon="11.03760608831893"><ele>471.0</ele><time>2026-04-28T07:38:39.879Z</time></trkpt><trkpt lat="44.367878609807136" lon="11.037541252811055"><ele>471.0</ele><time>2026-04-28T07:38:40.88Z</time></trkpt><trkpt lat="44.36795712600008" lon="11.037470177123216"><ele>471.0</ele><time>2026-04-28T07:38:41.88Z</time></trkpt><trkpt lat="44.36804016245373" lon="11.037436989343982"><ele>471.0</ele><time>2026-04-28T07:38:42.879Z</time></trkpt><trkpt lat="44.36810366808536" lon="11.037392475151298"><ele>476.6</ele><time>2026-04-28T07:38:43.879Z</time></trkpt><trkpt lat="44.36814486317558" lon="11.03731716302861"><ele>482.20000000000005</ele><time>2026-04-28T07:38:44.879Z</time></trkpt><trkpt lat="44.368161092629435" lon="11.037209036385498"><ele>487.79999999999995</ele><time>2026-04-28T07:38:45.879Z</time></trkpt><trkpt lat="44.368140940372214" lon="11.037086254090314"><ele>493.4</ele><time>2026-04-28T07:38:46.879Z</time></trkpt><trkpt lat="44.368098584957316" lon="11.03694655072741"><ele>499.0</ele><time>2026-04-28T07:38:47.879Z</time></trkpt><trkpt lat="44.36805258155391" lon="11.036805499439733"><ele>498.4</ele><time>2026-04-28T07:38:48.879Z</time></trkpt><trkpt lat="44.368002182140096" lon="11.036657587417597"><ele>497.79999999999995</ele><time>2026-04-28T07:38:49.879Z</time></trkpt><trkpt lat="44.36795998713453" lon="11.036514833341215"><ele>497.20000000000005</ele><time>2026-04-28T07:38:50.879Z</time></trkpt><trkpt lat="44.36792361644315" lon="11.036380882544552"><ele>496.6</ele><time>2026-04-28T07:38:51.879Z</time></trkpt><trkpt lat="44.36788609760094" lon="11.036261494404034"><ele>496.0</ele><time>2026-04-28T07:38:52.879Z</time></trkpt><trkpt lat="44.36785460626896" lon="11.036133780831095"><ele>496.00000000000006</ele><time>2026-04-28T07:38:53.879Z</time></trkpt><trkpt lat="44.36782821377037" lon="11.036013958235689"><ele>496.0</ele><time>2026-04-28T07:38:54.879Z</time></trkpt><trkpt lat="44.36780389119603" lon="11.035914071261395"><ele>496.0</ele><time>2026-04-28T07:38:55.879Z</time></trkpt><trkpt lat="44.36778148206297" lon="11.035830304912848"><ele>496.0</ele><time>2026-04-28T07:38:56.879Z</time></trkpt><trkpt lat="44.36777089691623" lon="11.035667134203385"><ele>496.00000000000006</ele><time>2026-04-28T07:38:58.879Z</time></trkpt><trkpt lat="44.36780000903778" lon="11.035587286034882"><ele>496.0</ele><time>2026-04-28T07:38:59.879Z</time></trkpt><trkpt lat="44.36793918038375" lon="11.03553426998083"><ele>500.6</ele><time>2026-04-28T07:39:01.879Z</time></trkpt><trkpt lat="44.368029299848345" lon="11.035530162354368"><ele>505.20000000000005</ele><time>2026-04-28T07:39:02.879Z</time></trkpt><trkpt lat="44.368124489165105" lon="11.035517217449895"><ele>509.79999999999995</ele><time>2026-04-28T07:39:03.879Z</time></trkpt><trkpt lat="44.368221334033265" lon="11.035507510098332"><ele>514.4</ele><time>2026-04-28T07:39:04.879Z</time></trkpt><trkpt lat="44.36832745655154" lon="11.035511604963453"><ele>519.0</ele><time>2026-04-28T07:39:05.879Z</time></trkpt><trkpt lat="44.36843034915562" lon="11.035507970478456"><ele>519.0</ele><time>2026-04-28T07:39:06.879Z</time></trkpt><trkpt lat="44.368537955413665" lon="11.035506651753591"><ele>519.0</ele><time>2026-04-28T07:39:07.879Z</time></trkpt><trkpt lat="44.368642018208455" lon="11.035499558252178"><ele>519.0</ele><time>2026-04-28T07:39:08.879Z</time></trkpt><trkpt lat="44.36872815039615" lon="11.035458817668887"><ele>519.0</ele><time>2026-04-28T07:39:09.879Z</time></trkpt><trkpt lat="44.36880034920428" lon="11.035467718237799"><ele>519.0</ele><time>2026-04-28T07:39:10.879Z</time></trkpt><trkpt lat="44.36891375525192" lon="11.035471828506392"><ele>522.0</ele><time>2026-04-28T07:39:12.879Z</time></trkpt><trkpt lat="44.36898542797847" lon="11.03545753451159"><ele>525.0</ele><time>2026-04-28T07:39:13.879Z</time></trkpt><trkpt lat="44.36907672464535" lon="11.035483774838218"><ele>528.0</ele><time>2026-04-28T07:39:14.878Z</time></trkpt><trkpt lat="44.36915759536579" lon="11.035548490583936"><ele>531.0</ele><time>2026-04-28T07:39:15.878Z</time></trkpt><trkpt lat="44.369207609892875" lon="11.035614214764912"><ele>534.0</ele><time>2026-04-28T07:39:16.878Z</time></trkpt><trkpt lat="44.369311002919744" lon="11.03565472447164"><ele>537.0</ele><time>2026-04-28T07:39:18.878Z</time></trkpt><trkpt lat="44.3694266062097" lon="11.035573269143963"><ele>537.0</ele><time>2026-04-28T07:39:20.878Z</time></trkpt><trkpt lat="44.36942074386015" lon="11.035423628124358"><ele>537.0</ele><time>2026-04-28T07:39:21.878Z</time></trkpt><trkpt lat="44.36939404179179" lon="11.035288824516181"><ele>537.0</ele><time>2026-04-28T07:39:22.878Z</time></trkpt><trkpt lat="44.36936594336156" lon="11.035145740511265"><ele>537.0</ele><time>2026-04-28T07:39:23.878Z</time></trkpt><trkpt lat="44.36933773464371" lon="11.035002094982886"><ele>537.0</ele><time>2026-04-28T07:39:24.878Z</time></trkpt><trkpt lat="44.36931032706067" lon="11.034875134350116"><ele>538.8333333333334</ele><time>2026-04-28T07:39:25.878Z</time></trkpt><trkpt lat="44.3692616583961" lon="11.034778226345185"><ele>540.6666666666666</ele><time>2026-04-28T07:39:26.878Z</time></trkpt><trkpt lat="44.36922427681008" lon="11.034651932155391"><ele>542.5</ele><time>2026-04-28T07:39:28.878Z</time></trkpt><trkpt lat="44.36920519011533" lon="11.034542350712949"><ele>544.3333333333333</ele><time>2026-04-28T07:39:32.878Z</time></trkpt><trkpt lat="44.36927537812553" lon="11.034471370013815"><ele>546.1666666666666</ele><time>2026-04-28T07:39:34.878Z</time></trkpt><trkpt lat="44.369345293640514" lon="11.034485421234592"><ele>548.0</ele><time>2026-04-28T07:39:35.878Z</time></trkpt><trkpt lat="44.36941517706106" lon="11.034514508524394"><ele>548.0</ele><time>2026-04-28T07:39:36.878Z</time></trkpt><trkpt lat="44.36949000303161" lon="11.034550126781477"><ele>548.0</ele><time>2026-04-28T07:39:37.878Z</time></trkpt><trkpt lat="44.36957746471553" lon="11.034574257856137"><ele>548.0</ele><time>2026-04-28T07:39:38.878Z</time></trkpt><trkpt lat="44.36966430556112" lon="11.034614826235773"><ele>548.0</ele><time>2026-04-28T07:39:39.878Z</time></trkpt><trkpt lat="44.36975923262237" lon="11.034655115366572"><ele>548.0</ele><time>2026-04-28T07:39:40.878Z</time></trkpt><trkpt lat="44.369856688246415" lon="11.034682860473112"><ele>552.6</ele><time>2026-04-28T07:39:41.878Z</time></trkpt><trkpt lat="44.36994626959739" lon="11.03470952374267"><ele>557.1999999999999</ele><time>2026-04-28T07:39:42.878Z</time></trkpt><trkpt lat="44.37004070115269" lon="11.034750307984044"><ele>561.8</ele><time>2026-04-28T07:39:43.878Z</time></trkpt><trkpt lat="44.37013437216106" lon="11.034804899302086"><ele>566.4</ele><time>2026-04-28T07:39:44.878Z</time></trkpt><trkpt lat="44.370224086239666" lon="11.034878032788328"><ele>571.0</ele><time>2026-04-28T07:39:45.878Z</time></trkpt><trkpt lat="44.37029635275013" lon="11.03497044420028"><ele>572.8</ele><time>2026-04-28T07:39:46.878Z</time></trkpt><trkpt lat="44.37035085138927" lon="11.035077470556192"><ele>574.6</ele><time>2026-04-28T07:39:47.878Z</time></trkpt><trkpt lat="44.370408593810254" lon="11.03517880809696"><ele>576.4</ele><time>2026-04-28T07:39:48.878Z</time></trkpt><trkpt lat="44.37047587306006" lon="11.035285560867147"><ele>578.2</ele><time>2026-04-28T07:39:49.878Z</time></trkpt><trkpt lat="44.370539120020986" lon="11.03538325155137"><ele>580.0</ele><time>2026-04-28T07:39:50.878Z</time></trkpt><trkpt lat="44.37058931561469" lon="11.035479939780434"><ele>580.0</ele><time>2026-04-28T07:39:51.878Z</time></trkpt><trkpt lat="44.370635822383534" lon="11.035565704970224"><ele>580.0</ele><time>2026-04-28T07:39:52.878Z</time></trkpt><trkpt lat="44.37068764759976" lon="11.035642315560274"><ele>580.0</ele><time>2026-04-28T07:39:53.878Z</time></trkpt><trkpt lat="44.370740472875" lon="11.035711466448761"><ele>580.0</ele><time>2026-04-28T07:39:54.878Z</time></trkpt><trkpt lat="44.37079854002517" lon="11.03578230763397"><ele>580.0</ele><time>2026-04-28T07:39:55.878Z</time></trkpt><trkpt lat="44.37085950784276" lon="11.035851821848828"><ele>580.0</ele><time>2026-04-28T07:39:56.878Z</time></trkpt><trkpt lat="44.37092828331506" lon="11.035893291803314"><ele>579.1666666666667</ele><time>2026-04-28T07:39:57.878Z</time></trkpt><trkpt lat="44.371006047520844" lon="11.03592222948552"><ele>578.3333333333334</ele><time>2026-04-28T07:39:58.878Z</time></trkpt><trkpt lat="44.37108266551359" lon="11.035953175472002"><ele>577.5</ele><time>2026-04-28T07:39:59.877Z</time></trkpt><trkpt lat="44.37115048945877" lon="11.03599784359307"><ele>576.6666666666666</ele><time>2026-04-28T07:40:00.877Z</time></trkpt><trkpt lat="44.37120991352917" lon="11.0360378909863"><ele>575.8333333333333</ele><time>2026-04-28T07:40:01.877Z</time></trkpt><trkpt lat="44.37128508706566" lon="11.036082595079566"><ele>575.0</ele><time>2026-04-28T07:40:02.877Z</time></trkpt><trkpt lat="44.37135239192048" lon="11.03611797737276"><ele>578.0</ele><time>2026-04-28T07:40:03.877Z</time></trkpt><trkpt lat="44.37144354964559" lon="11.03613248118845"><ele>581.0</ele><time>2026-04-28T07:40:05.877Z</time></trkpt><trkpt lat="44.371517087296056" lon="11.0359829478128"><ele>584.0</ele><time>2026-04-28T07:40:07.877Z</time></trkpt><trkpt lat="44.371485178292325" lon="11.035868614945525"><ele>587.0</ele><time>2026-04-28T07:40:08.877Z</time></trkpt><trkpt lat="44.37144399324622" lon="11.035765254192423"><ele>590.0</ele><time>2026-04-28T07:40:09.877Z</time></trkpt><trkpt lat="44.371411005371" lon="11.035668010727296"><ele>593.2</ele><time>2026-04-28T07:40:10.877Z</time></trkpt><trkpt lat="44.37138671271119" lon="11.035542626259454"><ele>596.4</ele><time>2026-04-28T07:40:11.877Z</time></trkpt><trkpt lat="44.371384686519775" lon="11.035429176776217"><ele>599.6</ele><time>2026-04-28T07:40:12.877Z</time></trkpt><trkpt lat="44.37138352153236" lon="11.035301028464009"><ele>602.8</ele><time>2026-04-28T07:40:13.877Z</time></trkpt><trkpt lat="44.37138000101165" lon="11.035169810044069"><ele>606.0</ele><time>2026-04-28T07:40:14.877Z</time></trkpt><trkpt lat="44.37137183745027" lon="11.035033216294993"><ele>608.2</ele><time>2026-04-28T07:40:15.877Z</time></trkpt><trkpt lat="44.37136143256428" lon="11.034908078878052"><ele>610.4000000000001</ele><time>2026-04-28T07:40:16.877Z</time></trkpt><trkpt lat="44.371333808029156" lon="11.034762216168923"><ele>612.6</ele><time>2026-04-28T07:40:17.877Z</time></trkpt><trkpt lat="44.37130261105265" lon="11.034634452913487"><ele>614.8000000000001</ele><time>2026-04-28T07:40:18.877Z</time></trkpt><trkpt lat="44.371274602906674" lon="11.034524268197133"><ele>617.0</ele><time>2026-04-28T07:40:19.877Z</time></trkpt><trkpt lat="44.371251205955055" lon="11.034407623264604"><ele>616.0</ele><time>2026-04-28T07:40:20.877Z</time></trkpt><trkpt lat="44.371223363991135" lon="11.03429043041179"><ele>615.0</ele><time>2026-04-28T07:40:21.877Z</time></trkpt><trkpt lat="44.3712264271248" lon="11.034157543630009"><ele>614.0</ele><time>2026-04-28T07:40:22.877Z</time></trkpt><trkpt lat="44.371220382384756" lon="11.03402658574687"><ele>613.0</ele><time>2026-04-28T07:40:23.877Z</time></trkpt><trkpt lat="44.37119260168819" lon="11.033897396993597"><ele>612.0</ele><time>2026-04-28T07:40:24.877Z</time></trkpt><trkpt lat="44.37114234644404" lon="11.033820064328843"><ele>611.0</ele><time>2026-04-28T07:40:25.877Z</time></trkpt><trkpt lat="44.37110323490771" lon="11.033745664024549"><ele>611.0</ele><time>2026-04-28T07:40:26.877Z</time></trkpt><trkpt lat="44.3710529906218" lon="11.033633445418007"><ele>611.0</ele><time>2026-04-28T07:40:27.877Z</time></trkpt><trkpt lat="44.37098282883325" lon="11.033548047745962"><ele>611.0</ele><time>2026-04-28T07:40:28.877Z</time></trkpt><trkpt lat="44.370913905440624" lon="11.033488066855453"><ele>611.0</ele><time>2026-04-28T07:40:29.877Z</time></trkpt><trkpt lat="44.37083750769616" lon="11.0334286265477"><ele>611.0</ele><time>2026-04-28T07:40:30.877Z</time></trkpt><trkpt lat="44.370767433101065" lon="11.033375141869397"><ele>611.0</ele><time>2026-04-28T07:40:31.877Z</time></trkpt><trkpt lat="44.37070422336349" lon="11.033328218132004"><ele>613.4</ele><time>2026-04-28T07:40:32.877Z</time></trkpt><trkpt lat="44.37063475774615" lon="11.033247857470249"><ele>615.8</ele><time>2026-04-28T07:40:34.877Z</time></trkpt><trkpt lat="44.37059063282685" lon="11.033142246627467"><ele>618.1999999999999</ele><time>2026-04-28T07:40:36.877Z</time></trkpt><trkpt lat="44.37066417202711" lon="11.033024950243549"><ele>620.6</ele><time>2026-04-28T07:40:38.877Z</time></trkpt><trkpt lat="44.37074608154376" lon="11.033045287274351"><ele>623.0</ele><time>2026-04-28T07:40:39.877Z</time></trkpt><trkpt lat="44.3708326381873" lon="11.03307512508474"><ele>623.0</ele><time>2026-04-28T07:40:40.877Z</time></trkpt><trkpt lat="44.37091877728103" lon="11.033103757558198"><ele>623.0</ele><time>2026-04-28T07:40:41.877Z</time></trkpt><trkpt lat="44.3709870574368" lon="11.033125078464685"><ele>623.0</ele><time>2026-04-28T07:40:42.876Z</time></trkpt><trkpt lat="44.371080657790635" lon="11.033123138391664"><ele>623.0</ele><time>2026-04-28T07:40:44.876Z</time></trkpt><trkpt lat="44.37115527782359" lon="11.033032700384757"><ele>623.0</ele><time>2026-04-28T07:40:46.876Z</time></trkpt><trkpt lat="44.371149934135225" lon="11.03288371037907"><ele>623.0</ele><time>2026-04-28T07:40:47.876Z</time></trkpt><trkpt lat="44.37111001006303" lon="11.032777305049484"><ele>623.0</ele><time>2026-04-28T07:40:48.875Z</time></trkpt><trkpt lat="44.371064828254866" lon="11.032655774473612"><ele>623.0</ele><time>2026-04-28T07:40:49.876Z</time></trkpt><trkpt lat="44.371037088309464" lon="11.032540914945853"><ele>623.0</ele><time>2026-04-28T07:40:50.876Z</time></trkpt><trkpt lat="44.371046708896294" lon="11.032428780998387"><ele>623.0</ele><time>2026-04-28T07:40:51.876Z</time></trkpt><trkpt lat="44.37108430294689" lon="11.03231567311358"><ele>623.0</ele><time>2026-04-28T07:40:52.876Z</time></trkpt><trkpt lat="44.37113542750561" lon="11.03219817946899"><ele>624.5</ele><time>2026-04-28T07:40:53.876Z</time></trkpt><trkpt lat="44.37118196678272" lon="11.032085991106925"><ele>626.0</ele><time>2026-04-28T07:40:54.876Z</time></trkpt><trkpt lat="44.3712204506514" lon="11.032001046045401"><ele>627.5</ele><time>2026-04-28T07:40:55.876Z</time></trkpt><trkpt lat="44.37129350288254" lon="11.031869459338347"><ele>629.0</ele><time>2026-04-28T07:40:57.876Z</time></trkpt><trkpt lat="44.37135568978609" lon="11.031895868966792"><ele>630.5</ele><time>2026-04-28T07:40:58.876Z</time></trkpt><trkpt lat="44.37142675539529" lon="11.031966281984104"><ele>632.0</ele><time>2026-04-28T07:40:59.876Z</time></trkpt><trkpt lat="44.3714669954536" lon="11.032079086570963"><ele>633.0</ele><time>2026-04-28T07:41:00.876Z</time></trkpt><trkpt lat="44.371536590589784" lon="11.03215921242484"><ele>634.0</ele><time>2026-04-28T07:41:01.876Z</time></trkpt><trkpt lat="44.37159435641261" lon="11.032267222513202"><ele>635.0</ele><time>2026-04-28T07:41:02.876Z</time></trkpt><trkpt lat="44.37165866279922" lon="11.03238433276327"><ele>636.0</ele><time>2026-04-28T07:41:03.876Z</time></trkpt><trkpt lat="44.37171970326571" lon="11.032512994213812"><ele>637.0</ele><time>2026-04-28T07:41:04.876Z</time></trkpt><trkpt lat="44.3717583765858" lon="11.032651903023698"><ele>637.0</ele><time>2026-04-28T07:41:05.875Z</time></trkpt><trkpt lat="44.37179496222215" lon="11.03278181692649"><ele>637.0</ele><time>2026-04-28T07:41:06.875Z</time></trkpt><trkpt lat="44.3718402357434" lon="11.032912299537578"><ele>637.0</ele><time>2026-04-28T07:41:07.875Z</time></trkpt><trkpt lat="44.37189826427503" lon="11.033033946167027"><ele>637.0</ele><time>2026-04-28T07:41:08.875Z</time></trkpt><trkpt lat="44.37196053925542" lon="11.033138587010747"><ele>637.0</ele><time>2026-04-28T07:41:09.875Z</time></trkpt><trkpt lat="44.372027043060406" lon="11.033223359339246"><ele>638.6</ele><time>2026-04-28T07:41:10.875Z</time></trkpt><trkpt lat="44.372104351713" lon="11.033312159916653"><ele>640.2</ele><time>2026-04-28T07:41:11.875Z</time></trkpt><trkpt lat="44.37218583445702" lon="11.033392806103311"><ele>641.8</ele><time>2026-04-28T07:41:12.875Z</time></trkpt><trkpt lat="44.37226673570565" lon="11.033480223084952"><ele>643.4</ele><time>2026-04-28T07:41:13.875Z</time></trkpt><trkpt lat="44.372345498654504" lon="11.033570347019715"><ele>645.0</ele><time>2026-04-28T07:41:14.875Z</time></trkpt><trkpt lat="44.372419453055215" lon="11.033656408197169"><ele>645.0</ele><time>2026-04-28T07:41:15.875Z</time></trkpt><trkpt lat="44.372498170454215" lon="11.033744899870428"><ele>645.0</ele><time>2026-04-28T07:41:16.875Z</time></trkpt><trkpt lat="44.37258029824303" lon="11.033827543996443"><ele>645.0</ele><time>2026-04-28T07:41:17.875Z</time></trkpt><trkpt lat="44.37267208580923" lon="11.033907277784847"><ele>645.0</ele><time>2026-04-28T07:41:18.875Z</time></trkpt><trkpt lat="44.37276627163633" lon="11.033983418556394"><ele>645.0</ele><time>2026-04-28T07:41:19.875Z</time></trkpt><trkpt lat="44.37286840561944" lon="11.034055787555163"><ele>645.0</ele><time>2026-04-28T07:41:20.875Z</time></trkpt><trkpt lat="44.37297743800172" lon="11.034113155514486"><ele>645.0</ele><time>2026-04-28T07:41:21.875Z</time></trkpt><trkpt lat="44.37308832158594" lon="11.034184292870803"><ele>645.0</ele><time>2026-04-28T07:41:22.875Z</time></trkpt><trkpt lat="44.37321224146296" lon="11.034250548804804"><ele>645.0</ele><time>2026-04-28T07:41:23.875Z</time></trkpt><trkpt lat="44.37335546923774" lon="11.03432032323991"><ele>644.0</ele><time>2026-04-28T07:41:24.875Z</time></trkpt><trkpt lat="44.37351956612547" lon="11.034373429082816"><ele>643.0</ele><time>2026-04-28T07:41:25.875Z</time></trkpt><trkpt lat="44.3736740490774" lon="11.034427688390613"><ele>642.0</ele><time>2026-04-28T07:41:26.875Z</time></trkpt><trkpt lat="44.37381104781048" lon="11.034485606592114"><ele>644.2</ele><time>2026-04-28T07:41:27.875Z</time></trkpt><trkpt lat="44.37392309605515" lon="11.034571355485289"><ele>646.4000000000001</ele><time>2026-04-28T07:41:28.875Z</time></trkpt><trkpt lat="44.37402268569412" lon="11.034597147694374"><ele>648.5999999999999</ele><time>2026-04-28T07:41:29.875Z</time></trkpt><trkpt lat="44.37410533972374" lon="11.034639241358965"><ele>650.8</ele><time>2026-04-28T07:41:30.875Z</time></trkpt><trkpt lat="44.37418456586151" lon="11.03467275974244"><ele>653.0</ele><time>2026-04-28T07:41:31.875Z</time></trkpt><trkpt lat="44.37426067581116" lon="11.034739520572659"><ele>653.0</ele><time>2026-04-28T07:41:32.875Z</time></trkpt><trkpt lat="44.374306683089586" lon="11.034856735592935"><ele>653.0</ele><time>2026-04-28T07:41:33.875Z</time></trkpt><trkpt lat="44.37438022298882" lon="11.03494091554037"><ele>653.0</ele><time>2026-04-28T07:41:34.875Z</time></trkpt><trkpt lat="44.37445374932041" lon="11.035033912755537"><ele>653.0</ele><time>2026-04-28T07:41:35.875Z</time></trkpt><trkpt lat="44.374536548779844" lon="11.035086868742239"><ele>653.0</ele><time>2026-04-28T07:41:36.875Z</time></trkpt><trkpt lat="44.374640786655924" lon="11.035131948784036"><ele>653.0</ele><time>2026-04-28T07:41:37.875Z</time></trkpt><trkpt lat="44.37475652594787" lon="11.035166322718004"><ele>653.0</ele><time>2026-04-28T07:41:38.875Z</time></trkpt><trkpt lat="44.374879187788764" lon="11.035204874477769"><ele>653.0</ele><time>2026-04-28T07:41:39.875Z</time></trkpt><trkpt lat="44.37501305021539" lon="11.035250802209006"><ele>653.0</ele><time>2026-04-28T07:41:40.875Z</time></trkpt><trkpt lat="44.37515100522378" lon="11.035304612696386"><ele>653.0</ele><time>2026-04-28T07:41:41.875Z</time></trkpt><trkpt lat="44.3752874603231" lon="11.035350327804336"><ele>653.0</ele><time>2026-04-28T07:41:42.875Z</time></trkpt><trkpt lat="44.37541836223769" lon="11.035414786330701"><ele>653.0</ele><time>2026-04-28T07:41:43.875Z</time></trkpt><trkpt lat="44.37554536271878" lon="11.03549956982437"><ele>653.0</ele><time>2026-04-28T07:41:44.875Z</time></trkpt><trkpt lat="44.37566696744884" lon="11.035598496694435"><ele>652.25</ele><time>2026-04-28T07:41:45.875Z</time></trkpt><trkpt lat="44.37578796539606" lon="11.03569866473452"><ele>651.5</ele><time>2026-04-28T07:41:46.875Z</time></trkpt><trkpt lat="44.375892544913505" lon="11.035791250100457"><ele>650.75</ele><time>2026-04-28T07:41:47.875Z</time></trkpt><trkpt lat="44.375997525975" lon="11.035885152712074"><ele>650.0</ele><time>2026-04-28T07:41:48.875Z</time></trkpt><trkpt lat="44.376086585923915" lon="11.035959895960934"><ele>650.0</ele><time>2026-04-28T07:41:49.875Z</time></trkpt><trkpt lat="44.3761582310092" lon="11.036016115051115"><ele>650.0</ele><time>2026-04-28T07:41:50.874Z</time></trkpt><trkpt lat="44.37622217820825" lon="11.036075436680456"><ele>650.0</ele><time>2026-04-28T07:41:51.874Z</time></trkpt><trkpt lat="44.37631872218978" lon="11.036130892436114"><ele>650.0</ele><time>2026-04-28T07:41:53.874Z</time></trkpt><trkpt lat="44.37643010641463" lon="11.03605045325619"><ele>650.0</ele><time>2026-04-28T07:41:55.874Z</time></trkpt><trkpt lat="44.3764663331249" lon="11.035939762020492"><ele>649.0</ele><time>2026-04-28T07:41:56.874Z</time></trkpt><trkpt lat="44.37653298931399" lon="11.035855236190399"><ele>648.0</ele><time>2026-04-28T07:41:57.874Z</time></trkpt><trkpt lat="44.37658365500582" lon="11.035746335893942"><ele>647.0</ele><time>2026-04-28T07:41:58.874Z</time></trkpt><trkpt lat="44.37664522701302" lon="11.035654601702541"><ele>646.0</ele><time>2026-04-28T07:41:59.874Z</time></trkpt><trkpt lat="44.37670933516852" lon="11.035565997531192"><ele>645.0</ele><time>2026-04-28T07:42:00.874Z</time></trkpt><trkpt lat="44.37675821946218" lon="11.03550104102641"><ele>644.0</ele><time>2026-04-28T07:42:01.874Z</time></trkpt><trkpt lat="44.37681450033312" lon="11.03538051987911"><ele>643.8000000000001</ele><time>2026-04-28T07:42:03.874Z</time></trkpt><trkpt lat="44.376799942270885" lon="11.035259149218192"><ele>643.6</ele><time>2026-04-28T07:42:04.874Z</time></trkpt><trkpt lat="44.37671385737242" lon="11.035189756303437"><ele>643.4</ele><time>2026-04-28T07:42:05.874Z</time></trkpt><trkpt lat="44.37664389837156" lon="11.035156329364122"><ele>643.2</ele><time>2026-04-28T07:42:06.874Z</time></trkpt><trkpt lat="44.37656861622925" lon="11.035053664934436"><ele>643.0</ele><time>2026-04-28T07:42:08.874Z</time></trkpt><trkpt lat="44.37655885387555" lon="11.034929223395203"><ele>643.4</ele><time>2026-04-28T07:42:09.874Z</time></trkpt><trkpt lat="44.37648706100403" lon="11.034797931713463"><ele>643.8</ele><time>2026-04-28T07:42:10.874Z</time></trkpt><trkpt lat="44.376466763178996" lon="11.034650999515742"><ele>644.2</ele><time>2026-04-28T07:42:11.874Z</time></trkpt><trkpt lat="44.37644871414368" lon="11.034509160448476"><ele>644.6</ele><time>2026-04-28T07:42:12.874Z</time></trkpt><trkpt lat="44.376439346090464" lon="11.034350294017774"><ele>645.0</ele><time>2026-04-28T07:42:13.874Z</time></trkpt><trkpt lat="44.37644681079341" lon="11.034203435695984"><ele>645.1666666666666</ele><time>2026-04-28T07:42:14.874Z</time></trkpt><trkpt lat="44.376462536255225" lon="11.034085944285009"><ele>645.3333333333334</ele><time>2026-04-28T07:42:15.874Z</time></trkpt><trkpt lat="44.37644426841307" lon="11.033968888850739"><ele>645.5</ele><time>2026-04-28T07:42:16.874Z</time></trkpt><trkpt lat="44.37642568197421" lon="11.033848292551696"><ele>645.6666666666667</ele><time>2026-04-28T07:42:17.874Z</time></trkpt><trkpt lat="44.37636441960502" lon="11.03373148888672"><ele>645.8333333333334</ele><time>2026-04-28T07:42:18.874Z</time></trkpt><trkpt lat="44.37631697669495" lon="11.033631031506557"><ele>646.0</ele><time>2026-04-28T07:42:19.874Z</time></trkpt><trkpt lat="44.37630851587304" lon="11.033509322225068"><ele>645.1999999999999</ele><time>2026-04-28T07:42:20.874Z</time></trkpt><trkpt lat="44.37632190033979" lon="11.03336981638363"><ele>644.4</ele><time>2026-04-28T07:42:21.874Z</time></trkpt><trkpt lat="44.37634916400795" lon="11.033239918643838"><ele>643.6</ele><time>2026-04-28T07:42:22.874Z</time></trkpt><trkpt lat="44.37636598580025" lon="11.033092202869378"><ele>642.8</ele><time>2026-04-28T07:42:23.874Z</time></trkpt><trkpt lat="44.37636329158033" lon="11.032943626565974"><ele>642.0</ele><time>2026-04-28T07:42:24.874Z</time></trkpt><trkpt lat="44.376326318822635" lon="11.03280376260467"><ele>643.8</ele><time>2026-04-28T07:42:25.874Z</time></trkpt><trkpt lat="44.37627603067758" lon="11.03266925106046"><ele>645.6</ele><time>2026-04-28T07:42:26.874Z</time></trkpt><trkpt lat="44.37621022872834" lon="11.032549716069061"><ele>647.4</ele><time>2026-04-28T07:42:27.874Z</time></trkpt><trkpt lat="44.376141470683606" lon="11.032442728313745"><ele>649.1999999999999</ele><time>2026-04-28T07:42:28.874Z</time></trkpt><trkpt lat="44.376068377553835" lon="11.032362154141195"><ele>651.0</ele><time>2026-04-28T07:42:29.874Z</time></trkpt><trkpt lat="44.37599413926719" lon="11.03228007482774"><ele>651.0</ele><time>2026-04-28T07:42:30.874Z</time></trkpt><trkpt lat="44.3759014707596" lon="11.032273834172104"><ele>651.0</ele><time>2026-04-28T07:42:31.874Z</time></trkpt><trkpt lat="44.37581049253731" lon="11.032246124474483"><ele>651.0</ele><time>2026-04-28T07:42:32.874Z</time></trkpt><trkpt lat="44.37571819374739" lon="11.03221906936249"><ele>651.0</ele><time>2026-04-28T07:42:33.874Z</time></trkpt><trkpt lat="44.375636107016675" lon="11.03219175717566"><ele>651.0</ele><time>2026-04-28T07:42:34.873Z</time></trkpt><trkpt lat="44.375561495407474" lon="11.032154880231289"><ele>651.0</ele><time>2026-04-28T07:42:35.873Z</time></trkpt><trkpt lat="44.375497166731755" lon="11.032112225813048"><ele>653.3333333333334</ele><time>2026-04-28T07:42:36.873Z</time></trkpt><trkpt lat="44.375416620561566" lon="11.032043020298644"><ele>655.6666666666666</ele><time>2026-04-28T07:42:37.873Z</time></trkpt><trkpt lat="44.3753418673713" lon="11.03197432840389"><ele>658.0</ele><time>2026-04-28T07:42:38.873Z</time></trkpt><trkpt lat="44.37530101390712" lon="11.031863651622887"><ele>660.3333333333333</ele><time>2026-04-28T07:42:39.873Z</time></trkpt><trkpt lat="44.37528102699947" lon="11.031765955064499"><ele>662.6666666666666</ele><time>2026-04-28T07:42:40.873Z</time></trkpt><trkpt lat="44.375257974810154" lon="11.03167788145742"><ele>665.0</ele><time>2026-04-28T07:42:41.873Z</time></trkpt><trkpt lat="44.375298397653054" lon="11.031578849033039"><ele>665.0</ele><time>2026-04-28T07:42:42.873Z</time></trkpt><trkpt lat="44.37533709139146" lon="11.031505441557462"><ele>665.0</ele><time>2026-04-28T07:42:43.873Z</time></trkpt><trkpt lat="44.37533486620474" lon="11.03135374845908"><ele>665.0</ele><time>2026-04-28T07:42:45.873Z</time></trkpt><trkpt lat="44.37528770123778" lon="11.031276361517186"><ele>665.0</ele><time>2026-04-28T07:42:46.873Z</time></trkpt><trkpt lat="44.37521577031621" lon="11.031178153380063"><ele>665.0</ele><time>2026-04-28T07:42:47.873Z</time></trkpt><trkpt lat="44.375103776077566" lon="11.031148913902959"><ele>665.0</ele><time>2026-04-28T07:42:48.872Z</time></trkpt><trkpt lat="44.37502011840156" lon="11.031131847471114"><ele>665.0</ele><time>2026-04-28T07:42:49.872Z</time></trkpt><trkpt lat="44.37494212123044" lon="11.03110738767632"><ele>665.0</ele><time>2026-04-28T07:42:50.872Z</time></trkpt><trkpt lat="44.374856797316255" lon="11.031032713414834"><ele>665.0</ele><time>2026-04-28T07:42:51.872Z</time></trkpt><trkpt lat="44.37480636353411" lon="11.030900466653547"><ele>665.0</ele><time>2026-04-28T07:42:52.872Z</time></trkpt><trkpt lat="44.374780214906735" lon="11.030762875944966"><ele>664.25</ele><time>2026-04-28T07:42:53.872Z</time></trkpt><trkpt lat="44.37476189125951" lon="11.03060095052178"><ele>663.5</ele><time>2026-04-28T07:42:54.872Z</time></trkpt><trkpt lat="44.37476329658775" lon="11.030448130336307"><ele>662.75</ele><time>2026-04-28T07:42:55.872Z</time></trkpt><trkpt lat="44.37475922883295" lon="11.030290693532228"><ele>662.0</ele><time>2026-04-28T07:42:56.872Z</time></trkpt><trkpt lat="44.37476201106557" lon="11.030122589437614"><ele>662.0</ele><time>2026-04-28T07:42:57.872Z</time></trkpt><trkpt lat="44.37475322613079" lon="11.029981535820646"><ele>662.0</ele><time>2026-04-28T07:42:58.871Z</time></trkpt><trkpt lat="44.37473841923725" lon="11.029835266510304"><ele>662.0</ele><time>2026-04-28T07:42:59.871Z</time></trkpt><trkpt lat="44.374719937560414" lon="11.029701945851313"><ele>662.0</ele><time>2026-04-28T07:43:00.872Z</time></trkpt><trkpt lat="44.3747267465657" lon="11.02956422090754"><ele>662.0</ele><time>2026-04-28T07:43:01.872Z</time></trkpt><trkpt lat="44.374720977870226" lon="11.029419123750904"><ele>663.0</ele><time>2026-04-28T07:43:02.872Z</time></trkpt><trkpt lat="44.37472107053745" lon="11.029284196357398"><ele>664.0</ele><time>2026-04-28T07:43:03.872Z</time></trkpt><trkpt lat="44.374744214298076" lon="11.029147651960276"><ele>665.0</ele><time>2026-04-28T07:43:04.872Z</time></trkpt><trkpt lat="44.37476384400696" lon="11.029029113133536"><ele>666.0</ele><time>2026-04-28T07:43:05.872Z</time></trkpt><trkpt lat="44.37478593269788" lon="11.028905447592228"><ele>667.0</ele><time>2026-04-28T07:43:06.872Z</time></trkpt><trkpt lat="44.37481722877884" lon="11.028784391695657"><ele>668.1666666666667</ele><time>2026-04-28T07:43:07.872Z</time></trkpt><trkpt lat="44.37484290808968" lon="11.028687236080412"><ele>669.3333333333334</ele><time>2026-04-28T07:43:08.872Z</time></trkpt><trkpt lat="44.37486331495318" lon="11.028596619020954"><ele>670.5</ele><time>2026-04-28T07:43:09.872Z</time></trkpt><trkpt lat="44.374890779972084" lon="11.028490874631581"><ele>671.6666666666666</ele><time>2026-04-28T07:43:10.872Z</time></trkpt><trkpt lat="44.37493432025771" lon="11.028376629812579"><ele>672.8333333333333</ele><time>2026-04-28T07:43:11.872Z</time></trkpt><trkpt lat="44.374988161476935" lon="11.02825628507243"><ele>674.0</ele><time>2026-04-28T07:43:12.872Z</time></trkpt><trkpt lat="44.37504006004581" lon="11.028147597065402"><ele>676.0</ele><time>2026-04-28T07:43:13.872Z</time></trkpt><trkpt lat="44.375104324368984" lon="11.028042290740295"><ele>678.0</ele><time>2026-04-28T07:43:14.872Z</time></trkpt><trkpt lat="44.37516932406966" lon="11.02791960115737"><ele>680.0</ele><time>2026-04-28T07:43:15.872Z</time></trkpt><trkpt lat="44.375233103273565" lon="11.027786988910977"><ele>682.0</ele><time>2026-04-28T07:43:16.872Z</time></trkpt><trkpt lat="44.37529104928877" lon="11.027631847746513"><ele>684.0</ele><time>2026-04-28T07:43:17.872Z</time></trkpt><trkpt lat="44.37534849858191" lon="11.027474425191711"><ele>686.0</ele><time>2026-04-28T07:43:18.872Z</time></trkpt><trkpt lat="44.37540081027307" lon="11.02730636358519"><ele>688.0</ele><time>2026-04-28T07:43:19.872Z</time></trkpt><trkpt lat="44.37544616092101" lon="11.027141084955504"><ele>690.0</ele><time>2026-04-28T07:43:20.872Z</time></trkpt><trkpt lat="44.37548848337363" lon="11.026983265271307"><ele>692.0</ele><time>2026-04-28T07:43:21.872Z</time></trkpt><trkpt lat="44.375525323995426" lon="11.026846808975346"><ele>692.0</ele><time>2026-04-28T07:43:22.872Z</time></trkpt><trkpt lat="44.37554390262186" lon="11.026727547986113"><ele>692.0</ele><time>2026-04-28T07:43:23.872Z</time></trkpt><trkpt lat="44.375539833109656" lon="11.02662100873046"><ele>692.0</ele><time>2026-04-28T07:43:24.871Z</time></trkpt><trkpt lat="44.37552480760722" lon="11.026478654088493"><ele>692.0</ele><time>2026-04-28T07:43:25.871Z</time></trkpt><trkpt lat="44.3754681958997" lon="11.026327922161473"><ele>692.0</ele><time>2026-04-28T07:43:26.871Z</time></trkpt><trkpt lat="44.37541598979302" lon="11.026189676232669"><ele>692.0</ele><time>2026-04-28T07:43:27.871Z</time></trkpt><trkpt lat="44.375387019431805" lon="11.026038962423558"><ele>692.0</ele><time>2026-04-28T07:43:28.871Z</time></trkpt><trkpt lat="44.37536971106733" lon="11.025873537177823"><ele>692.0</ele><time>2026-04-28T07:43:29.871Z</time></trkpt><trkpt lat="44.37540004268268" lon="11.025737593515034"><ele>692.0</ele><time>2026-04-28T07:43:30.871Z</time></trkpt><trkpt lat="44.37546015572486" lon="11.025608324939647"><ele>692.0</ele><time>2026-04-28T07:43:31.871Z</time></trkpt><trkpt lat="44.375530263860874" lon="11.0255090743394"><ele>692.2</ele><time>2026-04-28T07:43:32.871Z</time></trkpt><trkpt lat="44.375586850719415" lon="11.025400624249139"><ele>692.4000000000001</ele><time>2026-04-28T07:43:33.871Z</time></trkpt><trkpt lat="44.37563687414951" lon="11.025266564642173"><ele>692.5999999999999</ele><time>2026-04-28T07:43:34.871Z</time></trkpt><trkpt lat="44.37565369077296" lon="11.025106578339294"><ele>692.8</ele><time>2026-04-28T07:43:35.871Z</time></trkpt><trkpt lat="44.375716196642536" lon="11.02495416101576"><ele>693.0</ele><time>2026-04-28T07:43:36.871Z</time></trkpt><trkpt lat="44.37579430089927" lon="11.024819796572462"><ele>693.0</ele><time>2026-04-28T07:43:37.871Z</time></trkpt><trkpt lat="44.37586481797656" lon="11.024687611792642"><ele>693.0</ele><time>2026-04-28T07:43:38.871Z</time></trkpt><trkpt lat="44.375922313258194" lon="11.024534073088372"><ele>693.0</ele><time>2026-04-28T07:43:39.871Z</time></trkpt><trkpt lat="44.375970447689745" lon="11.024366154128947"><ele>693.0</ele><time>2026-04-28T07:43:40.871Z</time></trkpt><trkpt lat="44.37601305902304" lon="11.024199491381781"><ele>695.5</ele><time>2026-04-28T07:43:41.871Z</time></trkpt><trkpt lat="44.37604788244644" lon="11.02403273198214"><ele>698.0</ele><time>2026-04-28T07:43:42.871Z</time></trkpt><trkpt lat="44.37609209919514" lon="11.023866731295996"><ele>700.5</ele><time>2026-04-28T07:43:43.871Z</time></trkpt><trkpt lat="44.37614145515579" lon="11.02370393559638"><ele>703.0</ele><time>2026-04-28T07:43:44.871Z</time></trkpt><trkpt lat="44.37618498329987" lon="11.02355183358572"><ele>703.0</ele><time>2026-04-28T07:43:45.871Z</time></trkpt><trkpt lat="44.37621397519876" lon="11.02341482330048"><ele>703.0</ele><time>2026-04-28T07:43:46.871Z</time></trkpt><trkpt lat="44.3762772596711" lon="11.0232973729746"><ele>703.0</ele><time>2026-04-28T07:43:47.871Z</time></trkpt><trkpt lat="44.37634353711914" lon="11.023196405186814"><ele>703.0</ele><time>2026-04-28T07:43:48.871Z</time></trkpt><trkpt lat="44.37642766994525" lon="11.02312504977635"><ele>703.0</ele><time>2026-04-28T07:43:49.871Z</time></trkpt><trkpt lat="44.376519988227216" lon="11.023081023744853"><ele>700.6666666666667</ele><time>2026-04-28T07:43:50.871Z</time></trkpt><trkpt lat="44.376609906247424" lon="11.023063923065157"><ele>698.3333333333334</ele><time>2026-04-28T07:43:51.871Z</time></trkpt><trkpt lat="44.37668470074501" lon="11.023061679225924"><ele>696.0</ele><time>2026-04-28T07:43:52.871Z</time></trkpt><trkpt lat="44.37678842333922" lon="11.022991211887058"><ele>693.6666666666666</ele><time>2026-04-28T07:43:54.871Z</time></trkpt><trkpt lat="44.376836182245896" lon="11.022909521676338"><ele>691.3333333333333</ele><time>2026-04-28T07:43:55.871Z</time></trkpt><trkpt lat="44.37684562135193" lon="11.0227858846424"><ele>689.0</ele><time>2026-04-28T07:43:56.871Z</time></trkpt><trkpt lat="44.37679549877992" lon="11.022670681869524"><ele>689.0</ele><time>2026-04-28T07:43:57.871Z</time></trkpt><trkpt lat="44.37673836987446" lon="11.022551108787818"><ele>689.0</ele><time>2026-04-28T07:43:58.871Z</time></trkpt><trkpt lat="44.376687920521725" lon="11.022401432564802"><ele>689.0</ele><time>2026-04-28T07:43:59.871Z</time></trkpt><trkpt lat="44.37663302798627" lon="11.022243582838618"><ele>689.0</ele><time>2026-04-28T07:44:00.871Z</time></trkpt><trkpt lat="44.37657134665044" lon="11.022077165735872"><ele>688.3333333333333</ele><time>2026-04-28T07:44:01.871Z</time></trkpt><trkpt lat="44.376517986775816" lon="11.02188043820813"><ele>687.6666666666666</ele><time>2026-04-28T07:44:02.871Z</time></trkpt><trkpt lat="44.37647246090592" lon="11.021672368033018"><ele>687.0</ele><time>2026-04-28T07:44:03.871Z</time></trkpt><trkpt lat="44.37643543382858" lon="11.021454437047543"><ele>687.0</ele><time>2026-04-28T07:44:04.871Z</time></trkpt><trkpt lat="44.376410914442445" lon="11.0212499206454"><ele>687.0</ele><time>2026-04-28T07:44:05.871Z</time></trkpt><trkpt lat="44.37638985406458" lon="11.021058452132003"><ele>687.0</ele><time>2026-04-28T07:44:06.871Z</time></trkpt><trkpt lat="44.376359342156526" lon="11.020873890415338"><ele>687.0</ele><time>2026-04-28T07:44:07.871Z</time></trkpt><trkpt lat="44.37631441435282" lon="11.02070127750581"><ele>691.75</ele><time>2026-04-28T07:44:08.871Z</time></trkpt><trkpt lat="44.3762538843488" lon="11.020547579585322"><ele>696.5</ele><time>2026-04-28T07:44:09.87Z</time></trkpt><trkpt lat="44.37619298606513" lon="11.020394755499044"><ele>701.25</ele><time>2026-04-28T07:44:10.87Z</time></trkpt><trkpt lat="44.3761704636765" lon="11.020233649461606"><ele>706.0</ele><time>2026-04-28T07:44:11.87Z</time></trkpt><trkpt lat="44.37615050199822" lon="11.020056361807057"><ele>705.0</ele><time>2026-04-28T07:44:12.87Z</time></trkpt><trkpt lat="44.376130651540315" lon="11.019883785718214"><ele>704.0</ele><time>2026-04-28T07:44:13.87Z</time></trkpt><trkpt lat="44.3761090356723" lon="11.019706189710577"><ele>703.0</ele><time>2026-04-28T07:44:14.87Z</time></trkpt><trkpt lat="44.376091251912584" lon="11.019523345146414"><ele>702.0</ele><time>2026-04-28T07:44:15.87Z</time></trkpt><trkpt lat="44.37606978295236" lon="11.019346767257835"><ele>702.0</ele><time>2026-04-28T07:44:16.87Z</time></trkpt><trkpt lat="44.376058085347886" lon="11.019176439174041"><ele>702.0</ele><time>2026-04-28T07:44:17.87Z</time></trkpt><trkpt lat="44.37604514359271" lon="11.019012023690136"><ele>702.0</ele><time>2026-04-28T07:44:18.87Z</time></trkpt><trkpt lat="44.37602971967572" lon="11.0188544705847"><ele>702.0</ele><time>2026-04-28T07:44:19.87Z</time></trkpt><trkpt lat="44.376016733235105" lon="11.018721815958566"><ele>700.6</ele><time>2026-04-28T07:44:20.87Z</time></trkpt><trkpt lat="44.375964243752684" lon="11.018624959995172"><ele>699.2</ele><time>2026-04-28T07:44:21.87Z</time></trkpt><trkpt lat="44.37595349379456" lon="11.018531984308684"><ele>697.8</ele><time>2026-04-28T07:44:22.87Z</time></trkpt><trkpt lat="44.37586819244932" lon="11.018409865325898"><ele>696.4</ele><time>2026-04-28T07:44:23.87Z</time></trkpt><trkpt lat="44.37578240084678" lon="11.018297083494733"><ele>695.0</ele><time>2026-04-28T07:44:24.87Z</time></trkpt><trkpt lat="44.37569839946408" lon="11.018178941334419"><ele>693.6</ele><time>2026-04-28T07:44:25.87Z</time></trkpt><trkpt lat="44.375614993354844" lon="11.018060313202906"><ele>692.2</ele><time>2026-04-28T07:44:26.87Z</time></trkpt><trkpt lat="44.375536527851885" lon="11.017967254597584"><ele>690.8</ele><time>2026-04-28T07:44:27.87Z</time></trkpt><trkpt lat="44.375474310727085" lon="11.01785084748277"><ele>689.4</ele><time>2026-04-28T07:44:28.87Z</time></trkpt><trkpt lat="44.375426571430665" lon="11.017768646327244"><ele>688.0</ele><time>2026-04-28T07:44:29.87Z</time></trkpt><trkpt lat="44.3753531877252" lon="11.017683339915859"><ele>690.3333333333334</ele><time>2026-04-28T07:44:30.87Z</time></trkpt><trkpt lat="44.375303089379734" lon="11.017591653305614"><ele>692.6666666666667</ele><time>2026-04-28T07:44:31.87Z</time></trkpt><trkpt lat="44.37526203207531" lon="11.01750262752803"><ele>695.0</ele><time>2026-04-28T07:44:32.87Z</time></trkpt><trkpt lat="44.37522200172357" lon="11.017396601332903"><ele>697.3333333333334</ele><time>2026-04-28T07:44:33.87Z</time></trkpt><trkpt lat="44.375194845856335" lon="11.017291132605704"><ele>699.6666666666666</ele><time>2026-04-28T07:44:34.87Z</time></trkpt><trkpt lat="44.375149644093604" lon="11.017149078815754"><ele>702.0</ele><time>2026-04-28T07:44:35.87Z</time></trkpt><trkpt lat="44.37511794942843" lon="11.01698979092958"><ele>702.0</ele><time>2026-04-28T07:44:36.87Z</time></trkpt><trkpt lat="44.37508436878524" lon="11.016860045292843"><ele>702.0</ele><time>2026-04-28T07:44:37.87Z</time></trkpt><trkpt lat="44.375044757559095" lon="11.016709035060797"><ele>702.0</ele><time>2026-04-28T07:44:38.87Z</time></trkpt><trkpt lat="44.3750118404245" lon="11.016565291522674"><ele>702.0</ele><time>2026-04-28T07:44:39.87Z</time></trkpt><trkpt lat="44.37499072799984" lon="11.016411545452195"><ele>702.0</ele><time>2026-04-28T07:44:40.87Z</time></trkpt><trkpt lat="44.374985971432444" lon="11.016260004325428"><ele>702.2</ele><time>2026-04-28T07:44:41.87Z</time></trkpt><trkpt lat="44.37499083748191" lon="11.01610601042386"><ele>702.4000000000001</ele><time>2026-04-28T07:44:42.87Z</time></trkpt><trkpt lat="44.374998411390294" lon="11.015951470264506"><ele>702.5999999999999</ele><time>2026-04-28T07:44:43.87Z</time></trkpt><trkpt lat="44.37500111337265" lon="11.015793206960891"><ele>702.8</ele><time>2026-04-28T07:44:44.87Z</time></trkpt><trkpt lat="44.375005261602205" lon="11.015652067247874"><ele>703.0</ele><time>2026-04-28T07:44:45.87Z</time></trkpt><trkpt lat="44.37501763435498" lon="11.015520886893812"><ele>704.0</ele><time>2026-04-28T07:44:46.87Z</time></trkpt><trkpt lat="44.375035210699586" lon="11.015390304911456"><ele>705.0</ele><time>2026-04-28T07:44:47.87Z</time></trkpt><trkpt lat="44.37506194560601" lon="11.01526178491876"><ele>706.0</ele><time>2026-04-28T07:44:48.87Z</time></trkpt><trkpt lat="44.37509188710815" lon="11.015125843926894"><ele>707.0</ele><time>2026-04-28T07:44:49.87Z</time></trkpt><trkpt lat="44.375131199607594" lon="11.014983074132601"><ele>708.0</ele><time>2026-04-28T07:44:50.87Z</time></trkpt><trkpt lat="44.37516991421655" lon="11.014825277853792"><ele>708.5</ele><time>2026-04-28T07:44:51.87Z</time></trkpt><trkpt lat="44.37520962361616" lon="11.014668517491828"><ele>709.0</ele><time>2026-04-28T07:44:52.87Z</time></trkpt><trkpt lat="44.37527266755011" lon="11.014526266084657"><ele>709.5</ele><time>2026-04-28T07:44:53.87Z</time></trkpt><trkpt lat="44.3753539649428" lon="11.014398870415382"><ele>710.0</ele><time>2026-04-28T07:44:54.869Z</time></trkpt><trkpt lat="44.37544242992338" lon="11.014285277767565"><ele>709.75</ele><time>2026-04-28T07:44:55.869Z</time></trkpt><trkpt lat="44.37552792583697" lon="11.014170636633956"><ele>709.5</ele><time>2026-04-28T07:44:56.869Z</time></trkpt><trkpt lat="44.37559717992512" lon="11.014045201195477"><ele>709.25</ele><time>2026-04-28T07:44:57.869Z</time></trkpt><trkpt lat="44.37565179365862" lon="11.013910279057223"><ele>709.0</ele><time>2026-04-28T07:44:58.868Z</time></trkpt><trkpt lat="44.37570397200594" lon="11.013768812871115"><ele>709.0</ele><time>2026-04-28T07:44:59.868Z</time></trkpt><trkpt lat="44.37575029050234" lon="11.013626147531284"><ele>709.0</ele><time>2026-04-28T07:45:00.869Z</time></trkpt><trkpt lat="44.375770841821186" lon="11.013481641695972"><ele>709.0</ele><time>2026-04-28T07:45:01.869Z</time></trkpt><trkpt lat="44.37578160595832" lon="11.013350672116449"><ele>709.0</ele><time>2026-04-28T07:45:02.869Z</time></trkpt><trkpt lat="44.375784116307244" lon="11.013223184411538"><ele>709.0</ele><time>2026-04-28T07:45:03.868Z</time></trkpt><trkpt lat="44.37576917889648" lon="11.013087237742614"><ele>708.8000000000001</ele><time>2026-04-28T07:45:04.869Z</time></trkpt><trkpt lat="44.375750454168774" lon="11.012950226057248"><ele>708.6</ele><time>2026-04-28T07:45:05.869Z</time></trkpt><trkpt lat="44.37573250519726" lon="11.012815289692142"><ele>708.4</ele><time>2026-04-28T07:45:06.869Z</time></trkpt><trkpt lat="44.375710416466" lon="11.012683044452746"><ele>708.2</ele><time>2026-04-28T07:45:07.869Z</time></trkpt><trkpt lat="44.37569002903262" lon="11.012548700364398"><ele>708.0</ele><time>2026-04-28T07:45:08.869Z</time></trkpt><trkpt lat="44.37567803837221" lon="11.01243161328043"><ele>708.0</ele><time>2026-04-28T07:45:09.869Z</time></trkpt><trkpt lat="44.375673498207085" lon="11.012321099533795"><ele>708.0</ele><time>2026-04-28T07:45:10.869Z</time></trkpt><trkpt lat="44.375679555646485" lon="11.012205062246638"><ele>708.0</ele><time>2026-04-28T07:45:11.869Z</time></trkpt><trkpt lat="44.37570247653741" lon="11.012095657654235"><ele>708.0</ele><time>2026-04-28T07:45:12.869Z</time></trkpt><trkpt lat="44.3757330275543" lon="11.011986759138939"><ele>708.0</ele><time>2026-04-28T07:45:13.869Z</time></trkpt><trkpt lat="44.375768418765105" lon="11.011874386473682"><ele>708.0</ele><time>2026-04-28T07:45:14.869Z</time></trkpt><trkpt lat="44.375814740725616" lon="11.011752436492428"><ele>708.4</ele><time>2026-04-28T07:45:15.869Z</time></trkpt><trkpt lat="44.37587348673673" lon="11.011628946041814"><ele>708.8</ele><time>2026-04-28T07:45:16.869Z</time></trkpt><trkpt lat="44.37593810900055" lon="11.011505275343572"><ele>709.2</ele><time>2026-04-28T07:45:17.869Z</time></trkpt><trkpt lat="44.37600904349469" lon="11.011392678841469"><ele>709.6</ele><time>2026-04-28T07:45:18.869Z</time></trkpt><trkpt lat="44.37607976643137" lon="11.0112794153605"><ele>710.0</ele><time>2026-04-28T07:45:19.869Z</time></trkpt><trkpt lat="44.376158896641826" lon="11.011170018116465"><ele>710.0</ele><time>2026-04-28T07:45:20.869Z</time></trkpt><trkpt lat="44.37623202636266" lon="11.01104949801018"><ele>710.0</ele><time>2026-04-28T07:45:21.869Z</time></trkpt><trkpt lat="44.376315022557144" lon="11.010930725415013"><ele>710.0</ele><time>2026-04-28T07:45:22.868Z</time></trkpt><trkpt lat="44.3763990072238" lon="11.0108260696822"><ele>710.0</ele><time>2026-04-28T07:45:23.868Z</time></trkpt><trkpt lat="44.37647454254252" lon="11.010724941634905"><ele>710.0</ele><time>2026-04-28T07:45:24.868Z</time></trkpt><trkpt lat="44.37655292179309" lon="11.010648828436734"><ele>709.1666666666666</ele><time>2026-04-28T07:45:25.868Z</time></trkpt><trkpt lat="44.376630555415424" lon="11.010597274233296"><ele>708.3333333333333</ele><time>2026-04-28T07:45:26.868Z</time></trkpt><trkpt lat="44.37670784590164" lon="11.01053134450868"><ele>707.5</ele><time>2026-04-28T07:45:27.868Z</time></trkpt><trkpt lat="44.37677561412844" lon="11.010475915952467"><ele>706.6666666666666</ele><time>2026-04-28T07:45:28.868Z</time></trkpt><trkpt lat="44.3768503988637" lon="11.010426827412264"><ele>705.8333333333334</ele><time>2026-04-28T07:45:29.868Z</time></trkpt><trkpt lat="44.37693165154222" lon="11.01037557964065"><ele>705.0</ele><time>2026-04-28T07:45:30.868Z</time></trkpt><trkpt lat="44.377007674647004" lon="11.01032303474956"><ele>705.0</ele><time>2026-04-28T07:45:31.868Z</time></trkpt><trkpt lat="44.37708280883313" lon="11.010263073121047"><ele>705.0</ele><time>2026-04-28T07:45:32.868Z</time></trkpt><trkpt lat="44.3771662126058" lon="11.010209480608909"><ele>705.0</ele><time>2026-04-28T07:45:33.868Z</time></trkpt><trkpt lat="44.377243643492946" lon="11.010158429243797"><ele>705.0</ele><time>2026-04-28T07:45:34.868Z</time></trkpt><trkpt lat="44.37731769334295" lon="11.010097875641947"><ele>705.0</ele><time>2026-04-28T07:45:35.868Z</time></trkpt><trkpt lat="44.3773907418396" lon="11.010030659729502"><ele>705.0</ele><time>2026-04-28T07:45:36.868Z</time></trkpt><trkpt lat="44.37746301914746" lon="11.009966387977293"><ele>704.3333333333334</ele><time>2026-04-28T07:45:37.868Z</time></trkpt><trkpt lat="44.377549349964966" lon="11.00993713859953"><ele>703.6666666666666</ele><time>2026-04-28T07:45:38.868Z</time></trkpt><trkpt lat="44.377612220791" lon="11.009862002903247"><ele>703.0</ele><time>2026-04-28T07:45:39.868Z</time></trkpt><trkpt lat="44.37766653266577" lon="11.009787457175458"><ele>702.3333333333333</ele><time>2026-04-28T07:45:40.868Z</time></trkpt><trkpt lat="44.377711962902865" lon="11.009714044269069"><ele>701.6666666666666</ele><time>2026-04-28T07:45:41.868Z</time></trkpt><trkpt lat="44.37778761376142" lon="11.00957544875084"><ele>701.0</ele><time>2026-04-28T07:45:43.868Z</time></trkpt><trkpt lat="44.37782538855808" lon="11.009490581513539"><ele>701.0</ele><time>2026-04-28T07:45:44.868Z</time></trkpt><trkpt lat="44.37785516966258" lon="11.009372688186641"><ele>701.0</ele><time>2026-04-28T07:45:46.868Z</time></trkpt><trkpt lat="44.377887956115956" lon="11.009277685430805"><ele>701.0</ele><time>2026-04-28T07:45:49.868Z</time></trkpt><trkpt lat="44.37791034592764" lon="11.009190833064329"><ele>701.0</ele><time>2026-04-28T07:45:56.868Z</time></trkpt><trkpt lat="44.377920107153834" lon="11.009103677228547"><ele>701.0</ele><time>2026-04-28T07:46:01.868Z</time></trkpt><trkpt lat="44.377934966172134" lon="11.008987979511456"><ele>701.0</ele><time>2026-04-28T07:46:04.868Z</time></trkpt><trkpt lat="44.377937612203525" lon="11.0088878205463"><ele>701.0</ele><time>2026-04-28T07:46:07.867Z</time></trkpt><trkpt lat="44.37801317807926" lon="11.00882515029847"><ele>700.0</ele><time>2026-04-28T07:46:09.867Z</time></trkpt><trkpt lat="44.37800417566391" lon="11.00871122986436"><ele>699.0</ele><time>2026-04-28T07:46:11.867Z</time></trkpt><trkpt lat="44.377891651773496" lon="11.008609629264921"><ele>698.0</ele><time>2026-04-28T07:46:14.867Z</time></trkpt><trkpt lat="44.37781991298086" lon="11.008514771263473"><ele>697.0</ele><time>2026-04-28T07:46:16.867Z</time></trkpt><trkpt lat="44.37774687860428" lon="11.008408917814041"><ele>696.0</ele><time>2026-04-28T07:46:18.867Z</time></trkpt><trkpt lat="44.37766406927177" lon="11.008264422992351"><ele>695.3333333333334</ele><time>2026-04-28T07:46:20.867Z</time></trkpt><trkpt lat="44.37760929238903" lon="11.008190597870247"><ele>694.6666666666666</ele><time>2026-04-28T07:46:21.867Z</time></trkpt><trkpt lat="44.37755601005702" lon="11.008112084568852"><ele>694.0</ele><time>2026-04-28T07:46:22.867Z</time></trkpt><trkpt lat="44.377493078031456" lon="11.008035668401131"><ele>693.3333333333333</ele><time>2026-04-28T07:46:23.867Z</time></trkpt><trkpt lat="44.377422685900534" lon="11.007965879125962"><ele>692.6666666666666</ele><time>2026-04-28T07:46:24.867Z</time></trkpt><trkpt lat="44.37734335032438" lon="11.00790102765689"><ele>692.0</ele><time>2026-04-28T07:46:25.867Z</time></trkpt><trkpt lat="44.377253730845425" lon="11.007839815585061"><ele>691.25</ele><time>2026-04-28T07:46:26.867Z</time></trkpt><trkpt lat="44.37714979742098" lon="11.007768562783625"><ele>690.5</ele><time>2026-04-28T07:46:27.867Z</time></trkpt><trkpt lat="44.377039215535824" lon="11.007685595662066"><ele>689.75</ele><time>2026-04-28T07:46:28.867Z</time></trkpt><trkpt lat="44.376935368355774" lon="11.007591191496076"><ele>689.0</ele><time>2026-04-28T07:46:29.867Z</time></trkpt><trkpt lat="44.37682679727019" lon="11.007493535141775"><ele>687.75</ele><time>2026-04-28T07:46:30.867Z</time></trkpt><trkpt lat="44.376718810902304" lon="11.007394805666047"><ele>686.5</ele><time>2026-04-28T07:46:31.867Z</time></trkpt><trkpt lat="44.37658770852067" lon="11.007295771036286"><ele>685.25</ele><time>2026-04-28T07:46:32.867Z</time></trkpt><trkpt lat="44.37644172086459" lon="11.007205464985745"><ele>684.0</ele><time>2026-04-28T07:46:33.867Z</time></trkpt><trkpt lat="44.376300363024484" lon="11.00712178883286"><ele>684.0</ele><time>2026-04-28T07:46:34.867Z</time></trkpt><trkpt lat="44.3761730375932" lon="11.00702875221134"><ele>684.0</ele><time>2026-04-28T07:46:35.867Z</time></trkpt><trkpt lat="44.37605137356042" lon="11.006898951283471"><ele>684.0</ele><time>2026-04-28T07:46:36.867Z</time></trkpt><trkpt lat="44.37594475265635" lon="11.006752898554206"><ele>684.0</ele><time>2026-04-28T07:46:37.867Z</time></trkpt><trkpt lat="44.375851877458196" lon="11.006602302847362"><ele>683.0</ele><time>2026-04-28T07:46:38.867Z</time></trkpt><trkpt lat="44.37575705830376" lon="11.006460462912893"><ele>682.0</ele><time>2026-04-28T07:46:39.867Z</time></trkpt><trkpt lat="44.37565986255841" lon="11.00633661899818"><ele>681.0</ele><time>2026-04-28T07:46:40.867Z</time></trkpt><trkpt lat="44.375558434696636" lon="11.006222893100649"><ele>680.0</ele><time>2026-04-28T07:46:41.867Z</time></trkpt><trkpt lat="44.37545587769304" lon="11.006120412064428"><ele>680.0</ele><time>2026-04-28T07:46:42.867Z</time></trkpt><trkpt lat="44.375358462628846" lon="11.006026816461837"><ele>680.0</ele><time>2026-04-28T07:46:43.867Z</time></trkpt><trkpt lat="44.375263170862375" lon="11.00593786467676"><ele>680.0</ele><time>2026-04-28T07:46:44.867Z</time></trkpt><trkpt lat="44.37517093290437" lon="11.005844934071042"><ele>680.0</ele><time>2026-04-28T07:46:45.867Z</time></trkpt><trkpt lat="44.37508183219774" lon="11.005754546156878"><ele>679.8</ele><time>2026-04-28T07:46:46.867Z</time></trkpt><trkpt lat="44.37499251427195" lon="11.005665352079887"><ele>679.6</ele><time>2026-04-28T07:46:47.867Z</time></trkpt><trkpt lat="44.374901015258544" lon="11.005578893415372"><ele>679.4000000000001</ele><time>2026-04-28T07:46:48.867Z</time></trkpt><trkpt lat="44.37481106673742" lon="11.00549505108593"><ele>679.2</ele><time>2026-04-28T07:46:49.867Z</time></trkpt><trkpt lat="44.37471966904174" lon="11.005408010322503"><ele>679.0</ele><time>2026-04-28T07:46:50.867Z</time></trkpt><trkpt lat="44.37463384936311" lon="11.005328661641942"><ele>679.0</ele><time>2026-04-28T07:46:51.867Z</time></trkpt><trkpt lat="44.37454641525453" lon="11.00525733361349"><ele>679.0</ele><time>2026-04-28T07:46:52.866Z</time></trkpt><trkpt lat="44.3744472448693" lon="11.00519905818411"><ele>679.0</ele><time>2026-04-28T07:46:53.866Z</time></trkpt><trkpt lat="44.3743396161172" lon="11.005155934633818"><ele>679.0</ele><time>2026-04-28T07:46:54.866Z</time></trkpt><trkpt lat="44.374226012486176" lon="11.005134124104295"><ele>679.0</ele><time>2026-04-28T07:46:55.866Z</time></trkpt><trkpt lat="44.3741197371563" lon="11.005111220570098"><ele>679.0</ele><time>2026-04-28T07:46:56.866Z</time></trkpt><trkpt lat="44.37400297260193" lon="11.005065759718342"><ele>679.0</ele><time>2026-04-28T07:46:57.866Z</time></trkpt><trkpt lat="44.37388919014122" lon="11.005003977517188"><ele>679.0</ele><time>2026-04-28T07:46:58.866Z</time></trkpt><trkpt lat="44.37377853877952" lon="11.004929600155165"><ele>679.0</ele><time>2026-04-28T07:46:59.866Z</time></trkpt><trkpt lat="44.37367012687528" lon="11.004853632702853"><ele>678.75</ele><time>2026-04-28T07:47:00.866Z</time></trkpt><trkpt lat="44.37357292020171" lon="11.004773408059025"><ele>678.5</ele><time>2026-04-28T07:47:01.865Z</time></trkpt><trkpt lat="44.373478090070186" lon="11.004704221502452"><ele>678.25</ele><time>2026-04-28T07:47:02.865Z</time></trkpt><trkpt lat="44.37337106628804" lon="11.004647718992175"><ele>678.0</ele><time>2026-04-28T07:47:03.866Z</time></trkpt><trkpt lat="44.373259249707495" lon="11.004592908651542"><ele>678.0</ele><time>2026-04-28T07:47:04.866Z</time></trkpt><trkpt lat="44.37314017039133" lon="11.004541522721148"><ele>678.0</ele><time>2026-04-28T07:47:05.866Z</time></trkpt><trkpt lat="44.373024251601635" lon="11.004488443269457"><ele>678.0</ele><time>2026-04-28T07:47:06.866Z</time></trkpt><trkpt lat="44.372907287206424" lon="11.004432823566694"><ele>678.0</ele><time>2026-04-28T07:47:07.866Z</time></trkpt><trkpt lat="44.37279458508744" lon="11.004357326772396"><ele>678.0</ele><time>2026-04-28T07:47:08.866Z</time></trkpt><trkpt lat="44.372676804754036" lon="11.00426640719529"><ele>678.0</ele><time>2026-04-28T07:47:09.865Z</time></trkpt><trkpt lat="44.372558627179274" lon="11.004159399075387"><ele>678.0</ele><time>2026-04-28T07:47:10.865Z</time></trkpt><trkpt lat="44.37243970385837" lon="11.00404454680323"><ele>678.0</ele><time>2026-04-28T07:47:11.865Z</time></trkpt><trkpt lat="44.3723335999126" lon="11.003919389849745"><ele>677.0</ele><time>2026-04-28T07:47:12.865Z</time></trkpt><trkpt lat="44.37223816270616" lon="11.003783583636485"><ele>676.0</ele><time>2026-04-28T07:47:13.865Z</time></trkpt><trkpt lat="44.37215458150987" lon="11.0036284795951"><ele>675.0</ele><time>2026-04-28T07:47:14.865Z</time></trkpt><trkpt lat="44.372074240740645" lon="11.003468823096073"><ele>674.0</ele><time>2026-04-28T07:47:15.865Z</time></trkpt><trkpt lat="44.371990092858375" lon="11.003322317527697"><ele>673.0</ele><time>2026-04-28T07:47:16.865Z</time></trkpt><trkpt lat="44.37189994073056" lon="11.003182166749488"><ele>672.0</ele><time>2026-04-28T07:47:17.865Z</time></trkpt><trkpt lat="44.37181324933193" lon="11.00304629433413"><ele>671.0</ele><time>2026-04-28T07:47:18.865Z</time></trkpt><trkpt lat="44.37173362314101" lon="11.002929871487162"><ele>670.0</ele><time>2026-04-28T07:47:19.865Z</time></trkpt><trkpt lat="44.37163995821289" lon="11.00279101192121"><ele>670.0</ele><time>2026-04-28T07:47:20.865Z</time></trkpt><trkpt lat="44.37152912029263" lon="11.00268002248798"><ele>670.0</ele><time>2026-04-28T07:47:21.865Z</time></trkpt><trkpt lat="44.37140940526216" lon="11.002571177996963"><ele>670.0</ele><time>2026-04-28T07:47:22.865Z</time></trkpt><trkpt lat="44.371299874197156" lon="11.002473117793258"><ele>670.0</ele><time>2026-04-28T07:47:23.865Z</time></trkpt><trkpt lat="44.37118960640451" lon="11.00237333091948"><ele>669.25</ele><time>2026-04-28T07:47:24.866Z</time></trkpt><trkpt lat="44.371077870491966" lon="11.002266908013079"><ele>668.5</ele><time>2026-04-28T07:47:25.867Z</time></trkpt><trkpt lat="44.370963378283925" lon="11.002162552178808"><ele>667.75</ele><time>2026-04-28T07:47:26.868Z</time></trkpt><trkpt lat="44.37085197705553" lon="11.002061717229363"><ele>667.0</ele><time>2026-04-28T07:47:27.869Z</time></trkpt><trkpt lat="44.37075047463013" lon="11.001966127630716"><ele>667.0</ele><time>2026-04-28T07:47:28.87Z</time></trkpt><trkpt lat="44.37065197965171" lon="11.001883163720573"><ele>667.0</ele><time>2026-04-28T07:47:29.871Z</time></trkpt><trkpt lat="44.37056472564566" lon="11.001808619302679"><ele>667.0</ele><time>2026-04-28T07:47:30.872Z</time></trkpt><trkpt lat="44.370484903793944" lon="11.001722599756382"><ele>667.0</ele><time>2026-04-28T07:47:31.872Z</time></trkpt><trkpt lat="44.37041212647822" lon="11.001622764526154"><ele>667.0</ele><time>2026-04-28T07:47:32.873Z</time></trkpt><trkpt lat="44.37033906538754" lon="11.001509991075004"><ele>667.75</ele><time>2026-04-28T07:47:33.874Z</time></trkpt><trkpt lat="44.37027511461836" lon="11.001386379079518"><ele>668.5</ele><time>2026-04-28T07:47:34.874Z</time></trkpt><trkpt lat="44.370207553309626" lon="11.001248870649784"><ele>669.25</ele><time>2026-04-28T07:47:35.875Z</time></trkpt><trkpt lat="44.37013960819068" lon="11.001107546612836"><ele>670.0</ele><time>2026-04-28T07:47:36.875Z</time></trkpt><trkpt lat="44.37006452440823" lon="11.0009447245196"><ele>669.6666666666667</ele><time>2026-04-28T07:47:37.876Z</time></trkpt><trkpt lat="44.369985126508716" lon="11.000769030555006"><ele>669.3333333333334</ele><time>2026-04-28T07:47:38.876Z</time></trkpt><trkpt lat="44.36990185835009" lon="11.000585383189204"><ele>669.0</ele><time>2026-04-28T07:47:39.877Z</time></trkpt><trkpt lat="44.36981173457954" lon="11.000390135826445"><ele>669.0</ele><time>2026-04-28T07:47:40.877Z</time></trkpt><trkpt lat="44.36972070644436" lon="11.00021256760255"><ele>669.0</ele><time>2026-04-28T07:47:41.878Z</time></trkpt><trkpt lat="44.369642341622026" lon="11.000044279983172"><ele>669.0</ele><time>2026-04-28T07:47:42.878Z</time></trkpt><trkpt lat="44.36956148189663" lon="10.999866259878942"><ele>667.25</ele><time>2026-04-28T07:47:43.878Z</time></trkpt><trkpt lat="44.36948020732754" lon="10.99969329451903"><ele>665.5</ele><time>2026-04-28T07:47:44.879Z</time></trkpt><trkpt lat="44.36940185042906" lon="10.999516845803685"><ele>663.75</ele><time>2026-04-28T07:47:45.879Z</time></trkpt><trkpt lat="44.36932731579088" lon="10.999343490776292"><ele>662.0</ele><time>2026-04-28T07:47:46.879Z</time></trkpt><trkpt lat="44.36925710321451" lon="10.999176960359199"><ele>663.0</ele><time>2026-04-28T07:47:47.879Z</time></trkpt><trkpt lat="44.369173748732386" lon="10.999001218949427"><ele>664.0</ele><time>2026-04-28T07:47:48.88Z</time></trkpt><trkpt lat="44.36909004510724" lon="10.998815396599628"><ele>665.0</ele><time>2026-04-28T07:47:49.88Z</time></trkpt><trkpt lat="44.36900345545074" lon="10.998615198400556"><ele>665.0</ele><time>2026-04-28T07:47:50.88Z</time></trkpt><trkpt lat="44.36891576508995" lon="10.998407000205471"><ele>665.0</ele><time>2026-04-28T07:47:51.88Z</time></trkpt><trkpt lat="44.36883185172275" lon="10.998176242725949"><ele>665.0</ele><time>2026-04-28T07:47:52.88Z</time></trkpt><trkpt lat="44.36874693610063" lon="10.997935677228414"><ele>663.3333333333333</ele><time>2026-04-28T07:47:53.881Z</time></trkpt><trkpt lat="44.36868484090563" lon="10.997693138425932"><ele>661.6666666666666</ele><time>2026-04-28T07:47:54.881Z</time></trkpt><trkpt lat="44.368608993963" lon="10.997473994875943"><ele>660.0</ele><time>2026-04-28T07:47:55.881Z</time></trkpt><trkpt lat="44.368521657030975" lon="10.997271491614908"><ele>659.0</ele><time>2026-04-28T07:47:56.881Z</time></trkpt><trkpt lat="44.36845176462439" lon="10.997064540778972"><ele>658.0</ele><time>2026-04-28T07:47:57.881Z</time></trkpt><trkpt lat="44.36840069969715" lon="10.996866496789657"><ele>657.0</ele><time>2026-04-28T07:47:58.881Z</time></trkpt><trkpt lat="44.36833817940225" lon="10.996685025493905"><ele>656.25</ele><time>2026-04-28T07:47:59.881Z</time></trkpt><trkpt lat="44.36826445318353" lon="10.996517103545688"><ele>655.5</ele><time>2026-04-28T07:48:00.881Z</time></trkpt><trkpt lat="44.36816984938192" lon="10.996360764198592"><ele>654.75</ele><time>2026-04-28T07:48:01.881Z</time></trkpt><trkpt lat="44.368064828599444" lon="10.996232707746296"><ele>654.0</ele><time>2026-04-28T07:48:02.882Z</time></trkpt><trkpt lat="44.367958009530646" lon="10.996115698680045"><ele>653.5</ele><time>2026-04-28T07:48:03.882Z</time></trkpt><trkpt lat="44.36784760937999" lon="10.996005008476109"><ele>653.0</ele><time>2026-04-28T07:48:04.882Z</time></trkpt><trkpt lat="44.367744575645375" lon="10.995900322829483"><ele>652.5</ele><time>2026-04-28T07:48:05.882Z</time></trkpt><trkpt lat="44.36764266614556" lon="10.995799004804658"><ele>652.0</ele><time>2026-04-28T07:48:06.882Z</time></trkpt><trkpt lat="44.36753748043642" lon="10.995691826802652"><ele>652.0</ele><time>2026-04-28T07:48:07.882Z</time></trkpt><trkpt lat="44.3674404684989" lon="10.995567971163187"><ele>652.0</ele><time>2026-04-28T07:48:08.882Z</time></trkpt><trkpt lat="44.36735799794287" lon="10.995431980652068"><ele>652.0</ele><time>2026-04-28T07:48:09.882Z</time></trkpt><trkpt lat="44.3672805290157" lon="10.995276408740107"><ele>652.0</ele><time>2026-04-28T07:48:10.882Z</time></trkpt><trkpt lat="44.36720735416786" lon="10.995102245791319"><ele>654.3333333333334</ele><time>2026-04-28T07:48:11.882Z</time></trkpt><trkpt lat="44.36713870614934" lon="10.994923071416473"><ele>656.6666666666666</ele><time>2026-04-28T07:48:12.882Z</time></trkpt><trkpt lat="44.367065282122084" lon="10.994727529112255"><ele>659.0</ele><time>2026-04-28T07:48:13.882Z</time></trkpt><trkpt lat="44.3670025177809" lon="10.994505397565646"><ele>659.0</ele><time>2026-04-28T07:48:14.882Z</time></trkpt><trkpt lat="44.366911228898424" lon="10.99429940251708"><ele>659.0</ele><time>2026-04-28T07:48:15.882Z</time></trkpt><trkpt lat="44.36683744573599" lon="10.994070186947077"><ele>659.0</ele><time>2026-04-28T07:48:16.882Z</time></trkpt><trkpt lat="44.3667606890772" lon="10.99384245273015"><ele>660.6666666666666</ele><time>2026-04-28T07:48:17.882Z</time></trkpt><trkpt lat="44.36668691361495" lon="10.993617159599852"><ele>662.3333333333334</ele><time>2026-04-28T07:48:18.882Z</time></trkpt><trkpt lat="44.36662648062062" lon="10.993392154444184"><ele>664.0</ele><time>2026-04-28T07:48:19.882Z</time></trkpt><trkpt lat="44.36658229502508" lon="10.99314613552702"><ele>664.6666666666667</ele><time>2026-04-28T07:48:20.882Z</time></trkpt><trkpt lat="44.36654003175692" lon="10.992894422207586"><ele>665.3333333333334</ele><time>2026-04-28T07:48:21.882Z</time></trkpt><trkpt lat="44.366494101525596" lon="10.99264099873933"><ele>666.0</ele><time>2026-04-28T07:48:22.882Z</time></trkpt><trkpt lat="44.3664408177951" lon="10.992388328677194"><ele>666.6666666666666</ele><time>2026-04-28T07:48:23.882Z</time></trkpt><trkpt lat="44.36636430920067" lon="10.992174639934928"><ele>667.3333333333333</ele><time>2026-04-28T07:48:24.882Z</time></trkpt><trkpt lat="44.36625851211921" lon="10.991989249622465"><ele>668.0</ele><time>2026-04-28T07:48:25.882Z</time></trkpt><trkpt lat="44.366124767629834" lon="10.991831942157734"><ele>668.3333333333333</ele><time>2026-04-28T07:48:26.882Z</time></trkpt><trkpt lat="44.3659845339669" lon="10.99167868444599"><ele>668.6666666666666</ele><time>2026-04-28T07:48:27.882Z</time></trkpt><trkpt lat="44.365847548848485" lon="10.991546898329592"><ele>669.0</ele><time>2026-04-28T07:48:28.882Z</time></trkpt><trkpt lat="44.36574743160116" lon="10.991415617143694"><ele>669.25</ele><time>2026-04-28T07:48:29.882Z</time></trkpt><trkpt lat="44.36564087959603" lon="10.991310362520169"><ele>669.5</ele><time>2026-04-28T07:48:30.882Z</time></trkpt><trkpt lat="44.36556452893729" lon="10.99119860063021"><ele>669.75</ele><time>2026-04-28T07:48:31.882Z</time></trkpt><trkpt lat="44.365511828603424" lon="10.991072208351147"><ele>670.0</ele><time>2026-04-28T07:48:32.882Z</time></trkpt><trkpt lat="44.365493531810664" lon="10.990919928862349"><ele>670.25</ele><time>2026-04-28T07:48:33.882Z</time></trkpt><trkpt lat="44.3655133180646" lon="10.990772971213973"><ele>670.5</ele><time>2026-04-28T07:48:34.882Z</time></trkpt><trkpt lat="44.36557401702359" lon="10.990636240527829"><ele>670.75</ele><time>2026-04-28T07:48:35.882Z</time></trkpt><trkpt lat="44.365659318324646" lon="10.990531233725566"><ele>671.0</ele><time>2026-04-28T07:48:36.882Z</time></trkpt><trkpt lat="44.36577528849683" lon="10.990471124024136"><ele>671.0</ele><time>2026-04-28T07:48:37.882Z</time></trkpt><trkpt lat="44.36590529064633" lon="10.990454369741599"><ele>671.0</ele><time>2026-04-28T07:48:38.882Z</time></trkpt><trkpt lat="44.36603753714189" lon="10.990447022550724"><ele>671.0</ele><time>2026-04-28T07:48:39.882Z</time></trkpt><trkpt lat="44.36617121534141" lon="10.990445198867029"><ele>671.0</ele><time>2026-04-28T07:48:40.882Z</time></trkpt><trkpt lat="44.36628363468146" lon="10.990410115544377"><ele>670.1999999999999</ele><time>2026-04-28T07:48:41.882Z</time></trkpt><trkpt lat="44.36637056787809" lon="10.990350834678557"><ele>669.4</ele><time>2026-04-28T07:48:42.882Z</time></trkpt><trkpt lat="44.366436997034356" lon="10.990262181757075"><ele>668.6</ele><time>2026-04-28T07:48:43.882Z</time></trkpt><trkpt lat="44.36647951143803" lon="10.990132356180533"><ele>667.8</ele><time>2026-04-28T07:48:44.882Z</time></trkpt><trkpt lat="44.36650866774698" lon="10.989995696780353"><ele>667.0</ele><time>2026-04-28T07:48:45.882Z</time></trkpt><trkpt lat="44.366478143100245" lon="10.989843456588233"><ele>669.25</ele><time>2026-04-28T07:48:46.882Z</time></trkpt><trkpt lat="44.366420841296645" lon="10.989689066421816"><ele>671.5</ele><time>2026-04-28T07:48:47.882Z</time></trkpt><trkpt lat="44.36632152928797" lon="10.989552161711382"><ele>673.75</ele><time>2026-04-28T07:48:48.882Z</time></trkpt><trkpt lat="44.3662139554999" lon="10.989420308804732"><ele>676.0</ele><time>2026-04-28T07:48:49.882Z</time></trkpt><trkpt lat="44.36612958533824" lon="10.989258115419721"><ele>680.6666666666667</ele><time>2026-04-28T07:48:50.882Z</time></trkpt><trkpt lat="44.36606989723773" lon="10.98904889156629"><ele>685.3333333333334</ele><time>2026-04-28T07:48:51.882Z</time></trkpt><trkpt lat="44.36602333368048" lon="10.988838372201414"><ele>690.0</ele><time>2026-04-28T07:48:52.882Z</time></trkpt><trkpt lat="44.36599588330532" lon="10.988642571879302"><ele>690.0</ele><time>2026-04-28T07:48:53.882Z</time></trkpt><trkpt lat="44.3659421775733" lon="10.988485269570598"><ele>690.0</ele><time>2026-04-28T07:48:54.882Z</time></trkpt><trkpt lat="44.365864084049015" lon="10.988360566828005"><ele>690.0</ele><time>2026-04-28T07:48:55.882Z</time></trkpt><trkpt lat="44.365751185892265" lon="10.988268813147155"><ele>690.0</ele><time>2026-04-28T07:48:56.882Z</time></trkpt><trkpt lat="44.365620393179576" lon="10.98818468265853"><ele>691.3333333333334</ele><time>2026-04-28T07:48:57.882Z</time></trkpt><trkpt lat="44.36547559398834" lon="10.9881061476147"><ele>692.6666666666667</ele><time>2026-04-28T07:48:58.882Z</time></trkpt><trkpt lat="44.3653269181175" lon="10.988010475617878"><ele>694.0</ele><time>2026-04-28T07:48:59.882Z</time></trkpt><trkpt lat="44.365173703626276" lon="10.987902889221951"><ele>694.0</ele><time>2026-04-28T07:49:00.882Z</time></trkpt><trkpt lat="44.365018734378275" lon="10.987793220697485"><ele>694.0</ele><time>2026-04-28T07:49:01.882Z</time></trkpt><trkpt lat="44.36486042772445" lon="10.987695954601618"><ele>694.0</ele><time>2026-04-28T07:49:02.882Z</time></trkpt><trkpt lat="44.36470691068752" lon="10.987637798379161"><ele>695.3333333333334</ele><time>2026-04-28T07:49:03.882Z</time></trkpt><trkpt lat="44.36455998386185" lon="10.987611781651333"><ele>696.6666666666666</ele><time>2026-04-28T07:49:04.882Z</time></trkpt><trkpt lat="44.364405873729254" lon="10.987613182035624"><ele>698.0</ele><time>2026-04-28T07:49:05.882Z</time></trkpt><trkpt lat="44.364246458963436" lon="10.98762523460059"><ele>698.0</ele><time>2026-04-28T07:49:06.882Z</time></trkpt><trkpt lat="44.36408167094175" lon="10.987633551525816"><ele>698.0</ele><time>2026-04-28T07:49:07.882Z</time></trkpt><trkpt lat="44.363916453060334" lon="10.987642802315337"><ele>698.0</ele><time>2026-04-28T07:49:08.882Z</time></trkpt><trkpt lat="44.36376491293661" lon="10.987657427872383"><ele>696.5</ele><time>2026-04-28T07:49:09.882Z</time></trkpt><trkpt lat="44.36361874035298" lon="10.98767053508106"><ele>695.0</ele><time>2026-04-28T07:49:10.882Z</time></trkpt><trkpt lat="44.363478555570765" lon="10.987673898677604"><ele>693.5</ele><time>2026-04-28T07:49:11.882Z</time></trkpt><trkpt lat="44.36332744694103" lon="10.987645769234016"><ele>692.0</ele><time>2026-04-28T07:49:12.881Z</time></trkpt><trkpt lat="44.363192917422076" lon="10.987575385442955"><ele>692.0</ele><time>2026-04-28T07:49:13.882Z</time></trkpt><trkpt lat="44.36306561939537" lon="10.987477279402148"><ele>692.0</ele><time>2026-04-28T07:49:14.882Z</time></trkpt><trkpt lat="44.36296262875925" lon="10.987353224601346"><ele>692.0</ele><time>2026-04-28T07:49:15.882Z</time></trkpt><trkpt lat="44.36287941194873" lon="10.987188786876906"><ele>692.0</ele><time>2026-04-28T07:49:16.881Z</time></trkpt><trkpt lat="44.362816826498616" lon="10.987011887153983"><ele>695.0</ele><time>2026-04-28T07:49:17.881Z</time></trkpt><trkpt lat="44.36276606716264" lon="10.986812724873575"><ele>698.0</ele><time>2026-04-28T07:49:18.881Z</time></trkpt><trkpt lat="44.362739198282846" lon="10.986603212238931"><ele>701.0</ele><time>2026-04-28T07:49:19.882Z</time></trkpt><trkpt lat="44.36272148827794" lon="10.986392630672508"><ele>701.0</ele><time>2026-04-28T07:49:20.882Z</time></trkpt><trkpt lat="44.36269596757717" lon="10.986188817504754"><ele>701.0</ele><time>2026-04-28T07:49:21.882Z</time></trkpt><trkpt lat="44.36264886747562" lon="10.985991134008616"><ele>701.0</ele><time>2026-04-28T07:49:22.882Z</time></trkpt><trkpt lat="44.36257549331157" lon="10.9857995418013"><ele>700.6666666666666</ele><time>2026-04-28T07:49:23.882Z</time></trkpt><trkpt lat="44.36248713781698" lon="10.985607784690034"><ele>700.3333333333334</ele><time>2026-04-28T07:49:24.882Z</time></trkpt><trkpt lat="44.362386482479515" lon="10.985428022180425"><ele>700.0</ele><time>2026-04-28T07:49:25.882Z</time></trkpt><trkpt lat="44.36227595433924" lon="10.985266225160922"><ele>703.6666666666667</ele><time>2026-04-28T07:49:26.882Z</time></trkpt><trkpt lat="44.362147593115004" lon="10.985127897044793"><ele>707.3333333333334</ele><time>2026-04-28T07:49:27.882Z</time></trkpt><trkpt lat="44.36199602422086" lon="10.9849919654132"><ele>711.0</ele><time>2026-04-28T07:49:28.882Z</time></trkpt><trkpt lat="44.36184219228561" lon="10.984854691444218"><ele>711.0</ele><time>2026-04-28T07:49:29.882Z</time></trkpt><trkpt lat="44.36168330496286" lon="10.984711440083018"><ele>711.0</ele><time>2026-04-28T07:49:30.882Z</time></trkpt><trkpt lat="44.36152878660675" lon="10.984570643841419"><ele>711.0</ele><time>2026-04-28T07:49:31.882Z</time></trkpt><trkpt lat="44.36137730459569" lon="10.984422634216937"><ele>710.0</ele><time>2026-04-28T07:49:32.882Z</time></trkpt><trkpt lat="44.36123026490782" lon="10.984259389125494"><ele>709.0</ele><time>2026-04-28T07:49:33.882Z</time></trkpt><trkpt lat="44.36107948038805" lon="10.984084788320905"><ele>708.0</ele><time>2026-04-28T07:49:34.882Z</time></trkpt><trkpt lat="44.36092099888164" lon="10.98390688417223"><ele>707.6666666666666</ele><time>2026-04-28T07:49:35.882Z</time></trkpt><trkpt lat="44.3607560307108" lon="10.983737611597435"><ele>707.3333333333333</ele><time>2026-04-28T07:49:36.882Z</time></trkpt><trkpt lat="44.36059690670927" lon="10.983597515503762"><ele>707.0</ele><time>2026-04-28T07:49:37.882Z</time></trkpt><trkpt lat="44.36042557425514" lon="10.983502854042998"><ele>704.6666666666666</ele><time>2026-04-28T07:49:38.882Z</time></trkpt><trkpt lat="44.36024543459474" lon="10.983443189674997"><ele>702.3333333333334</ele><time>2026-04-28T07:49:39.882Z</time></trkpt><trkpt lat="44.36005398183986" lon="10.98342749828017"><ele>700.0</ele><time>2026-04-28T07:49:40.882Z</time></trkpt><trkpt lat="44.359858999134126" lon="10.98342613726219"><ele>700.3333333333334</ele><time>2026-04-28T07:49:41.882Z</time></trkpt><trkpt lat="44.35967586394349" lon="10.983421840283917"><ele>700.6666666666666</ele><time>2026-04-28T07:49:42.882Z</time></trkpt><trkpt lat="44.35950629280797" lon="10.983397929244415"><ele>701.0</ele><time>2026-04-28T07:49:43.882Z</time></trkpt><trkpt lat="44.359352320320454" lon="10.983372455541032"><ele>701.0</ele><time>2026-04-28T07:49:44.882Z</time></trkpt><trkpt lat="44.35920058793163" lon="10.983358386763546"><ele>701.0</ele><time>2026-04-28T07:49:45.881Z</time></trkpt><trkpt lat="44.35904623218764" lon="10.983402109456776"><ele>701.0</ele><time>2026-04-28T07:49:46.881Z</time></trkpt><trkpt lat="44.3589026973764" lon="10.983498578306152"><ele>704.0</ele><time>2026-04-28T07:49:47.881Z</time></trkpt><trkpt lat="44.35875739171801" lon="10.983635597090133"><ele>707.0</ele><time>2026-04-28T07:49:48.881Z</time></trkpt><trkpt lat="44.35861008934644" lon="10.983783983359347"><ele>710.0</ele><time>2026-04-28T07:49:49.881Z</time></trkpt><trkpt lat="44.35846485104848" lon="10.983938230211315"><ele>710.0</ele><time>2026-04-28T07:49:50.881Z</time></trkpt><trkpt lat="44.35831237456714" lon="10.98407495737199"><ele>710.0</ele><time>2026-04-28T07:49:51.881Z</time></trkpt><trkpt lat="44.358156240624645" lon="10.984177954497676"><ele>710.0</ele><time>2026-04-28T07:49:52.881Z</time></trkpt><trkpt lat="44.35801379192665" lon="10.984260852477481"><ele>706.8</ele><time>2026-04-28T07:49:53.881Z</time></trkpt><trkpt lat="44.35789218610949" lon="10.984320766999454"><ele>703.6</ele><time>2026-04-28T07:49:54.881Z</time></trkpt><trkpt lat="44.35778657679672" lon="10.984359929695621"><ele>700.4000000000001</ele><time>2026-04-28T07:49:55.881Z</time></trkpt><trkpt lat="44.357687721638335" lon="10.98436804387058"><ele>697.2</ele><time>2026-04-28T07:49:56.881Z</time></trkpt><trkpt lat="44.35760105526635" lon="10.984316518018206"><ele>694.0</ele><time>2026-04-28T07:49:57.881Z</time></trkpt><trkpt lat="44.35753051842732" lon="10.98422078327217"><ele>696.25</ele><time>2026-04-28T07:49:58.881Z</time></trkpt><trkpt lat="44.35748071388713" lon="10.984076148076799"><ele>698.5</ele><time>2026-04-28T07:49:59.881Z</time></trkpt><trkpt lat="44.35747258541726" lon="10.983902184047245"><ele>700.75</ele><time>2026-04-28T07:50:00.881Z</time></trkpt><trkpt lat="44.35744832067983" lon="10.983707901655269"><ele>703.0</ele><time>2026-04-28T07:50:01.881Z</time></trkpt><trkpt lat="44.35743306842393" lon="10.983519221672184"><ele>704.5</ele><time>2026-04-28T07:50:02.881Z</time></trkpt><trkpt lat="44.35741662085029" lon="10.983343071428507"><ele>706.0</ele><time>2026-04-28T07:50:03.881Z</time></trkpt><trkpt lat="44.357376564762596" lon="10.983182725678649"><ele>707.5</ele><time>2026-04-28T07:50:04.881Z</time></trkpt><trkpt lat="44.35731213141129" lon="10.98305412051405"><ele>709.0</ele><time>2026-04-28T07:50:05.881Z</time></trkpt><trkpt lat="44.357230128193535" lon="10.9829557240144"><ele>706.0</ele><time>2026-04-28T07:50:06.881Z</time></trkpt><trkpt lat="44.357119020299145" lon="10.982897098530437"><ele>703.0</ele><time>2026-04-28T07:50:07.881Z</time></trkpt><trkpt lat="44.35698864463333" lon="10.98287259699936"><ele>700.0</ele><time>2026-04-28T07:50:08.881Z</time></trkpt><trkpt lat="44.35686574685566" lon="10.982833597954832"><ele>697.0</ele><time>2026-04-28T07:50:09.881Z</time></trkpt><trkpt lat="44.356744986730725" lon="10.98284851158153"><ele>697.0</ele><time>2026-04-28T07:50:10.881Z</time></trkpt><trkpt lat="44.35665302001497" lon="10.982802359945318"><ele>697.0</ele><time>2026-04-28T07:50:11.881Z</time></trkpt><trkpt lat="44.35658441631353" lon="10.98273210839981"><ele>697.0</ele><time>2026-04-28T07:50:12.881Z</time></trkpt><trkpt lat="44.35656181728767" lon="10.982629594211339"><ele>697.0</ele><time>2026-04-28T07:50:13.881Z</time></trkpt><trkpt lat="44.35651588762158" lon="10.982547428746873"><ele>697.0</ele><time>2026-04-28T07:50:14.881Z</time></trkpt><trkpt lat="44.35643792835691" lon="10.98249473804771"><ele>697.0</ele><time>2026-04-28T07:50:15.881Z</time></trkpt><trkpt lat="44.356351229905826" lon="10.982492030352589"><ele>696.8</ele><time>2026-04-28T07:50:16.881Z</time></trkpt><trkpt lat="44.35625530543031" lon="10.982533501040807"><ele>696.6</ele><time>2026-04-28T07:50:17.881Z</time></trkpt><trkpt lat="44.356150817919364" lon="10.982564264826804"><ele>696.4</ele><time>2026-04-28T07:50:18.881Z</time></trkpt><trkpt lat="44.35603894542034" lon="10.982569652353975"><ele>696.1999999999999</ele><time>2026-04-28T07:50:19.881Z</time></trkpt><trkpt lat="44.35591966157959" lon="10.982560352627711"><ele>696.0</ele><time>2026-04-28T07:50:20.881Z</time></trkpt><trkpt lat="44.355796900584494" lon="10.982516439511867"><ele>697.0</ele><time>2026-04-28T07:50:21.881Z</time></trkpt><trkpt lat="44.35565657391917" lon="10.982504390742452"><ele>698.0</ele><time>2026-04-28T07:50:22.881Z</time></trkpt><trkpt lat="44.35550994288178" lon="10.9825377809423"><ele>699.0</ele><time>2026-04-28T07:50:23.881Z</time></trkpt><trkpt lat="44.35536338114171" lon="10.982587238797656"><ele>700.0</ele><time>2026-04-28T07:50:24.881Z</time></trkpt><trkpt lat="44.355215382795066" lon="10.982628864709836"><ele>700.0</ele><time>2026-04-28T07:50:25.881Z</time></trkpt><trkpt lat="44.35507821656607" lon="10.982652167151887"><ele>700.0</ele><time>2026-04-28T07:50:26.881Z</time></trkpt><trkpt lat="44.35495775548152" lon="10.98271040607005"><ele>700.0</ele><time>2026-04-28T07:50:27.881Z</time></trkpt><trkpt lat="44.354840953158984" lon="10.982726162924305"><ele>700.0</ele><time>2026-04-28T07:50:28.881Z</time></trkpt><trkpt lat="44.354719832044154" lon="10.982705760390447"><ele>700.75</ele><time>2026-04-28T07:50:29.881Z</time></trkpt><trkpt lat="44.35461890580603" lon="10.982635086068248"><ele>701.5</ele><time>2026-04-28T07:50:30.881Z</time></trkpt><trkpt lat="44.35453463366604" lon="10.982529163000745"><ele>702.25</ele><time>2026-04-28T07:50:31.881Z</time></trkpt><trkpt lat="44.35446230188497" lon="10.982389270181203"><ele>703.0</ele><time>2026-04-28T07:50:32.881Z</time></trkpt><trkpt lat="44.354391080521026" lon="10.982243892957838"><ele>704.5</ele><time>2026-04-28T07:50:33.88Z</time></trkpt><trkpt lat="44.354309141775076" lon="10.982107992983595"><ele>706.0</ele><time>2026-04-28T07:50:34.88Z</time></trkpt><trkpt lat="44.35421143786728" lon="10.981993423798386"><ele>707.5</ele><time>2026-04-28T07:50:35.88Z</time></trkpt><trkpt lat="44.35410201402561" lon="10.981895012260628"><ele>709.0</ele><time>2026-04-28T07:50:36.88Z</time></trkpt><trkpt lat="44.353970431280985" lon="10.981818957673278"><ele>706.3333333333334</ele><time>2026-04-28T07:50:37.88Z</time></trkpt><trkpt lat="44.35383208530205" lon="10.981744057146429"><ele>703.6666666666666</ele><time>2026-04-28T07:50:38.88Z</time></trkpt><trkpt lat="44.35367936599616" lon="10.981678025837533"><ele>701.0</ele><time>2026-04-28T07:50:39.88Z</time></trkpt><trkpt lat="44.35352679912672" lon="10.981614354786181"><ele>705.75</ele><time>2026-04-28T07:50:40.88Z</time></trkpt><trkpt lat="44.353388028195525" lon="10.98157005626213"><ele>710.5</ele><time>2026-04-28T07:50:41.88Z</time></trkpt><trkpt lat="44.35325813312626" lon="10.9815308236971"><ele>715.25</ele><time>2026-04-28T07:50:42.88Z</time></trkpt><trkpt lat="44.35314814770067" lon="10.981469199358697"><ele>720.0</ele><time>2026-04-28T07:50:43.88Z</time></trkpt><trkpt lat="44.35304469684399" lon="10.981431107082592"><ele>719.6</ele><time>2026-04-28T07:50:44.88Z</time></trkpt><trkpt lat="44.35295270858776" lon="10.981395629810205"><ele>719.2</ele><time>2026-04-28T07:50:45.88Z</time></trkpt><trkpt lat="44.35286842880958" lon="10.981365204077484"><ele>718.8</ele><time>2026-04-28T07:50:46.88Z</time></trkpt><trkpt lat="44.3527821949242" lon="10.981334152744253"><ele>718.4</ele><time>2026-04-28T07:50:47.88Z</time></trkpt><trkpt lat="44.35269044571592" lon="10.981307917737727"><ele>718.0</ele><time>2026-04-28T07:50:48.88Z</time></trkpt><trkpt lat="44.352600444859064" lon="10.981283410118982"><ele>718.0</ele><time>2026-04-28T07:50:49.88Z</time></trkpt><trkpt lat="44.35251281248148" lon="10.981252104383179"><ele>718.0</ele><time>2026-04-28T07:50:50.88Z</time></trkpt><trkpt lat="44.35242511251799" lon="10.981213845994121"><ele>718.0</ele><time>2026-04-28T07:50:51.88Z</time></trkpt><trkpt lat="44.35233429102326" lon="10.981175515559636"><ele>718.0</ele><time>2026-04-28T07:50:52.88Z</time></trkpt><trkpt lat="44.35224536914721" lon="10.981119201836531"><ele>718.0</ele><time>2026-04-28T07:50:53.88Z</time></trkpt><trkpt lat="44.35214889649583" lon="10.981063305397976"><ele>720.75</ele><time>2026-04-28T07:50:54.88Z</time></trkpt><trkpt lat="44.35204834431079" lon="10.981029219659124"><ele>723.5</ele><time>2026-04-28T07:50:55.88Z</time></trkpt><trkpt lat="44.351935064649275" lon="10.981012765295649"><ele>726.25</ele><time>2026-04-28T07:50:56.88Z</time></trkpt><trkpt lat="44.35183078747215" lon="10.981069208250464"><ele>729.0</ele><time>2026-04-28T07:50:57.88Z</time></trkpt><trkpt lat="44.35171000096872" lon="10.981124512424667"><ele>729.0</ele><time>2026-04-28T07:50:58.88Z</time></trkpt><trkpt lat="44.35159747448304" lon="10.98121618933805"><ele>729.0</ele><time>2026-04-28T07:50:59.88Z</time></trkpt><trkpt lat="44.35148161441968" lon="10.981323301877119"><ele>729.0</ele><time>2026-04-28T07:51:00.88Z</time></trkpt><trkpt lat="44.351364993430856" lon="10.981451194811598"><ele>729.0</ele><time>2026-04-28T07:51:01.88Z</time></trkpt><trkpt lat="44.351259414897534" lon="10.98159895425073"><ele>735.6666666666666</ele><time>2026-04-28T07:51:02.88Z</time></trkpt><trkpt lat="44.351161992977445" lon="10.981758203749932"><ele>742.3333333333333</ele><time>2026-04-28T07:51:03.88Z</time></trkpt><trkpt lat="44.351077741238356" lon="10.98193267449463"><ele>749.0</ele><time>2026-04-28T07:51:04.88Z</time></trkpt><trkpt lat="44.35101370905573" lon="10.982136418244606"><ele>749.0</ele><time>2026-04-28T07:51:05.88Z</time></trkpt><trkpt lat="44.35096922991787" lon="10.982344814070306"><ele>749.0</ele><time>2026-04-28T07:51:06.88Z</time></trkpt><trkpt lat="44.350951804266046" lon="10.982566492116238"><ele>749.0</ele><time>2026-04-28T07:51:07.88Z</time></trkpt><trkpt lat="44.35094467699473" lon="10.982775872081563"><ele>748.5</ele><time>2026-04-28T07:51:08.88Z</time></trkpt><trkpt lat="44.35096528169093" lon="10.98297972667442"><ele>748.0</ele><time>2026-04-28T07:51:09.88Z</time></trkpt><trkpt lat="44.35098066937429" lon="10.983151990371073"><ele>747.5</ele><time>2026-04-28T07:51:10.88Z</time></trkpt><trkpt lat="44.35100385737545" lon="10.983304252782506"><ele>747.0</ele><time>2026-04-28T07:51:11.88Z</time></trkpt><trkpt lat="44.35100895261212" lon="10.983455855069133"><ele>746.25</ele><time>2026-04-28T07:51:12.879Z</time></trkpt><trkpt lat="44.3509821242914" lon="10.983629271143514"><ele>745.5</ele><time>2026-04-28T07:51:13.879Z</time></trkpt><trkpt lat="44.35093783798045" lon="10.983797461719881"><ele>744.75</ele><time>2026-04-28T07:51:14.879Z</time></trkpt><trkpt lat="44.35088308540493" lon="10.983973803539405"><ele>744.0</ele><time>2026-04-28T07:51:15.879Z</time></trkpt><trkpt lat="44.350859279545475" lon="10.984165856402019"><ele>743.8000000000001</ele><time>2026-04-28T07:51:16.879Z</time></trkpt><trkpt lat="44.3508568809206" lon="10.984350516929982"><ele>743.6</ele><time>2026-04-28T07:51:17.879Z</time></trkpt><trkpt lat="44.35084122952532" lon="10.984512495110486"><ele>743.4</ele><time>2026-04-28T07:51:18.879Z</time></trkpt><trkpt lat="44.350813725415776" lon="10.984647336977314"><ele>743.2</ele><time>2026-04-28T07:51:19.878Z</time></trkpt><trkpt lat="44.35074970808887" lon="10.984750844055606"><ele>743.0</ele><time>2026-04-28T07:51:20.878Z</time></trkpt><trkpt lat="44.35066607419634" lon="10.984817968753482"><ele>743.0</ele><time>2026-04-28T07:51:21.878Z</time></trkpt><trkpt lat="44.35057183557271" lon="10.984851017876382"><ele>743.0</ele><time>2026-04-28T07:51:22.878Z</time></trkpt><trkpt lat="44.35046341416158" lon="10.98486238137777"><ele>743.0</ele><time>2026-04-28T07:51:23.878Z</time></trkpt><trkpt lat="44.35034492685322" lon="10.98488505767185"><ele>743.0</ele><time>2026-04-28T07:51:24.878Z</time></trkpt><trkpt lat="44.35022938745957" lon="10.98491227454916"><ele>743.0</ele><time>2026-04-28T07:51:25.878Z</time></trkpt><trkpt lat="44.35011785864914" lon="10.984955597316974"><ele>744.0</ele><time>2026-04-28T07:51:26.878Z</time></trkpt><trkpt lat="44.35000468655813" lon="10.98500496115056"><ele>745.0</ele><time>2026-04-28T07:51:27.878Z</time></trkpt><trkpt lat="44.349893140694114" lon="10.985059448857209"><ele>746.0</ele><time>2026-04-28T07:51:28.878Z</time></trkpt><trkpt lat="44.349777700602715" lon="10.985093657250042"><ele>747.0</ele><time>2026-04-28T07:51:29.878Z</time></trkpt><trkpt lat="44.34964929507163" lon="10.985110643360182"><ele>749.5</ele><time>2026-04-28T07:51:30.878Z</time></trkpt><trkpt lat="44.34950524756952" lon="10.985113316341419"><ele>752.0</ele><time>2026-04-28T07:51:31.878Z</time></trkpt><trkpt lat="44.34935981813691" lon="10.985120986582164"><ele>754.5</ele><time>2026-04-28T07:51:32.878Z</time></trkpt><trkpt lat="44.34922576206325" lon="10.985152049555012"><ele>757.0</ele><time>2026-04-28T07:51:33.878Z</time></trkpt><trkpt lat="44.349101928647045" lon="10.985194614231316"><ele>757.0</ele><time>2026-04-28T07:51:34.878Z</time></trkpt><trkpt lat="44.34899397186022" lon="10.985251606714662"><ele>757.0</ele><time>2026-04-28T07:51:35.878Z</time></trkpt><trkpt lat="44.348892331743436" lon="10.98532435858527"><ele>757.0</ele><time>2026-04-28T07:51:36.878Z</time></trkpt><trkpt lat="44.34880601230832" lon="10.98543696187353"><ele>757.0</ele><time>2026-04-28T07:51:37.878Z</time></trkpt><trkpt lat="44.348732483023376" lon="10.985591525775948"><ele>754.25</ele><time>2026-04-28T07:51:38.878Z</time></trkpt><trkpt lat="44.348674676911465" lon="10.98576048409428"><ele>751.5</ele><time>2026-04-28T07:51:39.878Z</time></trkpt><trkpt lat="44.348615454823104" lon="10.985937202563122"><ele>748.75</ele><time>2026-04-28T07:51:40.878Z</time></trkpt><trkpt lat="44.34856334653365" lon="10.986123471908048"><ele>746.0</ele><time>2026-04-28T07:51:41.878Z</time></trkpt><trkpt lat="44.34852104520054" lon="10.986317022722963"><ele>746.0</ele><time>2026-04-28T07:51:42.878Z</time></trkpt><trkpt lat="44.34847336143063" lon="10.986505660440875"><ele>746.0</ele><time>2026-04-28T07:51:43.878Z</time></trkpt><trkpt lat="44.34841654612724" lon="10.98667374320847"><ele>746.0</ele><time>2026-04-28T07:51:44.878Z</time></trkpt><trkpt lat="44.34835301089628" lon="10.986839873270496"><ele>746.0</ele><time>2026-04-28T07:51:45.878Z</time></trkpt><trkpt lat="44.348276061361865" lon="10.987002949723434"><ele>745.0</ele><time>2026-04-28T07:51:46.878Z</time></trkpt><trkpt lat="44.34820406035494" lon="10.987151586117397"><ele>744.0</ele><time>2026-04-28T07:51:47.878Z</time></trkpt><trkpt lat="44.34814028388712" lon="10.987300994577827"><ele>743.0</ele><time>2026-04-28T07:51:48.878Z</time></trkpt><trkpt lat="44.34808632248306" lon="10.987443822827924"><ele>742.0</ele><time>2026-04-28T07:51:49.878Z</time></trkpt><trkpt lat="44.348040516699925" lon="10.987584421597063"><ele>742.0</ele><time>2026-04-28T07:51:50.878Z</time></trkpt><trkpt lat="44.34799984715944" lon="10.987722900572233"><ele>742.0</ele><time>2026-04-28T07:51:51.878Z</time></trkpt><trkpt lat="44.34795346372002" lon="10.987857601101094"><ele>742.0</ele><time>2026-04-28T07:51:52.878Z</time></trkpt><trkpt lat="44.34790922782376" lon="10.987993833091235"><ele>742.0</ele><time>2026-04-28T07:51:53.878Z</time></trkpt><trkpt lat="44.34786511202841" lon="10.988127211672504"><ele>742.0</ele><time>2026-04-28T07:51:54.878Z</time></trkpt><trkpt lat="44.3478181424081" lon="10.988262337422787"><ele>744.25</ele><time>2026-04-28T07:51:55.878Z</time></trkpt><trkpt lat="44.34777164901786" lon="10.988414235817464"><ele>746.5</ele><time>2026-04-28T07:51:56.878Z</time></trkpt><trkpt lat="44.3477172454242" lon="10.988575767170255"><ele>748.75</ele><time>2026-04-28T07:51:57.878Z</time></trkpt><trkpt lat="44.34765221935063" lon="10.988748701893682"><ele>751.0</ele><time>2026-04-28T07:51:58.878Z</time></trkpt><trkpt lat="44.34758654349395" lon="10.988921026470265"><ele>751.0</ele><time>2026-04-28T07:51:59.878Z</time></trkpt><trkpt lat="44.34754378849235" lon="10.989113525960393"><ele>751.0</ele><time>2026-04-28T07:52:00.878Z</time></trkpt><trkpt lat="44.347544584894685" lon="10.9893137328605"><ele>751.0</ele><time>2026-04-28T07:52:01.878Z</time></trkpt><trkpt lat="44.34755223236757" lon="10.989517302483259"><ele>751.0</ele><time>2026-04-28T07:52:02.878Z</time></trkpt><trkpt lat="44.34756116149053" lon="10.989705865035953"><ele>751.75</ele><time>2026-04-28T07:52:03.878Z</time></trkpt><trkpt lat="44.34755431428084" lon="10.98988651636675"><ele>752.5</ele><time>2026-04-28T07:52:04.878Z</time></trkpt><trkpt lat="44.347564350205936" lon="10.990056783569502"><ele>753.25</ele><time>2026-04-28T07:52:05.878Z</time></trkpt><trkpt lat="44.34757489694304" lon="10.990234445164365"><ele>754.0</ele><time>2026-04-28T07:52:06.878Z</time></trkpt><trkpt lat="44.34758959522876" lon="10.990412840334763"><ele>754.0</ele><time>2026-04-28T07:52:07.878Z</time></trkpt><trkpt lat="44.347603904347764" lon="10.990612274760798"><ele>754.0</ele><time>2026-04-28T07:52:08.877Z</time></trkpt><trkpt lat="44.347638747611825" lon="10.990794370738872"><ele>754.0</ele><time>2026-04-28T07:52:09.877Z</time></trkpt><trkpt lat="44.34765504031757" lon="10.990954220278335"><ele>754.0</ele><time>2026-04-28T07:52:10.877Z</time></trkpt><trkpt lat="44.34767040481282" lon="10.991096064752035"><ele>754.0</ele><time>2026-04-28T07:52:11.877Z</time></trkpt><trkpt lat="44.3476860197815" lon="10.991229977108224"><ele>754.0</ele><time>2026-04-28T07:52:12.877Z</time></trkpt><trkpt lat="44.34769435695015" lon="10.991374035067029"><ele>754.0</ele><time>2026-04-28T07:52:13.877Z</time></trkpt><trkpt lat="44.34770346305595" lon="10.991510130589772"><ele>754.0</ele><time>2026-04-28T07:52:14.877Z</time></trkpt><trkpt lat="44.34771588811889" lon="10.991622479797707"><ele>754.0</ele><time>2026-04-28T07:52:15.877Z</time></trkpt><trkpt lat="44.34771802051327" lon="10.99173087386808"><ele>754.1666666666667</ele><time>2026-04-28T07:52:16.877Z</time></trkpt><trkpt lat="44.34772114611507" lon="10.99184685994273"><ele>754.3333333333334</ele><time>2026-04-28T07:52:17.877Z</time></trkpt><trkpt lat="44.34771429459579" lon="10.991966429904958"><ele>754.5</ele><time>2026-04-28T07:52:18.877Z</time></trkpt><trkpt lat="44.34770405391412" lon="10.992101477920368"><ele>754.6666666666666</ele><time>2026-04-28T07:52:19.877Z</time></trkpt><trkpt lat="44.34769500472444" lon="10.992236612835807"><ele>754.8333333333333</ele><time>2026-04-28T07:52:20.877Z</time></trkpt><trkpt lat="44.34768337282807" lon="10.992355835843188"><ele>755.0</ele><time>2026-04-28T07:52:21.877Z</time></trkpt><trkpt lat="44.34767647613772" lon="10.992459603041395"><ele>755.8</ele><time>2026-04-28T07:52:22.877Z</time></trkpt><trkpt lat="44.34767050318967" lon="10.992565070798614"><ele>756.6</ele><time>2026-04-28T07:52:23.877Z</time></trkpt><trkpt lat="44.34767092624598" lon="10.99265837463633"><ele>757.4000000000001</ele><time>2026-04-28T07:52:24.877Z</time></trkpt><trkpt lat="44.34765850434544" lon="10.992836317744105"><ele>758.2</ele><time>2026-04-28T07:52:26.877Z</time></trkpt><trkpt lat="44.34765075887226" lon="10.99299940719894"><ele>759.0</ele><time>2026-04-28T07:52:28.877Z</time></trkpt><trkpt lat="44.34762002716364" lon="10.993147158882984"><ele>759.0</ele><time>2026-04-28T07:52:30.877Z</time></trkpt><trkpt lat="44.347609119697374" lon="10.993244970401259"><ele>759.0</ele><time>2026-04-28T07:52:32.877Z</time></trkpt><trkpt lat="44.34761331732789" lon="10.993343914577652"><ele>759.0</ele><time>2026-04-28T07:52:38.877Z</time></trkpt><trkpt lat="44.34760362461524" lon="10.993472912754168"><ele>759.0</ele><time>2026-04-28T07:52:51.877Z</time></trkpt><trkpt lat="44.34759732216633" lon="10.993564336262352"><ele>759.0</ele><time>2026-04-28T07:52:54.877Z</time></trkpt><trkpt lat="44.34775900088581" lon="10.993691160597171"><ele>758.2</ele><time>2026-04-28T07:53:00.876Z</time></trkpt><trkpt lat="44.34782113262853" lon="10.993849633245818"><ele>757.4000000000001</ele><time>2026-04-28T07:53:02.876Z</time></trkpt><trkpt lat="44.347830841014904" lon="10.993948479764272"><ele>756.6</ele><time>2026-04-28T07:53:03.876Z</time></trkpt><trkpt lat="44.34782717942104" lon="10.994070246879836"><ele>755.8</ele><time>2026-04-28T07:53:04.876Z</time></trkpt><trkpt lat="44.34779182704168" lon="10.994207630663396"><ele>755.0</ele><time>2026-04-28T07:53:05.876Z</time></trkpt><trkpt lat="44.347751652390414" lon="10.99435006797408"><ele>754.0</ele><time>2026-04-28T07:53:06.876Z</time></trkpt><trkpt lat="44.34770657465858" lon="10.994499705818132"><ele>753.0</ele><time>2026-04-28T07:53:07.876Z</time></trkpt><trkpt lat="44.34765627005411" lon="10.994656805281608"><ele>752.0</ele><time>2026-04-28T07:53:08.876Z</time></trkpt><trkpt lat="44.347590065132344" lon="10.994806262799626"><ele>751.0</ele><time>2026-04-28T07:53:09.876Z</time></trkpt><trkpt lat="44.347537085561754" lon="10.994951947795188"><ele>750.5</ele><time>2026-04-28T07:53:10.876Z</time></trkpt><trkpt lat="44.347483054165245" lon="10.995072264516788"><ele>750.0</ele><time>2026-04-28T07:53:11.876Z</time></trkpt><trkpt lat="44.347418396971825" lon="10.995158686781119"><ele>749.5</ele><time>2026-04-28T07:53:12.876Z</time></trkpt><trkpt lat="44.34734770418936" lon="10.99522358264985"><ele>749.0</ele><time>2026-04-28T07:53:13.876Z</time></trkpt><trkpt lat="44.34727841883877" lon="10.995282353877315"><ele>748.5</ele><time>2026-04-28T07:53:14.876Z</time></trkpt><trkpt lat="44.34721333832735" lon="10.995324043935012"><ele>748.0</ele><time>2026-04-28T07:53:15.876Z</time></trkpt><trkpt lat="44.34715439830558" lon="10.99536047390096"><ele>748.0</ele><time>2026-04-28T07:53:16.876Z</time></trkpt><trkpt lat="44.34705908579988" lon="10.995412834633331"><ele>748.0</ele><time>2026-04-28T07:53:18.876Z</time></trkpt><trkpt lat="44.34695579215578" lon="10.995439608651058"><ele>748.0</ele><time>2026-04-28T07:53:20.876Z</time></trkpt><trkpt lat="44.3468563154368" lon="10.995442988971552"><ele>748.0</ele><time>2026-04-28T07:53:22.877Z</time></trkpt><trkpt lat="44.34677042987261" lon="10.995454050577047"><ele>748.0</ele><time>2026-04-28T07:53:24.876Z</time></trkpt><trkpt lat="44.3466828887477" lon="10.995475190227282"><ele>748.0</ele><time>2026-04-28T07:53:26.876Z</time></trkpt><trkpt lat="44.346582673726985" lon="10.995497153279635"><ele>748.0</ele><time>2026-04-28T07:53:28.876Z</time></trkpt><trkpt lat="44.34651832885952" lon="10.995504491961084"><ele>748.0</ele><time>2026-04-28T07:53:29.876Z</time></trkpt><trkpt lat="44.34644445000713" lon="10.99551431136086"><ele>748.0</ele><time>2026-04-28T07:53:30.876Z</time></trkpt><trkpt lat="44.3463733265556" lon="10.995516489909294"><ele>748.0</ele><time>2026-04-28T07:53:31.875Z</time></trkpt><trkpt lat="44.346300220642426" lon="10.995531048378773"><ele>748.0</ele><time>2026-04-28T07:53:32.875Z</time></trkpt><trkpt lat="44.34622740204385" lon="10.995539042415045"><ele>748.1666666666667</ele><time>2026-04-28T07:53:33.875Z</time></trkpt><trkpt lat="44.34615445084287" lon="10.99555643552781"><ele>748.3333333333334</ele><time>2026-04-28T07:53:34.875Z</time></trkpt><trkpt lat="44.346072732619156" lon="10.995581478690832"><ele>748.5</ele><time>2026-04-28T07:53:35.875Z</time></trkpt><trkpt lat="44.34599717861695" lon="10.995595208228453"><ele>748.6666666666666</ele><time>2026-04-28T07:53:36.875Z</time></trkpt><trkpt lat="44.34593060603156" lon="10.9956147601266"><ele>748.8333333333333</ele><time>2026-04-28T07:53:37.875Z</time></trkpt><trkpt lat="44.34581469354912" lon="10.995652846102793"><ele>749.0</ele><time>2026-04-28T07:53:39.875Z</time></trkpt><trkpt lat="44.34571479613634" lon="10.995674207902539"><ele>749.0</ele><time>2026-04-28T07:53:41.875Z</time></trkpt><trkpt lat="44.34560632150243" lon="10.995693127441484"><ele>749.0</ele><time>2026-04-28T07:53:43.875Z</time></trkpt><trkpt lat="44.34548866708675" lon="10.995701628421282"><ele>749.0</ele><time>2026-04-28T07:53:45.875Z</time></trkpt><trkpt lat="44.345379352915565" lon="10.995751516098897"><ele>749.0</ele><time>2026-04-28T07:53:47.875Z</time></trkpt><trkpt lat="44.34528377307953" lon="10.995759122291851"><ele>749.0</ele><time>2026-04-28T07:53:49.875Z</time></trkpt><trkpt lat="44.345195531447516" lon="10.99564702549567"><ele>752.0</ele><time>2026-04-28T07:53:51.875Z</time></trkpt><trkpt lat="44.345145277948575" lon="10.995582893359932"><ele>755.0</ele><time>2026-04-28T07:53:52.875Z</time></trkpt><trkpt lat="44.34506843013699" lon="10.995512842375618"><ele>758.0</ele><time>2026-04-28T07:53:54.875Z</time></trkpt><trkpt lat="44.34496128262389" lon="10.995475597530458"><ele>761.0</ele><time>2026-04-28T07:53:57.875Z</time></trkpt><trkpt lat="44.34490059401191" lon="10.995425152038559"><ele>764.0</ele><time>2026-04-28T07:53:59.875Z</time></trkpt><trkpt lat="44.34490273558888" lon="10.995328232665333"><ele>767.0</ele><time>2026-04-28T07:54:02.875Z</time></trkpt><trkpt lat="44.3449436451059" lon="10.995243491411713"><ele>767.0</ele><time>2026-04-28T07:54:28.874Z</time></trkpt><trkpt lat="44.34489268681775" lon="10.995187515150473"><ele>767.0</ele><time>2026-04-28T07:55:44.873Z</time></trkpt><trkpt lat="44.34493355811634" lon="10.995274655088128"><ele>767.0</ele><time>2026-04-28T07:56:43.872Z</time></trkpt><trkpt lat="44.344821417525054" lon="10.995311209249993"><ele>767.0</ele><time>2026-04-28T07:57:24.871Z</time></trkpt><trkpt lat="44.345199754432656" lon="10.99570183619028"><ele>767.0</ele><time>2026-04-28T07:57:28.871Z</time></trkpt><trkpt lat="44.345276278049845" lon="10.99576445525549"><ele>767.0</ele><time>2026-04-28T07:57:30.87Z</time></trkpt><trkpt lat="44.345357624116765" lon="10.995817488518952"><ele>767.0</ele><time>2026-04-28T07:57:42.869Z</time></trkpt><trkpt lat="44.34543486847312" lon="10.995772352787222"><ele>767.0</ele><time>2026-04-28T07:57:43.87Z</time></trkpt><trkpt lat="44.34554889259958" lon="10.995743878069067"><ele>767.0</ele><time>2026-04-28T07:57:44.87Z</time></trkpt><trkpt lat="44.34568387328046" lon="10.995722396522412"><ele>761.0</ele><time>2026-04-28T07:57:45.87Z</time></trkpt><trkpt lat="44.34583362610151" lon="10.995669361348334"><ele>755.0</ele><time>2026-04-28T07:57:46.87Z</time></trkpt><trkpt lat="44.34599631197996" lon="10.995637329607813"><ele>749.0</ele><time>2026-04-28T07:57:47.87Z</time></trkpt><trkpt lat="44.34617375703401" lon="10.995596603417132"><ele>749.0</ele><time>2026-04-28T07:57:48.87Z</time></trkpt><trkpt lat="44.34634935829726" lon="10.995561925537075"><ele>749.0</ele><time>2026-04-28T07:57:49.87Z</time></trkpt><trkpt lat="44.34650579131104" lon="10.995531718653075"><ele>749.0</ele><time>2026-04-28T07:57:50.87Z</time></trkpt><trkpt lat="44.34665821047031" lon="10.995524075153252"><ele>748.75</ele><time>2026-04-28T07:57:51.87Z</time></trkpt><trkpt lat="44.346790409085955" lon="10.995481096762965"><ele>748.5</ele><time>2026-04-28T07:57:52.87Z</time></trkpt><trkpt lat="44.34691662287613" lon="10.995463618758755"><ele>748.25</ele><time>2026-04-28T07:57:53.87Z</time></trkpt><trkpt lat="44.34705155878118" lon="10.995439733740245"><ele>748.0</ele><time>2026-04-28T07:57:54.87Z</time></trkpt><trkpt lat="44.34719061379953" lon="10.995390545303856"><ele>748.75</ele><time>2026-04-28T07:57:55.87Z</time></trkpt><trkpt lat="44.34731890935353" lon="10.995319912633892"><ele>749.5</ele><time>2026-04-28T07:57:56.87Z</time></trkpt><trkpt lat="44.347437041013066" lon="10.995223172161174"><ele>750.25</ele><time>2026-04-28T07:57:57.87Z</time></trkpt><trkpt lat="44.34754975488894" lon="10.995080717311808"><ele>751.0</ele><time>2026-04-28T07:57:58.87Z</time></trkpt><trkpt lat="44.34765362351456" lon="10.994910864343131"><ele>751.0</ele><time>2026-04-28T07:57:59.869Z</time></trkpt><trkpt lat="44.347734875510525" lon="10.994695472731497"><ele>751.0</ele><time>2026-04-28T07:58:00.869Z</time></trkpt><trkpt lat="44.3478023480235" lon="10.994451716709712"><ele>751.0</ele><time>2026-04-28T07:58:01.869Z</time></trkpt><trkpt lat="44.347857414905725" lon="10.994225584669572"><ele>751.8</ele><time>2026-04-28T07:58:02.869Z</time></trkpt><trkpt lat="44.34791165470417" lon="10.994045922726412"><ele>752.5999999999999</ele><time>2026-04-28T07:58:03.869Z</time></trkpt><trkpt lat="44.34791470667697" lon="10.993915106702193"><ele>753.4</ele><time>2026-04-28T07:58:04.869Z</time></trkpt><trkpt lat="44.34792215385713" lon="10.993788839320176"><ele>754.2</ele><time>2026-04-28T07:58:06.869Z</time></trkpt><trkpt lat="44.34783743945" lon="10.99372024861152"><ele>755.0</ele><time>2026-04-28T07:58:08.869Z</time></trkpt><trkpt lat="44.34775274357437" lon="10.993673507324925"><ele>755.0</ele><time>2026-04-28T07:58:09.869Z</time></trkpt><trkpt lat="44.347684316880596" lon="10.993644337984806"><ele>755.0</ele><time>2026-04-28T07:58:10.869Z</time></trkpt><trkpt lat="44.34764436761015" lon="10.993559800897682"><ele>755.0</ele><time>2026-04-28T07:58:13.869Z</time></trkpt><trkpt lat="44.347692612227846" lon="10.993338592422157"><ele>755.0</ele><time>2026-04-28T07:58:15.869Z</time></trkpt><trkpt lat="44.347721951656986" lon="10.993172084126709"><ele>755.0</ele><time>2026-04-28T07:58:16.869Z</time></trkpt><trkpt lat="44.34775441476207" lon="10.9929183251106"><ele>755.0</ele><time>2026-04-28T07:58:17.869Z</time></trkpt><trkpt lat="44.347736065010444" lon="10.99265976815236"><ele>755.0</ele><time>2026-04-28T07:58:18.869Z</time></trkpt><trkpt lat="44.34776736383667" lon="10.992432911923926"><ele>755.0</ele><time>2026-04-28T07:58:19.869Z</time></trkpt><trkpt lat="44.347767809873204" lon="10.9922250409843"><ele>755.0</ele><time>2026-04-28T07:58:20.869Z</time></trkpt><trkpt lat="44.347784765837055" lon="10.992039497894108"><ele>755.0</ele><time>2026-04-28T07:58:21.869Z</time></trkpt><trkpt lat="44.34779611738747" lon="10.991868754734137"><ele>755.0</ele><time>2026-04-28T07:58:22.869Z</time></trkpt><trkpt lat="44.34778595744482" lon="10.991673534780293"><ele>755.0</ele><time>2026-04-28T07:58:23.869Z</time></trkpt><trkpt lat="44.34774489973067" lon="10.99144343319032"><ele>754.6666666666666</ele><time>2026-04-28T07:58:24.869Z</time></trkpt><trkpt lat="44.347701672690526" lon="10.991197795838495"><ele>754.3333333333334</ele><time>2026-04-28T07:58:25.869Z</time></trkpt><trkpt lat="44.3476710195464" lon="10.990913088616997"><ele>754.0</ele><time>2026-04-28T07:58:26.869Z</time></trkpt><trkpt lat="44.34763610549988" lon="10.9906142280194"><ele>754.0</ele><time>2026-04-28T07:58:27.869Z</time></trkpt><trkpt lat="44.347604541571954" lon="10.990311243375048"><ele>754.0</ele><time>2026-04-28T07:58:28.869Z</time></trkpt><trkpt lat="44.347595724507066" lon="10.98999291021958"><ele>754.0</ele><time>2026-04-28T07:58:29.869Z</time></trkpt><trkpt lat="44.347578511163285" lon="10.989694737439946"><ele>754.0</ele><time>2026-04-28T07:58:30.869Z</time></trkpt><trkpt lat="44.34756511686638" lon="10.989445893200859"><ele>754.0</ele><time>2026-04-28T07:58:31.869Z</time></trkpt><trkpt lat="44.34757606783214" lon="10.98924609697777"><ele>754.0</ele><time>2026-04-28T07:58:32.869Z</time></trkpt><trkpt lat="44.34760431648336" lon="10.989050571089386"><ele>753.4000000000001</ele><time>2026-04-28T07:58:33.869Z</time></trkpt><trkpt lat="44.34764518625009" lon="10.988861994211476"><ele>752.8</ele><time>2026-04-28T07:58:34.869Z</time></trkpt><trkpt lat="44.347696254509096" lon="10.988710688758113"><ele>752.2</ele><time>2026-04-28T07:58:35.869Z</time></trkpt><trkpt lat="44.34773166225009" lon="10.988583812188102"><ele>751.5999999999999</ele><time>2026-04-28T07:58:36.869Z</time></trkpt><trkpt lat="44.347752895982495" lon="10.988493294754258"><ele>751.0</ele><time>2026-04-28T07:58:37.869Z</time></trkpt><trkpt lat="44.347767421498105" lon="10.988345191518462"><ele>749.5</ele><time>2026-04-28T07:58:39.869Z</time></trkpt><trkpt lat="44.34777852174592" lon="10.988239485134804"><ele>748.0</ele><time>2026-04-28T07:58:41.869Z</time></trkpt><trkpt lat="44.347841240056255" lon="10.988200901535677"><ele>746.5</ele><time>2026-04-28T07:59:54.865Z</time></trkpt><trkpt lat="44.34786592915229" lon="10.988045260126926"><ele>745.0</ele><time>2026-04-28T08:01:16.863Z</time></trkpt><trkpt lat="44.347929644857096" lon="10.988021423414962"><ele>743.5</ele><time>2026-04-28T08:01:19.863Z</time></trkpt><trkpt lat="44.347899305455876" lon="10.988173596763417"><ele>742.0</ele><time>2026-04-28T08:01:21.863Z</time></trkpt><trkpt lat="44.347827947717064" lon="10.98829767920686"><ele>744.25</ele><time>2026-04-28T08:01:22.863Z</time></trkpt><trkpt lat="44.34778475115912" lon="10.988430711647233"><ele>746.5</ele><time>2026-04-28T08:01:23.863Z</time></trkpt><trkpt lat="44.347712535504776" lon="10.988601515421843"><ele>748.75</ele><time>2026-04-28T08:01:24.863Z</time></trkpt><trkpt lat="44.34764297367018" lon="10.988805516163596"><ele>751.0</ele><time>2026-04-28T08:01:25.863Z</time></trkpt><trkpt lat="44.347563450727385" lon="10.989012449611515"><ele>752.0</ele><time>2026-04-28T08:01:26.863Z</time></trkpt><trkpt lat="44.34753288849653" lon="10.989258399789334"><ele>753.0</ele><time>2026-04-28T08:01:27.863Z</time></trkpt><trkpt lat="44.347535858987584" lon="10.989517938734194"><ele>754.0</ele><time>2026-04-28T08:01:28.863Z</time></trkpt><trkpt lat="44.34754911449737" lon="10.98979441079597"><ele>755.0</ele><time>2026-04-28T08:01:29.863Z</time></trkpt><trkpt lat="44.34756511338034" lon="10.990075107446321"><ele>756.0</ele><time>2026-04-28T08:01:30.863Z</time></trkpt><trkpt lat="44.347598523570866" lon="10.990364958150781"><ele>757.0</ele><time>2026-04-28T08:01:31.863Z</time></trkpt><trkpt lat="44.3476080680043" lon="10.990653586423793"><ele>756.0</ele><time>2026-04-28T08:01:32.863Z</time></trkpt><trkpt lat="44.347653719862144" lon="10.990922758892884"><ele>755.0</ele><time>2026-04-28T08:01:33.863Z</time></trkpt><trkpt lat="44.347665580522744" lon="10.991166555568073"><ele>754.0</ele><time>2026-04-28T08:01:34.863Z</time></trkpt><trkpt lat="44.347684081509406" lon="10.991413634446818"><ele>754.3333333333334</ele><time>2026-04-28T08:01:35.863Z</time></trkpt><trkpt lat="44.34768364724372" lon="10.991688769622638"><ele>754.6666666666666</ele><time>2026-04-28T08:01:36.863Z</time></trkpt><trkpt lat="44.34767685324312" lon="10.991975277296872"><ele>755.0</ele><time>2026-04-28T08:01:37.863Z</time></trkpt><trkpt lat="44.34767163629357" lon="10.992267117378999"><ele>756.3333333333333</ele><time>2026-04-28T08:01:38.863Z</time></trkpt><trkpt lat="44.34765402370973" lon="10.99253801621237"><ele>757.6666666666666</ele><time>2026-04-28T08:01:39.863Z</time></trkpt><trkpt lat="44.34764053001778" lon="10.992772665849554"><ele>759.0</ele><time>2026-04-28T08:01:40.863Z</time></trkpt><trkpt lat="44.34762566133009" lon="10.992976895432617"><ele>759.0</ele><time>2026-04-28T08:01:41.863Z</time></trkpt><trkpt lat="44.347618671091666" lon="10.993165925858914"><ele>759.0</ele><time>2026-04-28T08:01:42.864Z</time></trkpt><trkpt lat="44.34761176589495" lon="10.993305459080098"><ele>759.0</ele><time>2026-04-28T08:01:43.863Z</time></trkpt><trkpt lat="44.34760757941229" lon="10.993401859726575"><ele>759.0</ele><time>2026-04-28T08:01:44.863Z</time></trkpt><trkpt lat="44.34759238912835" lon="10.993540326493122"><ele>759.0</ele><time>2026-04-28T08:01:47.863Z</time></trkpt><trkpt lat="44.34774304059581" lon="10.99372899712997"><ele>758.2</ele><time>2026-04-28T08:01:49.863Z</time></trkpt><trkpt lat="44.347811170087795" lon="10.993782415346827"><ele>757.4000000000001</ele><time>2026-04-28T08:01:50.863Z</time></trkpt><trkpt lat="44.347860434847334" lon="10.99387894849859"><ele>756.6</ele><time>2026-04-28T08:01:51.863Z</time></trkpt><trkpt lat="44.34785915815743" lon="10.99403546850528"><ele>755.8</ele><time>2026-04-28T08:01:52.862Z</time></trkpt><trkpt lat="44.34783265815098" lon="10.99422149804599"><ele>755.0</ele><time>2026-04-28T08:01:53.862Z</time></trkpt><trkpt lat="44.347775488700975" lon="10.994426653082801"><ele>753.6666666666666</ele><time>2026-04-28T08:01:54.863Z</time></trkpt><trkpt lat="44.347707324069574" lon="10.994638518446038"><ele>752.3333333333334</ele><time>2026-04-28T08:01:55.863Z</time></trkpt><trkpt lat="44.34763367373004" lon="10.994839706396691"><ele>751.0</ele><time>2026-04-28T08:01:56.863Z</time></trkpt><trkpt lat="44.347550209911766" lon="10.995015566346916"><ele>750.25</ele><time>2026-04-28T08:01:57.863Z</time></trkpt><trkpt lat="44.3474542601034" lon="10.995165537717371"><ele>749.5</ele><time>2026-04-28T08:01:58.863Z</time></trkpt><trkpt lat="44.347336124094035" lon="10.995280302085762"><ele>748.75</ele><time>2026-04-28T08:01:59.863Z</time></trkpt><trkpt lat="44.34720202772344" lon="10.99534138480965"><ele>748.0</ele><time>2026-04-28T08:02:00.863Z</time></trkpt><trkpt lat="44.34707272414501" lon="10.995389812524891"><ele>748.0</ele><time>2026-04-28T08:02:01.863Z</time></trkpt><trkpt lat="44.34694656679319" lon="10.995428603805191"><ele>748.0</ele><time>2026-04-28T08:02:02.863Z</time></trkpt><trkpt lat="44.34681430033064" lon="10.995456394385254"><ele>748.0</ele><time>2026-04-28T08:02:03.863Z</time></trkpt><trkpt lat="44.3466816712257" lon="10.995473670014595"><ele>748.0</ele><time>2026-04-28T08:02:04.863Z</time></trkpt><trkpt lat="44.346559193825115" lon="10.995495577554772"><ele>748.0</ele><time>2026-04-28T08:02:05.863Z</time></trkpt><trkpt lat="44.34643761300738" lon="10.995541112513147"><ele>748.0</ele><time>2026-04-28T08:02:06.863Z</time></trkpt><trkpt lat="44.34630556482996" lon="10.995543473185087"><ele>748.0</ele><time>2026-04-28T08:02:07.863Z</time></trkpt><trkpt lat="44.34618852923612" lon="10.99558786067212"><ele>748.0</ele><time>2026-04-28T08:02:08.863Z</time></trkpt><trkpt lat="44.346070940177476" lon="10.995610572497464"><ele>748.25</ele><time>2026-04-28T08:02:09.863Z</time></trkpt><trkpt lat="44.34595772151988" lon="10.995624508173211"><ele>748.5</ele><time>2026-04-28T08:02:10.863Z</time></trkpt><trkpt lat="44.34583603982649" lon="10.995642423294518"><ele>748.75</ele><time>2026-04-28T08:02:11.863Z</time></trkpt><trkpt lat="44.34571652325336" lon="10.995663821697237"><ele>749.0</ele><time>2026-04-28T08:02:12.863Z</time></trkpt><trkpt lat="44.345599112778686" lon="10.995690942043499"><ele>752.6</ele><time>2026-04-28T08:02:13.862Z</time></trkpt><trkpt lat="44.34550138829513" lon="10.99571825285256"><ele>756.2</ele><time>2026-04-28T08:02:14.862Z</time></trkpt><trkpt lat="44.34541703221449" lon="10.995738830095965"><ele>759.8000000000001</ele><time>2026-04-28T08:02:15.862Z</time></trkpt><trkpt lat="44.34535453412927" lon="10.99575617698138"><ele>763.4000000000001</ele><time>2026-04-28T08:02:16.862Z</time></trkpt><trkpt lat="44.34525915465253" lon="10.995775872853141"><ele>767.0</ele><time>2026-04-28T08:02:18.862Z</time></trkpt><trkpt lat="44.34518504743287" lon="10.995658583044062"><ele>767.0</ele><time>2026-04-28T08:02:20.862Z</time></trkpt><trkpt lat="44.34508214113788" lon="10.995555507093982"><ele>767.0</ele><time>2026-04-28T08:02:23.862Z</time></trkpt><trkpt lat="44.34502564019606" lon="10.995496867850159"><ele>767.0</ele><time>2026-04-28T08:02:24.862Z</time></trkpt><trkpt lat="44.344950540221284" lon="10.995450710066425"><ele>767.0</ele><time>2026-04-28T08:02:25.862Z</time></trkpt><trkpt lat="44.34489676069869" lon="10.99539230695334"><ele>767.0</ele><time>2026-04-28T08:02:28.862Z</time></trkpt><trkpt lat="44.34491059329539" lon="10.99529476087375"><ele>767.0</ele><time>2026-04-28T08:02:31.862Z</time></trkpt><trkpt lat="44.34490404448265" lon="10.995202774730075"><ele>766.25</ele><time>2026-04-28T08:03:29.861Z</time></trkpt><trkpt lat="44.34497926810777" lon="10.994837328428686"><ele>765.5</ele><time>2026-04-28T08:03:43.861Z</time></trkpt><trkpt lat="44.34495333502274" lon="10.994756275204988"><ele>764.75</ele><time>2026-04-28T08:03:45.861Z</time></trkpt><trkpt lat="44.344962162635305" lon="10.994633159697916"><ele>764.0</ele><time>2026-04-28T08:03:47.861Z</time></trkpt><trkpt lat="44.344951349364045" lon="10.994527489565797"><ele>764.0</ele><time>2026-04-28T08:03:49.86Z</time></trkpt><trkpt lat="44.34496795508782" lon="10.994434120801358"><ele>764.0</ele><time>2026-04-28T08:03:52.859Z</time></trkpt><trkpt lat="44.3450318501378" lon="10.994399436016606"><ele>764.0</ele><time>2026-04-28T08:03:55.86Z</time></trkpt><trkpt lat="44.34509956552368" lon="10.994370090609866"><ele>764.0</ele><time>2026-04-28T08:03:58.859Z</time></trkpt><trkpt lat="44.34515873386735" lon="10.994329028566936"><ele>764.0</ele><time>2026-04-28T08:04:01.86Z</time></trkpt><trkpt lat="44.34523822985968" lon="10.994307486544253"><ele>764.0</ele><time>2026-04-28T08:04:04.86Z</time></trkpt><trkpt lat="44.34530787250497" lon="10.994270417239433"><ele>764.0</ele><time>2026-04-28T08:04:06.86Z</time></trkpt><trkpt lat="44.34536571878636" lon="10.994216767081355"><ele>764.0</ele><time>2026-04-28T08:04:09.86Z</time></trkpt><trkpt lat="44.345456173029305" lon="10.994201271630837"><ele>764.0</ele><time>2026-04-28T08:04:12.86Z</time></trkpt><trkpt lat="44.345523109534696" lon="10.99417387962466"><ele>764.0</ele><time>2026-04-28T08:04:16.86Z</time></trkpt><trkpt lat="44.34559154022437" lon="10.994146011608056"><ele>764.0</ele><time>2026-04-28T08:04:18.86Z</time></trkpt><trkpt lat="44.345562549776126" lon="10.993856662180189"><ele>764.0</ele><time>2026-04-28T08:04:24.859Z</time></trkpt><trkpt lat="44.34546690844331" lon="10.993796890061466"><ele>762.8333333333333</ele><time>2026-04-28T08:04:26.859Z</time></trkpt><trkpt lat="44.345394869999495" lon="10.993754718936549"><ele>761.6666666666666</ele><time>2026-04-28T08:04:28.859Z</time></trkpt><trkpt lat="44.34532230404334" lon="10.993712238319237"><ele>760.5</ele><time>2026-04-28T08:04:30.859Z</time></trkpt><trkpt lat="44.34519377397792" lon="10.993686005895327"><ele>759.3333333333334</ele><time>2026-04-28T08:04:32.859Z</time></trkpt><trkpt lat="44.34511895366842" lon="10.993695017476512"><ele>758.1666666666667</ele><time>2026-04-28T08:04:33.859Z</time></trkpt><trkpt lat="44.34504221235017" lon="10.993708231356536"><ele>757.0</ele><time>2026-04-28T08:04:34.859Z</time></trkpt><trkpt lat="44.34496912228205" lon="10.993724604485749"><ele>757.0</ele><time>2026-04-28T08:04:35.859Z</time></trkpt><trkpt lat="44.34489369540484" lon="10.993746147896019"><ele>757.0</ele><time>2026-04-28T08:04:36.859Z</time></trkpt><trkpt lat="44.34481713013604" lon="10.993769172755712"><ele>757.0</ele><time>2026-04-28T08:04:37.859Z</time></trkpt><trkpt lat="44.34473985767761" lon="10.993790951941403"><ele>757.0</ele><time>2026-04-28T08:04:38.859Z</time></trkpt><trkpt lat="44.344660059339716" lon="10.9938118272129"><ele>757.0</ele><time>2026-04-28T08:04:39.859Z</time></trkpt><trkpt lat="44.34458069803496" lon="10.993832221826654"><ele>757.0</ele><time>2026-04-28T08:04:40.859Z</time></trkpt><trkpt lat="44.344492043354634" lon="10.993852256203137"><ele>755.8</ele><time>2026-04-28T08:04:41.859Z</time></trkpt><trkpt lat="44.34439360480193" lon="10.993868411343707"><ele>754.6</ele><time>2026-04-28T08:04:42.859Z</time></trkpt><trkpt lat="44.34429677300322" lon="10.9938733079638"><ele>753.4</ele><time>2026-04-28T08:04:43.859Z</time></trkpt><trkpt lat="44.34419737303925" lon="10.993879116767143"><ele>752.1999999999999</ele><time>2026-04-28T08:04:44.859Z</time></trkpt><trkpt lat="44.34409607571869" lon="10.993892171265781"><ele>751.0</ele><time>2026-04-28T08:04:45.859Z</time></trkpt><trkpt lat="44.343987894291956" lon="10.9938820245865"><ele>751.0</ele><time>2026-04-28T08:04:46.859Z</time></trkpt><trkpt lat="44.34388586698337" lon="10.99385695268177"><ele>751.0</ele><time>2026-04-28T08:04:47.859Z</time></trkpt><trkpt lat="44.34378039700741" lon="10.993819587330817"><ele>751.0</ele><time>2026-04-28T08:04:48.859Z</time></trkpt><trkpt lat="44.34367396366414" lon="10.993759904554787"><ele>751.0</ele><time>2026-04-28T08:04:49.859Z</time></trkpt><trkpt lat="44.343571811599475" lon="10.993684156053826"><ele>751.0</ele><time>2026-04-28T08:04:50.859Z</time></trkpt><trkpt lat="44.34347573847622" lon="10.993608334189707"><ele>749.8</ele><time>2026-04-28T08:04:51.859Z</time></trkpt><trkpt lat="44.34338823956427" lon="10.993512506696892"><ele>748.5999999999999</ele><time>2026-04-28T08:04:52.859Z</time></trkpt><trkpt lat="44.3433135869269" lon="10.993417450342458"><ele>747.4</ele><time>2026-04-28T08:04:53.859Z</time></trkpt><trkpt lat="44.343248917519404" lon="10.993322962833835"><ele>746.2</ele><time>2026-04-28T08:04:54.859Z</time></trkpt><trkpt lat="44.34317447537961" lon="10.993271823067102"><ele>745.0</ele><time>2026-04-28T08:04:55.859Z</time></trkpt><trkpt lat="44.343082222654644" lon="10.993286179510084"><ele>746.0</ele><time>2026-04-28T08:04:56.859Z</time></trkpt><trkpt lat="44.34298891159463" lon="10.993328890028899"><ele>747.0</ele><time>2026-04-28T08:04:57.859Z</time></trkpt><trkpt lat="44.3429100766413" lon="10.993398217472757"><ele>748.0</ele><time>2026-04-28T08:04:58.859Z</time></trkpt><trkpt lat="44.3428190960686" lon="10.993487691364667"><ele>749.0</ele><time>2026-04-28T08:04:59.859Z</time></trkpt><trkpt lat="44.342735135249306" lon="10.993550377891282"><ele>750.0</ele><time>2026-04-28T08:05:00.859Z</time></trkpt><trkpt lat="44.34265787528791" lon="10.993590195564082"><ele>750.0</ele><time>2026-04-28T08:05:01.859Z</time></trkpt><trkpt lat="44.3425685049477" lon="10.993548698772491"><ele>750.0</ele><time>2026-04-28T08:05:02.859Z</time></trkpt><trkpt lat="44.34250903061401" lon="10.993462033561975"><ele>750.0</ele><time>2026-04-28T08:05:03.859Z</time></trkpt><trkpt lat="44.342445404985256" lon="10.993389945988916"><ele>750.0</ele><time>2026-04-28T08:05:04.859Z</time></trkpt><trkpt lat="44.34237808040133" lon="10.993295673058183"><ele>750.0</ele><time>2026-04-28T08:05:05.859Z</time></trkpt><trkpt lat="44.342316785523835" lon="10.99322630325847"><ele>750.0</ele><time>2026-04-28T08:05:06.859Z</time></trkpt><trkpt lat="44.34226358075591" lon="10.993144267785953"><ele>750.6</ele><time>2026-04-28T08:05:07.859Z</time></trkpt><trkpt lat="44.34221575028074" lon="10.993083229620607"><ele>751.2</ele><time>2026-04-28T08:05:08.859Z</time></trkpt><trkpt lat="44.34213671892255" lon="10.992973520120483"><ele>751.8</ele><time>2026-04-28T08:05:10.858Z</time></trkpt><trkpt lat="44.34204036044705" lon="10.992864761133093"><ele>752.4</ele><time>2026-04-28T08:05:12.858Z</time></trkpt><trkpt lat="44.34194908348764" lon="10.992755297462736"><ele>753.0</ele><time>2026-04-28T08:05:14.858Z</time></trkpt><trkpt lat="44.34186021354123" lon="10.992636433961579"><ele>753.0</ele><time>2026-04-28T08:05:16.858Z</time></trkpt><trkpt lat="44.341818890840024" lon="10.992565428144783"><ele>753.0</ele><time>2026-04-28T08:05:17.858Z</time></trkpt><trkpt lat="44.341759893773684" lon="10.992503380120873"><ele>753.0</ele><time>2026-04-28T08:05:18.858Z</time></trkpt><trkpt lat="44.34170304653356" lon="10.992427538673839"><ele>753.0</ele><time>2026-04-28T08:05:19.858Z</time></trkpt><trkpt lat="44.3416313171833" lon="10.992351014081477"><ele>753.0</ele><time>2026-04-28T08:05:20.858Z</time></trkpt><trkpt lat="44.34156506990098" lon="10.992270470900058"><ele>753.0</ele><time>2026-04-28T08:05:21.858Z</time></trkpt><trkpt lat="44.341496754906395" lon="10.992192844295491"><ele>749.8</ele><time>2026-04-28T08:05:22.859Z</time></trkpt><trkpt lat="44.34143183202788" lon="10.992108620956776"><ele>746.5999999999999</ele><time>2026-04-28T08:05:23.86Z</time></trkpt><trkpt lat="44.34135667216174" lon="10.992015400444634"><ele>743.4000000000001</ele><time>2026-04-28T08:05:24.861Z</time></trkpt><trkpt lat="44.341297678084075" lon="10.991938424629572"><ele>740.2</ele><time>2026-04-28T08:05:25.862Z</time></trkpt><trkpt lat="44.34122774699617" lon="10.991838064715857"><ele>737.0</ele><time>2026-04-28T08:05:26.863Z</time></trkpt><trkpt lat="44.34114912040262" lon="10.991749597039865"><ele>740.0</ele><time>2026-04-28T08:05:27.863Z</time></trkpt><trkpt lat="44.34107047147949" lon="10.991657787572068"><ele>743.0</ele><time>2026-04-28T08:05:28.864Z</time></trkpt><trkpt lat="44.340985100455875" lon="10.991564969598285"><ele>746.0</ele><time>2026-04-28T08:05:29.865Z</time></trkpt><trkpt lat="44.34089336017198" lon="10.991469310016473"><ele>749.0</ele><time>2026-04-28T08:05:30.865Z</time></trkpt><trkpt lat="44.340801425321644" lon="10.991378885327551"><ele>752.0</ele><time>2026-04-28T08:05:31.866Z</time></trkpt><trkpt lat="44.34070340815351" lon="10.991281009700915"><ele>752.0</ele><time>2026-04-28T08:05:32.867Z</time></trkpt><trkpt lat="44.34059955720872" lon="10.991180152007987"><ele>752.0</ele><time>2026-04-28T08:05:33.867Z</time></trkpt><trkpt lat="44.340501476040814" lon="10.991082631463906"><ele>752.0</ele><time>2026-04-28T08:05:34.868Z</time></trkpt><trkpt lat="44.34039476249211" lon="10.990986254454432"><ele>752.0</ele><time>2026-04-28T08:05:35.868Z</time></trkpt><trkpt lat="44.340286365473304" lon="10.990898907692412"><ele>751.25</ele><time>2026-04-28T08:05:36.868Z</time></trkpt><trkpt lat="44.34017411092163" lon="10.990813354004242"><ele>750.5</ele><time>2026-04-28T08:05:37.869Z</time></trkpt><trkpt lat="44.34006204487745" lon="10.990728929234601"><ele>749.75</ele><time>2026-04-28T08:05:38.869Z</time></trkpt><trkpt lat="44.339953150748215" lon="10.99063885330718"><ele>749.0</ele><time>2026-04-28T08:05:39.87Z</time></trkpt><trkpt lat="44.339841697447824" lon="10.990543058542091"><ele>749.0</ele><time>2026-04-28T08:05:40.87Z</time></trkpt><trkpt lat="44.3397396140486" lon="10.990448998274015"><ele>749.0</ele><time>2026-04-28T08:05:41.87Z</time></trkpt><trkpt lat="44.33963664860735" lon="10.990362360107275"><ele>749.0</ele><time>2026-04-28T08:05:42.87Z</time></trkpt><trkpt lat="44.33953832227211" lon="10.990277248053138"><ele>749.0</ele><time>2026-04-28T08:05:43.871Z</time></trkpt><trkpt lat="44.33943771987344" lon="10.990187450952726"><ele>748.8000000000001</ele><time>2026-04-28T08:05:44.871Z</time></trkpt><trkpt lat="44.33933855036578" lon="10.990096463756341"><ele>748.6</ele><time>2026-04-28T08:05:45.871Z</time></trkpt><trkpt lat="44.33924622532556" lon="10.990008430983668"><ele>748.4</ele><time>2026-04-28T08:05:46.871Z</time></trkpt><trkpt lat="44.339154228456316" lon="10.98992648687601"><ele>748.2</ele><time>2026-04-28T08:05:47.872Z</time></trkpt><trkpt lat="44.339068358751966" lon="10.989856053793044"><ele>748.0</ele><time>2026-04-28T08:05:48.872Z</time></trkpt><trkpt lat="44.33897859590601" lon="10.989785231980699"><ele>748.0</ele><time>2026-04-28T08:05:49.872Z</time></trkpt><trkpt lat="44.33888709825293" lon="10.989697676344502"><ele>748.0</ele><time>2026-04-28T08:05:50.872Z</time></trkpt><trkpt lat="44.33879368933991" lon="10.989618407667313"><ele>748.0</ele><time>2026-04-28T08:05:51.872Z</time></trkpt><trkpt lat="44.33868743975354" lon="10.989533667663311"><ele>748.0</ele><time>2026-04-28T08:05:52.872Z</time></trkpt><trkpt lat="44.338590025172934" lon="10.98944714916072"><ele>746.2</ele><time>2026-04-28T08:05:53.873Z</time></trkpt><trkpt lat="44.33849557304537" lon="10.989377674314818"><ele>744.4</ele><time>2026-04-28T08:05:54.872Z</time></trkpt><trkpt lat="44.33841209810571" lon="10.989309257671026"><ele>742.6</ele><time>2026-04-28T08:05:55.872Z</time></trkpt><trkpt lat="44.33832471659596" lon="10.989241672206093"><ele>740.8000000000001</ele><time>2026-04-28T08:05:56.872Z</time></trkpt><trkpt lat="44.33824661653907" lon="10.989156587604432"><ele>739.0</ele><time>2026-04-28T08:05:57.872Z</time></trkpt><trkpt lat="44.33816276688198" lon="10.989090233839681"><ele>739.0</ele><time>2026-04-28T08:05:58.873Z</time></trkpt><trkpt lat="44.338064502958446" lon="10.989046765364815"><ele>739.0</ele><time>2026-04-28T08:05:59.873Z</time></trkpt><trkpt lat="44.33794607733086" lon="10.989023680165358"><ele>739.0</ele><time>2026-04-28T08:06:00.873Z</time></trkpt><trkpt lat="44.33783629775373" lon="10.989028830520983"><ele>739.0</ele><time>2026-04-28T08:06:01.872Z</time></trkpt><trkpt lat="44.33774051445097" lon="10.989017834401514"><ele>739.0</ele><time>2026-04-28T08:06:02.872Z</time></trkpt><trkpt lat="44.337641149526156" lon="10.989029466502272"><ele>740.8000000000001</ele><time>2026-04-28T08:06:03.873Z</time></trkpt><trkpt lat="44.33753734896133" lon="10.989062810984326"><ele>742.6</ele><time>2026-04-28T08:06:04.872Z</time></trkpt><trkpt lat="44.3374326935797" lon="10.989034846130796"><ele>744.4</ele><time>2026-04-28T08:06:05.873Z</time></trkpt><trkpt lat="44.33732630921143" lon="10.988981092970917"><ele>746.2</ele><time>2026-04-28T08:06:06.873Z</time></trkpt><trkpt lat="44.3372297222379" lon="10.988911061051223"><ele>748.0</ele><time>2026-04-28T08:06:07.872Z</time></trkpt><trkpt lat="44.337130692596396" lon="10.98883008993948"><ele>748.0</ele><time>2026-04-28T08:06:08.872Z</time></trkpt><trkpt lat="44.33704868288996" lon="10.988718684952467"><ele>748.0</ele><time>2026-04-28T08:06:09.872Z</time></trkpt><trkpt lat="44.33698721221943" lon="10.988584207907929"><ele>748.0</ele><time>2026-04-28T08:06:10.872Z</time></trkpt><trkpt lat="44.33693214015631" lon="10.98844721762545"><ele>748.0</ele><time>2026-04-28T08:06:11.872Z</time></trkpt><trkpt lat="44.3368665368112" lon="10.988335949507244"><ele>748.0</ele><time>2026-04-28T08:06:12.872Z</time></trkpt><trkpt lat="44.336792763938824" lon="10.98823710920878"><ele>747.8</ele><time>2026-04-28T08:06:13.873Z</time></trkpt><trkpt lat="44.336720596785014" lon="10.988128680761088"><ele>747.5999999999999</ele><time>2026-04-28T08:06:14.873Z</time></trkpt><trkpt lat="44.336643609481406" lon="10.988037810494749"><ele>747.4000000000001</ele><time>2026-04-28T08:06:15.873Z</time></trkpt><trkpt lat="44.33656711803811" lon="10.987949051624563"><ele>747.2</ele><time>2026-04-28T08:06:16.873Z</time></trkpt><trkpt lat="44.33649657515871" lon="10.987857007540622"><ele>747.0</ele><time>2026-04-28T08:06:17.873Z</time></trkpt><trkpt lat="44.336430156108605" lon="10.987772041190563"><ele>747.8</ele><time>2026-04-28T08:06:18.873Z</time></trkpt><trkpt lat="44.336373499281734" lon="10.98769942367159"><ele>748.6</ele><time>2026-04-28T08:06:19.873Z</time></trkpt><trkpt lat="44.33630556681229" lon="10.987645790633515"><ele>749.4</ele><time>2026-04-28T08:06:20.873Z</time></trkpt><trkpt lat="44.33621179520163" lon="10.987587708686448"><ele>750.1999999999999</ele><time>2026-04-28T08:06:21.873Z</time></trkpt><trkpt lat="44.33610364032615" lon="10.98755226785245"><ele>751.0</ele><time>2026-04-28T08:06:22.873Z</time></trkpt><trkpt lat="44.336006372299074" lon="10.987537472812262"><ele>751.0</ele><time>2026-04-28T08:06:23.873Z</time></trkpt><trkpt lat="44.33590765139459" lon="10.987525143924572"><ele>751.0</ele><time>2026-04-28T08:06:24.873Z</time></trkpt><trkpt lat="44.335806466406886" lon="10.987531075337916"><ele>751.0</ele><time>2026-04-28T08:06:25.873Z</time></trkpt><trkpt lat="44.33570818361925" lon="10.987548754571362"><ele>751.0</ele><time>2026-04-28T08:06:26.873Z</time></trkpt><trkpt lat="44.33561678946352" lon="10.987585423443889"><ele>751.0</ele><time>2026-04-28T08:06:27.873Z</time></trkpt><trkpt lat="44.33552342672389" lon="10.987651068200655"><ele>749.8</ele><time>2026-04-28T08:06:28.873Z</time></trkpt><trkpt lat="44.33544773101451" lon="10.987737262841229"><ele>748.5999999999999</ele><time>2026-04-28T08:06:29.873Z</time></trkpt><trkpt lat="44.33537270470287" lon="10.987841573186277"><ele>747.4</ele><time>2026-04-28T08:06:30.873Z</time></trkpt><trkpt lat="44.335298835553544" lon="10.987944297910346"><ele>746.2</ele><time>2026-04-28T08:06:31.873Z</time></trkpt><trkpt lat="44.33521050109668" lon="10.988038756327326"><ele>745.0</ele><time>2026-04-28T08:06:32.873Z</time></trkpt><trkpt lat="44.335131296391346" lon="10.988150932596414"><ele>745.0</ele><time>2026-04-28T08:06:33.873Z</time></trkpt><trkpt lat="44.335049692146725" lon="10.988270771762116"><ele>745.0</ele><time>2026-04-28T08:06:34.873Z</time></trkpt><trkpt lat="44.334974659160615" lon="10.98838590562687"><ele>745.0</ele><time>2026-04-28T08:06:35.873Z</time></trkpt><trkpt lat="44.33490887074231" lon="10.988506705971792"><ele>745.0</ele><time>2026-04-28T08:06:36.873Z</time></trkpt><trkpt lat="44.33484014871606" lon="10.988626434308319"><ele>745.0</ele><time>2026-04-28T08:06:37.873Z</time></trkpt><trkpt lat="44.33477114400613" lon="10.988727787135437"><ele>746.8</ele><time>2026-04-28T08:06:38.873Z</time></trkpt><trkpt lat="44.3346804395626" lon="10.9887815019626"><ele>748.6</ele><time>2026-04-28T08:06:39.873Z</time></trkpt><trkpt lat="44.334591628212785" lon="10.988791637635302"><ele>750.4000000000001</ele><time>2026-04-28T08:06:40.873Z</time></trkpt><trkpt lat="44.33449985027091" lon="10.988748176701524"><ele>752.2</ele><time>2026-04-28T08:06:41.873Z</time></trkpt><trkpt lat="44.3344403950196" lon="10.988661198047941"><ele>754.0</ele><time>2026-04-28T08:06:42.873Z</time></trkpt><trkpt lat="44.334433971584566" lon="10.988540764528008"><ele>754.0</ele><time>2026-04-28T08:06:43.873Z</time></trkpt><trkpt lat="44.33441694468512" lon="10.988411767887992"><ele>754.0</ele><time>2026-04-28T08:06:44.873Z</time></trkpt><trkpt lat="44.33440546714042" lon="10.988283989112828"><ele>754.0</ele><time>2026-04-28T08:06:45.873Z</time></trkpt><trkpt lat="44.33435917990337" lon="10.988141462813246"><ele>754.0</ele><time>2026-04-28T08:06:46.873Z</time></trkpt><trkpt lat="44.334278983838544" lon="10.987999374599346"><ele>754.0</ele><time>2026-04-28T08:06:47.872Z</time></trkpt><trkpt lat="44.33418627372573" lon="10.9878935922651"><ele>754.0</ele><time>2026-04-28T08:06:48.872Z</time></trkpt><trkpt lat="44.3340941346604" lon="10.987806098648083"><ele>754.0</ele><time>2026-04-28T08:06:49.872Z</time></trkpt><trkpt lat="44.3339809305085" lon="10.98774850806164"><ele>754.0</ele><time>2026-04-28T08:06:50.872Z</time></trkpt><trkpt lat="44.33385949410064" lon="10.987730549796861"><ele>754.0</ele><time>2026-04-28T08:06:51.872Z</time></trkpt><trkpt lat="44.333736924755975" lon="10.987757962879448"><ele>754.0</ele><time>2026-04-28T08:06:52.872Z</time></trkpt><trkpt lat="44.333621873363384" lon="10.987803505746458"><ele>754.0</ele><time>2026-04-28T08:06:53.872Z</time></trkpt><trkpt lat="44.33351805503285" lon="10.987844216961015"><ele>754.0</ele><time>2026-04-28T08:06:54.872Z</time></trkpt><trkpt lat="44.333400049693665" lon="10.987857739969241"><ele>754.0</ele><time>2026-04-28T08:06:55.872Z</time></trkpt><trkpt lat="44.333300198475186" lon="10.987822195198317"><ele>754.0</ele><time>2026-04-28T08:06:56.872Z</time></trkpt><trkpt lat="44.33321042120626" lon="10.987758540731377"><ele>754.0</ele><time>2026-04-28T08:06:57.872Z</time></trkpt><trkpt lat="44.333132217152844" lon="10.987644662854159"><ele>754.0</ele><time>2026-04-28T08:06:58.872Z</time></trkpt><trkpt lat="44.33308165562881" lon="10.987474613834314"><ele>754.0</ele><time>2026-04-28T08:06:59.872Z</time></trkpt><trkpt lat="44.333043557040774" lon="10.987276624642849"><ele>754.0</ele><time>2026-04-28T08:07:00.872Z</time></trkpt><trkpt lat="44.333015113651044" lon="10.98709349474642"><ele>755.2</ele><time>2026-04-28T08:07:01.872Z</time></trkpt><trkpt lat="44.33298617025594" lon="10.98691965184845"><ele>756.4000000000001</ele><time>2026-04-28T08:07:02.872Z</time></trkpt><trkpt lat="44.332968128983865" lon="10.986755392044934"><ele>757.6</ele><time>2026-04-28T08:07:03.872Z</time></trkpt><trkpt lat="44.33294405146936" lon="10.986610308105808"><ele>758.8</ele><time>2026-04-28T08:07:04.872Z</time></trkpt><trkpt lat="44.332900055635946" lon="10.986497174730067"><ele>760.0</ele><time>2026-04-28T08:07:05.872Z</time></trkpt><trkpt lat="44.33282866883215" lon="10.986401406256107"><ele>760.0</ele><time>2026-04-28T08:07:06.872Z</time></trkpt><trkpt lat="44.33273578573911" lon="10.986331977384506"><ele>760.0</ele><time>2026-04-28T08:07:07.872Z</time></trkpt><trkpt lat="44.33261516198813" lon="10.986294569467038"><ele>760.0</ele><time>2026-04-28T08:07:08.872Z</time></trkpt><trkpt lat="44.332495478213325" lon="10.986263538228258"><ele>760.0</ele><time>2026-04-28T08:07:09.872Z</time></trkpt><trkpt lat="44.3323830928701" lon="10.986202610626895"><ele>760.0</ele><time>2026-04-28T08:07:10.872Z</time></trkpt><trkpt lat="44.33228833041174" lon="10.986095477697722"><ele>760.0</ele><time>2026-04-28T08:07:11.872Z</time></trkpt><trkpt lat="44.3322076617733" lon="10.98597826042621"><ele>760.0</ele><time>2026-04-28T08:07:12.872Z</time></trkpt><trkpt lat="44.33214988658779" lon="10.985844613197344"><ele>760.0</ele><time>2026-04-28T08:07:13.872Z</time></trkpt><trkpt lat="44.33213027840598" lon="10.985689643294483"><ele>762.75</ele><time>2026-04-28T08:07:14.872Z</time></trkpt><trkpt lat="44.33214637019534" lon="10.985540536688589"><ele>765.5</ele><time>2026-04-28T08:07:15.872Z</time></trkpt><trkpt lat="44.33216737834334" lon="10.985374394905987"><ele>768.25</ele><time>2026-04-28T08:07:16.872Z</time></trkpt><trkpt lat="44.33218033702225" lon="10.985190058928188"><ele>771.0</ele><time>2026-04-28T08:07:17.872Z</time></trkpt><trkpt lat="44.33220457436676" lon="10.985028501228342"><ele>770.1999999999999</ele><time>2026-04-28T08:07:18.872Z</time></trkpt><trkpt lat="44.33219225668215" lon="10.984873938053898"><ele>769.4</ele><time>2026-04-28T08:07:19.872Z</time></trkpt><trkpt lat="44.33216199423908" lon="10.984727841531702"><ele>768.6</ele><time>2026-04-28T08:07:20.872Z</time></trkpt><trkpt lat="44.33211354560714" lon="10.984603533021419"><ele>767.8</ele><time>2026-04-28T08:07:21.872Z</time></trkpt><trkpt lat="44.33202865489038" lon="10.98450761647796"><ele>767.0</ele><time>2026-04-28T08:07:22.872Z</time></trkpt><trkpt lat="44.33195447180208" lon="10.984398986139496"><ele>767.0</ele><time>2026-04-28T08:07:23.872Z</time></trkpt><trkpt lat="44.33182450258737" lon="10.984381013998"><ele>767.0</ele><time>2026-04-28T08:07:24.872Z</time></trkpt><trkpt lat="44.33170745514328" lon="10.984342078528009"><ele>767.0</ele><time>2026-04-28T08:07:25.872Z</time></trkpt><trkpt lat="44.3315808998503" lon="10.984310035788132"><ele>767.0</ele><time>2026-04-28T08:07:26.872Z</time></trkpt><trkpt lat="44.3314530486109" lon="10.984281522640302"><ele>767.0</ele><time>2026-04-28T08:07:27.872Z</time></trkpt><trkpt lat="44.33133732437065" lon="10.984266693271563"><ele>767.0</ele><time>2026-04-28T08:07:28.872Z</time></trkpt><trkpt lat="44.331222923040436" lon="10.98425142793106"><ele>767.0</ele><time>2026-04-28T08:07:29.872Z</time></trkpt><trkpt lat="44.33111109927776" lon="10.984224434705009"><ele>767.0</ele><time>2026-04-28T08:07:30.872Z</time></trkpt><trkpt lat="44.33100878526158" lon="10.984198399664987"><ele>767.0</ele><time>2026-04-28T08:07:31.872Z</time></trkpt><trkpt lat="44.330919137216156" lon="10.984149336733758"><ele>766.3333333333333</ele><time>2026-04-28T08:07:32.872Z</time></trkpt><trkpt lat="44.330832759517385" lon="10.984114799140547"><ele>765.6666666666666</ele><time>2026-04-28T08:07:33.872Z</time></trkpt><trkpt lat="44.33075385411562" lon="10.984072876011911"><ele>765.0</ele><time>2026-04-28T08:07:34.872Z</time></trkpt><trkpt lat="44.33067735508513" lon="10.984025860092636"><ele>764.3333333333334</ele><time>2026-04-28T08:07:35.872Z</time></trkpt><trkpt lat="44.33060335534282" lon="10.983966924682697"><ele>763.6666666666667</ele><time>2026-04-28T08:07:36.872Z</time></trkpt><trkpt lat="44.33053930914431" lon="10.98389251727501"><ele>763.0</ele><time>2026-04-28T08:07:37.872Z</time></trkpt><trkpt lat="44.33047948217592" lon="10.983811749733482"><ele>762.0</ele><time>2026-04-28T08:07:38.872Z</time></trkpt><trkpt lat="44.33042383704307" lon="10.98371941211915"><ele>761.0</ele><time>2026-04-28T08:07:39.872Z</time></trkpt><trkpt lat="44.33037419284264" lon="10.983612692485082"><ele>760.0</ele><time>2026-04-28T08:07:40.872Z</time></trkpt><trkpt lat="44.33032690808594" lon="10.983507598511391"><ele>759.0</ele><time>2026-04-28T08:07:41.872Z</time></trkpt><trkpt lat="44.33028274430733" lon="10.983399229512624"><ele>758.0</ele><time>2026-04-28T08:07:42.872Z</time></trkpt><trkpt lat="44.33023355759158" lon="10.983293229724595"><ele>757.0</ele><time>2026-04-28T08:07:43.872Z</time></trkpt><trkpt lat="44.330169864614625" lon="10.98317685270222"><ele>756.2</ele><time>2026-04-28T08:07:44.872Z</time></trkpt><trkpt lat="44.33010553356495" lon="10.983054029782492"><ele>755.4000000000001</ele><time>2026-04-28T08:07:45.872Z</time></trkpt><trkpt lat="44.33004630701473" lon="10.982921189205625"><ele>754.5999999999999</ele><time>2026-04-28T08:07:46.872Z</time></trkpt><trkpt lat="44.32998278155217" lon="10.982785430245514"><ele>753.8</ele><time>2026-04-28T08:07:47.872Z</time></trkpt><trkpt lat="44.32993255464974" lon="10.982656365588433"><ele>753.0</ele><time>2026-04-28T08:07:48.872Z</time></trkpt><trkpt lat="44.32987758618101" lon="10.982522656736482"><ele>754.5</ele><time>2026-04-28T08:07:49.872Z</time></trkpt><trkpt lat="44.32981560388381" lon="10.982402675762089"><ele>756.0</ele><time>2026-04-28T08:07:50.871Z</time></trkpt><trkpt lat="44.32972924465658" lon="10.982272392946587"><ele>757.5</ele><time>2026-04-28T08:07:51.871Z</time></trkpt><trkpt lat="44.329656174821146" lon="10.982147871710717"><ele>759.0</ele><time>2026-04-28T08:07:52.871Z</time></trkpt><trkpt lat="44.329571145880585" lon="10.982054334621898"><ele>753.5</ele><time>2026-04-28T08:07:53.871Z</time></trkpt><trkpt lat="44.32946927677037" lon="10.981986786985736"><ele>748.0</ele><time>2026-04-28T08:07:54.871Z</time></trkpt><trkpt lat="44.32935684042818" lon="10.98193414995912"><ele>742.5</ele><time>2026-04-28T08:07:55.871Z</time></trkpt><trkpt lat="44.32925718875332" lon="10.981887899370513"><ele>737.0</ele><time>2026-04-28T08:07:56.871Z</time></trkpt><trkpt lat="44.329144751740984" lon="10.981836712366382"><ele>737.0</ele><time>2026-04-28T08:07:57.871Z</time></trkpt><trkpt lat="44.32905113811607" lon="10.981755212386675"><ele>737.0</ele><time>2026-04-28T08:07:58.871Z</time></trkpt><trkpt lat="44.32895032497229" lon="10.981670038849243"><ele>737.0</ele><time>2026-04-28T08:07:59.871Z</time></trkpt><trkpt lat="44.32884070506847" lon="10.981581037108716"><ele>737.0</ele><time>2026-04-28T08:08:00.872Z</time></trkpt><trkpt lat="44.32873659818346" lon="10.981466103212409"><ele>737.75</ele><time>2026-04-28T08:08:01.872Z</time></trkpt><trkpt lat="44.32863256568939" lon="10.981364725384442"><ele>738.5</ele><time>2026-04-28T08:08:02.872Z</time></trkpt><trkpt lat="44.32853025874023" lon="10.981258644557416"><ele>739.25</ele><time>2026-04-28T08:08:03.871Z</time></trkpt><trkpt lat="44.32842186747572" lon="10.981172306575587"><ele>740.0</ele><time>2026-04-28T08:08:04.871Z</time></trkpt><trkpt lat="44.32831061604096" lon="10.981091812368376"><ele>740.0</ele><time>2026-04-28T08:08:05.871Z</time></trkpt><trkpt lat="44.32819578851007" lon="10.981016476640805"><ele>740.0</ele><time>2026-04-28T08:08:06.871Z</time></trkpt><trkpt lat="44.32808742682127" lon="10.98095838270512"><ele>740.0</ele><time>2026-04-28T08:08:07.871Z</time></trkpt><trkpt lat="44.327990390196305" lon="10.980889630214392"><ele>740.0</ele><time>2026-04-28T08:08:08.871Z</time></trkpt><trkpt lat="44.32791532818192" lon="10.980827373732945"><ele>740.0</ele><time>2026-04-28T08:08:09.871Z</time></trkpt><trkpt lat="44.32787379855477" lon="10.9807456329443"><ele>738.6</ele><time>2026-04-28T08:08:10.871Z</time></trkpt><trkpt lat="44.32787392628274" lon="10.980631514457817"><ele>737.2</ele><time>2026-04-28T08:08:11.871Z</time></trkpt><trkpt lat="44.32791892229559" lon="10.980518773060613"><ele>735.8</ele><time>2026-04-28T08:08:12.871Z</time></trkpt><trkpt lat="44.32799857183264" lon="10.980417089419236"><ele>734.4</ele><time>2026-04-28T08:08:13.871Z</time></trkpt><trkpt lat="44.32808191756642" lon="10.98031684698748"><ele>733.0</ele><time>2026-04-28T08:08:14.871Z</time></trkpt><trkpt lat="44.328149632432925" lon="10.980188312204351"><ele>735.8</ele><time>2026-04-28T08:08:15.871Z</time></trkpt><trkpt lat="44.328194573258315" lon="10.980053984330775"><ele>738.5999999999999</ele><time>2026-04-28T08:08:16.871Z</time></trkpt><trkpt lat="44.32823234570701" lon="10.979922236394767"><ele>741.4000000000001</ele><time>2026-04-28T08:08:17.871Z</time></trkpt><trkpt lat="44.32825731548117" lon="10.979780946620162"><ele>744.2</ele><time>2026-04-28T08:08:18.871Z</time></trkpt><trkpt lat="44.328260920215584" lon="10.979639553483397"><ele>747.0</ele><time>2026-04-28T08:08:19.871Z</time></trkpt><trkpt lat="44.32825749294797" lon="10.97946853688415"><ele>747.0</ele><time>2026-04-28T08:08:20.871Z</time></trkpt><trkpt lat="44.328237150310045" lon="10.979328718610093"><ele>747.0</ele><time>2026-04-28T08:08:21.871Z</time></trkpt><trkpt lat="44.328215103608535" lon="10.979179899200867"><ele>747.0</ele><time>2026-04-28T08:08:22.871Z</time></trkpt><trkpt lat="44.32820476483603" lon="10.979035404839681"><ele>747.0</ele><time>2026-04-28T08:08:23.871Z</time></trkpt><trkpt lat="44.32818863370533" lon="10.978885399044774"><ele>747.0</ele><time>2026-04-28T08:08:24.871Z</time></trkpt><trkpt lat="44.32816707961767" lon="10.978765121351007"><ele>748.25</ele><time>2026-04-28T08:08:25.871Z</time></trkpt><trkpt lat="44.32810139524203" lon="10.978600043537863"><ele>749.5</ele><time>2026-04-28T08:08:26.871Z</time></trkpt><trkpt lat="44.32802840369779" lon="10.978446706390592"><ele>750.75</ele><time>2026-04-28T08:08:27.871Z</time></trkpt><trkpt lat="44.32793393046328" lon="10.978285740986456"><ele>752.0</ele><time>2026-04-28T08:08:28.871Z</time></trkpt><trkpt lat="44.32786888003864" lon="10.978104965867729"><ele>743.0</ele><time>2026-04-28T08:08:29.871Z</time></trkpt><trkpt lat="44.32778886168941" lon="10.977952279701082"><ele>734.0</ele><time>2026-04-28T08:08:30.871Z</time></trkpt><trkpt lat="44.32771396399432" lon="10.97780097155644"><ele>725.0</ele><time>2026-04-28T08:08:31.871Z</time></trkpt><trkpt lat="44.32763026750308" lon="10.97765018168813"><ele>716.0</ele><time>2026-04-28T08:08:32.871Z</time></trkpt><trkpt lat="44.327528495622744" lon="10.977527228397694"><ele>719.0</ele><time>2026-04-28T08:08:33.871Z</time></trkpt><trkpt lat="44.327444675546865" lon="10.977417109995692"><ele>722.0</ele><time>2026-04-28T08:08:34.871Z</time></trkpt><trkpt lat="44.327345713885364" lon="10.977312675636803"><ele>725.0</ele><time>2026-04-28T08:08:35.871Z</time></trkpt><trkpt lat="44.327262907267404" lon="10.977191561668814"><ele>728.0</ele><time>2026-04-28T08:08:36.871Z</time></trkpt><trkpt lat="44.32720154745996" lon="10.977033711773979"><ele>722.5</ele><time>2026-04-28T08:08:37.871Z</time></trkpt><trkpt lat="44.327152692837984" lon="10.976875676047571"><ele>717.0</ele><time>2026-04-28T08:08:38.871Z</time></trkpt><trkpt lat="44.32710809256469" lon="10.976711202806653"><ele>711.5</ele><time>2026-04-28T08:08:39.871Z</time></trkpt><trkpt lat="44.327062700728064" lon="10.976549829738033"><ele>706.0</ele><time>2026-04-28T08:08:40.871Z</time></trkpt><trkpt lat="44.32703265439768" lon="10.976400560128543"><ele>706.0</ele><time>2026-04-28T08:08:41.871Z</time></trkpt><trkpt lat="44.32700750755333" lon="10.97626236840412"><ele>706.0</ele><time>2026-04-28T08:08:42.871Z</time></trkpt><trkpt lat="44.326991693782595" lon="10.97611591462335"><ele>706.0</ele><time>2026-04-28T08:08:43.871Z</time></trkpt><trkpt lat="44.327007795388774" lon="10.975948888554944"><ele>706.0</ele><time>2026-04-28T08:08:44.871Z</time></trkpt><trkpt lat="44.32704451812241" lon="10.97573671072355"><ele>706.5</ele><time>2026-04-28T08:08:45.871Z</time></trkpt><trkpt lat="44.32706452467135" lon="10.975569100015065"><ele>707.0</ele><time>2026-04-28T08:08:46.871Z</time></trkpt><trkpt lat="44.327066794027665" lon="10.975371657804274"><ele>707.5</ele><time>2026-04-28T08:08:47.871Z</time></trkpt><trkpt lat="44.32705021360892" lon="10.975174432266114"><ele>708.0</ele><time>2026-04-28T08:08:48.871Z</time></trkpt><trkpt lat="44.327027579369705" lon="10.974992751829356"><ele>708.2</ele><time>2026-04-28T08:08:49.871Z</time></trkpt><trkpt lat="44.326992887824154" lon="10.974826461230277"><ele>708.4</ele><time>2026-04-28T08:08:50.871Z</time></trkpt><trkpt lat="44.32697023279452" lon="10.97468170403545"><ele>708.6</ele><time>2026-04-28T08:08:51.871Z</time></trkpt><trkpt lat="44.32696377562556" lon="10.97452113408247"><ele>708.8000000000001</ele><time>2026-04-28T08:08:52.871Z</time></trkpt><trkpt lat="44.326952655089215" lon="10.974376108036504"><ele>709.0</ele><time>2026-04-28T08:08:53.87Z</time></trkpt><trkpt lat="44.32698262442603" lon="10.974219247577901"><ele>708.5</ele><time>2026-04-28T08:08:54.87Z</time></trkpt><trkpt lat="44.32703891205558" lon="10.974094594893412"><ele>708.0</ele><time>2026-04-28T08:08:55.87Z</time></trkpt><trkpt lat="44.32710450093309" lon="10.973967645868415"><ele>707.5</ele><time>2026-04-28T08:08:56.87Z</time></trkpt><trkpt lat="44.327169320915395" lon="10.9738197543723"><ele>707.0</ele><time>2026-04-28T08:08:57.87Z</time></trkpt><trkpt lat="44.32723448396878" lon="10.97366585416445"><ele>710.75</ele><time>2026-04-28T08:08:58.87Z</time></trkpt><trkpt lat="44.32728071717887" lon="10.973532541228106"><ele>714.5</ele><time>2026-04-28T08:08:59.87Z</time></trkpt><trkpt lat="44.32733200079896" lon="10.97339432687629"><ele>718.25</ele><time>2026-04-28T08:09:00.87Z</time></trkpt><trkpt lat="44.32738089983695" lon="10.973223718067077"><ele>722.0</ele><time>2026-04-28T08:09:01.87Z</time></trkpt><trkpt lat="44.32742307052787" lon="10.97303729926532"><ele>722.0</ele><time>2026-04-28T08:09:02.87Z</time></trkpt><trkpt lat="44.32745423500246" lon="10.972847456776321"><ele>722.0</ele><time>2026-04-28T08:09:03.87Z</time></trkpt><trkpt lat="44.32748075096265" lon="10.972669934041651"><ele>722.0</ele><time>2026-04-28T08:09:04.87Z</time></trkpt><trkpt lat="44.327502453067815" lon="10.972498238871696"><ele>722.0</ele><time>2026-04-28T08:09:05.87Z</time></trkpt><trkpt lat="44.32750129001114" lon="10.972336873332194"><ele>719.25</ele><time>2026-04-28T08:09:06.87Z</time></trkpt><trkpt lat="44.32749051518254" lon="10.972204481706212"><ele>716.5</ele><time>2026-04-28T08:09:07.87Z</time></trkpt><trkpt lat="44.32744411006071" lon="10.97202091471542"><ele>713.75</ele><time>2026-04-28T08:09:08.87Z</time></trkpt><trkpt lat="44.327378820080085" lon="10.97183736594988"><ele>711.0</ele><time>2026-04-28T08:09:09.87Z</time></trkpt><trkpt lat="44.327314393129434" lon="10.971657575003336"><ele>709.75</ele><time>2026-04-28T08:09:10.87Z</time></trkpt><trkpt lat="44.32724602754145" lon="10.971504587096783"><ele>708.5</ele><time>2026-04-28T08:09:11.87Z</time></trkpt><trkpt lat="44.32719221963299" lon="10.971319948686325"><ele>707.25</ele><time>2026-04-28T08:09:12.87Z</time></trkpt><trkpt lat="44.32714819628906" lon="10.97113593803474"><ele>706.0</ele><time>2026-04-28T08:09:13.87Z</time></trkpt><trkpt lat="44.32711415860183" lon="10.970938543953078"><ele>700.75</ele><time>2026-04-28T08:09:14.87Z</time></trkpt><trkpt lat="44.32709704444027" lon="10.970732544967541"><ele>695.5</ele><time>2026-04-28T08:09:15.87Z</time></trkpt><trkpt lat="44.327096807672085" lon="10.970519696933607"><ele>690.25</ele><time>2026-04-28T08:09:16.87Z</time></trkpt><trkpt lat="44.32709742166912" lon="10.97033573857685"><ele>685.0</ele><time>2026-04-28T08:09:17.87Z</time></trkpt><trkpt lat="44.3270988676345" lon="10.970163720958771"><ele>685.0</ele><time>2026-04-28T08:09:18.87Z</time></trkpt><trkpt lat="44.32706612665668" lon="10.970029957497488"><ele>685.0</ele><time>2026-04-28T08:09:19.87Z</time></trkpt><trkpt lat="44.327008870417885" lon="10.969917601140088"><ele>685.0</ele><time>2026-04-28T08:09:20.87Z</time></trkpt><trkpt lat="44.32692388087624" lon="10.969825024130222"><ele>685.0</ele><time>2026-04-28T08:09:21.87Z</time></trkpt><trkpt lat="44.32682547166971" lon="10.969774753042074"><ele>685.0</ele><time>2026-04-28T08:09:22.87Z</time></trkpt><trkpt lat="44.326724574156884" lon="10.969735840278544"><ele>685.6666666666667</ele><time>2026-04-28T08:09:23.87Z</time></trkpt><trkpt lat="44.32662741417985" lon="10.969692624729584"><ele>686.3333333333334</ele><time>2026-04-28T08:09:24.87Z</time></trkpt><trkpt lat="44.32653049744509" lon="10.969696670772263"><ele>687.0</ele><time>2026-04-28T08:09:25.87Z</time></trkpt><trkpt lat="44.32644932785073" lon="10.969696459385153"><ele>687.6666666666666</ele><time>2026-04-28T08:09:26.87Z</time></trkpt><trkpt lat="44.326379270522935" lon="10.969714246985973"><ele>688.3333333333333</ele><time>2026-04-28T08:09:27.87Z</time></trkpt><trkpt lat="44.32633012327756" lon="10.96965754426145"><ele>689.0</ele><time>2026-04-28T08:09:28.87Z</time></trkpt><trkpt lat="44.3263210393211" lon="10.969465037174965"><ele>690.5</ele><time>2026-04-28T08:09:30.87Z</time></trkpt><trkpt lat="44.326366343917535" lon="10.969350288603778"><ele>692.0</ele><time>2026-04-28T08:09:31.87Z</time></trkpt><trkpt lat="44.32640266069883" lon="10.969190046386995"><ele>693.5</ele><time>2026-04-28T08:09:32.87Z</time></trkpt><trkpt lat="44.32641320582952" lon="10.969010711082358"><ele>695.0</ele><time>2026-04-28T08:09:33.87Z</time></trkpt><trkpt lat="44.326413555480784" lon="10.968825682617922"><ele>695.0</ele><time>2026-04-28T08:09:34.87Z</time></trkpt><trkpt lat="44.32640291884824" lon="10.96865510776474"><ele>695.0</ele><time>2026-04-28T08:09:35.87Z</time></trkpt><trkpt lat="44.3263868709185" lon="10.968490180599723"><ele>695.0</ele><time>2026-04-28T08:09:36.87Z</time></trkpt><trkpt lat="44.3263538837187" lon="10.968341877227479"><ele>695.0</ele><time>2026-04-28T08:09:37.87Z</time></trkpt><trkpt lat="44.32631732047362" lon="10.968200828058766"><ele>690.6</ele><time>2026-04-28T08:09:38.87Z</time></trkpt><trkpt lat="44.326266764595786" lon="10.968068304423008"><ele>686.2</ele><time>2026-04-28T08:09:39.87Z</time></trkpt><trkpt lat="44.32621221243741" lon="10.967947102878306"><ele>681.8</ele><time>2026-04-28T08:09:40.87Z</time></trkpt><trkpt lat="44.326171320667314" lon="10.967816496773073"><ele>677.4</ele><time>2026-04-28T08:09:41.87Z</time></trkpt><trkpt lat="44.326155207900634" lon="10.967671001048824"><ele>673.0</ele><time>2026-04-28T08:09:42.87Z</time></trkpt><trkpt lat="44.32614234185586" lon="10.967506250759206"><ele>672.5</ele><time>2026-04-28T08:09:43.87Z</time></trkpt><trkpt lat="44.3261527861548" lon="10.967331066236458"><ele>672.0</ele><time>2026-04-28T08:09:44.87Z</time></trkpt><trkpt lat="44.326175196195365" lon="10.96714704653207"><ele>671.5</ele><time>2026-04-28T08:09:45.87Z</time></trkpt><trkpt lat="44.326216744823" lon="10.966970199366564"><ele>671.0</ele><time>2026-04-28T08:09:46.87Z</time></trkpt><trkpt lat="44.326264108721546" lon="10.966799787565368"><ele>669.5</ele><time>2026-04-28T08:09:47.87Z</time></trkpt><trkpt lat="44.32631809158289" lon="10.966640827661772"><ele>668.0</ele><time>2026-04-28T08:09:48.87Z</time></trkpt><trkpt lat="44.32638093165734" lon="10.966494036233794"><ele>666.5</ele><time>2026-04-28T08:09:49.87Z</time></trkpt><trkpt lat="44.32645825847241" lon="10.966363956002015"><ele>665.0</ele><time>2026-04-28T08:09:50.87Z</time></trkpt><trkpt lat="44.326552828000246" lon="10.966241647239343"><ele>668.75</ele><time>2026-04-28T08:09:51.87Z</time></trkpt><trkpt lat="44.326657446945646" lon="10.966141757200358"><ele>672.5</ele><time>2026-04-28T08:09:52.869Z</time></trkpt><trkpt lat="44.32676189573005" lon="10.966049006401242"><ele>676.25</ele><time>2026-04-28T08:09:53.869Z</time></trkpt><trkpt lat="44.32686167516528" lon="10.965964020694837"><ele>680.0</ele><time>2026-04-28T08:09:54.869Z</time></trkpt><trkpt lat="44.32694438456805" lon="10.96589862849188"><ele>677.6666666666666</ele><time>2026-04-28T08:09:55.869Z</time></trkpt><trkpt lat="44.327011559099525" lon="10.96584193629661"><ele>675.3333333333333</ele><time>2026-04-28T08:09:56.869Z</time></trkpt><trkpt lat="44.327060748690606" lon="10.965775431135485"><ele>673.0</ele><time>2026-04-28T08:09:57.869Z</time></trkpt><trkpt lat="44.32710367921609" lon="10.9656624667688"><ele>670.6666666666666</ele><time>2026-04-28T08:09:59.869Z</time></trkpt><trkpt lat="44.32698868892774" lon="10.965551621614342"><ele>668.3333333333334</ele><time>2026-04-28T08:10:00.869Z</time></trkpt><trkpt lat="44.32692544843984" lon="10.965517750948319"><ele>666.0</ele><time>2026-04-28T08:10:01.869Z</time></trkpt><trkpt lat="44.32677156550699" lon="10.96566828553676"><ele>666.0</ele><time>2026-04-28T08:10:03.869Z</time></trkpt><trkpt lat="44.32667214713547" lon="10.965740840210165"><ele>666.0</ele><time>2026-04-28T08:10:04.869Z</time></trkpt><trkpt lat="44.32657575463523" lon="10.965806188180942"><ele>666.0</ele><time>2026-04-28T08:10:05.869Z</time></trkpt><trkpt lat="44.326488731231834" lon="10.965839111755713"><ele>666.0</ele><time>2026-04-28T08:10:06.869Z</time></trkpt><trkpt lat="44.326404871287316" lon="10.965813903890782"><ele>666.0</ele><time>2026-04-28T08:10:07.869Z</time></trkpt><trkpt lat="44.326313308608206" lon="10.96573280518031"><ele>664.5999999999999</ele><time>2026-04-28T08:10:08.869Z</time></trkpt><trkpt lat="44.32621138221465" lon="10.965652903406504"><ele>663.2</ele><time>2026-04-28T08:10:09.869Z</time></trkpt><trkpt lat="44.326122235961726" lon="10.96559624127459"><ele>661.8</ele><time>2026-04-28T08:10:10.869Z</time></trkpt><trkpt lat="44.32602533782117" lon="10.965539646586564"><ele>660.4000000000001</ele><time>2026-04-28T08:10:11.869Z</time></trkpt><trkpt lat="44.32591620304627" lon="10.965516067883236"><ele>659.0</ele><time>2026-04-28T08:10:12.869Z</time></trkpt><trkpt lat="44.32579819531932" lon="10.96550822127633"><ele>659.0</ele><time>2026-04-28T08:10:13.868Z</time></trkpt><trkpt lat="44.325678138006516" lon="10.96552555744985"><ele>659.0</ele><time>2026-04-28T08:10:14.868Z</time></trkpt><trkpt lat="44.325569351866164" lon="10.965555771844254"><ele>659.0</ele><time>2026-04-28T08:10:15.868Z</time></trkpt><trkpt lat="44.325460308661214" lon="10.965603803669307"><ele>659.0</ele><time>2026-04-28T08:10:16.869Z</time></trkpt><trkpt lat="44.3253569376391" lon="10.965678945842267"><ele>656.0</ele><time>2026-04-28T08:10:17.868Z</time></trkpt><trkpt lat="44.325252297251396" lon="10.965747494785827"><ele>653.0</ele><time>2026-04-28T08:10:18.868Z</time></trkpt><trkpt lat="44.325168242989214" lon="10.965857792515322"><ele>650.0</ele><time>2026-04-28T08:10:19.868Z</time></trkpt><trkpt lat="44.32511916474246" lon="10.96600376499497"><ele>647.0</ele><time>2026-04-28T08:10:20.868Z</time></trkpt><trkpt lat="44.32505907259914" lon="10.966139870729632"><ele>647.0</ele><time>2026-04-28T08:10:21.868Z</time></trkpt><trkpt lat="44.3250064609495" lon="10.966289565035773"><ele>647.0</ele><time>2026-04-28T08:10:22.868Z</time></trkpt><trkpt lat="44.32495356614168" lon="10.966430427927698"><ele>647.0</ele><time>2026-04-28T08:10:23.868Z</time></trkpt><trkpt lat="44.32489202303897" lon="10.966567644824782"><ele>647.0</ele><time>2026-04-28T08:10:24.868Z</time></trkpt><trkpt lat="44.32482295618613" lon="10.966702213340517"><ele>648.0</ele><time>2026-04-28T08:10:25.868Z</time></trkpt><trkpt lat="44.3247674815336" lon="10.966853551404997"><ele>649.0</ele><time>2026-04-28T08:10:26.868Z</time></trkpt><trkpt lat="44.324703096659036" lon="10.967005505362028"><ele>650.0</ele><time>2026-04-28T08:10:27.868Z</time></trkpt><trkpt lat="44.32465557717356" lon="10.967172357146811"><ele>651.0</ele><time>2026-04-28T08:10:28.868Z</time></trkpt><trkpt lat="44.32461211524063" lon="10.967341972489184"><ele>645.75</ele><time>2026-04-28T08:10:29.868Z</time></trkpt><trkpt lat="44.324561809991465" lon="10.96751128285817"><ele>640.5</ele><time>2026-04-28T08:10:30.868Z</time></trkpt><trkpt lat="44.324510624452124" lon="10.967672693153636"><ele>635.25</ele><time>2026-04-28T08:10:31.868Z</time></trkpt><trkpt lat="44.32445461239251" lon="10.967831699681385"><ele>630.0</ele><time>2026-04-28T08:10:32.868Z</time></trkpt><trkpt lat="44.32439307280354" lon="10.967978545344572"><ele>630.0</ele><time>2026-04-28T08:10:33.868Z</time></trkpt><trkpt lat="44.3243161381397" lon="10.968112205944706"><ele>630.0</ele><time>2026-04-28T08:10:34.868Z</time></trkpt><trkpt lat="44.324229954637936" lon="10.968231555202628"><ele>630.0</ele><time>2026-04-28T08:10:35.868Z</time></trkpt><trkpt lat="44.32414933562024" lon="10.968346532499174"><ele>630.0</ele><time>2026-04-28T08:10:36.868Z</time></trkpt><trkpt lat="44.324086063544435" lon="10.968473363580339"><ele>630.0</ele><time>2026-04-28T08:10:37.867Z</time></trkpt><trkpt lat="44.3240409358904" lon="10.968630185620677"><ele>630.0</ele><time>2026-04-28T08:10:38.867Z</time></trkpt><trkpt lat="44.32401785296061" lon="10.968809572886302"><ele>630.0</ele><time>2026-04-28T08:10:39.867Z</time></trkpt><trkpt lat="44.32400426235368" lon="10.969016889704204"><ele>630.0</ele><time>2026-04-28T08:10:40.867Z</time></trkpt><trkpt lat="44.323988996273286" lon="10.969226086131393"><ele>629.75</ele><time>2026-04-28T08:10:41.867Z</time></trkpt><trkpt lat="44.32398111103879" lon="10.96942594749746"><ele>629.5</ele><time>2026-04-28T08:10:42.867Z</time></trkpt><trkpt lat="44.32396209446109" lon="10.969618236804916"><ele>629.25</ele><time>2026-04-28T08:10:43.867Z</time></trkpt><trkpt lat="44.32396278831521" lon="10.969800259002373"><ele>629.0</ele><time>2026-04-28T08:10:44.867Z</time></trkpt><trkpt lat="44.32396765274264" lon="10.969992237058637"><ele>630.25</ele><time>2026-04-28T08:10:45.867Z</time></trkpt><trkpt lat="44.32395397055645" lon="10.970172735179245"><ele>631.5</ele><time>2026-04-28T08:10:46.867Z</time></trkpt><trkpt lat="44.32391597628897" lon="10.970349503576497"><ele>632.75</ele><time>2026-04-28T08:10:47.867Z</time></trkpt><trkpt lat="44.32384383576212" lon="10.970500896327952"><ele>634.0</ele><time>2026-04-28T08:10:48.867Z</time></trkpt><trkpt lat="44.32377791267508" lon="10.97063157984563"><ele>630.2</ele><time>2026-04-28T08:10:49.867Z</time></trkpt><trkpt lat="44.323737038989535" lon="10.970775880963926"><ele>626.4</ele><time>2026-04-28T08:10:50.867Z</time></trkpt><trkpt lat="44.323725364247174" lon="10.970941994351298"><ele>622.6</ele><time>2026-04-28T08:10:51.867Z</time></trkpt><trkpt lat="44.323706815121184" lon="10.9711006900016"><ele>618.8</ele><time>2026-04-28T08:10:52.867Z</time></trkpt><trkpt lat="44.323696088778036" lon="10.971240406825817"><ele>615.0</ele><time>2026-04-28T08:10:53.867Z</time></trkpt><trkpt lat="44.32368090378644" lon="10.971366515582774"><ele>615.0</ele><time>2026-04-28T08:10:54.867Z</time></trkpt><trkpt lat="44.32365549680125" lon="10.971482785201953"><ele>615.0</ele><time>2026-04-28T08:10:55.867Z</time></trkpt><trkpt lat="44.32357314475824" lon="10.971571040473954"><ele>615.0</ele><time>2026-04-28T08:10:56.867Z</time></trkpt><trkpt lat="44.32347550799971" lon="10.971613443609378"><ele>615.0</ele><time>2026-04-28T08:10:57.867Z</time></trkpt><trkpt lat="44.323362580586945" lon="10.971620892606719"><ele>615.0</ele><time>2026-04-28T08:10:58.867Z</time></trkpt><trkpt lat="44.32324645270415" lon="10.971601913608747"><ele>615.0</ele><time>2026-04-28T08:10:59.867Z</time></trkpt><trkpt lat="44.32314446155826" lon="10.971597992221579"><ele>615.0</ele><time>2026-04-28T08:11:00.867Z</time></trkpt><trkpt lat="44.32304885670642" lon="10.97164125360208"><ele>615.0</ele><time>2026-04-28T08:11:01.867Z</time></trkpt><trkpt lat="44.322960863922845" lon="10.971727755811168"><ele>615.0</ele><time>2026-04-28T08:11:02.867Z</time></trkpt><trkpt lat="44.32287774781147" lon="10.97184979849851"><ele>615.0</ele><time>2026-04-28T08:11:03.867Z</time></trkpt><trkpt lat="44.322806710096586" lon="10.971992527277942"><ele>613.0</ele><time>2026-04-28T08:11:04.867Z</time></trkpt><trkpt lat="44.32272631235722" lon="10.972136931419342"><ele>611.0</ele><time>2026-04-28T08:11:05.867Z</time></trkpt><trkpt lat="44.322633646713626" lon="10.972277199814185"><ele>609.0</ele><time>2026-04-28T08:11:06.867Z</time></trkpt><trkpt lat="44.322540135764015" lon="10.97242033139134"><ele>607.0</ele><time>2026-04-28T08:11:07.867Z</time></trkpt><trkpt lat="44.32243645642545" lon="10.97256261343518"><ele>607.0</ele><time>2026-04-28T08:11:08.867Z</time></trkpt><trkpt lat="44.32235957744387" lon="10.972718421020717"><ele>607.0</ele><time>2026-04-28T08:11:09.867Z</time></trkpt><trkpt lat="44.32227782836305" lon="10.972870472151252"><ele>607.0</ele><time>2026-04-28T08:11:10.867Z</time></trkpt><trkpt lat="44.32220598647086" lon="10.973005794982015"><ele>607.0</ele><time>2026-04-28T08:11:11.867Z</time></trkpt><trkpt lat="44.32213347018382" lon="10.973146514928297"><ele>604.0</ele><time>2026-04-28T08:11:12.867Z</time></trkpt><trkpt lat="44.32206385845163" lon="10.973275223238279"><ele>601.0</ele><time>2026-04-28T08:11:13.867Z</time></trkpt><trkpt lat="44.32200352283993" lon="10.973398096775293"><ele>598.0</ele><time>2026-04-28T08:11:14.867Z</time></trkpt><trkpt lat="44.321960432586636" lon="10.973512281356074"><ele>595.0</ele><time>2026-04-28T08:11:15.867Z</time></trkpt><trkpt lat="44.32194053716427" lon="10.973623827646053"><ele>592.0</ele><time>2026-04-28T08:11:16.867Z</time></trkpt><trkpt lat="44.32194019771579" lon="10.973742352696899"><ele>591.6</ele><time>2026-04-28T08:11:17.867Z</time></trkpt><trkpt lat="44.321931639837345" lon="10.973866455954376"><ele>591.2</ele><time>2026-04-28T08:11:18.867Z</time></trkpt><trkpt lat="44.32201291827059" lon="10.973978422233285"><ele>590.8</ele><time>2026-04-28T08:11:19.867Z</time></trkpt><trkpt lat="44.32208231439571" lon="10.97407617857388"><ele>590.4</ele><time>2026-04-28T08:11:20.867Z</time></trkpt><trkpt lat="44.32215595813371" lon="10.974167040171196"><ele>590.0</ele><time>2026-04-28T08:11:21.867Z</time></trkpt><trkpt lat="44.32219958480129" lon="10.974265647724033"><ele>596.5</ele><time>2026-04-28T08:11:22.867Z</time></trkpt><trkpt lat="44.32224633672387" lon="10.97434376427055"><ele>603.0</ele><time>2026-04-28T08:11:23.867Z</time></trkpt><trkpt lat="44.32228396307803" lon="10.974430722176098"><ele>609.5</ele><time>2026-04-28T08:11:24.867Z</time></trkpt><trkpt lat="44.32231577781905" lon="10.974514366764133"><ele>616.0</ele><time>2026-04-28T08:11:25.867Z</time></trkpt><trkpt lat="44.32232017106029" lon="10.974675347283783"><ele>622.5</ele><time>2026-04-28T08:11:27.867Z</time></trkpt><trkpt lat="44.3223008277691" lon="10.974776081458463"><ele>629.0</ele><time>2026-04-28T08:11:28.867Z</time></trkpt><trkpt lat="44.32224627281132" lon="10.974833149772117"><ele>628.8</ele><time>2026-04-28T08:11:29.867Z</time></trkpt><trkpt lat="44.32217206363038" lon="10.974862324088814"><ele>628.5999999999999</ele><time>2026-04-28T08:11:30.867Z</time></trkpt><trkpt lat="44.32206608212992" lon="10.974829504406497"><ele>628.4</ele><time>2026-04-28T08:11:31.867Z</time></trkpt><trkpt lat="44.32197123641148" lon="10.974779502399098"><ele>628.1999999999999</ele><time>2026-04-28T08:11:32.867Z</time></trkpt><trkpt lat="44.321868205783254" lon="10.97474750332882"><ele>628.0</ele><time>2026-04-28T08:11:33.867Z</time></trkpt><trkpt lat="44.32175845783098" lon="10.97468619396733"><ele>628.0</ele><time>2026-04-28T08:11:34.867Z</time></trkpt><trkpt lat="44.32164060505784" lon="10.974659008397543"><ele>628.0</ele><time>2026-04-28T08:11:35.867Z</time></trkpt><trkpt lat="44.321523057837986" lon="10.974644022880963"><ele>628.0</ele><time>2026-04-28T08:11:36.866Z</time></trkpt><trkpt lat="44.32141052617999" lon="10.974633596857938"><ele>628.0</ele><time>2026-04-28T08:11:37.866Z</time></trkpt><trkpt lat="44.321291095335425" lon="10.974622229042811"><ele>635.5</ele><time>2026-04-28T08:11:38.866Z</time></trkpt><trkpt lat="44.321181967786245" lon="10.974613028921892"><ele>643.0</ele><time>2026-04-28T08:11:39.866Z</time></trkpt><trkpt lat="44.321074540136685" lon="10.974569252651822"><ele>650.5</ele><time>2026-04-28T08:11:40.866Z</time></trkpt><trkpt lat="44.320963526825366" lon="10.974520615596703"><ele>658.0</ele><time>2026-04-28T08:11:41.866Z</time></trkpt><trkpt lat="44.320848197311854" lon="10.974472247945299"><ele>658.0</ele><time>2026-04-28T08:11:42.866Z</time></trkpt><trkpt lat="44.32074548888085" lon="10.974404071859714"><ele>658.0</ele><time>2026-04-28T08:11:43.866Z</time></trkpt><trkpt lat="44.32063656905812" lon="10.97433378015066"><ele>658.0</ele><time>2026-04-28T08:11:44.866Z</time></trkpt><trkpt lat="44.32053056423785" lon="10.974239048647412"><ele>658.0</ele><time>2026-04-28T08:11:45.866Z</time></trkpt><trkpt lat="44.320420009999054" lon="10.974137893171763"><ele>654.75</ele><time>2026-04-28T08:11:46.866Z</time></trkpt><trkpt lat="44.32032139872258" lon="10.974007925172966"><ele>651.5</ele><time>2026-04-28T08:11:47.866Z</time></trkpt><trkpt lat="44.320233797003134" lon="10.973875568623113"><ele>648.25</ele><time>2026-04-28T08:11:48.866Z</time></trkpt><trkpt lat="44.3201596327378" lon="10.973746537216385"><ele>645.0</ele><time>2026-04-28T08:11:49.866Z</time></trkpt><trkpt lat="44.32008291625418" lon="10.97361837329982"><ele>645.0</ele><time>2026-04-28T08:11:50.866Z</time></trkpt><trkpt lat="44.32000819591733" lon="10.973487215879352"><ele>645.0</ele><time>2026-04-28T08:11:51.866Z</time></trkpt><trkpt lat="44.31992257762401" lon="10.973351574826125"><ele>645.0</ele><time>2026-04-28T08:11:52.866Z</time></trkpt><trkpt lat="44.319841066426235" lon="10.973239433776408"><ele>645.0</ele><time>2026-04-28T08:11:53.866Z</time></trkpt><trkpt lat="44.31975544884083" lon="10.97313410814277"><ele>645.5</ele><time>2026-04-28T08:11:54.866Z</time></trkpt><trkpt lat="44.31965517411578" lon="10.973030267822"><ele>646.0</ele><time>2026-04-28T08:11:55.866Z</time></trkpt><trkpt lat="44.31956722038099" lon="10.972899896323728"><ele>646.5</ele><time>2026-04-28T08:11:56.866Z</time></trkpt><trkpt lat="44.319456025734546" lon="10.97280576230425"><ele>647.0</ele><time>2026-04-28T08:11:57.866Z</time></trkpt><trkpt lat="44.319339369440556" lon="10.972709742160838"><ele>647.0</ele><time>2026-04-28T08:11:58.866Z</time></trkpt><trkpt lat="44.319218962543076" lon="10.972616873659593"><ele>647.0</ele><time>2026-04-28T08:11:59.866Z</time></trkpt><trkpt lat="44.319094224928705" lon="10.972503780142953"><ele>647.0</ele><time>2026-04-28T08:12:00.866Z</time></trkpt><trkpt lat="44.318973553081605" lon="10.972436698806604"><ele>647.0</ele><time>2026-04-28T08:12:01.866Z</time></trkpt><trkpt lat="44.31887718449068" lon="10.972364959163954"><ele>646.0</ele><time>2026-04-28T08:12:02.866Z</time></trkpt><trkpt lat="44.31877883717614" lon="10.9722943373857"><ele>645.0</ele><time>2026-04-28T08:12:03.866Z</time></trkpt><trkpt lat="44.31868674548755" lon="10.972197906704915"><ele>644.0</ele><time>2026-04-28T08:12:04.866Z</time></trkpt><trkpt lat="44.31859443913645" lon="10.972061410538371"><ele>643.0</ele><time>2026-04-28T08:12:05.866Z</time></trkpt><trkpt lat="44.31848622281749" lon="10.97194031912639"><ele>643.0</ele><time>2026-04-28T08:12:06.866Z</time></trkpt><trkpt lat="44.31840719870247" lon="10.971845016206519"><ele>643.0</ele><time>2026-04-28T08:12:07.866Z</time></trkpt><trkpt lat="44.318297504769" lon="10.971753356087305"><ele>643.0</ele><time>2026-04-28T08:12:08.866Z</time></trkpt><trkpt lat="44.318211169010496" lon="10.971660508244549"><ele>643.0</ele><time>2026-04-28T08:12:09.866Z</time></trkpt><trkpt lat="44.31813609625064" lon="10.97156188550943"><ele>643.0</ele><time>2026-04-28T08:12:10.866Z</time></trkpt><trkpt lat="44.31803801827211" lon="10.971474183446462"><ele>643.2</ele><time>2026-04-28T08:12:11.866Z</time></trkpt><trkpt lat="44.317956718319046" lon="10.971363900423928"><ele>643.4</ele><time>2026-04-28T08:12:12.867Z</time></trkpt><trkpt lat="44.3178927796992" lon="10.971264318548478"><ele>643.6</ele><time>2026-04-28T08:12:13.867Z</time></trkpt><trkpt lat="44.31781592536499" lon="10.971136674745749"><ele>643.8000000000001</ele><time>2026-04-28T08:12:14.867Z</time></trkpt><trkpt lat="44.31775374847123" lon="10.971027478083162"><ele>644.0</ele><time>2026-04-28T08:12:15.866Z</time></trkpt><trkpt lat="44.31769124365891" lon="10.970957987672"><ele>644.0</ele><time>2026-04-28T08:12:16.866Z</time></trkpt><trkpt lat="44.31760424289814" lon="10.970872951873814"><ele>644.0</ele><time>2026-04-28T08:12:17.866Z</time></trkpt><trkpt lat="44.31749016671646" lon="10.970813859267329"><ele>644.0</ele><time>2026-04-28T08:12:18.867Z</time></trkpt><trkpt lat="44.31736326244253" lon="10.970726870532179"><ele>644.0</ele><time>2026-04-28T08:12:19.866Z</time></trkpt><trkpt lat="44.31720517730086" lon="10.970651150311594"><ele>637.0</ele><time>2026-04-28T08:12:20.866Z</time></trkpt><trkpt lat="44.317055155986445" lon="10.970573134888557"><ele>630.0</ele><time>2026-04-28T08:12:21.866Z</time></trkpt><trkpt lat="44.31690889090258" lon="10.970453042911913"><ele>623.0</ele><time>2026-04-28T08:12:22.866Z</time></trkpt><trkpt lat="44.31676342907752" lon="10.970343594083689"><ele>623.0</ele><time>2026-04-28T08:12:23.866Z</time></trkpt><trkpt lat="44.316621922813326" lon="10.970206620154242"><ele>623.0</ele><time>2026-04-28T08:12:24.866Z</time></trkpt><trkpt lat="44.316462312342765" lon="10.970085580783953"><ele>623.0</ele><time>2026-04-28T08:12:25.866Z</time></trkpt><trkpt lat="44.31632032103053" lon="10.969981081348699"><ele>620.0</ele><time>2026-04-28T08:12:26.866Z</time></trkpt><trkpt lat="44.31617018907025" lon="10.96988694077188"><ele>617.0</ele><time>2026-04-28T08:12:27.866Z</time></trkpt><trkpt lat="44.31601891247983" lon="10.96979102742046"><ele>614.0</ele><time>2026-04-28T08:12:28.866Z</time></trkpt><trkpt lat="44.31586547879362" lon="10.969701592830951"><ele>614.0</ele><time>2026-04-28T08:12:29.866Z</time></trkpt><trkpt lat="44.31570882080717" lon="10.96961223748883"><ele>614.0</ele><time>2026-04-28T08:12:30.866Z</time></trkpt><trkpt lat="44.31555073163185" lon="10.969540735549861"><ele>614.0</ele><time>2026-04-28T08:12:31.865Z</time></trkpt><trkpt lat="44.31540425072039" lon="10.969447040137082"><ele>621.3333333333333</ele><time>2026-04-28T08:12:32.865Z</time></trkpt><trkpt lat="44.31523235101218" lon="10.969391221138626"><ele>628.6666666666666</ele><time>2026-04-28T08:12:33.865Z</time></trkpt><trkpt lat="44.31506753831788" lon="10.969337809322404"><ele>636.0</ele><time>2026-04-28T08:12:34.865Z</time></trkpt><trkpt lat="44.31494197773166" lon="10.969264013106603"><ele>636.0</ele><time>2026-04-28T08:12:35.865Z</time></trkpt><trkpt lat="44.31485985951662" lon="10.969196939619012"><ele>636.0</ele><time>2026-04-28T08:12:36.865Z</time></trkpt><trkpt lat="44.3147959150174" lon="10.969130059689256"><ele>636.0</ele><time>2026-04-28T08:12:37.865Z</time></trkpt><trkpt lat="44.31474696113573" lon="10.969017431806504"><ele>636.0</ele><time>2026-04-28T08:12:38.865Z</time></trkpt><trkpt lat="44.314662591213825" lon="10.968892288455805"><ele>636.0</ele><time>2026-04-28T08:12:39.865Z</time></trkpt><trkpt lat="44.314572652174526" lon="10.968781282533525"><ele>633.25</ele><time>2026-04-28T08:12:40.865Z</time></trkpt><trkpt lat="44.31445735981413" lon="10.968672416539782"><ele>630.5</ele><time>2026-04-28T08:12:41.865Z</time></trkpt><trkpt lat="44.31433225436606" lon="10.968575522432614"><ele>627.75</ele><time>2026-04-28T08:12:42.865Z</time></trkpt><trkpt lat="44.31420713927403" lon="10.9684951400043"><ele>625.0</ele><time>2026-04-28T08:12:43.865Z</time></trkpt><trkpt lat="44.31407167824658" lon="10.968430546867413"><ele>625.0</ele><time>2026-04-28T08:12:44.865Z</time></trkpt><trkpt lat="44.31392797268703" lon="10.968409932698199"><ele>625.0</ele><time>2026-04-28T08:12:45.865Z</time></trkpt><trkpt lat="44.313789799529104" lon="10.968392292499837"><ele>625.0</ele><time>2026-04-28T08:12:46.865Z</time></trkpt><trkpt lat="44.31365085479318" lon="10.968354923874365"><ele>625.0</ele><time>2026-04-28T08:12:47.865Z</time></trkpt><trkpt lat="44.31354732482264" lon="10.968295141508102"><ele>622.0</ele><time>2026-04-28T08:12:48.865Z</time></trkpt><trkpt lat="44.313437417002476" lon="10.96821463117017"><ele>619.0</ele><time>2026-04-28T08:12:49.865Z</time></trkpt><trkpt lat="44.31334075645177" lon="10.96812013341689"><ele>616.0</ele><time>2026-04-28T08:12:50.865Z</time></trkpt><trkpt lat="44.31325720838942" lon="10.968004775834316"><ele>613.0</ele><time>2026-04-28T08:12:51.865Z</time></trkpt><trkpt lat="44.3131592296289" lon="10.967892249653167"><ele>617.0</ele><time>2026-04-28T08:12:52.865Z</time></trkpt><trkpt lat="44.31306225876935" lon="10.967805076666673"><ele>621.0</ele><time>2026-04-28T08:12:53.865Z</time></trkpt><trkpt lat="44.31293783118988" lon="10.967765842352458"><ele>625.0</ele><time>2026-04-28T08:12:54.865Z</time></trkpt><trkpt lat="44.31280709216032" lon="10.967704055446765"><ele>629.0</ele><time>2026-04-28T08:12:55.865Z</time></trkpt><trkpt lat="44.312675916321105" lon="10.967652604564115"><ele>629.0</ele><time>2026-04-28T08:12:56.865Z</time></trkpt><trkpt lat="44.31255067266323" lon="10.967587681173878"><ele>629.0</ele><time>2026-04-28T08:12:57.865Z</time></trkpt><trkpt lat="44.312455185901214" lon="10.967497740118844"><ele>629.0</ele><time>2026-04-28T08:12:58.865Z</time></trkpt><trkpt lat="44.3123983650291" lon="10.96740286867838"><ele>629.0</ele><time>2026-04-28T08:12:59.865Z</time></trkpt><trkpt lat="44.31235665676365" lon="10.96729017842161"><ele>629.0</ele><time>2026-04-28T08:13:00.865Z</time></trkpt><trkpt lat="44.31232037929271" lon="10.967161787362112"><ele>626.2</ele><time>2026-04-28T08:13:01.865Z</time></trkpt><trkpt lat="44.31227252040928" lon="10.967021002686245"><ele>623.4</ele><time>2026-04-28T08:13:02.865Z</time></trkpt><trkpt lat="44.31223745590409" lon="10.966877128456526"><ele>620.6</ele><time>2026-04-28T08:13:03.865Z</time></trkpt><trkpt lat="44.312202679938935" lon="10.966737302217828"><ele>617.8</ele><time>2026-04-28T08:13:04.865Z</time></trkpt><trkpt lat="44.31216674452329" lon="10.96661129259201"><ele>615.0</ele><time>2026-04-28T08:13:05.865Z</time></trkpt><trkpt lat="44.312134251681215" lon="10.966519870229867"><ele>614.0</ele><time>2026-04-28T08:13:06.865Z</time></trkpt><trkpt lat="44.312069378519574" lon="10.966400178250062"><ele>613.0</ele><time>2026-04-28T08:13:08.865Z</time></trkpt><trkpt lat="44.311953483365244" lon="10.966392757687036"><ele>612.0</ele><time>2026-04-28T08:13:10.865Z</time></trkpt><trkpt lat="44.31188688205266" lon="10.966382906228992"><ele>611.0</ele><time>2026-04-28T08:13:11.865Z</time></trkpt><trkpt lat="44.31181841452316" lon="10.966508328139614"><ele>610.0</ele><time>2026-04-28T08:13:12.865Z</time></trkpt><trkpt lat="44.31174812504882" lon="10.966581455911424"><ele>610.0</ele><time>2026-04-28T08:13:13.865Z</time></trkpt><trkpt lat="44.311663984275754" lon="10.9666662575291"><ele>610.0</ele><time>2026-04-28T08:13:14.865Z</time></trkpt><trkpt lat="44.31156638541315" lon="10.96674004120748"><ele>610.0</ele><time>2026-04-28T08:13:15.865Z</time></trkpt><trkpt lat="44.31144870649686" lon="10.966795696595664"><ele>610.0</ele><time>2026-04-28T08:13:16.865Z</time></trkpt><trkpt lat="44.31132387228892" lon="10.966857867525544"><ele>614.0</ele><time>2026-04-28T08:13:17.865Z</time></trkpt><trkpt lat="44.311209458506205" lon="10.966955491252788"><ele>618.0</ele><time>2026-04-28T08:13:18.865Z</time></trkpt><trkpt lat="44.31086074160684" lon="10.967151857744126"><ele>618.0</ele><time>2026-04-28T08:13:21.865Z</time></trkpt><trkpt lat="44.31074707955919" lon="10.96718631913975"><ele>618.0</ele><time>2026-04-28T08:13:22.865Z</time></trkpt><trkpt lat="44.31062388824695" lon="10.967209783075944"><ele>618.0</ele><time>2026-04-28T08:13:23.865Z</time></trkpt><trkpt lat="44.3104950930783" lon="10.967225269355561"><ele>618.0</ele><time>2026-04-28T08:13:24.865Z</time></trkpt><trkpt lat="44.31036185740162" lon="10.967240855474467"><ele>616.75</ele><time>2026-04-28T08:13:25.865Z</time></trkpt><trkpt lat="44.31023034004171" lon="10.96725892205835"><ele>615.5</ele><time>2026-04-28T08:13:26.865Z</time></trkpt><trkpt lat="44.31011050194592" lon="10.967275718150631"><ele>614.25</ele><time>2026-04-28T08:13:27.865Z</time></trkpt><trkpt lat="44.3100003632184" lon="10.967292256892769"><ele>613.0</ele><time>2026-04-28T08:13:28.865Z</time></trkpt><trkpt lat="44.30987813285529" lon="10.967320309283437"><ele>613.0</ele><time>2026-04-28T08:13:29.865Z</time></trkpt><trkpt lat="44.30976660545999" lon="10.967363647239011"><ele>613.0</ele><time>2026-04-28T08:13:30.864Z</time></trkpt><trkpt lat="44.30968204986898" lon="10.967443871740864"><ele>613.0</ele><time>2026-04-28T08:13:31.864Z</time></trkpt><trkpt lat="44.30961777267615" lon="10.967546225537461"><ele>613.0</ele><time>2026-04-28T08:13:32.864Z</time></trkpt><trkpt lat="44.30956839362177" lon="10.96766538295975"><ele>613.0</ele><time>2026-04-28T08:13:33.864Z</time></trkpt><trkpt lat="44.30953480906913" lon="10.967781004603893"><ele>613.3333333333334</ele><time>2026-04-28T08:13:34.864Z</time></trkpt><trkpt lat="44.309495386020984" lon="10.96787800631681"><ele>613.6666666666667</ele><time>2026-04-28T08:13:35.864Z</time></trkpt><trkpt lat="44.30943746659374" lon="10.967947794888468"><ele>614.0</ele><time>2026-04-28T08:13:36.864Z</time></trkpt><trkpt lat="44.30935064587179" lon="10.967921489931685"><ele>614.3333333333334</ele><time>2026-04-28T08:13:37.864Z</time></trkpt><trkpt lat="44.30926962634045" lon="10.96789677352293"><ele>614.6666666666666</ele><time>2026-04-28T08:13:38.864Z</time></trkpt><trkpt lat="44.309181975356296" lon="10.967814638194726"><ele>615.0</ele><time>2026-04-28T08:13:39.864Z</time></trkpt><trkpt lat="44.30910274441262" lon="10.967706381002152"><ele>615.0</ele><time>2026-04-28T08:13:40.864Z</time></trkpt><trkpt lat="44.309056529794105" lon="10.967564590472511"><ele>615.0</ele><time>2026-04-28T08:13:41.864Z</time></trkpt><trkpt lat="44.30899760699625" lon="10.967454529468185"><ele>615.0</ele><time>2026-04-28T08:13:42.864Z</time></trkpt><trkpt lat="44.30893142727223" lon="10.967352016988082"><ele>615.0</ele><time>2026-04-28T08:13:43.864Z</time></trkpt><trkpt lat="44.30884001897818" lon="10.967289094493637"><ele>615.0</ele><time>2026-04-28T08:13:44.864Z</time></trkpt><trkpt lat="44.30872273759835" lon="10.967260694355645"><ele>611.0</ele><time>2026-04-28T08:13:45.864Z</time></trkpt><trkpt lat="44.30859498819488" lon="10.967279619882213"><ele>607.0</ele><time>2026-04-28T08:13:46.864Z</time></trkpt><trkpt lat="44.30846925041072" lon="10.967299173510591"><ele>603.0</ele><time>2026-04-28T08:13:47.864Z</time></trkpt><trkpt lat="44.30833969818403" lon="10.96732914324183"><ele>599.0</ele><time>2026-04-28T08:13:48.864Z</time></trkpt><trkpt lat="44.30821852030394" lon="10.96733160916541"><ele>599.0</ele><time>2026-04-28T08:13:49.864Z</time></trkpt><trkpt lat="44.308095142293695" lon="10.967355490733677"><ele>599.0</ele><time>2026-04-28T08:13:50.864Z</time></trkpt><trkpt lat="44.30796459336001" lon="10.96735583004425"><ele>599.0</ele><time>2026-04-28T08:13:51.864Z</time></trkpt><trkpt lat="44.30784604644936" lon="10.967350514462195"><ele>599.0</ele><time>2026-04-28T08:13:52.864Z</time></trkpt><trkpt lat="44.30773889959692" lon="10.967346835069801"><ele>599.6</ele><time>2026-04-28T08:13:53.864Z</time></trkpt><trkpt lat="44.30764087256481" lon="10.967365050436266"><ele>600.2</ele><time>2026-04-28T08:13:54.864Z</time></trkpt><trkpt lat="44.30753880685361" lon="10.967414919034299"><ele>600.8000000000001</ele><time>2026-04-28T08:13:55.864Z</time></trkpt><trkpt lat="44.30745115015457" lon="10.96750732733856"><ele>601.4</ele><time>2026-04-28T08:13:56.864Z</time></trkpt><trkpt lat="44.30736577880694" lon="10.96762002351759"><ele>602.0</ele><time>2026-04-28T08:13:57.864Z</time></trkpt><trkpt lat="44.30729287400704" lon="10.967745689594615"><ele>601.4</ele><time>2026-04-28T08:13:58.864Z</time></trkpt><trkpt lat="44.30722560657987" lon="10.967870886946724"><ele>600.8000000000001</ele><time>2026-04-28T08:13:59.864Z</time></trkpt><trkpt lat="44.3071540602102" lon="10.967950985068224"><ele>600.2</ele><time>2026-04-28T08:14:00.864Z</time></trkpt><trkpt lat="44.30707472984058" lon="10.967984425450272"><ele>599.6</ele><time>2026-04-28T08:14:01.864Z</time></trkpt><trkpt lat="44.306987252369865" lon="10.967975340913506"><ele>599.0</ele><time>2026-04-28T08:14:02.864Z</time></trkpt><trkpt lat="44.30689545217201" lon="10.967936962106938"><ele>599.0</ele><time>2026-04-28T08:14:03.864Z</time></trkpt><trkpt lat="44.30680713391436" lon="10.967861062144333"><ele>599.0</ele><time>2026-04-28T08:14:04.864Z</time></trkpt><trkpt lat="44.306732652460354" lon="10.967780422394457"><ele>599.0</ele><time>2026-04-28T08:14:05.864Z</time></trkpt><trkpt lat="44.30663587309054" lon="10.967715306077887"><ele>599.0</ele><time>2026-04-28T08:14:06.864Z</time></trkpt><trkpt lat="44.306519449179035" lon="10.96768345649841"><ele>599.0</ele><time>2026-04-28T08:14:07.864Z</time></trkpt><trkpt lat="44.306399457134425" lon="10.96767466989448"><ele>598.25</ele><time>2026-04-28T08:14:08.864Z</time></trkpt><trkpt lat="44.30628347141854" lon="10.967677437646152"><ele>597.5</ele><time>2026-04-28T08:14:09.864Z</time></trkpt><trkpt lat="44.30616872592998" lon="10.967687675024091"><ele>596.75</ele><time>2026-04-28T08:14:10.864Z</time></trkpt><trkpt lat="44.30604594906664" lon="10.96769966101863"><ele>596.0</ele><time>2026-04-28T08:14:11.864Z</time></trkpt><trkpt lat="44.305916231755695" lon="10.967712013415458"><ele>596.0</ele><time>2026-04-28T08:14:12.864Z</time></trkpt><trkpt lat="44.305782822834466" lon="10.96772567206505"><ele>596.0</ele><time>2026-04-28T08:14:13.864Z</time></trkpt><trkpt lat="44.30565325486607" lon="10.967725569208303"><ele>596.0</ele><time>2026-04-28T08:14:14.864Z</time></trkpt><trkpt lat="44.30553216017743" lon="10.967722573652564"><ele>596.0</ele><time>2026-04-28T08:14:15.864Z</time></trkpt><trkpt lat="44.30542186048575" lon="10.967737098894068"><ele>594.75</ele><time>2026-04-28T08:14:16.864Z</time></trkpt><trkpt lat="44.30531694086769" lon="10.967758236336653"><ele>593.5</ele><time>2026-04-28T08:14:17.864Z</time></trkpt><trkpt lat="44.30521860615882" lon="10.967846970234502"><ele>592.25</ele><time>2026-04-28T08:14:18.864Z</time></trkpt><trkpt lat="44.305120069943115" lon="10.967934554555903"><ele>591.0</ele><time>2026-04-28T08:14:19.863Z</time></trkpt><trkpt lat="44.30501905738943" lon="10.968027357141057"><ele>591.0</ele><time>2026-04-28T08:14:20.863Z</time></trkpt><trkpt lat="44.30491186265971" lon="10.968107211865636"><ele>591.0</ele><time>2026-04-28T08:14:21.864Z</time></trkpt><trkpt lat="44.30479230101143" lon="10.968124876965234"><ele>591.0</ele><time>2026-04-28T08:14:22.863Z</time></trkpt><trkpt lat="44.30467852107013" lon="10.968146793326564"><ele>591.0</ele><time>2026-04-28T08:14:23.863Z</time></trkpt><trkpt lat="44.304544648016666" lon="10.968185923251495"><ele>590.0</ele><time>2026-04-28T08:14:24.864Z</time></trkpt><trkpt lat="44.30441918645539" lon="10.968208621314178"><ele>589.0</ele><time>2026-04-28T08:14:25.864Z</time></trkpt><trkpt lat="44.304301952034734" lon="10.96823221388558"><ele>588.0</ele><time>2026-04-28T08:14:26.863Z</time></trkpt><trkpt lat="44.30418715453894" lon="10.968248916099892"><ele>587.0</ele><time>2026-04-28T08:14:27.863Z</time></trkpt><trkpt lat="44.30407450958668" lon="10.968257990669139"><ele>587.0</ele><time>2026-04-28T08:14:28.863Z</time></trkpt><trkpt lat="44.30395623094556" lon="10.96823486388341"><ele>587.0</ele><time>2026-04-28T08:14:29.863Z</time></trkpt><trkpt lat="44.30385173545948" lon="10.968200114632756"><ele>587.0</ele><time>2026-04-28T08:14:30.863Z</time></trkpt><trkpt lat="44.30373778734428" lon="10.968168503317198"><ele>587.0</ele><time>2026-04-28T08:14:31.863Z</time></trkpt><trkpt lat="44.30362125951668" lon="10.96815263244397"><ele>587.4</ele><time>2026-04-28T08:14:32.863Z</time></trkpt><trkpt lat="44.303508525640055" lon="10.968168767554365"><ele>587.8000000000001</ele><time>2026-04-28T08:14:33.863Z</time></trkpt><trkpt lat="44.30340913975369" lon="10.968191786107143"><ele>588.2</ele><time>2026-04-28T08:14:34.862Z</time></trkpt><trkpt lat="44.303312521676766" lon="10.96826703322112"><ele>588.6</ele><time>2026-04-28T08:14:35.862Z</time></trkpt><trkpt lat="44.303219488307874" lon="10.96837130938563"><ele>589.0</ele><time>2026-04-28T08:14:36.862Z</time></trkpt><trkpt lat="44.30315307192989" lon="10.968510942368438"><ele>589.0</ele><time>2026-04-28T08:14:37.862Z</time></trkpt><trkpt lat="44.30311276599342" lon="10.968662775815263"><ele>589.0</ele><time>2026-04-28T08:14:38.862Z</time></trkpt><trkpt lat="44.303087924479534" lon="10.9688224666145"><ele>589.0</ele><time>2026-04-28T08:14:39.862Z</time></trkpt><trkpt lat="44.30309009566444" lon="10.968971863209164"><ele>589.0</ele><time>2026-04-28T08:14:40.862Z</time></trkpt><trkpt lat="44.30309195259163" lon="10.969116436127427"><ele>589.0</ele><time>2026-04-28T08:14:41.862Z</time></trkpt><trkpt lat="44.30306348952674" lon="10.969250260845039"><ele>587.25</ele><time>2026-04-28T08:14:42.862Z</time></trkpt><trkpt lat="44.30301150399026" lon="10.969391836509024"><ele>585.5</ele><time>2026-04-28T08:14:43.862Z</time></trkpt><trkpt lat="44.302940400532485" lon="10.969533065308035"><ele>583.75</ele><time>2026-04-28T08:14:44.862Z</time></trkpt><trkpt lat="44.302877721918556" lon="10.969702448503586"><ele>582.0</ele><time>2026-04-28T08:14:45.862Z</time></trkpt><trkpt lat="44.30279122114435" lon="10.9698728068375"><ele>585.5</ele><time>2026-04-28T08:14:46.862Z</time></trkpt><trkpt lat="44.3027094819496" lon="10.970046142530208"><ele>589.0</ele><time>2026-04-28T08:14:47.862Z</time></trkpt><trkpt lat="44.30263562341623" lon="10.970210904764558"><ele>592.5</ele><time>2026-04-28T08:14:48.862Z</time></trkpt><trkpt lat="44.30257467792763" lon="10.970362648789704"><ele>596.0</ele><time>2026-04-28T08:14:49.862Z</time></trkpt><trkpt lat="44.30251659880015" lon="10.970488371992351"><ele>596.0</ele><time>2026-04-28T08:14:50.862Z</time></trkpt><trkpt lat="44.30244731595526" lon="10.970578874173139"><ele>596.0</ele><time>2026-04-28T08:14:51.862Z</time></trkpt><trkpt lat="44.30236924251314" lon="10.970642704905233"><ele>596.0</ele><time>2026-04-28T08:14:52.862Z</time></trkpt><trkpt lat="44.302292387749866" lon="10.970653905725575"><ele>596.0</ele><time>2026-04-28T08:14:53.862Z</time></trkpt><trkpt lat="44.30219188961858" lon="10.970640612148589"><ele>596.0</ele><time>2026-04-28T08:14:54.862Z</time></trkpt><trkpt lat="44.30207972360855" lon="10.970590784216157"><ele>598.75</ele><time>2026-04-28T08:14:55.862Z</time></trkpt><trkpt lat="44.30195748606644" lon="10.970566731702394"><ele>601.5</ele><time>2026-04-28T08:14:56.862Z</time></trkpt><trkpt lat="44.30183618414526" lon="10.970522751770579"><ele>604.25</ele><time>2026-04-28T08:14:57.862Z</time></trkpt><trkpt lat="44.30173015246008" lon="10.970472388887478"><ele>607.0</ele><time>2026-04-28T08:14:58.862Z</time></trkpt><trkpt lat="44.3016035599911" lon="10.970473834077875"><ele>607.0</ele><time>2026-04-28T08:14:59.862Z</time></trkpt><trkpt lat="44.30147252415178" lon="10.97049664904924"><ele>607.0</ele><time>2026-04-28T08:15:00.862Z</time></trkpt><trkpt lat="44.301345404717324" lon="10.970514242783832"><ele>607.0</ele><time>2026-04-28T08:15:01.862Z</time></trkpt><trkpt lat="44.301226190410496" lon="10.970511031156677"><ele>607.0</ele><time>2026-04-28T08:15:02.862Z</time></trkpt><trkpt lat="44.301127016082205" lon="10.970417512447252"><ele>606.6</ele><time>2026-04-28T08:15:03.862Z</time></trkpt><trkpt lat="44.301024545571416" lon="10.970334350455227"><ele>606.2</ele><time>2026-04-28T08:15:04.862Z</time></trkpt><trkpt lat="44.30093625382732" lon="10.970282654115199"><ele>605.8</ele><time>2026-04-28T08:15:05.862Z</time></trkpt><trkpt lat="44.30085127820457" lon="10.970253761197704"><ele>605.4</ele><time>2026-04-28T08:15:06.862Z</time></trkpt><trkpt lat="44.300746836171925" lon="10.970264636052324"><ele>605.0</ele><time>2026-04-28T08:15:07.862Z</time></trkpt><trkpt lat="44.30063665320486" lon="10.970320577264344"><ele>601.0</ele><time>2026-04-28T08:15:08.862Z</time></trkpt><trkpt lat="44.30050920254205" lon="10.970409090217213"><ele>597.0</ele><time>2026-04-28T08:15:09.862Z</time></trkpt><trkpt lat="44.30036743187766" lon="10.970506046979674"><ele>593.0</ele><time>2026-04-28T08:15:10.862Z</time></trkpt><trkpt lat="44.30023358955251" lon="10.97060807997658"><ele>593.0</ele><time>2026-04-28T08:15:11.862Z</time></trkpt><trkpt lat="44.30010085097081" lon="10.970711151142238"><ele>593.0</ele><time>2026-04-28T08:15:12.862Z</time></trkpt><trkpt lat="44.29997914926013" lon="10.970822259567841"><ele>593.0</ele><time>2026-04-28T08:15:13.862Z</time></trkpt><trkpt lat="44.29985217430567" lon="10.970899833173524"><ele>593.0</ele><time>2026-04-28T08:15:14.862Z</time></trkpt><trkpt lat="44.299738859066125" lon="10.970974784586168"><ele>596.0</ele><time>2026-04-28T08:15:15.862Z</time></trkpt><trkpt lat="44.299629158708335" lon="10.971040777409842"><ele>599.0</ele><time>2026-04-28T08:15:16.862Z</time></trkpt><trkpt lat="44.299503122052556" lon="10.9710359902009"><ele>602.0</ele><time>2026-04-28T08:15:17.862Z</time></trkpt><trkpt lat="44.29938014393355" lon="10.970961675194538"><ele>605.0</ele><time>2026-04-28T08:15:18.862Z</time></trkpt><trkpt lat="44.29925637690797" lon="10.970905934032332"><ele>601.8</ele><time>2026-04-28T08:15:19.862Z</time></trkpt><trkpt lat="44.2991388762917" lon="10.970834281518359"><ele>598.6</ele><time>2026-04-28T08:15:20.862Z</time></trkpt><trkpt lat="44.29904444340641" lon="10.970765847257045"><ele>595.4</ele><time>2026-04-28T08:15:21.862Z</time></trkpt><trkpt lat="44.29895008440042" lon="10.970717494251854"><ele>592.2</ele><time>2026-04-28T08:15:22.862Z</time></trkpt><trkpt lat="44.29884589906556" lon="10.970702961444628"><ele>589.0</ele><time>2026-04-28T08:15:23.862Z</time></trkpt><trkpt lat="44.2987439103528" lon="10.970695940884507"><ele>589.2</ele><time>2026-04-28T08:15:24.862Z</time></trkpt><trkpt lat="44.298644622633944" lon="10.970739574699465"><ele>589.4</ele><time>2026-04-28T08:15:25.862Z</time></trkpt><trkpt lat="44.29853480528793" lon="10.970765083324963"><ele>589.6</ele><time>2026-04-28T08:15:26.862Z</time></trkpt><trkpt lat="44.29843444430959" lon="10.970811313025468"><ele>589.8</ele><time>2026-04-28T08:15:27.862Z</time></trkpt><trkpt lat="44.298342713573184" lon="10.970870681697107"><ele>590.0</ele><time>2026-04-28T08:15:28.862Z</time></trkpt><trkpt lat="44.29823809787036" lon="10.970913246213554"><ele>590.0</ele><time>2026-04-28T08:15:29.862Z</time></trkpt><trkpt lat="44.29814206426835" lon="10.970980127983633"><ele>590.0</ele><time>2026-04-28T08:15:30.862Z</time></trkpt><trkpt lat="44.298051782961906" lon="10.971047858076307"><ele>590.0</ele><time>2026-04-28T08:15:31.862Z</time></trkpt><trkpt lat="44.29795501164649" lon="10.971147285332766"><ele>590.0</ele><time>2026-04-28T08:15:32.862Z</time></trkpt><trkpt lat="44.297839940403975" lon="10.971224160260277"><ele>587.0</ele><time>2026-04-28T08:15:33.861Z</time></trkpt><trkpt lat="44.29773025157468" lon="10.97130599078467"><ele>584.0</ele><time>2026-04-28T08:15:34.861Z</time></trkpt><trkpt lat="44.29764027926471" lon="10.971378686725728"><ele>581.0</ele><time>2026-04-28T08:15:35.861Z</time></trkpt><trkpt lat="44.29756713147503" lon="10.971430090263645"><ele>578.0</ele><time>2026-04-28T08:15:36.861Z</time></trkpt><trkpt lat="44.297517929673845" lon="10.971520491239412"><ele>575.0</ele><time>2026-04-28T08:15:37.861Z</time></trkpt><trkpt lat="44.29749628576656" lon="10.971632769662532"><ele>574.25</ele><time>2026-04-28T08:15:38.861Z</time></trkpt><trkpt lat="44.297488716334854" lon="10.971773107752458"><ele>573.5</ele><time>2026-04-28T08:15:39.861Z</time></trkpt><trkpt lat="44.297514927134344" lon="10.97193991140337"><ele>572.75</ele><time>2026-04-28T08:15:40.861Z</time></trkpt><trkpt lat="44.297542358176116" lon="10.972125180803866"><ele>572.0</ele><time>2026-04-28T08:15:41.861Z</time></trkpt><trkpt lat="44.29758863932216" lon="10.972318948485961"><ele>572.0</ele><time>2026-04-28T08:15:42.861Z</time></trkpt><trkpt lat="44.29759759837228" lon="10.972499592246084"><ele>572.0</ele><time>2026-04-28T08:15:43.861Z</time></trkpt><trkpt lat="44.29761171949937" lon="10.972662709937293"><ele>572.0</ele><time>2026-04-28T08:15:44.861Z</time></trkpt><trkpt lat="44.29761216147862" lon="10.972823940682678"><ele>572.0</ele><time>2026-04-28T08:15:45.861Z</time></trkpt><trkpt lat="44.29759469194778" lon="10.972977887786998"><ele>572.4</ele><time>2026-04-28T08:15:46.861Z</time></trkpt><trkpt lat="44.29755613179603" lon="10.973119585527781"><ele>572.8000000000001</ele><time>2026-04-28T08:15:47.861Z</time></trkpt><trkpt lat="44.297481606579346" lon="10.973239890299945"><ele>573.2</ele><time>2026-04-28T08:15:48.861Z</time></trkpt><trkpt lat="44.2973856481953" lon="10.973328777997462"><ele>573.6</ele><time>2026-04-28T08:15:49.861Z</time></trkpt><trkpt lat="44.29728687252915" lon="10.973402033767119"><ele>574.0</ele><time>2026-04-28T08:15:50.861Z</time></trkpt><trkpt lat="44.29719287395802" lon="10.973463663876208"><ele>571.2</ele><time>2026-04-28T08:15:51.861Z</time></trkpt><trkpt lat="44.29711660197565" lon="10.973520385706042"><ele>568.4</ele><time>2026-04-28T08:15:52.861Z</time></trkpt><trkpt lat="44.29706868274111" lon="10.973619110551306"><ele>565.6</ele><time>2026-04-28T08:15:53.861Z</time></trkpt><trkpt lat="44.297023000737305" lon="10.97372304648763"><ele>562.8</ele><time>2026-04-28T08:15:54.861Z</time></trkpt><trkpt lat="44.29704799526578" lon="10.973856313830343"><ele>560.0</ele><time>2026-04-28T08:15:55.861Z</time></trkpt><trkpt lat="44.297090360136174" lon="10.973991820308871"><ele>560.0</ele><time>2026-04-28T08:15:56.861Z</time></trkpt><trkpt lat="44.297142584721755" lon="10.974133667302702"><ele>560.0</ele><time>2026-04-28T08:15:57.861Z</time></trkpt><trkpt lat="44.29717058310289" lon="10.974301194010804"><ele>560.0</ele><time>2026-04-28T08:15:58.861Z</time></trkpt><trkpt lat="44.29716188291925" lon="10.974455546817127"><ele>560.0</ele><time>2026-04-28T08:15:59.861Z</time></trkpt><trkpt lat="44.29711012752953" lon="10.974595138099254"><ele>561.75</ele><time>2026-04-28T08:16:00.861Z</time></trkpt><trkpt lat="44.297058284971435" lon="10.974770574087481"><ele>563.5</ele><time>2026-04-28T08:16:01.861Z</time></trkpt><trkpt lat="44.296976654755866" lon="10.97493803827585"><ele>565.25</ele><time>2026-04-28T08:16:02.861Z</time></trkpt><trkpt lat="44.29688036073868" lon="10.975116514539453"><ele>567.0</ele><time>2026-04-28T08:16:03.861Z</time></trkpt><trkpt lat="44.29678196852894" lon="10.975275088120974"><ele>569.0</ele><time>2026-04-28T08:16:04.861Z</time></trkpt><trkpt lat="44.29669607134216" lon="10.975425791568156"><ele>571.0</ele><time>2026-04-28T08:16:05.861Z</time></trkpt><trkpt lat="44.296602636184865" lon="10.975570806414567"><ele>573.0</ele><time>2026-04-28T08:16:06.861Z</time></trkpt><trkpt lat="44.296518957771234" lon="10.97570857750692"><ele>575.0</ele><time>2026-04-28T08:16:07.861Z</time></trkpt><trkpt lat="44.296439089540804" lon="10.975864223072941"><ele>571.75</ele><time>2026-04-28T08:16:08.861Z</time></trkpt><trkpt lat="44.29638016473913" lon="10.976033170234349"><ele>568.5</ele><time>2026-04-28T08:16:09.861Z</time></trkpt><trkpt lat="44.296337810277834" lon="10.976226571802723"><ele>565.25</ele><time>2026-04-28T08:16:10.861Z</time></trkpt><trkpt lat="44.29632670595483" lon="10.976421010279823"><ele>562.0</ele><time>2026-04-28T08:16:11.861Z</time></trkpt><trkpt lat="44.29630322723388" lon="10.976589439428352"><ele>563.0</ele><time>2026-04-28T08:16:12.861Z</time></trkpt><trkpt lat="44.29629714220965" lon="10.976753517161274"><ele>564.0</ele><time>2026-04-28T08:16:13.861Z</time></trkpt><trkpt lat="44.29625067157122" lon="10.976896387731097"><ele>565.0</ele><time>2026-04-28T08:16:14.861Z</time></trkpt><trkpt lat="44.29616836562669" lon="10.977010943221313"><ele>566.0</ele><time>2026-04-28T08:16:15.861Z</time></trkpt><trkpt lat="44.29606636446983" lon="10.977130558931348"><ele>566.0</ele><time>2026-04-28T08:16:16.861Z</time></trkpt><trkpt lat="44.29596338596414" lon="10.977247292447714"><ele>566.0</ele><time>2026-04-28T08:16:17.861Z</time></trkpt><trkpt lat="44.29585095042286" lon="10.977347267800821"><ele>566.0</ele><time>2026-04-28T08:16:18.861Z</time></trkpt><trkpt lat="44.29575071093251" lon="10.977453862655265"><ele>566.0</ele><time>2026-04-28T08:16:19.861Z</time></trkpt><trkpt lat="44.29566129885726" lon="10.977603980541323"><ele>564.25</ele><time>2026-04-28T08:16:20.861Z</time></trkpt><trkpt lat="44.295566768341054" lon="10.9777618661428"><ele>562.5</ele><time>2026-04-28T08:16:21.861Z</time></trkpt><trkpt lat="44.2954867550543" lon="10.977943996896624"><ele>560.75</ele><time>2026-04-28T08:16:22.861Z</time></trkpt><trkpt lat="44.2954240232249" lon="10.978123314944238"><ele>559.0</ele><time>2026-04-28T08:16:23.861Z</time></trkpt><trkpt lat="44.29533828671022" lon="10.978290271736082"><ele>559.25</ele><time>2026-04-28T08:16:24.86Z</time></trkpt><trkpt lat="44.29525879674596" lon="10.978454452577838"><ele>559.5</ele><time>2026-04-28T08:16:25.86Z</time></trkpt><trkpt lat="44.29518491675975" lon="10.97861819364233"><ele>559.75</ele><time>2026-04-28T08:16:26.86Z</time></trkpt><trkpt lat="44.295099998844606" lon="10.978758521421659"><ele>560.0</ele><time>2026-04-28T08:16:27.86Z</time></trkpt><trkpt lat="44.29504174706599" lon="10.978928151043078"><ele>560.0</ele><time>2026-04-28T08:16:28.86Z</time></trkpt><trkpt lat="44.29494952114258" lon="10.979094669336659"><ele>560.0</ele><time>2026-04-28T08:16:29.86Z</time></trkpt><trkpt lat="44.294873633842236" lon="10.979264424023322"><ele>560.0</ele><time>2026-04-28T08:16:30.86Z</time></trkpt><trkpt lat="44.294811310196174" lon="10.979445996592732"><ele>560.0</ele><time>2026-04-28T08:16:31.86Z</time></trkpt><trkpt lat="44.294733266322105" lon="10.979605638240365"><ele>558.6</ele><time>2026-04-28T08:16:32.86Z</time></trkpt><trkpt lat="44.294658152818485" lon="10.979737896404938"><ele>557.2</ele><time>2026-04-28T08:16:33.86Z</time></trkpt><trkpt lat="44.29460639488917" lon="10.979870989457305"><ele>555.8</ele><time>2026-04-28T08:16:34.86Z</time></trkpt><trkpt lat="44.294544912512826" lon="10.979995027052698"><ele>554.4</ele><time>2026-04-28T08:16:35.86Z</time></trkpt><trkpt lat="44.29452007101296" lon="10.980146438778721"><ele>553.0</ele><time>2026-04-28T08:16:36.86Z</time></trkpt><trkpt lat="44.29451690064229" lon="10.98029689429011"><ele>552.8</ele><time>2026-04-28T08:16:37.86Z</time></trkpt><trkpt lat="44.29452764477565" lon="10.980440242225697"><ele>552.5999999999999</ele><time>2026-04-28T08:16:38.86Z</time></trkpt><trkpt lat="44.294543364964234" lon="10.980550302420347"><ele>552.4000000000001</ele><time>2026-04-28T08:16:39.86Z</time></trkpt><trkpt lat="44.29458189214751" lon="10.98067138451843"><ele>552.2</ele><time>2026-04-28T08:16:40.86Z</time></trkpt><trkpt lat="44.29465634507009" lon="10.980793473735153"><ele>552.0</ele><time>2026-04-28T08:16:41.86Z</time></trkpt><trkpt lat="44.294712406076606" lon="10.980901302262945"><ele>554.0</ele><time>2026-04-28T08:16:42.86Z</time></trkpt><trkpt lat="44.294796812547936" lon="10.980995788440492"><ele>556.0</ele><time>2026-04-28T08:16:43.86Z</time></trkpt><trkpt lat="44.29489249652433" lon="10.98108929430202"><ele>558.0</ele><time>2026-04-28T08:16:44.86Z</time></trkpt><trkpt lat="44.29500639302559" lon="10.981172993692681"><ele>560.0</ele><time>2026-04-28T08:16:45.86Z</time></trkpt><trkpt lat="44.295112488448616" lon="10.981326756531951"><ele>560.0</ele><time>2026-04-28T08:16:46.86Z</time></trkpt><trkpt lat="44.29519552735753" lon="10.981478231618203"><ele>560.0</ele><time>2026-04-28T08:16:47.86Z</time></trkpt><trkpt lat="44.29528998543999" lon="10.981619518093957"><ele>560.0</ele><time>2026-04-28T08:16:48.86Z</time></trkpt><trkpt lat="44.295342976061164" lon="10.981761334045407"><ele>560.0</ele><time>2026-04-28T08:16:49.86Z</time></trkpt><trkpt lat="44.295402421036904" lon="10.981906420381158"><ele>560.0</ele><time>2026-04-28T08:16:50.86Z</time></trkpt><trkpt lat="44.29545722884316" lon="10.982044604667008"><ele>560.0</ele><time>2026-04-28T08:16:51.86Z</time></trkpt><trkpt lat="44.29551014399513" lon="10.98217461557882"><ele>560.0</ele><time>2026-04-28T08:16:52.86Z</time></trkpt><trkpt lat="44.295539593041966" lon="10.982308106615701"><ele>560.0</ele><time>2026-04-28T08:16:53.86Z</time></trkpt><trkpt lat="44.295590551310745" lon="10.982423269087178"><ele>560.0</ele><time>2026-04-28T08:16:54.86Z</time></trkpt><trkpt lat="44.2956158329241" lon="10.982528762974306"><ele>561.1666666666666</ele><time>2026-04-28T08:16:55.86Z</time></trkpt><trkpt lat="44.2956418399567" lon="10.98261969978962"><ele>562.3333333333333</ele><time>2026-04-28T08:16:56.86Z</time></trkpt><trkpt lat="44.295671315705164" lon="10.982773408065635"><ele>563.5</ele><time>2026-04-28T08:16:58.86Z</time></trkpt><trkpt lat="44.29566304411226" lon="10.982885080391249"><ele>564.6666666666666</ele><time>2026-04-28T08:17:00.86Z</time></trkpt><trkpt lat="44.295604000870654" lon="10.982920310926112"><ele>565.8333333333334</ele><time>2026-04-28T08:17:01.86Z</time></trkpt><trkpt lat="44.29553104868623" lon="10.982916494137877"><ele>567.0</ele><time>2026-04-28T08:17:02.86Z</time></trkpt><trkpt lat="44.29545041561589" lon="10.982885003949487"><ele>567.0</ele><time>2026-04-28T08:17:03.86Z</time></trkpt><trkpt lat="44.29536558186009" lon="10.98283463531647"><ele>567.0</ele><time>2026-04-28T08:17:04.859Z</time></trkpt><trkpt lat="44.29527621301108" lon="10.982776649634735"><ele>567.0</ele><time>2026-04-28T08:17:05.859Z</time></trkpt><trkpt lat="44.295194446012346" lon="10.982745878425195"><ele>567.0</ele><time>2026-04-28T08:17:06.859Z</time></trkpt><trkpt lat="44.295107485242795" lon="10.98273937405024"><ele>567.0</ele><time>2026-04-28T08:17:07.859Z</time></trkpt><trkpt lat="44.29501494978576" lon="10.982763898511235"><ele>567.0</ele><time>2026-04-28T08:17:08.859Z</time></trkpt><trkpt lat="44.29493019284771" lon="10.98279280509999"><ele>567.0</ele><time>2026-04-28T08:17:09.859Z</time></trkpt><trkpt lat="44.29484637753645" lon="10.982828118122182"><ele>567.0</ele><time>2026-04-28T08:17:10.859Z</time></trkpt><trkpt lat="44.29474846489453" lon="10.982878810974466"><ele>567.0</ele><time>2026-04-28T08:17:11.859Z</time></trkpt><trkpt lat="44.29464632140647" lon="10.982933025275024"><ele>567.0</ele><time>2026-04-28T08:17:12.859Z</time></trkpt><trkpt lat="44.29454049431425" lon="10.98296660463903"><ele>567.0</ele><time>2026-04-28T08:17:13.859Z</time></trkpt><trkpt lat="44.29444642007077" lon="10.983019106184562"><ele>567.0</ele><time>2026-04-28T08:17:14.859Z</time></trkpt><trkpt lat="44.29435270320359" lon="10.98308421282275"><ele>567.0</ele><time>2026-04-28T08:17:15.859Z</time></trkpt><trkpt lat="44.29426448688903" lon="10.983177785176679"><ele>567.0</ele><time>2026-04-28T08:17:16.859Z</time></trkpt><trkpt lat="44.29417745961642" lon="10.983295791668322"><ele>567.0</ele><time>2026-04-28T08:17:17.859Z</time></trkpt><trkpt lat="44.2941021260762" lon="10.98342907789671"><ele>568.75</ele><time>2026-04-28T08:17:18.859Z</time></trkpt><trkpt lat="44.29405109532945" lon="10.983582830015305"><ele>570.5</ele><time>2026-04-28T08:17:19.859Z</time></trkpt><trkpt lat="44.29397327570775" lon="10.983734893272537"><ele>572.25</ele><time>2026-04-28T08:17:20.859Z</time></trkpt><trkpt lat="44.29392260486616" lon="10.9838706390271"><ele>574.0</ele><time>2026-04-28T08:17:21.859Z</time></trkpt><trkpt lat="44.29386123624231" lon="10.984007214211408"><ele>574.0</ele><time>2026-04-28T08:17:22.859Z</time></trkpt><trkpt lat="44.293796908435084" lon="10.984124841450495"><ele>574.0</ele><time>2026-04-28T08:17:23.859Z</time></trkpt><trkpt lat="44.293713077795935" lon="10.984220818019079"><ele>574.0</ele><time>2026-04-28T08:17:24.859Z</time></trkpt><trkpt lat="44.29361024180884" lon="10.984303016020291"><ele>574.0</ele><time>2026-04-28T08:17:25.859Z</time></trkpt><trkpt lat="44.29351055989219" lon="10.984373977651448"><ele>574.0</ele><time>2026-04-28T08:17:26.859Z</time></trkpt><trkpt lat="44.293416434383076" lon="10.984461273047582"><ele>576.5</ele><time>2026-04-28T08:17:27.859Z</time></trkpt><trkpt lat="44.29331799513579" lon="10.98459175866513"><ele>579.0</ele><time>2026-04-28T08:17:28.859Z</time></trkpt><trkpt lat="44.29323642958782" lon="10.984741239921831"><ele>581.5</ele><time>2026-04-28T08:17:29.859Z</time></trkpt><trkpt lat="44.29317191551247" lon="10.98489945669575"><ele>584.0</ele><time>2026-04-28T08:17:30.859Z</time></trkpt><trkpt lat="44.2930936178265" lon="10.985029417273639"><ele>586.0</ele><time>2026-04-28T08:17:31.859Z</time></trkpt><trkpt lat="44.29303197202445" lon="10.985144760865078"><ele>588.0</ele><time>2026-04-28T08:17:32.859Z</time></trkpt><trkpt lat="44.29293468003965" lon="10.985227747101526"><ele>590.0</ele><time>2026-04-28T08:17:33.859Z</time></trkpt><trkpt lat="44.29284533614971" lon="10.985331910391427"><ele>592.0</ele><time>2026-04-28T08:17:34.859Z</time></trkpt><trkpt lat="44.29274664245639" lon="10.985409848192676"><ele>594.0</ele><time>2026-04-28T08:17:35.859Z</time></trkpt><trkpt lat="44.292659767083215" lon="10.985483846728995"><ele>594.0</ele><time>2026-04-28T08:17:36.859Z</time></trkpt><trkpt lat="44.29257935195478" lon="10.985572750647083"><ele>594.0</ele><time>2026-04-28T08:17:37.859Z</time></trkpt><trkpt lat="44.29254068296947" lon="10.985737356657236"><ele>594.0</ele><time>2026-04-28T08:17:38.859Z</time></trkpt><trkpt lat="44.29250939208078" lon="10.98588157187256"><ele>594.0</ele><time>2026-04-28T08:17:39.859Z</time></trkpt><trkpt lat="44.2924832542863" lon="10.986035140596401"><ele>594.0</ele><time>2026-04-28T08:17:40.859Z</time></trkpt><trkpt lat="44.29242474252812" lon="10.986179684769699"><ele>597.75</ele><time>2026-04-28T08:17:41.859Z</time></trkpt><trkpt lat="44.29237345846226" lon="10.986332199542277"><ele>601.5</ele><time>2026-04-28T08:17:42.859Z</time></trkpt><trkpt lat="44.29232480591507" lon="10.986471547606358"><ele>605.25</ele><time>2026-04-28T08:17:43.859Z</time></trkpt><trkpt lat="44.29227919973877" lon="10.986646640181737"><ele>609.0</ele><time>2026-04-28T08:17:44.859Z</time></trkpt><trkpt lat="44.29221424707621" lon="10.986791346474009"><ele>610.0</ele><time>2026-04-28T08:17:45.859Z</time></trkpt><trkpt lat="44.292141366975386" lon="10.986902505497124"><ele>611.0</ele><time>2026-04-28T08:17:46.859Z</time></trkpt><trkpt lat="44.29207804460256" lon="10.986993909951998"><ele>612.0</ele><time>2026-04-28T08:17:47.859Z</time></trkpt><trkpt lat="44.29200187749913" lon="10.987024626513191"><ele>613.0</ele><time>2026-04-28T08:17:48.859Z</time></trkpt><trkpt lat="44.29191430272992" lon="10.987007403686231"><ele>614.0</ele><time>2026-04-28T08:17:49.859Z</time></trkpt><trkpt lat="44.29182604374678" lon="10.986941736234582"><ele>614.0</ele><time>2026-04-28T08:17:50.859Z</time></trkpt><trkpt lat="44.291743133034885" lon="10.98683981284571"><ele>614.0</ele><time>2026-04-28T08:17:51.859Z</time></trkpt><trkpt lat="44.291677587024886" lon="10.986773337266758"><ele>614.0</ele><time>2026-04-28T08:17:52.859Z</time></trkpt><trkpt lat="44.291612263134994" lon="10.986728405409915"><ele>614.0</ele><time>2026-04-28T08:17:53.859Z</time></trkpt><trkpt lat="44.291528522886125" lon="10.986733563564076"><ele>614.0</ele><time>2026-04-28T08:17:54.859Z</time></trkpt><trkpt lat="44.291450627529194" lon="10.986785155346329"><ele>614.0</ele><time>2026-04-28T08:17:55.859Z</time></trkpt><trkpt lat="44.29137265708191" lon="10.986863457975556"><ele>613.2</ele><time>2026-04-28T08:17:56.859Z</time></trkpt><trkpt lat="44.29131767527458" lon="10.986949884875072"><ele>612.4</ele><time>2026-04-28T08:17:57.859Z</time></trkpt><trkpt lat="44.291287716658076" lon="10.987064685411777"><ele>611.6</ele><time>2026-04-28T08:17:58.859Z</time></trkpt><trkpt lat="44.29127893420885" lon="10.987175895123855"><ele>610.8</ele><time>2026-04-28T08:17:59.859Z</time></trkpt><trkpt lat="44.29131339570475" lon="10.987311887744777"><ele>610.0</ele><time>2026-04-28T08:18:00.859Z</time></trkpt><trkpt lat="44.29141505264458" lon="10.987407285885592"><ele>610.8</ele><time>2026-04-28T08:18:01.859Z</time></trkpt><trkpt lat="44.29150798034626" lon="10.987429157895527"><ele>611.6</ele><time>2026-04-28T08:18:02.859Z</time></trkpt><trkpt lat="44.291598696855296" lon="10.987504583476056"><ele>612.4</ele><time>2026-04-28T08:18:04.858Z</time></trkpt><trkpt lat="44.29160147086908" lon="10.987696427248158"><ele>613.2</ele><time>2026-04-28T08:18:06.858Z</time></trkpt><trkpt lat="44.29155949872073" lon="10.987816725178005"><ele>614.0</ele><time>2026-04-28T08:18:07.858Z</time></trkpt><trkpt lat="44.29150628319071" lon="10.987941742401398"><ele>615.6</ele><time>2026-04-28T08:18:08.858Z</time></trkpt><trkpt lat="44.2914656164559" lon="10.988098332038916"><ele>617.2</ele><time>2026-04-28T08:18:09.858Z</time></trkpt><trkpt lat="44.29142518351714" lon="10.988251181491995"><ele>618.8000000000001</ele><time>2026-04-28T08:18:10.858Z</time></trkpt><trkpt lat="44.29141685866218" lon="10.988386469070907"><ele>620.4</ele><time>2026-04-28T08:18:11.858Z</time></trkpt><trkpt lat="44.29136369771448" lon="10.988514501949835"><ele>622.0</ele><time>2026-04-28T08:18:12.858Z</time></trkpt><trkpt lat="44.29128786023065" lon="10.988635637826597"><ele>622.0</ele><time>2026-04-28T08:18:13.858Z</time></trkpt><trkpt lat="44.29120346894416" lon="10.98875013613234"><ele>622.0</ele><time>2026-04-28T08:18:14.858Z</time></trkpt><trkpt lat="44.29112366146872" lon="10.98885502380127"><ele>622.0</ele><time>2026-04-28T08:18:15.858Z</time></trkpt><trkpt lat="44.29103628983345" lon="10.98896961925631"><ele>622.0</ele><time>2026-04-28T08:18:16.858Z</time></trkpt><trkpt lat="44.290982493968556" lon="10.989099486463301"><ele>625.6</ele><time>2026-04-28T08:18:17.858Z</time></trkpt><trkpt lat="44.290940359728324" lon="10.989233813186747"><ele>629.2</ele><time>2026-04-28T08:18:18.858Z</time></trkpt><trkpt lat="44.29091169517312" lon="10.989348024371175"><ele>632.8</ele><time>2026-04-28T08:18:19.858Z</time></trkpt><trkpt lat="44.290889260896975" lon="10.989465220077236"><ele>636.4</ele><time>2026-04-28T08:18:20.858Z</time></trkpt><trkpt lat="44.29086173634975" lon="10.98956759397763"><ele>640.0</ele><time>2026-04-28T08:18:21.858Z</time></trkpt><trkpt lat="44.29081628749859" lon="10.989684511021961"><ele>640.0</ele><time>2026-04-28T08:18:22.858Z</time></trkpt><trkpt lat="44.29075604944807" lon="10.989795469440091"><ele>640.0</ele><time>2026-04-28T08:18:23.858Z</time></trkpt><trkpt lat="44.290671051670536" lon="10.98988142131801"><ele>640.0</ele><time>2026-04-28T08:18:24.858Z</time></trkpt><trkpt lat="44.29058611752788" lon="10.989972974110787"><ele>640.0</ele><time>2026-04-28T08:18:25.858Z</time></trkpt><trkpt lat="44.29049060192076" lon="10.990027378150716"><ele>640.0</ele><time>2026-04-28T08:18:26.858Z</time></trkpt><trkpt lat="44.29038417149537" lon="10.990068551132705"><ele>642.4</ele><time>2026-04-28T08:18:27.858Z</time></trkpt><trkpt lat="44.29028122694118" lon="10.990151483445123"><ele>644.8</ele><time>2026-04-28T08:18:28.858Z</time></trkpt><trkpt lat="44.29017998633816" lon="10.990201800958111"><ele>647.2</ele><time>2026-04-28T08:18:29.858Z</time></trkpt><trkpt lat="44.29008268697353" lon="10.990245341489619"><ele>649.6</ele><time>2026-04-28T08:18:30.858Z</time></trkpt><trkpt lat="44.2900045386714" lon="10.99032981673408"><ele>652.0</ele><time>2026-04-28T08:18:31.858Z</time></trkpt><trkpt lat="44.28991948081374" lon="10.990416636506481"><ele>652.0</ele><time>2026-04-28T08:18:32.858Z</time></trkpt><trkpt lat="44.28984026902242" lon="10.990515761270583"><ele>652.0</ele><time>2026-04-28T08:18:33.858Z</time></trkpt><trkpt lat="44.289766444950715" lon="10.99065992399362"><ele>652.0</ele><time>2026-04-28T08:18:34.858Z</time></trkpt><trkpt lat="44.2896856781729" lon="10.990791353424365"><ele>652.0</ele><time>2026-04-28T08:18:35.858Z</time></trkpt><trkpt lat="44.28960188999864" lon="10.990969154452957"><ele>650.25</ele><time>2026-04-28T08:18:36.858Z</time></trkpt><trkpt lat="44.28954963627696" lon="10.99115256055484"><ele>648.5</ele><time>2026-04-28T08:18:37.858Z</time></trkpt><trkpt lat="44.28949254266992" lon="10.991308775924535"><ele>646.75</ele><time>2026-04-28T08:18:38.858Z</time></trkpt><trkpt lat="44.28941101756818" lon="10.991425880030762"><ele>645.0</ele><time>2026-04-28T08:18:39.858Z</time></trkpt><trkpt lat="44.28933907985454" lon="10.991502892717813"><ele>645.0</ele><time>2026-04-28T08:18:40.858Z</time></trkpt><trkpt lat="44.28925753337561" lon="10.991563467428247"><ele>645.0</ele><time>2026-04-28T08:18:41.858Z</time></trkpt><trkpt lat="44.28915941007487" lon="10.991590958861964"><ele>645.0</ele><time>2026-04-28T08:18:42.858Z</time></trkpt><trkpt lat="44.28904043032013" lon="10.99159612091749"><ele>645.0</ele><time>2026-04-28T08:18:43.858Z</time></trkpt><trkpt lat="44.28892089717944" lon="10.991622495826885"><ele>645.0</ele><time>2026-04-28T08:18:44.858Z</time></trkpt><trkpt lat="44.28879434922065" lon="10.991674657698972"><ele>646.25</ele><time>2026-04-28T08:18:45.858Z</time></trkpt><trkpt lat="44.28867714012534" lon="10.991754289959891"><ele>647.5</ele><time>2026-04-28T08:18:46.858Z</time></trkpt><trkpt lat="44.28857719328492" lon="10.991867774924554"><ele>648.75</ele><time>2026-04-28T08:18:47.858Z</time></trkpt><trkpt lat="44.28847655572998" lon="10.991975438713261"><ele>650.0</ele><time>2026-04-28T08:18:48.858Z</time></trkpt><trkpt lat="44.28838154443434" lon="10.99209740803155"><ele>650.0</ele><time>2026-04-28T08:18:49.858Z</time></trkpt><trkpt lat="44.28828942478977" lon="10.992220538150216"><ele>650.0</ele><time>2026-04-28T08:18:50.858Z</time></trkpt><trkpt lat="44.28816791545334" lon="10.992319062112664"><ele>650.0</ele><time>2026-04-28T08:18:51.858Z</time></trkpt><trkpt lat="44.288041493349354" lon="10.992434808515373"><ele>650.0</ele><time>2026-04-28T08:18:52.858Z</time></trkpt><trkpt lat="44.28791815004767" lon="10.992564230214228"><ele>652.75</ele><time>2026-04-28T08:18:53.858Z</time></trkpt><trkpt lat="44.28781074809707" lon="10.992696817416205"><ele>655.5</ele><time>2026-04-28T08:18:54.858Z</time></trkpt><trkpt lat="44.2876994946867" lon="10.992794233055774"><ele>658.25</ele><time>2026-04-28T08:18:55.858Z</time></trkpt><trkpt lat="44.28758459582924" lon="10.992886043806008"><ele>661.0</ele><time>2026-04-28T08:18:56.858Z</time></trkpt><trkpt lat="44.287488757440144" lon="10.993018070324707"><ele>661.0</ele><time>2026-04-28T08:18:57.858Z</time></trkpt><trkpt lat="44.28739866265772" lon="10.993166847290027"><ele>661.0</ele><time>2026-04-28T08:18:58.858Z</time></trkpt><trkpt lat="44.28731052517731" lon="10.993323517721262"><ele>661.0</ele><time>2026-04-28T08:18:59.858Z</time></trkpt><trkpt lat="44.28723678755129" lon="10.993505092422122"><ele>661.0</ele><time>2026-04-28T08:19:00.858Z</time></trkpt><trkpt lat="44.28718005030362" lon="10.993707191018034"><ele>663.6666666666667</ele><time>2026-04-28T08:19:01.858Z</time></trkpt><trkpt lat="44.28711904500702" lon="10.993926755173307"><ele>666.3333333333334</ele><time>2026-04-28T08:19:02.858Z</time></trkpt><trkpt lat="44.28702823223008" lon="10.99409619109173"><ele>669.0</ele><time>2026-04-28T08:19:03.858Z</time></trkpt><trkpt lat="44.2869437748258" lon="10.99424619742962"><ele>669.0</ele><time>2026-04-28T08:19:04.858Z</time></trkpt><trkpt lat="44.28686088499288" lon="10.994368906851138"><ele>669.0</ele><time>2026-04-28T08:19:05.858Z</time></trkpt><trkpt lat="44.28679326012702" lon="10.99447084182859"><ele>669.0</ele><time>2026-04-28T08:19:06.858Z</time></trkpt><trkpt lat="44.28667985650878" lon="10.99454358964488"><ele>669.0</ele><time>2026-04-28T08:19:07.858Z</time></trkpt><trkpt lat="44.28652272730606" lon="10.994611862082474"><ele>674.5</ele><time>2026-04-28T08:19:08.858Z</time></trkpt><trkpt lat="44.286388130125296" lon="10.99466332253739"><ele>680.0</ele><time>2026-04-28T08:19:09.858Z</time></trkpt><trkpt lat="44.28625983079929" lon="10.994715493428513"><ele>685.5</ele><time>2026-04-28T08:19:10.858Z</time></trkpt><trkpt lat="44.28615250622357" lon="10.994807185282957"><ele>691.0</ele><time>2026-04-28T08:19:11.858Z</time></trkpt><trkpt lat="44.286070855236076" lon="10.994942053978054"><ele>688.0</ele><time>2026-04-28T08:19:12.858Z</time></trkpt><trkpt lat="44.28599708594379" lon="10.99508357943355"><ele>685.0</ele><time>2026-04-28T08:19:13.858Z</time></trkpt><trkpt lat="44.28592164200356" lon="10.995232076609149"><ele>682.0</ele><time>2026-04-28T08:19:14.858Z</time></trkpt><trkpt lat="44.28581155521143" lon="10.995332231541273"><ele>679.0</ele><time>2026-04-28T08:19:15.858Z</time></trkpt><trkpt lat="44.28569754480116" lon="10.99544815847642"><ele>679.0</ele><time>2026-04-28T08:19:16.858Z</time></trkpt><trkpt lat="44.28561088911627" lon="10.995623752539887"><ele>679.0</ele><time>2026-04-28T08:19:17.857Z</time></trkpt><trkpt lat="44.28555354987074" lon="10.995778543993312"><ele>679.0</ele><time>2026-04-28T08:19:18.857Z</time></trkpt><trkpt lat="44.285491496164035" lon="10.995882036459925"><ele>679.0</ele><time>2026-04-28T08:19:19.857Z</time></trkpt><trkpt lat="44.28544600035522" lon="10.995980279170332"><ele>681.2</ele><time>2026-04-28T08:19:20.857Z</time></trkpt><trkpt lat="44.285365353663934" lon="10.996040009421959"><ele>683.4000000000001</ele><time>2026-04-28T08:19:21.857Z</time></trkpt><trkpt lat="44.28525236315875" lon="10.996059266277847"><ele>685.6</ele><time>2026-04-28T08:19:22.857Z</time></trkpt><trkpt lat="44.28516176000613" lon="10.996116329685933"><ele>687.8</ele><time>2026-04-28T08:19:23.857Z</time></trkpt><trkpt lat="44.285082146783566" lon="10.99617083223877"><ele>690.0</ele><time>2026-04-28T08:19:24.857Z</time></trkpt><trkpt lat="44.28502891989868" lon="10.996278260120318"><ele>690.0</ele><time>2026-04-28T08:19:25.857Z</time></trkpt><trkpt lat="44.28496900201268" lon="10.996387224905844"><ele>690.0</ele><time>2026-04-28T08:19:26.857Z</time></trkpt><trkpt lat="44.284952054814624" lon="10.99655989561619"><ele>690.0</ele><time>2026-04-28T08:19:27.857Z</time></trkpt><trkpt lat="44.284917092126285" lon="10.996685966820216"><ele>690.0</ele><time>2026-04-28T08:19:28.857Z</time></trkpt><trkpt lat="44.28487610132169" lon="10.996799972682348"><ele>690.0</ele><time>2026-04-28T08:19:29.857Z</time></trkpt><trkpt lat="44.284775155807935" lon="10.996858744882505"><ele>691.3333333333334</ele><time>2026-04-28T08:19:30.857Z</time></trkpt><trkpt lat="44.2846491943939" lon="10.996937889605382"><ele>692.6666666666667</ele><time>2026-04-28T08:19:31.857Z</time></trkpt><trkpt lat="44.2845078324559" lon="10.997041957553078"><ele>694.0</ele><time>2026-04-28T08:19:32.857Z</time></trkpt><trkpt lat="44.28436519643994" lon="10.997116029705449"><ele>694.0</ele><time>2026-04-28T08:19:33.857Z</time></trkpt><trkpt lat="44.28422023316644" lon="10.997211186654242"><ele>694.0</ele><time>2026-04-28T08:19:34.857Z</time></trkpt><trkpt lat="44.28408324421485" lon="10.997307426346214"><ele>694.0</ele><time>2026-04-28T08:19:35.857Z</time></trkpt><trkpt lat="44.28395286034639" lon="10.997354509823456"><ele>694.0</ele><time>2026-04-28T08:19:36.857Z</time></trkpt><trkpt lat="44.28383213604272" lon="10.99739164780969"><ele>696.5</ele><time>2026-04-28T08:19:37.857Z</time></trkpt><trkpt lat="44.2837058399104" lon="10.997419084255476"><ele>699.0</ele><time>2026-04-28T08:19:38.857Z</time></trkpt><trkpt lat="44.28361821357895" lon="10.99743957320185"><ele>701.5</ele><time>2026-04-28T08:19:39.857Z</time></trkpt><trkpt lat="44.28356172235905" lon="10.997506116014833"><ele>704.0</ele><time>2026-04-28T08:19:40.857Z</time></trkpt><trkpt lat="44.28351672048412" lon="10.997582051286878"><ele>706.5</ele><time>2026-04-28T08:19:41.857Z</time></trkpt><trkpt lat="44.28349584023507" lon="10.997693240906456"><ele>709.0</ele><time>2026-04-28T08:19:42.857Z</time></trkpt><trkpt lat="44.28351523509991" lon="10.997803422916835"><ele>709.0</ele><time>2026-04-28T08:19:43.857Z</time></trkpt><trkpt lat="44.28360162702271" lon="10.997910574638292"><ele>709.0</ele><time>2026-04-28T08:19:44.857Z</time></trkpt><trkpt lat="44.28370224397388" lon="10.998007357970664"><ele>709.0</ele><time>2026-04-28T08:19:45.857Z</time></trkpt><trkpt lat="44.28375225642595" lon="10.998133157252626"><ele>709.0</ele><time>2026-04-28T08:19:46.857Z</time></trkpt><trkpt lat="44.28379107518021" lon="10.998221221244478"><ele>709.0</ele><time>2026-04-28T08:19:47.857Z</time></trkpt><trkpt lat="44.28377475809678" lon="10.998422090696018"><ele>709.8000000000001</ele><time>2026-04-28T08:19:49.857Z</time></trkpt><trkpt lat="44.283714145707705" lon="10.998510412670177"><ele>710.6</ele><time>2026-04-28T08:19:50.857Z</time></trkpt><trkpt lat="44.283636586117844" lon="10.99859200893402"><ele>711.4</ele><time>2026-04-28T08:19:51.857Z</time></trkpt><trkpt lat="44.28356894688164" lon="10.998705995555897"><ele>712.2</ele><time>2026-04-28T08:19:52.857Z</time></trkpt><trkpt lat="44.283498668827164" lon="10.998818702228434"><ele>713.0</ele><time>2026-04-28T08:19:53.857Z</time></trkpt><trkpt lat="44.283436426176785" lon="10.998949157205233"><ele>713.0</ele><time>2026-04-28T08:19:54.857Z</time></trkpt><trkpt lat="44.28340226144678" lon="10.9991205755936"><ele>713.0</ele><time>2026-04-28T08:19:55.857Z</time></trkpt><trkpt lat="44.28339340426579" lon="10.999302933251089"><ele>713.0</ele><time>2026-04-28T08:19:56.857Z</time></trkpt><trkpt lat="44.28339814725448" lon="10.999495183336178"><ele>713.0</ele><time>2026-04-28T08:19:57.857Z</time></trkpt><trkpt lat="44.2833919603052" lon="10.999672377603563"><ele>714.5</ele><time>2026-04-28T08:19:58.857Z</time></trkpt><trkpt lat="44.28337347584859" lon="10.99986161753457"><ele>716.0</ele><time>2026-04-28T08:19:59.857Z</time></trkpt><trkpt lat="44.283356450959126" lon="11.000048585451799"><ele>717.5</ele><time>2026-04-28T08:20:00.857Z</time></trkpt><trkpt lat="44.283335718652154" lon="11.000237957021984"><ele>719.0</ele><time>2026-04-28T08:20:01.857Z</time></trkpt><trkpt lat="44.2833052766971" lon="11.000426527000753"><ele>719.0</ele><time>2026-04-28T08:20:02.857Z</time></trkpt><trkpt lat="44.28327518869985" lon="11.000618388284368"><ele>719.0</ele><time>2026-04-28T08:20:03.857Z</time></trkpt><trkpt lat="44.28326689216301" lon="11.00081934474735"><ele>719.0</ele><time>2026-04-28T08:20:04.857Z</time></trkpt><trkpt lat="44.28325888461365" lon="11.001000859029917"><ele>719.0</ele><time>2026-04-28T08:20:05.857Z</time></trkpt><trkpt lat="44.28326327473662" lon="11.001171057918244"><ele>720.5</ele><time>2026-04-28T08:20:06.857Z</time></trkpt><trkpt lat="44.283272204818196" lon="11.001349626461153"><ele>722.0</ele><time>2026-04-28T08:20:07.857Z</time></trkpt><trkpt lat="44.28333994109321" lon="11.001517645519902"><ele>723.5</ele><time>2026-04-28T08:20:08.857Z</time></trkpt><trkpt lat="44.28342177471619" lon="11.001632016576163"><ele>725.0</ele><time>2026-04-28T08:20:09.857Z</time></trkpt><trkpt lat="44.28346840723077" lon="11.001744971575535"><ele>726.2</ele><time>2026-04-28T08:20:10.857Z</time></trkpt><trkpt lat="44.283495971206115" lon="11.00185814717007"><ele>727.4</ele><time>2026-04-28T08:20:11.857Z</time></trkpt><trkpt lat="44.283500518846786" lon="11.001985320052796"><ele>728.5999999999999</ele><time>2026-04-28T08:20:12.857Z</time></trkpt><trkpt lat="44.283470367506595" lon="11.002105508233962"><ele>729.8</ele><time>2026-04-28T08:20:13.857Z</time></trkpt><trkpt lat="44.28341229657635" lon="11.002204365668202"><ele>731.0</ele><time>2026-04-28T08:20:14.857Z</time></trkpt><trkpt lat="44.28333149018916" lon="11.002293197260904"><ele>731.0</ele><time>2026-04-28T08:20:15.857Z</time></trkpt><trkpt lat="44.283225191186276" lon="11.002380745125194"><ele>731.0</ele><time>2026-04-28T08:20:16.856Z</time></trkpt><trkpt lat="44.28310687974444" lon="11.002443955628221"><ele>731.0</ele><time>2026-04-28T08:20:17.856Z</time></trkpt><trkpt lat="44.282976736935495" lon="11.00248307216092"><ele>731.0</ele><time>2026-04-28T08:20:18.856Z</time></trkpt><trkpt lat="44.28284789503188" lon="11.00252775851352"><ele>736.5</ele><time>2026-04-28T08:20:19.856Z</time></trkpt><trkpt lat="44.282727601420696" lon="11.00259894164434"><ele>742.0</ele><time>2026-04-28T08:20:20.856Z</time></trkpt><trkpt lat="44.282608256605464" lon="11.0027077329415"><ele>747.5</ele><time>2026-04-28T08:20:21.856Z</time></trkpt><trkpt lat="44.2825026067424" lon="11.002834841087845"><ele>753.0</ele><time>2026-04-28T08:20:22.856Z</time></trkpt><trkpt lat="44.28241478505971" lon="11.002943249346993"><ele>753.0</ele><time>2026-04-28T08:20:23.856Z</time></trkpt><trkpt lat="44.28231156318748" lon="11.00304495943004"><ele>753.0</ele><time>2026-04-28T08:20:24.856Z</time></trkpt><trkpt lat="44.28220187406874" lon="11.003120528487536"><ele>753.0</ele><time>2026-04-28T08:20:25.856Z</time></trkpt><trkpt lat="44.28209469649909" lon="11.003171378624444"><ele>753.0</ele><time>2026-04-28T08:20:26.856Z</time></trkpt><trkpt lat="44.28198718825583" lon="11.003239918771278"><ele>758.75</ele><time>2026-04-28T08:20:27.856Z</time></trkpt><trkpt lat="44.28188630400095" lon="11.00334805265554"><ele>764.5</ele><time>2026-04-28T08:20:28.856Z</time></trkpt><trkpt lat="44.28181830085507" lon="11.003495433670029"><ele>770.25</ele><time>2026-04-28T08:20:29.856Z</time></trkpt><trkpt lat="44.28178842821856" lon="11.00368197333153"><ele>776.0</ele><time>2026-04-28T08:20:30.856Z</time></trkpt><trkpt lat="44.281758334272155" lon="11.003826040257557"><ele>776.0</ele><time>2026-04-28T08:20:31.856Z</time></trkpt><trkpt lat="44.28170526145998" lon="11.00398021042114"><ele>776.0</ele><time>2026-04-28T08:20:32.856Z</time></trkpt><trkpt lat="44.28162336064473" lon="11.004095664257747"><ele>776.0</ele><time>2026-04-28T08:20:33.856Z</time></trkpt><trkpt lat="44.28151411171724" lon="11.004179329759337"><ele>776.0</ele><time>2026-04-28T08:20:34.856Z</time></trkpt><trkpt lat="44.2813697405812" lon="11.00422098068512"><ele>775.5</ele><time>2026-04-28T08:20:35.856Z</time></trkpt><trkpt lat="44.2812364366628" lon="11.004272221945712"><ele>775.0</ele><time>2026-04-28T08:20:36.856Z</time></trkpt><trkpt lat="44.28109971381466" lon="11.00432186903047"><ele>774.5</ele><time>2026-04-28T08:20:37.855Z</time></trkpt><trkpt lat="44.2809864489798" lon="11.00437437825078"><ele>774.0</ele><time>2026-04-28T08:20:38.855Z</time></trkpt><trkpt lat="44.280897860774836" lon="11.004425227702535"><ele>774.0</ele><time>2026-04-28T08:20:39.856Z</time></trkpt><trkpt lat="44.28082941492939" lon="11.004457774445967"><ele>774.0</ele><time>2026-04-28T08:20:40.856Z</time></trkpt><trkpt lat="44.28071966049842" lon="11.004510177477115"><ele>774.0</ele><time>2026-04-28T08:20:42.856Z</time></trkpt><trkpt lat="44.28063205430131" lon="11.004559869717482"><ele>774.0</ele><time>2026-04-28T08:20:44.856Z</time></trkpt><trkpt lat="44.280566530850834" lon="11.00458420778081"><ele>774.0</ele><time>2026-04-28T08:20:45.856Z</time></trkpt><trkpt lat="44.28048507597284" lon="11.00459638735458"><ele>774.0</ele><time>2026-04-28T08:20:47.855Z</time></trkpt><trkpt lat="44.28039477783542" lon="11.004602424178708"><ele>774.3333333333334</ele><time>2026-04-28T08:20:49.855Z</time></trkpt><trkpt lat="44.28030940485039" lon="11.004624110995232"><ele>774.6666666666667</ele><time>2026-04-28T08:20:51.855Z</time></trkpt><trkpt lat="44.280250613793626" lon="11.004666063624994"><ele>775.0</ele><time>2026-04-28T08:20:53.855Z</time></trkpt><trkpt lat="44.28016964257938" lon="11.004680341905535"><ele>775.3333333333334</ele><time>2026-04-28T08:20:56.855Z</time></trkpt><trkpt lat="44.28007796786731" lon="11.004697622007173"><ele>775.6666666666667</ele><time>2026-04-28T08:20:59.855Z</time></trkpt><trkpt lat="44.28001401681537" lon="11.004688776579522"><ele>776.0</ele><time>2026-04-28T08:21:01.855Z</time></trkpt><trkpt lat="44.27993245508598" lon="11.004691961467193"><ele>776.0</ele><time>2026-04-28T08:21:05.855Z</time></trkpt><trkpt lat="44.27986390848135" lon="11.004724817170503"><ele>776.0</ele><time>2026-04-28T08:21:09.855Z</time></trkpt><trkpt lat="44.27979156586949" lon="11.004740095583266"><ele>776.0</ele><time>2026-04-28T08:21:13.855Z</time></trkpt><trkpt lat="44.27970451346128" lon="11.004784994492084"><ele>774.0</ele><time>2026-04-28T08:21:17.855Z</time></trkpt><trkpt lat="44.2796293487813" lon="11.004824907261701"><ele>774.0</ele><time>2026-04-28T08:21:20.855Z</time></trkpt><trkpt lat="44.279555254085075" lon="11.004770002260527"><ele>774.0</ele><time>2026-04-28T08:21:36.855Z</time></trkpt></trkseg><trkseg><trkpt lat="44.279501907997165" lon="11.004888925645485"><ele>774.0</ele><time>2026-04-28T08:53:39.881Z</time></trkpt><trkpt lat="44.27954584489815" lon="11.004799889013297"><ele>774.0</ele><time>2026-04-28T08:53:42.881Z</time></trkpt><trkpt lat="44.27966829975971" lon="11.00477442406233"><ele>774.0</ele><time>2026-04-28T08:53:44.881Z</time></trkpt><trkpt lat="44.27979761875039" lon="11.00477358568396"><ele>774.0</ele><time>2026-04-28T08:53:46.881Z</time></trkpt><trkpt lat="44.27987916651293" lon="11.004683217836659"><ele>774.0</ele><time>2026-04-28T08:53:48.881Z</time></trkpt><trkpt lat="44.27994980910015" lon="11.004568001134142"><ele>774.3333333333334</ele><time>2026-04-28T08:53:50.881Z</time></trkpt><trkpt lat="44.28001342723169" lon="11.004523885273608"><ele>774.6666666666667</ele><time>2026-04-28T08:53:51.881Z</time></trkpt><trkpt lat="44.28008994510795" lon="11.004533712777524"><ele>775.0</ele><time>2026-04-28T08:53:52.881Z</time></trkpt><trkpt lat="44.28015612456784" lon="11.004567739197727"><ele>775.3333333333334</ele><time>2026-04-28T08:53:53.881Z</time></trkpt><trkpt lat="44.280243201083294" lon="11.004589452428515"><ele>775.6666666666667</ele><time>2026-04-28T08:53:55.881Z</time></trkpt><trkpt lat="44.28030002490345" lon="11.004551285282721"><ele>776.0</ele><time>2026-04-28T08:53:57.881Z</time></trkpt><trkpt lat="44.28029756882427" lon="11.004439454444414"><ele>776.0</ele><time>2026-04-28T08:53:59.881Z</time></trkpt><trkpt lat="44.28025156552477" lon="11.004360121533525"><ele>776.0</ele><time>2026-04-28T08:54:00.881Z</time></trkpt><trkpt lat="44.28018342301525" lon="11.004278097294705"><ele>776.0</ele><time>2026-04-28T08:54:01.881Z</time></trkpt><trkpt lat="44.28010647678718" lon="11.004172726030257"><ele>776.0</ele><time>2026-04-28T08:54:02.881Z</time></trkpt><trkpt lat="44.28003442233003" lon="11.004049201514567"><ele>776.0</ele><time>2026-04-28T08:54:03.881Z</time></trkpt><trkpt lat="44.27995002547358" lon="11.00393660307115"><ele>779.1999999999999</ele><time>2026-04-28T08:54:04.881Z</time></trkpt><trkpt lat="44.27985745095298" lon="11.003861148097483"><ele>782.4</ele><time>2026-04-28T08:54:05.881Z</time></trkpt><trkpt lat="44.2797905137997" lon="11.003817786663891"><ele>785.6</ele><time>2026-04-28T08:54:06.881Z</time></trkpt><trkpt lat="44.27969131368407" lon="11.003762864819109"><ele>788.8</ele><time>2026-04-28T08:54:08.881Z</time></trkpt><trkpt lat="44.27962336645984" lon="11.003739095510497"><ele>792.0</ele><time>2026-04-28T08:54:10.881Z</time></trkpt><trkpt lat="44.279519969897656" lon="11.003700866275176"><ele>792.6</ele><time>2026-04-28T08:54:13.88Z</time></trkpt><trkpt lat="44.27945380877411" lon="11.003679126940897"><ele>793.2</ele><time>2026-04-28T08:54:14.88Z</time></trkpt><trkpt lat="44.27938106372858" lon="11.003654116184023"><ele>793.8</ele><time>2026-04-28T08:54:15.88Z</time></trkpt><trkpt lat="44.27928186281765" lon="11.003621675194422"><ele>794.4</ele><time>2026-04-28T08:54:16.88Z</time></trkpt><trkpt lat="44.27920465013068" lon="11.003586750070124"><ele>795.0</ele><time>2026-04-28T08:54:17.88Z</time></trkpt><trkpt lat="44.279065327511205" lon="11.003555280056645"><ele>795.0</ele><time>2026-04-28T08:54:19.88Z</time></trkpt><trkpt lat="44.27898198536503" lon="11.003527673989932"><ele>795.0</ele><time>2026-04-28T08:54:20.88Z</time></trkpt><trkpt lat="44.27890560817542" lon="11.003493008727133"><ele>795.0</ele><time>2026-04-28T08:54:21.88Z</time></trkpt><trkpt lat="44.278838372933485" lon="11.003468926366004"><ele>795.0</ele><time>2026-04-28T08:54:22.88Z</time></trkpt><trkpt lat="44.27876118309681" lon="11.003236883182135"><ele>795.0</ele><time>2026-04-28T08:54:25.88Z</time></trkpt><trkpt lat="44.27875326298423" lon="11.003105861294339"><ele>794.8333333333334</ele><time>2026-04-28T08:54:27.88Z</time></trkpt><trkpt lat="44.27873695923659" lon="11.002988650515233"><ele>794.6666666666667</ele><time>2026-04-28T08:54:28.88Z</time></trkpt><trkpt lat="44.278712566777294" lon="11.002849530895906"><ele>794.5</ele><time>2026-04-28T08:54:29.88Z</time></trkpt><trkpt lat="44.27869450209042" lon="11.002744616782623"><ele>794.3333333333334</ele><time>2026-04-28T08:54:30.88Z</time></trkpt><trkpt lat="44.27865186216099" lon="11.0026599659044"><ele>794.1666666666667</ele><time>2026-04-28T08:54:32.88Z</time></trkpt><trkpt lat="44.27859965654906" lon="11.002577146050042"><ele>794.0</ele><time>2026-04-28T08:54:34.88Z</time></trkpt><trkpt lat="44.2785229101517" lon="11.002474921653068"><ele>796.1428571428571</ele><time>2026-04-28T08:54:36.88Z</time></trkpt><trkpt lat="44.27846300187722" lon="11.002413523016441"><ele>798.2857142857142</ele><time>2026-04-28T08:54:38.88Z</time></trkpt><trkpt lat="44.27841517166985" lon="11.002350137305621"><ele>800.4285714285714</ele><time>2026-04-28T08:54:40.88Z</time></trkpt><trkpt lat="44.278355937619594" lon="11.002288946170015"><ele>802.5714285714286</ele><time>2026-04-28T08:54:42.88Z</time></trkpt><trkpt lat="44.278298346753225" lon="11.00224942579141"><ele>804.7142857142858</ele><time>2026-04-28T08:54:44.88Z</time></trkpt><trkpt lat="44.278241776525874" lon="11.002199034253412"><ele>806.8571428571429</ele><time>2026-04-28T08:54:46.88Z</time></trkpt><trkpt lat="44.278179373690634" lon="11.002127277020547"><ele>809.0</ele><time>2026-04-28T08:54:48.88Z</time></trkpt><trkpt lat="44.278139707095924" lon="11.001985091217332"><ele>809.0</ele><time>2026-04-28T08:54:50.88Z</time></trkpt><trkpt lat="44.27817201636284" lon="11.001875574845668"><ele>809.0</ele><time>2026-04-28T08:54:52.88Z</time></trkpt><trkpt lat="44.27829917816564" lon="11.001844082077053"><ele>809.0</ele><time>2026-04-28T08:54:54.88Z</time></trkpt><trkpt lat="44.2783796475795" lon="11.00189892958772"><ele>809.0</ele><time>2026-04-28T08:54:55.88Z</time></trkpt><trkpt lat="44.27842460687556" lon="11.001983640418082"><ele>809.0</ele><time>2026-04-28T08:54:56.88Z</time></trkpt><trkpt lat="44.27847498489102" lon="11.00205681755913"><ele>809.0000000000001</ele><time>2026-04-28T08:54:57.88Z</time></trkpt><trkpt lat="44.27853707696271" lon="11.00216754912648"><ele>809.0</ele><time>2026-04-28T08:54:59.88Z</time></trkpt><trkpt lat="44.27858880435206" lon="11.002226573129711"><ele>809.0</ele><time>2026-04-28T08:55:00.88Z</time></trkpt><trkpt lat="44.27866716568398" lon="11.002361354356573"><ele>809.0</ele><time>2026-04-28T08:55:02.88Z</time></trkpt><trkpt lat="44.27871801866224" lon="11.002430861094565"><ele>809.0000000000001</ele><time>2026-04-28T08:55:03.88Z</time></trkpt><trkpt lat="44.278761234298905" lon="11.002496425895808"><ele>809.0</ele><time>2026-04-28T08:55:04.88Z</time></trkpt><trkpt lat="44.27879854510449" lon="11.002569353323464"><ele>808.4000000000001</ele><time>2026-04-28T08:55:05.88Z</time></trkpt><trkpt lat="44.27887222002832" lon="11.002673419349218"><ele>807.8</ele><time>2026-04-28T08:55:07.88Z</time></trkpt><trkpt lat="44.27893480656056" lon="11.002751548994901"><ele>807.2</ele><time>2026-04-28T08:55:09.88Z</time></trkpt><trkpt lat="44.27898937561633" lon="11.0028275889403"><ele>806.5999999999999</ele><time>2026-04-28T08:55:11.88Z</time></trkpt><trkpt lat="44.279078401665565" lon="11.00289966714386"><ele>806.0</ele><time>2026-04-28T08:55:13.88Z</time></trkpt><trkpt lat="44.27917410935203" lon="11.002940237258791"><ele>806.0</ele><time>2026-04-28T08:55:15.88Z</time></trkpt><trkpt lat="44.279257924091375" lon="11.002954384299427"><ele>806.0</ele><time>2026-04-28T08:55:17.88Z</time></trkpt><trkpt lat="44.279366401191474" lon="11.002943296750454"><ele>806.0</ele><time>2026-04-28T08:55:19.88Z</time></trkpt><trkpt lat="44.27943742117121" lon="11.00295137502615"><ele>806.0</ele><time>2026-04-28T08:55:20.88Z</time></trkpt><trkpt lat="44.27954206003823" lon="11.002931852422094"><ele>806.0</ele><time>2026-04-28T08:55:22.878Z</time></trkpt><trkpt lat="44.27962196161987" lon="11.002916152063642"><ele>806.0</ele><time>2026-04-28T08:55:24.878Z</time></trkpt><trkpt lat="44.279710488949554" lon="11.002884268310115"><ele>806.0</ele><time>2026-04-28T08:55:26.878Z</time></trkpt><trkpt lat="44.279779232110705" lon="11.002882939604962"><ele>806.0</ele><time>2026-04-28T08:55:27.878Z</time></trkpt><trkpt lat="44.27984071470944" lon="11.002850967011184"><ele>806.0</ele><time>2026-04-28T08:55:28.878Z</time></trkpt><trkpt lat="44.279897926675" lon="11.002801445136177"><ele>806.0</ele><time>2026-04-28T08:55:29.877Z</time></trkpt><trkpt lat="44.27995685611785" lon="11.002728918799926"><ele>806.0</ele><time>2026-04-28T08:55:30.877Z</time></trkpt><trkpt lat="44.28000411053515" lon="11.002665205925284"><ele>806.0</ele><time>2026-04-28T08:55:31.877Z</time></trkpt><trkpt lat="44.2800764134307" lon="11.002561158953197"><ele>808.25</ele><time>2026-04-28T08:55:33.878Z</time></trkpt><trkpt lat="44.280145457678934" lon="11.002432095492495"><ele>810.5</ele><time>2026-04-28T08:55:35.877Z</time></trkpt><trkpt lat="44.280241679996784" lon="11.002305498189932"><ele>812.75</ele><time>2026-04-28T08:55:37.877Z</time></trkpt><trkpt lat="44.28029954886635" lon="11.00215569125137"><ele>815.0</ele><time>2026-04-28T08:55:39.877Z</time></trkpt><trkpt lat="44.28033812207833" lon="11.002028562052688"><ele>815.0</ele><time>2026-04-28T08:55:41.877Z</time></trkpt><trkpt lat="44.28037762605713" lon="11.001904122018123"><ele>815.0</ele><time>2026-04-28T08:55:43.877Z</time></trkpt><trkpt lat="44.2803997754992" lon="11.00178325698432"><ele>815.0</ele><time>2026-04-28T08:55:45.877Z</time></trkpt><trkpt lat="44.280420971775186" lon="11.001650687279769"><ele>815.0</ele><time>2026-04-28T08:55:47.877Z</time></trkpt><trkpt lat="44.280376082989896" lon="11.001499995648748"><ele>815.0</ele><time>2026-04-28T08:55:49.877Z</time></trkpt><trkpt lat="44.28032575372599" lon="11.001409726842887"><ele>815.1666666666667</ele><time>2026-04-28T08:55:50.877Z</time></trkpt><trkpt lat="44.28028104462285" lon="11.001335328938936"><ele>815.3333333333334</ele><time>2026-04-28T08:55:51.877Z</time></trkpt><trkpt lat="44.280211590132915" lon="11.001229827216047"><ele>815.5</ele><time>2026-04-28T08:55:53.877Z</time></trkpt><trkpt lat="44.28015803676794" lon="11.001179882463262"><ele>815.6666666666667</ele><time>2026-04-28T08:55:54.877Z</time></trkpt><trkpt lat="44.28012143772038" lon="11.001106009458619"><ele>815.8333333333334</ele><time>2026-04-28T08:55:55.877Z</time></trkpt><trkpt lat="44.280050403775896" lon="11.000967645148338"><ele>816.0</ele><time>2026-04-28T08:55:57.877Z</time></trkpt><trkpt lat="44.28001606882645" lon="11.000887827027242"><ele>815.0</ele><time>2026-04-28T08:55:58.877Z</time></trkpt><trkpt lat="44.27998187333248" lon="11.000811642607848"><ele>814.0</ele><time>2026-04-28T08:55:59.877Z</time></trkpt><trkpt lat="44.27996781931224" lon="11.000714587475416"><ele>813.0</ele><time>2026-04-28T08:56:00.877Z</time></trkpt><trkpt lat="44.27994822412637" lon="11.000627310777"><ele>812.0</ele><time>2026-04-28T08:56:01.877Z</time></trkpt><trkpt lat="44.27993050187411" lon="11.000532551689322"><ele>811.0</ele><time>2026-04-28T08:56:02.877Z</time></trkpt><trkpt lat="44.27991088278036" lon="11.00044643146737"><ele>810.0</ele><time>2026-04-28T08:56:03.877Z</time></trkpt><trkpt lat="44.27989332541368" lon="11.000332323083134"><ele>809.0</ele><time>2026-04-28T08:56:04.877Z</time></trkpt><trkpt lat="44.279873527642735" lon="11.000246822780253"><ele>809.0000000000001</ele><time>2026-04-28T08:56:05.877Z</time></trkpt><trkpt lat="44.27986101768748" lon="11.000158158902027"><ele>809.0</ele><time>2026-04-28T08:56:06.877Z</time></trkpt><trkpt lat="44.27984994363219" lon="11.000066020786559"><ele>809.0</ele><time>2026-04-28T08:56:07.877Z</time></trkpt><trkpt lat="44.279825384103354" lon="10.999981015643526"><ele>809.0</ele><time>2026-04-28T08:56:08.877Z</time></trkpt><trkpt lat="44.279821437781685" lon="10.999891858971136"><ele>809.0000000000001</ele><time>2026-04-28T08:56:09.877Z</time></trkpt><trkpt lat="44.279757088511396" lon="10.999770098842742"><ele>809.0</ele><time>2026-04-28T08:56:11.877Z</time></trkpt><trkpt lat="44.27963527178257" lon="10.999716135330509"><ele>812.1666666666667</ele><time>2026-04-28T08:56:13.877Z</time></trkpt><trkpt lat="44.279556513428034" lon="10.999702281804298"><ele>815.3333333333334</ele><time>2026-04-28T08:56:14.877Z</time></trkpt><trkpt lat="44.27948188571627" lon="10.999706475109901"><ele>818.5</ele><time>2026-04-28T08:56:15.877Z</time></trkpt><trkpt lat="44.27943528264825" lon="10.999633064063497"><ele>821.6666666666667</ele><time>2026-04-28T08:56:16.877Z</time></trkpt><trkpt lat="44.27939972838388" lon="10.999556824976336"><ele>824.8333333333334</ele><time>2026-04-28T08:56:17.877Z</time></trkpt><trkpt lat="44.27936441059801" lon="10.999454672300189"><ele>828.0</ele><time>2026-04-28T08:56:18.877Z</time></trkpt><trkpt lat="44.27934894901981" lon="10.999345938159292"><ele>828.8</ele><time>2026-04-28T08:56:19.877Z</time></trkpt><trkpt lat="44.279373249152414" lon="10.999167313730164"><ele>829.5999999999999</ele><time>2026-04-28T08:56:21.877Z</time></trkpt><trkpt lat="44.27942486084683" lon="10.999077222862851"><ele>830.4000000000001</ele><time>2026-04-28T08:56:22.877Z</time></trkpt><trkpt lat="44.27949034078516" lon="10.999014565417914"><ele>831.2</ele><time>2026-04-28T08:56:23.877Z</time></trkpt><trkpt lat="44.279572114809845" lon="10.99896346356575"><ele>832.0</ele><time>2026-04-28T08:56:24.877Z</time></trkpt><trkpt lat="44.279638512007786" lon="10.99885638661681"><ele>832.0</ele><time>2026-04-28T08:56:25.877Z</time></trkpt><trkpt lat="44.27972725278102" lon="10.998785325570005"><ele>832.0</ele><time>2026-04-28T08:56:26.877Z</time></trkpt><trkpt lat="44.279825770575165" lon="10.998689989412581"><ele>832.0</ele><time>2026-04-28T08:56:27.877Z</time></trkpt><trkpt lat="44.27991175854441" lon="10.998599528126034"><ele>832.0</ele><time>2026-04-28T08:56:28.877Z</time></trkpt><trkpt lat="44.2799702269514" lon="10.99847401131188"><ele>832.0</ele><time>2026-04-28T08:56:29.877Z</time></trkpt><trkpt lat="44.28006735145206" lon="10.99822396950638"><ele>828.0</ele><time>2026-04-28T08:56:31.877Z</time></trkpt><trkpt lat="44.28012100375002" lon="10.99810052468356"><ele>824.0</ele><time>2026-04-28T08:56:32.877Z</time></trkpt><trkpt lat="44.28017381368165" lon="10.997960746234993"><ele>820.0</ele><time>2026-04-28T08:56:33.877Z</time></trkpt><trkpt lat="44.28022447785249" lon="10.997821011765787"><ele>816.0</ele><time>2026-04-28T08:56:34.877Z</time></trkpt><trkpt lat="44.280268092240576" lon="10.997685840556548"><ele>812.0</ele><time>2026-04-28T08:56:35.877Z</time></trkpt><trkpt lat="44.28030867562568" lon="10.99752916349382"><ele>813.2</ele><time>2026-04-28T08:56:36.877Z</time></trkpt><trkpt lat="44.28030840745802" lon="10.99737652091023"><ele>814.4000000000001</ele><time>2026-04-28T08:56:37.877Z</time></trkpt><trkpt lat="44.2803020450689" lon="10.997232499098406"><ele>815.5999999999999</ele><time>2026-04-28T08:56:38.877Z</time></trkpt><trkpt lat="44.28027795751789" lon="10.99711193856071"><ele>816.8</ele><time>2026-04-28T08:56:39.877Z</time></trkpt><trkpt lat="44.28026127990364" lon="10.99695978063988"><ele>818.0</ele><time>2026-04-28T08:56:40.877Z</time></trkpt><trkpt lat="44.28022171375691" lon="10.996816500377792"><ele>818.0000000000001</ele><time>2026-04-28T08:56:41.877Z</time></trkpt><trkpt lat="44.28015864737556" lon="10.99667699648539"><ele>818.0</ele><time>2026-04-28T08:56:42.877Z</time></trkpt><trkpt lat="44.2801102822173" lon="10.99657229868701"><ele>818.0</ele><time>2026-04-28T08:56:43.877Z</time></trkpt><trkpt lat="44.28007284190681" lon="10.996469638432432"><ele>818.0</ele><time>2026-04-28T08:56:44.877Z</time></trkpt><trkpt lat="44.28009095700177" lon="10.996371661612745"><ele>818.0000000000001</ele><time>2026-04-28T08:56:45.877Z</time></trkpt><trkpt lat="44.28012639534308" lon="10.996276543925443"><ele>818.0</ele><time>2026-04-28T08:56:46.877Z</time></trkpt><trkpt lat="44.28019517429367" lon="10.996204069052569"><ele>817.6666666666667</ele><time>2026-04-28T08:56:47.877Z</time></trkpt><trkpt lat="44.280284936489615" lon="10.996181691203903"><ele>817.3333333333334</ele><time>2026-04-28T08:56:48.877Z</time></trkpt><trkpt lat="44.28036558029657" lon="10.996194757024268"><ele>817.0</ele><time>2026-04-28T08:56:49.877Z</time></trkpt><trkpt lat="44.280443768023474" lon="10.996147279262983"><ele>816.6666666666667</ele><time>2026-04-28T08:56:50.877Z</time></trkpt><trkpt lat="44.2805058617134" lon="10.99608307636961"><ele>816.3333333333334</ele><time>2026-04-28T08:56:51.877Z</time></trkpt><trkpt lat="44.28057880763265" lon="10.995982657603069"><ele>816.0</ele><time>2026-04-28T08:56:52.877Z</time></trkpt><trkpt lat="44.28062928599482" lon="10.995863990408921"><ele>813.0</ele><time>2026-04-28T08:56:53.877Z</time></trkpt><trkpt lat="44.280693795436704" lon="10.995734783736113"><ele>810.0</ele><time>2026-04-28T08:56:54.877Z</time></trkpt><trkpt lat="44.28075732454751" lon="10.995600317927966"><ele>807.0</ele><time>2026-04-28T08:56:55.877Z</time></trkpt><trkpt lat="44.28081999276889" lon="10.995481282644526"><ele>804.0</ele><time>2026-04-28T08:56:56.877Z</time></trkpt><trkpt lat="44.28086370068135" lon="10.995350670110385"><ele>801.0</ele><time>2026-04-28T08:56:57.877Z</time></trkpt><trkpt lat="44.28090103190718" lon="10.995220963329471"><ele>801.0</ele><time>2026-04-28T08:56:58.877Z</time></trkpt><trkpt lat="44.280899819070214" lon="10.995052536531091"><ele>801.0</ele><time>2026-04-28T08:56:59.877Z</time></trkpt><trkpt lat="44.28089292560518" lon="10.99489364492187"><ele>801.0</ele><time>2026-04-28T08:57:00.877Z</time></trkpt><trkpt lat="44.28090365556047" lon="10.994739823705576"><ele>801.0</ele><time>2026-04-28T08:57:01.877Z</time></trkpt><trkpt lat="44.280929875856664" lon="10.994584722803538"><ele>802.1999999999999</ele><time>2026-04-28T08:57:02.877Z</time></trkpt><trkpt lat="44.28095155074101" lon="10.99444491196771"><ele>803.4</ele><time>2026-04-28T08:57:03.877Z</time></trkpt><trkpt lat="44.28097835769151" lon="10.994320965563574"><ele>804.6</ele><time>2026-04-28T08:57:04.877Z</time></trkpt><trkpt lat="44.28098631082325" lon="10.994193285184735"><ele>805.8</ele><time>2026-04-28T08:57:05.877Z</time></trkpt><trkpt lat="44.28100397591969" lon="10.994048598022196"><ele>807.0</ele><time>2026-04-28T08:57:06.877Z</time></trkpt><trkpt lat="44.280951051595856" lon="10.993905027123095"><ele>807.0</ele><time>2026-04-28T08:57:07.877Z</time></trkpt><trkpt lat="44.2808944060218" lon="10.993763203989333"><ele>807.0</ele><time>2026-04-28T08:57:08.877Z</time></trkpt><trkpt lat="44.28084777246037" lon="10.993604991886349"><ele>807.0</ele><time>2026-04-28T08:57:09.877Z</time></trkpt><trkpt lat="44.28078470650468" lon="10.993445780504478"><ele>807.0</ele><time>2026-04-28T08:57:10.877Z</time></trkpt><trkpt lat="44.28072940900305" lon="10.993285604231723"><ele>804.0</ele><time>2026-04-28T08:57:11.877Z</time></trkpt><trkpt lat="44.28068113954566" lon="10.99312763936432"><ele>801.0</ele><time>2026-04-28T08:57:12.877Z</time></trkpt><trkpt lat="44.280644638463784" lon="10.992964810217167"><ele>798.0</ele><time>2026-04-28T08:57:13.877Z</time></trkpt><trkpt lat="44.280615977794405" lon="10.9927978267361"><ele>795.0</ele><time>2026-04-28T08:57:14.877Z</time></trkpt><trkpt lat="44.28060829105917" lon="10.992614979784351"><ele>791.75</ele><time>2026-04-28T08:57:15.877Z</time></trkpt><trkpt lat="44.28060166517771" lon="10.992433840010778"><ele>788.5</ele><time>2026-04-28T08:57:16.877Z</time></trkpt><trkpt lat="44.280624949207365" lon="10.992230675789598"><ele>785.25</ele><time>2026-04-28T08:57:17.877Z</time></trkpt><trkpt lat="44.280650179154534" lon="10.992045930346913"><ele>782.0</ele><time>2026-04-28T08:57:18.877Z</time></trkpt><trkpt lat="44.280693565345935" lon="10.991868723902616"><ele>782.0</ele><time>2026-04-28T08:57:19.876Z</time></trkpt><trkpt lat="44.28073427227892" lon="10.991716520032513"><ele>782.0</ele><time>2026-04-28T08:57:20.876Z</time></trkpt><trkpt lat="44.2807816976199" lon="10.991564534104329"><ele>782.0</ele><time>2026-04-28T08:57:21.876Z</time></trkpt><trkpt lat="44.280828696539395" lon="10.99142605559126"><ele>782.0</ele><time>2026-04-28T08:57:22.876Z</time></trkpt><trkpt lat="44.280868654261496" lon="10.991318355043985"><ele>782.0</ele><time>2026-04-28T08:57:23.876Z</time></trkpt><trkpt lat="44.28089437441457" lon="10.991221508902338"><ele>781.8333333333334</ele><time>2026-04-28T08:57:24.876Z</time></trkpt><trkpt lat="44.28092727407342" lon="10.99112737492928"><ele>781.6666666666667</ele><time>2026-04-28T08:57:25.876Z</time></trkpt><trkpt lat="44.28095696862694" lon="10.991027118820355"><ele>781.5</ele><time>2026-04-28T08:57:26.876Z</time></trkpt><trkpt lat="44.28099408947255" lon="10.990928616943554"><ele>781.3333333333333</ele><time>2026-04-28T08:57:27.876Z</time></trkpt><trkpt lat="44.281049275109126" lon="10.990816081218014"><ele>781.1666666666666</ele><time>2026-04-28T08:57:28.875Z</time></trkpt><trkpt lat="44.28112625772729" lon="10.99072059977661"><ele>781.0</ele><time>2026-04-28T08:57:29.875Z</time></trkpt><trkpt lat="44.28119794095325" lon="10.990650450624003"><ele>781.8333333333333</ele><time>2026-04-28T08:57:30.875Z</time></trkpt><trkpt lat="44.281269104625494" lon="10.990579116955743"><ele>782.6666666666666</ele><time>2026-04-28T08:57:31.875Z</time></trkpt><trkpt lat="44.281331766700866" lon="10.99052144485097"><ele>783.5</ele><time>2026-04-28T08:57:32.875Z</time></trkpt><trkpt lat="44.28138221221582" lon="10.99046821831082"><ele>784.3333333333333</ele><time>2026-04-28T08:57:33.875Z</time></trkpt><trkpt lat="44.28146743510245" lon="10.990357114415755"><ele>785.1666666666666</ele><time>2026-04-28T08:57:35.876Z</time></trkpt><trkpt lat="44.28151413227021" lon="10.99027931317336"><ele>786.0</ele><time>2026-04-28T08:57:36.876Z</time></trkpt><trkpt lat="44.28155956834976" lon="10.990188902503565"><ele>786.0</ele><time>2026-04-28T08:57:37.875Z</time></trkpt><trkpt lat="44.28159921452104" lon="10.99008404226639"><ele>786.0</ele><time>2026-04-28T08:57:38.875Z</time></trkpt><trkpt lat="44.281620139903104" lon="10.989964778608238"><ele>786.0</ele><time>2026-04-28T08:57:39.875Z</time></trkpt><trkpt lat="44.28162165953096" lon="10.98983957250706"><ele>786.0</ele><time>2026-04-28T08:57:40.875Z</time></trkpt><trkpt lat="44.281604608121086" lon="10.989712866595935"><ele>786.0</ele><time>2026-04-28T08:57:41.875Z</time></trkpt><trkpt lat="44.28156925334378" lon="10.989583760289076"><ele>787.6666666666666</ele><time>2026-04-28T08:57:42.875Z</time></trkpt><trkpt lat="44.281525405228216" lon="10.989461375586224"><ele>789.3333333333333</ele><time>2026-04-28T08:57:43.875Z</time></trkpt><trkpt lat="44.281478487407846" lon="10.989347719909697"><ele>791.0</ele><time>2026-04-28T08:57:44.875Z</time></trkpt><trkpt lat="44.281424284990756" lon="10.989233069726447"><ele>792.6666666666666</ele><time>2026-04-28T08:57:45.875Z</time></trkpt><trkpt lat="44.281390166866885" lon="10.989133019707703"><ele>794.3333333333333</ele><time>2026-04-28T08:57:46.875Z</time></trkpt><trkpt lat="44.28136488091357" lon="10.989029131923422"><ele>796.0</ele><time>2026-04-28T08:57:47.875Z</time></trkpt><trkpt lat="44.28133591820069" lon="10.988918210577575"><ele>797.1999999999999</ele><time>2026-04-28T08:57:48.875Z</time></trkpt><trkpt lat="44.28129738270888" lon="10.988799644360489"><ele>798.4</ele><time>2026-04-28T08:57:49.875Z</time></trkpt><trkpt lat="44.281257456131506" lon="10.98867460524792"><ele>799.6</ele><time>2026-04-28T08:57:50.875Z</time></trkpt><trkpt lat="44.2812150885424" lon="10.98854778260679"><ele>800.8</ele><time>2026-04-28T08:57:51.875Z</time></trkpt><trkpt lat="44.28116927709917" lon="10.988419198946536"><ele>802.0</ele><time>2026-04-28T08:57:52.875Z</time></trkpt><trkpt lat="44.2811216522006" lon="10.988286852462222"><ele>802.0</ele><time>2026-04-28T08:57:53.875Z</time></trkpt><trkpt lat="44.28107112093314" lon="10.988145609711294"><ele>802.0</ele><time>2026-04-28T08:57:54.875Z</time></trkpt><trkpt lat="44.281019132507424" lon="10.98799901984167"><ele>802.0</ele><time>2026-04-28T08:57:55.875Z</time></trkpt><trkpt lat="44.28097341896043" lon="10.98785822387352"><ele>802.0</ele><time>2026-04-28T08:57:56.875Z</time></trkpt><trkpt lat="44.2809393684855" lon="10.987715801689722"><ele>802.0</ele><time>2026-04-28T08:57:57.875Z</time></trkpt><trkpt lat="44.280915169076316" lon="10.987568430214173"><ele>801.2</ele><time>2026-04-28T08:57:58.875Z</time></trkpt><trkpt lat="44.28090245599935" lon="10.98742102715029"><ele>800.4000000000001</ele><time>2026-04-28T08:57:59.875Z</time></trkpt><trkpt lat="44.28087560818053" lon="10.987296186099258"><ele>799.5999999999999</ele><time>2026-04-28T08:58:00.875Z</time></trkpt><trkpt lat="44.28082553956181" lon="10.987185267909124"><ele>798.8</ele><time>2026-04-28T08:58:01.875Z</time></trkpt><trkpt lat="44.28075696290813" lon="10.987089398731955"><ele>798.0</ele><time>2026-04-28T08:58:02.875Z</time></trkpt><trkpt lat="44.28067070086541" lon="10.987013080774577"><ele>797.75</ele><time>2026-04-28T08:58:03.875Z</time></trkpt><trkpt lat="44.28056491107598" lon="10.986943831006503"><ele>797.5</ele><time>2026-04-28T08:58:04.875Z</time></trkpt><trkpt lat="44.28046036833633" lon="10.98687046694763"><ele>797.25</ele><time>2026-04-28T08:58:05.875Z</time></trkpt><trkpt lat="44.28034930967043" lon="10.986781761528329"><ele>797.0</ele><time>2026-04-28T08:58:06.875Z</time></trkpt><trkpt lat="44.2802433656098" lon="10.986694166261763"><ele>796.75</ele><time>2026-04-28T08:58:07.875Z</time></trkpt><trkpt lat="44.280136037885384" lon="10.986599502304706"><ele>796.5</ele><time>2026-04-28T08:58:08.875Z</time></trkpt><trkpt lat="44.280026177827814" lon="10.9865072287377"><ele>796.25</ele><time>2026-04-28T08:58:09.875Z</time></trkpt><trkpt lat="44.27991588536343" lon="10.9864159011288"><ele>796.0</ele><time>2026-04-28T08:58:10.875Z</time></trkpt><trkpt lat="44.27980762318208" lon="10.986318095837888"><ele>795.75</ele><time>2026-04-28T08:58:11.875Z</time></trkpt><trkpt lat="44.27970378647585" lon="10.986221520693002"><ele>795.5</ele><time>2026-04-28T08:58:12.874Z</time></trkpt><trkpt lat="44.279594094153694" lon="10.986142604552594"><ele>795.25</ele><time>2026-04-28T08:58:13.874Z</time></trkpt><trkpt lat="44.279480185526495" lon="10.986079682327407"><ele>795.0</ele><time>2026-04-28T08:58:14.874Z</time></trkpt><trkpt lat="44.27936205013209" lon="10.986030321866451"><ele>795.0</ele><time>2026-04-28T08:58:15.874Z</time></trkpt><trkpt lat="44.279247414394966" lon="10.985984762096408"><ele>795.0</ele><time>2026-04-28T08:58:16.874Z</time></trkpt><trkpt lat="44.279131926494195" lon="10.985946506259726"><ele>795.0</ele><time>2026-04-28T08:58:17.874Z</time></trkpt><trkpt lat="44.279014615290116" lon="10.985908431900823"><ele>795.0</ele><time>2026-04-28T08:58:18.875Z</time></trkpt><trkpt lat="44.278885611000455" lon="10.985867648688739"><ele>794.5</ele><time>2026-04-28T08:58:19.875Z</time></trkpt><trkpt lat="44.278750656166594" lon="10.985817525059282"><ele>794.0</ele><time>2026-04-28T08:58:20.876Z</time></trkpt><trkpt lat="44.278613565548255" lon="10.985765775695159"><ele>793.5</ele><time>2026-04-28T08:58:21.876Z</time></trkpt><trkpt lat="44.27847965099622" lon="10.985702803799311"><ele>793.0</ele><time>2026-04-28T08:58:22.876Z</time></trkpt><trkpt lat="44.278351406536245" lon="10.985620155218168"><ele>793.0</ele><time>2026-04-28T08:58:23.877Z</time></trkpt><trkpt lat="44.27823445544672" lon="10.985504595432454"><ele>793.0</ele><time>2026-04-28T08:58:24.877Z</time></trkpt><trkpt lat="44.27813874341954" lon="10.985358967253507"><ele>793.0</ele><time>2026-04-28T08:58:25.877Z</time></trkpt><trkpt lat="44.278063232657054" lon="10.985199288908605"><ele>793.0</ele><time>2026-04-28T08:58:26.878Z</time></trkpt><trkpt lat="44.277996607699656" lon="10.985043138251447"><ele>796.75</ele><time>2026-04-28T08:58:27.878Z</time></trkpt><trkpt lat="44.27793299771792" lon="10.984879249927202"><ele>800.5</ele><time>2026-04-28T08:58:28.878Z</time></trkpt><trkpt lat="44.27786252999717" lon="10.98472089549299"><ele>804.25</ele><time>2026-04-28T08:58:29.878Z</time></trkpt><trkpt lat="44.27778984000625" lon="10.984565964396873"><ele>808.0</ele><time>2026-04-28T08:58:30.879Z</time></trkpt><trkpt lat="44.27770456622336" lon="10.984419049277845"><ele>808.0</ele><time>2026-04-28T08:58:31.879Z</time></trkpt><trkpt lat="44.27761824899461" lon="10.984287446628835"><ele>808.0</ele><time>2026-04-28T08:58:32.879Z</time></trkpt><trkpt lat="44.27753747407376" lon="10.984168298048948"><ele>808.0</ele><time>2026-04-28T08:58:33.879Z</time></trkpt><trkpt lat="44.277460217580284" lon="10.9840534212058"><ele>808.0</ele><time>2026-04-28T08:58:34.879Z</time></trkpt><trkpt lat="44.27738854446195" lon="10.98392834188696"><ele>807.25</ele><time>2026-04-28T08:58:35.879Z</time></trkpt><trkpt lat="44.27732114930338" lon="10.983789670559581"><ele>806.5</ele><time>2026-04-28T08:58:36.88Z</time></trkpt><trkpt lat="44.27726112982445" lon="10.98363513019944"><ele>805.75</ele><time>2026-04-28T08:58:37.88Z</time></trkpt><trkpt lat="44.277203056171686" lon="10.983465753202877"><ele>805.0</ele><time>2026-04-28T08:58:38.88Z</time></trkpt><trkpt lat="44.27714960739802" lon="10.983292791614154"><ele>805.0</ele><time>2026-04-28T08:58:39.88Z</time></trkpt><trkpt lat="44.27709648734207" lon="10.983118223337376"><ele>805.0</ele><time>2026-04-28T08:58:40.88Z</time></trkpt><trkpt lat="44.277046477534" lon="10.982953883278146"><ele>805.0</ele><time>2026-04-28T08:58:41.88Z</time></trkpt><trkpt lat="44.276995858453766" lon="10.982781875932478"><ele>805.0</ele><time>2026-04-28T08:58:42.88Z</time></trkpt><trkpt lat="44.27695460000984" lon="10.982603386701415"><ele>802.0</ele><time>2026-04-28T08:58:43.88Z</time></trkpt><trkpt lat="44.27692416322777" lon="10.982422186959878"><ele>799.0</ele><time>2026-04-28T08:58:44.88Z</time></trkpt><trkpt lat="44.27690950119064" lon="10.982221174500168"><ele>796.0</ele><time>2026-04-28T08:58:45.88Z</time></trkpt><trkpt lat="44.27690131785305" lon="10.982016268986216"><ele>793.0</ele><time>2026-04-28T08:58:46.881Z</time></trkpt><trkpt lat="44.2768972861449" lon="10.981803232389717"><ele>789.6666666666666</ele><time>2026-04-28T08:58:47.881Z</time></trkpt><trkpt lat="44.27689762953536" lon="10.98158836443462"><ele>786.3333333333333</ele><time>2026-04-28T08:58:48.881Z</time></trkpt><trkpt lat="44.27688871804593" lon="10.981380834103545"><ele>783.0</ele><time>2026-04-28T08:58:49.881Z</time></trkpt><trkpt lat="44.2768804882909" lon="10.981160739059915"><ele>783.0</ele><time>2026-04-28T08:58:50.881Z</time></trkpt><trkpt lat="44.276878252059966" lon="10.980951002237687"><ele>783.0</ele><time>2026-04-28T08:58:51.881Z</time></trkpt><trkpt lat="44.276886922977724" lon="10.980737384117557"><ele>783.0</ele><time>2026-04-28T08:58:52.881Z</time></trkpt><trkpt lat="44.276911834165446" lon="10.98053486958611"><ele>781.5</ele><time>2026-04-28T08:58:53.881Z</time></trkpt><trkpt lat="44.27694586598952" lon="10.980334960924782"><ele>780.0</ele><time>2026-04-28T08:58:54.881Z</time></trkpt><trkpt lat="44.276993438650535" lon="10.98014553252769"><ele>778.5</ele><time>2026-04-28T08:58:55.881Z</time></trkpt><trkpt lat="44.27703887078499" lon="10.979955791826704"><ele>777.0</ele><time>2026-04-28T08:58:56.881Z</time></trkpt><trkpt lat="44.277076867205" lon="10.97977491275138"><ele>776.75</ele><time>2026-04-28T08:58:57.881Z</time></trkpt><trkpt lat="44.27711085727874" lon="10.979594921436965"><ele>776.5</ele><time>2026-04-28T08:58:58.881Z</time></trkpt><trkpt lat="44.27714580652051" lon="10.979414019112873"><ele>776.25</ele><time>2026-04-28T08:58:59.881Z</time></trkpt><trkpt lat="44.277181277930836" lon="10.979227298994967"><ele>776.0</ele><time>2026-04-28T08:59:00.881Z</time></trkpt><trkpt lat="44.27721549017503" lon="10.979044334039374"><ele>775.75</ele><time>2026-04-28T08:59:01.881Z</time></trkpt><trkpt lat="44.2772490816673" lon="10.978866997947835"><ele>775.5</ele><time>2026-04-28T08:59:02.881Z</time></trkpt><trkpt lat="44.277279647616425" lon="10.978690101280957"><ele>775.25</ele><time>2026-04-28T08:59:03.881Z</time></trkpt><trkpt lat="44.277310385351704" lon="10.97851603199052"><ele>775.0</ele><time>2026-04-28T08:59:04.881Z</time></trkpt><trkpt lat="44.27733989728391" lon="10.978363735817089"><ele>775.2</ele><time>2026-04-28T08:59:05.881Z</time></trkpt><trkpt lat="44.27738226242433" lon="10.97822643245054"><ele>775.4</ele><time>2026-04-28T08:59:06.881Z</time></trkpt><trkpt lat="44.27743573623513" lon="10.978098519241957"><ele>775.5999999999999</ele><time>2026-04-28T08:59:07.881Z</time></trkpt><trkpt lat="44.27750111224601" lon="10.977983872329066"><ele>775.8</ele><time>2026-04-28T08:59:08.881Z</time></trkpt><trkpt lat="44.277570655286226" lon="10.977872228895844"><ele>776.0</ele><time>2026-04-28T08:59:09.881Z</time></trkpt><trkpt lat="44.277641749010414" lon="10.97775651811244"><ele>776.0</ele><time>2026-04-28T08:59:10.881Z</time></trkpt><trkpt lat="44.277713995517345" lon="10.977634895409597"><ele>776.0</ele><time>2026-04-28T08:59:11.881Z</time></trkpt><trkpt lat="44.27778034948787" lon="10.977512350264538"><ele>776.0</ele><time>2026-04-28T08:59:12.881Z</time></trkpt><trkpt lat="44.27784690346343" lon="10.977379734011208"><ele>776.0</ele><time>2026-04-28T08:59:13.881Z</time></trkpt><trkpt lat="44.277908991440036" lon="10.977242850175262"><ele>776.25</ele><time>2026-04-28T08:59:14.881Z</time></trkpt><trkpt lat="44.277969348019255" lon="10.97710812909332"><ele>776.5</ele><time>2026-04-28T08:59:15.881Z</time></trkpt><trkpt lat="44.278027761984035" lon="10.97697320249017"><ele>776.75</ele><time>2026-04-28T08:59:16.881Z</time></trkpt><trkpt lat="44.27808610436112" lon="10.976836374931633"><ele>777.0</ele><time>2026-04-28T08:59:17.881Z</time></trkpt><trkpt lat="44.278135116615026" lon="10.97669708014159"><ele>774.25</ele><time>2026-04-28T08:59:18.881Z</time></trkpt><trkpt lat="44.278172350285196" lon="10.976545526767149"><ele>771.5</ele><time>2026-04-28T08:59:19.881Z</time></trkpt><trkpt lat="44.27819043040977" lon="10.976391008539837"><ele>768.75</ele><time>2026-04-28T08:59:20.881Z</time></trkpt><trkpt lat="44.27818416269223" lon="10.97623350558632"><ele>766.0</ele><time>2026-04-28T08:59:21.881Z</time></trkpt><trkpt lat="44.27815840126609" lon="10.976081043079995"><ele>766.0</ele><time>2026-04-28T08:59:22.881Z</time></trkpt><trkpt lat="44.27811439540582" lon="10.975928609990659"><ele>766.0</ele><time>2026-04-28T08:59:23.881Z</time></trkpt><trkpt lat="44.2780720084942" lon="10.975774738483338"><ele>766.0</ele><time>2026-04-28T08:59:24.881Z</time></trkpt><trkpt lat="44.278035616240366" lon="10.975619206327673"><ele>766.0</ele><time>2026-04-28T08:59:25.881Z</time></trkpt><trkpt lat="44.27801050273393" lon="10.975467328286507"><ele>764.8</ele><time>2026-04-28T08:59:26.881Z</time></trkpt><trkpt lat="44.277986623009106" lon="10.975295920243346"><ele>763.5999999999999</ele><time>2026-04-28T08:59:27.881Z</time></trkpt><trkpt lat="44.277967920445406" lon="10.975143114847207"><ele>762.4</ele><time>2026-04-28T08:59:28.881Z</time></trkpt><trkpt lat="44.277946546342534" lon="10.975006240276196"><ele>761.2</ele><time>2026-04-28T08:59:29.881Z</time></trkpt><trkpt lat="44.277916803233595" lon="10.974887348987767"><ele>760.0</ele><time>2026-04-28T08:59:30.881Z</time></trkpt><trkpt lat="44.27786427061521" lon="10.974792923675182"><ele>758.8</ele><time>2026-04-28T08:59:31.881Z</time></trkpt><trkpt lat="44.27780519821473" lon="10.974733229125942"><ele>757.6</ele><time>2026-04-28T08:59:32.881Z</time></trkpt><trkpt lat="44.27771929203038" lon="10.974725723028564"><ele>756.4000000000001</ele><time>2026-04-28T08:59:33.881Z</time></trkpt><trkpt lat="44.27760327401013" lon="10.974761958686038"><ele>755.2</ele><time>2026-04-28T08:59:34.881Z</time></trkpt><trkpt lat="44.2774712980646" lon="10.974789755329356"><ele>754.0</ele><time>2026-04-28T08:59:35.881Z</time></trkpt><trkpt lat="44.27733719992385" lon="10.974813692867686"><ele>752.75</ele><time>2026-04-28T08:59:36.881Z</time></trkpt><trkpt lat="44.277202973114846" lon="10.974852047709758"><ele>751.5</ele><time>2026-04-28T08:59:37.881Z</time></trkpt><trkpt lat="44.27707630757185" lon="10.974932469553762"><ele>750.25</ele><time>2026-04-28T08:59:38.88Z</time></trkpt><trkpt lat="44.27695798884798" lon="10.975044586694766"><ele>749.0</ele><time>2026-04-28T08:59:39.88Z</time></trkpt><trkpt lat="44.2768467793109" lon="10.97516379289492"><ele>749.0</ele><time>2026-04-28T08:59:40.881Z</time></trkpt><trkpt lat="44.27673275462215" lon="10.975289103149425"><ele>749.0</ele><time>2026-04-28T08:59:41.881Z</time></trkpt><trkpt lat="44.27662580100697" lon="10.9754104544122"><ele>749.0</ele><time>2026-04-28T08:59:42.881Z</time></trkpt><trkpt lat="44.27652540814082" lon="10.975536256868823"><ele>749.0</ele><time>2026-04-28T08:59:43.881Z</time></trkpt><trkpt lat="44.27643225120678" lon="10.975643392874794"><ele>747.0</ele><time>2026-04-28T08:59:44.881Z</time></trkpt><trkpt lat="44.27636065114116" lon="10.975735233640787"><ele>745.0</ele><time>2026-04-28T08:59:45.881Z</time></trkpt><trkpt lat="44.276310148699324" lon="10.975840516778888"><ele>743.0</ele><time>2026-04-28T08:59:46.881Z</time></trkpt><trkpt lat="44.27626745334123" lon="10.975959748387021"><ele>741.0</ele><time>2026-04-28T08:59:47.88Z</time></trkpt><trkpt lat="44.276272326007295" lon="10.97610270612008"><ele>739.0</ele><time>2026-04-28T08:59:48.88Z</time></trkpt><trkpt lat="44.276299608670755" lon="10.976233693469686"><ele>739.0</ele><time>2026-04-28T08:59:49.88Z</time></trkpt><trkpt lat="44.276278772584185" lon="10.976367882233157"><ele>739.0</ele><time>2026-04-28T08:59:50.88Z</time></trkpt><trkpt lat="44.27621867762093" lon="10.976478027218253"><ele>739.0</ele><time>2026-04-28T08:59:51.88Z</time></trkpt><trkpt lat="44.27613415622417" lon="10.976561171337014"><ele>739.0</ele><time>2026-04-28T08:59:52.88Z</time></trkpt><trkpt lat="44.27603350356638" lon="10.976619827373764"><ele>739.0</ele><time>2026-04-28T08:59:53.88Z</time></trkpt><trkpt lat="44.275926489014715" lon="10.97668950242806"><ele>739.25</ele><time>2026-04-28T08:59:54.88Z</time></trkpt><trkpt lat="44.27581801767425" lon="10.976786020570705"><ele>739.5</ele><time>2026-04-28T08:59:55.88Z</time></trkpt><trkpt lat="44.275714799004945" lon="10.976878616586733"><ele>739.75</ele><time>2026-04-28T08:59:56.88Z</time></trkpt><trkpt lat="44.27560347068365" lon="10.976944346656149"><ele>740.0</ele><time>2026-04-28T08:59:57.88Z</time></trkpt><trkpt lat="44.275486520935516" lon="10.976962956584229"><ele>740.0</ele><time>2026-04-28T08:59:58.88Z</time></trkpt><trkpt lat="44.27536205227947" lon="10.976939421120226"><ele>740.0</ele><time>2026-04-28T08:59:59.88Z</time></trkpt><trkpt lat="44.27524470096962" lon="10.976886711842587"><ele>740.0</ele><time>2026-04-28T09:00:00.88Z</time></trkpt><trkpt lat="44.27513802733763" lon="10.976806164867716"><ele>740.0</ele><time>2026-04-28T09:00:01.88Z</time></trkpt><trkpt lat="44.27504082936692" lon="10.976701067226186"><ele>738.0</ele><time>2026-04-28T09:00:02.88Z</time></trkpt><trkpt lat="44.27495641835976" lon="10.976573879273193"><ele>736.0</ele><time>2026-04-28T09:00:03.88Z</time></trkpt><trkpt lat="44.27488703254074" lon="10.976424905190559"><ele>734.0</ele><time>2026-04-28T09:00:04.88Z</time></trkpt><trkpt lat="44.27482498607242" lon="10.976266316561146"><ele>732.0</ele><time>2026-04-28T09:00:05.88Z</time></trkpt><trkpt lat="44.27476402533226" lon="10.976102384541274"><ele>732.0</ele><time>2026-04-28T09:00:06.88Z</time></trkpt><trkpt lat="44.2746960383024" lon="10.975947562702041"><ele>732.0</ele><time>2026-04-28T09:00:07.88Z</time></trkpt><trkpt lat="44.27462592818607" lon="10.975799079643442"><ele>732.0</ele><time>2026-04-28T09:00:08.88Z</time></trkpt><trkpt lat="44.274554479385095" lon="10.97566920358292"><ele>732.0</ele><time>2026-04-28T09:00:09.88Z</time></trkpt><trkpt lat="44.27448026147843" lon="10.975557541951538"><ele>731.4000000000001</ele><time>2026-04-28T09:00:10.88Z</time></trkpt><trkpt lat="44.2744041456202" lon="10.975471523771873"><ele>730.8000000000001</ele><time>2026-04-28T09:00:11.88Z</time></trkpt><trkpt lat="44.27431380586142" lon="10.975420552788385"><ele>730.2</ele><time>2026-04-28T09:00:12.88Z</time></trkpt><trkpt lat="44.27421386924391" lon="10.975400680063542"><ele>729.6</ele><time>2026-04-28T09:00:13.88Z</time></trkpt><trkpt lat="44.27411722891063" lon="10.975405350576917"><ele>729.0</ele><time>2026-04-28T09:00:14.88Z</time></trkpt><trkpt lat="44.27403049774998" lon="10.97538856611951"><ele>729.0</ele><time>2026-04-28T09:00:15.88Z</time></trkpt><trkpt lat="44.27395792917813" lon="10.9753365382767"><ele>729.0</ele><time>2026-04-28T09:00:16.88Z</time></trkpt><trkpt lat="44.27390761340114" lon="10.975255424691388"><ele>729.0</ele><time>2026-04-28T09:00:17.88Z</time></trkpt><trkpt lat="44.27389122600901" lon="10.975161369857599"><ele>729.0</ele><time>2026-04-28T09:00:18.88Z</time></trkpt><trkpt lat="44.27389628831415" lon="10.975043638296148"><ele>729.0</ele><time>2026-04-28T09:00:19.88Z</time></trkpt><trkpt lat="44.2739134619123" lon="10.974910981278631"><ele>729.0</ele><time>2026-04-28T09:00:20.88Z</time></trkpt><trkpt lat="44.273928429948135" lon="10.974755113521375"><ele>729.5</ele><time>2026-04-28T09:00:21.88Z</time></trkpt><trkpt lat="44.27394755511705" lon="10.974594093941247"><ele>730.0</ele><time>2026-04-28T09:00:22.88Z</time></trkpt><trkpt lat="44.27396748438853" lon="10.974421352628434"><ele>730.5</ele><time>2026-04-28T09:00:23.88Z</time></trkpt><trkpt lat="44.27398272905408" lon="10.974236825990461"><ele>731.0</ele><time>2026-04-28T09:00:24.88Z</time></trkpt><trkpt lat="44.27399267725989" lon="10.974048215567874"><ele>731.5</ele><time>2026-04-28T09:00:25.88Z</time></trkpt><trkpt lat="44.27400448757164" lon="10.973841794154962"><ele>732.0</ele><time>2026-04-28T09:00:26.88Z</time></trkpt><trkpt lat="44.27401555318496" lon="10.973637553639009"><ele>732.5</ele><time>2026-04-28T09:00:27.88Z</time></trkpt><trkpt lat="44.27402328518478" lon="10.973457292968183"><ele>733.0</ele><time>2026-04-28T09:00:28.88Z</time></trkpt><trkpt lat="44.27402770287974" lon="10.973295109433863"><ele>733.8</ele><time>2026-04-28T09:00:29.88Z</time></trkpt><trkpt lat="44.27403631053446" lon="10.973140776768053"><ele>734.5999999999999</ele><time>2026-04-28T09:00:30.88Z</time></trkpt><trkpt lat="44.27404250985348" lon="10.972993339271968"><ele>735.4000000000001</ele><time>2026-04-28T09:00:31.88Z</time></trkpt><trkpt lat="44.27404759301008" lon="10.972857062643575"><ele>736.2</ele><time>2026-04-28T09:00:32.88Z</time></trkpt><trkpt lat="44.274051211434845" lon="10.972716625326234"><ele>737.0</ele><time>2026-04-28T09:00:33.88Z</time></trkpt><trkpt lat="44.27405425868404" lon="10.972573935382368"><ele>736.75</ele><time>2026-04-28T09:00:34.88Z</time></trkpt><trkpt lat="44.27404665520235" lon="10.972417019784809"><ele>736.5</ele><time>2026-04-28T09:00:35.88Z</time></trkpt><trkpt lat="44.27405198115424" lon="10.972251352498409"><ele>736.25</ele><time>2026-04-28T09:00:36.88Z</time></trkpt><trkpt lat="44.27404074594681" lon="10.972094139603398"><ele>736.0</ele><time>2026-04-28T09:00:37.88Z</time></trkpt><trkpt lat="44.27402799430209" lon="10.9719398201188"><ele>736.0</ele><time>2026-04-28T09:00:38.88Z</time></trkpt><trkpt lat="44.27401453475184" lon="10.971781400654974"><ele>736.0</ele><time>2026-04-28T09:00:39.88Z</time></trkpt><trkpt lat="44.27399986172271" lon="10.971622447290747"><ele>736.0</ele><time>2026-04-28T09:00:40.88Z</time></trkpt><trkpt lat="44.2739867764234" lon="10.97146183072677"><ele>736.0</ele><time>2026-04-28T09:00:41.88Z</time></trkpt><trkpt lat="44.27397630690228" lon="10.97130569844343"><ele>736.5</ele><time>2026-04-28T09:00:42.88Z</time></trkpt><trkpt lat="44.27396128418792" lon="10.971145226296741"><ele>737.0</ele><time>2026-04-28T09:00:43.88Z</time></trkpt><trkpt lat="44.27394364402997" lon="10.970980228897547"><ele>737.5</ele><time>2026-04-28T09:00:44.88Z</time></trkpt><trkpt lat="44.273920364110616" lon="10.97081905920797"><ele>738.0</ele><time>2026-04-28T09:00:45.88Z</time></trkpt><trkpt lat="44.27389926395093" lon="10.970659754311411"><ele>738.8</ele><time>2026-04-28T09:00:46.88Z</time></trkpt><trkpt lat="44.27388035605047" lon="10.97052160560916"><ele>739.5999999999999</ele><time>2026-04-28T09:00:47.88Z</time></trkpt><trkpt lat="44.27385650334873" lon="10.970394300425804"><ele>740.4000000000001</ele><time>2026-04-28T09:00:48.88Z</time></trkpt><trkpt lat="44.273823898003364" lon="10.970288335199825"><ele>741.2</ele><time>2026-04-28T09:00:49.88Z</time></trkpt><trkpt lat="44.273778354478715" lon="10.970188295887535"><ele>742.0</ele><time>2026-04-28T09:00:50.88Z</time></trkpt><trkpt lat="44.27369913764864" lon="10.970120104870084"><ele>742.0</ele><time>2026-04-28T09:00:51.88Z</time></trkpt><trkpt lat="44.273605664201654" lon="10.970079039464046"><ele>742.0</ele><time>2026-04-28T09:00:52.88Z</time></trkpt><trkpt lat="44.27349691723677" lon="10.970055510464515"><ele>742.0</ele><time>2026-04-28T09:00:53.88Z</time></trkpt><trkpt lat="44.273376897509216" lon="10.97000987457802"><ele>742.0</ele><time>2026-04-28T09:00:54.88Z</time></trkpt><trkpt lat="44.27324889276516" lon="10.969943095281346"><ele>741.0</ele><time>2026-04-28T09:00:55.88Z</time></trkpt><trkpt lat="44.273126913056096" lon="10.969832091859544"><ele>740.0</ele><time>2026-04-28T09:00:56.88Z</time></trkpt><trkpt lat="44.273005421826866" lon="10.969712650475959"><ele>739.0</ele><time>2026-04-28T09:00:57.88Z</time></trkpt><trkpt lat="44.2728866608264" lon="10.969583765280694"><ele>738.0</ele><time>2026-04-28T09:00:58.88Z</time></trkpt><trkpt lat="44.27276156025363" lon="10.969447481642312"><ele>736.25</ele><time>2026-04-28T09:00:59.88Z</time></trkpt><trkpt lat="44.272636525480664" lon="10.969326186844645"><ele>734.5</ele><time>2026-04-28T09:01:00.88Z</time></trkpt><trkpt lat="44.27251375334203" lon="10.969232695631137"><ele>732.75</ele><time>2026-04-28T09:01:01.88Z</time></trkpt><trkpt lat="44.272390795828656" lon="10.969155458111072"><ele>731.0</ele><time>2026-04-28T09:01:02.88Z</time></trkpt><trkpt lat="44.27227872725761" lon="10.96908591255262"><ele>731.1999999999999</ele><time>2026-04-28T09:01:03.88Z</time></trkpt><trkpt lat="44.2721676491578" lon="10.969033804630786"><ele>731.4</ele><time>2026-04-28T09:01:04.88Z</time></trkpt><trkpt lat="44.27206651699842" lon="10.968999364348583"><ele>731.6</ele><time>2026-04-28T09:01:05.88Z</time></trkpt><trkpt lat="44.27196855172421" lon="10.968983879300476"><ele>731.8</ele><time>2026-04-28T09:01:06.88Z</time></trkpt><trkpt lat="44.27187890878361" lon="10.968981685732713"><ele>732.0</ele><time>2026-04-28T09:01:07.88Z</time></trkpt><trkpt lat="44.27178706908196" lon="10.968992083791264"><ele>732.0</ele><time>2026-04-28T09:01:08.88Z</time></trkpt><trkpt lat="44.271686542689736" lon="10.968990669929582"><ele>732.0</ele><time>2026-04-28T09:01:09.88Z</time></trkpt><trkpt lat="44.27157568047842" lon="10.968961564801223"><ele>732.0</ele><time>2026-04-28T09:01:10.88Z</time></trkpt><trkpt lat="44.271474500018435" lon="10.968907776002796"><ele>732.0</ele><time>2026-04-28T09:01:11.88Z</time></trkpt><trkpt lat="44.271376438061225" lon="10.96884184666307"><ele>732.0</ele><time>2026-04-28T09:01:12.88Z</time></trkpt><trkpt lat="44.271301109494104" lon="10.968756912442213"><ele>732.4000000000001</ele><time>2026-04-28T09:01:13.88Z</time></trkpt><trkpt lat="44.27123615032502" lon="10.96865814634435"><ele>732.8000000000001</ele><time>2026-04-28T09:01:14.88Z</time></trkpt><trkpt lat="44.27118267967233" lon="10.968578277497242"><ele>733.2</ele><time>2026-04-28T09:01:15.88Z</time></trkpt><trkpt lat="44.27111499096251" lon="10.968454813417893"><ele>733.6</ele><time>2026-04-28T09:01:16.88Z</time></trkpt><trkpt lat="44.271058620578394" lon="10.968325417504136"><ele>734.0</ele><time>2026-04-28T09:01:17.88Z</time></trkpt><trkpt lat="44.27100248090932" lon="10.968203980722173"><ele>734.0</ele><time>2026-04-28T09:01:18.88Z</time></trkpt><trkpt lat="44.270937250909995" lon="10.968072400902681"><ele>734.0</ele><time>2026-04-28T09:01:19.88Z</time></trkpt><trkpt lat="44.270880250286545" lon="10.967944939538274"><ele>734.0</ele><time>2026-04-28T09:01:20.88Z</time></trkpt><trkpt lat="44.27082283502972" lon="10.967811518932864"><ele>734.0</ele><time>2026-04-28T09:01:21.88Z</time></trkpt><trkpt lat="44.27077077877164" lon="10.967673643261287"><ele>734.0</ele><time>2026-04-28T09:01:22.88Z</time></trkpt><trkpt lat="44.27071797103853" lon="10.967543025138019"><ele>732.8000000000001</ele><time>2026-04-28T09:01:23.88Z</time></trkpt><trkpt lat="44.270653900388616" lon="10.967413278348477"><ele>731.6</ele><time>2026-04-28T09:01:24.88Z</time></trkpt><trkpt lat="44.27058700215695" lon="10.967292349869705"><ele>730.4</ele><time>2026-04-28T09:01:25.88Z</time></trkpt><trkpt lat="44.27052269729702" lon="10.967169187105647"><ele>729.2</ele><time>2026-04-28T09:01:26.88Z</time></trkpt><trkpt lat="44.27045867769601" lon="10.967043087217457"><ele>728.0</ele><time>2026-04-28T09:01:27.88Z</time></trkpt><trkpt lat="44.27040281179981" lon="10.966918647160103"><ele>728.5999999999999</ele><time>2026-04-28T09:01:28.88Z</time></trkpt><trkpt lat="44.2703502925403" lon="10.966805261051036"><ele>729.1999999999999</ele><time>2026-04-28T09:01:29.879Z</time></trkpt><trkpt lat="44.270296163292855" lon="10.96670081856139"><ele>729.8</ele><time>2026-04-28T09:01:30.879Z</time></trkpt><trkpt lat="44.27022707871466" lon="10.966606959112855"><ele>730.4</ele><time>2026-04-28T09:01:31.879Z</time></trkpt><trkpt lat="44.270148839417104" lon="10.966511871176932"><ele>731.0</ele><time>2026-04-28T09:01:32.879Z</time></trkpt><trkpt lat="44.27005162642956" lon="10.96644882984843"><ele>731.0</ele><time>2026-04-28T09:01:33.879Z</time></trkpt><trkpt lat="44.26994801533816" lon="10.966396538909446"><ele>731.0</ele><time>2026-04-28T09:01:34.879Z</time></trkpt><trkpt lat="44.269833741244774" lon="10.96634757556432"><ele>731.0</ele><time>2026-04-28T09:01:35.879Z</time></trkpt><trkpt lat="44.26972394625653" lon="10.966275360206687"><ele>731.0</ele><time>2026-04-28T09:01:36.879Z</time></trkpt><trkpt lat="44.269616571038625" lon="10.966176407739486"><ele>732.0</ele><time>2026-04-28T09:01:37.879Z</time></trkpt><trkpt lat="44.269511128510224" lon="10.966058215083244"><ele>733.0</ele><time>2026-04-28T09:01:38.879Z</time></trkpt><trkpt lat="44.269411949092195" lon="10.965915922647378"><ele>734.0</ele><time>2026-04-28T09:01:39.88Z</time></trkpt><trkpt lat="44.269323654606694" lon="10.965775744696982"><ele>735.0</ele><time>2026-04-28T09:01:40.879Z</time></trkpt><trkpt lat="44.26924113735048" lon="10.965634082656921"><ele>735.0</ele><time>2026-04-28T09:01:41.879Z</time></trkpt><trkpt lat="44.269164202855" lon="10.965492809686557"><ele>735.0</ele><time>2026-04-28T09:01:42.88Z</time></trkpt><trkpt lat="44.269089695530155" lon="10.965349068790848"><ele>735.0</ele><time>2026-04-28T09:01:43.879Z</time></trkpt><trkpt lat="44.26901522071958" lon="10.965204839598359"><ele>735.0</ele><time>2026-04-28T09:01:44.879Z</time></trkpt><trkpt lat="44.268933260178194" lon="10.965065691803256"><ele>732.5</ele><time>2026-04-28T09:01:45.879Z</time></trkpt><trkpt lat="44.26885657872409" lon="10.964927006083881"><ele>730.0</ele><time>2026-04-28T09:01:46.879Z</time></trkpt><trkpt lat="44.26878105811233" lon="10.964777243923487"><ele>727.5</ele><time>2026-04-28T09:01:47.879Z</time></trkpt><trkpt lat="44.2687006327288" lon="10.964624589367448"><ele>725.0</ele><time>2026-04-28T09:01:48.88Z</time></trkpt><trkpt lat="44.26861784262212" lon="10.964461612241351"><ele>725.0</ele><time>2026-04-28T09:01:49.879Z</time></trkpt><trkpt lat="44.26853839974124" lon="10.964294850998213"><ele>725.0</ele><time>2026-04-28T09:01:50.879Z</time></trkpt><trkpt lat="44.268462596725115" lon="10.96411010341972"><ele>725.0</ele><time>2026-04-28T09:01:51.879Z</time></trkpt><trkpt lat="44.268393658519756" lon="10.963920014001449"><ele>725.0</ele><time>2026-04-28T09:01:52.879Z</time></trkpt><trkpt lat="44.268325358081974" lon="10.963715465795506"><ele>721.6666666666666</ele><time>2026-04-28T09:01:53.879Z</time></trkpt><trkpt lat="44.268253768891626" lon="10.963509559431586"><ele>718.3333333333334</ele><time>2026-04-28T09:01:54.879Z</time></trkpt><trkpt lat="44.268181235243894" lon="10.963297574086425"><ele>715.0</ele><time>2026-04-28T09:01:55.879Z</time></trkpt><trkpt lat="44.26810726783998" lon="10.963088244265776"><ele>714.6666666666667</ele><time>2026-04-28T09:01:56.879Z</time></trkpt><trkpt lat="44.26803378181643" lon="10.962869951937439"><ele>714.3333333333334</ele><time>2026-04-28T09:01:57.879Z</time></trkpt><trkpt lat="44.267957002718354" lon="10.962655347397408"><ele>714.0</ele><time>2026-04-28T09:01:58.879Z</time></trkpt><trkpt lat="44.26788445581441" lon="10.962445269027338"><ele>713.6666666666666</ele><time>2026-04-28T09:01:59.879Z</time></trkpt><trkpt lat="44.26781435416773" lon="10.962230069187775"><ele>713.3333333333333</ele><time>2026-04-28T09:02:00.879Z</time></trkpt><trkpt lat="44.26774868348588" lon="10.962043508836603"><ele>713.0</ele><time>2026-04-28T09:02:01.879Z</time></trkpt><trkpt lat="44.26768115246391" lon="10.961876475921988"><ele>713.0</ele><time>2026-04-28T09:02:02.879Z</time></trkpt><trkpt lat="44.26762203911833" lon="10.961718260547025"><ele>713.0</ele><time>2026-04-28T09:02:03.879Z</time></trkpt><trkpt lat="44.26756629257492" lon="10.961561742394354"><ele>713.0</ele><time>2026-04-28T09:02:04.879Z</time></trkpt><trkpt lat="44.26751284697404" lon="10.961411460438935"><ele>713.0</ele><time>2026-04-28T09:02:05.879Z</time></trkpt><trkpt lat="44.26746503030096" lon="10.961258037993705"><ele>713.75</ele><time>2026-04-28T09:02:06.879Z</time></trkpt><trkpt lat="44.26742706667531" lon="10.9611029756242"><ele>714.5</ele><time>2026-04-28T09:02:07.879Z</time></trkpt><trkpt lat="44.267402729074284" lon="10.960941531883748"><ele>715.25</ele><time>2026-04-28T09:02:08.879Z</time></trkpt><trkpt lat="44.26738720923598" lon="10.960775555712184"><ele>716.0</ele><time>2026-04-28T09:02:09.879Z</time></trkpt><trkpt lat="44.267374102612685" lon="10.960614763604193"><ele>716.75</ele><time>2026-04-28T09:02:10.879Z</time></trkpt><trkpt lat="44.26736689898458" lon="10.960473333002968"><ele>717.5</ele><time>2026-04-28T09:02:11.879Z</time></trkpt><trkpt lat="44.267354336234376" lon="10.960311960483091"><ele>718.25</ele><time>2026-04-28T09:02:12.879Z</time></trkpt><trkpt lat="44.26734322403956" lon="10.960143379108132"><ele>719.0</ele><time>2026-04-28T09:02:13.879Z</time></trkpt><trkpt lat="44.26732664536253" lon="10.959970393904316"><ele>719.0</ele><time>2026-04-28T09:02:14.879Z</time></trkpt><trkpt lat="44.26730440466361" lon="10.959794476142912"><ele>719.0</ele><time>2026-04-28T09:02:15.879Z</time></trkpt><trkpt lat="44.26727890793105" lon="10.959625320969105"><ele>719.0</ele><time>2026-04-28T09:02:16.879Z</time></trkpt><trkpt lat="44.26724167256369" lon="10.959449096080082"><ele>719.0</ele><time>2026-04-28T09:02:17.879Z</time></trkpt><trkpt lat="44.26720782091773" lon="10.959289753308635"><ele>719.5</ele><time>2026-04-28T09:02:18.879Z</time></trkpt><trkpt lat="44.26716639016851" lon="10.959119997063599"><ele>720.0</ele><time>2026-04-28T09:02:19.879Z</time></trkpt><trkpt lat="44.26712544993813" lon="10.958962209270691"><ele>720.5</ele><time>2026-04-28T09:02:20.879Z</time></trkpt><trkpt lat="44.26708111149463" lon="10.958812134338176"><ele>721.0</ele><time>2026-04-28T09:02:21.879Z</time></trkpt><trkpt lat="44.26703773495137" lon="10.958656518348556"><ele>721.0</ele><time>2026-04-28T09:02:22.879Z</time></trkpt><trkpt lat="44.26699578887383" lon="10.958500742424452"><ele>721.0</ele><time>2026-04-28T09:02:23.879Z</time></trkpt><trkpt lat="44.26695328780013" lon="10.958340535338493"><ele>721.0</ele><time>2026-04-28T09:02:24.879Z</time></trkpt><trkpt lat="44.26691321400815" lon="10.958188379891883"><ele>721.0</ele><time>2026-04-28T09:02:25.879Z</time></trkpt><trkpt lat="44.26687778182638" lon="10.958051506857178"><ele>721.8</ele><time>2026-04-28T09:02:26.879Z</time></trkpt><trkpt lat="44.26684284646594" lon="10.95792529843829"><ele>722.5999999999999</ele><time>2026-04-28T09:02:27.879Z</time></trkpt><trkpt lat="44.26680752898478" lon="10.957798568992166"><ele>723.4</ele><time>2026-04-28T09:02:28.879Z</time></trkpt><trkpt lat="44.266778348892984" lon="10.957660152524625"><ele>724.2</ele><time>2026-04-28T09:02:29.879Z</time></trkpt><trkpt lat="44.26674723472854" lon="10.957514344935795"><ele>725.0</ele><time>2026-04-28T09:02:30.879Z</time></trkpt><trkpt lat="44.266715415189324" lon="10.957364858592229"><ele>725.75</ele><time>2026-04-28T09:02:31.879Z</time></trkpt><trkpt lat="44.26667798757041" lon="10.95721157621972"><ele>726.5</ele><time>2026-04-28T09:02:32.879Z</time></trkpt><trkpt lat="44.26663750544169" lon="10.957049160172119"><ele>727.25</ele><time>2026-04-28T09:02:33.879Z</time></trkpt><trkpt lat="44.26659468351016" lon="10.956891620028598"><ele>728.0</ele><time>2026-04-28T09:02:34.879Z</time></trkpt><trkpt lat="44.26655210043476" lon="10.956739225863787"><ele>728.5</ele><time>2026-04-28T09:02:35.879Z</time></trkpt><trkpt lat="44.26651385768458" lon="10.95658738863329"><ele>729.0</ele><time>2026-04-28T09:02:36.879Z</time></trkpt><trkpt lat="44.266476081974396" lon="10.95643504639057"><ele>729.5</ele><time>2026-04-28T09:02:37.879Z</time></trkpt><trkpt lat="44.26645411439868" lon="10.956272772421542"><ele>730.0</ele><time>2026-04-28T09:02:38.879Z</time></trkpt><trkpt lat="44.266442808898695" lon="10.95611013283127"><ele>731.0</ele><time>2026-04-28T09:02:39.879Z</time></trkpt><trkpt lat="44.266444679929336" lon="10.9559454654824"><ele>732.0</ele><time>2026-04-28T09:02:40.879Z</time></trkpt><trkpt lat="44.266452601350046" lon="10.955780810144109"><ele>733.0</ele><time>2026-04-28T09:02:41.879Z</time></trkpt><trkpt lat="44.266469120030884" lon="10.955617785033485"><ele>734.0</ele><time>2026-04-28T09:02:42.879Z</time></trkpt><trkpt lat="44.26650646036733" lon="10.95546123007112"><ele>734.0</ele><time>2026-04-28T09:02:43.879Z</time></trkpt><trkpt lat="44.26654626706804" lon="10.955305173612965"><ele>734.0</ele><time>2026-04-28T09:02:44.879Z</time></trkpt><trkpt lat="44.26658117187315" lon="10.95513932846453"><ele>734.0</ele><time>2026-04-28T09:02:45.879Z</time></trkpt><trkpt lat="44.266618945270494" lon="10.954969139986988"><ele>734.0</ele><time>2026-04-28T09:02:46.879Z</time></trkpt><trkpt lat="44.2666609067604" lon="10.954802283786828"><ele>736.25</ele><time>2026-04-28T09:02:47.879Z</time></trkpt><trkpt lat="44.266698131420576" lon="10.954631836832219"><ele>738.5</ele><time>2026-04-28T09:02:48.879Z</time></trkpt><trkpt lat="44.26673668696734" lon="10.954462714071646"><ele>740.75</ele><time>2026-04-28T09:02:49.879Z</time></trkpt><trkpt lat="44.26677972250059" lon="10.954293663733626"><ele>743.0</ele><time>2026-04-28T09:02:50.878Z</time></trkpt><trkpt lat="44.2668253400774" lon="10.954141065547539"><ele>745.25</ele><time>2026-04-28T09:02:51.878Z</time></trkpt><trkpt lat="44.26687805006429" lon="10.954004247390062"><ele>747.5</ele><time>2026-04-28T09:02:52.878Z</time></trkpt><trkpt lat="44.26693682711738" lon="10.953872199366918"><ele>749.75</ele><time>2026-04-28T09:02:53.878Z</time></trkpt><trkpt lat="44.267003822268606" lon="10.953739177448067"><ele>752.0</ele><time>2026-04-28T09:02:54.878Z</time></trkpt><trkpt lat="44.26707727777875" lon="10.953618001563346"><ele>752.0</ele><time>2026-04-28T09:02:55.878Z</time></trkpt><trkpt lat="44.267163262001056" lon="10.95350504784856"><ele>752.0</ele><time>2026-04-28T09:02:56.878Z</time></trkpt><trkpt lat="44.267253747636495" lon="10.953406649936664"><ele>752.0</ele><time>2026-04-28T09:02:57.878Z</time></trkpt><trkpt lat="44.26736732011668" lon="10.953347640317372"><ele>752.0</ele><time>2026-04-28T09:02:58.878Z</time></trkpt><trkpt lat="44.26748538355" lon="10.953300159438056"><ele>754.0</ele><time>2026-04-28T09:02:59.878Z</time></trkpt><trkpt lat="44.2676319352912" lon="10.953263460211295"><ele>756.0</ele><time>2026-04-28T09:03:00.878Z</time></trkpt><trkpt lat="44.26776365554762" lon="10.953248173239091"><ele>758.0</ele><time>2026-04-28T09:03:01.878Z</time></trkpt><trkpt lat="44.26786630834029" lon="10.953245125703647"><ele>760.0</ele><time>2026-04-28T09:03:02.878Z</time></trkpt><trkpt lat="44.26795073116755" lon="10.953224028072063"><ele>760.0</ele><time>2026-04-28T09:03:03.878Z</time></trkpt><trkpt lat="44.2680185230573" lon="10.953191171354385"><ele>760.0</ele><time>2026-04-28T09:03:04.878Z</time></trkpt><trkpt lat="44.268079247938985" lon="10.95313191360444"><ele>760.0</ele><time>2026-04-28T09:03:05.878Z</time></trkpt><trkpt lat="44.268134636484184" lon="10.953060684410973"><ele>760.0</ele><time>2026-04-28T09:03:06.878Z</time></trkpt><trkpt lat="44.26815383070234" lon="10.952934479327217"><ele>760.0</ele><time>2026-04-28T09:03:07.878Z</time></trkpt><trkpt lat="44.26817643275857" lon="10.952790617152848"><ele>760.0</ele><time>2026-04-28T09:03:09.878Z</time></trkpt><trkpt lat="44.26818450387822" lon="10.95268444060816"><ele>760.3333333333334</ele><time>2026-04-28T09:03:13.878Z</time></trkpt><trkpt lat="44.26819362524782" lon="10.952570453394694"><ele>760.6666666666667</ele><time>2026-04-28T09:03:18.878Z</time></trkpt><trkpt lat="44.2681969866706" lon="10.952413371072742"><ele>761.0</ele><time>2026-04-28T09:03:24.878Z</time></trkpt><trkpt lat="44.26819499517564" lon="10.952283663972008"><ele>761.3333333333334</ele><time>2026-04-28T09:03:27.878Z</time></trkpt><trkpt lat="44.26822060696655" lon="10.952190537124004"><ele>761.6666666666666</ele><time>2026-04-28T09:03:30.878Z</time></trkpt><trkpt lat="44.26822906576236" lon="10.952087372702776"><ele>762.0</ele><time>2026-04-28T09:03:33.878Z</time></trkpt><trkpt lat="44.26823774414611" lon="10.951998667095573"><ele>763.5</ele><time>2026-04-28T09:03:38.878Z</time></trkpt><trkpt lat="44.268225310897975" lon="10.95188946704807"><ele>765.0</ele><time>2026-04-28T09:03:51.877Z</time></trkpt><trkpt lat="44.26811068051416" lon="10.951839539926981"><ele>766.5</ele><time>2026-04-28T09:03:53.876Z</time></trkpt><trkpt lat="44.26799744326431" lon="10.952003549696167"><ele>768.0</ele><time>2026-04-28T09:03:54.877Z</time></trkpt><trkpt lat="44.26789469100887" lon="10.952064359583348"><ele>768.5</ele><time>2026-04-28T09:03:55.877Z</time></trkpt><trkpt lat="44.267784364494815" lon="10.952131125480816"><ele>769.0</ele><time>2026-04-28T09:03:56.877Z</time></trkpt><trkpt lat="44.26766968322388" lon="10.95220585631805"><ele>769.5</ele><time>2026-04-28T09:03:57.877Z</time></trkpt><trkpt lat="44.26754142145406" lon="10.952283451524973"><ele>770.0</ele><time>2026-04-28T09:03:58.877Z</time></trkpt><trkpt lat="44.267411029757696" lon="10.952356543386385"><ele>769.75</ele><time>2026-04-28T09:03:59.877Z</time></trkpt><trkpt lat="44.26727197611658" lon="10.9524392571"><ele>769.5</ele><time>2026-04-28T09:04:00.877Z</time></trkpt><trkpt lat="44.267147782869785" lon="10.952512897633047"><ele>769.25</ele><time>2026-04-28T09:04:01.877Z</time></trkpt><trkpt lat="44.267022230986754" lon="10.952564298672616"><ele>769.0</ele><time>2026-04-28T09:04:02.877Z</time></trkpt><trkpt lat="44.266904077301234" lon="10.952556875659269"><ele>769.0</ele><time>2026-04-28T09:04:03.877Z</time></trkpt><trkpt lat="44.26682078581141" lon="10.95262563290929"><ele>769.0</ele><time>2026-04-28T09:04:04.877Z</time></trkpt><trkpt lat="44.26667780309617" lon="10.952426031981469"><ele>769.0</ele><time>2026-04-28T09:04:05.877Z</time></trkpt><trkpt lat="44.26657738054586" lon="10.952320187780279"><ele>769.0</ele><time>2026-04-28T09:04:06.877Z</time></trkpt><trkpt lat="44.2664656091843" lon="10.952233549200606"><ele>770.6666666666666</ele><time>2026-04-28T09:04:07.877Z</time></trkpt><trkpt lat="44.26634250651497" lon="10.952182451853771"><ele>772.3333333333333</ele><time>2026-04-28T09:04:08.877Z</time></trkpt><trkpt lat="44.266190280881396" lon="10.952165604008561"><ele>774.0</ele><time>2026-04-28T09:04:09.877Z</time></trkpt><trkpt lat="44.2660210905606" lon="10.952173870833043"><ele>774.0</ele><time>2026-04-28T09:04:10.877Z</time></trkpt><trkpt lat="44.26586271001895" lon="10.952189334701584"><ele>774.0</ele><time>2026-04-28T09:04:11.877Z</time></trkpt><trkpt lat="44.26571332607517" lon="10.952206292009155"><ele>774.0</ele><time>2026-04-28T09:04:12.877Z</time></trkpt><trkpt lat="44.265577243341724" lon="10.952229234243363"><ele>774.0</ele><time>2026-04-28T09:04:13.877Z</time></trkpt><trkpt lat="44.265450636066944" lon="10.95229003896419"><ele>774.6</ele><time>2026-04-28T09:04:14.877Z</time></trkpt><trkpt lat="44.265338498433316" lon="10.952387742216505"><ele>775.2</ele><time>2026-04-28T09:04:15.877Z</time></trkpt><trkpt lat="44.265255811540335" lon="10.952496674237299"><ele>775.8000000000001</ele><time>2026-04-28T09:04:16.877Z</time></trkpt><trkpt lat="44.26519571106006" lon="10.952592204969378"><ele>776.4000000000001</ele><time>2026-04-28T09:04:17.877Z</time></trkpt><trkpt lat="44.26511785169363" lon="10.95264431566137"><ele>777.0</ele><time>2026-04-28T09:04:18.877Z</time></trkpt><trkpt lat="44.2650269330265" lon="10.95269417582462"><ele>777.0</ele><time>2026-04-28T09:04:19.877Z</time></trkpt><trkpt lat="44.26491601088206" lon="10.952725456855608"><ele>777.0</ele><time>2026-04-28T09:04:20.877Z</time></trkpt><trkpt lat="44.26479765646355" lon="10.9526586163693"><ele>777.0</ele><time>2026-04-28T09:04:21.877Z</time></trkpt><trkpt lat="44.26468608050881" lon="10.952540366098034"><ele>777.0</ele><time>2026-04-28T09:04:22.877Z</time></trkpt><trkpt lat="44.26459018697912" lon="10.952387445249384"><ele>782.75</ele><time>2026-04-28T09:04:23.877Z</time></trkpt><trkpt lat="44.26449828307594" lon="10.952221852604735"><ele>788.5</ele><time>2026-04-28T09:04:24.877Z</time></trkpt><trkpt lat="44.26440073084657" lon="10.952066252368683"><ele>794.25</ele><time>2026-04-28T09:04:25.877Z</time></trkpt><trkpt lat="44.26430247641616" lon="10.951909959865054"><ele>800.0</ele><time>2026-04-28T09:04:26.877Z</time></trkpt><trkpt lat="44.26421198053035" lon="10.951747113048878"><ele>798.25</ele><time>2026-04-28T09:04:27.877Z</time></trkpt><trkpt lat="44.26413064571647" lon="10.9515905222476"><ele>796.5</ele><time>2026-04-28T09:04:28.877Z</time></trkpt><trkpt lat="44.26405489149938" lon="10.951430548127906"><ele>794.75</ele><time>2026-04-28T09:04:29.877Z</time></trkpt><trkpt lat="44.26400792569138" lon="10.951259327554288"><ele>793.0</ele><time>2026-04-28T09:04:30.877Z</time></trkpt><trkpt lat="44.26399691932984" lon="10.951069547180039"><ele>792.0</ele><time>2026-04-28T09:04:31.877Z</time></trkpt><trkpt lat="44.263998079239805" lon="10.950867428651568"><ele>791.0</ele><time>2026-04-28T09:04:32.877Z</time></trkpt><trkpt lat="44.26398771862001" lon="10.950691888846105"><ele>790.0</ele><time>2026-04-28T09:04:33.877Z</time></trkpt><trkpt lat="44.26394487836244" lon="10.95053274950544"><ele>789.0</ele><time>2026-04-28T09:04:34.877Z</time></trkpt><trkpt lat="44.26389404910134" lon="10.950399974864077"><ele>793.25</ele><time>2026-04-28T09:04:35.877Z</time></trkpt><trkpt lat="44.26381552785658" lon="10.95029279117253"><ele>797.5</ele><time>2026-04-28T09:04:36.877Z</time></trkpt><trkpt lat="44.26371634960899" lon="10.950202333328182"><ele>801.75</ele><time>2026-04-28T09:04:37.877Z</time></trkpt><trkpt lat="44.26360343989678" lon="10.950139107589417"><ele>806.0</ele><time>2026-04-28T09:04:38.877Z</time></trkpt><trkpt lat="44.26349038038246" lon="10.950088521925128"><ele>805.0</ele><time>2026-04-28T09:04:39.877Z</time></trkpt><trkpt lat="44.26337186289047" lon="10.95003764915823"><ele>804.0</ele><time>2026-04-28T09:04:40.877Z</time></trkpt><trkpt lat="44.26324939662859" lon="10.950014278663827"><ele>803.0</ele><time>2026-04-28T09:04:41.877Z</time></trkpt><trkpt lat="44.26312632065575" lon="10.950041356476842"><ele>802.0</ele><time>2026-04-28T09:04:42.877Z</time></trkpt><trkpt lat="44.26300322085015" lon="10.950105138288146"><ele>802.0</ele><time>2026-04-28T09:04:43.877Z</time></trkpt><trkpt lat="44.26287975264637" lon="10.950194865417627"><ele>802.0</ele><time>2026-04-28T09:04:44.877Z</time></trkpt><trkpt lat="44.2627594023727" lon="10.95028058975251"><ele>802.0</ele><time>2026-04-28T09:04:45.877Z</time></trkpt><trkpt lat="44.262638676995174" lon="10.950334462245774"><ele>802.0</ele><time>2026-04-28T09:04:46.877Z</time></trkpt><trkpt lat="44.26253245747431" lon="10.950431868578988"><ele>802.0</ele><time>2026-04-28T09:04:47.877Z</time></trkpt><trkpt lat="44.26245088846639" lon="10.950554049579308"><ele>802.0</ele><time>2026-04-28T09:04:48.877Z</time></trkpt><trkpt lat="44.26240165378849" lon="10.950711804311426"><ele>802.0</ele><time>2026-04-28T09:04:49.877Z</time></trkpt><trkpt lat="44.26240073841529" lon="10.950879342666788"><ele>802.0</ele><time>2026-04-28T09:04:50.877Z</time></trkpt><trkpt lat="44.26243234525628" lon="10.95104788275104"><ele>803.25</ele><time>2026-04-28T09:04:51.877Z</time></trkpt><trkpt lat="44.262477228543034" lon="10.951223595640183"><ele>804.5</ele><time>2026-04-28T09:04:52.877Z</time></trkpt><trkpt lat="44.26251488120068" lon="10.951387584189519"><ele>805.75</ele><time>2026-04-28T09:04:53.877Z</time></trkpt><trkpt lat="44.262536129643436" lon="10.951555282245845"><ele>807.0</ele><time>2026-04-28T09:04:54.877Z</time></trkpt><trkpt lat="44.26250481338684" lon="10.95168089083057"><ele>806.75</ele><time>2026-04-28T09:04:55.877Z</time></trkpt><trkpt lat="44.26244995883133" lon="10.951801288468461"><ele>806.5</ele><time>2026-04-28T09:04:56.877Z</time></trkpt><trkpt lat="44.26238168929403" lon="10.9519339836155"><ele>806.25</ele><time>2026-04-28T09:04:57.877Z</time></trkpt><trkpt lat="44.262298618435004" lon="10.952080515183225"><ele>806.0</ele><time>2026-04-28T09:04:58.877Z</time></trkpt><trkpt lat="44.262216100215674" lon="10.952230195519126"><ele>806.0</ele><time>2026-04-28T09:04:59.877Z</time></trkpt><trkpt lat="44.26211382750346" lon="10.952338854601884"><ele>806.0</ele><time>2026-04-28T09:05:00.877Z</time></trkpt><trkpt lat="44.261988946569716" lon="10.952397890947923"><ele>806.0</ele><time>2026-04-28T09:05:01.877Z</time></trkpt><trkpt lat="44.26186683681227" lon="10.95246141182372"><ele>806.0</ele><time>2026-04-28T09:05:02.877Z</time></trkpt><trkpt lat="44.261747390961204" lon="10.952523938586445"><ele>809.75</ele><time>2026-04-28T09:05:03.877Z</time></trkpt><trkpt lat="44.2616158949302" lon="10.952543184807846"><ele>813.5</ele><time>2026-04-28T09:05:04.877Z</time></trkpt><trkpt lat="44.2614876110682" lon="10.952555579789035"><ele>817.25</ele><time>2026-04-28T09:05:05.876Z</time></trkpt><trkpt lat="44.2613528808096" lon="10.952522037713283"><ele>821.0</ele><time>2026-04-28T09:05:06.876Z</time></trkpt><trkpt lat="44.261225828974" lon="10.952468206293098"><ele>823.0</ele><time>2026-04-28T09:05:07.876Z</time></trkpt><trkpt lat="44.26112044815903" lon="10.952318653538642"><ele>825.0</ele><time>2026-04-28T09:05:08.876Z</time></trkpt><trkpt lat="44.26101034076896" lon="10.95218389088195"><ele>827.0</ele><time>2026-04-28T09:05:09.876Z</time></trkpt><trkpt lat="44.26092535932961" lon="10.952040128887631"><ele>829.0</ele><time>2026-04-28T09:05:10.876Z</time></trkpt><trkpt lat="44.260806650441616" lon="10.951911863168705"><ele>829.0</ele><time>2026-04-28T09:05:11.876Z</time></trkpt><trkpt lat="44.26070417368081" lon="10.95178773421288"><ele>829.0</ele><time>2026-04-28T09:05:12.876Z</time></trkpt><trkpt lat="44.260601897697974" lon="10.951671136132202"><ele>829.0</ele><time>2026-04-28T09:05:13.876Z</time></trkpt><trkpt lat="44.26051056151941" lon="10.951550040952755"><ele>829.0</ele><time>2026-04-28T09:05:14.876Z</time></trkpt><trkpt lat="44.260416662537374" lon="10.951438588759812"><ele>830.6</ele><time>2026-04-28T09:05:15.876Z</time></trkpt><trkpt lat="44.260329969929494" lon="10.95133510128302"><ele>832.2</ele><time>2026-04-28T09:05:16.876Z</time></trkpt><trkpt lat="44.26024499443808" lon="10.951239650948192"><ele>833.8000000000001</ele><time>2026-04-28T09:05:17.876Z</time></trkpt><trkpt lat="44.26016650264449" lon="10.951134687641852"><ele>835.4000000000001</ele><time>2026-04-28T09:05:18.876Z</time></trkpt><trkpt lat="44.260128096525044" lon="10.950985801914225"><ele>837.0</ele><time>2026-04-28T09:05:19.876Z</time></trkpt><trkpt lat="44.26011120096039" lon="10.950861791180104"><ele>833.6</ele><time>2026-04-28T09:05:20.876Z</time></trkpt><trkpt lat="44.260116619717614" lon="10.950684541779838"><ele>830.2</ele><time>2026-04-28T09:05:21.876Z</time></trkpt><trkpt lat="44.26012018571713" lon="10.950545637983558"><ele>826.8</ele><time>2026-04-28T09:05:22.876Z</time></trkpt><trkpt lat="44.26010411046375" lon="10.950404646297672"><ele>823.4</ele><time>2026-04-28T09:05:23.876Z</time></trkpt><trkpt lat="44.26005807151344" lon="10.950271548594987"><ele>820.0</ele><time>2026-04-28T09:05:24.876Z</time></trkpt><trkpt lat="44.25998995254357" lon="10.95016300465751"><ele>820.0</ele><time>2026-04-28T09:05:25.876Z</time></trkpt><trkpt lat="44.259893013520596" lon="10.950071871731474"><ele>820.0</ele><time>2026-04-28T09:05:26.876Z</time></trkpt><trkpt lat="44.25977743364471" lon="10.950011457606635"><ele>820.0</ele><time>2026-04-28T09:05:27.876Z</time></trkpt><trkpt lat="44.25964436108114" lon="10.949991583620132"><ele>820.0</ele><time>2026-04-28T09:05:28.876Z</time></trkpt><trkpt lat="44.25951244906546" lon="10.949990076646825"><ele>818.25</ele><time>2026-04-28T09:05:29.876Z</time></trkpt><trkpt lat="44.25938072540507" lon="10.94998818708576"><ele>816.5</ele><time>2026-04-28T09:05:30.876Z</time></trkpt><trkpt lat="44.25925004677075" lon="10.94996254452695"><ele>814.75</ele><time>2026-04-28T09:05:31.876Z</time></trkpt><trkpt lat="44.259127581025034" lon="10.949902323682734"><ele>813.0</ele><time>2026-04-28T09:05:32.876Z</time></trkpt><trkpt lat="44.25901754597143" lon="10.949822976618277"><ele>811.5999999999999</ele><time>2026-04-28T09:05:33.876Z</time></trkpt><trkpt lat="44.2589185587175" lon="10.94975999066738"><ele>810.1999999999999</ele><time>2026-04-28T09:05:34.876Z</time></trkpt><trkpt lat="44.258821578815294" lon="10.949731974202624"><ele>808.8</ele><time>2026-04-28T09:05:35.876Z</time></trkpt><trkpt lat="44.25870889409352" lon="10.949742105261207"><ele>807.4</ele><time>2026-04-28T09:05:36.876Z</time></trkpt><trkpt lat="44.258598609774424" lon="10.94980258377854"><ele>806.0</ele><time>2026-04-28T09:05:37.876Z</time></trkpt><trkpt lat="44.258475797962866" lon="10.949889427988634"><ele>806.0</ele><time>2026-04-28T09:05:38.876Z</time></trkpt><trkpt lat="44.258354830883995" lon="10.949976918661054"><ele>806.0</ele><time>2026-04-28T09:05:39.876Z</time></trkpt><trkpt lat="44.258240092993425" lon="10.950061429787475"><ele>806.0</ele><time>2026-04-28T09:05:40.876Z</time></trkpt><trkpt lat="44.25812899515053" lon="10.950137654000656"><ele>806.0</ele><time>2026-04-28T09:05:41.876Z</time></trkpt><trkpt lat="44.25801487421692" lon="10.950189389651351"><ele>804.25</ele><time>2026-04-28T09:05:42.876Z</time></trkpt><trkpt lat="44.257915332762" lon="10.95026583664541"><ele>802.5</ele><time>2026-04-28T09:05:43.876Z</time></trkpt><trkpt lat="44.25782683193245" lon="10.950362366092646"><ele>800.75</ele><time>2026-04-28T09:05:44.876Z</time></trkpt><trkpt lat="44.25775728845769" lon="10.950500529202435"><ele>799.0</ele><time>2026-04-28T09:05:45.876Z</time></trkpt><trkpt lat="44.25769673522571" lon="10.95063339617881"><ele>798.9999999999999</ele><time>2026-04-28T09:05:46.876Z</time></trkpt><trkpt lat="44.257639823253" lon="10.950753457994482"><ele>799.0</ele><time>2026-04-28T09:05:47.876Z</time></trkpt><trkpt lat="44.25759009359205" lon="10.950857705247756"><ele>799.0</ele><time>2026-04-28T09:05:48.876Z</time></trkpt><trkpt lat="44.25754053469585" lon="10.950939607267706"><ele>799.0</ele><time>2026-04-28T09:05:49.876Z</time></trkpt><trkpt lat="44.25746453150631" lon="10.950968724716638"><ele>798.9999999999999</ele><time>2026-04-28T09:05:50.876Z</time></trkpt><trkpt lat="44.25738529732935" lon="10.950932820379716"><ele>799.0</ele><time>2026-04-28T09:05:51.875Z</time></trkpt><trkpt lat="44.257328748216786" lon="10.950848237749542"><ele>799.0</ele><time>2026-04-28T09:05:52.874Z</time></trkpt><trkpt lat="44.25730323339046" lon="10.950722906349942"><ele>799.0</ele><time>2026-04-28T09:05:53.874Z</time></trkpt><trkpt lat="44.25732325782438" lon="10.950573323011332"><ele>799.0</ele><time>2026-04-28T09:05:54.874Z</time></trkpt><trkpt lat="44.25735831502228" lon="10.950403320597852"><ele>799.0</ele><time>2026-04-28T09:05:55.874Z</time></trkpt><trkpt lat="44.2574113408893" lon="10.950220165893867"><ele>799.0</ele><time>2026-04-28T09:05:56.874Z</time></trkpt><trkpt lat="44.25749599528292" lon="10.950051826918209"><ele>799.0</ele><time>2026-04-28T09:05:57.874Z</time></trkpt><trkpt lat="44.257617394944006" lon="10.949900957638395"><ele>799.0</ele><time>2026-04-28T09:05:58.874Z</time></trkpt><trkpt lat="44.25776166603552" lon="10.949763009536886"><ele>799.0</ele><time>2026-04-28T09:05:59.874Z</time></trkpt><trkpt lat="44.25790734195389" lon="10.949641383012569"><ele>799.0</ele><time>2026-04-28T09:06:00.874Z</time></trkpt><trkpt lat="44.25804110474063" lon="10.949523941863108"><ele>799.0</ele><time>2026-04-28T09:06:01.875Z</time></trkpt><trkpt lat="44.258154407549135" lon="10.949395612715987"><ele>800.75</ele><time>2026-04-28T09:06:02.875Z</time></trkpt><trkpt lat="44.25825597571536" lon="10.949251468460469"><ele>802.5</ele><time>2026-04-28T09:06:03.874Z</time></trkpt><trkpt lat="44.25835269460916" lon="10.94909973187345"><ele>804.25</ele><time>2026-04-28T09:06:04.875Z</time></trkpt><trkpt lat="44.2584456202888" lon="10.94894594980033"><ele>806.0</ele><time>2026-04-28T09:06:05.875Z</time></trkpt><trkpt lat="44.25856041126193" lon="10.948820116284475"><ele>801.6666666666667</ele><time>2026-04-28T09:06:06.875Z</time></trkpt><trkpt lat="44.25867947685206" lon="10.948686419852658"><ele>797.3333333333333</ele><time>2026-04-28T09:06:07.875Z</time></trkpt><trkpt lat="44.25879423223916" lon="10.948524023277502"><ele>793.0</ele><time>2026-04-28T09:06:08.875Z</time></trkpt><trkpt lat="44.25890017286686" lon="10.948344227316335"><ele>791.6666666666666</ele><time>2026-04-28T09:06:09.875Z</time></trkpt><trkpt lat="44.25898861559254" lon="10.948172529696016"><ele>790.3333333333333</ele><time>2026-04-28T09:06:10.875Z</time></trkpt><trkpt lat="44.2590659718568" lon="10.947993378185162"><ele>789.0</ele><time>2026-04-28T09:06:11.875Z</time></trkpt><trkpt lat="44.259135420678604" lon="10.947806614169396"><ele>789.0</ele><time>2026-04-28T09:06:12.875Z</time></trkpt><trkpt lat="44.259172628596026" lon="10.947633005952298"><ele>789.0</ele><time>2026-04-28T09:06:13.875Z</time></trkpt><trkpt lat="44.25915614536997" lon="10.94745820448883"><ele>789.0</ele><time>2026-04-28T09:06:14.875Z</time></trkpt><trkpt lat="44.259115368632116" lon="10.947328819701939"><ele>789.0</ele><time>2026-04-28T09:06:15.875Z</time></trkpt><trkpt lat="44.25905365583268" lon="10.9471912988786"><ele>788.6666666666667</ele><time>2026-04-28T09:06:16.875Z</time></trkpt><trkpt lat="44.2589273997881" lon="10.94707035580286"><ele>788.3333333333334</ele><time>2026-04-28T09:06:17.875Z</time></trkpt><trkpt lat="44.25879516460997" lon="10.946941458283115"><ele>788.0</ele><time>2026-04-28T09:06:18.875Z</time></trkpt><trkpt lat="44.25867876560063" lon="10.946786753923186"><ele>786.3333333333334</ele><time>2026-04-28T09:06:19.875Z</time></trkpt><trkpt lat="44.258598071439366" lon="10.946616524830064"><ele>784.6666666666667</ele><time>2026-04-28T09:06:20.875Z</time></trkpt><trkpt lat="44.258543284563515" lon="10.946420988198437"><ele>783.0</ele><time>2026-04-28T09:06:21.875Z</time></trkpt><trkpt lat="44.25853894704828" lon="10.94620466951439"><ele>783.0</ele><time>2026-04-28T09:06:22.875Z</time></trkpt><trkpt lat="44.258546866394916" lon="10.945952152277115"><ele>783.0</ele><time>2026-04-28T09:06:23.875Z</time></trkpt><trkpt lat="44.25853699763762" lon="10.945709073622938"><ele>783.0</ele><time>2026-04-28T09:06:24.875Z</time></trkpt><trkpt lat="44.258546629908885" lon="10.94545303472223"><ele>783.3333333333333</ele><time>2026-04-28T09:06:25.875Z</time></trkpt><trkpt lat="44.25854126310087" lon="10.945190983442886"><ele>783.6666666666666</ele><time>2026-04-28T09:06:26.875Z</time></trkpt><trkpt lat="44.25851452514187" lon="10.944949316645635"><ele>784.0</ele><time>2026-04-28T09:06:27.875Z</time></trkpt><trkpt lat="44.25847608829516" lon="10.94472959109632"><ele>781.6666666666666</ele><time>2026-04-28T09:06:28.875Z</time></trkpt><trkpt lat="44.25844581843548" lon="10.944500188578854"><ele>779.3333333333333</ele><time>2026-04-28T09:06:29.875Z</time></trkpt><trkpt lat="44.258418759940696" lon="10.94427299404957"><ele>777.0</ele><time>2026-04-28T09:06:30.875Z</time></trkpt><trkpt lat="44.25841934100105" lon="10.944038263170286"><ele>774.0</ele><time>2026-04-28T09:06:31.875Z</time></trkpt><trkpt lat="44.25844612197037" lon="10.943802405545032"><ele>771.0</ele><time>2026-04-28T09:06:32.875Z</time></trkpt><trkpt lat="44.25847892678926" lon="10.943577893130929"><ele>768.0</ele><time>2026-04-28T09:06:33.875Z</time></trkpt><trkpt lat="44.25851441467038" lon="10.943346692503045"><ele>766.0</ele><time>2026-04-28T09:06:34.875Z</time></trkpt><trkpt lat="44.25851103561846" lon="10.943128915252435"><ele>764.0</ele><time>2026-04-28T09:06:35.875Z</time></trkpt><trkpt lat="44.25847964946775" lon="10.942925837885145"><ele>762.0</ele><time>2026-04-28T09:06:36.875Z</time></trkpt><trkpt lat="44.25842122014492" lon="10.942729258607017"><ele>762.0</ele><time>2026-04-28T09:06:37.875Z</time></trkpt><trkpt lat="44.25833964168784" lon="10.942536806916364"><ele>762.0</ele><time>2026-04-28T09:06:38.875Z</time></trkpt><trkpt lat="44.25825236027385" lon="10.942333968507675"><ele>762.0</ele><time>2026-04-28T09:06:39.874Z</time></trkpt><trkpt lat="44.258171707390346" lon="10.942131304328303"><ele>761.3333333333334</ele><time>2026-04-28T09:06:40.874Z</time></trkpt><trkpt lat="44.25808556349881" lon="10.941911775736738"><ele>760.6666666666667</ele><time>2026-04-28T09:06:41.874Z</time></trkpt><trkpt lat="44.257999596497655" lon="10.941694253512429"><ele>760.0</ele><time>2026-04-28T09:06:42.874Z</time></trkpt><trkpt lat="44.25790717273523" lon="10.941478334315848"><ele>759.0</ele><time>2026-04-28T09:06:43.874Z</time></trkpt><trkpt lat="44.25781857296381" lon="10.94126535792848"><ele>758.0</ele><time>2026-04-28T09:06:44.874Z</time></trkpt><trkpt lat="44.25772483911245" lon="10.941068399723402"><ele>757.0</ele><time>2026-04-28T09:06:45.874Z</time></trkpt><trkpt lat="44.2576267816914" lon="10.94089203371504"><ele>756.3333333333334</ele><time>2026-04-28T09:06:46.874Z</time></trkpt><trkpt lat="44.25751159344538" lon="10.94074428492694"><ele>755.6666666666666</ele><time>2026-04-28T09:06:47.874Z</time></trkpt><trkpt lat="44.25738357375052" lon="10.940620563323817"><ele>755.0</ele><time>2026-04-28T09:06:48.874Z</time></trkpt><trkpt lat="44.25724798505413" lon="10.940517193129761"><ele>759.5</ele><time>2026-04-28T09:06:49.874Z</time></trkpt><trkpt lat="44.25711206189437" lon="10.940423318656455"><ele>764.0</ele><time>2026-04-28T09:06:50.874Z</time></trkpt><trkpt lat="44.25698799590268" lon="10.94032451679319"><ele>768.5</ele><time>2026-04-28T09:06:51.874Z</time></trkpt><trkpt lat="44.256861259014066" lon="10.940224883078757"><ele>773.0</ele><time>2026-04-28T09:06:52.874Z</time></trkpt><trkpt lat="44.256733808401755" lon="10.940117997641849"><ele>774.0</ele><time>2026-04-28T09:06:53.874Z</time></trkpt><trkpt lat="44.25661563642104" lon="10.939985869424685"><ele>775.0</ele><time>2026-04-28T09:06:54.874Z</time></trkpt><trkpt lat="44.25651876501582" lon="10.939829942359015"><ele>776.0</ele><time>2026-04-28T09:06:55.874Z</time></trkpt><trkpt lat="44.256470051507264" lon="10.939644051879302"><ele>777.0</ele><time>2026-04-28T09:06:56.874Z</time></trkpt><trkpt lat="44.256450491470204" lon="10.939445918726525"><ele>777.0</ele><time>2026-04-28T09:06:57.874Z</time></trkpt><trkpt lat="44.25642660728297" lon="10.939265834623203"><ele>777.0</ele><time>2026-04-28T09:06:58.874Z</time></trkpt><trkpt lat="44.256371111081975" lon="10.939104867903263"><ele>777.0</ele><time>2026-04-28T09:06:59.874Z</time></trkpt><trkpt lat="44.25627718496358" lon="10.938986004862029"><ele>777.0</ele><time>2026-04-28T09:07:00.874Z</time></trkpt><trkpt lat="44.25616211151809" lon="10.938892406904904"><ele>775.3333333333333</ele><time>2026-04-28T09:07:01.874Z</time></trkpt><trkpt lat="44.256035621887214" lon="10.938801495445922"><ele>773.6666666666666</ele><time>2026-04-28T09:07:02.874Z</time></trkpt><trkpt lat="44.255898673708344" lon="10.93870528262329"><ele>772.0</ele><time>2026-04-28T09:07:03.874Z</time></trkpt><trkpt lat="44.25576124333134" lon="10.938599339972294"><ele>772.0</ele><time>2026-04-28T09:07:04.874Z</time></trkpt><trkpt lat="44.255634249620044" lon="10.93850195634727"><ele>772.0</ele><time>2026-04-28T09:07:05.874Z</time></trkpt><trkpt lat="44.255524424559056" lon="10.938401822354288"><ele>772.0</ele><time>2026-04-28T09:07:06.874Z</time></trkpt><trkpt lat="44.25543540090743" lon="10.938272628305382"><ele>772.0</ele><time>2026-04-28T09:07:07.874Z</time></trkpt><trkpt lat="44.25536297662455" lon="10.93812394090006"><ele>774.0</ele><time>2026-04-28T09:07:08.874Z</time></trkpt><trkpt lat="44.25531696354953" lon="10.937952804706462"><ele>776.0</ele><time>2026-04-28T09:07:09.874Z</time></trkpt><trkpt lat="44.25529581265576" lon="10.937779869333177"><ele>778.0</ele><time>2026-04-28T09:07:10.874Z</time></trkpt><trkpt lat="44.25530823455735" lon="10.93761331387755"><ele>780.0</ele><time>2026-04-28T09:07:11.874Z</time></trkpt><trkpt lat="44.25535524247334" lon="10.937458224109223"><ele>780.0</ele><time>2026-04-28T09:07:12.874Z</time></trkpt><trkpt lat="44.25546103865945" lon="10.937344639643628"><ele>780.0</ele><time>2026-04-28T09:07:13.874Z</time></trkpt><trkpt lat="44.25556435316807" lon="10.937194376023067"><ele>780.0</ele><time>2026-04-28T09:07:14.874Z</time></trkpt><trkpt lat="44.25567750974131" lon="10.93705938922362"><ele>780.0</ele><time>2026-04-28T09:07:15.874Z</time></trkpt><trkpt lat="44.255780553096116" lon="10.936898131950663"><ele>779.5</ele><time>2026-04-28T09:07:16.874Z</time></trkpt><trkpt lat="44.255866527375936" lon="10.936723388347497"><ele>779.0</ele><time>2026-04-28T09:07:17.874Z</time></trkpt><trkpt lat="44.25592975558603" lon="10.936556334343901"><ele>778.5</ele><time>2026-04-28T09:07:18.874Z</time></trkpt><trkpt lat="44.255959909477326" lon="10.936407575402791"><ele>778.0</ele><time>2026-04-28T09:07:19.874Z</time></trkpt><trkpt lat="44.255953304734994" lon="10.936276529548923"><ele>778.0</ele><time>2026-04-28T09:07:20.874Z</time></trkpt><trkpt lat="44.25590617111658" lon="10.936166366022599"><ele>778.0</ele><time>2026-04-28T09:07:21.874Z</time></trkpt><trkpt lat="44.25582182753498" lon="10.93608079902485"><ele>778.0</ele><time>2026-04-28T09:07:22.874Z</time></trkpt><trkpt lat="44.25570786365098" lon="10.936009978067423"><ele>778.0</ele><time>2026-04-28T09:07:23.874Z</time></trkpt><trkpt lat="44.25557537301802" lon="10.935946463753119"><ele>778.25</ele><time>2026-04-28T09:07:24.874Z</time></trkpt><trkpt lat="44.25544225165686" lon="10.935876861729824"><ele>778.5</ele><time>2026-04-28T09:07:25.874Z</time></trkpt><trkpt lat="44.25531589142485" lon="10.935800460753546"><ele>778.75</ele><time>2026-04-28T09:07:26.874Z</time></trkpt><trkpt lat="44.25519379581643" lon="10.935732971079094"><ele>779.0</ele><time>2026-04-28T09:07:27.874Z</time></trkpt><trkpt lat="44.25509498502326" lon="10.935657940229195"><ele>779.0</ele><time>2026-04-28T09:07:28.874Z</time></trkpt><trkpt lat="44.25501485234881" lon="10.935549853044066"><ele>779.0</ele><time>2026-04-28T09:07:29.874Z</time></trkpt><trkpt lat="44.25496064942389" lon="10.935405838400385"><ele>779.0</ele><time>2026-04-28T09:07:30.874Z</time></trkpt><trkpt lat="44.25493621224545" lon="10.935235784097609"><ele>779.0</ele><time>2026-04-28T09:07:31.874Z</time></trkpt><trkpt lat="44.254930643550544" lon="10.935047930690398"><ele>780.0</ele><time>2026-04-28T09:07:32.874Z</time></trkpt><trkpt lat="44.25493012370901" lon="10.93485270355793"><ele>781.0</ele><time>2026-04-28T09:07:33.874Z</time></trkpt><trkpt lat="44.25492154699844" lon="10.934660981311136"><ele>782.0</ele><time>2026-04-28T09:07:34.874Z</time></trkpt><trkpt lat="44.254909191208455" lon="10.934474742919948"><ele>783.0</ele><time>2026-04-28T09:07:35.874Z</time></trkpt><trkpt lat="44.25489459531787" lon="10.934305278364917"><ele>783.25</ele><time>2026-04-28T09:07:36.874Z</time></trkpt><trkpt lat="44.25486814983809" lon="10.934147280594233"><ele>783.5</ele><time>2026-04-28T09:07:37.874Z</time></trkpt><trkpt lat="44.2548258076672" lon="10.933995289861294"><ele>783.75</ele><time>2026-04-28T09:07:38.874Z</time></trkpt><trkpt lat="44.25477627320949" lon="10.933847400939916"><ele>784.0</ele><time>2026-04-28T09:07:39.874Z</time></trkpt><trkpt lat="44.25472223460163" lon="10.933699372169272"><ele>787.0</ele><time>2026-04-28T09:07:40.874Z</time></trkpt><trkpt lat="44.254669743936944" lon="10.93357035342358"><ele>790.0</ele><time>2026-04-28T09:07:41.874Z</time></trkpt><trkpt lat="44.25461851013783" lon="10.933439646016717"><ele>793.0</ele><time>2026-04-28T09:07:42.874Z</time></trkpt><trkpt lat="44.254569564249884" lon="10.933303706060306"><ele>796.0</ele><time>2026-04-28T09:07:43.874Z</time></trkpt><trkpt lat="44.25452793203472" lon="10.93316496401979"><ele>799.0</ele><time>2026-04-28T09:07:44.874Z</time></trkpt><trkpt lat="44.25447469488133" lon="10.933020013219394"><ele>799.0</ele><time>2026-04-28T09:07:45.874Z</time></trkpt><trkpt lat="44.2544251458274" lon="10.932872691990376"><ele>799.0</ele><time>2026-04-28T09:07:46.874Z</time></trkpt><trkpt lat="44.25436836022054" lon="10.93274371971812"><ele>799.0</ele><time>2026-04-28T09:07:47.874Z</time></trkpt><trkpt lat="44.254299817416026" lon="10.932623674320912"><ele>799.0</ele><time>2026-04-28T09:07:48.874Z</time></trkpt><trkpt lat="44.25422003263833" lon="10.932495304022893"><ele>795.0</ele><time>2026-04-28T09:07:49.874Z</time></trkpt><trkpt lat="44.25414240167127" lon="10.93236985971773"><ele>791.0</ele><time>2026-04-28T09:07:50.874Z</time></trkpt><trkpt lat="44.254067911235815" lon="10.932238622339273"><ele>787.0</ele><time>2026-04-28T09:07:51.874Z</time></trkpt><trkpt lat="44.25400613832934" lon="10.932104654420426"><ele>783.0</ele><time>2026-04-28T09:07:52.874Z</time></trkpt><trkpt lat="44.25396122058436" lon="10.931953720837548"><ele>782.5999999999999</ele><time>2026-04-28T09:07:53.874Z</time></trkpt><trkpt lat="44.253936393660055" lon="10.931803457714704"><ele>782.1999999999999</ele><time>2026-04-28T09:07:54.874Z</time></trkpt><trkpt lat="44.25391410453525" lon="10.931657863106537"><ele>781.8</ele><time>2026-04-28T09:07:55.874Z</time></trkpt><trkpt lat="44.253881003437755" lon="10.931519496114493"><ele>781.4</ele><time>2026-04-28T09:07:56.874Z</time></trkpt><trkpt lat="44.2538369375869" lon="10.931392814013353"><ele>781.0</ele><time>2026-04-28T09:07:57.872Z</time></trkpt><trkpt lat="44.25378212783704" lon="10.931273853694755"><ele>780.9999999999999</ele><time>2026-04-28T09:07:58.872Z</time></trkpt><trkpt lat="44.25372347516722" lon="10.931167388996835"><ele>781.0</ele><time>2026-04-28T09:07:59.872Z</time></trkpt><trkpt lat="44.253675946403625" lon="10.931070909465413"><ele>781.0</ele><time>2026-04-28T09:08:00.872Z</time></trkpt><trkpt lat="44.253621614194806" lon="10.930983044325256"><ele>781.0</ele><time>2026-04-28T09:08:01.872Z</time></trkpt><trkpt lat="44.253562067360164" lon="10.930894170730475"><ele>780.9999999999999</ele><time>2026-04-28T09:08:02.872Z</time></trkpt><trkpt lat="44.25351283809141" lon="10.930824031704914"><ele>781.0</ele><time>2026-04-28T09:08:03.872Z</time></trkpt><trkpt lat="44.2534605568315" lon="10.930739562658575"><ele>779.4999999999999</ele><time>2026-04-28T09:08:04.872Z</time></trkpt><trkpt lat="44.25338851176754" lon="10.930679709729974"><ele>778.0</ele><time>2026-04-28T09:08:05.872Z</time></trkpt><trkpt lat="44.25329661785092" lon="10.930640955291251"><ele>776.5</ele><time>2026-04-28T09:08:06.872Z</time></trkpt><trkpt lat="44.253212816602506" lon="10.930641198056996"><ele>775.0</ele><time>2026-04-28T09:08:07.872Z</time></trkpt><trkpt lat="44.2531366311599" lon="10.93067225352749"><ele>773.4999999999999</ele><time>2026-04-28T09:08:08.872Z</time></trkpt><trkpt lat="44.25306115985584" lon="10.930731530904522"><ele>772.0</ele><time>2026-04-28T09:08:09.872Z</time></trkpt><trkpt lat="44.253004567326435" lon="10.930816208941964"><ele>771.8</ele><time>2026-04-28T09:08:10.872Z</time></trkpt><trkpt lat="44.25294742027473" lon="10.930942553165092"><ele>771.6</ele><time>2026-04-28T09:08:11.872Z</time></trkpt><trkpt lat="44.25290082034143" lon="10.931048779150311"><ele>771.4</ele><time>2026-04-28T09:08:12.872Z</time></trkpt><trkpt lat="44.252831242300566" lon="10.931138169081578"><ele>771.1999999999999</ele><time>2026-04-28T09:08:13.872Z</time></trkpt><trkpt lat="44.25275367742635" lon="10.931223452636756"><ele>771.0</ele><time>2026-04-28T09:08:14.872Z</time></trkpt><trkpt lat="44.252662387625136" lon="10.931305881635428"><ele>771.0</ele><time>2026-04-28T09:08:15.872Z</time></trkpt><trkpt lat="44.252558923924475" lon="10.931371259543475"><ele>771.0</ele><time>2026-04-28T09:08:16.872Z</time></trkpt><trkpt lat="44.25247024576615" lon="10.931461159244188"><ele>771.0</ele><time>2026-04-28T09:08:17.872Z</time></trkpt><trkpt lat="44.25236849224803" lon="10.93152127100045"><ele>771.0</ele><time>2026-04-28T09:08:18.872Z</time></trkpt><trkpt lat="44.25226595563644" lon="10.931581748301074"><ele>771.0</ele><time>2026-04-28T09:08:19.872Z</time></trkpt><trkpt lat="44.252154022553725" lon="10.931617582297049"><ele>768.5</ele><time>2026-04-28T09:08:20.872Z</time></trkpt><trkpt lat="44.25203942388664" lon="10.931645078951178"><ele>766.0</ele><time>2026-04-28T09:08:21.872Z</time></trkpt><trkpt lat="44.251912053352626" lon="10.931658350492883"><ele>763.5</ele><time>2026-04-28T09:08:22.872Z</time></trkpt><trkpt lat="44.251779571073996" lon="10.931658087756922"><ele>761.0</ele><time>2026-04-28T09:08:23.872Z</time></trkpt><trkpt lat="44.2516403788173" lon="10.931626796139831"><ele>761.0</ele><time>2026-04-28T09:08:24.872Z</time></trkpt><trkpt lat="44.251493154007576" lon="10.931579005333132"><ele>761.0</ele><time>2026-04-28T09:08:25.872Z</time></trkpt><trkpt lat="44.25135013477412" lon="10.931507765767337"><ele>761.0</ele><time>2026-04-28T09:08:26.872Z</time></trkpt><trkpt lat="44.251211894096194" lon="10.93144488469969"><ele>761.0</ele><time>2026-04-28T09:08:27.872Z</time></trkpt><trkpt lat="44.25108271810282" lon="10.931377195162009"><ele>761.0</ele><time>2026-04-28T09:08:28.872Z</time></trkpt><trkpt lat="44.25094932339253" lon="10.931316729828296"><ele>761.0</ele><time>2026-04-28T09:08:29.872Z</time></trkpt><trkpt lat="44.25081864824574" lon="10.931255891739221"><ele>761.0</ele><time>2026-04-28T09:08:30.872Z</time></trkpt><trkpt lat="44.25069021824121" lon="10.931202699863451"><ele>761.0</ele><time>2026-04-28T09:08:31.872Z</time></trkpt><trkpt lat="44.250562646341045" lon="10.931174685780833"><ele>760.25</ele><time>2026-04-28T09:08:32.872Z</time></trkpt><trkpt lat="44.250434978146906" lon="10.931179511342702"><ele>759.5</ele><time>2026-04-28T09:08:33.872Z</time></trkpt><trkpt lat="44.25030675094166" lon="10.931211197138891"><ele>758.75</ele><time>2026-04-28T09:08:34.872Z</time></trkpt><trkpt lat="44.250167398296284" lon="10.931240943095556"><ele>758.0</ele><time>2026-04-28T09:08:35.872Z</time></trkpt><trkpt lat="44.25002071065692" lon="10.931239032987417"><ele>758.0</ele><time>2026-04-28T09:08:36.872Z</time></trkpt><trkpt lat="44.24987333030271" lon="10.931213772642407"><ele>758.0</ele><time>2026-04-28T09:08:37.872Z</time></trkpt><trkpt lat="44.24973463659911" lon="10.931165484667487"><ele>758.0</ele><time>2026-04-28T09:08:38.872Z</time></trkpt><trkpt lat="44.24959736218628" lon="10.93109347262609"><ele>758.0</ele><time>2026-04-28T09:08:39.872Z</time></trkpt><trkpt lat="44.24945832279081" lon="10.93102691717641"><ele>757.0</ele><time>2026-04-28T09:08:40.872Z</time></trkpt><trkpt lat="44.24931146444622" lon="10.930964109804714"><ele>756.0</ele><time>2026-04-28T09:08:41.872Z</time></trkpt><trkpt lat="44.24916304418031" lon="10.930928945438586"><ele>755.0</ele><time>2026-04-28T09:08:42.872Z</time></trkpt><trkpt lat="44.24901663467078" lon="10.930896604726211"><ele>751.5</ele><time>2026-04-28T09:08:43.872Z</time></trkpt><trkpt lat="44.24887405491689" lon="10.930864716305225"><ele>748.0</ele><time>2026-04-28T09:08:44.872Z</time></trkpt><trkpt lat="44.24873315210144" lon="10.930838611441528"><ele>744.5</ele><time>2026-04-28T09:08:45.872Z</time></trkpt><trkpt lat="44.248588102177386" lon="10.930810755295846"><ele>741.0</ele><time>2026-04-28T09:08:46.872Z</time></trkpt><trkpt lat="44.24845137694714" lon="10.930782976753179"><ele>741.0</ele><time>2026-04-28T09:08:47.872Z</time></trkpt><trkpt lat="44.24830834364059" lon="10.93074849598105"><ele>741.0</ele><time>2026-04-28T09:08:48.872Z</time></trkpt><trkpt lat="44.24816572222743" lon="10.930719966264741"><ele>741.0</ele><time>2026-04-28T09:08:49.872Z</time></trkpt><trkpt lat="44.248023544875174" lon="10.930695958912123"><ele>741.0</ele><time>2026-04-28T09:08:50.872Z</time></trkpt><trkpt lat="44.24788386916689" lon="10.930667241838245"><ele>741.25</ele><time>2026-04-28T09:08:51.872Z</time></trkpt><trkpt lat="44.247750035562916" lon="10.930634383579463"><ele>741.5</ele><time>2026-04-28T09:08:52.872Z</time></trkpt><trkpt lat="44.24761371813042" lon="10.93060228428403"><ele>741.75</ele><time>2026-04-28T09:08:53.872Z</time></trkpt><trkpt lat="44.24748796088915" lon="10.930531823121646"><ele>742.0</ele><time>2026-04-28T09:08:54.872Z</time></trkpt><trkpt lat="44.24737959987618" lon="10.930443158086717"><ele>742.0</ele><time>2026-04-28T09:08:55.872Z</time></trkpt><trkpt lat="44.24727819231368" lon="10.930317822718054"><ele>742.0</ele><time>2026-04-28T09:08:56.872Z</time></trkpt><trkpt lat="44.24719960663625" lon="10.93017620738917"><ele>742.0</ele><time>2026-04-28T09:08:57.872Z</time></trkpt><trkpt lat="44.24711369278862" lon="10.929997680034395"><ele>742.0</ele><time>2026-04-28T09:08:58.872Z</time></trkpt><trkpt lat="44.2470833932545" lon="10.929818075205565"><ele>742.0</ele><time>2026-04-28T09:08:59.872Z</time></trkpt><trkpt lat="44.24706592252681" lon="10.9296345281648"><ele>742.0</ele><time>2026-04-28T09:09:00.872Z</time></trkpt><trkpt lat="44.24704478712972" lon="10.929492108568402"><ele>742.0</ele><time>2026-04-28T09:09:01.872Z</time></trkpt><trkpt lat="44.247005640465716" lon="10.92935242690295"><ele>742.0</ele><time>2026-04-28T09:09:02.872Z</time></trkpt><trkpt lat="44.24693112858667" lon="10.929236615824243"><ele>735.6666666666667</ele><time>2026-04-28T09:09:03.872Z</time></trkpt><trkpt lat="44.2468096126649" lon="10.929150984008023"><ele>729.3333333333334</ele><time>2026-04-28T09:09:04.872Z</time></trkpt><trkpt lat="44.24665754416848" lon="10.92908971920432"><ele>723.0</ele><time>2026-04-28T09:09:05.872Z</time></trkpt><trkpt lat="44.24649234781327" lon="10.929015344565293"><ele>730.0</ele><time>2026-04-28T09:09:06.872Z</time></trkpt><trkpt lat="44.24632369106617" lon="10.928927243042848"><ele>737.0</ele><time>2026-04-28T09:09:07.872Z</time></trkpt><trkpt lat="44.246157089338105" lon="10.92880581620189"><ele>744.0</ele><time>2026-04-28T09:09:08.872Z</time></trkpt><trkpt lat="44.24599216499632" lon="10.928698045163891"><ele>744.0</ele><time>2026-04-28T09:09:09.872Z</time></trkpt><trkpt lat="44.245847962402" lon="10.928574052296767"><ele>744.0</ele><time>2026-04-28T09:09:10.872Z</time></trkpt><trkpt lat="44.24570684231665" lon="10.928451210793842"><ele>744.0</ele><time>2026-04-28T09:09:11.872Z</time></trkpt><trkpt lat="44.245567771676136" lon="10.928344276450675"><ele>745.3333333333334</ele><time>2026-04-28T09:09:12.872Z</time></trkpt><trkpt lat="44.24544227514272" lon="10.928246444482117"><ele>746.6666666666667</ele><time>2026-04-28T09:09:13.872Z</time></trkpt><trkpt lat="44.245318657667625" lon="10.92811422517387"><ele>748.0</ele><time>2026-04-28T09:09:14.872Z</time></trkpt><trkpt lat="44.24520818610509" lon="10.92797128463588"><ele>748.0</ele><time>2026-04-28T09:09:15.872Z</time></trkpt><trkpt lat="44.24510528790053" lon="10.927792297190074"><ele>748.0</ele><time>2026-04-28T09:09:16.872Z</time></trkpt><trkpt lat="44.24501212529132" lon="10.927594946148506"><ele>748.0</ele><time>2026-04-28T09:09:17.872Z</time></trkpt><trkpt lat="44.24493347022485" lon="10.927399628566983"><ele>742.5</ele><time>2026-04-28T09:09:18.872Z</time></trkpt><trkpt lat="44.24485416790659" lon="10.927223488081667"><ele>737.0</ele><time>2026-04-28T09:09:19.872Z</time></trkpt><trkpt lat="44.244779460774815" lon="10.927067287490397"><ele>731.5</ele><time>2026-04-28T09:09:20.872Z</time></trkpt><trkpt lat="44.24470333502123" lon="10.926918093177553"><ele>726.0</ele><time>2026-04-28T09:09:21.872Z</time></trkpt><trkpt lat="44.24462734948598" lon="10.926787595487102"><ele>729.0</ele><time>2026-04-28T09:09:22.872Z</time></trkpt><trkpt lat="44.24452540497529" lon="10.926687477710702"><ele>732.0</ele><time>2026-04-28T09:09:23.872Z</time></trkpt><trkpt lat="44.244395735376614" lon="10.926641552197262"><ele>735.0</ele><time>2026-04-28T09:09:24.872Z</time></trkpt><trkpt lat="44.244253707905514" lon="10.926586661223961"><ele>738.0</ele><time>2026-04-28T09:09:25.872Z</time></trkpt><trkpt lat="44.24412526905843" lon="10.926549212273498"><ele>738.0</ele><time>2026-04-28T09:09:26.872Z</time></trkpt><trkpt lat="44.243980029133475" lon="10.926490281766384"><ele>738.0</ele><time>2026-04-28T09:09:27.872Z</time></trkpt><trkpt lat="44.24386032476048" lon="10.926428594271995"><ele>738.0</ele><time>2026-04-28T09:09:28.872Z</time></trkpt><trkpt lat="44.243752450768774" lon="10.926292282249067"><ele>738.0</ele><time>2026-04-28T09:09:29.872Z</time></trkpt><trkpt lat="44.24364898492474" lon="10.926155863926242"><ele>743.75</ele><time>2026-04-28T09:09:30.872Z</time></trkpt><trkpt lat="44.24353401951263" lon="10.926071797443534"><ele>749.5</ele><time>2026-04-28T09:09:31.872Z</time></trkpt><trkpt lat="44.24339851881576" lon="10.926030008404085"><ele>755.25</ele><time>2026-04-28T09:09:32.872Z</time></trkpt><trkpt lat="44.24326576593304" lon="10.926005563432112"><ele>761.0</ele><time>2026-04-28T09:09:33.872Z</time></trkpt><trkpt lat="44.2431237946295" lon="10.925968673426217"><ele>755.6666666666666</ele><time>2026-04-28T09:09:34.872Z</time></trkpt><trkpt lat="44.24297239141091" lon="10.925912853249702"><ele>750.3333333333334</ele><time>2026-04-28T09:09:35.872Z</time></trkpt><trkpt lat="44.24283469959426" lon="10.92583234382366"><ele>745.0</ele><time>2026-04-28T09:09:36.872Z</time></trkpt><trkpt lat="44.242702941137715" lon="10.925709848852021"><ele>745.0</ele><time>2026-04-28T09:09:37.872Z</time></trkpt><trkpt lat="44.2425898030623" lon="10.925562796931708"><ele>745.0</ele><time>2026-04-28T09:09:38.872Z</time></trkpt><trkpt lat="44.242497298229424" lon="10.925413434912365"><ele>745.0</ele><time>2026-04-28T09:09:39.872Z</time></trkpt><trkpt lat="44.24241386519907" lon="10.925269897366364"><ele>745.0</ele><time>2026-04-28T09:09:40.872Z</time></trkpt><trkpt lat="44.24231835233828" lon="10.925134649100649"><ele>745.5</ele><time>2026-04-28T09:09:41.872Z</time></trkpt><trkpt lat="44.2422032939296" lon="10.925029710272952"><ele>746.0</ele><time>2026-04-28T09:09:42.872Z</time></trkpt><trkpt lat="44.242074500400655" lon="10.924928756153255"><ele>746.5</ele><time>2026-04-28T09:09:43.872Z</time></trkpt><trkpt lat="44.24193048688695" lon="10.92483484378288"><ele>747.0</ele><time>2026-04-28T09:09:44.872Z</time></trkpt><trkpt lat="44.241776383645885" lon="10.924757949234447"><ele>747.0</ele><time>2026-04-28T09:09:45.872Z</time></trkpt><trkpt lat="44.24162889794685" lon="10.924681038940221"><ele>747.0</ele><time>2026-04-28T09:09:46.872Z</time></trkpt><trkpt lat="44.24148471745423" lon="10.924627902007893"><ele>747.0</ele><time>2026-04-28T09:09:47.871Z</time></trkpt><trkpt lat="44.241351984318065" lon="10.924583682948981"><ele>747.0</ele><time>2026-04-28T09:09:48.871Z</time></trkpt><trkpt lat="44.24122736797998" lon="10.9245462382218"><ele>748.25</ele><time>2026-04-28T09:09:49.871Z</time></trkpt><trkpt lat="44.24110911813372" lon="10.924534323338827"><ele>749.5</ele><time>2026-04-28T09:09:50.871Z</time></trkpt><trkpt lat="44.24099919730089" lon="10.924542465033902"><ele>750.75</ele><time>2026-04-28T09:09:51.871Z</time></trkpt><trkpt lat="44.24088879632567" lon="10.924575666276041"><ele>752.0</ele><time>2026-04-28T09:09:52.871Z</time></trkpt><trkpt lat="44.24078589559964" lon="10.92465438354632"><ele>752.0</ele><time>2026-04-28T09:09:53.871Z</time></trkpt><trkpt lat="44.240702061197425" lon="10.92477117062782"><ele>752.0</ele><time>2026-04-28T09:09:54.871Z</time></trkpt><trkpt lat="44.24062149550177" lon="10.924913994207143"><ele>752.0</ele><time>2026-04-28T09:09:55.871Z</time></trkpt><trkpt lat="44.24053472706239" lon="10.92505456211964"><ele>752.0</ele><time>2026-04-28T09:09:56.871Z</time></trkpt><trkpt lat="44.240438567982075" lon="10.925185322163726"><ele>754.25</ele><time>2026-04-28T09:09:57.871Z</time></trkpt><trkpt lat="44.240339488995815" lon="10.925307956386392"><ele>756.5</ele><time>2026-04-28T09:09:58.871Z</time></trkpt><trkpt lat="44.240242260316904" lon="10.925411871968858"><ele>758.75</ele><time>2026-04-28T09:09:59.871Z</time></trkpt><trkpt lat="44.24013133208672" lon="10.925527638726665"><ele>761.0</ele><time>2026-04-28T09:10:00.871Z</time></trkpt><trkpt lat="44.240025409156374" lon="10.925647701002188"><ele>761.0</ele><time>2026-04-28T09:10:01.871Z</time></trkpt><trkpt lat="44.23992734398711" lon="10.92574853333564"><ele>761.0</ele><time>2026-04-28T09:10:02.871Z</time></trkpt><trkpt lat="44.23981020922328" lon="10.92581663672437"><ele>761.0</ele><time>2026-04-28T09:10:03.871Z</time></trkpt><trkpt lat="44.23967506558001" lon="10.925831482403181"><ele>761.0</ele><time>2026-04-28T09:10:04.87Z</time></trkpt><trkpt lat="44.23953284724658" lon="10.92580369495725"><ele>762.25</ele><time>2026-04-28T09:10:05.87Z</time></trkpt><trkpt lat="44.23939183698509" lon="10.925744901312491"><ele>763.5</ele><time>2026-04-28T09:10:06.871Z</time></trkpt><trkpt lat="44.239255483930194" lon="10.925687990462086"><ele>764.75</ele><time>2026-04-28T09:10:07.87Z</time></trkpt><trkpt lat="44.2391222285253" lon="10.925614359695984"><ele>766.0</ele><time>2026-04-28T09:10:08.87Z</time></trkpt><trkpt lat="44.23899570614688" lon="10.925536180984075"><ele>768.25</ele><time>2026-04-28T09:10:09.87Z</time></trkpt><trkpt lat="44.23886573226651" lon="10.925481217957703"><ele>770.5</ele><time>2026-04-28T09:10:10.87Z</time></trkpt><trkpt lat="44.238724518340256" lon="10.925463199585085"><ele>772.75</ele><time>2026-04-28T09:10:11.87Z</time></trkpt><trkpt lat="44.23856953489114" lon="10.925470712883282"><ele>775.0</ele><time>2026-04-28T09:10:12.87Z</time></trkpt><trkpt lat="44.23841245705368" lon="10.92550553217349"><ele>775.0</ele><time>2026-04-28T09:10:13.87Z</time></trkpt><trkpt lat="44.238266281320705" lon="10.92555417325771"><ele>775.0</ele><time>2026-04-28T09:10:14.87Z</time></trkpt><trkpt lat="44.2381127602647" lon="10.925601476835643"><ele>775.0</ele><time>2026-04-28T09:10:15.87Z</time></trkpt><trkpt lat="44.237965274201166" lon="10.925631002146933"><ele>780.0</ele><time>2026-04-28T09:10:16.87Z</time></trkpt><trkpt lat="44.23783118766105" lon="10.92560579507396"><ele>785.0</ele><time>2026-04-28T09:10:17.87Z</time></trkpt><trkpt lat="44.23770154849619" lon="10.925537895981828"><ele>790.0</ele><time>2026-04-28T09:10:18.87Z</time></trkpt><trkpt lat="44.23758210287665" lon="10.92542662353616"><ele>795.0</ele><time>2026-04-28T09:10:19.87Z</time></trkpt><trkpt lat="44.23747007291749" lon="10.925293890102113"><ele>795.0</ele><time>2026-04-28T09:10:20.87Z</time></trkpt><trkpt lat="44.23735816983042" lon="10.925142689093684"><ele>795.0</ele><time>2026-04-28T09:10:21.87Z</time></trkpt><trkpt lat="44.2372521771252" lon="10.925017200445529"><ele>795.0</ele><time>2026-04-28T09:10:22.87Z</time></trkpt><trkpt lat="44.23715379916977" lon="10.924902320143204"><ele>795.0</ele><time>2026-04-28T09:10:23.87Z</time></trkpt><trkpt lat="44.23706752411689" lon="10.924775079354445"><ele>794.0</ele><time>2026-04-28T09:10:24.87Z</time></trkpt><trkpt lat="44.237003024519375" lon="10.924666459650792"><ele>793.0</ele><time>2026-04-28T09:10:25.87Z</time></trkpt><trkpt lat="44.23690745909622" lon="10.924567598980937"><ele>792.0</ele><time>2026-04-28T09:10:26.87Z</time></trkpt><trkpt lat="44.23680795176479" lon="10.924486497422558"><ele>791.0</ele><time>2026-04-28T09:10:27.87Z</time></trkpt><trkpt lat="44.236703508643906" lon="10.924484761039606"><ele>790.0</ele><time>2026-04-28T09:10:28.87Z</time></trkpt><trkpt lat="44.23659863859048" lon="10.924535548450086"><ele>790.0</ele><time>2026-04-28T09:10:29.87Z</time></trkpt><trkpt lat="44.2364920977987" lon="10.924625427648184"><ele>790.0</ele><time>2026-04-28T09:10:30.87Z</time></trkpt><trkpt lat="44.23639494842272" lon="10.924733351022528"><ele>790.0</ele><time>2026-04-28T09:10:31.87Z</time></trkpt><trkpt lat="44.23629627241915" lon="10.924832162528723"><ele>790.0</ele><time>2026-04-28T09:10:32.87Z</time></trkpt><trkpt lat="44.23618222457802" lon="10.924905205936666"><ele>787.5</ele><time>2026-04-28T09:10:33.87Z</time></trkpt><trkpt lat="44.23606790358428" lon="10.92505258828463"><ele>785.0</ele><time>2026-04-28T09:10:34.869Z</time></trkpt><trkpt lat="44.23594430571687" lon="10.925127686978326"><ele>782.5</ele><time>2026-04-28T09:10:35.869Z</time></trkpt><trkpt lat="44.23582842660986" lon="10.925225196445902"><ele>780.0</ele><time>2026-04-28T09:10:36.869Z</time></trkpt><trkpt lat="44.235721684905904" lon="10.925303747219582"><ele>783.25</ele><time>2026-04-28T09:10:37.869Z</time></trkpt><trkpt lat="44.23560856124596" lon="10.925345491659487"><ele>786.5</ele><time>2026-04-28T09:10:38.869Z</time></trkpt><trkpt lat="44.235513852063264" lon="10.925448099770348"><ele>789.75</ele><time>2026-04-28T09:10:39.869Z</time></trkpt><trkpt lat="44.235421350469856" lon="10.925555177789995"><ele>793.0</ele><time>2026-04-28T09:10:40.869Z</time></trkpt><trkpt lat="44.235337883570395" lon="10.92565030403717"><ele>793.0</ele><time>2026-04-28T09:10:41.869Z</time></trkpt><trkpt lat="44.235235588552534" lon="10.925686378157792"><ele>793.0</ele><time>2026-04-28T09:10:42.869Z</time></trkpt><trkpt lat="44.23511643719418" lon="10.925687825938288"><ele>793.0</ele><time>2026-04-28T09:10:43.869Z</time></trkpt><trkpt lat="44.23498618365522" lon="10.92565907348209"><ele>793.0</ele><time>2026-04-28T09:10:44.869Z</time></trkpt><trkpt lat="44.234860609131445" lon="10.925602071033335"><ele>794.75</ele><time>2026-04-28T09:10:45.869Z</time></trkpt><trkpt lat="44.23473668784331" lon="10.925527014179293"><ele>796.5</ele><time>2026-04-28T09:10:46.869Z</time></trkpt><trkpt lat="44.23460451946273" lon="10.925457821789234"><ele>798.25</ele><time>2026-04-28T09:10:47.869Z</time></trkpt><trkpt lat="44.23447461411688" lon="10.925388359126476"><ele>800.0</ele><time>2026-04-28T09:10:48.869Z</time></trkpt><trkpt lat="44.234357719101745" lon="10.925356330740819"><ele>800.0</ele><time>2026-04-28T09:10:49.869Z</time></trkpt><trkpt lat="44.234219679257315" lon="10.92532166181527"><ele>800.0</ele><time>2026-04-28T09:10:50.869Z</time></trkpt><trkpt lat="44.23407846223359" lon="10.9253118928603"><ele>800.0</ele><time>2026-04-28T09:10:51.869Z</time></trkpt><trkpt lat="44.23393537160552" lon="10.925322663189936"><ele>800.0</ele><time>2026-04-28T09:10:52.869Z</time></trkpt><trkpt lat="44.23379009226892" lon="10.925344115224995"><ele>797.5</ele><time>2026-04-28T09:10:53.869Z</time></trkpt><trkpt lat="44.23365281421949" lon="10.925361854752422"><ele>795.0</ele><time>2026-04-28T09:10:54.869Z</time></trkpt><trkpt lat="44.233530419776926" lon="10.925412501426605"><ele>792.5</ele><time>2026-04-28T09:10:55.869Z</time></trkpt><trkpt lat="44.23341166226931" lon="10.925519855594878"><ele>790.0</ele><time>2026-04-28T09:10:56.869Z</time></trkpt><trkpt lat="44.233299575925265" lon="10.925663010711018"><ele>790.0</ele><time>2026-04-28T09:10:57.869Z</time></trkpt><trkpt lat="44.23319147792406" lon="10.925797902185293"><ele>790.0</ele><time>2026-04-28T09:10:58.869Z</time></trkpt><trkpt lat="44.2330939742336" lon="10.925956272065752"><ele>790.0</ele><time>2026-04-28T09:10:59.869Z</time></trkpt><trkpt lat="44.23300180124343" lon="10.926107628897773"><ele>790.0</ele><time>2026-04-28T09:11:00.869Z</time></trkpt><trkpt lat="44.232911341888894" lon="10.926249479465636"><ele>791.0</ele><time>2026-04-28T09:11:01.869Z</time></trkpt><trkpt lat="44.23281540150982" lon="10.926377031066902"><ele>792.0</ele><time>2026-04-28T09:11:02.869Z</time></trkpt><trkpt lat="44.232705893653296" lon="10.926475090492817"><ele>793.0</ele><time>2026-04-28T09:11:03.869Z</time></trkpt><trkpt lat="44.23257925461306" lon="10.926541505881794"><ele>794.0</ele><time>2026-04-28T09:11:04.869Z</time></trkpt><trkpt lat="44.232438967471204" lon="10.926553273291463"><ele>795.6666666666667</ele><time>2026-04-28T09:11:05.869Z</time></trkpt><trkpt lat="44.23230148134057" lon="10.926526655931582"><ele>797.3333333333333</ele><time>2026-04-28T09:11:06.869Z</time></trkpt><trkpt lat="44.23213400240838" lon="10.92647882421246"><ele>799.0</ele><time>2026-04-28T09:11:07.869Z</time></trkpt><trkpt lat="44.23196779386609" lon="10.926434573865228"><ele>799.0</ele><time>2026-04-28T09:11:08.869Z</time></trkpt><trkpt lat="44.2318012943672" lon="10.926413471073444"><ele>799.0</ele><time>2026-04-28T09:11:09.869Z</time></trkpt><trkpt lat="44.231642946862976" lon="10.926395691451367"><ele>799.0</ele><time>2026-04-28T09:11:10.869Z</time></trkpt><trkpt lat="44.23149213948897" lon="10.926352719847305"><ele>802.0</ele><time>2026-04-28T09:11:11.869Z</time></trkpt><trkpt lat="44.23134987683502" lon="10.926277181925565"><ele>805.0</ele><time>2026-04-28T09:11:12.869Z</time></trkpt><trkpt lat="44.23120956660759" lon="10.926172469016322"><ele>808.0</ele><time>2026-04-28T09:11:13.869Z</time></trkpt><trkpt lat="44.2310661135816" lon="10.926058157127216"><ele>808.0</ele><time>2026-04-28T09:11:14.869Z</time></trkpt><trkpt lat="44.230903733313035" lon="10.925944811307083"><ele>808.0</ele><time>2026-04-28T09:11:15.869Z</time></trkpt><trkpt lat="44.23075033339663" lon="10.925832959760761"><ele>808.0</ele><time>2026-04-28T09:11:16.869Z</time></trkpt><trkpt lat="44.23060597969064" lon="10.925718045918291"><ele>808.5</ele><time>2026-04-28T09:11:17.869Z</time></trkpt><trkpt lat="44.2304660322021" lon="10.925602964275793"><ele>809.0</ele><time>2026-04-28T09:11:18.869Z</time></trkpt><trkpt lat="44.2303345953868" lon="10.925507040620568"><ele>809.5</ele><time>2026-04-28T09:11:19.869Z</time></trkpt><trkpt lat="44.23021405131054" lon="10.92542576133463"><ele>810.0</ele><time>2026-04-28T09:11:20.869Z</time></trkpt><trkpt lat="44.230101070231996" lon="10.925354904860134"><ele>810.0</ele><time>2026-04-28T09:11:21.869Z</time></trkpt><trkpt lat="44.2299893833427" lon="10.925297091369844"><ele>810.0</ele><time>2026-04-28T09:11:22.869Z</time></trkpt><trkpt lat="44.2298765088707" lon="10.925256360639223"><ele>810.0</ele><time>2026-04-28T09:11:23.869Z</time></trkpt><trkpt lat="44.22975806990295" lon="10.92523056136335"><ele>810.0</ele><time>2026-04-28T09:11:24.869Z</time></trkpt><trkpt lat="44.22963666559028" lon="10.925199842570679"><ele>812.75</ele><time>2026-04-28T09:11:25.869Z</time></trkpt><trkpt lat="44.229516952494855" lon="10.925168447262157"><ele>815.5</ele><time>2026-04-28T09:11:26.869Z</time></trkpt><trkpt lat="44.22940253188756" lon="10.925141775776416"><ele>818.25</ele><time>2026-04-28T09:11:27.869Z</time></trkpt><trkpt lat="44.22929103182117" lon="10.925123765953549"><ele>821.0</ele><time>2026-04-28T09:11:28.869Z</time></trkpt><trkpt lat="44.229185407005566" lon="10.925097689127988"><ele>821.0</ele><time>2026-04-28T09:11:29.869Z</time></trkpt><trkpt lat="44.229084628699674" lon="10.925068072875394"><ele>821.0</ele><time>2026-04-28T09:11:30.869Z</time></trkpt><trkpt lat="44.2289831983118" lon="10.925023394843548"><ele>821.0</ele><time>2026-04-28T09:11:31.869Z</time></trkpt><trkpt lat="44.22888671112339" lon="10.924948027517372"><ele>821.0</ele><time>2026-04-28T09:11:32.869Z</time></trkpt><trkpt lat="44.2288043670907" lon="10.924836230830518"><ele>821.0</ele><time>2026-04-28T09:11:33.869Z</time></trkpt><trkpt lat="44.22876171098133" lon="10.924691673443558"><ele>820.25</ele><time>2026-04-28T09:11:34.869Z</time></trkpt><trkpt lat="44.22874323671836" lon="10.924530911368846"><ele>819.5</ele><time>2026-04-28T09:11:35.869Z</time></trkpt><trkpt lat="44.228729054487424" lon="10.924354241765768"><ele>818.75</ele><time>2026-04-28T09:11:36.869Z</time></trkpt><trkpt lat="44.228712130620785" lon="10.924177857857115"><ele>818.0</ele><time>2026-04-28T09:11:37.869Z</time></trkpt><trkpt lat="44.228659713454896" lon="10.924008141926377"><ele>816.3333333333334</ele><time>2026-04-28T09:11:38.869Z</time></trkpt><trkpt lat="44.228571358634156" lon="10.923849260340132"><ele>814.6666666666667</ele><time>2026-04-28T09:11:39.869Z</time></trkpt><trkpt lat="44.228452599924374" lon="10.923693764461456"><ele>813.0</ele><time>2026-04-28T09:11:40.869Z</time></trkpt><trkpt lat="44.228331530530916" lon="10.923541526379145"><ele>813.0</ele><time>2026-04-28T09:11:41.869Z</time></trkpt><trkpt lat="44.228222428016444" lon="10.923403132512995"><ele>813.0</ele><time>2026-04-28T09:11:42.869Z</time></trkpt><trkpt lat="44.228124406297006" lon="10.923274644197557"><ele>813.0</ele><time>2026-04-28T09:11:43.869Z</time></trkpt><trkpt lat="44.22800760723586" lon="10.923168941838886"><ele>813.0</ele><time>2026-04-28T09:11:44.869Z</time></trkpt><trkpt lat="44.22787933947753" lon="10.923094159429086"><ele>812.75</ele><time>2026-04-28T09:11:45.869Z</time></trkpt><trkpt lat="44.22773081898382" lon="10.923064190554262"><ele>812.5</ele><time>2026-04-28T09:11:46.869Z</time></trkpt><trkpt lat="44.227600074940256" lon="10.923036903289967"><ele>812.25</ele><time>2026-04-28T09:11:47.869Z</time></trkpt><trkpt lat="44.22746810133013" lon="10.922962563340414"><ele>812.0</ele><time>2026-04-28T09:11:48.869Z</time></trkpt><trkpt lat="44.22735086899794" lon="10.922865920635793"><ele>815.3333333333334</ele><time>2026-04-28T09:11:49.869Z</time></trkpt><trkpt lat="44.22726227434712" lon="10.92270287208357"><ele>818.6666666666667</ele><time>2026-04-28T09:11:50.869Z</time></trkpt><trkpt lat="44.227175864957196" lon="10.922504739580381"><ele>822.0</ele><time>2026-04-28T09:11:51.869Z</time></trkpt><trkpt lat="44.22708981699756" lon="10.922297608153988"><ele>822.0</ele><time>2026-04-28T09:11:52.869Z</time></trkpt><trkpt lat="44.227006441403034" lon="10.92210924026849"><ele>822.0</ele><time>2026-04-28T09:11:53.869Z</time></trkpt><trkpt lat="44.2269217796829" lon="10.921925709003212"><ele>822.0</ele><time>2026-04-28T09:11:54.869Z</time></trkpt><trkpt lat="44.22683830127331" lon="10.921767112101955"><ele>821.25</ele><time>2026-04-28T09:11:55.869Z</time></trkpt><trkpt lat="44.22676185545114" lon="10.921615506269104"><ele>820.5</ele><time>2026-04-28T09:11:56.869Z</time></trkpt><trkpt lat="44.22670275519537" lon="10.921475215785014"><ele>819.75</ele><time>2026-04-28T09:11:57.869Z</time></trkpt><trkpt lat="44.22663949151577" lon="10.921328151675867"><ele>819.0</ele><time>2026-04-28T09:11:58.869Z</time></trkpt><trkpt lat="44.226568169634454" lon="10.921179152041587"><ele>819.0</ele><time>2026-04-28T09:11:59.869Z</time></trkpt><trkpt lat="44.226501754942234" lon="10.92102160224874"><ele>819.0</ele><time>2026-04-28T09:12:00.869Z</time></trkpt><trkpt lat="44.226434318672865" lon="10.920871738352533"><ele>819.0</ele><time>2026-04-28T09:12:01.869Z</time></trkpt><trkpt lat="44.22636287066605" lon="10.920723874151484"><ele>819.0</ele><time>2026-04-28T09:12:02.869Z</time></trkpt><trkpt lat="44.22628510528228" lon="10.920586384589663"><ele>821.25</ele><time>2026-04-28T09:12:03.869Z</time></trkpt><trkpt lat="44.22620276588093" lon="10.920455848641193"><ele>823.5</ele><time>2026-04-28T09:12:04.869Z</time></trkpt><trkpt lat="44.22612217230682" lon="10.920354105632052"><ele>825.75</ele><time>2026-04-28T09:12:05.869Z</time></trkpt><trkpt lat="44.2260287180478" lon="10.920246994464978"><ele>828.0</ele><time>2026-04-28T09:12:06.869Z</time></trkpt><trkpt lat="44.225930571712915" lon="10.920184629368201"><ele>828.0</ele><time>2026-04-28T09:12:07.869Z</time></trkpt><trkpt lat="44.225815019937464" lon="10.92014077803661"><ele>828.0</ele><time>2026-04-28T09:12:08.869Z</time></trkpt><trkpt lat="44.22569211409177" lon="10.92011383885422"><ele>828.0</ele><time>2026-04-28T09:12:09.868Z</time></trkpt><trkpt lat="44.22556434371399" lon="10.920087676966089"><ele>828.0</ele><time>2026-04-28T09:12:10.869Z</time></trkpt><trkpt lat="44.225434147609214" lon="10.920046314361684"><ele>828.0</ele><time>2026-04-28T09:12:11.869Z</time></trkpt><trkpt lat="44.22529712340657" lon="10.920006156660836"><ele>828.0</ele><time>2026-04-28T09:12:12.869Z</time></trkpt><trkpt lat="44.22517317708338" lon="10.919958833852776"><ele>828.0</ele><time>2026-04-28T09:12:13.869Z</time></trkpt><trkpt lat="44.22506218280594" lon="10.919904548026643"><ele>828.0</ele><time>2026-04-28T09:12:14.869Z</time></trkpt><trkpt lat="44.224961593415756" lon="10.919816665561168"><ele>828.0</ele><time>2026-04-28T09:12:15.869Z</time></trkpt><trkpt lat="44.22487169254662" lon="10.919687072982182"><ele>828.0</ele><time>2026-04-28T09:12:16.869Z</time></trkpt><trkpt lat="44.22480257845469" lon="10.919526012210472"><ele>828.0</ele><time>2026-04-28T09:12:17.869Z</time></trkpt><trkpt lat="44.22474411514556" lon="10.919350288547397"><ele>828.0</ele><time>2026-04-28T09:12:18.869Z</time></trkpt><trkpt lat="44.22468830289286" lon="10.9192074556639"><ele>829.75</ele><time>2026-04-28T09:12:19.868Z</time></trkpt><trkpt lat="44.22461322701452" lon="10.919070084659163"><ele>831.5</ele><time>2026-04-28T09:12:20.868Z</time></trkpt><trkpt lat="44.22451148013444" lon="10.918960942884397"><ele>833.25</ele><time>2026-04-28T09:12:21.868Z</time></trkpt><trkpt lat="44.224390776671335" lon="10.918892486684662"><ele>835.0</ele><time>2026-04-28T09:12:22.868Z</time></trkpt><trkpt lat="44.2242626276323" lon="10.918825734435528"><ele>835.0</ele><time>2026-04-28T09:12:23.868Z</time></trkpt><trkpt lat="44.22412742031735" lon="10.918789670284351"><ele>835.0</ele><time>2026-04-28T09:12:24.868Z</time></trkpt><trkpt lat="44.22399623307337" lon="10.918760517579393"><ele>835.0</ele><time>2026-04-28T09:12:25.868Z</time></trkpt><trkpt lat="44.223881950064694" lon="10.918735217664194"><ele>835.0</ele><time>2026-04-28T09:12:26.868Z</time></trkpt><trkpt lat="44.22378670254165" lon="10.91865324288915"><ele>836.0</ele><time>2026-04-28T09:12:27.868Z</time></trkpt><trkpt lat="44.22372802591348" lon="10.918539283796543"><ele>837.0</ele><time>2026-04-28T09:12:28.868Z</time></trkpt><trkpt lat="44.22369641512601" lon="10.9183989517294"><ele>838.0</ele><time>2026-04-28T09:12:29.868Z</time></trkpt><trkpt lat="44.22368789483278" lon="10.918228319242253"><ele>839.0</ele><time>2026-04-28T09:12:30.868Z</time></trkpt><trkpt lat="44.22369793818583" lon="10.918047518550532"><ele>839.0</ele><time>2026-04-28T09:12:31.868Z</time></trkpt><trkpt lat="44.22369640011659" lon="10.917856541829016"><ele>839.0</ele><time>2026-04-28T09:12:32.868Z</time></trkpt><trkpt lat="44.22366611584697" lon="10.91767463937252"><ele>839.0</ele><time>2026-04-28T09:12:33.868Z</time></trkpt><trkpt lat="44.22361853912296" lon="10.917507845335312"><ele>839.0</ele><time>2026-04-28T09:12:34.868Z</time></trkpt><trkpt lat="44.22355173086456" lon="10.917344106780387"><ele>837.75</ele><time>2026-04-28T09:12:35.868Z</time></trkpt><trkpt lat="44.22346803936962" lon="10.917199115727467"><ele>836.5</ele><time>2026-04-28T09:12:36.868Z</time></trkpt><trkpt lat="44.223376772833966" lon="10.917070243650658"><ele>835.25</ele><time>2026-04-28T09:12:37.868Z</time></trkpt><trkpt lat="44.22327103651209" lon="10.916955025589623"><ele>834.0</ele><time>2026-04-28T09:12:38.868Z</time></trkpt><trkpt lat="44.22316109820533" lon="10.916860793038644"><ele>834.0</ele><time>2026-04-28T09:12:39.868Z</time></trkpt><trkpt lat="44.22304031598852" lon="10.916790106265212"><ele>834.0</ele><time>2026-04-28T09:12:40.868Z</time></trkpt><trkpt lat="44.22292156295866" lon="10.916741654078146"><ele>834.0</ele><time>2026-04-28T09:12:41.868Z</time></trkpt><trkpt lat="44.22279778245715" lon="10.916717239544475"><ele>834.0</ele><time>2026-04-28T09:12:42.868Z</time></trkpt><trkpt lat="44.22268429166385" lon="10.916675860453502"><ele>834.0</ele><time>2026-04-28T09:12:43.868Z</time></trkpt><trkpt lat="44.2225720079082" lon="10.916649935464347"><ele>834.0</ele><time>2026-04-28T09:12:44.868Z</time></trkpt><trkpt lat="44.22246298656274" lon="10.916608181043157"><ele>834.0</ele><time>2026-04-28T09:12:45.868Z</time></trkpt><trkpt lat="44.22235617185926" lon="10.916564168933697"><ele>834.0</ele><time>2026-04-28T09:12:46.868Z</time></trkpt><trkpt lat="44.2222558496724" lon="10.916498678529093"><ele>834.0</ele><time>2026-04-28T09:12:47.868Z</time></trkpt><trkpt lat="44.22217025596421" lon="10.916403008497326"><ele>837.5</ele><time>2026-04-28T09:12:48.868Z</time></trkpt><trkpt lat="44.22209924458756" lon="10.91627174397469"><ele>841.0</ele><time>2026-04-28T09:12:49.868Z</time></trkpt><trkpt lat="44.22204471465191" lon="10.91610158874248"><ele>844.5</ele><time>2026-04-28T09:12:50.868Z</time></trkpt><trkpt lat="44.22199849892126" lon="10.91591802390412"><ele>848.0</ele><time>2026-04-28T09:12:51.868Z</time></trkpt><trkpt lat="44.221974945657244" lon="10.915731095746278"><ele>848.0</ele><time>2026-04-28T09:12:52.868Z</time></trkpt><trkpt lat="44.22197017798143" lon="10.915522668501007"><ele>848.0</ele><time>2026-04-28T09:12:53.868Z</time></trkpt><trkpt lat="44.22199584478143" lon="10.915313847300657"><ele>848.0</ele><time>2026-04-28T09:12:54.868Z</time></trkpt><trkpt lat="44.22201651066773" lon="10.915125444168247"><ele>848.0</ele><time>2026-04-28T09:12:55.868Z</time></trkpt><trkpt lat="44.222028948900395" lon="10.914946244461792"><ele>848.75</ele><time>2026-04-28T09:12:56.868Z</time></trkpt><trkpt lat="44.222022057884" lon="10.914773292136573"><ele>849.5</ele><time>2026-04-28T09:12:57.868Z</time></trkpt><trkpt lat="44.22198845759987" lon="10.914625083649494"><ele>850.25</ele><time>2026-04-28T09:12:58.868Z</time></trkpt><trkpt lat="44.22193624337767" lon="10.914502383918167"><ele>851.0</ele><time>2026-04-28T09:12:59.868Z</time></trkpt><trkpt lat="44.221847583039214" lon="10.914398939683133"><ele>851.0</ele><time>2026-04-28T09:13:00.868Z</time></trkpt><trkpt lat="44.22173351446373" lon="10.914314539571716"><ele>851.0</ele><time>2026-04-28T09:13:01.868Z</time></trkpt><trkpt lat="44.221599645869276" lon="10.914228484454844"><ele>851.0</ele><time>2026-04-28T09:13:02.868Z</time></trkpt><trkpt lat="44.221469273332126" lon="10.914133835538124"><ele>851.0</ele><time>2026-04-28T09:13:03.868Z</time></trkpt><trkpt lat="44.221361339097065" lon="10.914028409524967"><ele>852.75</ele><time>2026-04-28T09:13:04.868Z</time></trkpt><trkpt lat="44.221272405609795" lon="10.913894519798907"><ele>854.5</ele><time>2026-04-28T09:13:05.868Z</time></trkpt><trkpt lat="44.2212301328538" lon="10.913733496202225"><ele>856.25</ele><time>2026-04-28T09:13:06.868Z</time></trkpt><trkpt lat="44.22120269608757" lon="10.913532040040618"><ele>858.0</ele><time>2026-04-28T09:13:07.868Z</time></trkpt><trkpt lat="44.22120519076198" lon="10.913321482175423"><ele>858.0</ele><time>2026-04-28T09:13:08.868Z</time></trkpt><trkpt lat="44.221221706881295" lon="10.913113643549607"><ele>858.0</ele><time>2026-04-28T09:13:09.868Z</time></trkpt><trkpt lat="44.221240033539736" lon="10.91292183835982"><ele>858.0</ele><time>2026-04-28T09:13:10.868Z</time></trkpt><trkpt lat="44.22125145989541" lon="10.912749564381931"><ele>858.0</ele><time>2026-04-28T09:13:11.868Z</time></trkpt><trkpt lat="44.22123055247994" lon="10.91257141523475"><ele>857.25</ele><time>2026-04-28T09:13:12.868Z</time></trkpt><trkpt lat="44.22118741751169" lon="10.912398990252441"><ele>856.5</ele><time>2026-04-28T09:13:13.868Z</time></trkpt><trkpt lat="44.22111237273183" lon="10.912230123552282"><ele>855.75</ele><time>2026-04-28T09:13:14.868Z</time></trkpt><trkpt lat="44.221023009057674" lon="10.91207120162097"><ele>855.0</ele><time>2026-04-28T09:13:15.868Z</time></trkpt><trkpt lat="44.22096259627739" lon="10.911893013192255"><ele>853.0</ele><time>2026-04-28T09:13:16.868Z</time></trkpt><trkpt lat="44.22093073831828" lon="10.911673578981718"><ele>851.0</ele><time>2026-04-28T09:13:17.868Z</time></trkpt><trkpt lat="44.22093073180358" lon="10.911459521237191"><ele>849.0</ele><time>2026-04-28T09:13:18.868Z</time></trkpt><trkpt lat="44.220928923290934" lon="10.911217069509343"><ele>849.0</ele><time>2026-04-28T09:13:19.868Z</time></trkpt><trkpt lat="44.22093711384108" lon="10.91098548038747"><ele>849.0</ele><time>2026-04-28T09:13:20.868Z</time></trkpt><trkpt lat="44.220955546826055" lon="10.91076469575587"><ele>849.0</ele><time>2026-04-28T09:13:21.868Z</time></trkpt><trkpt lat="44.220953244230465" lon="10.91055732523181"><ele>848.5</ele><time>2026-04-28T09:13:22.868Z</time></trkpt><trkpt lat="44.220948363175246" lon="10.910369496467675"><ele>848.0</ele><time>2026-04-28T09:13:23.868Z</time></trkpt><trkpt lat="44.22092203005931" lon="10.910186124547636"><ele>847.5</ele><time>2026-04-28T09:13:24.868Z</time></trkpt><trkpt lat="44.22088932876877" lon="10.90999977571486"><ele>847.0</ele><time>2026-04-28T09:13:25.868Z</time></trkpt><trkpt lat="44.22085377685415" lon="10.90982348000563"><ele>846.75</ele><time>2026-04-28T09:13:26.868Z</time></trkpt><trkpt lat="44.22082087310856" lon="10.909655278310408"><ele>846.5</ele><time>2026-04-28T09:13:27.868Z</time></trkpt><trkpt lat="44.22079777252281" lon="10.909474414569653"><ele>846.25</ele><time>2026-04-28T09:13:28.868Z</time></trkpt><trkpt lat="44.22076185925854" lon="10.909293239622649"><ele>846.0</ele><time>2026-04-28T09:13:29.868Z</time></trkpt><trkpt lat="44.220734528340586" lon="10.909127111882633"><ele>845.0</ele><time>2026-04-28T09:13:30.868Z</time></trkpt><trkpt lat="44.220701075413274" lon="10.908953419511118"><ele>844.0</ele><time>2026-04-28T09:13:31.868Z</time></trkpt><trkpt lat="44.22066092613736" lon="10.90878877806592"><ele>843.0</ele><time>2026-04-28T09:13:32.868Z</time></trkpt><trkpt lat="44.22062641427154" lon="10.908633220810376"><ele>842.0</ele><time>2026-04-28T09:13:33.868Z</time></trkpt><trkpt lat="44.220628144750265" lon="10.908488561173701"><ele>842.0</ele><time>2026-04-28T09:13:34.868Z</time></trkpt><trkpt lat="44.22065905788249" lon="10.908323569942581"><ele>842.0</ele><time>2026-04-28T09:13:35.868Z</time></trkpt><trkpt lat="44.2207019475761" lon="10.908155255606673"><ele>842.0</ele><time>2026-04-28T09:13:36.868Z</time></trkpt><trkpt lat="44.220741125484" lon="10.908006396682454"><ele>842.0</ele><time>2026-04-28T09:13:37.868Z</time></trkpt><trkpt lat="44.22075639270736" lon="10.907850881030573"><ele>842.0</ele><time>2026-04-28T09:13:38.868Z</time></trkpt><trkpt lat="44.220736568997786" lon="10.907675876405468"><ele>842.0</ele><time>2026-04-28T09:13:39.868Z</time></trkpt><trkpt lat="44.220696405432676" lon="10.907487936589122"><ele>842.0</ele><time>2026-04-28T09:13:40.868Z</time></trkpt><trkpt lat="44.22063747779464" lon="10.907293330275207"><ele>842.0</ele><time>2026-04-28T09:13:41.868Z</time></trkpt><trkpt lat="44.220561871524524" lon="10.907100152294166"><ele>848.6666666666667</ele><time>2026-04-28T09:13:42.868Z</time></trkpt><trkpt lat="44.22048738272904" lon="10.906902478527828"><ele>855.3333333333333</ele><time>2026-04-28T09:13:43.868Z</time></trkpt><trkpt lat="44.220423356619115" lon="10.90669536648075"><ele>862.0</ele><time>2026-04-28T09:13:44.868Z</time></trkpt><trkpt lat="44.22035383273713" lon="10.90649005263528"><ele>862.3333333333333</ele><time>2026-04-28T09:13:45.867Z</time></trkpt><trkpt lat="44.22028392142642" lon="10.906281384667837"><ele>862.6666666666667</ele><time>2026-04-28T09:13:46.867Z</time></trkpt><trkpt lat="44.22022226639259" lon="10.906060852299722"><ele>863.0</ele><time>2026-04-28T09:13:47.867Z</time></trkpt><trkpt lat="44.220175476351685" lon="10.905827692072862"><ele>860.6666666666667</ele><time>2026-04-28T09:13:48.867Z</time></trkpt><trkpt lat="44.22014505110848" lon="10.905593620559438"><ele>858.3333333333333</ele><time>2026-04-28T09:13:49.867Z</time></trkpt><trkpt lat="44.2201270598713" lon="10.90535981008402"><ele>856.0</ele><time>2026-04-28T09:13:50.867Z</time></trkpt><trkpt lat="44.22011681286138" lon="10.905136313562178"><ele>853.0</ele><time>2026-04-28T09:13:51.867Z</time></trkpt><trkpt lat="44.22008849795779" lon="10.904925398839087"><ele>850.0</ele><time>2026-04-28T09:13:52.867Z</time></trkpt><trkpt lat="44.22004130632947" lon="10.904725291551719"><ele>847.0</ele><time>2026-04-28T09:13:53.867Z</time></trkpt><trkpt lat="44.2199608698917" lon="10.904542823264553"><ele>847.0</ele><time>2026-04-28T09:13:54.867Z</time></trkpt><trkpt lat="44.21986801650814" lon="10.904340804727457"><ele>847.0</ele><time>2026-04-28T09:13:55.867Z</time></trkpt><trkpt lat="44.219782631808215" lon="10.90414429588971"><ele>847.0</ele><time>2026-04-28T09:13:56.867Z</time></trkpt><trkpt lat="44.219746139537634" lon="10.90391565776462"><ele>850.6666666666666</ele><time>2026-04-28T09:13:57.867Z</time></trkpt><trkpt lat="44.21972746524728" lon="10.903702025915997"><ele>854.3333333333333</ele><time>2026-04-28T09:13:58.867Z</time></trkpt><trkpt lat="44.21972385169868" lon="10.903457537531157"><ele>858.0</ele><time>2026-04-28T09:13:59.867Z</time></trkpt><trkpt lat="44.21971481490024" lon="10.90320282540694"><ele>858.3333333333333</ele><time>2026-04-28T09:14:00.867Z</time></trkpt><trkpt lat="44.219720358443126" lon="10.902943102615604"><ele>858.6666666666666</ele><time>2026-04-28T09:14:01.867Z</time></trkpt><trkpt lat="44.21971610306121" lon="10.902712382263571"><ele>859.0</ele><time>2026-04-28T09:14:02.867Z</time></trkpt><trkpt lat="44.219728424566014" lon="10.902496650739272"><ele>859.0</ele><time>2026-04-28T09:14:03.867Z</time></trkpt><trkpt lat="44.21976655600873" lon="10.902265585406067"><ele>859.0</ele><time>2026-04-28T09:14:04.867Z</time></trkpt><trkpt lat="44.219800715516804" lon="10.902028232683682"><ele>859.0</ele><time>2026-04-28T09:14:05.867Z</time></trkpt><trkpt lat="44.219830864883825" lon="10.901792515767019"><ele>853.0</ele><time>2026-04-28T09:14:06.867Z</time></trkpt><trkpt lat="44.219857416506656" lon="10.901580472262669"><ele>847.0</ele><time>2026-04-28T09:14:07.867Z</time></trkpt><trkpt lat="44.21988723184354" lon="10.90137339947179"><ele>841.0</ele><time>2026-04-28T09:14:08.867Z</time></trkpt><trkpt lat="44.21991551510128" lon="10.9011545275613"><ele>841.0</ele><time>2026-04-28T09:14:09.867Z</time></trkpt><trkpt lat="44.219944946236126" lon="10.900941545491962"><ele>841.0</ele><time>2026-04-28T09:14:10.867Z</time></trkpt><trkpt lat="44.21997505824012" lon="10.90074125644274"><ele>841.0</ele><time>2026-04-28T09:14:11.867Z</time></trkpt><trkpt lat="44.21998368420762" lon="10.900548901226458"><ele>841.0</ele><time>2026-04-28T09:14:12.867Z</time></trkpt><trkpt lat="44.22001174811681" lon="10.90035508851924"><ele>842.25</ele><time>2026-04-28T09:14:13.867Z</time></trkpt><trkpt lat="44.22007395059922" lon="10.900179916295755"><ele>843.5</ele><time>2026-04-28T09:14:14.867Z</time></trkpt><trkpt lat="44.220154187632346" lon="10.900012279615925"><ele>844.75</ele><time>2026-04-28T09:14:15.867Z</time></trkpt><trkpt lat="44.2202554326669" lon="10.899847614245417"><ele>846.0</ele><time>2026-04-28T09:14:16.867Z</time></trkpt><trkpt lat="44.22036383383388" lon="10.89969105955583"><ele>845.75</ele><time>2026-04-28T09:14:17.867Z</time></trkpt><trkpt lat="44.22045418705644" lon="10.89953929284605"><ele>845.5</ele><time>2026-04-28T09:14:18.867Z</time></trkpt><trkpt lat="44.220540382976054" lon="10.899397308971057"><ele>845.25</ele><time>2026-04-28T09:14:19.867Z</time></trkpt><trkpt lat="44.220608741527876" lon="10.899233649964051"><ele>845.0</ele><time>2026-04-28T09:14:20.867Z</time></trkpt><trkpt lat="44.22066642414589" lon="10.899057978687008"><ele>845.0</ele><time>2026-04-28T09:14:21.867Z</time></trkpt><trkpt lat="44.22072164547386" lon="10.898888123691624"><ele>845.0</ele><time>2026-04-28T09:14:22.866Z</time></trkpt><trkpt lat="44.22077451778313" lon="10.898727174673404"><ele>845.0</ele><time>2026-04-28T09:14:23.866Z</time></trkpt><trkpt lat="44.22081231239954" lon="10.898543071648167"><ele>845.0</ele><time>2026-04-28T09:14:24.867Z</time></trkpt><trkpt lat="44.22083482671566" lon="10.8983433350285"><ele>846.0</ele><time>2026-04-28T09:14:25.866Z</time></trkpt><trkpt lat="44.22084084872804" lon="10.89813325720356"><ele>847.0</ele><time>2026-04-28T09:14:26.866Z</time></trkpt><trkpt lat="44.220836697454466" lon="10.897910402259601"><ele>848.0</ele><time>2026-04-28T09:14:27.866Z</time></trkpt><trkpt lat="44.220827020038314" lon="10.897678308278175"><ele>850.6666666666667</ele><time>2026-04-28T09:14:28.866Z</time></trkpt><trkpt lat="44.220822576754436" lon="10.89744475021157"><ele>853.3333333333333</ele><time>2026-04-28T09:14:29.866Z</time></trkpt><trkpt lat="44.22082269792413" lon="10.897211685366225"><ele>856.0</ele><time>2026-04-28T09:14:30.866Z</time></trkpt><trkpt lat="44.22082989372741" lon="10.896967716158462"><ele>858.0</ele><time>2026-04-28T09:14:31.866Z</time></trkpt><trkpt lat="44.22083069434122" lon="10.896714334204212"><ele>860.0</ele><time>2026-04-28T09:14:32.866Z</time></trkpt><trkpt lat="44.220826330332095" lon="10.896474262354682"><ele>862.0</ele><time>2026-04-28T09:14:33.866Z</time></trkpt><trkpt lat="44.220828490632805" lon="10.896259906399377"><ele>862.0</ele><time>2026-04-28T09:14:34.866Z</time></trkpt><trkpt lat="44.220823788194856" lon="10.896080536361834"><ele>862.0</ele><time>2026-04-28T09:14:35.866Z</time></trkpt><trkpt lat="44.220822892760836" lon="10.895917720166759"><ele>862.0</ele><time>2026-04-28T09:14:36.866Z</time></trkpt><trkpt lat="44.220824564728744" lon="10.895779271618549"><ele>862.0</ele><time>2026-04-28T09:14:37.866Z</time></trkpt><trkpt lat="44.220811504663665" lon="10.89566968657283"><ele>862.0</ele><time>2026-04-28T09:14:38.866Z</time></trkpt><trkpt lat="44.22081127018955" lon="10.895568690188801"><ele>863.75</ele><time>2026-04-28T09:14:39.866Z</time></trkpt><trkpt lat="44.22083977049962" lon="10.895428559652592"><ele>865.5</ele><time>2026-04-28T09:14:40.866Z</time></trkpt><trkpt lat="44.22088313503816" lon="10.895272041057552"><ele>867.25</ele><time>2026-04-28T09:14:41.866Z</time></trkpt><trkpt lat="44.220947273648186" lon="10.895113535565088"><ele>869.0</ele><time>2026-04-28T09:14:42.866Z</time></trkpt><trkpt lat="44.22102488380938" lon="10.894965726882901"><ele>869.5</ele><time>2026-04-28T09:14:43.866Z</time></trkpt><trkpt lat="44.22113956957054" lon="10.894864159393324"><ele>870.0</ele><time>2026-04-28T09:14:44.866Z</time></trkpt><trkpt lat="44.22125821002217" lon="10.894764371083225"><ele>870.5</ele><time>2026-04-28T09:14:45.866Z</time></trkpt><trkpt lat="44.221390854301944" lon="10.89466104810345"><ele>871.0</ele><time>2026-04-28T09:14:46.866Z</time></trkpt><trkpt lat="44.22151603403402" lon="10.894548498666508"><ele>871.0</ele><time>2026-04-28T09:14:47.866Z</time></trkpt><trkpt lat="44.221643116377486" lon="10.894442856714505"><ele>871.0</ele><time>2026-04-28T09:14:48.866Z</time></trkpt><trkpt lat="44.22176782981919" lon="10.894366850714661"><ele>871.0</ele><time>2026-04-28T09:14:49.866Z</time></trkpt><trkpt lat="44.22189572272835" lon="10.894267119570591"><ele>871.0</ele><time>2026-04-28T09:14:50.866Z</time></trkpt><trkpt lat="44.22203409571287" lon="10.894216055701492"><ele>871.0</ele><time>2026-04-28T09:14:51.866Z</time></trkpt><trkpt lat="44.22217495428806" lon="10.894231649477856"><ele>871.0</ele><time>2026-04-28T09:14:52.866Z</time></trkpt><trkpt lat="44.22230816824172" lon="10.89425645416481"><ele>871.0</ele><time>2026-04-28T09:14:53.866Z</time></trkpt><trkpt lat="44.22244356670485" lon="10.894276265431667"><ele>871.0</ele><time>2026-04-28T09:14:54.866Z</time></trkpt><trkpt lat="44.222580185882876" lon="10.89431703173462"><ele>872.25</ele><time>2026-04-28T09:14:55.866Z</time></trkpt><trkpt lat="44.22272682555254" lon="10.894353911597877"><ele>873.5</ele><time>2026-04-28T09:14:56.866Z</time></trkpt><trkpt lat="44.22287750128885" lon="10.894391038691504"><ele>874.75</ele><time>2026-04-28T09:14:57.866Z</time></trkpt><trkpt lat="44.22301386141844" lon="10.894443064299123"><ele>876.0</ele><time>2026-04-28T09:14:58.866Z</time></trkpt><trkpt lat="44.22314126457175" lon="10.894460833814032"><ele>876.4</ele><time>2026-04-28T09:14:59.866Z</time></trkpt><trkpt lat="44.22324918511235" lon="10.89439954889999"><ele>876.8</ele><time>2026-04-28T09:15:00.866Z</time></trkpt><trkpt lat="44.223319340213315" lon="10.89432576816944"><ele>877.1999999999999</ele><time>2026-04-28T09:15:01.866Z</time></trkpt><trkpt lat="44.22335729396235" lon="10.894203400804379"><ele>877.5999999999999</ele><time>2026-04-28T09:15:02.866Z</time></trkpt><trkpt lat="44.22335825344674" lon="10.894052861857238"><ele>878.0</ele><time>2026-04-28T09:15:03.866Z</time></trkpt><trkpt lat="44.22332368449316" lon="10.893914121443713"><ele>880.25</ele><time>2026-04-28T09:15:04.866Z</time></trkpt><trkpt lat="44.22324514798398" lon="10.893808742099507"><ele>882.5</ele><time>2026-04-28T09:15:05.866Z</time></trkpt><trkpt lat="44.22313563718204" lon="10.893744175190431"><ele>884.75</ele><time>2026-04-28T09:15:06.866Z</time></trkpt><trkpt lat="44.22299879936701" lon="10.893713836960522"><ele>887.0</ele><time>2026-04-28T09:15:07.866Z</time></trkpt><trkpt lat="44.22285942799829" lon="10.893689368762221"><ele>887.5</ele><time>2026-04-28T09:15:08.866Z</time></trkpt><trkpt lat="44.22271401937994" lon="10.893662953862586"><ele>888.0</ele><time>2026-04-28T09:15:09.866Z</time></trkpt><trkpt lat="44.22257368305682" lon="10.89361941203719"><ele>888.5</ele><time>2026-04-28T09:15:10.866Z</time></trkpt><trkpt lat="44.222437916370914" lon="10.893573205303827"><ele>889.0</ele><time>2026-04-28T09:15:11.866Z</time></trkpt><trkpt lat="44.222298903347955" lon="10.893540163341404"><ele>888.0</ele><time>2026-04-28T09:15:12.866Z</time></trkpt><trkpt lat="44.222171020949276" lon="10.893524091307375"><ele>887.0</ele><time>2026-04-28T09:15:13.866Z</time></trkpt><trkpt lat="44.22205754182421" lon="10.893490970711051"><ele>886.0</ele><time>2026-04-28T09:15:14.866Z</time></trkpt><trkpt lat="44.22194552693118" lon="10.893425014839371"><ele>885.0</ele><time>2026-04-28T09:15:15.866Z</time></trkpt><trkpt lat="44.22184151936188" lon="10.893320197800545"><ele>888.5</ele><time>2026-04-28T09:15:16.866Z</time></trkpt><trkpt lat="44.2217473793665" lon="10.893189622534319"><ele>892.0</ele><time>2026-04-28T09:15:17.866Z</time></trkpt><trkpt lat="44.2216552420292" lon="10.893033942416777"><ele>895.5</ele><time>2026-04-28T09:15:18.866Z</time></trkpt><trkpt lat="44.22157461691984" lon="10.892877785271086"><ele>899.0</ele><time>2026-04-28T09:15:19.866Z</time></trkpt><trkpt lat="44.22148369262616" lon="10.892727217712284"><ele>901.25</ele><time>2026-04-28T09:15:20.866Z</time></trkpt><trkpt lat="44.22138662200276" lon="10.892580131168152"><ele>903.5</ele><time>2026-04-28T09:15:21.866Z</time></trkpt><trkpt lat="44.22127725992431" lon="10.892450651655318"><ele>905.75</ele><time>2026-04-28T09:15:22.865Z</time></trkpt><trkpt lat="44.22114786909351" lon="10.892356810163722"><ele>908.0</ele><time>2026-04-28T09:15:23.864Z</time></trkpt><trkpt lat="44.22101272790247" lon="10.892284021580247"><ele>908.0</ele><time>2026-04-28T09:15:24.863Z</time></trkpt><trkpt lat="44.220880502427846" lon="10.89221181734528"><ele>908.0</ele><time>2026-04-28T09:15:25.862Z</time></trkpt><trkpt lat="44.22075081846711" lon="10.892142593277532"><ele>908.0</ele><time>2026-04-28T09:15:26.861Z</time></trkpt><trkpt lat="44.22062424438811" lon="10.892067560550704"><ele>908.0</ele><time>2026-04-28T09:15:27.861Z</time></trkpt><trkpt lat="44.2204925205947" lon="10.891991960152525"><ele>909.0</ele><time>2026-04-28T09:15:28.86Z</time></trkpt><trkpt lat="44.22036516600446" lon="10.891917734401797"><ele>910.0</ele><time>2026-04-28T09:15:29.859Z</time></trkpt><trkpt lat="44.220244417116675" lon="10.891854636435102"><ele>911.0</ele><time>2026-04-28T09:15:30.859Z</time></trkpt><trkpt lat="44.22011533021047" lon="10.891826351627227"><ele>912.0</ele><time>2026-04-28T09:15:31.858Z</time></trkpt><trkpt lat="44.21998986369231" lon="10.891828082189681"><ele>912.0</ele><time>2026-04-28T09:15:32.858Z</time></trkpt><trkpt lat="44.21986503232085" lon="10.891854628692434"><ele>912.0</ele><time>2026-04-28T09:15:33.857Z</time></trkpt><trkpt lat="44.21974314888581" lon="10.891898508443015"><ele>912.0</ele><time>2026-04-28T09:15:34.857Z</time></trkpt><trkpt lat="44.21961184731284" lon="10.891940637275944"><ele>912.0</ele><time>2026-04-28T09:15:35.856Z</time></trkpt><trkpt lat="44.21948347476191" lon="10.891986267627036"><ele>914.75</ele><time>2026-04-28T09:15:36.856Z</time></trkpt><trkpt lat="44.21935442558862" lon="10.892039706858213"><ele>917.5</ele><time>2026-04-28T09:15:37.856Z</time></trkpt><trkpt lat="44.21922567497502" lon="10.892099071961185"><ele>920.25</ele><time>2026-04-28T09:15:38.855Z</time></trkpt><trkpt lat="44.21909352696467" lon="10.892147907055218"><ele>923.0</ele><time>2026-04-28T09:15:39.855Z</time></trkpt><trkpt lat="44.21895957468464" lon="10.892206833224764"><ele>927.3333333333334</ele><time>2026-04-28T09:15:40.855Z</time></trkpt><trkpt lat="44.21881923943075" lon="10.892267773782118"><ele>931.6666666666667</ele><time>2026-04-28T09:15:41.854Z</time></trkpt><trkpt lat="44.21866009951091" lon="10.892319141340192"><ele>936.0</ele><time>2026-04-28T09:15:42.854Z</time></trkpt><trkpt lat="44.218515735977384" lon="10.892376335181684"><ele>936.0</ele><time>2026-04-28T09:15:43.854Z</time></trkpt><trkpt lat="44.21838582706174" lon="10.892445462637056"><ele>936.0</ele><time>2026-04-28T09:15:44.854Z</time></trkpt><trkpt lat="44.21827106240354" lon="10.892525305911903"><ele>936.0</ele><time>2026-04-28T09:15:45.853Z</time></trkpt><trkpt lat="44.21815701483601" lon="10.892631919376067"><ele>936.0</ele><time>2026-04-28T09:15:46.853Z</time></trkpt><trkpt lat="44.21804228392198" lon="10.892767533369522"><ele>937.0</ele><time>2026-04-28T09:15:47.853Z</time></trkpt><trkpt lat="44.21793674105505" lon="10.89289702034722"><ele>938.0</ele><time>2026-04-28T09:15:48.853Z</time></trkpt><trkpt lat="44.2178430513042" lon="10.893009388959745"><ele>939.0</ele><time>2026-04-28T09:15:49.853Z</time></trkpt><trkpt lat="44.2177521458459" lon="10.893088683064189"><ele>940.0</ele><time>2026-04-28T09:15:50.852Z</time></trkpt><trkpt lat="44.21763836618254" lon="10.893135877455702"><ele>940.0</ele><time>2026-04-28T09:15:51.852Z</time></trkpt><trkpt lat="44.21751143630891" lon="10.893160879072978"><ele>940.0</ele><time>2026-04-28T09:15:52.852Z</time></trkpt><trkpt lat="44.21737919295474" lon="10.89316864937649"><ele>940.0</ele><time>2026-04-28T09:15:53.852Z</time></trkpt><trkpt lat="44.21723188113441" lon="10.89314593290356"><ele>940.0</ele><time>2026-04-28T09:15:54.852Z</time></trkpt><trkpt lat="44.217093248635855" lon="10.893115619059646"><ele>941.25</ele><time>2026-04-28T09:15:55.852Z</time></trkpt><trkpt lat="44.21697017219071" lon="10.893090276879379"><ele>942.5</ele><time>2026-04-28T09:15:56.852Z</time></trkpt><trkpt lat="44.216838037020786" lon="10.893066734674257"><ele>943.75</ele><time>2026-04-28T09:15:57.852Z</time></trkpt><trkpt lat="44.21671183336617" lon="10.893049060413496"><ele>945.0</ele><time>2026-04-28T09:15:58.851Z</time></trkpt><trkpt lat="44.21658413418455" lon="10.89305838496314"><ele>946.5</ele><time>2026-04-28T09:15:59.851Z</time></trkpt><trkpt lat="44.21645483368055" lon="10.893108942588977"><ele>948.0</ele><time>2026-04-28T09:16:00.851Z</time></trkpt><trkpt lat="44.21633230490084" lon="10.893183359464427"><ele>949.5</ele><time>2026-04-28T09:16:01.851Z</time></trkpt><trkpt lat="44.21620912081399" lon="10.893257104276811"><ele>951.0</ele><time>2026-04-28T09:16:02.851Z</time></trkpt><trkpt lat="44.21608729797216" lon="10.89333904766734"><ele>951.0</ele><time>2026-04-28T09:16:03.851Z</time></trkpt><trkpt lat="44.21597198006123" lon="10.89341982558323"><ele>951.0</ele><time>2026-04-28T09:16:04.851Z</time></trkpt><trkpt lat="44.21584879324233" lon="10.893488070273136"><ele>951.0</ele><time>2026-04-28T09:16:05.851Z</time></trkpt><trkpt lat="44.21572639736294" lon="10.893515490097437"><ele>951.0</ele><time>2026-04-28T09:16:06.851Z</time></trkpt><trkpt lat="44.215602390736315" lon="10.893509791753047"><ele>954.5</ele><time>2026-04-28T09:16:07.851Z</time></trkpt><trkpt lat="44.215481603692396" lon="10.893452339664353"><ele>958.0</ele><time>2026-04-28T09:16:08.851Z</time></trkpt><trkpt lat="44.215350338134" lon="10.893371145208603"><ele>961.5</ele><time>2026-04-28T09:16:09.851Z</time></trkpt><trkpt lat="44.21522683386498" lon="10.893279590645962"><ele>965.0</ele><time>2026-04-28T09:16:10.851Z</time></trkpt><trkpt lat="44.21509930696425" lon="10.893178591263457"><ele>965.0</ele><time>2026-04-28T09:16:11.851Z</time></trkpt><trkpt lat="44.21499561357872" lon="10.893084903750399"><ele>965.0</ele><time>2026-04-28T09:16:12.85Z</time></trkpt><trkpt lat="44.214890657397525" lon="10.893010394290618"><ele>965.0</ele><time>2026-04-28T09:16:13.85Z</time></trkpt><trkpt lat="44.21480505181712" lon="10.892945226237357"><ele>965.0</ele><time>2026-04-28T09:16:14.85Z</time></trkpt><trkpt lat="44.21474917804915" lon="10.892902138416783"><ele>965.0</ele><time>2026-04-28T09:16:15.85Z</time></trkpt><trkpt lat="44.21468512857748" lon="10.892859227826309"><ele>965.0000000000001</ele><time>2026-04-28T09:16:17.85Z</time></trkpt><trkpt lat="44.21461035943433" lon="10.892797437304873"><ele>965.0</ele><time>2026-04-28T09:16:19.85Z</time></trkpt><trkpt lat="44.214497080585225" lon="10.892724832636375"><ele>965.0</ele><time>2026-04-28T09:16:21.85Z</time></trkpt><trkpt lat="44.214417142988246" lon="10.892677365043674"><ele>965.0</ele><time>2026-04-28T09:16:22.85Z</time></trkpt><trkpt lat="44.21435075347594" lon="10.892634464581894"><ele>965.0000000000001</ele><time>2026-04-28T09:16:23.85Z</time></trkpt><trkpt lat="44.214282968830936" lon="10.892598505173218"><ele>965.0</ele><time>2026-04-28T09:16:24.85Z</time></trkpt><trkpt lat="44.214208285982416" lon="10.892566878818853"><ele>965.0000000000001</ele><time>2026-04-28T09:16:25.85Z</time></trkpt><trkpt lat="44.214129038256985" lon="10.892566656953926"><ele>965.0</ele><time>2026-04-28T09:16:26.85Z</time></trkpt><trkpt lat="44.214046448467165" lon="10.892576351051218"><ele>965.0</ele><time>2026-04-28T09:16:27.85Z</time></trkpt><trkpt lat="44.213963506605744" lon="10.892591424130439"><ele>965.0</ele><time>2026-04-28T09:16:28.85Z</time></trkpt><trkpt lat="44.21389115053344" lon="10.892608475600078"><ele>965.0000000000001</ele><time>2026-04-28T09:16:29.85Z</time></trkpt><trkpt lat="44.21382565750089" lon="10.892626165622511"><ele>965.0</ele><time>2026-04-28T09:16:30.85Z</time></trkpt><trkpt lat="44.21371614755756" lon="10.892659949192423"><ele>965.6666666666667</ele><time>2026-04-28T09:16:32.849Z</time></trkpt><trkpt lat="44.21362410611662" lon="10.892667054503713"><ele>966.3333333333334</ele><time>2026-04-28T09:16:34.849Z</time></trkpt><trkpt lat="44.213552121529766" lon="10.892675892187965"><ele>967.0</ele><time>2026-04-28T09:16:35.849Z</time></trkpt><trkpt lat="44.21348413584753" lon="10.89265677234834"><ele>967.6666666666667</ele><time>2026-04-28T09:16:36.849Z</time></trkpt><trkpt lat="44.21340284473738" lon="10.892626118015146"><ele>968.3333333333334</ele><time>2026-04-28T09:16:37.849Z</time></trkpt><trkpt lat="44.21332068287943" lon="10.892584510758903"><ele>969.0</ele><time>2026-04-28T09:16:38.849Z</time></trkpt><trkpt lat="44.213246360811034" lon="10.892546740166146"><ele>969.0</ele><time>2026-04-28T09:16:39.849Z</time></trkpt><trkpt lat="44.21316108102729" lon="10.892496245725662"><ele>969.0000000000001</ele><time>2026-04-28T09:16:40.849Z</time></trkpt><trkpt lat="44.2130776650024" lon="10.89241812831988"><ele>969.0000000000001</ele><time>2026-04-28T09:16:41.849Z</time></trkpt><trkpt lat="44.21299661337824" lon="10.8923425553071"><ele>969.0</ele><time>2026-04-28T09:16:42.849Z</time></trkpt><trkpt lat="44.21292796517849" lon="10.892248859992621"><ele>969.0</ele><time>2026-04-28T09:16:43.849Z</time></trkpt><trkpt lat="44.21285828955563" lon="10.892149050160079"><ele>970.25</ele><time>2026-04-28T09:16:44.849Z</time></trkpt><trkpt lat="44.21278295138538" lon="10.892031442817457"><ele>971.5</ele><time>2026-04-28T09:16:45.849Z</time></trkpt><trkpt lat="44.212697467598886" lon="10.8919279727488"><ele>972.75</ele><time>2026-04-28T09:16:46.849Z</time></trkpt><trkpt lat="44.21261291737221" lon="10.89183450767398"><ele>974.0</ele><time>2026-04-28T09:16:47.849Z</time></trkpt><trkpt lat="44.21251234166304" lon="10.89172059095375"><ele>974.0</ele><time>2026-04-28T09:16:48.849Z</time></trkpt><trkpt lat="44.212413551040456" lon="10.89164527203849"><ele>974.0000000000001</ele><time>2026-04-28T09:16:49.849Z</time></trkpt><trkpt lat="44.212313086002816" lon="10.891608327068006"><ele>974.0000000000001</ele><time>2026-04-28T09:16:50.849Z</time></trkpt><trkpt lat="44.21222717915536" lon="10.891529374564065"><ele>974.0</ele><time>2026-04-28T09:16:51.849Z</time></trkpt><trkpt lat="44.21214375735493" lon="10.891471463321537"><ele>974.0</ele><time>2026-04-28T09:16:52.849Z</time></trkpt><trkpt lat="44.21205507070486" lon="10.891410776129712"><ele>974.25</ele><time>2026-04-28T09:16:53.849Z</time></trkpt><trkpt lat="44.21194737423193" lon="10.89139599333186"><ele>974.5</ele><time>2026-04-28T09:16:54.849Z</time></trkpt><trkpt lat="44.211835846896605" lon="10.891447926133901"><ele>974.75</ele><time>2026-04-28T09:16:55.849Z</time></trkpt><trkpt lat="44.21173185674998" lon="10.891532266745488"><ele>975.0</ele><time>2026-04-28T09:16:56.849Z</time></trkpt><trkpt lat="44.21163568323664" lon="10.891630764430206"><ele>975.0</ele><time>2026-04-28T09:16:57.849Z</time></trkpt><trkpt lat="44.21152660609056" lon="10.891745431048648"><ele>975.0</ele><time>2026-04-28T09:16:58.849Z</time></trkpt><trkpt lat="44.211420469211504" lon="10.891882312868427"><ele>975.0</ele><time>2026-04-28T09:16:59.849Z</time></trkpt><trkpt lat="44.211289899251575" lon="10.891987158270853"><ele>975.0</ele><time>2026-04-28T09:17:00.849Z</time></trkpt><trkpt lat="44.211168529020895" lon="10.89208016322593"><ele>975.75</ele><time>2026-04-28T09:17:01.849Z</time></trkpt><trkpt lat="44.21104000807902" lon="10.892151635310706"><ele>976.5</ele><time>2026-04-28T09:17:02.849Z</time></trkpt><trkpt lat="44.21091491123303" lon="10.892191243368968"><ele>977.25</ele><time>2026-04-28T09:17:03.849Z</time></trkpt><trkpt lat="44.21078043190803" lon="10.89219004445908"><ele>978.0</ele><time>2026-04-28T09:17:04.849Z</time></trkpt><trkpt lat="44.2106464213163" lon="10.892185023744034"><ele>978.0</ele><time>2026-04-28T09:17:05.849Z</time></trkpt><trkpt lat="44.2104986343727" lon="10.892181966057215"><ele>978.0</ele><time>2026-04-28T09:17:06.849Z</time></trkpt><trkpt lat="44.21034787123696" lon="10.892187696127301"><ele>978.0</ele><time>2026-04-28T09:17:07.849Z</time></trkpt><trkpt lat="44.210193563024404" lon="10.8921834444001"><ele>978.0</ele><time>2026-04-28T09:17:08.849Z</time></trkpt><trkpt lat="44.210037914748426" lon="10.89216498187043"><ele>978.0</ele><time>2026-04-28T09:17:09.849Z</time></trkpt><trkpt lat="44.20987836923551" lon="10.892135927359204"><ele>978.0</ele><time>2026-04-28T09:17:10.849Z</time></trkpt><trkpt lat="44.2097243430116" lon="10.89211002376885"><ele>978.25</ele><time>2026-04-28T09:17:11.849Z</time></trkpt><trkpt lat="44.209574794655424" lon="10.892100439955525"><ele>978.5</ele><time>2026-04-28T09:17:12.849Z</time></trkpt><trkpt lat="44.20943501805478" lon="10.892111843089166"><ele>978.75</ele><time>2026-04-28T09:17:13.849Z</time></trkpt><trkpt lat="44.20929951139589" lon="10.892130387173458"><ele>979.0</ele><time>2026-04-28T09:17:14.849Z</time></trkpt><trkpt lat="44.2091724262228" lon="10.892161377583022"><ele>979.0</ele><time>2026-04-28T09:17:15.849Z</time></trkpt><trkpt lat="44.20904558197033" lon="10.892182772974717"><ele>979.0</ele><time>2026-04-28T09:17:16.849Z</time></trkpt><trkpt lat="44.208914512585224" lon="10.892169792429536"><ele>979.0</ele><time>2026-04-28T09:17:17.849Z</time></trkpt><trkpt lat="44.208782198748615" lon="10.892111916102007"><ele>979.0</ele><time>2026-04-28T09:17:18.849Z</time></trkpt><trkpt lat="44.20866185660301" lon="10.892021332249096"><ele>978.75</ele><time>2026-04-28T09:17:19.849Z</time></trkpt><trkpt lat="44.20854459821768" lon="10.89191317788293"><ele>978.5</ele><time>2026-04-28T09:17:20.849Z</time></trkpt><trkpt lat="44.20845515039861" lon="10.891802582361901"><ele>978.25</ele><time>2026-04-28T09:17:21.849Z</time></trkpt><trkpt lat="44.2083512191304" lon="10.891709001998764"><ele>978.0</ele><time>2026-04-28T09:17:22.849Z</time></trkpt><trkpt lat="44.208228655738" lon="10.891632200314973"><ele>975.5</ele><time>2026-04-28T09:17:23.848Z</time></trkpt><trkpt lat="44.20810757924993" lon="10.8915663883345"><ele>973.0</ele><time>2026-04-28T09:17:24.848Z</time></trkpt><trkpt lat="44.2079941558013" lon="10.8915057352057"><ele>970.5</ele><time>2026-04-28T09:17:25.848Z</time></trkpt><trkpt lat="44.20788362277821" lon="10.891425729860762"><ele>968.0</ele><time>2026-04-28T09:17:26.848Z</time></trkpt><trkpt lat="44.207766974988424" lon="10.891350395091973"><ele>968.0</ele><time>2026-04-28T09:17:27.848Z</time></trkpt><trkpt lat="44.20765109530072" lon="10.891331617198116"><ele>968.0</ele><time>2026-04-28T09:17:28.848Z</time></trkpt><trkpt lat="44.20752660958833" lon="10.89130200498703"><ele>968.0</ele><time>2026-04-28T09:17:29.848Z</time></trkpt><trkpt lat="44.20741035437476" lon="10.891306853290537"><ele>968.0</ele><time>2026-04-28T09:17:30.848Z</time></trkpt><trkpt lat="44.20728888556245" lon="10.891288333052692"><ele>967.25</ele><time>2026-04-28T09:17:31.848Z</time></trkpt><trkpt lat="44.207185073966464" lon="10.89129941002922"><ele>966.5</ele><time>2026-04-28T09:17:32.848Z</time></trkpt><trkpt lat="44.20706916548126" lon="10.891305191189977"><ele>965.75</ele><time>2026-04-28T09:17:33.848Z</time></trkpt><trkpt lat="44.2069502614823" lon="10.891294236204647"><ele>965.0</ele><time>2026-04-28T09:17:34.848Z</time></trkpt><trkpt lat="44.206816409825414" lon="10.891310588034633"><ele>965.0</ele><time>2026-04-28T09:17:35.848Z</time></trkpt><trkpt lat="44.206681663166016" lon="10.891279415132244"><ele>965.0</ele><time>2026-04-28T09:17:36.848Z</time></trkpt><trkpt lat="44.206557739348185" lon="10.891258275518428"><ele>965.0</ele><time>2026-04-28T09:17:37.848Z</time></trkpt><trkpt lat="44.20645458664052" lon="10.89125664795438"><ele>965.0</ele><time>2026-04-28T09:17:38.848Z</time></trkpt><trkpt lat="44.20633736264798" lon="10.89122204196176"><ele>964.0</ele><time>2026-04-28T09:17:39.848Z</time></trkpt><trkpt lat="44.206209819030285" lon="10.891191309302316"><ele>963.0</ele><time>2026-04-28T09:17:40.848Z</time></trkpt><trkpt lat="44.20609616790925" lon="10.891123720068062"><ele>962.0</ele><time>2026-04-28T09:17:41.848Z</time></trkpt><trkpt lat="44.20598409937748" lon="10.891031300649555"><ele>961.0</ele><time>2026-04-28T09:17:42.848Z</time></trkpt><trkpt lat="44.205882035716606" lon="10.890940606453809"><ele>959.0</ele><time>2026-04-28T09:17:43.848Z</time></trkpt><trkpt lat="44.20576958557522" lon="10.890892527233294"><ele>956.9999999999999</ele><time>2026-04-28T09:17:44.848Z</time></trkpt><trkpt lat="44.20567571477394" lon="10.890849503708704"><ele>954.9999999999999</ele><time>2026-04-28T09:17:45.848Z</time></trkpt><trkpt lat="44.20557087836334" lon="10.890804543907628"><ele>953.0</ele><time>2026-04-28T09:17:46.848Z</time></trkpt><trkpt lat="44.20547258060424" lon="10.890742442331083"><ele>951.0</ele><time>2026-04-28T09:17:47.848Z</time></trkpt><trkpt lat="44.20539152349195" lon="10.89066864221225"><ele>950.4</ele><time>2026-04-28T09:17:48.848Z</time></trkpt><trkpt lat="44.20530926832968" lon="10.890599668718632"><ele>949.8</ele><time>2026-04-28T09:17:49.848Z</time></trkpt><trkpt lat="44.20522239684509" lon="10.890564267288747"><ele>949.1999999999999</ele><time>2026-04-28T09:17:50.848Z</time></trkpt><trkpt lat="44.205134740770475" lon="10.890553270292541"><ele>948.5999999999999</ele><time>2026-04-28T09:17:51.848Z</time></trkpt><trkpt lat="44.205023309007814" lon="10.890615880292428"><ele>948.0</ele><time>2026-04-28T09:17:52.848Z</time></trkpt><trkpt lat="44.204925477345704" lon="10.890735369608912"><ele>946.0</ele><time>2026-04-28T09:17:53.848Z</time></trkpt><trkpt lat="44.20481032834138" lon="10.890831915853054"><ele>944.0</ele><time>2026-04-28T09:17:54.848Z</time></trkpt><trkpt lat="44.2046925794894" lon="10.890947136887315"><ele>942.0</ele><time>2026-04-28T09:17:55.848Z</time></trkpt><trkpt lat="44.20459646485964" lon="10.891060416562771"><ele>940.0</ele><time>2026-04-28T09:17:56.848Z</time></trkpt><trkpt lat="44.20451865677447" lon="10.891202095133764"><ele>940.0</ele><time>2026-04-28T09:17:57.848Z</time></trkpt><trkpt lat="44.204462433384684" lon="10.891375983450162"><ele>940.0</ele><time>2026-04-28T09:17:58.848Z</time></trkpt><trkpt lat="44.20438209706267" lon="10.891537607617725"><ele>940.0</ele><time>2026-04-28T09:17:59.848Z</time></trkpt><trkpt lat="44.204345870191396" lon="10.891716476696486"><ele>940.0</ele><time>2026-04-28T09:18:00.848Z</time></trkpt><trkpt lat="44.2042769597944" lon="10.891849127562773"><ele>941.75</ele><time>2026-04-28T09:18:01.848Z</time></trkpt><trkpt lat="44.2041949006895" lon="10.891934318601812"><ele>943.5</ele><time>2026-04-28T09:18:02.848Z</time></trkpt><trkpt lat="44.20408589490548" lon="10.891988238119959"><ele>945.25</ele><time>2026-04-28T09:18:03.848Z</time></trkpt><trkpt lat="44.203960584384276" lon="10.892007149159161"><ele>947.0</ele><time>2026-04-28T09:18:04.848Z</time></trkpt><trkpt lat="44.20382375416098" lon="10.892016695501372"><ele>947.0</ele><time>2026-04-28T09:18:05.848Z</time></trkpt><trkpt lat="44.203653454486634" lon="10.89205334157454"><ele>947.0</ele><time>2026-04-28T09:18:06.848Z</time></trkpt><trkpt lat="44.203491804864576" lon="10.89208330096646"><ele>947.0</ele><time>2026-04-28T09:18:07.848Z</time></trkpt><trkpt lat="44.203340998236335" lon="10.8920869590109"><ele>947.0</ele><time>2026-04-28T09:18:08.848Z</time></trkpt><trkpt lat="44.20320768769663" lon="10.892075200675054"><ele>947.0</ele><time>2026-04-28T09:18:09.848Z</time></trkpt><trkpt lat="44.20308416841203" lon="10.892055307914696"><ele>947.0</ele><time>2026-04-28T09:18:10.848Z</time></trkpt><trkpt lat="44.202985116494354" lon="10.892051258620997"><ele>947.0</ele><time>2026-04-28T09:18:11.848Z</time></trkpt><trkpt lat="44.20289588814182" lon="10.892046107071451"><ele>947.0</ele><time>2026-04-28T09:18:12.848Z</time></trkpt><trkpt lat="44.202814978714784" lon="10.89212339736489"><ele>946.0</ele><time>2026-04-28T09:18:13.848Z</time></trkpt><trkpt lat="44.202752759028215" lon="10.892263712439533"><ele>945.0</ele><time>2026-04-28T09:18:14.848Z</time></trkpt><trkpt lat="44.20271163852901" lon="10.892435715656516"><ele>944.0</ele><time>2026-04-28T09:18:15.848Z</time></trkpt><trkpt lat="44.20269677377731" lon="10.892619537530065"><ele>943.0</ele><time>2026-04-28T09:18:16.848Z</time></trkpt><trkpt lat="44.20268767739845" lon="10.892782025650993"><ele>943.0</ele><time>2026-04-28T09:18:17.848Z</time></trkpt><trkpt lat="44.202680783116115" lon="10.892921079496013"><ele>943.0</ele><time>2026-04-28T09:18:18.848Z</time></trkpt><trkpt lat="44.20265911101808" lon="10.893036154196901"><ele>943.0</ele><time>2026-04-28T09:18:19.848Z</time></trkpt><trkpt lat="44.20262507571145" lon="10.893139590287806"><ele>943.0</ele><time>2026-04-28T09:18:20.848Z</time></trkpt><trkpt lat="44.20251908669406" lon="10.893190091528869"><ele>943.0</ele><time>2026-04-28T09:18:21.848Z</time></trkpt><trkpt lat="44.20240295271762" lon="10.893186283511309"><ele>942.0</ele><time>2026-04-28T09:18:22.848Z</time></trkpt><trkpt lat="44.202276156025505" lon="10.893136501794094"><ele>941.0</ele><time>2026-04-28T09:18:23.848Z</time></trkpt><trkpt lat="44.202138402458466" lon="10.893081465584086"><ele>940.0</ele><time>2026-04-28T09:18:24.848Z</time></trkpt><trkpt lat="44.20199266253578" lon="10.893037498300236"><ele>939.0</ele><time>2026-04-28T09:18:25.848Z</time></trkpt><trkpt lat="44.201849063017264" lon="10.893005142300128"><ele>939.0</ele><time>2026-04-28T09:18:26.848Z</time></trkpt><trkpt lat="44.20171981919709" lon="10.89297553596643"><ele>939.0</ele><time>2026-04-28T09:18:27.848Z</time></trkpt><trkpt lat="44.201589862196876" lon="10.89294305648116"><ele>939.0</ele><time>2026-04-28T09:18:28.848Z</time></trkpt><trkpt lat="44.20145530214252" lon="10.892903527317099"><ele>939.0</ele><time>2026-04-28T09:18:29.848Z</time></trkpt><trkpt lat="44.201319981152444" lon="10.89285343355384"><ele>939.5</ele><time>2026-04-28T09:18:30.847Z</time></trkpt><trkpt lat="44.20119235548709" lon="10.89278430498756"><ele>940.0</ele><time>2026-04-28T09:18:31.847Z</time></trkpt><trkpt lat="44.2010762303526" lon="10.892702030696674"><ele>940.5</ele><time>2026-04-28T09:18:32.847Z</time></trkpt><trkpt lat="44.2009781738326" lon="10.892602857731115"><ele>941.0</ele><time>2026-04-28T09:18:33.847Z</time></trkpt><trkpt lat="44.200889653275" lon="10.892494257611322"><ele>938.25</ele><time>2026-04-28T09:18:34.848Z</time></trkpt><trkpt lat="44.20077957383953" lon="10.89242318807956"><ele>935.5</ele><time>2026-04-28T09:18:35.848Z</time></trkpt><trkpt lat="44.20065100623614" lon="10.892387968649912"><ele>932.75</ele><time>2026-04-28T09:18:36.848Z</time></trkpt><trkpt lat="44.200489667978616" lon="10.89239841402411"><ele>930.0</ele><time>2026-04-28T09:18:37.847Z</time></trkpt><trkpt lat="44.200320541727166" lon="10.892405263746125"><ele>929.0</ele><time>2026-04-28T09:18:38.847Z</time></trkpt><trkpt lat="44.200161730489576" lon="10.892386244789716"><ele>928.0</ele><time>2026-04-28T09:18:39.847Z</time></trkpt><trkpt lat="44.20001128825127" lon="10.89233281746712"><ele>927.0</ele><time>2026-04-28T09:18:40.847Z</time></trkpt><trkpt lat="44.19987149680859" lon="10.892252144181034"><ele>927.5</ele><time>2026-04-28T09:18:41.847Z</time></trkpt><trkpt lat="44.19973974759905" lon="10.8921592045377"><ele>928.0</ele><time>2026-04-28T09:18:42.847Z</time></trkpt><trkpt lat="44.19961494530682" lon="10.892071783830854"><ele>928.5</ele><time>2026-04-28T09:18:43.847Z</time></trkpt><trkpt lat="44.19949274264372" lon="10.891973787254484"><ele>929.0</ele><time>2026-04-28T09:18:44.847Z</time></trkpt><trkpt lat="44.19937720168123" lon="10.891863511680668"><ele>926.0</ele><time>2026-04-28T09:18:45.847Z</time></trkpt><trkpt lat="44.1992795650435" lon="10.89174453138649"><ele>923.0</ele><time>2026-04-28T09:18:46.847Z</time></trkpt><trkpt lat="44.19918817479077" lon="10.891650917840863"><ele>920.0</ele><time>2026-04-28T09:18:47.847Z</time></trkpt><trkpt lat="44.19905704699063" lon="10.891583532400878"><ele>917.0</ele><time>2026-04-28T09:18:48.847Z</time></trkpt><trkpt lat="44.198916839182054" lon="10.891559588428388"><ele>915.5</ele><time>2026-04-28T09:18:49.847Z</time></trkpt><trkpt lat="44.19876668348618" lon="10.89153173444903"><ele>914.0</ele><time>2026-04-28T09:18:50.847Z</time></trkpt><trkpt lat="44.1986304821071" lon="10.89152642371639"><ele>912.5</ele><time>2026-04-28T09:18:51.847Z</time></trkpt><trkpt lat="44.198501377506766" lon="10.891532942879621"><ele>911.0</ele><time>2026-04-28T09:18:52.847Z</time></trkpt><trkpt lat="44.19837023538176" lon="10.891521046824991"><ele>911.0</ele><time>2026-04-28T09:18:53.847Z</time></trkpt><trkpt lat="44.198245005669314" lon="10.891498723880567"><ele>911.0</ele><time>2026-04-28T09:18:54.847Z</time></trkpt><trkpt lat="44.19812756025544" lon="10.891475504491407"><ele>911.0</ele><time>2026-04-28T09:18:55.847Z</time></trkpt><trkpt lat="44.19800884411277" lon="10.891479702407588"><ele>911.0</ele><time>2026-04-28T09:18:56.847Z</time></trkpt><trkpt lat="44.197885291766134" lon="10.891519296990458"><ele>909.8</ele><time>2026-04-28T09:18:57.847Z</time></trkpt><trkpt lat="44.19777197660829" lon="10.891583425567484"><ele>908.5999999999999</ele><time>2026-04-28T09:18:58.847Z</time></trkpt><trkpt lat="44.197673680439024" lon="10.89166383492774"><ele>907.4</ele><time>2026-04-28T09:18:59.847Z</time></trkpt><trkpt lat="44.19759638947078" lon="10.891764700702481"><ele>906.2</ele><time>2026-04-28T09:19:00.847Z</time></trkpt><trkpt lat="44.19753915007929" lon="10.891887001740225"><ele>905.0</ele><time>2026-04-28T09:19:01.847Z</time></trkpt><trkpt lat="44.19749212245968" lon="10.892039829755195"><ele>905.0</ele><time>2026-04-28T09:19:02.847Z</time></trkpt><trkpt lat="44.19748216837796" lon="10.892227458707993"><ele>905.0</ele><time>2026-04-28T09:19:03.847Z</time></trkpt><trkpt lat="44.197478046362995" lon="10.892414378104307"><ele>905.0</ele><time>2026-04-28T09:19:04.847Z</time></trkpt><trkpt lat="44.19749865471173" lon="10.892622951791862"><ele>905.0</ele><time>2026-04-28T09:19:05.847Z</time></trkpt><trkpt lat="44.19747819590217" lon="10.892802807510673"><ele>905.5</ele><time>2026-04-28T09:19:06.847Z</time></trkpt><trkpt lat="44.19744589665256" lon="10.893000936551806"><ele>906.0</ele><time>2026-04-28T09:19:07.847Z</time></trkpt><trkpt lat="44.19737340650102" lon="10.89316913216732"><ele>906.5</ele><time>2026-04-28T09:19:08.847Z</time></trkpt><trkpt lat="44.19728247811236" lon="10.893283837201476"><ele>907.0</ele><time>2026-04-28T09:19:09.847Z</time></trkpt><trkpt lat="44.197212410668406" lon="10.89340145240574"><ele>902.75</ele><time>2026-04-28T09:19:10.847Z</time></trkpt><trkpt lat="44.19715798980166" lon="10.893469369439918"><ele>898.5</ele><time>2026-04-28T09:19:11.847Z</time></trkpt><trkpt lat="44.197061463267566" lon="10.893489018137453"><ele>894.25</ele><time>2026-04-28T09:19:13.847Z</time></trkpt><trkpt lat="44.19701840677237" lon="10.893360367113338"><ele>890.0</ele><time>2026-04-28T09:19:14.847Z</time></trkpt><trkpt lat="44.1970914885038" lon="10.893126616095492"><ele>889.5</ele><time>2026-04-28T09:19:16.847Z</time></trkpt><trkpt lat="44.197140238898086" lon="10.892989883492165"><ele>889.0</ele><time>2026-04-28T09:19:17.847Z</time></trkpt><trkpt lat="44.197187128780584" lon="10.89282965875919"><ele>888.5</ele><time>2026-04-28T09:19:18.847Z</time></trkpt><trkpt lat="44.19720423128035" lon="10.892656638908493"><ele>888.0</ele><time>2026-04-28T09:19:19.847Z</time></trkpt><trkpt lat="44.19717598921016" lon="10.892490965602631"><ele>887.25</ele><time>2026-04-28T09:19:20.847Z</time></trkpt><trkpt lat="44.19712403286697" lon="10.892326178325588"><ele>886.5</ele><time>2026-04-28T09:19:21.847Z</time></trkpt><trkpt lat="44.1970557069624" lon="10.892176794975425"><ele>885.75</ele><time>2026-04-28T09:19:22.847Z</time></trkpt><trkpt lat="44.19697899103957" lon="10.892055981978139"><ele>885.0</ele><time>2026-04-28T09:19:23.847Z</time></trkpt><trkpt lat="44.196919424311695" lon="10.891918836618247"><ele>885.0</ele><time>2026-04-28T09:19:24.847Z</time></trkpt><trkpt lat="44.19687911995699" lon="10.891772519737534"><ele>885.0</ele><time>2026-04-28T09:19:25.847Z</time></trkpt><trkpt lat="44.1968918682453" lon="10.891600359954786"><ele>885.0</ele><time>2026-04-28T09:19:26.847Z</time></trkpt><trkpt lat="44.19692111262449" lon="10.891428613855163"><ele>885.0</ele><time>2026-04-28T09:19:27.847Z</time></trkpt><trkpt lat="44.19694696719005" lon="10.891253017055158"><ele>884.0</ele><time>2026-04-28T09:19:28.847Z</time></trkpt><trkpt lat="44.19699378666731" lon="10.891077000098807"><ele>883.0</ele><time>2026-04-28T09:19:29.847Z</time></trkpt><trkpt lat="44.19704230126701" lon="10.890921650268693"><ele>882.0</ele><time>2026-04-28T09:19:30.847Z</time></trkpt><trkpt lat="44.19707967496233" lon="10.89077025792238"><ele>881.0</ele><time>2026-04-28T09:19:31.847Z</time></trkpt><trkpt lat="44.19710065962742" lon="10.890623592009282"><ele>880.4</ele><time>2026-04-28T09:19:32.847Z</time></trkpt><trkpt lat="44.19707514651087" lon="10.890475911036745"><ele>879.8</ele><time>2026-04-28T09:19:33.847Z</time></trkpt><trkpt lat="44.19703091203391" lon="10.890330727303322"><ele>879.1999999999999</ele><time>2026-04-28T09:19:34.847Z</time></trkpt><trkpt lat="44.19697565199619" lon="10.890207083477462"><ele>878.5999999999999</ele><time>2026-04-28T09:19:35.847Z</time></trkpt><trkpt lat="44.1968789027317" lon="10.890153711186151"><ele>878.0</ele><time>2026-04-28T09:19:36.846Z</time></trkpt><trkpt lat="44.19678597338492" lon="10.890107328453011"><ele>877.8333333333334</ele><time>2026-04-28T09:19:37.846Z</time></trkpt><trkpt lat="44.19670747517575" lon="10.890037020183591"><ele>877.6666666666667</ele><time>2026-04-28T09:19:38.846Z</time></trkpt><trkpt lat="44.19664286691091" lon="10.889975323920357"><ele>877.5</ele><time>2026-04-28T09:19:39.846Z</time></trkpt><trkpt lat="44.196588163765774" lon="10.889893819982936"><ele>877.3333333333333</ele><time>2026-04-28T09:19:40.846Z</time></trkpt><trkpt lat="44.196593439748334" lon="10.889765046064005"><ele>877.1666666666666</ele><time>2026-04-28T09:19:41.846Z</time></trkpt><trkpt lat="44.19663285914456" lon="10.889634585938705"><ele>877.0</ele><time>2026-04-28T09:19:42.846Z</time></trkpt><trkpt lat="44.196720695457046" lon="10.889519325651095"><ele>877.0</ele><time>2026-04-28T09:19:43.846Z</time></trkpt><trkpt lat="44.196824619771945" lon="10.889390440286753"><ele>877.0</ele><time>2026-04-28T09:19:44.846Z</time></trkpt><trkpt lat="44.19692711517772" lon="10.88925739106305"><ele>877.0</ele><time>2026-04-28T09:19:45.846Z</time></trkpt><trkpt lat="44.19703703673505" lon="10.88916872507459"><ele>877.0</ele><time>2026-04-28T09:19:46.846Z</time></trkpt><trkpt lat="44.19717204371986" lon="10.889110329301301"><ele>876.0</ele><time>2026-04-28T09:19:47.846Z</time></trkpt><trkpt lat="44.19732312575264" lon="10.88904078442634"><ele>875.0</ele><time>2026-04-28T09:19:48.846Z</time></trkpt><trkpt lat="44.19745878419385" lon="10.888950362513967"><ele>874.0</ele><time>2026-04-28T09:19:49.846Z</time></trkpt><trkpt lat="44.197591533796434" lon="10.888827609741606"><ele>874.0</ele><time>2026-04-28T09:19:50.846Z</time></trkpt><trkpt lat="44.19770518243161" lon="10.888728164042073"><ele>874.0</ele><time>2026-04-28T09:19:51.846Z</time></trkpt><trkpt lat="44.197818794521716" lon="10.888635889939689"><ele>874.0</ele><time>2026-04-28T09:19:52.846Z</time></trkpt><trkpt lat="44.19796211054565" lon="10.888552846692319"><ele>874.0</ele><time>2026-04-28T09:19:53.846Z</time></trkpt><trkpt lat="44.198096744452585" lon="10.888477320915348"><ele>874.0</ele><time>2026-04-28T09:19:54.846Z</time></trkpt><trkpt lat="44.198236382251935" lon="10.88844775527355"><ele>874.0</ele><time>2026-04-28T09:19:55.846Z</time></trkpt><trkpt lat="44.198395555154285" lon="10.888420683792626"><ele>874.0</ele><time>2026-04-28T09:19:56.846Z</time></trkpt><trkpt lat="44.19854764958225" lon="10.888392849882127"><ele>871.5</ele><time>2026-04-28T09:19:57.846Z</time></trkpt><trkpt lat="44.19868898873232" lon="10.888367759602712"><ele>869.0</ele><time>2026-04-28T09:19:58.846Z</time></trkpt><trkpt lat="44.19882374401859" lon="10.888328940217308"><ele>866.5</ele><time>2026-04-28T09:19:59.846Z</time></trkpt><trkpt lat="44.19892618248419" lon="10.888256305407726"><ele>864.0</ele><time>2026-04-28T09:20:00.846Z</time></trkpt><trkpt lat="44.198994555281594" lon="10.88817114684437"><ele>864.0</ele><time>2026-04-28T09:20:01.846Z</time></trkpt><trkpt lat="44.19903405892569" lon="10.888074135064972"><ele>864.0000000000001</ele><time>2026-04-28T09:20:02.846Z</time></trkpt><trkpt lat="44.19903628362232" lon="10.88789388235892"><ele>864.0000000000001</ele><time>2026-04-28T09:20:04.846Z</time></trkpt><trkpt lat="44.198982818567636" lon="10.887792232609648"><ele>864.0</ele><time>2026-04-28T09:20:05.846Z</time></trkpt><trkpt lat="44.19885184587759" lon="10.88781263152904"><ele>864.0</ele><time>2026-04-28T09:20:06.846Z</time></trkpt><trkpt lat="44.198739324853065" lon="10.887812405006189"><ele>864.0</ele><time>2026-04-28T09:20:07.846Z</time></trkpt><trkpt lat="44.19861241931713" lon="10.887757621457054"><ele>864.0</ele><time>2026-04-28T09:20:08.846Z</time></trkpt><trkpt lat="44.198483292111035" lon="10.887695445305438"><ele>864.0</ele><time>2026-04-28T09:20:09.846Z</time></trkpt><trkpt lat="44.19836135611599" lon="10.887597544445079"><ele>864.0</ele><time>2026-04-28T09:20:10.846Z</time></trkpt><trkpt lat="44.19821255765843" lon="10.887514219313884"><ele>860.25</ele><time>2026-04-28T09:20:11.846Z</time></trkpt><trkpt lat="44.19807713123388" lon="10.887487133748884"><ele>856.5</ele><time>2026-04-28T09:20:12.846Z</time></trkpt><trkpt lat="44.197948843330586" lon="10.887450629670907"><ele>852.75</ele><time>2026-04-28T09:20:13.846Z</time></trkpt><trkpt lat="44.19781234048002" lon="10.88741504265222"><ele>849.0</ele><time>2026-04-28T09:20:14.846Z</time></trkpt><trkpt lat="44.197667008552564" lon="10.887386368677447"><ele>849.0</ele><time>2026-04-28T09:20:15.846Z</time></trkpt><trkpt lat="44.19751151121752" lon="10.887345569410797"><ele>849.0</ele><time>2026-04-28T09:20:16.846Z</time></trkpt><trkpt lat="44.19736182873946" lon="10.887287143086517"><ele>849.0</ele><time>2026-04-28T09:20:17.846Z</time></trkpt><trkpt lat="44.197222433071104" lon="10.88724927020662"><ele>848.25</ele><time>2026-04-28T09:20:18.846Z</time></trkpt><trkpt lat="44.197066537221204" lon="10.88720612321781"><ele>847.5</ele><time>2026-04-28T09:20:19.846Z</time></trkpt><trkpt lat="44.196921354025484" lon="10.887158911902011"><ele>846.75</ele><time>2026-04-28T09:20:20.846Z</time></trkpt><trkpt lat="44.19679394525532" lon="10.887099992477278"><ele>846.0</ele><time>2026-04-28T09:20:21.846Z</time></trkpt><trkpt lat="44.19666175038454" lon="10.887073283975795"><ele>846.0</ele><time>2026-04-28T09:20:22.846Z</time></trkpt><trkpt lat="44.19653226545756" lon="10.88704989464451"><ele>846.0</ele><time>2026-04-28T09:20:23.846Z</time></trkpt><trkpt lat="44.19641247896696" lon="10.887032499056046"><ele>846.0</ele><time>2026-04-28T09:20:24.846Z</time></trkpt><trkpt lat="44.19628173294362" lon="10.887018528820983"><ele>846.0</ele><time>2026-04-28T09:20:25.846Z</time></trkpt><trkpt lat="44.19617677990451" lon="10.886999145694597"><ele>844.75</ele><time>2026-04-28T09:20:26.846Z</time></trkpt><trkpt lat="44.19605887599933" lon="10.886993735349145"><ele>843.5</ele><time>2026-04-28T09:20:27.846Z</time></trkpt><trkpt lat="44.19593839136237" lon="10.88699765041058"><ele>842.25</ele><time>2026-04-28T09:20:28.846Z</time></trkpt><trkpt lat="44.19581137838286" lon="10.887039609488298"><ele>841.0</ele><time>2026-04-28T09:20:29.846Z</time></trkpt><trkpt lat="44.19568863963179" lon="10.887103248869098"><ele>839.0</ele><time>2026-04-28T09:20:30.846Z</time></trkpt><trkpt lat="44.19558338163325" lon="10.887197675381215"><ele>837.0</ele><time>2026-04-28T09:20:31.846Z</time></trkpt><trkpt lat="44.19546592159945" lon="10.887261365319631"><ele>835.0</ele><time>2026-04-28T09:20:32.846Z</time></trkpt><trkpt lat="44.19534485816836" lon="10.887313781582746"><ele>833.0</ele><time>2026-04-28T09:20:33.846Z</time></trkpt><trkpt lat="44.19521808360368" lon="10.88734089264858"><ele>833.0</ele><time>2026-04-28T09:20:34.845Z</time></trkpt><trkpt lat="44.19510602365204" lon="10.887342469694692"><ele>833.0</ele><time>2026-04-28T09:20:35.845Z</time></trkpt><trkpt lat="44.19499139773477" lon="10.887344857461212"><ele>833.0</ele><time>2026-04-28T09:20:36.846Z</time></trkpt><trkpt lat="44.19489312565869" lon="10.887369254446051"><ele>833.0</ele><time>2026-04-28T09:20:37.845Z</time></trkpt><trkpt lat="44.19478252425767" lon="10.887403395710695"><ele>833.0</ele><time>2026-04-28T09:20:38.845Z</time></trkpt><trkpt lat="44.19467263219705" lon="10.887422526678666"><ele>833.0</ele><time>2026-04-28T09:20:39.846Z</time></trkpt><trkpt lat="44.1945602183065" lon="10.887434223509716"><ele>833.0</ele><time>2026-04-28T09:20:40.845Z</time></trkpt><trkpt lat="44.19446033979912" lon="10.887395079765671"><ele>833.0</ele><time>2026-04-28T09:20:41.845Z</time></trkpt><trkpt lat="44.19437028544317" lon="10.887326449864819"><ele>833.0</ele><time>2026-04-28T09:20:42.845Z</time></trkpt><trkpt lat="44.194298099691494" lon="10.887222105478658"><ele>833.0</ele><time>2026-04-28T09:20:43.846Z</time></trkpt><trkpt lat="44.194250006193336" lon="10.887092783277662"><ele>833.0</ele><time>2026-04-28T09:20:44.846Z</time></trkpt><trkpt lat="44.194202533089424" lon="10.886973938192886"><ele>833.0</ele><time>2026-04-28T09:20:45.845Z</time></trkpt><trkpt lat="44.19413262129942" lon="10.886857110015992"><ele>833.0</ele><time>2026-04-28T09:20:46.845Z</time></trkpt><trkpt lat="44.194060318573904" lon="10.886771124635416"><ele>833.0</ele><time>2026-04-28T09:20:47.845Z</time></trkpt><trkpt lat="44.19398369137541" lon="10.88670712330892"><ele>833.0</ele><time>2026-04-28T09:20:48.845Z</time></trkpt><trkpt lat="44.19387861565214" lon="10.886659351497205"><ele>831.2</ele><time>2026-04-28T09:20:49.845Z</time></trkpt><trkpt lat="44.193781009547784" lon="10.88664361153297"><ele>829.4</ele><time>2026-04-28T09:20:50.845Z</time></trkpt><trkpt lat="44.193680325031664" lon="10.886679078606734"><ele>827.6</ele><time>2026-04-28T09:20:51.845Z</time></trkpt><trkpt lat="44.19359739051135" lon="10.886720440717662"><ele>825.8000000000001</ele><time>2026-04-28T09:20:52.845Z</time></trkpt><trkpt lat="44.19351779193982" lon="10.88675461098962"><ele>824.0</ele><time>2026-04-28T09:20:53.845Z</time></trkpt><trkpt lat="44.19342918097334" lon="10.886776592840757"><ele>823.6</ele><time>2026-04-28T09:20:54.845Z</time></trkpt><trkpt lat="44.19333785525138" lon="10.88671012721993"><ele>823.2</ele><time>2026-04-28T09:20:55.845Z</time></trkpt><trkpt lat="44.19325214009606" lon="10.88661039920586"><ele>822.8000000000001</ele><time>2026-04-28T09:20:56.845Z</time></trkpt><trkpt lat="44.193162841271935" lon="10.88651222406961"><ele>822.4000000000001</ele><time>2026-04-28T09:20:57.845Z</time></trkpt><trkpt lat="44.1930662824876" lon="10.886424864402832"><ele>822.0</ele><time>2026-04-28T09:20:58.845Z</time></trkpt><trkpt lat="44.192959921000124" lon="10.88635049122028"><ele>820.6</ele><time>2026-04-28T09:20:59.845Z</time></trkpt><trkpt lat="44.192854742707844" lon="10.886285529353449"><ele>819.2</ele><time>2026-04-28T09:21:00.845Z</time></trkpt><trkpt lat="44.19274520231903" lon="10.886230792069686"><ele>817.8</ele><time>2026-04-28T09:21:01.845Z</time></trkpt><trkpt lat="44.192640461579806" lon="10.886171941678906"><ele>816.4</ele><time>2026-04-28T09:21:02.845Z</time></trkpt><trkpt lat="44.19254233061988" lon="10.886128380534855"><ele>815.0</ele><time>2026-04-28T09:21:03.845Z</time></trkpt><trkpt lat="44.1924453829242" lon="10.886093949118791"><ele>815.0</ele><time>2026-04-28T09:21:04.845Z</time></trkpt><trkpt lat="44.19234969011444" lon="10.886074084018071"><ele>815.0</ele><time>2026-04-28T09:21:05.845Z</time></trkpt><trkpt lat="44.19225971932967" lon="10.886039493973131"><ele>815.0</ele><time>2026-04-28T09:21:06.845Z</time></trkpt><trkpt lat="44.192167428751546" lon="10.885979409168442"><ele>815.0</ele><time>2026-04-28T09:21:07.845Z</time></trkpt><trkpt lat="44.192081198868046" lon="10.885911914054136"><ele>815.0</ele><time>2026-04-28T09:21:08.845Z</time></trkpt><trkpt lat="44.19199862831285" lon="10.885805400571982"><ele>814.1666666666667</ele><time>2026-04-28T09:21:09.845Z</time></trkpt><trkpt lat="44.19192555517306" lon="10.885695506722596"><ele>813.3333333333334</ele><time>2026-04-28T09:21:10.845Z</time></trkpt><trkpt lat="44.19186554797879" lon="10.885600176294945"><ele>812.5</ele><time>2026-04-28T09:21:11.845Z</time></trkpt><trkpt lat="44.1918232719611" lon="10.885508896021992"><ele>811.6666666666667</ele><time>2026-04-28T09:21:12.845Z</time></trkpt><trkpt lat="44.19175862597997" lon="10.885462390598981"><ele>810.8333333333334</ele><time>2026-04-28T09:21:13.845Z</time></trkpt><trkpt lat="44.1916867855609" lon="10.88543280598022"><ele>810.0</ele><time>2026-04-28T09:21:14.845Z</time></trkpt><trkpt lat="44.19161676045632" lon="10.885460451460993"><ele>810.0</ele><time>2026-04-28T09:21:15.845Z</time></trkpt><trkpt lat="44.19154241391589" lon="10.885386114091546"><ele>810.0</ele><time>2026-04-28T09:21:16.845Z</time></trkpt><trkpt lat="44.19146650775018" lon="10.885381337755277"><ele>810.0</ele><time>2026-04-28T09:21:17.845Z</time></trkpt><trkpt lat="44.191383864898704" lon="10.88539271510301"><ele>810.0</ele><time>2026-04-28T09:21:18.845Z</time></trkpt><trkpt lat="44.191292759323574" lon="10.885389988142297"><ele>810.0</ele><time>2026-04-28T09:21:19.845Z</time></trkpt><trkpt lat="44.19120231716602" lon="10.885443384514193"><ele>810.0</ele><time>2026-04-28T09:21:20.845Z</time></trkpt><trkpt lat="44.1911306914189" lon="10.885532292965356"><ele>808.4</ele><time>2026-04-28T09:21:21.845Z</time></trkpt><trkpt lat="44.19104975836552" lon="10.885602384104759"><ele>806.8</ele><time>2026-04-28T09:21:22.845Z</time></trkpt><trkpt lat="44.19096412626405" lon="10.885651292124557"><ele>805.2</ele><time>2026-04-28T09:21:23.845Z</time></trkpt><trkpt lat="44.19086697801024" lon="10.885665521719755"><ele>803.6</ele><time>2026-04-28T09:21:24.845Z</time></trkpt><trkpt lat="44.19076207519608" lon="10.885648172977934"><ele>802.0</ele><time>2026-04-28T09:21:25.845Z</time></trkpt><trkpt lat="44.19067120976266" lon="10.88558792533145"><ele>796.75</ele><time>2026-04-28T09:21:26.845Z</time></trkpt><trkpt lat="44.190582041122504" lon="10.88548011528298"><ele>791.5</ele><time>2026-04-28T09:21:27.845Z</time></trkpt><trkpt lat="44.19048803971994" lon="10.885372206015917"><ele>786.25</ele><time>2026-04-28T09:21:28.845Z</time></trkpt><trkpt lat="44.190391347297016" lon="10.885258676782827"><ele>781.0</ele><time>2026-04-28T09:21:29.845Z</time></trkpt><trkpt lat="44.19030505054601" lon="10.885136101173197"><ele>783.25</ele><time>2026-04-28T09:21:30.845Z</time></trkpt><trkpt lat="44.190218412637726" lon="10.884997534723746"><ele>785.5</ele><time>2026-04-28T09:21:31.845Z</time></trkpt><trkpt lat="44.19013949868614" lon="10.884838215477147"><ele>787.75</ele><time>2026-04-28T09:21:32.845Z</time></trkpt><trkpt lat="44.19005776280021" lon="10.88467736933663"><ele>790.0</ele><time>2026-04-28T09:21:33.845Z</time></trkpt><trkpt lat="44.18998172784375" lon="10.884509796821522"><ele>790.0</ele><time>2026-04-28T09:21:34.845Z</time></trkpt><trkpt lat="44.18990783497189" lon="10.884343168937637"><ele>790.0</ele><time>2026-04-28T09:21:35.845Z</time></trkpt><trkpt lat="44.18982410389683" lon="10.88419280791868"><ele>790.0</ele><time>2026-04-28T09:21:36.845Z</time></trkpt><trkpt lat="44.18972971481707" lon="10.884064985956291"><ele>790.0</ele><time>2026-04-28T09:21:37.845Z</time></trkpt><trkpt lat="44.18962203769478" lon="10.883961896930863"><ele>790.0</ele><time>2026-04-28T09:21:38.845Z</time></trkpt><trkpt lat="44.18950197809528" lon="10.88388815401999"><ele>790.0</ele><time>2026-04-28T09:21:39.845Z</time></trkpt><trkpt lat="44.189379592990804" lon="10.883847304359819"><ele>790.0</ele><time>2026-04-28T09:21:40.845Z</time></trkpt><trkpt lat="44.18925887893964" lon="10.883842143359244"><ele>790.0</ele><time>2026-04-28T09:21:41.845Z</time></trkpt><trkpt lat="44.18913722084826" lon="10.883829035222316"><ele>790.0</ele><time>2026-04-28T09:21:42.845Z</time></trkpt><trkpt lat="44.18901866462706" lon="10.883859660003875"><ele>790.0</ele><time>2026-04-28T09:21:43.845Z</time></trkpt><trkpt lat="44.188909084205505" lon="10.883895418667393"><ele>790.0</ele><time>2026-04-28T09:21:44.845Z</time></trkpt><trkpt lat="44.188805472517764" lon="10.8839356643247"><ele>790.0</ele><time>2026-04-28T09:21:45.845Z</time></trkpt><trkpt lat="44.18869583854337" lon="10.883933850804551"><ele>788.0</ele><time>2026-04-28T09:21:46.845Z</time></trkpt><trkpt lat="44.1885848478653" lon="10.883898950496784"><ele>786.0</ele><time>2026-04-28T09:21:47.845Z</time></trkpt><trkpt lat="44.1884708181863" lon="10.883841141566437"><ele>784.0</ele><time>2026-04-28T09:21:48.845Z</time></trkpt><trkpt lat="44.18835727668735" lon="10.88376909204163"><ele>782.0</ele><time>2026-04-28T09:21:49.845Z</time></trkpt><trkpt lat="44.188235973418465" lon="10.883704591242672"><ele>779.25</ele><time>2026-04-28T09:21:50.845Z</time></trkpt><trkpt lat="44.18811460514356" lon="10.883657948677525"><ele>776.5</ele><time>2026-04-28T09:21:51.845Z</time></trkpt><trkpt lat="44.18799490667182" lon="10.883615445431005"><ele>773.75</ele><time>2026-04-28T09:21:52.845Z</time></trkpt><trkpt lat="44.18787844376131" lon="10.883580336077003"><ele>771.0</ele><time>2026-04-28T09:21:53.845Z</time></trkpt><trkpt lat="44.18776163901845" lon="10.883533245007397"><ele>771.0</ele><time>2026-04-28T09:21:54.845Z</time></trkpt><trkpt lat="44.187652758356165" lon="10.883480447160562"><ele>771.0</ele><time>2026-04-28T09:21:55.844Z</time></trkpt><trkpt lat="44.18754206614364" lon="10.88342290557377"><ele>771.0</ele><time>2026-04-28T09:21:56.844Z</time></trkpt><trkpt lat="44.187431296563744" lon="10.88336025790932"><ele>771.0</ele><time>2026-04-28T09:21:57.844Z</time></trkpt><trkpt lat="44.187324818364196" lon="10.883279437810376"><ele>772.0</ele><time>2026-04-28T09:21:58.844Z</time></trkpt><trkpt lat="44.1872142689723" lon="10.883199641180394"><ele>773.0</ele><time>2026-04-28T09:21:59.844Z</time></trkpt><trkpt lat="44.18710590979437" lon="10.883117748267711"><ele>774.0</ele><time>2026-04-28T09:22:00.844Z</time></trkpt><trkpt lat="44.18700304718724" lon="10.883028138683759"><ele>775.0</ele><time>2026-04-28T09:22:01.844Z</time></trkpt><trkpt lat="44.186909650437414" lon="10.88293043738756"><ele>775.0</ele><time>2026-04-28T09:22:02.844Z</time></trkpt><trkpt lat="44.18682155348934" lon="10.882841595471477"><ele>775.0</ele><time>2026-04-28T09:22:03.844Z</time></trkpt><trkpt lat="44.18673555071082" lon="10.882762171552939"><ele>775.0</ele><time>2026-04-28T09:22:04.844Z</time></trkpt><trkpt lat="44.18664864727139" lon="10.882689024087407"><ele>775.0</ele><time>2026-04-28T09:22:05.844Z</time></trkpt><trkpt lat="44.18656474307776" lon="10.882628807170976"><ele>775.0</ele><time>2026-04-28T09:22:06.844Z</time></trkpt><trkpt lat="44.186475228282234" lon="10.88257265590985"><ele>775.0</ele><time>2026-04-28T09:22:07.844Z</time></trkpt><trkpt lat="44.18637817792706" lon="10.88252247328562"><ele>775.0</ele><time>2026-04-28T09:22:08.844Z</time></trkpt><trkpt lat="44.186277776694105" lon="10.882476764875346"><ele>775.0</ele><time>2026-04-28T09:22:09.844Z</time></trkpt><trkpt lat="44.186177793745" lon="10.88243380056843"><ele>775.0</ele><time>2026-04-28T09:22:10.844Z</time></trkpt><trkpt lat="44.186073153889815" lon="10.882398714180052"><ele>775.0</ele><time>2026-04-28T09:22:11.844Z</time></trkpt><trkpt lat="44.185960663785096" lon="10.882358122828647"><ele>775.0</ele><time>2026-04-28T09:22:12.844Z</time></trkpt><trkpt lat="44.18584874620263" lon="10.88231855078271"><ele>775.0</ele><time>2026-04-28T09:22:13.844Z</time></trkpt><trkpt lat="44.18573693448302" lon="10.882274180491358"><ele>775.0</ele><time>2026-04-28T09:22:14.844Z</time></trkpt><trkpt lat="44.185636242266014" lon="10.882226780193422"><ele>775.0</ele><time>2026-04-28T09:22:15.844Z</time></trkpt><trkpt lat="44.18554494007284" lon="10.882151411656226"><ele>775.0</ele><time>2026-04-28T09:22:16.844Z</time></trkpt><trkpt lat="44.18546675022952" lon="10.882067174205181"><ele>773.0</ele><time>2026-04-28T09:22:17.844Z</time></trkpt><trkpt lat="44.18540936304314" lon="10.881965072845833"><ele>771.0</ele><time>2026-04-28T09:22:18.844Z</time></trkpt><trkpt lat="44.185367169159996" lon="10.88185116480637"><ele>769.0</ele><time>2026-04-28T09:22:19.844Z</time></trkpt><trkpt lat="44.18536184270791" lon="10.881722654878528"><ele>767.0</ele><time>2026-04-28T09:22:20.844Z</time></trkpt><trkpt lat="44.185395840899716" lon="10.8815842249049"><ele>765.0</ele><time>2026-04-28T09:22:21.844Z</time></trkpt><trkpt lat="44.18544635783651" lon="10.881449420706863"><ele>765.0</ele><time>2026-04-28T09:22:22.844Z</time></trkpt><trkpt lat="44.18549780555109" lon="10.881291649898163"><ele>765.0</ele><time>2026-04-28T09:22:23.844Z</time></trkpt><trkpt lat="44.185522579215196" lon="10.881112273214196"><ele>765.0</ele><time>2026-04-28T09:22:24.844Z</time></trkpt><trkpt lat="44.18553116846165" lon="10.880926244406224"><ele>765.0</ele><time>2026-04-28T09:22:25.844Z</time></trkpt><trkpt lat="44.185554140690115" lon="10.8807582716836"><ele>764.75</ele><time>2026-04-28T09:22:26.844Z</time></trkpt><trkpt lat="44.185588223684256" lon="10.880582008054397"><ele>764.5</ele><time>2026-04-28T09:22:27.844Z</time></trkpt><trkpt lat="44.18562518716705" lon="10.880410210215253"><ele>764.25</ele><time>2026-04-28T09:22:28.844Z</time></trkpt><trkpt lat="44.18564569263807" lon="10.880245963789815"><ele>764.0</ele><time>2026-04-28T09:22:29.844Z</time></trkpt><trkpt lat="44.18563171641908" lon="10.880078533208989"><ele>763.4000000000001</ele><time>2026-04-28T09:22:30.844Z</time></trkpt><trkpt lat="44.185618991293275" lon="10.879915931639461"><ele>762.8</ele><time>2026-04-28T09:22:31.844Z</time></trkpt><trkpt lat="44.185620048312636" lon="10.87976171261273"><ele>762.2</ele><time>2026-04-28T09:22:32.844Z</time></trkpt><trkpt lat="44.18564373064686" lon="10.87961701860513"><ele>761.5999999999999</ele><time>2026-04-28T09:22:33.844Z</time></trkpt><trkpt lat="44.18568284685136" lon="10.87947949707562"><ele>761.0</ele><time>2026-04-28T09:22:34.844Z</time></trkpt><trkpt lat="44.185710379971844" lon="10.879361837233665"><ele>762.0</ele><time>2026-04-28T09:22:35.844Z</time></trkpt><trkpt lat="44.18571460122285" lon="10.879229991308229"><ele>763.0</ele><time>2026-04-28T09:22:36.844Z</time></trkpt><trkpt lat="44.18569062879136" lon="10.879082976124309"><ele>764.0</ele><time>2026-04-28T09:22:37.844Z</time></trkpt><trkpt lat="44.18563875641024" lon="10.878947069562042"><ele>765.0</ele><time>2026-04-28T09:22:38.844Z</time></trkpt><trkpt lat="44.18556269861711" lon="10.878820543003831"><ele>766.0</ele><time>2026-04-28T09:22:39.844Z</time></trkpt><trkpt lat="44.18548412493363" lon="10.878709334596593"><ele>765.0</ele><time>2026-04-28T09:22:40.844Z</time></trkpt><trkpt lat="44.185414531928195" lon="10.878599322187219"><ele>764.0</ele><time>2026-04-28T09:22:41.844Z</time></trkpt><trkpt lat="44.185326402621655" lon="10.878527539048397"><ele>763.0</ele><time>2026-04-28T09:22:42.844Z</time></trkpt><trkpt lat="44.185226580042965" lon="10.87850332051698"><ele>762.0</ele><time>2026-04-28T09:22:43.843Z</time></trkpt><trkpt lat="44.18506727511765" lon="10.8783880412137"><ele>762.0</ele><time>2026-04-28T09:22:45.843Z</time></trkpt><trkpt lat="44.18500130229273" lon="10.87830171809722"><ele>762.0</ele><time>2026-04-28T09:22:46.843Z</time></trkpt><trkpt lat="44.18495231842643" lon="10.8781906374653"><ele>762.0</ele><time>2026-04-28T09:22:47.843Z</time></trkpt><trkpt lat="44.18492039937431" lon="10.878057234558716"><ele>762.0</ele><time>2026-04-28T09:22:48.844Z</time></trkpt><trkpt lat="44.18490843719846" lon="10.877948876968812"><ele>762.0</ele><time>2026-04-28T09:22:49.843Z</time></trkpt><trkpt lat="44.18491044089941" lon="10.87781531795724"><ele>762.0</ele><time>2026-04-28T09:22:51.843Z</time></trkpt><trkpt lat="44.184901618876296" lon="10.87772327042887"><ele>762.0</ele><time>2026-04-28T09:22:53.843Z</time></trkpt><trkpt lat="44.18487749583827" lon="10.877600967905169"><ele>762.0</ele><time>2026-04-28T09:22:56.843Z</time></trkpt><trkpt lat="44.184858347252344" lon="10.877509409910463"><ele>762.0</ele><time>2026-04-28T09:22:58.843Z</time></trkpt><trkpt lat="44.18483126358097" lon="10.877393288107177"><ele>762.0</ele><time>2026-04-28T09:23:00.843Z</time></trkpt><trkpt lat="44.18478921539574" lon="10.87725690404519"><ele>762.0</ele><time>2026-04-28T09:23:02.843Z</time></trkpt><trkpt lat="44.184599840368364" lon="10.877184838038788"><ele>761.0</ele><time>2026-04-28T09:23:04.843Z</time></trkpt><trkpt lat="44.1845168218056" lon="10.877130570804127"><ele>760.0</ele><time>2026-04-28T09:23:05.843Z</time></trkpt><trkpt lat="44.184426991507266" lon="10.877105433268646"><ele>759.0</ele><time>2026-04-28T09:23:06.843Z</time></trkpt><trkpt lat="44.184335567157206" lon="10.87704860788747"><ele>758.0</ele><time>2026-04-28T09:23:07.843Z</time></trkpt><trkpt lat="44.18424767863521" lon="10.876989066401629"><ele>757.0</ele><time>2026-04-28T09:23:08.843Z</time></trkpt><trkpt lat="44.184158994440615" lon="10.876938208224082"><ele>757.0</ele><time>2026-04-28T09:23:09.843Z</time></trkpt><trkpt lat="44.184067303166366" lon="10.876879317510511"><ele>757.0</ele><time>2026-04-28T09:23:10.843Z</time></trkpt><trkpt lat="44.18396800517924" lon="10.876816044044809"><ele>757.0</ele><time>2026-04-28T09:23:11.843Z</time></trkpt><trkpt lat="44.18386282510338" lon="10.876758175324522"><ele>757.0</ele><time>2026-04-28T09:23:12.843Z</time></trkpt><trkpt lat="44.18376506393259" lon="10.8767076362123"><ele>757.0</ele><time>2026-04-28T09:23:13.843Z</time></trkpt><trkpt lat="44.18367091443439" lon="10.876657355475228"><ele>758.2</ele><time>2026-04-28T09:23:14.843Z</time></trkpt><trkpt lat="44.18357692322845" lon="10.87660355766015"><ele>759.4000000000001</ele><time>2026-04-28T09:23:15.843Z</time></trkpt><trkpt lat="44.18347329998797" lon="10.87657232344438"><ele>760.5999999999999</ele><time>2026-04-28T09:23:16.843Z</time></trkpt><trkpt lat="44.183362709827584" lon="10.876562176529525"><ele>761.8</ele><time>2026-04-28T09:23:17.843Z</time></trkpt><trkpt lat="44.18324496726364" lon="10.876545825854006"><ele>763.0</ele><time>2026-04-28T09:23:18.843Z</time></trkpt><trkpt lat="44.183125727686395" lon="10.87658772714081"><ele>763.75</ele><time>2026-04-28T09:23:19.843Z</time></trkpt><trkpt lat="44.183014070044024" lon="10.876681332310524"><ele>764.5</ele><time>2026-04-28T09:23:20.843Z</time></trkpt><trkpt lat="44.18290946497316" lon="10.876768356609821"><ele>765.25</ele><time>2026-04-28T09:23:21.843Z</time></trkpt><trkpt lat="44.18281021343847" lon="10.876841569880124"><ele>766.0</ele><time>2026-04-28T09:23:22.843Z</time></trkpt><trkpt lat="44.18271193266998" lon="10.876921735485917"><ele>764.0</ele><time>2026-04-28T09:23:23.843Z</time></trkpt><trkpt lat="44.182612960346205" lon="10.877006235977221"><ele>762.0</ele><time>2026-04-28T09:23:24.843Z</time></trkpt><trkpt lat="44.18251152990805" lon="10.877096456240833"><ele>760.0</ele><time>2026-04-28T09:23:25.843Z</time></trkpt><trkpt lat="44.182413942587395" lon="10.877176261243187"><ele>758.0</ele><time>2026-04-28T09:23:26.843Z</time></trkpt><trkpt lat="44.18231931859166" lon="10.877239261163867"><ele>757.75</ele><time>2026-04-28T09:23:27.843Z</time></trkpt><trkpt lat="44.18221852044897" lon="10.877289992345041"><ele>757.5</ele><time>2026-04-28T09:23:28.843Z</time></trkpt><trkpt lat="44.182113261261996" lon="10.877323930568286"><ele>757.25</ele><time>2026-04-28T09:23:29.843Z</time></trkpt><trkpt lat="44.18199635142854" lon="10.8773431634572"><ele>757.0</ele><time>2026-04-28T09:23:30.843Z</time></trkpt><trkpt lat="44.181872390727165" lon="10.877342724424867"><ele>757.0</ele><time>2026-04-28T09:23:31.843Z</time></trkpt><trkpt lat="44.181752115296014" lon="10.877351008029146"><ele>757.0</ele><time>2026-04-28T09:23:32.843Z</time></trkpt><trkpt lat="44.1816384240172" lon="10.877367615563967"><ele>757.0</ele><time>2026-04-28T09:23:33.843Z</time></trkpt><trkpt lat="44.18152045644553" lon="10.877367964156454"><ele>757.0</ele><time>2026-04-28T09:23:34.843Z</time></trkpt><trkpt lat="44.18140074915755" lon="10.877351798205277"><ele>756.0</ele><time>2026-04-28T09:23:35.843Z</time></trkpt><trkpt lat="44.181277619600145" lon="10.877334832977903"><ele>755.0</ele><time>2026-04-28T09:23:36.843Z</time></trkpt><trkpt lat="44.18115621641051" lon="10.87730508666742"><ele>754.0</ele><time>2026-04-28T09:23:37.843Z</time></trkpt><trkpt lat="44.18103004306755" lon="10.877265229259848"><ele>753.0</ele><time>2026-04-28T09:23:38.843Z</time></trkpt><trkpt lat="44.18090839262495" lon="10.877220217378195"><ele>753.0</ele><time>2026-04-28T09:23:39.843Z</time></trkpt><trkpt lat="44.18081376248909" lon="10.877149526155414"><ele>753.0</ele><time>2026-04-28T09:23:40.843Z</time></trkpt><trkpt lat="44.18072395533675" lon="10.877074189953923"><ele>753.0</ele><time>2026-04-28T09:23:41.843Z</time></trkpt><trkpt lat="44.18061318165398" lon="10.877025859889422"><ele>753.0</ele><time>2026-04-28T09:23:42.843Z</time></trkpt><trkpt lat="44.18049547149292" lon="10.877013507441863"><ele>753.0</ele><time>2026-04-28T09:23:43.843Z</time></trkpt><trkpt lat="44.18040004109639" lon="10.877033340598121"><ele>755.0</ele><time>2026-04-28T09:23:44.843Z</time></trkpt><trkpt lat="44.18031388325564" lon="10.8770246411989"><ele>757.0</ele><time>2026-04-28T09:23:45.843Z</time></trkpt><trkpt lat="44.18020026050865" lon="10.876987411239538"><ele>759.0</ele><time>2026-04-28T09:23:46.843Z</time></trkpt><trkpt lat="44.18010394098659" lon="10.876909264839274"><ele>761.0</ele><time>2026-04-28T09:23:47.843Z</time></trkpt><trkpt lat="44.18000377066685" lon="10.876818397163392"><ele>763.0</ele><time>2026-04-28T09:23:48.843Z</time></trkpt><trkpt lat="44.17988472538984" lon="10.87674205840362"><ele>759.5</ele><time>2026-04-28T09:23:49.843Z</time></trkpt><trkpt lat="44.17977300187266" lon="10.876709974679063"><ele>756.0</ele><time>2026-04-28T09:23:50.843Z</time></trkpt><trkpt lat="44.1796448197836" lon="10.876695141279354"><ele>752.5</ele><time>2026-04-28T09:23:51.843Z</time></trkpt><trkpt lat="44.17954409324468" lon="10.876715672382094"><ele>749.0</ele><time>2026-04-28T09:23:52.843Z</time></trkpt><trkpt lat="44.17943850020785" lon="10.876720362658075"><ele>749.0</ele><time>2026-04-28T09:23:53.843Z</time></trkpt><trkpt lat="44.179350221336186" lon="10.876762917054124"><ele>749.0</ele><time>2026-04-28T09:23:54.843Z</time></trkpt><trkpt lat="44.179257936656114" lon="10.876734317494774"><ele>749.0</ele><time>2026-04-28T09:23:55.843Z</time></trkpt><trkpt lat="44.17917572903708" lon="10.876675939632753"><ele>749.0</ele><time>2026-04-28T09:23:56.843Z</time></trkpt><trkpt lat="44.17912272372581" lon="10.87657087636332"><ele>749.0</ele><time>2026-04-28T09:23:57.842Z</time></trkpt><trkpt lat="44.17912043117185" lon="10.876460551364865"><ele>749.0</ele><time>2026-04-28T09:23:58.842Z</time></trkpt><trkpt lat="44.17912709168396" lon="10.876315738371739"><ele>749.0</ele><time>2026-04-28T09:23:59.842Z</time></trkpt><trkpt lat="44.1791294293066" lon="10.876138667425861"><ele>749.0</ele><time>2026-04-28T09:24:00.842Z</time></trkpt><trkpt lat="44.17912560817993" lon="10.875940239959801"><ele>749.0</ele><time>2026-04-28T09:24:01.842Z</time></trkpt><trkpt lat="44.17911678134483" lon="10.875760318329739"><ele>750.75</ele><time>2026-04-28T09:24:02.842Z</time></trkpt><trkpt lat="44.17908673989726" lon="10.875586046856036"><ele>752.5</ele><time>2026-04-28T09:24:03.842Z</time></trkpt><trkpt lat="44.179047478705165" lon="10.875432785063024"><ele>754.25</ele><time>2026-04-28T09:24:04.842Z</time></trkpt><trkpt lat="44.178999545076714" lon="10.875295262507708"><ele>756.0</ele><time>2026-04-28T09:24:05.842Z</time></trkpt><trkpt lat="44.17891831892747" lon="10.875156409409472"><ele>752.25</ele><time>2026-04-28T09:24:06.842Z</time></trkpt><trkpt lat="44.17881423460442" lon="10.875035715993246"><ele>748.5</ele><time>2026-04-28T09:24:07.842Z</time></trkpt><trkpt lat="44.17869205150957" lon="10.874934254640666"><ele>744.75</ele><time>2026-04-28T09:24:08.842Z</time></trkpt><trkpt lat="44.178577831858654" lon="10.874837737597897"><ele>741.0</ele><time>2026-04-28T09:24:09.842Z</time></trkpt><trkpt lat="44.17847178399977" lon="10.874730821182773"><ele>741.0</ele><time>2026-04-28T09:24:10.842Z</time></trkpt><trkpt lat="44.178389222106865" lon="10.874569191977404"><ele>741.0</ele><time>2026-04-28T09:24:11.842Z</time></trkpt><trkpt lat="44.17832426808836" lon="10.874395105589565"><ele>741.0</ele><time>2026-04-28T09:24:12.842Z</time></trkpt><trkpt lat="44.17825515346785" lon="10.87421548064817"><ele>741.0</ele><time>2026-04-28T09:24:13.842Z</time></trkpt><trkpt lat="44.178186102818486" lon="10.874043607431712"><ele>740.75</ele><time>2026-04-28T09:24:14.842Z</time></trkpt><trkpt lat="44.178117175161205" lon="10.873895188627017"><ele>740.5</ele><time>2026-04-28T09:24:15.842Z</time></trkpt><trkpt lat="44.178049114323336" lon="10.87372954669876"><ele>740.25</ele><time>2026-04-28T09:24:16.842Z</time></trkpt><trkpt lat="44.17798295245757" lon="10.873550621114166"><ele>740.0</ele><time>2026-04-28T09:24:17.842Z</time></trkpt><trkpt lat="44.17790512215188" lon="10.873376813947736"><ele>740.0</ele><time>2026-04-28T09:24:18.842Z</time></trkpt><trkpt lat="44.177820709600276" lon="10.87321495061716"><ele>740.0</ele><time>2026-04-28T09:24:19.842Z</time></trkpt><trkpt lat="44.17772952824416" lon="10.87306830277416"><ele>740.0</ele><time>2026-04-28T09:24:20.842Z</time></trkpt><trkpt lat="44.17762748119506" lon="10.872942279711937"><ele>740.0</ele><time>2026-04-28T09:24:21.842Z</time></trkpt><trkpt lat="44.17751847121341" lon="10.872813136180975"><ele>740.0</ele><time>2026-04-28T09:24:22.842Z</time></trkpt><trkpt lat="44.177415243714464" lon="10.872672924554976"><ele>740.0</ele><time>2026-04-28T09:24:23.842Z</time></trkpt><trkpt lat="44.17729210704034" lon="10.87256285973428"><ele>740.0</ele><time>2026-04-28T09:24:24.842Z</time></trkpt><trkpt lat="44.17716231296419" lon="10.87246697895789"><ele>740.0</ele><time>2026-04-28T09:24:25.842Z</time></trkpt><trkpt lat="44.177030536425875" lon="10.872379901655671"><ele>738.6666666666666</ele><time>2026-04-28T09:24:26.842Z</time></trkpt><trkpt lat="44.17689103899194" lon="10.872289748818522"><ele>737.3333333333334</ele><time>2026-04-28T09:24:27.842Z</time></trkpt><trkpt lat="44.17675569846277" lon="10.872191763985033"><ele>736.0</ele><time>2026-04-28T09:24:28.842Z</time></trkpt><trkpt lat="44.17663016993807" lon="10.872073381211178"><ele>736.75</ele><time>2026-04-28T09:24:29.842Z</time></trkpt><trkpt lat="44.17650104219038" lon="10.871943248911494"><ele>737.5</ele><time>2026-04-28T09:24:30.842Z</time></trkpt><trkpt lat="44.17637609532207" lon="10.871829636396559"><ele>738.25</ele><time>2026-04-28T09:24:31.842Z</time></trkpt><trkpt lat="44.176264461065394" lon="10.87171582202083"><ele>739.0</ele><time>2026-04-28T09:24:32.842Z</time></trkpt><trkpt lat="44.17613587634818" lon="10.87163259799146"><ele>739.0</ele><time>2026-04-28T09:24:33.842Z</time></trkpt><trkpt lat="44.17600899106897" lon="10.871567375616223"><ele>739.0</ele><time>2026-04-28T09:24:34.842Z</time></trkpt><trkpt lat="44.17587887121765" lon="10.871515737548792"><ele>739.0</ele><time>2026-04-28T09:24:35.842Z</time></trkpt><trkpt lat="44.17575785870683" lon="10.87148039847662"><ele>739.0</ele><time>2026-04-28T09:24:36.842Z</time></trkpt><trkpt lat="44.17563654049941" lon="10.871464615894258"><ele>739.75</ele><time>2026-04-28T09:24:37.842Z</time></trkpt><trkpt lat="44.175516184162355" lon="10.871485392789126"><ele>740.5</ele><time>2026-04-28T09:24:38.842Z</time></trkpt><trkpt lat="44.17539061104981" lon="10.87154054218811"><ele>741.25</ele><time>2026-04-28T09:24:39.842Z</time></trkpt><trkpt lat="44.175267229715075" lon="10.871592884935927"><ele>742.0</ele><time>2026-04-28T09:24:40.842Z</time></trkpt><trkpt lat="44.17514541434948" lon="10.871650921075684"><ele>742.0</ele><time>2026-04-28T09:24:41.842Z</time></trkpt><trkpt lat="44.17502824534512" lon="10.87170846664096"><ele>742.0</ele><time>2026-04-28T09:24:42.842Z</time></trkpt><trkpt lat="44.174909344301895" lon="10.871784750210114"><ele>742.0</ele><time>2026-04-28T09:24:43.842Z</time></trkpt><trkpt lat="44.17479708574831" lon="10.871890784440874"><ele>742.0</ele><time>2026-04-28T09:24:44.842Z</time></trkpt><trkpt lat="44.174686332757496" lon="10.87201764136772"><ele>744.25</ele><time>2026-04-28T09:24:45.841Z</time></trkpt><trkpt lat="44.17458325439789" lon="10.872151479813166"><ele>746.5</ele><time>2026-04-28T09:24:46.841Z</time></trkpt><trkpt lat="44.17449627434733" lon="10.872284266785515"><ele>748.75</ele><time>2026-04-28T09:24:47.841Z</time></trkpt><trkpt lat="44.174423707801694" lon="10.872408428779005"><ele>751.0</ele><time>2026-04-28T09:24:48.842Z</time></trkpt><trkpt lat="44.17435963214169" lon="10.872523878286076"><ele>750.5</ele><time>2026-04-28T09:24:49.841Z</time></trkpt><trkpt lat="44.17430995472593" lon="10.872658209686547"><ele>750.0</ele><time>2026-04-28T09:24:50.841Z</time></trkpt><trkpt lat="44.174279834392685" lon="10.872802618616193"><ele>749.5</ele><time>2026-04-28T09:24:51.841Z</time></trkpt><trkpt lat="44.17428725749015" lon="10.872967567528699"><ele>749.0</ele><time>2026-04-28T09:24:52.841Z</time></trkpt><trkpt lat="44.17433867060787" lon="10.873136203083087"><ele>749.0</ele><time>2026-04-28T09:24:53.841Z</time></trkpt><trkpt lat="44.17439293055914" lon="10.873265076373842"><ele>749.0</ele><time>2026-04-28T09:24:54.842Z</time></trkpt><trkpt lat="44.1744311065122" lon="10.873390371012677"><ele>749.0</ele><time>2026-04-28T09:24:55.841Z</time></trkpt><trkpt lat="44.17446101004673" lon="10.87352533833813"><ele>749.0</ele><time>2026-04-28T09:24:56.841Z</time></trkpt><trkpt lat="44.17442455592115" lon="10.873665306051894"><ele>749.0</ele><time>2026-04-28T09:24:57.841Z</time></trkpt><trkpt lat="44.17435599651884" lon="10.87379719874647"><ele>748.75</ele><time>2026-04-28T09:24:58.841Z</time></trkpt><trkpt lat="44.1742575224094" lon="10.873926695877604"><ele>748.5</ele><time>2026-04-28T09:24:59.841Z</time></trkpt><trkpt lat="44.17415249150491" lon="10.874043457130835"><ele>748.25</ele><time>2026-04-28T09:25:00.841Z</time></trkpt><trkpt lat="44.17407708782003" lon="10.874162987524667"><ele>748.0</ele><time>2026-04-28T09:25:01.841Z</time></trkpt><trkpt lat="44.17402745741792" lon="10.874302974617475"><ele>751.0</ele><time>2026-04-28T09:25:02.841Z</time></trkpt><trkpt lat="44.174008564219214" lon="10.874452678498395"><ele>754.0</ele><time>2026-04-28T09:25:03.841Z</time></trkpt><trkpt lat="44.17400842807625" lon="10.87463599016153"><ele>757.0</ele><time>2026-04-28T09:25:04.841Z</time></trkpt><trkpt lat="44.17401387913068" lon="10.874808858617616"><ele>760.0</ele><time>2026-04-28T09:25:05.841Z</time></trkpt><trkpt lat="44.17401020178532" lon="10.874974537499979"><ele>759.5</ele><time>2026-04-28T09:25:06.841Z</time></trkpt><trkpt lat="44.173979902728625" lon="10.875139269484267"><ele>759.0</ele><time>2026-04-28T09:25:07.841Z</time></trkpt><trkpt lat="44.17396978577136" lon="10.875300100702177"><ele>758.5</ele><time>2026-04-28T09:25:08.841Z</time></trkpt><trkpt lat="44.17392362221798" lon="10.875453612785396"><ele>758.0</ele><time>2026-04-28T09:25:09.841Z</time></trkpt><trkpt lat="44.17385876154208" lon="10.87558931264491"><ele>758.0</ele><time>2026-04-28T09:25:10.841Z</time></trkpt><trkpt lat="44.17377767687001" lon="10.875736326929847"><ele>758.0</ele><time>2026-04-28T09:25:11.841Z</time></trkpt><trkpt lat="44.17370024435923" lon="10.87589812903465"><ele>758.0</ele><time>2026-04-28T09:25:12.841Z</time></trkpt><trkpt lat="44.17366518088418" lon="10.876092689746876"><ele>758.0</ele><time>2026-04-28T09:25:13.841Z</time></trkpt><trkpt lat="44.17363364356916" lon="10.876285703814471"><ele>757.75</ele><time>2026-04-28T09:25:14.841Z</time></trkpt><trkpt lat="44.1736431518123" lon="10.876474380640005"><ele>757.5</ele><time>2026-04-28T09:25:15.841Z</time></trkpt><trkpt lat="44.17367441433628" lon="10.87663908941697"><ele>757.25</ele><time>2026-04-28T09:25:16.841Z</time></trkpt><trkpt lat="44.17365857238272" lon="10.876798987569817"><ele>757.0</ele><time>2026-04-28T09:25:17.841Z</time></trkpt><trkpt lat="44.17362143893215" lon="10.876943210784132"><ele>757.0</ele><time>2026-04-28T09:25:18.841Z</time></trkpt><trkpt lat="44.17360316434067" lon="10.877071727074222"><ele>757.0</ele><time>2026-04-28T09:25:19.841Z</time></trkpt><trkpt lat="44.17360718855329" lon="10.87718909569394"><ele>757.0</ele><time>2026-04-28T09:25:20.841Z</time></trkpt><trkpt lat="44.17364120816743" lon="10.877329393741073"><ele>757.0</ele><time>2026-04-28T09:25:21.841Z</time></trkpt><trkpt lat="44.173730687724884" lon="10.87744151716736"><ele>757.0</ele><time>2026-04-28T09:25:22.841Z</time></trkpt><trkpt lat="44.173812639017534" lon="10.87753960660735"><ele>755.75</ele><time>2026-04-28T09:25:23.841Z</time></trkpt><trkpt lat="44.17387308678987" lon="10.877647204437832"><ele>754.5</ele><time>2026-04-28T09:25:24.841Z</time></trkpt><trkpt lat="44.17390483264655" lon="10.877808420408625"><ele>753.25</ele><time>2026-04-28T09:25:25.841Z</time></trkpt><trkpt lat="44.173896194512196" lon="10.877982926171669"><ele>752.0</ele><time>2026-04-28T09:25:26.841Z</time></trkpt><trkpt lat="44.17385853226605" lon="10.878155411468455"><ele>752.0</ele><time>2026-04-28T09:25:27.841Z</time></trkpt><trkpt lat="44.173801336965866" lon="10.878313264110748"><ele>752.0</ele><time>2026-04-28T09:25:28.841Z</time></trkpt><trkpt lat="44.1737445298074" lon="10.878455244577829"><ele>752.0</ele><time>2026-04-28T09:25:29.841Z</time></trkpt><trkpt lat="44.17366560849257" lon="10.878567022667767"><ele>752.0</ele><time>2026-04-28T09:25:30.841Z</time></trkpt><trkpt lat="44.173555921918386" lon="10.87864229788846"><ele>748.4000000000001</ele><time>2026-04-28T09:25:31.841Z</time></trkpt><trkpt lat="44.1734548192534" lon="10.878687246178092"><ele>744.8000000000001</ele><time>2026-04-28T09:25:32.841Z</time></trkpt><trkpt lat="44.17335927023352" lon="10.878736532314255"><ele>741.2</ele><time>2026-04-28T09:25:33.841Z</time></trkpt><trkpt lat="44.17328606487003" lon="10.8788308627314"><ele>737.6</ele><time>2026-04-28T09:25:34.841Z</time></trkpt><trkpt lat="44.173248561079944" lon="10.878967025121428"><ele>734.0</ele><time>2026-04-28T09:25:35.841Z</time></trkpt><trkpt lat="44.17322466985305" lon="10.879148070609608"><ele>731.0</ele><time>2026-04-28T09:25:36.841Z</time></trkpt><trkpt lat="44.173211363537675" lon="10.879338060934941"><ele>728.0</ele><time>2026-04-28T09:25:37.841Z</time></trkpt><trkpt lat="44.17321721706127" lon="10.879566555844123"><ele>725.0</ele><time>2026-04-28T09:25:38.841Z</time></trkpt><trkpt lat="44.17324795910721" lon="10.879810315058089"><ele>725.0</ele><time>2026-04-28T09:25:39.841Z</time></trkpt><trkpt lat="44.17328258399748" lon="10.880037839183089"><ele>725.0</ele><time>2026-04-28T09:25:40.841Z</time></trkpt><trkpt lat="44.173315343619535" lon="10.880246834270416"><ele>725.0</ele><time>2026-04-28T09:25:41.841Z</time></trkpt><trkpt lat="44.173350043185266" lon="10.880454738958427"><ele>726.0</ele><time>2026-04-28T09:25:42.841Z</time></trkpt><trkpt lat="44.17337953347808" lon="10.88065261978847"><ele>727.0</ele><time>2026-04-28T09:25:43.841Z</time></trkpt><trkpt lat="44.173412195818635" lon="10.880848891505183"><ele>728.0</ele><time>2026-04-28T09:25:44.841Z</time></trkpt><trkpt lat="44.17343318211645" lon="10.881038239885694"><ele>729.0</ele><time>2026-04-28T09:25:45.841Z</time></trkpt><trkpt lat="44.17346297988434" lon="10.881218156766714"><ele>729.4000000000001</ele><time>2026-04-28T09:25:46.841Z</time></trkpt><trkpt lat="44.17349206048068" lon="10.881389201752151"><ele>729.8</ele><time>2026-04-28T09:25:47.841Z</time></trkpt><trkpt lat="44.17352224148386" lon="10.881546070033005"><ele>730.2</ele><time>2026-04-28T09:25:48.841Z</time></trkpt><trkpt lat="44.17354205578961" lon="10.881690709346293"><ele>730.5999999999999</ele><time>2026-04-28T09:25:49.841Z</time></trkpt><trkpt lat="44.173548300600125" lon="10.881825011309422"><ele>731.0</ele><time>2026-04-28T09:25:50.841Z</time></trkpt><trkpt lat="44.17352698059535" lon="10.881956276197803"><ele>728.0</ele><time>2026-04-28T09:25:51.841Z</time></trkpt><trkpt lat="44.1734715045985" lon="10.882090394571446"><ele>725.0</ele><time>2026-04-28T09:25:52.841Z</time></trkpt><trkpt lat="44.173387659716006" lon="10.882215621122864"><ele>722.0</ele><time>2026-04-28T09:25:53.841Z</time></trkpt><trkpt lat="44.173295803170454" lon="10.882347461480002"><ele>719.0</ele><time>2026-04-28T09:25:54.841Z</time></trkpt><trkpt lat="44.17320235849267" lon="10.882457301911028"><ele>719.4000000000001</ele><time>2026-04-28T09:25:55.841Z</time></trkpt><trkpt lat="44.17311586901625" lon="10.88256151406605"><ele>719.8</ele><time>2026-04-28T09:25:56.841Z</time></trkpt><trkpt lat="44.1730291310876" lon="10.882661375302488"><ele>720.2</ele><time>2026-04-28T09:25:57.841Z</time></trkpt><trkpt lat="44.172945246730926" lon="10.882751933690127"><ele>720.5999999999999</ele><time>2026-04-28T09:25:58.841Z</time></trkpt><trkpt lat="44.17285941299598" lon="10.882813722475722"><ele>721.0</ele><time>2026-04-28T09:25:59.841Z</time></trkpt><trkpt lat="44.1727624670406" lon="10.882836198389437"><ele>721.0</ele><time>2026-04-28T09:26:00.841Z</time></trkpt><trkpt lat="44.17266918615542" lon="10.882806675005193"><ele>721.0</ele><time>2026-04-28T09:26:01.841Z</time></trkpt><trkpt lat="44.17258013724544" lon="10.88273845612922"><ele>721.0</ele><time>2026-04-28T09:26:02.841Z</time></trkpt><trkpt lat="44.17249550149945" lon="10.882650696211986"><ele>721.0</ele><time>2026-04-28T09:26:03.841Z</time></trkpt><trkpt lat="44.17239431768261" lon="10.88258751072424"><ele>721.0</ele><time>2026-04-28T09:26:04.841Z</time></trkpt><trkpt lat="44.17229019247411" lon="10.88256995526311"><ele>720.1999999999999</ele><time>2026-04-28T09:26:05.841Z</time></trkpt><trkpt lat="44.17218997453243" lon="10.882576523850016"><ele>719.4</ele><time>2026-04-28T09:26:06.841Z</time></trkpt><trkpt lat="44.1720932471827" lon="10.882602263205037"><ele>718.6</ele><time>2026-04-28T09:26:07.841Z</time></trkpt><trkpt lat="44.17200089078768" lon="10.882636383387771"><ele>717.8</ele><time>2026-04-28T09:26:08.841Z</time></trkpt><trkpt lat="44.17191123071183" lon="10.882665723682155"><ele>717.0</ele><time>2026-04-28T09:26:09.841Z</time></trkpt><trkpt lat="44.171826890706974" lon="10.882689101129692"><ele>716.6666666666666</ele><time>2026-04-28T09:26:10.841Z</time></trkpt><trkpt lat="44.17175147800746" lon="10.882713482866496"><ele>716.3333333333334</ele><time>2026-04-28T09:26:11.841Z</time></trkpt><trkpt lat="44.171680749289145" lon="10.882754760540568"><ele>716.0</ele><time>2026-04-28T09:26:12.841Z</time></trkpt><trkpt lat="44.1716207213785" lon="10.882815083695228"><ele>715.6666666666667</ele><time>2026-04-28T09:26:13.841Z</time></trkpt><trkpt lat="44.17156335897581" lon="10.882890561342496"><ele>715.3333333333334</ele><time>2026-04-28T09:26:14.841Z</time></trkpt><trkpt lat="44.17150391884846" lon="10.882976942618397"><ele>715.0</ele><time>2026-04-28T09:26:15.841Z</time></trkpt><trkpt lat="44.171442526257344" lon="10.883065863556615"><ele>715.0</ele><time>2026-04-28T09:26:16.84Z</time></trkpt><trkpt lat="44.17138643248485" lon="10.883149507126815"><ele>715.0</ele><time>2026-04-28T09:26:17.84Z</time></trkpt><trkpt lat="44.171324291677074" lon="10.883226510442928"><ele>715.0</ele><time>2026-04-28T09:26:18.84Z</time></trkpt><trkpt lat="44.17126059973024" lon="10.883300369875515"><ele>715.0</ele><time>2026-04-28T09:26:19.84Z</time></trkpt><trkpt lat="44.171198778538255" lon="10.883362505252197"><ele>715.0</ele><time>2026-04-28T09:26:20.84Z</time></trkpt><trkpt lat="44.17113700909403" lon="10.883429716068386"><ele>715.0</ele><time>2026-04-28T09:26:21.84Z</time></trkpt><trkpt lat="44.171067316697744" lon="10.88349680398588"><ele>712.6</ele><time>2026-04-28T09:26:22.84Z</time></trkpt><trkpt lat="44.170996849970635" lon="10.883576945106288"><ele>710.2</ele><time>2026-04-28T09:26:23.84Z</time></trkpt><trkpt lat="44.170927737655234" lon="10.883654388114879"><ele>707.8</ele><time>2026-04-28T09:26:24.84Z</time></trkpt><trkpt lat="44.17085497059167" lon="10.883733725142987"><ele>705.4</ele><time>2026-04-28T09:26:25.84Z</time></trkpt><trkpt lat="44.17078037709358" lon="10.883805503817738"><ele>703.0</ele><time>2026-04-28T09:26:26.84Z</time></trkpt><trkpt lat="44.17071030802721" lon="10.883885183110394"><ele>704.4</ele><time>2026-04-28T09:26:27.84Z</time></trkpt><trkpt lat="44.17063519313199" lon="10.883965779778945"><ele>705.8</ele><time>2026-04-28T09:26:28.84Z</time></trkpt><trkpt lat="44.17055577558036" lon="10.884052516751204"><ele>707.2</ele><time>2026-04-28T09:26:29.84Z</time></trkpt><trkpt lat="44.170483364127875" lon="10.88414027033725"><ele>708.6</ele><time>2026-04-28T09:26:30.84Z</time></trkpt><trkpt lat="44.17041360879579" lon="10.884229105036518"><ele>710.0</ele><time>2026-04-28T09:26:31.84Z</time></trkpt><trkpt lat="44.17035692669936" lon="10.884322746626406"><ele>707.6666666666666</ele><time>2026-04-28T09:26:32.84Z</time></trkpt><trkpt lat="44.17031664322877" lon="10.884408375728677"><ele>705.3333333333333</ele><time>2026-04-28T09:26:33.84Z</time></trkpt><trkpt lat="44.170272005966844" lon="10.88449592179195"><ele>703.0</ele><time>2026-04-28T09:26:34.84Z</time></trkpt><trkpt lat="44.17021433173493" lon="10.884584785868"><ele>700.6666666666666</ele><time>2026-04-28T09:26:35.84Z</time></trkpt><trkpt lat="44.170136679023464" lon="10.884650458631638"><ele>698.3333333333334</ele><time>2026-04-28T09:26:36.84Z</time></trkpt><trkpt lat="44.17004397340975" lon="10.884695099823233"><ele>696.0</ele><time>2026-04-28T09:26:37.84Z</time></trkpt><trkpt lat="44.16993119077765" lon="10.884733162513509"><ele>696.0</ele><time>2026-04-28T09:26:38.84Z</time></trkpt><trkpt lat="44.16981812945478" lon="10.884733103187564"><ele>696.0</ele><time>2026-04-28T09:26:39.84Z</time></trkpt><trkpt lat="44.16970834524107" lon="10.884718170037456"><ele>696.0</ele><time>2026-04-28T09:26:40.84Z</time></trkpt><trkpt lat="44.1696067497848" lon="10.884721213046115"><ele>696.0</ele><time>2026-04-28T09:26:41.84Z</time></trkpt><trkpt lat="44.1695128741705" lon="10.884750532770205"><ele>696.0</ele><time>2026-04-28T09:26:42.84Z</time></trkpt><trkpt lat="44.169425816079205" lon="10.884818143688191"><ele>696.0</ele><time>2026-04-28T09:26:43.84Z</time></trkpt><trkpt lat="44.169359280918485" lon="10.884900421897116"><ele>696.0</ele><time>2026-04-28T09:26:44.84Z</time></trkpt><trkpt lat="44.16930590791666" lon="10.884968847774227"><ele>696.0</ele><time>2026-04-28T09:26:45.84Z</time></trkpt><trkpt lat="44.1692314818408" lon="10.88500220342969"><ele>696.0</ele><time>2026-04-28T09:26:46.84Z</time></trkpt><trkpt lat="44.169142320072865" lon="10.884989580344296"><ele>696.0</ele><time>2026-04-28T09:26:47.84Z</time></trkpt><trkpt lat="44.16907306898952" lon="10.884919090605381"><ele>696.0</ele><time>2026-04-28T09:26:48.84Z</time></trkpt><trkpt lat="44.16880874454634" lon="10.884139063152057"><ele>691.75</ele><time>2026-04-28T09:26:53.839Z</time></trkpt><trkpt lat="44.16875896485407" lon="10.883961494551862"><ele>687.5</ele><time>2026-04-28T09:26:54.839Z</time></trkpt><trkpt lat="44.16869821585296" lon="10.883808293856351"><ele>683.25</ele><time>2026-04-28T09:26:55.839Z</time></trkpt><trkpt lat="44.168624418094836" lon="10.883665351193406"><ele>679.0</ele><time>2026-04-28T09:26:56.839Z</time></trkpt><trkpt lat="44.168541176718044" lon="10.883529878604717"><ele>680.5</ele><time>2026-04-28T09:26:57.84Z</time></trkpt><trkpt lat="44.1684539920275" lon="10.883421956544124"><ele>682.0</ele><time>2026-04-28T09:26:58.839Z</time></trkpt><trkpt lat="44.168354097275646" lon="10.883329694205278"><ele>683.5</ele><time>2026-04-28T09:26:59.839Z</time></trkpt><trkpt lat="44.16824882025304" lon="10.883250600960482"><ele>685.0</ele><time>2026-04-28T09:27:00.839Z</time></trkpt><trkpt lat="44.1681332824331" lon="10.88319340586452"><ele>685.0</ele><time>2026-04-28T09:27:01.839Z</time></trkpt><trkpt lat="44.16800035336064" lon="10.883148753463523"><ele>685.0</ele><time>2026-04-28T09:27:02.839Z</time></trkpt><trkpt lat="44.16785151110897" lon="10.88313117728483"><ele>685.0</ele><time>2026-04-28T09:27:03.839Z</time></trkpt><trkpt lat="44.16770481489722" lon="10.883135982497166"><ele>685.0</ele><time>2026-04-28T09:27:04.839Z</time></trkpt><trkpt lat="44.16757863040293" lon="10.883167662483624"><ele>685.0</ele><time>2026-04-28T09:27:05.839Z</time></trkpt><trkpt lat="44.16744212093298" lon="10.883210694918553"><ele>685.0</ele><time>2026-04-28T09:27:06.839Z</time></trkpt><trkpt lat="44.16733008619886" lon="10.883309926248218"><ele>685.0</ele><time>2026-04-28T09:27:07.839Z</time></trkpt><trkpt lat="44.16721770645231" lon="10.883406929622318"><ele>685.0</ele><time>2026-04-28T09:27:08.839Z</time></trkpt><trkpt lat="44.16711063365988" lon="10.883506977953568"><ele>682.25</ele><time>2026-04-28T09:27:09.839Z</time></trkpt><trkpt lat="44.16699662905847" lon="10.883573336028897"><ele>679.5</ele><time>2026-04-28T09:27:10.839Z</time></trkpt><trkpt lat="44.16688035894271" lon="10.883641464268093"><ele>676.75</ele><time>2026-04-28T09:27:11.839Z</time></trkpt><trkpt lat="44.16675142287699" lon="10.883698910570024"><ele>674.0</ele><time>2026-04-28T09:27:12.839Z</time></trkpt><trkpt lat="44.16662572429466" lon="10.883695357594506"><ele>677.0</ele><time>2026-04-28T09:27:13.838Z</time></trkpt><trkpt lat="44.166501527386764" lon="10.883694118160117"><ele>680.0</ele><time>2026-04-28T09:27:14.838Z</time></trkpt><trkpt lat="44.166371573529304" lon="10.883722396961437"><ele>683.0</ele><time>2026-04-28T09:27:15.838Z</time></trkpt><trkpt lat="44.16623795126517" lon="10.883801285690168"><ele>686.0</ele><time>2026-04-28T09:27:16.838Z</time></trkpt><trkpt lat="44.166116256217606" lon="10.883906513794917"><ele>686.0</ele><time>2026-04-28T09:27:17.838Z</time></trkpt><trkpt lat="44.16599758297547" lon="10.884002654024444"><ele>686.0</ele><time>2026-04-28T09:27:18.838Z</time></trkpt><trkpt lat="44.165884575481876" lon="10.884086247159678"><ele>686.0</ele><time>2026-04-28T09:27:19.838Z</time></trkpt><trkpt lat="44.16578002529002" lon="10.884156926102671"><ele>686.0</ele><time>2026-04-28T09:27:20.838Z</time></trkpt><trkpt lat="44.165684448351215" lon="10.884241807668646"><ele>693.1999999999999</ele><time>2026-04-28T09:27:21.838Z</time></trkpt><trkpt lat="44.16561190657966" lon="10.884345350862931"><ele>700.4</ele><time>2026-04-28T09:27:22.838Z</time></trkpt><trkpt lat="44.16557980834527" lon="10.884455850216481"><ele>707.6</ele><time>2026-04-28T09:27:23.838Z</time></trkpt><trkpt lat="44.16553654043883" lon="10.884593083867596"><ele>714.8</ele><time>2026-04-28T09:27:24.838Z</time></trkpt><trkpt lat="44.16555581655595" lon="10.884761585617085"><ele>722.0</ele><time>2026-04-28T09:27:25.838Z</time></trkpt><trkpt lat="44.16559689570989" lon="10.884920168718711"><ele>722.0</ele><time>2026-04-28T09:27:26.838Z</time></trkpt><trkpt lat="44.165625943342114" lon="10.885060880478619"><ele>722.0</ele><time>2026-04-28T09:27:27.838Z</time></trkpt><trkpt lat="44.16562814571379" lon="10.885185135574647"><ele>722.0</ele><time>2026-04-28T09:27:28.838Z</time></trkpt><trkpt lat="44.16560067377837" lon="10.885354850019233"><ele>722.0</ele><time>2026-04-28T09:27:29.838Z</time></trkpt><trkpt lat="44.16550713501042" lon="10.885508691054234"><ele>718.75</ele><time>2026-04-28T09:27:30.838Z</time></trkpt><trkpt lat="44.16543141556601" lon="10.885689929752054"><ele>715.5</ele><time>2026-04-28T09:27:31.838Z</time></trkpt><trkpt lat="44.165346105238356" lon="10.885849912841024"><ele>712.25</ele><time>2026-04-28T09:27:32.838Z</time></trkpt><trkpt lat="44.16527386075635" lon="10.886027534638481"><ele>709.0</ele><time>2026-04-28T09:27:33.838Z</time></trkpt><trkpt lat="44.165193252419904" lon="10.886182988797362"><ele>710.5</ele><time>2026-04-28T09:27:34.838Z</time></trkpt><trkpt lat="44.16511847969925" lon="10.886321707778624"><ele>712.0</ele><time>2026-04-28T09:27:35.838Z</time></trkpt><trkpt lat="44.16502272465558" lon="10.88644933010954"><ele>713.5</ele><time>2026-04-28T09:27:36.838Z</time></trkpt><trkpt lat="44.164929984790376" lon="10.886581556432311"><ele>715.0</ele><time>2026-04-28T09:27:37.838Z</time></trkpt><trkpt lat="44.164851013159975" lon="10.886703453370117"><ele>708.25</ele><time>2026-04-28T09:27:38.838Z</time></trkpt><trkpt lat="44.16479881637465" lon="10.88686340721978"><ele>701.5</ele><time>2026-04-28T09:27:39.838Z</time></trkpt><trkpt lat="44.16473812785582" lon="10.887047191335393"><ele>694.75</ele><time>2026-04-28T09:27:40.838Z</time></trkpt><trkpt lat="44.16467779176682" lon="10.887229659423173"><ele>688.0</ele><time>2026-04-28T09:27:41.838Z</time></trkpt><trkpt lat="44.16460983157891" lon="10.8873916080532"><ele>688.0</ele><time>2026-04-28T09:27:42.838Z</time></trkpt><trkpt lat="44.164528885914635" lon="10.887536902198779"><ele>688.0</ele><time>2026-04-28T09:27:43.838Z</time></trkpt><trkpt lat="44.16442757204111" lon="10.887663141366621"><ele>688.0</ele><time>2026-04-28T09:27:44.838Z</time></trkpt><trkpt lat="44.16431672813263" lon="10.887756318213224"><ele>688.0</ele><time>2026-04-28T09:27:45.838Z</time></trkpt><trkpt lat="44.16420321025498" lon="10.887836409208477"><ele>692.75</ele><time>2026-04-28T09:27:46.838Z</time></trkpt><trkpt lat="44.16409847374658" lon="10.887940855632067"><ele>697.5</ele><time>2026-04-28T09:27:47.838Z</time></trkpt><trkpt lat="44.16401460325545" lon="10.888063916931152"><ele>702.25</ele><time>2026-04-28T09:27:48.838Z</time></trkpt><trkpt lat="44.16393461903576" lon="10.888210896274467"><ele>707.0</ele><time>2026-04-28T09:27:49.838Z</time></trkpt><trkpt lat="44.163887454578855" lon="10.888377443354145"><ele>705.25</ele><time>2026-04-28T09:27:50.838Z</time></trkpt><trkpt lat="44.16386139992195" lon="10.88856806399128"><ele>703.5</ele><time>2026-04-28T09:27:51.838Z</time></trkpt><trkpt lat="44.16385262621571" lon="10.888755463480317"><ele>701.75</ele><time>2026-04-28T09:27:52.838Z</time></trkpt><trkpt lat="44.16384412144921" lon="10.88892379911589"><ele>700.0</ele><time>2026-04-28T09:27:53.838Z</time></trkpt><trkpt lat="44.163870570554295" lon="10.889094059244952"><ele>700.0</ele><time>2026-04-28T09:27:54.838Z</time></trkpt><trkpt lat="44.163942994213755" lon="10.889248092300436"><ele>700.0</ele><time>2026-04-28T09:27:55.838Z</time></trkpt><trkpt lat="44.16404247310295" lon="10.889368487111277"><ele>700.0</ele><time>2026-04-28T09:27:56.838Z</time></trkpt><trkpt lat="44.16411682985771" lon="10.889468893821062"><ele>700.0</ele><time>2026-04-28T09:27:57.838Z</time></trkpt><trkpt lat="44.16420093114121" lon="10.88961632069402"><ele>693.5</ele><time>2026-04-28T09:27:58.838Z</time></trkpt><trkpt lat="44.16421973501092" lon="10.889811790303778"><ele>687.0</ele><time>2026-04-28T09:27:59.838Z</time></trkpt><trkpt lat="44.164235824291794" lon="10.890003037956316"><ele>680.5</ele><time>2026-04-28T09:28:00.838Z</time></trkpt><trkpt lat="44.164271313554565" lon="10.890209297599412"><ele>674.0</ele><time>2026-04-28T09:28:01.838Z</time></trkpt><trkpt lat="44.16434482363237" lon="10.890389826840254"><ele>674.0</ele><time>2026-04-28T09:28:02.838Z</time></trkpt><trkpt lat="44.16443207993878" lon="10.890539518352753"><ele>674.0</ele><time>2026-04-28T09:28:03.838Z</time></trkpt><trkpt lat="44.164493662722826" lon="10.890698364703127"><ele>674.0</ele><time>2026-04-28T09:28:04.838Z</time></trkpt><trkpt lat="44.16452954997902" lon="10.890862779831375"><ele>674.0</ele><time>2026-04-28T09:28:05.838Z</time></trkpt><trkpt lat="44.164542897474355" lon="10.891032218885128"><ele>672.75</ele><time>2026-04-28T09:28:06.838Z</time></trkpt><trkpt lat="44.16453119371595" lon="10.891220407430106"><ele>671.5</ele><time>2026-04-28T09:28:07.838Z</time></trkpt><trkpt lat="44.16449780469536" lon="10.891410691400978"><ele>670.25</ele><time>2026-04-28T09:28:08.838Z</time></trkpt><trkpt lat="44.164484494381526" lon="10.891595034820387"><ele>669.0</ele><time>2026-04-28T09:28:09.838Z</time></trkpt><trkpt lat="44.164506285463354" lon="10.891782857215624"><ele>667.75</ele><time>2026-04-28T09:28:10.838Z</time></trkpt><trkpt lat="44.1645534785898" lon="10.891962159328363"><ele>666.5</ele><time>2026-04-28T09:28:11.838Z</time></trkpt><trkpt lat="44.16460099343273" lon="10.892143213824495"><ele>665.25</ele><time>2026-04-28T09:28:12.838Z</time></trkpt><trkpt lat="44.1646192004316" lon="10.892333990286648"><ele>664.0</ele><time>2026-04-28T09:28:13.838Z</time></trkpt><trkpt lat="44.16465200569466" lon="10.892505241925557"><ele>662.4000000000001</ele><time>2026-04-28T09:28:14.838Z</time></trkpt><trkpt lat="44.16467499545154" lon="10.892645478084983"><ele>660.8</ele><time>2026-04-28T09:28:15.838Z</time></trkpt><trkpt lat="44.164705952333684" lon="10.892793340170439"><ele>659.2</ele><time>2026-04-28T09:28:16.838Z</time></trkpt><trkpt lat="44.16472227695053" lon="10.892932172602563"><ele>657.5999999999999</ele><time>2026-04-28T09:28:17.838Z</time></trkpt><trkpt lat="44.16473030371434" lon="10.893062868516845"><ele>656.0</ele><time>2026-04-28T09:28:18.838Z</time></trkpt><trkpt lat="44.16470171773778" lon="10.89319001689689"><ele>656.0</ele><time>2026-04-28T09:28:19.838Z</time></trkpt><trkpt lat="44.16465883280172" lon="10.893303638230364"><ele>656.0</ele><time>2026-04-28T09:28:20.838Z</time></trkpt><trkpt lat="44.16458532246202" lon="10.893377312486829"><ele>656.0</ele><time>2026-04-28T09:28:21.838Z</time></trkpt><trkpt lat="44.1645192902641" lon="10.893440133458974"><ele>656.0</ele><time>2026-04-28T09:28:22.838Z</time></trkpt><trkpt lat="44.16445879364831" lon="10.893507324846055"><ele>656.0</ele><time>2026-04-28T09:28:23.838Z</time></trkpt><trkpt lat="44.16438113261581" lon="10.893568952327719"><ele>656.0</ele><time>2026-04-28T09:28:24.838Z</time></trkpt><trkpt lat="44.1642989795399" lon="10.893605005986771"><ele>654.0</ele><time>2026-04-28T09:28:25.838Z</time></trkpt><trkpt lat="44.1641557762726" lon="10.893685066493603"><ele>652.0</ele><time>2026-04-28T09:28:27.838Z</time></trkpt><trkpt lat="44.164063875068386" lon="10.89371268799034"><ele>650.0</ele><time>2026-04-28T09:28:28.838Z</time></trkpt><trkpt lat="44.163989305629194" lon="10.893743952693427"><ele>648.0</ele><time>2026-04-28T09:28:29.838Z</time></trkpt><trkpt lat="44.16391591324066" lon="10.893775744542936"><ele>646.0</ele><time>2026-04-28T09:28:30.838Z</time></trkpt><trkpt lat="44.16383947235841" lon="10.893798370015494"><ele>646.0</ele><time>2026-04-28T09:28:31.838Z</time></trkpt><trkpt lat="44.16376758697594" lon="10.893822118614883"><ele>646.0</ele><time>2026-04-28T09:28:32.838Z</time></trkpt><trkpt lat="44.163644230978356" lon="10.893876776488554"><ele>646.0</ele><time>2026-04-28T09:28:34.838Z</time></trkpt><trkpt lat="44.16356996420274" lon="10.893920452498467"><ele>646.0</ele><time>2026-04-28T09:28:35.838Z</time></trkpt><trkpt lat="44.163502200699156" lon="10.8939264554247"><ele>646.0</ele><time>2026-04-28T09:28:36.838Z</time></trkpt><trkpt lat="44.163438803087836" lon="10.893952930563925"><ele>646.0</ele><time>2026-04-28T09:28:37.838Z</time></trkpt><trkpt lat="44.16335583605415" lon="10.893988720756656"><ele>646.0</ele><time>2026-04-28T09:28:39.838Z</time></trkpt><trkpt lat="44.16329264043232" lon="10.894010265222729"><ele>646.0</ele><time>2026-04-28T09:28:41.838Z</time></trkpt><trkpt lat="44.16320539947515" lon="10.89404099323035"><ele>646.0</ele><time>2026-04-28T09:28:44.837Z</time></trkpt><trkpt lat="44.16313631102523" lon="10.89406604625644"><ele>646.0</ele><time>2026-04-28T09:28:46.837Z</time></trkpt><trkpt lat="44.16307190600713" lon="10.89407858045486"><ele>646.0</ele><time>2026-04-28T09:28:48.837Z</time></trkpt><trkpt lat="44.162985725629945" lon="10.894104027582523"><ele>646.0</ele><time>2026-04-28T09:28:50.837Z</time></trkpt><trkpt lat="44.16288876372908" lon="10.894139236123214"><ele>645.8</ele><time>2026-04-28T09:28:52.837Z</time></trkpt><trkpt lat="44.16279337112775" lon="10.894165878937628"><ele>645.5999999999999</ele><time>2026-04-28T09:28:54.837Z</time></trkpt><trkpt lat="44.16267918023925" lon="10.894208490925918"><ele>645.4</ele><time>2026-04-28T09:28:56.837Z</time></trkpt><trkpt lat="44.16256381205152" lon="10.894255630814314"><ele>645.2</ele><time>2026-04-28T09:28:58.836Z</time></trkpt><trkpt lat="44.16245524673241" lon="10.894301425349873"><ele>645.0</ele><time>2026-04-28T09:29:00.837Z</time></trkpt><trkpt lat="44.16239338101746" lon="10.894318009345344"><ele>643.0</ele><time>2026-04-28T09:29:01.837Z</time></trkpt><trkpt lat="44.16233224386518" lon="10.894339668262008"><ele>641.0</ele><time>2026-04-28T09:29:02.837Z</time></trkpt><trkpt lat="44.16226616849232" lon="10.894354786951338"><ele>639.0</ele><time>2026-04-28T09:29:03.836Z</time></trkpt><trkpt lat="44.16219700523691" lon="10.894361177593595"><ele>637.0</ele><time>2026-04-28T09:29:04.837Z</time></trkpt><trkpt lat="44.16213231070617" lon="10.894375417577843"><ele>635.0</ele><time>2026-04-28T09:29:05.837Z</time></trkpt><trkpt lat="44.16200843461364" lon="10.894419624236638"><ele>633.0</ele><time>2026-04-28T09:29:07.836Z</time></trkpt><trkpt lat="44.1619384507414" lon="10.894436083631923"><ele>633.0</ele><time>2026-04-28T09:29:08.836Z</time></trkpt><trkpt lat="44.161873290254654" lon="10.894453999669954"><ele>633.0</ele><time>2026-04-28T09:29:09.836Z</time></trkpt><trkpt lat="44.16179853448667" lon="10.894466551473634"><ele>633.0</ele><time>2026-04-28T09:29:10.837Z</time></trkpt><trkpt lat="44.16171506486437" lon="10.89448197131237"><ele>633.0</ele><time>2026-04-28T09:29:11.837Z</time></trkpt><trkpt lat="44.16160035441066" lon="10.894485749483227"><ele>633.0</ele><time>2026-04-28T09:29:12.837Z</time></trkpt><trkpt lat="44.16148628911287" lon="10.894465740194713"><ele>632.4</ele><time>2026-04-28T09:29:13.837Z</time></trkpt><trkpt lat="44.161381808005515" lon="10.894421780234781"><ele>631.8</ele><time>2026-04-28T09:29:14.837Z</time></trkpt><trkpt lat="44.16128261518112" lon="10.894366313545694"><ele>631.2</ele><time>2026-04-28T09:29:15.837Z</time></trkpt><trkpt lat="44.16118776665375" lon="10.89431072498357"><ele>630.6</ele><time>2026-04-28T09:29:16.837Z</time></trkpt><trkpt lat="44.16108773108469" lon="10.894251213603402"><ele>630.0</ele><time>2026-04-28T09:29:17.837Z</time></trkpt><trkpt lat="44.160996258851206" lon="10.894195746482081"><ele>629.4</ele><time>2026-04-28T09:29:18.837Z</time></trkpt><trkpt lat="44.160907388927754" lon="10.89414227317839"><ele>628.8</ele><time>2026-04-28T09:29:19.837Z</time></trkpt><trkpt lat="44.160817363390706" lon="10.894093419863863"><ele>628.2</ele><time>2026-04-28T09:29:20.837Z</time></trkpt><trkpt lat="44.160718230434775" lon="10.89404463393102"><ele>627.6</ele><time>2026-04-28T09:29:21.837Z</time></trkpt><trkpt lat="44.16064043469508" lon="10.893989489701307"><ele>627.0</ele><time>2026-04-28T09:29:22.836Z</time></trkpt><trkpt lat="44.16056296848236" lon="10.893932323542728"><ele>627.0</ele><time>2026-04-28T09:29:23.836Z</time></trkpt><trkpt lat="44.16046702847515" lon="10.89388943997005"><ele>627.0</ele><time>2026-04-28T09:29:24.836Z</time></trkpt><trkpt lat="44.160364054391124" lon="10.8938404868791"><ele>627.0</ele><time>2026-04-28T09:29:25.836Z</time></trkpt><trkpt lat="44.16026336029824" lon="10.893803809683758"><ele>627.0</ele><time>2026-04-28T09:29:26.836Z</time></trkpt><trkpt lat="44.16016985637719" lon="10.893780424892832"><ele>627.0</ele><time>2026-04-28T09:29:27.836Z</time></trkpt><trkpt lat="44.160066467523514" lon="10.893748549811617"><ele>627.0</ele><time>2026-04-28T09:29:28.836Z</time></trkpt><trkpt lat="44.15996579520914" lon="10.893692864569049"><ele>627.0</ele><time>2026-04-28T09:29:29.836Z</time></trkpt><trkpt lat="44.159850185053195" lon="10.89368291412716"><ele>627.0</ele><time>2026-04-28T09:29:30.836Z</time></trkpt><trkpt lat="44.15974037662296" lon="10.893666789441655"><ele>627.0</ele><time>2026-04-28T09:29:31.836Z</time></trkpt><trkpt lat="44.15963159894771" lon="10.893639946128777"><ele>627.0</ele><time>2026-04-28T09:29:32.836Z</time></trkpt><trkpt lat="44.159513817932556" lon="10.89363310742347"><ele>627.2</ele><time>2026-04-28T09:29:33.836Z</time></trkpt><trkpt lat="44.15939481480458" lon="10.893627265823447"><ele>627.4000000000001</ele><time>2026-04-28T09:29:34.836Z</time></trkpt><trkpt lat="44.159281220809795" lon="10.893633001950633"><ele>627.5999999999999</ele><time>2026-04-28T09:29:35.836Z</time></trkpt><trkpt lat="44.159169594551976" lon="10.893622749921928"><ele>627.8</ele><time>2026-04-28T09:29:36.836Z</time></trkpt><trkpt lat="44.15906603507241" lon="10.893623095394279"><ele>628.0</ele><time>2026-04-28T09:29:37.836Z</time></trkpt><trkpt lat="44.15896783893669" lon="10.893643005967391"><ele>628.0</ele><time>2026-04-28T09:29:38.836Z</time></trkpt><trkpt lat="44.15886671482204" lon="10.893692301055594"><ele>628.0</ele><time>2026-04-28T09:29:39.836Z</time></trkpt><trkpt lat="44.15876434154741" lon="10.89375455355406"><ele>628.0</ele><time>2026-04-28T09:29:40.836Z</time></trkpt><trkpt lat="44.158661025873634" lon="10.893829234082101"><ele>628.0</ele><time>2026-04-28T09:29:41.836Z</time></trkpt><trkpt lat="44.15855711308939" lon="10.893920627616533"><ele>628.0</ele><time>2026-04-28T09:29:42.836Z</time></trkpt><trkpt lat="44.158448056757535" lon="10.894006157689075"><ele>628.0</ele><time>2026-04-28T09:29:43.836Z</time></trkpt><trkpt lat="44.158333731419965" lon="10.894079034121033"><ele>628.0</ele><time>2026-04-28T09:29:44.836Z</time></trkpt><trkpt lat="44.15822024328503" lon="10.89413479360824"><ele>628.0</ele><time>2026-04-28T09:29:45.836Z</time></trkpt><trkpt lat="44.15810772719376" lon="10.894174960425085"><ele>628.4</ele><time>2026-04-28T09:29:46.836Z</time></trkpt><trkpt lat="44.15799684669264" lon="10.89419404435585"><ele>628.8</ele><time>2026-04-28T09:29:47.836Z</time></trkpt><trkpt lat="44.15789001997737" lon="10.894218547432486"><ele>629.2</ele><time>2026-04-28T09:29:48.836Z</time></trkpt><trkpt lat="44.1577944221191" lon="10.894251266539818"><ele>629.6</ele><time>2026-04-28T09:29:49.836Z</time></trkpt><trkpt lat="44.1576944466015" lon="10.894300483858318"><ele>630.0</ele><time>2026-04-28T09:29:50.836Z</time></trkpt><trkpt lat="44.15761787421323" lon="10.89441405161285"><ele>630.5</ele><time>2026-04-28T09:29:51.836Z</time></trkpt><trkpt lat="44.157553573703346" lon="10.894546499778015"><ele>631.0</ele><time>2026-04-28T09:29:52.836Z</time></trkpt><trkpt lat="44.1575108370787" lon="10.894692479859641"><ele>631.5</ele><time>2026-04-28T09:29:53.836Z</time></trkpt><trkpt lat="44.15741507733266" lon="10.894794299918829"><ele>632.0</ele><time>2026-04-28T09:29:54.836Z</time></trkpt><trkpt lat="44.157304451444986" lon="10.894894170178478"><ele>632.0</ele><time>2026-04-28T09:29:55.836Z</time></trkpt><trkpt lat="44.15718839773283" lon="10.89499622086351"><ele>632.0</ele><time>2026-04-28T09:29:56.836Z</time></trkpt><trkpt lat="44.15708079587965" lon="10.89509726795144"><ele>632.0</ele><time>2026-04-28T09:29:57.836Z</time></trkpt><trkpt lat="44.15697427725597" lon="10.895197235509208"><ele>632.0</ele><time>2026-04-28T09:29:58.836Z</time></trkpt><trkpt lat="44.15688394330262" lon="10.895347729645286"><ele>628.0</ele><time>2026-04-28T09:29:59.836Z</time></trkpt><trkpt lat="44.156816757846876" lon="10.895535228433838"><ele>624.0</ele><time>2026-04-28T09:30:00.836Z</time></trkpt><trkpt lat="44.156772840064306" lon="10.895748621975844"><ele>620.0</ele><time>2026-04-28T09:30:01.836Z</time></trkpt><trkpt lat="44.15670899417691" lon="10.895968583304928"><ele>616.6666666666666</ele><time>2026-04-28T09:30:02.836Z</time></trkpt><trkpt lat="44.15665614717608" lon="10.896183674229736"><ele>613.3333333333334</ele><time>2026-04-28T09:30:03.836Z</time></trkpt><trkpt lat="44.15661890322895" lon="10.896388927506559"><ele>610.0</ele><time>2026-04-28T09:30:04.836Z</time></trkpt><trkpt lat="44.15658903030265" lon="10.896597349795762"><ele>607.5</ele><time>2026-04-28T09:30:05.836Z</time></trkpt><trkpt lat="44.15656966197075" lon="10.896783337262386"><ele>605.0</ele><time>2026-04-28T09:30:06.836Z</time></trkpt><trkpt lat="44.156578987821796" lon="10.896952588163474"><ele>602.5</ele><time>2026-04-28T09:30:07.836Z</time></trkpt><trkpt lat="44.15659310392841" lon="10.897106218608245"><ele>600.0</ele><time>2026-04-28T09:30:08.836Z</time></trkpt><trkpt lat="44.156637873380376" lon="10.897227335387408"><ele>600.0</ele><time>2026-04-28T09:30:09.836Z</time></trkpt><trkpt lat="44.156642975218396" lon="10.897349279517927"><ele>600.0</ele><time>2026-04-28T09:30:10.836Z</time></trkpt><trkpt lat="44.15661696092297" lon="10.897457923029062"><ele>600.0</ele><time>2026-04-28T09:30:11.836Z</time></trkpt><trkpt lat="44.15655029066084" lon="10.897529440460076"><ele>600.0</ele><time>2026-04-28T09:30:12.836Z</time></trkpt><trkpt lat="44.156459037404986" lon="10.897576064830973"><ele>600.0</ele><time>2026-04-28T09:30:13.836Z</time></trkpt><trkpt lat="44.15634177933609" lon="10.897593334519643"><ele>597.0</ele><time>2026-04-28T09:30:14.836Z</time></trkpt><trkpt lat="44.156209960322506" lon="10.897619601391993"><ele>594.0</ele><time>2026-04-28T09:30:15.836Z</time></trkpt><trkpt lat="44.15607538735407" lon="10.897665737176203"><ele>591.0</ele><time>2026-04-28T09:30:16.836Z</time></trkpt><trkpt lat="44.15595052028972" lon="10.897711420465024"><ele>588.0</ele><time>2026-04-28T09:30:17.836Z</time></trkpt><trkpt lat="44.15582886688111" lon="10.897730189641937"><ele>588.0</ele><time>2026-04-28T09:30:18.836Z</time></trkpt><trkpt lat="44.15571684135592" lon="10.89772169870901"><ele>588.0</ele><time>2026-04-28T09:30:19.836Z</time></trkpt><trkpt lat="44.15563058911159" lon="10.897705748207201"><ele>588.0</ele><time>2026-04-28T09:30:20.836Z</time></trkpt><trkpt lat="44.15555284283361" lon="10.897686792838778"><ele>588.0</ele><time>2026-04-28T09:30:21.836Z</time></trkpt><trkpt lat="44.15549098946426" lon="10.897720751395147"><ele>588.0</ele><time>2026-04-28T09:30:22.836Z</time></trkpt><trkpt lat="44.1554346930564" lon="10.897865411953335"><ele>588.0</ele><time>2026-04-28T09:30:24.836Z</time></trkpt><trkpt lat="44.15546602047293" lon="10.898004600325233"><ele>588.0</ele><time>2026-04-28T09:30:25.836Z</time></trkpt><trkpt lat="44.155558218838344" lon="10.898078399769597"><ele>588.0</ele><time>2026-04-28T09:30:26.836Z</time></trkpt><trkpt lat="44.15567012746381" lon="10.898069149313418"><ele>588.0</ele><time>2026-04-28T09:30:27.836Z</time></trkpt><trkpt lat="44.155788696694636" lon="10.898105378582256"><ele>588.0</ele><time>2026-04-28T09:30:28.836Z</time></trkpt><trkpt lat="44.1559180630916" lon="10.898121484959768"><ele>588.0</ele><time>2026-04-28T09:30:29.836Z</time></trkpt><trkpt lat="44.1560592360172" lon="10.898137197485038"><ele>588.0</ele><time>2026-04-28T09:30:30.836Z</time></trkpt><trkpt lat="44.156197836479734" lon="10.89815355368613"><ele>588.0</ele><time>2026-04-28T09:30:31.836Z</time></trkpt><trkpt lat="44.15632922369887" lon="10.898161334024872"><ele>588.0</ele><time>2026-04-28T09:30:32.836Z</time></trkpt><trkpt lat="44.15645705805614" lon="10.89818604269688"><ele>587.75</ele><time>2026-04-28T09:30:33.836Z</time></trkpt><trkpt lat="44.15657647731675" lon="10.898220095083332"><ele>587.5</ele><time>2026-04-28T09:30:34.836Z</time></trkpt><trkpt lat="44.15669048606135" lon="10.898283546633229"><ele>587.25</ele><time>2026-04-28T09:30:35.836Z</time></trkpt><trkpt lat="44.156793694303744" lon="10.898358125294882"><ele>587.0</ele><time>2026-04-28T09:30:36.836Z</time></trkpt><trkpt lat="44.15688745909646" lon="10.898404591465535"><ele>587.0</ele><time>2026-04-28T09:30:37.836Z</time></trkpt><trkpt lat="44.156982290637046" lon="10.898439124263321"><ele>587.0</ele><time>2026-04-28T09:30:38.836Z</time></trkpt><trkpt lat="44.15708898417572" lon="10.898389154167457"><ele>587.0</ele><time>2026-04-28T09:30:39.836Z</time></trkpt><trkpt lat="44.15718197498845" lon="10.89830167508131"><ele>587.0</ele><time>2026-04-28T09:30:40.836Z</time></trkpt><trkpt lat="44.15729598116564" lon="10.898254705242651"><ele>587.0</ele><time>2026-04-28T09:30:41.836Z</time></trkpt><trkpt lat="44.15741141992046" lon="10.898236807348432"><ele>585.4</ele><time>2026-04-28T09:30:42.836Z</time></trkpt><trkpt lat="44.157511187647486" lon="10.898242308351591"><ele>583.8000000000001</ele><time>2026-04-28T09:30:43.836Z</time></trkpt><trkpt lat="44.1575999476053" lon="10.898203879593748"><ele>582.2</ele><time>2026-04-28T09:30:44.836Z</time></trkpt><trkpt lat="44.1576820270407" lon="10.898105174339994"><ele>580.6</ele><time>2026-04-28T09:30:45.836Z</time></trkpt><trkpt lat="44.15771391249447" lon="10.897948629685787"><ele>579.0</ele><time>2026-04-28T09:30:46.836Z</time></trkpt><trkpt lat="44.1577294910388" lon="10.897794154732177"><ele>579.0</ele><time>2026-04-28T09:30:47.836Z</time></trkpt><trkpt lat="44.15773134785754" lon="10.89762509025864"><ele>579.0</ele><time>2026-04-28T09:30:48.836Z</time></trkpt><trkpt lat="44.15772818685624" lon="10.89746126860494"><ele>579.0</ele><time>2026-04-28T09:30:49.836Z</time></trkpt><trkpt lat="44.15771878560391" lon="10.897295164228154"><ele>579.0</ele><time>2026-04-28T09:30:50.836Z</time></trkpt><trkpt lat="44.15775258601466" lon="10.897130190384596"><ele>580.75</ele><time>2026-04-28T09:30:51.835Z</time></trkpt><trkpt lat="44.15781262482686" lon="10.896966716952788"><ele>582.5</ele><time>2026-04-28T09:30:52.835Z</time></trkpt><trkpt lat="44.15790940704409" lon="10.896839338895617"><ele>584.25</ele><time>2026-04-28T09:30:53.835Z</time></trkpt><trkpt lat="44.15800465454246" lon="10.896699619461804"><ele>586.0</ele><time>2026-04-28T09:30:54.835Z</time></trkpt><trkpt lat="44.15811314054445" lon="10.8965564510118"><ele>583.5</ele><time>2026-04-28T09:30:55.835Z</time></trkpt><trkpt lat="44.1582231982359" lon="10.89643977809979"><ele>581.0</ele><time>2026-04-28T09:30:56.835Z</time></trkpt><trkpt lat="44.15834433476561" lon="10.896332718794351"><ele>578.5</ele><time>2026-04-28T09:30:57.835Z</time></trkpt><trkpt lat="44.1584679289325" lon="10.896231317337952"><ele>576.0</ele><time>2026-04-28T09:30:58.835Z</time></trkpt><trkpt lat="44.158579751986395" lon="10.896161419791156"><ele>576.0</ele><time>2026-04-28T09:30:59.835Z</time></trkpt><trkpt lat="44.158689497611455" lon="10.896108306710248"><ele>576.0</ele><time>2026-04-28T09:31:00.835Z</time></trkpt><trkpt lat="44.158801207418264" lon="10.896129611566419"><ele>576.0</ele><time>2026-04-28T09:31:01.835Z</time></trkpt><trkpt lat="44.158917266528796" lon="10.89619624726118"><ele>576.0</ele><time>2026-04-28T09:31:02.835Z</time></trkpt><trkpt lat="44.15902320090559" lon="10.89631661557866"><ele>574.5</ele><time>2026-04-28T09:31:03.834Z</time></trkpt><trkpt lat="44.159109607989784" lon="10.896450221839611"><ele>573.0</ele><time>2026-04-28T09:31:04.834Z</time></trkpt><trkpt lat="44.15914906328459" lon="10.896617475498203"><ele>571.5</ele><time>2026-04-28T09:31:05.834Z</time></trkpt><trkpt lat="44.15917192062149" lon="10.896777052907671"><ele>570.0</ele><time>2026-04-28T09:31:06.834Z</time></trkpt><trkpt lat="44.159196821369896" lon="10.896931194976538"><ele>567.8</ele><time>2026-04-28T09:31:07.834Z</time></trkpt><trkpt lat="44.15923548829518" lon="10.89706805029514"><ele>565.6</ele><time>2026-04-28T09:31:08.834Z</time></trkpt><trkpt lat="44.15929897564832" lon="10.897181926172028"><ele>563.4</ele><time>2026-04-28T09:31:09.835Z</time></trkpt><trkpt lat="44.15939721888037" lon="10.897272417597028"><ele>561.2</ele><time>2026-04-28T09:31:10.834Z</time></trkpt><trkpt lat="44.15949408783559" lon="10.897306898989202"><ele>559.0</ele><time>2026-04-28T09:31:11.834Z</time></trkpt><trkpt lat="44.15960729448797" lon="10.89734190838447"><ele>559.0</ele><time>2026-04-28T09:31:12.835Z</time></trkpt><trkpt lat="44.15972993782009" lon="10.897311041167548"><ele>559.0</ele><time>2026-04-28T09:31:13.834Z</time></trkpt><trkpt lat="44.15983353472478" lon="10.897300020354747"><ele>559.0</ele><time>2026-04-28T09:31:14.834Z</time></trkpt><trkpt lat="44.15994699320313" lon="10.897320073052835"><ele>559.0</ele><time>2026-04-28T09:31:15.834Z</time></trkpt><trkpt lat="44.16004570279964" lon="10.897378659967037"><ele>559.8</ele><time>2026-04-28T09:31:16.834Z</time></trkpt><trkpt lat="44.16011632213613" lon="10.897489242659727"><ele>560.5999999999999</ele><time>2026-04-28T09:31:17.834Z</time></trkpt><trkpt lat="44.16015860719582" lon="10.897618763767374"><ele>561.4</ele><time>2026-04-28T09:31:18.834Z</time></trkpt><trkpt lat="44.16017611822886" lon="10.897757641542931"><ele>562.1999999999999</ele><time>2026-04-28T09:31:19.834Z</time></trkpt><trkpt lat="44.16020552126792" lon="10.897909657845302"><ele>563.0</ele><time>2026-04-28T09:31:20.834Z</time></trkpt><trkpt lat="44.16025002627328" lon="10.898026225118159"><ele>558.25</ele><time>2026-04-28T09:31:21.834Z</time></trkpt><trkpt lat="44.16032373498101" lon="10.898156093313665"><ele>553.5</ele><time>2026-04-28T09:31:22.834Z</time></trkpt><trkpt lat="44.16042669531727" lon="10.898280867670953"><ele>548.75</ele><time>2026-04-28T09:31:23.834Z</time></trkpt><trkpt lat="44.160552977964464" lon="10.898361914683782"><ele>544.0</ele><time>2026-04-28T09:31:24.834Z</time></trkpt><trkpt lat="44.16067356511347" lon="10.898452150509208"><ele>543.0</ele><time>2026-04-28T09:31:25.834Z</time></trkpt><trkpt lat="44.16078149181579" lon="10.898541271930997"><ele>542.0</ele><time>2026-04-28T09:31:26.834Z</time></trkpt><trkpt lat="44.16089014744336" lon="10.89861702313173"><ele>541.0</ele><time>2026-04-28T09:31:27.834Z</time></trkpt><trkpt lat="44.16100637162743" lon="10.898690555426224"><ele>540.0</ele><time>2026-04-28T09:31:28.834Z</time></trkpt><trkpt lat="44.161152052315224" lon="10.898736919716384"><ele>540.0</ele><time>2026-04-28T09:31:29.834Z</time></trkpt><trkpt lat="44.16131834914184" lon="10.898744153797717"><ele>540.0</ele><time>2026-04-28T09:31:30.834Z</time></trkpt><trkpt lat="44.16147830897045" lon="10.898724854724433"><ele>540.0</ele><time>2026-04-28T09:31:31.834Z</time></trkpt><trkpt lat="44.161618344856144" lon="10.898720809065775"><ele>540.25</ele><time>2026-04-28T09:31:32.834Z</time></trkpt><trkpt lat="44.16175385502344" lon="10.898700810317091"><ele>540.5</ele><time>2026-04-28T09:31:33.834Z</time></trkpt><trkpt lat="44.161878271321115" lon="10.898684401631774"><ele>540.75</ele><time>2026-04-28T09:31:34.834Z</time></trkpt><trkpt lat="44.16200521630035" lon="10.898701173131265"><ele>541.0</ele><time>2026-04-28T09:31:35.834Z</time></trkpt><trkpt lat="44.16211913060759" lon="10.898754624479228"><ele>541.0</ele><time>2026-04-28T09:31:36.834Z</time></trkpt><trkpt lat="44.16223768701511" lon="10.898832404100263"><ele>541.0</ele><time>2026-04-28T09:31:37.834Z</time></trkpt><trkpt lat="44.16235465876588" lon="10.898935035367526"><ele>541.0</ele><time>2026-04-28T09:31:38.834Z</time></trkpt><trkpt lat="44.162462095142736" lon="10.899038889247112"><ele>541.0</ele><time>2026-04-28T09:31:39.834Z</time></trkpt><trkpt lat="44.162592757731765" lon="10.899109972222883"><ele>540.25</ele><time>2026-04-28T09:31:40.834Z</time></trkpt><trkpt lat="44.16272978808921" lon="10.899149296977821"><ele>539.5</ele><time>2026-04-28T09:31:41.834Z</time></trkpt><trkpt lat="44.162871076244414" lon="10.899158106710164"><ele>538.75</ele><time>2026-04-28T09:31:42.834Z</time></trkpt><trkpt lat="44.16301008484542" lon="10.899189390078849"><ele>538.0</ele><time>2026-04-28T09:31:43.834Z</time></trkpt><trkpt lat="44.16315029693558" lon="10.89919551357046"><ele>538.25</ele><time>2026-04-28T09:31:44.834Z</time></trkpt><trkpt lat="44.163292853889324" lon="10.89920174129947"><ele>538.5</ele><time>2026-04-28T09:31:45.834Z</time></trkpt><trkpt lat="44.163437201983676" lon="10.89920469785996"><ele>538.75</ele><time>2026-04-28T09:31:46.834Z</time></trkpt><trkpt lat="44.16357423888235" lon="10.899222625480082"><ele>539.0</ele><time>2026-04-28T09:31:47.835Z</time></trkpt><trkpt lat="44.163715585202986" lon="10.899234699244387"><ele>534.5</ele><time>2026-04-28T09:31:48.835Z</time></trkpt><trkpt lat="44.163859057805915" lon="10.899254433758186"><ele>530.0</ele><time>2026-04-28T09:31:49.836Z</time></trkpt><trkpt lat="44.164001012419256" lon="10.899285657845676"><ele>525.5</ele><time>2026-04-28T09:31:50.837Z</time></trkpt><trkpt lat="44.1641369355978" lon="10.899322477771873"><ele>521.0</ele><time>2026-04-28T09:31:51.837Z</time></trkpt><trkpt lat="44.16426099268122" lon="10.899368545130597"><ele>521.0</ele><time>2026-04-28T09:31:52.838Z</time></trkpt><trkpt lat="44.16439003444415" lon="10.899432043027508"><ele>521.0</ele><time>2026-04-28T09:31:53.838Z</time></trkpt><trkpt lat="44.164512028137125" lon="10.899499294321707"><ele>521.0</ele><time>2026-04-28T09:31:54.839Z</time></trkpt><trkpt lat="44.16464539624723" lon="10.899551169265752"><ele>521.0</ele><time>2026-04-28T09:31:55.839Z</time></trkpt><trkpt lat="44.16477219507489" lon="10.899628958076123"><ele>522.75</ele><time>2026-04-28T09:31:56.84Z</time></trkpt><trkpt lat="44.1649170565812" lon="10.89967854086323"><ele>524.5</ele><time>2026-04-28T09:31:57.84Z</time></trkpt><trkpt lat="44.16504526888385" lon="10.899763303029943"><ele>526.25</ele><time>2026-04-28T09:31:58.84Z</time></trkpt><trkpt lat="44.1651866660952" lon="10.899852656449367"><ele>528.0</ele><time>2026-04-28T09:31:59.841Z</time></trkpt><trkpt lat="44.16533112360328" lon="10.899973103404898"><ele>525.75</ele><time>2026-04-28T09:32:00.841Z</time></trkpt><trkpt lat="44.16546149712982" lon="10.900091462772197"><ele>523.5</ele><time>2026-04-28T09:32:01.841Z</time></trkpt><trkpt lat="44.165576306276705" lon="10.900210343957719"><ele>521.25</ele><time>2026-04-28T09:32:02.842Z</time></trkpt><trkpt lat="44.165701511795014" lon="10.900318182616465"><ele>519.0</ele><time>2026-04-28T09:32:03.842Z</time></trkpt><trkpt lat="44.16581369744952" lon="10.900437750009987"><ele>519.0</ele><time>2026-04-28T09:32:04.842Z</time></trkpt><trkpt lat="44.16593918408197" lon="10.900543200983687"><ele>519.0</ele><time>2026-04-28T09:32:05.842Z</time></trkpt><trkpt lat="44.166055241599175" lon="10.900651095096398"><ele>519.0</ele><time>2026-04-28T09:32:06.843Z</time></trkpt><trkpt lat="44.16616626192933" lon="10.900772105990383"><ele>519.0</ele><time>2026-04-28T09:32:07.843Z</time></trkpt><trkpt lat="44.16627894382373" lon="10.900897972133519"><ele>516.75</ele><time>2026-04-28T09:32:08.843Z</time></trkpt><trkpt lat="44.166389892876374" lon="10.901027513137386"><ele>514.5</ele><time>2026-04-28T09:32:09.843Z</time></trkpt><trkpt lat="44.1664975105856" lon="10.901146193932853"><ele>512.25</ele><time>2026-04-28T09:32:10.843Z</time></trkpt><trkpt lat="44.16659266958427" lon="10.901257387448437"><ele>510.0</ele><time>2026-04-28T09:32:11.843Z</time></trkpt><trkpt lat="44.16668119039461" lon="10.901358430439663"><ele>510.0</ele><time>2026-04-28T09:32:12.844Z</time></trkpt><trkpt lat="44.166765395886515" lon="10.90143442529045"><ele>510.0</ele><time>2026-04-28T09:32:13.844Z</time></trkpt><trkpt lat="44.1668442367022" lon="10.901464101441688"><ele>510.0</ele><time>2026-04-28T09:32:14.844Z</time></trkpt><trkpt lat="44.166930418299316" lon="10.901455219894892"><ele>510.0</ele><time>2026-04-28T09:32:15.844Z</time></trkpt><trkpt lat="44.16701050949085" lon="10.901415262323201"><ele>510.0</ele><time>2026-04-28T09:32:16.844Z</time></trkpt><trkpt lat="44.167076349668086" lon="10.901300796202024"><ele>510.0</ele><time>2026-04-28T09:32:17.844Z</time></trkpt><trkpt lat="44.1670997418914" lon="10.901149310966776"><ele>510.0</ele><time>2026-04-28T09:32:18.844Z</time></trkpt><trkpt lat="44.16712840050925" lon="10.901000099586643"><ele>510.0</ele><time>2026-04-28T09:32:19.844Z</time></trkpt><trkpt lat="44.167168486457435" lon="10.900857417376159"><ele>510.0</ele><time>2026-04-28T09:32:20.844Z</time></trkpt><trkpt lat="44.16726499674009" lon="10.900784289312243"><ele>510.0</ele><time>2026-04-28T09:32:21.845Z</time></trkpt><trkpt lat="44.16737572168988" lon="10.900746925496351"><ele>510.0</ele><time>2026-04-28T09:32:22.845Z</time></trkpt><trkpt lat="44.167496404411764" lon="10.900726713378578"><ele>510.0</ele><time>2026-04-28T09:32:23.845Z</time></trkpt><trkpt lat="44.16763047617285" lon="10.900727694032769"><ele>510.0</ele><time>2026-04-28T09:32:24.845Z</time></trkpt><trkpt lat="44.16775289559785" lon="10.900697198946355"><ele>510.0</ele><time>2026-04-28T09:32:25.845Z</time></trkpt><trkpt lat="44.167874650821574" lon="10.900668943932924"><ele>510.0</ele><time>2026-04-28T09:32:26.845Z</time></trkpt><trkpt lat="44.16799466562867" lon="10.90059332052523"><ele>510.0</ele><time>2026-04-28T09:32:27.845Z</time></trkpt><trkpt lat="44.168112255735515" lon="10.900509396307802"><ele>510.0</ele><time>2026-04-28T09:32:28.845Z</time></trkpt><trkpt lat="44.16819402907816" lon="10.900380550790759"><ele>510.0</ele><time>2026-04-28T09:32:29.845Z</time></trkpt><trkpt lat="44.168263632420576" lon="10.900250884095495"><ele>509.5</ele><time>2026-04-28T09:32:30.845Z</time></trkpt><trkpt lat="44.16834287573217" lon="10.900109866706236"><ele>509.0</ele><time>2026-04-28T09:32:31.845Z</time></trkpt><trkpt lat="44.16844426583956" lon="10.899995197029574"><ele>508.5</ele><time>2026-04-28T09:32:32.845Z</time></trkpt><trkpt lat="44.16856675579733" lon="10.899927043096964"><ele>508.0</ele><time>2026-04-28T09:32:33.845Z</time></trkpt><trkpt lat="44.16871119640599" lon="10.899949548385083"><ele>508.0</ele><time>2026-04-28T09:32:34.845Z</time></trkpt><trkpt lat="44.1688637281263" lon="10.8999069004754"><ele>508.0</ele><time>2026-04-28T09:32:35.845Z</time></trkpt><trkpt lat="44.169023168194855" lon="10.899870158121251"><ele>508.0</ele><time>2026-04-28T09:32:36.845Z</time></trkpt><trkpt lat="44.16916153769139" lon="10.899773676447504"><ele>504.6666666666667</ele><time>2026-04-28T09:32:37.845Z</time></trkpt><trkpt lat="44.16930304485519" lon="10.899670625746273"><ele>501.33333333333337</ele><time>2026-04-28T09:32:38.845Z</time></trkpt><trkpt lat="44.169428981264105" lon="10.899552819650221"><ele>498.0</ele><time>2026-04-28T09:32:39.845Z</time></trkpt><trkpt lat="44.169533017451975" lon="10.899418518881374"><ele>498.0</ele><time>2026-04-28T09:32:40.845Z</time></trkpt><trkpt lat="44.16961492933978" lon="10.899265947093614"><ele>498.0</ele><time>2026-04-28T09:32:41.845Z</time></trkpt><trkpt lat="44.16969500981062" lon="10.89910161021434"><ele>498.0</ele><time>2026-04-28T09:32:42.845Z</time></trkpt><trkpt lat="44.169747738532955" lon="10.898925648093384"><ele>498.0</ele><time>2026-04-28T09:32:43.845Z</time></trkpt><trkpt lat="44.16979311672737" lon="10.898758864701852"><ele>498.0</ele><time>2026-04-28T09:32:44.845Z</time></trkpt><trkpt lat="44.16984101816365" lon="10.898602041027669"><ele>497.99999999999994</ele><time>2026-04-28T09:32:45.845Z</time></trkpt><trkpt lat="44.16990259247051" lon="10.89847586610824"><ele>497.99999999999994</ele><time>2026-04-28T09:32:46.845Z</time></trkpt><trkpt lat="44.16998295892657" lon="10.89837995869722"><ele>498.0</ele><time>2026-04-28T09:32:47.845Z</time></trkpt><trkpt lat="44.170091219561186" lon="10.898346786993185"><ele>498.0</ele><time>2026-04-28T09:32:48.845Z</time></trkpt><trkpt lat="44.17022448289567" lon="10.898328722825777"><ele>498.0</ele><time>2026-04-28T09:32:49.845Z</time></trkpt><trkpt lat="44.17033471789517" lon="10.898302415342215"><ele>498.0</ele><time>2026-04-28T09:32:50.845Z</time></trkpt><trkpt lat="44.17044292746688" lon="10.898324952272928"><ele>498.0</ele><time>2026-04-28T09:32:51.845Z</time></trkpt><trkpt lat="44.17052781199321" lon="10.898421744154893"><ele>498.0</ele><time>2026-04-28T09:32:52.845Z</time></trkpt><trkpt lat="44.17059055341248" lon="10.898564854388214"><ele>495.75</ele><time>2026-04-28T09:32:53.845Z</time></trkpt><trkpt lat="44.17063247482838" lon="10.898733901373108"><ele>493.5</ele><time>2026-04-28T09:32:54.845Z</time></trkpt><trkpt lat="44.17066905739026" lon="10.898882423310758"><ele>491.25</ele><time>2026-04-28T09:32:55.845Z</time></trkpt><trkpt lat="44.170734232047515" lon="10.899033812694693"><ele>489.0</ele><time>2026-04-28T09:32:56.845Z</time></trkpt><trkpt lat="44.170824187389286" lon="10.899138554338005"><ele>488.0</ele><time>2026-04-28T09:32:57.845Z</time></trkpt><trkpt lat="44.17092133867114" lon="10.899247165853108"><ele>487.0</ele><time>2026-04-28T09:32:58.845Z</time></trkpt><trkpt lat="44.171069950233395" lon="10.899318905391098"><ele>486.0</ele><time>2026-04-28T09:32:59.845Z</time></trkpt><trkpt lat="44.171234425092344" lon="10.899337850622858"><ele>485.0</ele><time>2026-04-28T09:33:00.845Z</time></trkpt><trkpt lat="44.17139507800502" lon="10.899324994886536"><ele>483.0</ele><time>2026-04-28T09:33:01.845Z</time></trkpt><trkpt lat="44.17153929430151" lon="10.899368459118422"><ele>481.0</ele><time>2026-04-28T09:33:02.845Z</time></trkpt><trkpt lat="44.17166160250653" lon="10.899454684865157"><ele>479.0</ele><time>2026-04-28T09:33:03.845Z</time></trkpt><trkpt lat="44.17179372568015" lon="10.899534220035868"><ele>477.0</ele><time>2026-04-28T09:33:04.845Z</time></trkpt><trkpt lat="44.17192744944607" lon="10.899622559182287"><ele>477.0</ele><time>2026-04-28T09:33:05.845Z</time></trkpt><trkpt lat="44.172059510419835" lon="10.899706328689769"><ele>477.0</ele><time>2026-04-28T09:33:06.845Z</time></trkpt><trkpt lat="44.1721790189182" lon="10.899854786549028"><ele>477.0</ele><time>2026-04-28T09:33:07.845Z</time></trkpt><trkpt lat="44.17227300270581" lon="10.900025699730028"><ele>476.33333333333337</ele><time>2026-04-28T09:33:08.845Z</time></trkpt><trkpt lat="44.1723447196682" lon="10.900229614871161"><ele>475.6666666666667</ele><time>2026-04-28T09:33:09.844Z</time></trkpt><trkpt lat="44.17237615571423" lon="10.900462782047807"><ele>475.0</ele><time>2026-04-28T09:33:10.845Z</time></trkpt><trkpt lat="44.17238368259303" lon="10.900708874573446"><ele>475.33333333333337</ele><time>2026-04-28T09:33:11.845Z</time></trkpt><trkpt lat="44.17235942227239" lon="10.900959166016397"><ele>475.66666666666663</ele><time>2026-04-28T09:33:12.844Z</time></trkpt><trkpt lat="44.172335350404204" lon="10.901222130836535"><ele>476.0</ele><time>2026-04-28T09:33:13.844Z</time></trkpt><trkpt lat="44.17231460843853" lon="10.90151751718468"><ele>478.3333333333333</ele><time>2026-04-28T09:33:14.844Z</time></trkpt><trkpt lat="44.17228113573378" lon="10.901798966233885"><ele>480.66666666666663</ele><time>2026-04-28T09:33:15.844Z</time></trkpt><trkpt lat="44.172280822665854" lon="10.902035363863705"><ele>483.0</ele><time>2026-04-28T09:33:16.844Z</time></trkpt><trkpt lat="44.17231239685224" lon="10.902265373230644"><ele>485.33333333333337</ele><time>2026-04-28T09:33:17.844Z</time></trkpt><trkpt lat="44.17236505105942" lon="10.90247448401287"><ele>487.6666666666667</ele><time>2026-04-28T09:33:18.844Z</time></trkpt><trkpt lat="44.17243439730573" lon="10.90266407168958"><ele>490.0</ele><time>2026-04-28T09:33:19.844Z</time></trkpt><trkpt lat="44.17249562661781" lon="10.90284413377085"><ele>490.0</ele><time>2026-04-28T09:33:20.844Z</time></trkpt><trkpt lat="44.172527043355096" lon="10.903015626279872"><ele>490.0</ele><time>2026-04-28T09:33:21.844Z</time></trkpt><trkpt lat="44.17256770618" lon="10.903158830838352"><ele>490.0</ele><time>2026-04-28T09:33:22.844Z</time></trkpt><trkpt lat="44.1726019371161" lon="10.903308837156118"><ele>490.0</ele><time>2026-04-28T09:33:23.844Z</time></trkpt><trkpt lat="44.1726074242706" lon="10.903446291460222"><ele>490.0</ele><time>2026-04-28T09:33:24.844Z</time></trkpt><trkpt lat="44.17258192346803" lon="10.9035879706135"><ele>490.5</ele><time>2026-04-28T09:33:25.844Z</time></trkpt><trkpt lat="44.172525930767215" lon="10.903723266199355"><ele>491.0</ele><time>2026-04-28T09:33:26.844Z</time></trkpt><trkpt lat="44.17242250516296" lon="10.903847628099323"><ele>491.5</ele><time>2026-04-28T09:33:27.844Z</time></trkpt><trkpt lat="44.172305544514586" lon="10.903950079749569"><ele>492.0</ele><time>2026-04-28T09:33:28.844Z</time></trkpt><trkpt lat="44.17218981045348" lon="10.904057088088663"><ele>490.25</ele><time>2026-04-28T09:33:29.844Z</time></trkpt><trkpt lat="44.17209176071205" lon="10.904203273914684"><ele>488.5</ele><time>2026-04-28T09:33:30.844Z</time></trkpt><trkpt lat="44.172007471751684" lon="10.904354080978997"><ele>486.75</ele><time>2026-04-28T09:33:31.844Z</time></trkpt><trkpt lat="44.171926094076355" lon="10.904514910805414"><ele>485.0</ele><time>2026-04-28T09:33:32.844Z</time></trkpt><trkpt lat="44.171849884957766" lon="10.904672490323817"><ele>485.0</ele><time>2026-04-28T09:33:33.844Z</time></trkpt><trkpt lat="44.171767473726355" lon="10.904832971454912"><ele>485.0</ele><time>2026-04-28T09:33:34.844Z</time></trkpt><trkpt lat="44.17169787120932" lon="10.904984260412945"><ele>485.0</ele><time>2026-04-28T09:33:35.844Z</time></trkpt><trkpt lat="44.1716498863618" lon="10.905115308129352"><ele>485.0</ele><time>2026-04-28T09:33:36.844Z</time></trkpt><trkpt lat="44.17163971509565" lon="10.905275113135483"><ele>486.66666666666663</ele><time>2026-04-28T09:33:37.844Z</time></trkpt><trkpt lat="44.17164252276893" lon="10.905495892315525"><ele>488.33333333333337</ele><time>2026-04-28T09:33:38.844Z</time></trkpt><trkpt lat="44.171694745607" lon="10.90569863594755"><ele>490.0</ele><time>2026-04-28T09:33:39.844Z</time></trkpt><trkpt lat="44.17173979841048" lon="10.905898948083834"><ele>490.5</ele><time>2026-04-28T09:33:40.844Z</time></trkpt><trkpt lat="44.171749834185476" lon="10.906100321070646"><ele>491.0</ele><time>2026-04-28T09:33:41.844Z</time></trkpt><trkpt lat="44.171738399421464" lon="10.90632071177784"><ele>491.5</ele><time>2026-04-28T09:33:42.844Z</time></trkpt><trkpt lat="44.171724255993404" lon="10.906515005246533"><ele>492.0</ele><time>2026-04-28T09:33:43.844Z</time></trkpt><trkpt lat="44.17172352745916" lon="10.906764740160687"><ele>490.33333333333337</ele><time>2026-04-28T09:33:44.844Z</time></trkpt><trkpt lat="44.1717523342233" lon="10.907008267082565"><ele>488.6666666666667</ele><time>2026-04-28T09:33:45.844Z</time></trkpt><trkpt lat="44.17179493724211" lon="10.907235475759979"><ele>487.0</ele><time>2026-04-28T09:33:46.844Z</time></trkpt><trkpt lat="44.17183602184961" lon="10.907454586571804"><ele>484.0</ele><time>2026-04-28T09:33:47.844Z</time></trkpt><trkpt lat="44.171875672264896" lon="10.907666048593871"><ele>481.0</ele><time>2026-04-28T09:33:48.844Z</time></trkpt><trkpt lat="44.17191770257733" lon="10.907890202970831"><ele>478.0</ele><time>2026-04-28T09:33:49.844Z</time></trkpt><trkpt lat="44.17197186680374" lon="10.908112526184354"><ele>478.0</ele><time>2026-04-28T09:33:50.844Z</time></trkpt><trkpt lat="44.17201858994722" lon="10.908320212686627"><ele>478.0</ele><time>2026-04-28T09:33:51.844Z</time></trkpt><trkpt lat="44.17205417625566" lon="10.908527424143259"><ele>478.0</ele><time>2026-04-28T09:33:52.844Z</time></trkpt><trkpt lat="44.17210954931281" lon="10.908717195638557"><ele>478.25</ele><time>2026-04-28T09:33:53.844Z</time></trkpt><trkpt lat="44.172183351110846" lon="10.90888520631803"><ele>478.5</ele><time>2026-04-28T09:33:54.844Z</time></trkpt><trkpt lat="44.17225698956328" lon="10.909070877528206"><ele>478.75</ele><time>2026-04-28T09:33:55.844Z</time></trkpt><trkpt lat="44.17233537075394" lon="10.90925427259081"><ele>479.0</ele><time>2026-04-28T09:33:56.844Z</time></trkpt><trkpt lat="44.17240822374405" lon="10.909453689107968"><ele>479.0</ele><time>2026-04-28T09:33:57.844Z</time></trkpt><trkpt lat="44.17250007079892" lon="10.909629408249584"><ele>479.0</ele><time>2026-04-28T09:33:58.844Z</time></trkpt><trkpt lat="44.17258241989081" lon="10.909804024932848"><ele>479.0</ele><time>2026-04-28T09:33:59.844Z</time></trkpt><trkpt lat="44.1726554469884" lon="10.909968237637445"><ele>479.0</ele><time>2026-04-28T09:34:00.844Z</time></trkpt><trkpt lat="44.172733013865155" lon="10.910133152728386"><ele>477.0</ele><time>2026-04-28T09:34:01.844Z</time></trkpt><trkpt lat="44.17280748344675" lon="10.910307336693226"><ele>475.0</ele><time>2026-04-28T09:34:02.844Z</time></trkpt><trkpt lat="44.172854718507665" lon="10.910495879406081"><ele>473.0</ele><time>2026-04-28T09:34:03.844Z</time></trkpt><trkpt lat="44.17289613713609" lon="10.910683951931851"><ele>471.0</ele><time>2026-04-28T09:34:04.844Z</time></trkpt><trkpt lat="44.1728988519213" lon="10.910853683698049"><ele>471.33333333333337</ele><time>2026-04-28T09:34:05.844Z</time></trkpt><trkpt lat="44.17288688807121" lon="10.911049571764323"><ele>471.6666666666667</ele><time>2026-04-28T09:34:06.844Z</time></trkpt><trkpt lat="44.17285918264593" lon="10.91127125625292"><ele>472.0</ele><time>2026-04-28T09:34:07.844Z</time></trkpt><trkpt lat="44.17283562826434" lon="10.911474594664064"><ele>472.0</ele><time>2026-04-28T09:34:08.844Z</time></trkpt><trkpt lat="44.172831854634424" lon="10.91166260780575"><ele>472.0</ele><time>2026-04-28T09:34:09.844Z</time></trkpt><trkpt lat="44.17281510658008" lon="10.911822990463145"><ele>472.0</ele><time>2026-04-28T09:34:10.844Z</time></trkpt><trkpt lat="44.17280102132346" lon="10.911981539950332"><ele>472.0</ele><time>2026-04-28T09:34:11.844Z</time></trkpt><trkpt lat="44.17276271419525" lon="10.912147581843124"><ele>474.0</ele><time>2026-04-28T09:34:12.844Z</time></trkpt><trkpt lat="44.172681930217465" lon="10.912280981150317"><ele>476.00000000000006</ele><time>2026-04-28T09:34:13.844Z</time></trkpt><trkpt lat="44.172587550225444" lon="10.912386042414708"><ele>478.00000000000006</ele><time>2026-04-28T09:34:14.844Z</time></trkpt><trkpt lat="44.17250819170463" lon="10.912464281407772"><ele>480.0</ele><time>2026-04-28T09:34:15.844Z</time></trkpt><trkpt lat="44.17243905483393" lon="10.912555749815565"><ele>482.0</ele><time>2026-04-28T09:34:16.844Z</time></trkpt><trkpt lat="44.17238154103761" lon="10.912707091799376"><ele>483.75</ele><time>2026-04-28T09:34:17.844Z</time></trkpt><trkpt lat="44.17233150279766" lon="10.912863485895926"><ele>485.5</ele><time>2026-04-28T09:34:18.844Z</time></trkpt><trkpt lat="44.17233963914843" lon="10.913074855148109"><ele>487.25</ele><time>2026-04-28T09:34:19.844Z</time></trkpt><trkpt lat="44.17239037306537" lon="10.913289155319038"><ele>489.0</ele><time>2026-04-28T09:34:20.844Z</time></trkpt><trkpt lat="44.172449109343724" lon="10.913496217797375"><ele>489.0</ele><time>2026-04-28T09:34:21.844Z</time></trkpt><trkpt lat="44.17251110517452" lon="10.913714261901243"><ele>489.0</ele><time>2026-04-28T09:34:22.844Z</time></trkpt><trkpt lat="44.17257530226334" lon="10.913940047966744"><ele>489.0</ele><time>2026-04-28T09:34:23.844Z</time></trkpt><trkpt lat="44.172638369505385" lon="10.914161860229841"><ele>489.0</ele><time>2026-04-28T09:34:24.844Z</time></trkpt><trkpt lat="44.17270057506246" lon="10.91437780304863"><ele>489.0</ele><time>2026-04-28T09:34:25.844Z</time></trkpt><trkpt lat="44.17276861579887" lon="10.914605545417952"><ele>489.0</ele><time>2026-04-28T09:34:26.843Z</time></trkpt><trkpt lat="44.17286328283001" lon="10.914786089439387"><ele>489.0</ele><time>2026-04-28T09:34:27.843Z</time></trkpt><trkpt lat="44.172954813086605" lon="10.914960150929007"><ele>489.0</ele><time>2026-04-28T09:34:28.843Z</time></trkpt><trkpt lat="44.1730523499745" lon="10.915100289838064"><ele>489.0</ele><time>2026-04-28T09:34:29.843Z</time></trkpt><trkpt lat="44.173148353076115" lon="10.915248791833017"><ele>489.0</ele><time>2026-04-28T09:34:30.843Z</time></trkpt><trkpt lat="44.173217764910795" lon="10.9154298206373"><ele>491.5</ele><time>2026-04-28T09:34:31.843Z</time></trkpt><trkpt lat="44.173278614772904" lon="10.915590823390954"><ele>494.0</ele><time>2026-04-28T09:34:32.843Z</time></trkpt><trkpt lat="44.17330874394008" lon="10.915758554365494"><ele>496.5</ele><time>2026-04-28T09:34:33.843Z</time></trkpt><trkpt lat="44.17331390724923" lon="10.915941028538017"><ele>499.0</ele><time>2026-04-28T09:34:34.843Z</time></trkpt><trkpt lat="44.173302925165174" lon="10.916125343520077"><ele>499.25</ele><time>2026-04-28T09:34:35.843Z</time></trkpt><trkpt lat="44.17329287412525" lon="10.916314420586813"><ele>499.5</ele><time>2026-04-28T09:34:36.843Z</time></trkpt><trkpt lat="44.17328355951415" lon="10.916489644181466"><ele>499.75</ele><time>2026-04-28T09:34:37.843Z</time></trkpt><trkpt lat="44.173292279695005" lon="10.916650844907599"><ele>500.0</ele><time>2026-04-28T09:34:38.843Z</time></trkpt><trkpt lat="44.17329636800193" lon="10.916803086177064"><ele>499.0</ele><time>2026-04-28T09:34:39.843Z</time></trkpt><trkpt lat="44.17330569684727" lon="10.916962944118588"><ele>498.0</ele><time>2026-04-28T09:34:40.843Z</time></trkpt><trkpt lat="44.173308768272804" lon="10.91713020075321"><ele>497.0</ele><time>2026-04-28T09:34:41.843Z</time></trkpt><trkpt lat="44.173333033127115" lon="10.917285439981928"><ele>496.0</ele><time>2026-04-28T09:34:42.843Z</time></trkpt><trkpt lat="44.17336278477131" lon="10.917432696404719"><ele>493.6</ele><time>2026-04-28T09:34:43.843Z</time></trkpt><trkpt lat="44.173388367409665" lon="10.91757663000425"><ele>491.20000000000005</ele><time>2026-04-28T09:34:44.843Z</time></trkpt><trkpt lat="44.17341576647252" lon="10.917706435632503"><ele>488.79999999999995</ele><time>2026-04-28T09:34:45.843Z</time></trkpt><trkpt lat="44.17344296968765" lon="10.917836247812144"><ele>486.4</ele><time>2026-04-28T09:34:46.843Z</time></trkpt><trkpt lat="44.173494720064745" lon="10.917959824290115"><ele>484.0</ele><time>2026-04-28T09:34:47.843Z</time></trkpt><trkpt lat="44.173561920092865" lon="10.918071701058786"><ele>484.0</ele><time>2026-04-28T09:34:48.843Z</time></trkpt><trkpt lat="44.17365627368757" lon="10.918175412470907"><ele>484.0</ele><time>2026-04-28T09:34:49.843Z</time></trkpt><trkpt lat="44.17375574474447" lon="10.918283644937095"><ele>484.0</ele><time>2026-04-28T09:34:50.843Z</time></trkpt><trkpt lat="44.17384637646547" lon="10.918376014983933"><ele>484.0</ele><time>2026-04-28T09:34:51.843Z</time></trkpt><trkpt lat="44.1739079897577" lon="10.918481201574588"><ele>482.75</ele><time>2026-04-28T09:34:52.843Z</time></trkpt><trkpt lat="44.17396318514943" lon="10.91861406632243"><ele>481.5</ele><time>2026-04-28T09:34:53.843Z</time></trkpt><trkpt lat="44.17400959302758" lon="10.918769449341609"><ele>480.25</ele><time>2026-04-28T09:34:54.843Z</time></trkpt><trkpt lat="44.17400349224189" lon="10.918937931267129"><ele>479.0</ele><time>2026-04-28T09:34:55.843Z</time></trkpt><trkpt lat="44.17398544860392" lon="10.919098150371752"><ele>479.5</ele><time>2026-04-28T09:34:56.843Z</time></trkpt><trkpt lat="44.1739379918381" lon="10.919261673912619"><ele>480.0</ele><time>2026-04-28T09:34:57.843Z</time></trkpt><trkpt lat="44.173883781906305" lon="10.919418213740563"><ele>480.5</ele><time>2026-04-28T09:34:58.843Z</time></trkpt><trkpt lat="44.17382143178484" lon="10.919543171855645"><ele>481.0</ele><time>2026-04-28T09:34:59.843Z</time></trkpt><trkpt lat="44.17379054967352" lon="10.919682363118532"><ele>481.0</ele><time>2026-04-28T09:35:00.843Z</time></trkpt><trkpt lat="44.17378405470556" lon="10.919836366126331"><ele>481.0</ele><time>2026-04-28T09:35:01.843Z</time></trkpt><trkpt lat="44.17380546493573" lon="10.919990061971133"><ele>481.0</ele><time>2026-04-28T09:35:02.843Z</time></trkpt><trkpt lat="44.173830577847966" lon="10.920141008244197"><ele>481.0</ele><time>2026-04-28T09:35:03.843Z</time></trkpt><trkpt lat="44.17390148497533" lon="10.920265603274814"><ele>481.0</ele><time>2026-04-28T09:35:04.843Z</time></trkpt><trkpt lat="44.17397331788656" lon="10.920409590562187"><ele>484.5</ele><time>2026-04-28T09:35:05.843Z</time></trkpt><trkpt lat="44.174078150463274" lon="10.920509791953851"><ele>488.0</ele><time>2026-04-28T09:35:06.843Z</time></trkpt><trkpt lat="44.174203586515574" lon="10.920554477355003"><ele>491.5</ele><time>2026-04-28T09:35:07.843Z</time></trkpt><trkpt lat="44.174338720333054" lon="10.920581864741282"><ele>495.0</ele><time>2026-04-28T09:35:08.843Z</time></trkpt><trkpt lat="44.17447743834148" lon="10.920612481249366"><ele>495.0</ele><time>2026-04-28T09:35:09.843Z</time></trkpt><trkpt lat="44.17460578031218" lon="10.920710188626126"><ele>495.0</ele><time>2026-04-28T09:35:10.843Z</time></trkpt><trkpt lat="44.17472622210097" lon="10.920823200500202"><ele>495.0</ele><time>2026-04-28T09:35:11.843Z</time></trkpt><trkpt lat="44.17483598558588" lon="10.920934021920589"><ele>495.0</ele><time>2026-04-28T09:35:12.843Z</time></trkpt><trkpt lat="44.1749408546735" lon="10.921039759184374"><ele>493.0</ele><time>2026-04-28T09:35:13.843Z</time></trkpt><trkpt lat="44.17506111427458" lon="10.921133212329106"><ele>491.0</ele><time>2026-04-28T09:35:14.843Z</time></trkpt><trkpt lat="44.17516470702399" lon="10.921254406248806"><ele>489.0</ele><time>2026-04-28T09:35:15.843Z</time></trkpt><trkpt lat="44.1752677057736" lon="10.921351718216412"><ele>487.0</ele><time>2026-04-28T09:35:16.842Z</time></trkpt><trkpt lat="44.175367292602175" lon="10.921441876665165"><ele>487.0</ele><time>2026-04-28T09:35:17.842Z</time></trkpt><trkpt lat="44.175451346570675" lon="10.92153373388307"><ele>487.00000000000006</ele><time>2026-04-28T09:35:18.843Z</time></trkpt><trkpt lat="44.17551703132393" lon="10.92165797269299"><ele>487.00000000000006</ele><time>2026-04-28T09:35:19.842Z</time></trkpt><trkpt lat="44.175533679221715" lon="10.92181751722681"><ele>487.0</ele><time>2026-04-28T09:35:20.842Z</time></trkpt><trkpt lat="44.17552795196839" lon="10.921978168659129"><ele>487.0</ele><time>2026-04-28T09:35:21.843Z</time></trkpt><trkpt lat="44.175537992106406" lon="10.922147967648165"><ele>484.75</ele><time>2026-04-28T09:35:22.842Z</time></trkpt><trkpt lat="44.17552562925762" lon="10.92230141008167"><ele>482.5</ele><time>2026-04-28T09:35:23.842Z</time></trkpt><trkpt lat="44.17552148056357" lon="10.922452063748441"><ele>480.25</ele><time>2026-04-28T09:35:24.843Z</time></trkpt><trkpt lat="44.175534426051" lon="10.922621375153586"><ele>478.0</ele><time>2026-04-28T09:35:25.842Z</time></trkpt><trkpt lat="44.17557656997422" lon="10.922761780367606"><ele>476.4</ele><time>2026-04-28T09:35:26.842Z</time></trkpt><trkpt lat="44.17562755887117" lon="10.922891556933841"><ele>474.79999999999995</ele><time>2026-04-28T09:35:27.842Z</time></trkpt><trkpt lat="44.175688042037564" lon="10.923010316785927"><ele>473.2</ele><time>2026-04-28T09:35:28.842Z</time></trkpt><trkpt lat="44.1757501707116" lon="10.923116589696631"><ele>471.6</ele><time>2026-04-28T09:35:29.842Z</time></trkpt><trkpt lat="44.17579023645137" lon="10.923260686607653"><ele>470.0</ele><time>2026-04-28T09:35:30.842Z</time></trkpt><trkpt lat="44.17580053668804" lon="10.923417574150436"><ele>470.5</ele><time>2026-04-28T09:35:31.842Z</time></trkpt><trkpt lat="44.17577206857908" lon="10.9235686231215"><ele>471.0</ele><time>2026-04-28T09:35:32.842Z</time></trkpt><trkpt lat="44.17572928956445" lon="10.923718939337341"><ele>471.5</ele><time>2026-04-28T09:35:33.842Z</time></trkpt><trkpt lat="44.175696095954976" lon="10.923875281795064"><ele>472.0</ele><time>2026-04-28T09:35:34.842Z</time></trkpt><trkpt lat="44.17562838357649" lon="10.924009668189399"><ele>472.0</ele><time>2026-04-28T09:35:35.842Z</time></trkpt><trkpt lat="44.17557874241004" lon="10.924142454786422"><ele>472.00000000000006</ele><time>2026-04-28T09:35:36.842Z</time></trkpt><trkpt lat="44.175540262849466" lon="10.92427114661551"><ele>472.00000000000006</ele><time>2026-04-28T09:35:37.842Z</time></trkpt><trkpt lat="44.17550043994732" lon="10.9243973774979"><ele>472.0</ele><time>2026-04-28T09:35:38.842Z</time></trkpt><trkpt lat="44.17546800726783" lon="10.924507031201891"><ele>472.0</ele><time>2026-04-28T09:35:39.842Z</time></trkpt><trkpt lat="44.17543734165978" lon="10.924615304136733"><ele>471.6</ele><time>2026-04-28T09:35:40.842Z</time></trkpt><trkpt lat="44.17542722432222" lon="10.924724042198225"><ele>471.20000000000005</ele><time>2026-04-28T09:35:41.842Z</time></trkpt><trkpt lat="44.175444893946235" lon="10.92483238260076"><ele>470.8</ele><time>2026-04-28T09:35:42.842Z</time></trkpt><trkpt lat="44.17552942868846" lon="10.924939734350517"><ele>470.4</ele><time>2026-04-28T09:35:43.842Z</time></trkpt><trkpt lat="44.17562057075116" lon="10.925047445813188"><ele>470.0</ele><time>2026-04-28T09:35:44.842Z</time></trkpt><trkpt lat="44.175756761658555" lon="10.925096966178021"><ele>470.0</ele><time>2026-04-28T09:35:45.842Z</time></trkpt><trkpt lat="44.17588084465827" lon="10.925162258706013"><ele>470.0</ele><time>2026-04-28T09:35:46.842Z</time></trkpt><trkpt lat="44.17599515521114" lon="10.92525059940859"><ele>470.0</ele><time>2026-04-28T09:35:47.842Z</time></trkpt><trkpt lat="44.17610888816889" lon="10.925313056372604"><ele>470.0</ele><time>2026-04-28T09:35:48.842Z</time></trkpt><trkpt lat="44.17621588341788" lon="10.92536986342006"><ele>470.0</ele><time>2026-04-28T09:35:49.842Z</time></trkpt><trkpt lat="44.17632029802191" lon="10.925423831706699"><ele>470.0</ele><time>2026-04-28T09:35:50.842Z</time></trkpt><trkpt lat="44.17642763660087" lon="10.925481485663905"><ele>470.0</ele><time>2026-04-28T09:35:51.842Z</time></trkpt><trkpt lat="44.17653458466843" lon="10.925535831189993"><ele>470.0</ele><time>2026-04-28T09:35:52.842Z</time></trkpt><trkpt lat="44.17662813971373" lon="10.925593682046362"><ele>470.0</ele><time>2026-04-28T09:35:53.842Z</time></trkpt><trkpt lat="44.176717403977754" lon="10.925673190524183"><ele>471.5</ele><time>2026-04-28T09:35:54.842Z</time></trkpt><trkpt lat="44.176788545751" lon="10.925808330159716"><ele>473.0</ele><time>2026-04-28T09:35:55.842Z</time></trkpt><trkpt lat="44.176833263414544" lon="10.925972041669073"><ele>474.5</ele><time>2026-04-28T09:35:56.842Z</time></trkpt><trkpt lat="44.176831031113885" lon="10.926128827574075"><ele>476.0</ele><time>2026-04-28T09:35:57.842Z</time></trkpt><trkpt lat="44.176847025437986" lon="10.926286666178116"><ele>476.0</ele><time>2026-04-28T09:35:58.842Z</time></trkpt><trkpt lat="44.17686412259832" lon="10.926445964998532"><ele>476.0</ele><time>2026-04-28T09:35:59.842Z</time></trkpt><trkpt lat="44.176911881832574" lon="10.926590618644974"><ele>476.0</ele><time>2026-04-28T09:36:00.842Z</time></trkpt><trkpt lat="44.17696810121795" lon="10.926716879120848"><ele>476.0</ele><time>2026-04-28T09:36:01.842Z</time></trkpt><trkpt lat="44.177037573290946" lon="10.92681684491787"><ele>476.0</ele><time>2026-04-28T09:36:02.842Z</time></trkpt><trkpt lat="44.1771124597047" lon="10.926914722150608"><ele>475.0</ele><time>2026-04-28T09:36:03.842Z</time></trkpt><trkpt lat="44.17716038541662" lon="10.927050048139469"><ele>474.0</ele><time>2026-04-28T09:36:04.842Z</time></trkpt><trkpt lat="44.1772000244121" lon="10.927195823425238"><ele>473.0</ele><time>2026-04-28T09:36:05.842Z</time></trkpt><trkpt lat="44.17723402411337" lon="10.927352896044713"><ele>472.0</ele><time>2026-04-28T09:36:06.842Z</time></trkpt><trkpt lat="44.17720743357093" lon="10.92752427199212"><ele>473.8</ele><time>2026-04-28T09:36:07.842Z</time></trkpt><trkpt lat="44.177180400586295" lon="10.927697771316746"><ele>475.6</ele><time>2026-04-28T09:36:08.842Z</time></trkpt><trkpt lat="44.177151971303196" lon="10.927849492933134"><ele>477.40000000000003</ele><time>2026-04-28T09:36:09.842Z</time></trkpt><trkpt lat="44.177118209890374" lon="10.927988591938755"><ele>479.20000000000005</ele><time>2026-04-28T09:36:10.842Z</time></trkpt><trkpt lat="44.17707824019706" lon="10.928106934344216"><ele>481.0</ele><time>2026-04-28T09:36:11.842Z</time></trkpt><trkpt lat="44.17702492060757" lon="10.928241908670303"><ele>481.0</ele><time>2026-04-28T09:36:12.842Z</time></trkpt><trkpt lat="44.17698576542561" lon="10.928360130328448"><ele>481.0</ele><time>2026-04-28T09:36:13.841Z</time></trkpt><trkpt lat="44.176954114238" lon="10.928494347694327"><ele>481.0</ele><time>2026-04-28T09:36:14.841Z</time></trkpt><trkpt lat="44.1769374169774" lon="10.928632279801691"><ele>481.0</ele><time>2026-04-28T09:36:15.841Z</time></trkpt><trkpt lat="44.1769490942214" lon="10.928784094342834"><ele>481.0</ele><time>2026-04-28T09:36:16.841Z</time></trkpt><trkpt lat="44.17696175156624" lon="10.928939392425976"><ele>480.5</ele><time>2026-04-28T09:36:17.841Z</time></trkpt><trkpt lat="44.17700749951604" lon="10.92908609062241"><ele>480.0</ele><time>2026-04-28T09:36:18.841Z</time></trkpt><trkpt lat="44.17707797787393" lon="10.929223075865552"><ele>479.5</ele><time>2026-04-28T09:36:19.841Z</time></trkpt><trkpt lat="44.17717202399423" lon="10.929342805334255"><ele>479.0</ele><time>2026-04-28T09:36:20.841Z</time></trkpt><trkpt lat="44.17726756442456" lon="10.92945584469777"><ele>480.5</ele><time>2026-04-28T09:36:21.841Z</time></trkpt><trkpt lat="44.17736659287265" lon="10.92957348607973"><ele>482.0</ele><time>2026-04-28T09:36:22.841Z</time></trkpt><trkpt lat="44.17747762822969" lon="10.929679865848538"><ele>483.5</ele><time>2026-04-28T09:36:23.841Z</time></trkpt><trkpt lat="44.17757883351111" lon="10.929819590096642"><ele>485.0</ele><time>2026-04-28T09:36:24.841Z</time></trkpt><trkpt lat="44.17768551867124" lon="10.929937845547961"><ele>485.0</ele><time>2026-04-28T09:36:25.841Z</time></trkpt><trkpt lat="44.17778644880096" lon="10.93005243335507"><ele>485.0</ele><time>2026-04-28T09:36:26.841Z</time></trkpt><trkpt lat="44.17787315286174" lon="10.930166795969686"><ele>485.0</ele><time>2026-04-28T09:36:27.841Z</time></trkpt><trkpt lat="44.17793335204093" lon="10.930319482713793"><ele>485.0</ele><time>2026-04-28T09:36:28.841Z</time></trkpt><trkpt lat="44.17797943659783" lon="10.930473545993825"><ele>481.75</ele><time>2026-04-28T09:36:29.841Z</time></trkpt><trkpt lat="44.178027022936035" lon="10.930643152482224"><ele>478.5</ele><time>2026-04-28T09:36:30.841Z</time></trkpt><trkpt lat="44.17804398555946" lon="10.930822724896256"><ele>475.25</ele><time>2026-04-28T09:36:31.841Z</time></trkpt><trkpt lat="44.17807409077295" lon="10.93099862729252"><ele>472.0</ele><time>2026-04-28T09:36:32.841Z</time></trkpt><trkpt lat="44.17812013049563" lon="10.931155643639569"><ele>472.0</ele><time>2026-04-28T09:36:33.841Z</time></trkpt><trkpt lat="44.17818171121263" lon="10.931295214308133"><ele>472.0</ele><time>2026-04-28T09:36:34.841Z</time></trkpt><trkpt lat="44.17825894178408" lon="10.93143727274903"><ele>472.0</ele><time>2026-04-28T09:36:35.841Z</time></trkpt><trkpt lat="44.178356883246906" lon="10.931551333117957"><ele>472.0</ele><time>2026-04-28T09:36:36.841Z</time></trkpt><trkpt lat="44.178458247234126" lon="10.93166150892821"><ele>473.75</ele><time>2026-04-28T09:36:37.841Z</time></trkpt><trkpt lat="44.17853150385908" lon="10.931779226574522"><ele>475.5</ele><time>2026-04-28T09:36:38.841Z</time></trkpt><trkpt lat="44.178604823660834" lon="10.931899952306585"><ele>477.25</ele><time>2026-04-28T09:36:39.841Z</time></trkpt><trkpt lat="44.17865601884297" lon="10.932053119422925"><ele>479.0</ele><time>2026-04-28T09:36:40.841Z</time></trkpt><trkpt lat="44.17866182597954" lon="10.932246635471248"><ele>479.0</ele><time>2026-04-28T09:36:41.841Z</time></trkpt><trkpt lat="44.178621754639074" lon="10.93243030551126"><ele>479.0</ele><time>2026-04-28T09:36:42.841Z</time></trkpt><trkpt lat="44.178603925349464" lon="10.93261644005294"><ele>479.0</ele><time>2026-04-28T09:36:43.841Z</time></trkpt><trkpt lat="44.178574907527626" lon="10.93279744194578"><ele>479.0</ele><time>2026-04-28T09:36:44.841Z</time></trkpt><trkpt lat="44.17856287294948" lon="10.932981436905592"><ele>477.25</ele><time>2026-04-28T09:36:45.841Z</time></trkpt><trkpt lat="44.17857695416366" lon="10.933161498562628"><ele>475.5</ele><time>2026-04-28T09:36:46.841Z</time></trkpt><trkpt lat="44.17861141101245" lon="10.933336230748978"><ele>473.75</ele><time>2026-04-28T09:36:47.841Z</time></trkpt><trkpt lat="44.17866033257046" lon="10.933500928835533"><ele>472.0</ele><time>2026-04-28T09:36:48.841Z</time></trkpt><trkpt lat="44.17872516538696" lon="10.93366640028364"><ele>473.33333333333337</ele><time>2026-04-28T09:36:49.841Z</time></trkpt><trkpt lat="44.178813735346395" lon="10.933831737801263"><ele>474.66666666666663</ele><time>2026-04-28T09:36:50.841Z</time></trkpt><trkpt lat="44.178918504687466" lon="10.934002488378237"><ele>476.0</ele><time>2026-04-28T09:36:51.841Z</time></trkpt><trkpt lat="44.179023409245985" lon="10.934166923302541"><ele>475.0</ele><time>2026-04-28T09:36:52.841Z</time></trkpt><trkpt lat="44.17908973939088" lon="10.934341633635613"><ele>474.0</ele><time>2026-04-28T09:36:53.841Z</time></trkpt><trkpt lat="44.179157408643235" lon="10.934501054468774"><ele>473.0</ele><time>2026-04-28T09:36:54.841Z</time></trkpt><trkpt lat="44.179221066391726" lon="10.934659532967427"><ele>472.0</ele><time>2026-04-28T09:36:55.841Z</time></trkpt><trkpt lat="44.17927960689844" lon="10.93480616046512"><ele>472.0</ele><time>2026-04-28T09:36:56.841Z</time></trkpt><trkpt lat="44.179344278538736" lon="10.93493122128325"><ele>472.0</ele><time>2026-04-28T09:36:57.841Z</time></trkpt><trkpt lat="44.17938887401235" lon="10.935084399196214"><ele>472.0</ele><time>2026-04-28T09:36:58.841Z</time></trkpt><trkpt lat="44.179458207409354" lon="10.935232624203996"><ele>472.0</ele><time>2026-04-28T09:36:59.841Z</time></trkpt><trkpt lat="44.179540702848534" lon="10.935373350796423"><ele>471.75</ele><time>2026-04-28T09:37:00.841Z</time></trkpt><trkpt lat="44.17963667164851" lon="10.935501213695856"><ele>471.5</ele><time>2026-04-28T09:37:01.841Z</time></trkpt><trkpt lat="44.179743494609255" lon="10.93561257478801"><ele>471.25</ele><time>2026-04-28T09:37:02.841Z</time></trkpt><trkpt lat="44.17986340306153" lon="10.935704901865854"><ele>471.0</ele><time>2026-04-28T09:37:03.841Z</time></trkpt><trkpt lat="44.17999429762932" lon="10.935786613983899"><ele>471.25</ele><time>2026-04-28T09:37:04.841Z</time></trkpt><trkpt lat="44.18011601545613" lon="10.93586675253669"><ele>471.5</ele><time>2026-04-28T09:37:05.841Z</time></trkpt><trkpt lat="44.180239110480244" lon="10.935956980569282"><ele>471.75</ele><time>2026-04-28T09:37:06.841Z</time></trkpt><trkpt lat="44.180379939330685" lon="10.936047039013932"><ele>472.0</ele><time>2026-04-28T09:37:07.841Z</time></trkpt><trkpt lat="44.18051695011382" lon="10.936128509705508"><ele>472.0</ele><time>2026-04-28T09:37:08.841Z</time></trkpt><trkpt lat="44.180634162665825" lon="10.936199938270565"><ele>472.00000000000006</ele><time>2026-04-28T09:37:09.841Z</time></trkpt><trkpt lat="44.18072441800919" lon="10.936275023162215"><ele>472.00000000000006</ele><time>2026-04-28T09:37:10.841Z</time></trkpt><trkpt lat="44.18081992271079" lon="10.936342164443056"><ele>472.0</ele><time>2026-04-28T09:37:11.841Z</time></trkpt><trkpt lat="44.18089920271211" lon="10.93641719503018"><ele>472.0</ele><time>2026-04-28T09:37:12.841Z</time></trkpt><trkpt lat="44.18095522902427" lon="10.936523877006115"><ele>473.25</ele><time>2026-04-28T09:37:13.841Z</time></trkpt><trkpt lat="44.18098338653742" lon="10.936667507633075"><ele>474.5</ele><time>2026-04-28T09:37:14.841Z</time></trkpt><trkpt lat="44.18096804163587" lon="10.936803404984099"><ele>475.75</ele><time>2026-04-28T09:37:15.841Z</time></trkpt><trkpt lat="44.18091645560873" lon="10.936940757081913"><ele>477.0</ele><time>2026-04-28T09:37:16.841Z</time></trkpt><trkpt lat="44.18082246168467" lon="10.937079407433068"><ele>477.0</ele><time>2026-04-28T09:37:17.841Z</time></trkpt><trkpt lat="44.18070324798163" lon="10.937207410234983"><ele>477.0</ele><time>2026-04-28T09:37:18.841Z</time></trkpt><trkpt lat="44.180611124172835" lon="10.937348993345063"><ele>477.0</ele><time>2026-04-28T09:37:19.841Z</time></trkpt><trkpt lat="44.18052561221925" lon="10.937480051671974"><ele>477.0</ele><time>2026-04-28T09:37:20.841Z</time></trkpt><trkpt lat="44.180449812345906" lon="10.93760565510431"><ele>473.25</ele><time>2026-04-28T09:37:21.841Z</time></trkpt><trkpt lat="44.180380823652015" lon="10.93774131268979"><ele>469.5</ele><time>2026-04-28T09:37:22.84Z</time></trkpt><trkpt lat="44.18033707951204" lon="10.937901869677084"><ele>465.75</ele><time>2026-04-28T09:37:23.84Z</time></trkpt><trkpt lat="44.18031530862925" lon="10.938071721664146"><ele>462.0</ele><time>2026-04-28T09:37:24.841Z</time></trkpt><trkpt lat="44.18033482008622" lon="10.938251893422605"><ele>461.25</ele><time>2026-04-28T09:37:25.84Z</time></trkpt><trkpt lat="44.18038832195839" lon="10.938421676724598"><ele>460.5</ele><time>2026-04-28T09:37:26.84Z</time></trkpt><trkpt lat="44.18046616321017" lon="10.93856727580726"><ele>459.75</ele><time>2026-04-28T09:37:27.84Z</time></trkpt><trkpt lat="44.18055673853522" lon="10.938686953716486"><ele>459.0</ele><time>2026-04-28T09:37:28.84Z</time></trkpt><trkpt lat="44.18068204368137" lon="10.938786878649095"><ele>461.33333333333337</ele><time>2026-04-28T09:37:29.84Z</time></trkpt><trkpt lat="44.180816333384286" lon="10.93889554090928"><ele>463.6666666666667</ele><time>2026-04-28T09:37:30.84Z</time></trkpt><trkpt lat="44.18096287869084" lon="10.939006955370967"><ele>466.0</ele><time>2026-04-28T09:37:31.84Z</time></trkpt><trkpt lat="44.181102211959015" lon="10.939143995252596"><ele>464.5</ele><time>2026-04-28T09:37:32.84Z</time></trkpt><trkpt lat="44.181239272382925" lon="10.939253060835263"><ele>463.0</ele><time>2026-04-28T09:37:33.841Z</time></trkpt><trkpt lat="44.18136627134744" lon="10.939336844966679"><ele>461.5</ele><time>2026-04-28T09:37:34.841Z</time></trkpt><trkpt lat="44.18148076640711" lon="10.939436704230603"><ele>460.0</ele><time>2026-04-28T09:37:35.841Z</time></trkpt><trkpt lat="44.18158701485332" lon="10.939529618092314"><ele>460.0</ele><time>2026-04-28T09:37:36.841Z</time></trkpt><trkpt lat="44.1816958145402" lon="10.939623559082658"><ele>460.0</ele><time>2026-04-28T09:37:37.841Z</time></trkpt><trkpt lat="44.18180324294294" lon="10.93972130719252"><ele>460.0</ele><time>2026-04-28T09:37:38.841Z</time></trkpt><trkpt lat="44.181897609268425" lon="10.939841615358302"><ele>460.0</ele><time>2026-04-28T09:37:39.841Z</time></trkpt><trkpt lat="44.18197494181662" lon="10.939973247410693"><ele>459.2</ele><time>2026-04-28T09:37:40.841Z</time></trkpt><trkpt lat="44.182045236155425" lon="10.940095993721696"><ele>458.4</ele><time>2026-04-28T09:37:41.841Z</time></trkpt><trkpt lat="44.18212973390842" lon="10.94019838767345"><ele>457.6</ele><time>2026-04-28T09:37:42.841Z</time></trkpt><trkpt lat="44.18223561061491" lon="10.94026183263476"><ele>456.8</ele><time>2026-04-28T09:37:43.841Z</time></trkpt><trkpt lat="44.182333310997" lon="10.940306531505819"><ele>456.0</ele><time>2026-04-28T09:37:44.841Z</time></trkpt><trkpt lat="44.18244139412016" lon="10.940361624345753"><ele>456.0</ele><time>2026-04-28T09:37:45.841Z</time></trkpt><trkpt lat="44.182533119007864" lon="10.940473937430141"><ele>456.0</ele><time>2026-04-28T09:37:46.841Z</time></trkpt><trkpt lat="44.18260118197493" lon="10.940617849523955"><ele>456.0</ele><time>2026-04-28T09:37:47.841Z</time></trkpt><trkpt lat="44.18263734996324" lon="10.940783143341983"><ele>456.0</ele><time>2026-04-28T09:37:48.841Z</time></trkpt><trkpt lat="44.18262043301328" lon="10.940977805932937"><ele>454.33333333333337</ele><time>2026-04-28T09:37:49.841Z</time></trkpt><trkpt lat="44.18261978771649" lon="10.941196819857865"><ele>452.6666666666667</ele><time>2026-04-28T09:37:50.841Z</time></trkpt><trkpt lat="44.182598685068264" lon="10.94142729164865"><ele>451.0</ele><time>2026-04-28T09:37:51.841Z</time></trkpt><trkpt lat="44.18257621729578" lon="10.94163506172933"><ele>449.75</ele><time>2026-04-28T09:37:52.841Z</time></trkpt><trkpt lat="44.18256269750537" lon="10.941820446444936"><ele>448.5</ele><time>2026-04-28T09:37:53.841Z</time></trkpt><trkpt lat="44.18255207081926" lon="10.942003035535915"><ele>447.25</ele><time>2026-04-28T09:37:54.841Z</time></trkpt><trkpt lat="44.18252936250531" lon="10.9421838561916"><ele>446.0</ele><time>2026-04-28T09:37:55.841Z</time></trkpt><trkpt lat="44.18251412684378" lon="10.942352291249977"><ele>446.0</ele><time>2026-04-28T09:37:56.841Z</time></trkpt><trkpt lat="44.182500908811086" lon="10.942520976904904"><ele>446.0</ele><time>2026-04-28T09:37:57.841Z</time></trkpt><trkpt lat="44.182487336626124" lon="10.942671810404573"><ele>446.0</ele><time>2026-04-28T09:37:58.841Z</time></trkpt><trkpt lat="44.18248168522412" lon="10.942826484559665"><ele>446.0</ele><time>2026-04-28T09:37:59.841Z</time></trkpt><trkpt lat="44.182481366470476" lon="10.94296697184084"><ele>446.0</ele><time>2026-04-28T09:38:00.841Z</time></trkpt><trkpt lat="44.18247621992361" lon="10.943096947536356"><ele>445.16666666666663</ele><time>2026-04-28T09:38:01.841Z</time></trkpt><trkpt lat="44.1824615304807" lon="10.943229366404037"><ele>444.3333333333333</ele><time>2026-04-28T09:38:02.841Z</time></trkpt><trkpt lat="44.18248768223945" lon="10.943341548630393"><ele>443.5</ele><time>2026-04-28T09:38:03.841Z</time></trkpt><trkpt lat="44.182535287754" lon="10.943412252701954"><ele>442.66666666666663</ele><time>2026-04-28T09:38:04.841Z</time></trkpt><trkpt lat="44.182607491958215" lon="10.943447306604444"><ele>441.8333333333333</ele><time>2026-04-28T09:38:05.841Z</time></trkpt><trkpt lat="44.18271641425017" lon="10.943439027178979"><ele>441.0</ele><time>2026-04-28T09:38:06.841Z</time></trkpt><trkpt lat="44.18280786137991" lon="10.94336521707488"><ele>441.0</ele><time>2026-04-28T09:38:07.841Z</time></trkpt><trkpt lat="44.1829077499361" lon="10.943267185798423"><ele>441.0</ele><time>2026-04-28T09:38:08.841Z</time></trkpt><trkpt lat="44.182989265849784" lon="10.943186105811003"><ele>441.0</ele><time>2026-04-28T09:38:09.841Z</time></trkpt><trkpt lat="44.18306370739727" lon="10.94312082661904"><ele>441.0</ele><time>2026-04-28T09:38:10.841Z</time></trkpt><trkpt lat="44.18313733069606" lon="10.943092645503418"><ele>441.0</ele><time>2026-04-28T09:38:11.841Z</time></trkpt><trkpt lat="44.18321482522611" lon="10.943077964847578"><ele>441.20000000000005</ele><time>2026-04-28T09:38:12.841Z</time></trkpt><trkpt lat="44.18328664378873" lon="10.943146990194123"><ele>441.40000000000003</ele><time>2026-04-28T09:38:13.841Z</time></trkpt><trkpt lat="44.18334823068424" lon="10.943253414454075"><ele>441.6</ele><time>2026-04-28T09:38:14.841Z</time></trkpt><trkpt lat="44.18337903942285" lon="10.943376469283807"><ele>441.8</ele><time>2026-04-28T09:38:15.841Z</time></trkpt><trkpt lat="44.183386499693015" lon="10.943513956327779"><ele>442.0</ele><time>2026-04-28T09:38:16.841Z</time></trkpt><trkpt lat="44.18339915978952" lon="10.943646034810053"><ele>440.6</ele><time>2026-04-28T09:38:17.841Z</time></trkpt><trkpt lat="44.18342430911265" lon="10.943769211883582"><ele>439.20000000000005</ele><time>2026-04-28T09:38:18.841Z</time></trkpt><trkpt lat="44.18346996179002" lon="10.94387884394614"><ele>437.8</ele><time>2026-04-28T09:38:19.841Z</time></trkpt><trkpt lat="44.18350441886067" lon="10.943975996762111"><ele>436.4</ele><time>2026-04-28T09:38:20.841Z</time></trkpt><trkpt lat="44.18357045737924" lon="10.944076981317782"><ele>435.0</ele><time>2026-04-28T09:38:21.841Z</time></trkpt><trkpt lat="44.18365498927567" lon="10.94418530349472"><ele>433.6</ele><time>2026-04-28T09:38:22.841Z</time></trkpt><trkpt lat="44.18372968501103" lon="10.944294566044638"><ele>432.2</ele><time>2026-04-28T09:38:23.841Z</time></trkpt><trkpt lat="44.183797747336776" lon="10.94441088360263"><ele>430.79999999999995</ele><time>2026-04-28T09:38:24.841Z</time></trkpt><trkpt lat="44.18385946978464" lon="10.944528050578887"><ele>429.4</ele><time>2026-04-28T09:38:25.841Z</time></trkpt><trkpt lat="44.18394613119019" lon="10.944617648005638"><ele>428.0</ele><time>2026-04-28T09:38:26.841Z</time></trkpt><trkpt lat="44.184045587571845" lon="10.944680128819877"><ele>427.25</ele><time>2026-04-28T09:38:27.841Z</time></trkpt><trkpt lat="44.18415418320956" lon="10.944710834247878"><ele>426.5</ele><time>2026-04-28T09:38:28.84Z</time></trkpt><trkpt lat="44.1842638914053" lon="10.944689697056603"><ele>425.75</ele><time>2026-04-28T09:38:29.84Z</time></trkpt><trkpt lat="44.184367936744046" lon="10.944612789021358"><ele>425.0</ele><time>2026-04-28T09:38:30.84Z</time></trkpt><trkpt lat="44.18447647537661" lon="10.944488394303002"><ele>425.0</ele><time>2026-04-28T09:38:31.84Z</time></trkpt><trkpt lat="44.18457374957257" lon="10.944352662815776"><ele>425.0</ele><time>2026-04-28T09:38:32.84Z</time></trkpt><trkpt lat="44.1846627241533" lon="10.944198319591036"><ele>425.0</ele><time>2026-04-28T09:38:33.84Z</time></trkpt><trkpt lat="44.18476670523649" lon="10.94408093454801"><ele>425.0</ele><time>2026-04-28T09:38:34.84Z</time></trkpt><trkpt lat="44.184836493740065" lon="10.943965925217572"><ele>424.6</ele><time>2026-04-28T09:38:35.84Z</time></trkpt><trkpt lat="44.18490891496723" lon="10.943869900966376"><ele>424.2</ele><time>2026-04-28T09:38:36.84Z</time></trkpt><trkpt lat="44.18497593781124" lon="10.943785372022308"><ele>423.79999999999995</ele><time>2026-04-28T09:38:37.84Z</time></trkpt><trkpt lat="44.1850344571563" lon="10.943694918531865"><ele>423.4</ele><time>2026-04-28T09:38:38.84Z</time></trkpt><trkpt lat="44.18511321395924" lon="10.94364289893384"><ele>423.0</ele><time>2026-04-28T09:38:39.84Z</time></trkpt><trkpt lat="44.18520233033339" lon="10.943581024856854"><ele>423.0</ele><time>2026-04-28T09:38:40.84Z</time></trkpt><trkpt lat="44.185304893542224" lon="10.943564586126858"><ele>423.0</ele><time>2026-04-28T09:38:41.84Z</time></trkpt><trkpt lat="44.18539195287655" lon="10.943577331962844"><ele>423.0</ele><time>2026-04-28T09:38:42.84Z</time></trkpt><trkpt lat="44.18548801076158" lon="10.943616949185534"><ele>423.0</ele><time>2026-04-28T09:38:43.84Z</time></trkpt><trkpt lat="44.18559468128705" lon="10.943656007088833"><ele>423.0</ele><time>2026-04-28T09:38:44.84Z</time></trkpt><trkpt lat="44.185711474462835" lon="10.943715376020247"><ele>423.0</ele><time>2026-04-28T09:38:45.84Z</time></trkpt><trkpt lat="44.185805300667376" lon="10.943815802983206"><ele>423.0</ele><time>2026-04-28T09:38:46.84Z</time></trkpt><trkpt lat="44.18590157136663" lon="10.943899832534088"><ele>423.0</ele><time>2026-04-28T09:38:47.84Z</time></trkpt><trkpt lat="44.18598330256664" lon="10.944004674858613"><ele>423.0</ele><time>2026-04-28T09:38:48.84Z</time></trkpt><trkpt lat="44.18607234473434" lon="10.94411560071843"><ele>421.5</ele><time>2026-04-28T09:38:49.84Z</time></trkpt><trkpt lat="44.18616141319499" lon="10.944221308074399"><ele>420.0</ele><time>2026-04-28T09:38:50.84Z</time></trkpt><trkpt lat="44.18625057870312" lon="10.944336344102807"><ele>418.5</ele><time>2026-04-28T09:38:51.84Z</time></trkpt><trkpt lat="44.18633488954076" lon="10.944469487199646"><ele>417.0</ele><time>2026-04-28T09:38:52.84Z</time></trkpt><trkpt lat="44.186419199651816" lon="10.94461166210183"><ele>417.0</ele><time>2026-04-28T09:38:53.84Z</time></trkpt><trkpt lat="44.18650622383624" lon="10.94476140891492"><ele>417.0</ele><time>2026-04-28T09:38:54.84Z</time></trkpt><trkpt lat="44.18659850059929" lon="10.944890466496743"><ele>417.0</ele><time>2026-04-28T09:38:55.84Z</time></trkpt><trkpt lat="44.18668330612338" lon="10.945012524478148"><ele>417.0</ele><time>2026-04-28T09:38:56.84Z</time></trkpt><trkpt lat="44.18676175156081" lon="10.94514488905788"><ele>418.75</ele><time>2026-04-28T09:38:57.84Z</time></trkpt><trkpt lat="44.18683569796393" lon="10.945288981527087"><ele>420.5</ele><time>2026-04-28T09:38:58.84Z</time></trkpt><trkpt lat="44.18690614675282" lon="10.94544200198524"><ele>422.25</ele><time>2026-04-28T09:38:59.84Z</time></trkpt><trkpt lat="44.18697322512961" lon="10.945601546678555"><ele>424.0</ele><time>2026-04-28T09:39:00.84Z</time></trkpt><trkpt lat="44.18702937751804" lon="10.945764916297744"><ele>422.75</ele><time>2026-04-28T09:39:01.84Z</time></trkpt><trkpt lat="44.187085018876296" lon="10.945925975868079"><ele>421.5</ele><time>2026-04-28T09:39:02.84Z</time></trkpt><trkpt lat="44.187148199949036" lon="10.94607358451857"><ele>420.25</ele><time>2026-04-28T09:39:03.84Z</time></trkpt><trkpt lat="44.18720119469251" lon="10.9462258830921"><ele>419.0</ele><time>2026-04-28T09:39:04.84Z</time></trkpt><trkpt lat="44.18725761343309" lon="10.946375891164394"><ele>419.0</ele><time>2026-04-28T09:39:05.84Z</time></trkpt><trkpt lat="44.18731813056685" lon="10.94653572578212"><ele>419.0</ele><time>2026-04-28T09:39:06.84Z</time></trkpt><trkpt lat="44.18737999147161" lon="10.946688089419716"><ele>419.0</ele><time>2026-04-28T09:39:07.84Z</time></trkpt><trkpt lat="44.187422421011" lon="10.946858945861273"><ele>419.0</ele><time>2026-04-28T09:39:08.84Z</time></trkpt><trkpt lat="44.1874628070869" lon="10.947040289717647"><ele>422.0</ele><time>2026-04-28T09:39:09.84Z</time></trkpt><trkpt lat="44.187481125909066" lon="10.947214620466916"><ele>425.0</ele><time>2026-04-28T09:39:10.84Z</time></trkpt><trkpt lat="44.18749876527483" lon="10.947385854913781"><ele>428.0</ele><time>2026-04-28T09:39:11.84Z</time></trkpt><trkpt lat="44.187515398375574" lon="10.947563920787463"><ele>431.0</ele><time>2026-04-28T09:39:12.84Z</time></trkpt><trkpt lat="44.18752725467872" lon="10.947727220094578"><ele>431.25</ele><time>2026-04-28T09:39:13.84Z</time></trkpt><trkpt lat="44.18753071224601" lon="10.947889431864368"><ele>431.5</ele><time>2026-04-28T09:39:14.84Z</time></trkpt><trkpt lat="44.18752316997255" lon="10.948039774581895"><ele>431.75</ele><time>2026-04-28T09:39:15.84Z</time></trkpt><trkpt lat="44.18750834962346" lon="10.948202591356965"><ele>432.0</ele><time>2026-04-28T09:39:16.84Z</time></trkpt><trkpt lat="44.18748265822322" lon="10.94835369239371"><ele>431.5</ele><time>2026-04-28T09:39:17.84Z</time></trkpt><trkpt lat="44.18745358154991" lon="10.94851331241538"><ele>431.0</ele><time>2026-04-28T09:39:18.84Z</time></trkpt><trkpt lat="44.18744307367568" lon="10.948681326102491"><ele>430.5</ele><time>2026-04-28T09:39:19.84Z</time></trkpt><trkpt lat="44.18742550527055" lon="10.948852824121182"><ele>430.0</ele><time>2026-04-28T09:39:20.84Z</time></trkpt><trkpt lat="44.18743522079873" lon="10.949027447054183"><ele>430.0</ele><time>2026-04-28T09:39:21.84Z</time></trkpt><trkpt lat="44.18747817384165" lon="10.94919119372922"><ele>430.0</ele><time>2026-04-28T09:39:22.84Z</time></trkpt><trkpt lat="44.187537987995086" lon="10.949349500511717"><ele>430.0</ele><time>2026-04-28T09:39:23.84Z</time></trkpt><trkpt lat="44.18762582382104" lon="10.949497086782886"><ele>430.0</ele><time>2026-04-28T09:39:24.84Z</time></trkpt><trkpt lat="44.18771742233756" lon="10.949643497796835"><ele>426.5</ele><time>2026-04-28T09:39:25.84Z</time></trkpt><trkpt lat="44.18779106147779" lon="10.949806103755687"><ele>423.0</ele><time>2026-04-28T09:39:26.84Z</time></trkpt><trkpt lat="44.18787047876716" lon="10.949940832430297"><ele>419.5</ele><time>2026-04-28T09:39:27.838Z</time></trkpt><trkpt lat="44.1879471878237" lon="10.950073131698053"><ele>416.0</ele><time>2026-04-28T09:39:28.839Z</time></trkpt><trkpt lat="44.188020901914854" lon="10.950204632616732"><ele>414.5</ele><time>2026-04-28T09:39:29.839Z</time></trkpt><trkpt lat="44.18810359789324" lon="10.950336603485434"><ele>413.0</ele><time>2026-04-28T09:39:30.838Z</time></trkpt><trkpt lat="44.18818734391511" lon="10.95046130102021"><ele>411.5</ele><time>2026-04-28T09:39:31.838Z</time></trkpt><trkpt lat="44.18826924320677" lon="10.950583284446047"><ele>410.0</ele><time>2026-04-28T09:39:32.838Z</time></trkpt><trkpt lat="44.188343313276945" lon="10.950701535185601"><ele>410.6</ele><time>2026-04-28T09:39:33.838Z</time></trkpt><trkpt lat="44.18840413396832" lon="10.950815153833764"><ele>411.2</ele><time>2026-04-28T09:39:34.838Z</time></trkpt><trkpt lat="44.188472606582835" lon="10.950912275433152"><ele>411.79999999999995</ele><time>2026-04-28T09:39:35.838Z</time></trkpt><trkpt lat="44.18854965860561" lon="10.95097970073039"><ele>412.4</ele><time>2026-04-28T09:39:36.838Z</time></trkpt><trkpt lat="44.18862719229176" lon="10.95101283151229"><ele>413.0</ele><time>2026-04-28T09:39:37.837Z</time></trkpt><trkpt lat="44.188728981784465" lon="10.950976318488465"><ele>413.0</ele><time>2026-04-28T09:39:38.837Z</time></trkpt><trkpt lat="44.18882027199842" lon="10.950876705923356"><ele>413.0</ele><time>2026-04-28T09:39:39.837Z</time></trkpt><trkpt lat="44.18893041456833" lon="10.950802758607418"><ele>413.0</ele><time>2026-04-28T09:39:40.838Z</time></trkpt><trkpt lat="44.18904514582855" lon="10.950700825149799"><ele>413.0</ele><time>2026-04-28T09:39:41.838Z</time></trkpt><trkpt lat="44.189158097795364" lon="10.95059851335072"><ele>414.75</ele><time>2026-04-28T09:39:42.838Z</time></trkpt><trkpt lat="44.189262091218566" lon="10.950497475277356"><ele>416.5</ele><time>2026-04-28T09:39:43.838Z</time></trkpt><trkpt lat="44.18935671369763" lon="10.950372732841423"><ele>418.25</ele><time>2026-04-28T09:39:44.838Z</time></trkpt><trkpt lat="44.18943510620681" lon="10.95023474873779"><ele>420.0</ele><time>2026-04-28T09:39:45.838Z</time></trkpt><trkpt lat="44.189498561511634" lon="10.950078882577394"><ele>423.75</ele><time>2026-04-28T09:39:46.838Z</time></trkpt><trkpt lat="44.18955779958182" lon="10.94993067331644"><ele>427.5</ele><time>2026-04-28T09:39:47.838Z</time></trkpt><trkpt lat="44.18960998062302" lon="10.949773316571564"><ele>431.25</ele><time>2026-04-28T09:39:48.838Z</time></trkpt><trkpt lat="44.18967004941558" lon="10.949636270655887"><ele>435.0</ele><time>2026-04-28T09:39:49.838Z</time></trkpt><trkpt lat="44.18974263392237" lon="10.949521927602268"><ele>435.0</ele><time>2026-04-28T09:39:50.838Z</time></trkpt><trkpt lat="44.18982338714005" lon="10.949440498618369"><ele>435.0</ele><time>2026-04-28T09:39:51.838Z</time></trkpt><trkpt lat="44.18992868522816" lon="10.94938535301979"><ele>435.0</ele><time>2026-04-28T09:39:52.838Z</time></trkpt><trkpt lat="44.19004574711353" lon="10.949345324390501"><ele>435.0</ele><time>2026-04-28T09:39:53.838Z</time></trkpt><trkpt lat="44.190157034462544" lon="10.949360465617872"><ele>435.0</ele><time>2026-04-28T09:39:54.838Z</time></trkpt><trkpt lat="44.190264622709115" lon="10.94940002650906"><ele>430.5</ele><time>2026-04-28T09:39:55.838Z</time></trkpt><trkpt lat="44.190367506053455" lon="10.949483297782828"><ele>426.0</ele><time>2026-04-28T09:39:56.838Z</time></trkpt><trkpt lat="44.19045457144536" lon="10.949593014161612"><ele>421.5</ele><time>2026-04-28T09:39:57.838Z</time></trkpt><trkpt lat="44.19052355386909" lon="10.949703628833413"><ele>417.0</ele><time>2026-04-28T09:39:58.838Z</time></trkpt><trkpt lat="44.19058096262834" lon="10.949834099139405"><ele>417.0</ele><time>2026-04-28T09:39:59.838Z</time></trkpt><trkpt lat="44.19062586856499" lon="10.949972622199288"><ele>417.0</ele><time>2026-04-28T09:40:00.838Z</time></trkpt><trkpt lat="44.190650609593895" lon="10.950132877418602"><ele>417.0</ele><time>2026-04-28T09:40:01.838Z</time></trkpt><trkpt lat="44.19065468981621" lon="10.95029228759191"><ele>417.0</ele><time>2026-04-28T09:40:02.838Z</time></trkpt><trkpt lat="44.190653283769564" lon="10.950453598831709"><ele>415.0</ele><time>2026-04-28T09:40:03.838Z</time></trkpt><trkpt lat="44.19065412584418" lon="10.950629661664188"><ele>413.0</ele><time>2026-04-28T09:40:04.838Z</time></trkpt><trkpt lat="44.19066733832795" lon="10.950822408313504"><ele>411.0</ele><time>2026-04-28T09:40:05.838Z</time></trkpt><trkpt lat="44.1906471143773" lon="10.951002508014174"><ele>409.0</ele><time>2026-04-28T09:40:06.838Z</time></trkpt><trkpt lat="44.19065475041897" lon="10.951163186296698"><ele>408.6</ele><time>2026-04-28T09:40:07.838Z</time></trkpt><trkpt lat="44.19062718485224" lon="10.951308612209685"><ele>408.2</ele><time>2026-04-28T09:40:08.838Z</time></trkpt><trkpt lat="44.1906326365621" lon="10.951442949629435"><ele>407.8</ele><time>2026-04-28T09:40:09.838Z</time></trkpt><trkpt lat="44.19062044715121" lon="10.951572354964224"><ele>407.40000000000003</ele><time>2026-04-28T09:40:10.838Z</time></trkpt><trkpt lat="44.19060431427214" lon="10.951695692200502"><ele>407.0</ele><time>2026-04-28T09:40:11.838Z</time></trkpt><trkpt lat="44.19059258210068" lon="10.951815106139858"><ele>407.0</ele><time>2026-04-28T09:40:12.838Z</time></trkpt><trkpt lat="44.19057261744993" lon="10.951943408985473"><ele>407.0</ele><time>2026-04-28T09:40:13.838Z</time></trkpt><trkpt lat="44.19054460057888" lon="10.952075580360598"><ele>407.0</ele><time>2026-04-28T09:40:14.838Z</time></trkpt><trkpt lat="44.19050268341146" lon="10.952227669291032"><ele>407.0</ele><time>2026-04-28T09:40:15.838Z</time></trkpt><trkpt lat="44.19044252785063" lon="10.952390140787674"><ele>407.0</ele><time>2026-04-28T09:40:16.838Z</time></trkpt><trkpt lat="44.19036796068871" lon="10.95251721775403"><ele>406.99999999999994</ele><time>2026-04-28T09:40:17.838Z</time></trkpt><trkpt lat="44.19029970489848" lon="10.952625324778419"><ele>407.0</ele><time>2026-04-28T09:40:18.838Z</time></trkpt><trkpt lat="44.190247885964524" lon="10.952730750115641"><ele>407.0</ele><time>2026-04-28T09:40:19.838Z</time></trkpt><trkpt lat="44.19020593597847" lon="10.952837423315207"><ele>407.0</ele><time>2026-04-28T09:40:20.838Z</time></trkpt><trkpt lat="44.190167508893566" lon="10.952942058831376"><ele>406.99999999999994</ele><time>2026-04-28T09:40:21.838Z</time></trkpt><trkpt lat="44.19015050028772" lon="10.953042684424114"><ele>407.0</ele><time>2026-04-28T09:40:22.838Z</time></trkpt><trkpt lat="44.1901333047452" lon="10.953136029851386"><ele>406.99999999999994</ele><time>2026-04-28T09:40:23.838Z</time></trkpt><trkpt lat="44.19013436531923" lon="10.953240100204674"><ele>407.0</ele><time>2026-04-28T09:40:24.838Z</time></trkpt><trkpt lat="44.190160649613375" lon="10.953344459804406"><ele>407.0</ele><time>2026-04-28T09:40:25.838Z</time></trkpt><trkpt lat="44.190225181609655" lon="10.9534318357835"><ele>407.0</ele><time>2026-04-28T09:40:26.838Z</time></trkpt><trkpt lat="44.19030856179063" lon="10.953503111139781"><ele>406.99999999999994</ele><time>2026-04-28T09:40:27.838Z</time></trkpt><trkpt lat="44.19038378650571" lon="10.953545652783989"><ele>407.0</ele><time>2026-04-28T09:40:28.838Z</time></trkpt><trkpt lat="44.19046155862212" lon="10.953585056535797"><ele>406.66666666666663</ele><time>2026-04-28T09:40:29.837Z</time></trkpt><trkpt lat="44.190529466029204" lon="10.953603816869288"><ele>406.3333333333333</ele><time>2026-04-28T09:40:30.837Z</time></trkpt><trkpt lat="44.19059410505854" lon="10.95363402233401"><ele>406.0</ele><time>2026-04-28T09:40:31.837Z</time></trkpt><trkpt lat="44.19065770239073" lon="10.953662801104569"><ele>405.66666666666663</ele><time>2026-04-28T09:40:32.837Z</time></trkpt><trkpt lat="44.190767870106725" lon="10.953711993457668"><ele>405.3333333333333</ele><time>2026-04-28T09:40:34.837Z</time></trkpt><trkpt lat="44.190832277486244" lon="10.953736079118341"><ele>405.0</ele><time>2026-04-28T09:40:35.837Z</time></trkpt><trkpt lat="44.19089711205243" lon="10.95375041705048"><ele>405.0</ele><time>2026-04-28T09:40:36.837Z</time></trkpt><trkpt lat="44.19101514644585" lon="10.953725663742459"><ele>405.0</ele><time>2026-04-28T09:40:38.837Z</time></trkpt><trkpt lat="44.19111477701064" lon="10.953711915930876"><ele>405.0</ele><time>2026-04-28T09:40:40.837Z</time></trkpt><trkpt lat="44.19123282995059" lon="10.953685537244773"><ele>405.0</ele><time>2026-04-28T09:40:42.837Z</time></trkpt><trkpt lat="44.19129886884246" lon="10.953694123944318"><ele>405.0</ele><time>2026-04-28T09:40:43.837Z</time></trkpt><trkpt lat="44.19134650651848" lon="10.953755559276315"><ele>405.0</ele><time>2026-04-28T09:40:44.837Z</time></trkpt><trkpt lat="44.19134239079464" lon="10.9539317244937"><ele>405.0</ele><time>2026-04-28T09:40:46.837Z</time></trkpt><trkpt lat="44.19127227309046" lon="10.954016979069038"><ele>405.0</ele><time>2026-04-28T09:40:47.837Z</time></trkpt><trkpt lat="44.19118506588834" lon="10.9540515239038"><ele>405.0</ele><time>2026-04-28T09:40:48.837Z</time></trkpt><trkpt lat="44.19110413981395" lon="10.954085454925192"><ele>405.0</ele><time>2026-04-28T09:40:49.837Z</time></trkpt><trkpt lat="44.19102712168223" lon="10.954102665032183"><ele>405.0</ele><time>2026-04-28T09:40:50.837Z</time></trkpt><trkpt lat="44.19096935737618" lon="10.95413956054903"><ele>405.0</ele><time>2026-04-28T09:40:51.837Z</time></trkpt><trkpt lat="44.190888377799645" lon="10.954170383457932"><ele>405.0</ele><time>2026-04-28T09:40:52.837Z</time></trkpt><trkpt lat="44.19080462176733" lon="10.954203018572512"><ele>405.0</ele><time>2026-04-28T09:40:53.837Z</time></trkpt><trkpt lat="44.190728097023886" lon="10.954225119337805"><ele>405.0</ele><time>2026-04-28T09:40:54.837Z</time></trkpt><trkpt lat="44.190641719824384" lon="10.954251820206684"><ele>405.0</ele><time>2026-04-28T09:40:55.837Z</time></trkpt><trkpt lat="44.19055677956751" lon="10.954252023727525"><ele>402.8333333333333</ele><time>2026-04-28T09:40:56.837Z</time></trkpt><trkpt lat="44.19047638951574" lon="10.954247275443667"><ele>400.66666666666663</ele><time>2026-04-28T09:40:57.837Z</time></trkpt><trkpt lat="44.19039126601944" lon="10.954258518057392"><ele>398.5</ele><time>2026-04-28T09:40:58.837Z</time></trkpt><trkpt lat="44.190312820443324" lon="10.954300932849462"><ele>396.3333333333333</ele><time>2026-04-28T09:40:59.837Z</time></trkpt><trkpt lat="44.19024040425778" lon="10.954373604832618"><ele>394.16666666666663</ele><time>2026-04-28T09:41:00.837Z</time></trkpt><trkpt lat="44.19019032192431" lon="10.954482526601732"><ele>392.0</ele><time>2026-04-28T09:41:01.837Z</time></trkpt><trkpt lat="44.19014755508559" lon="10.954605680601224"><ele>392.0</ele><time>2026-04-28T09:41:02.837Z</time></trkpt><trkpt lat="44.190125569617585" lon="10.954743161144394"><ele>392.0</ele><time>2026-04-28T09:41:03.837Z</time></trkpt><trkpt lat="44.1901338932802" lon="10.954898364906393"><ele>392.0</ele><time>2026-04-28T09:41:04.837Z</time></trkpt><trkpt lat="44.190151289130014" lon="10.95506017778349"><ele>392.0</ele><time>2026-04-28T09:41:05.837Z</time></trkpt><trkpt lat="44.19014277430975" lon="10.955201325160736"><ele>392.0</ele><time>2026-04-28T09:41:06.837Z</time></trkpt><trkpt lat="44.190153554703926" lon="10.955331412900625"><ele>392.20000000000005</ele><time>2026-04-28T09:41:07.837Z</time></trkpt><trkpt lat="44.190152109374644" lon="10.955460384061023"><ele>392.4</ele><time>2026-04-28T09:41:08.837Z</time></trkpt><trkpt lat="44.190171250421194" lon="10.955586173908804"><ele>392.6</ele><time>2026-04-28T09:41:09.837Z</time></trkpt><trkpt lat="44.190203775408214" lon="10.95572363887368"><ele>392.79999999999995</ele><time>2026-04-28T09:41:10.837Z</time></trkpt><trkpt lat="44.19023190840387" lon="10.955848262545262"><ele>393.0</ele><time>2026-04-28T09:41:11.837Z</time></trkpt><trkpt lat="44.19025798270925" lon="10.95597945088555"><ele>393.0</ele><time>2026-04-28T09:41:12.837Z</time></trkpt><trkpt lat="44.19029043794344" lon="10.956116209516175"><ele>393.0</ele><time>2026-04-28T09:41:13.837Z</time></trkpt><trkpt lat="44.19030014288747" lon="10.956255454466067"><ele>393.0</ele><time>2026-04-28T09:41:14.837Z</time></trkpt><trkpt lat="44.19028283635277" lon="10.95638204099207"><ele>393.0</ele><time>2026-04-28T09:41:15.837Z</time></trkpt><trkpt lat="44.190233989885186" lon="10.956500745762984"><ele>393.0</ele><time>2026-04-28T09:41:16.837Z</time></trkpt><trkpt lat="44.19014044538455" lon="10.956605798542943"><ele>392.25</ele><time>2026-04-28T09:41:17.837Z</time></trkpt><trkpt lat="44.19004777988006" lon="10.95671550870588"><ele>391.5</ele><time>2026-04-28T09:41:18.837Z</time></trkpt><trkpt lat="44.189932378267024" lon="10.956846841971922"><ele>390.75</ele><time>2026-04-28T09:41:19.837Z</time></trkpt><trkpt lat="44.18981688533735" lon="10.95697918041414"><ele>390.0</ele><time>2026-04-28T09:41:20.837Z</time></trkpt><trkpt lat="44.18969816398433" lon="10.95708412837302"><ele>390.0</ele><time>2026-04-28T09:41:21.837Z</time></trkpt><trkpt lat="44.189598156040866" lon="10.957193918759975"><ele>390.0</ele><time>2026-04-28T09:41:22.837Z</time></trkpt><trkpt lat="44.189496616797875" lon="10.957282536697567"><ele>390.0</ele><time>2026-04-28T09:41:23.837Z</time></trkpt><trkpt lat="44.189397565501004" lon="10.95734655022632"><ele>390.0</ele><time>2026-04-28T09:41:24.837Z</time></trkpt><trkpt lat="44.18927067118953" lon="10.957397263700802"><ele>390.0</ele><time>2026-04-28T09:41:25.837Z</time></trkpt><trkpt lat="44.18913311499956" lon="10.95745507956939"><ele>390.0</ele><time>2026-04-28T09:41:26.837Z</time></trkpt><trkpt lat="44.189008759727024" lon="10.957513844909473"><ele>390.0</ele><time>2026-04-28T09:41:27.837Z</time></trkpt><trkpt lat="44.18890277074247" lon="10.957584570858504"><ele>390.0</ele><time>2026-04-28T09:41:28.837Z</time></trkpt><trkpt lat="44.188805775971126" lon="10.957673473488283"><ele>388.4</ele><time>2026-04-28T09:41:29.837Z</time></trkpt><trkpt lat="44.18871238477607" lon="10.957774391293055"><ele>386.8</ele><time>2026-04-28T09:41:30.837Z</time></trkpt><trkpt lat="44.18864186152033" lon="10.95788461986386"><ele>385.20000000000005</ele><time>2026-04-28T09:41:31.837Z</time></trkpt><trkpt lat="44.18859952338644" lon="10.957979458677919"><ele>383.6</ele><time>2026-04-28T09:41:32.837Z</time></trkpt><trkpt lat="44.188571078959775" lon="10.958088808029276"><ele>382.0</ele><time>2026-04-28T09:41:33.835Z</time></trkpt><trkpt lat="44.18855831016387" lon="10.958194656169576"><ele>382.0</ele><time>2026-04-28T09:41:34.835Z</time></trkpt><trkpt lat="44.18857927973684" lon="10.958307876395944"><ele>382.0</ele><time>2026-04-28T09:41:35.835Z</time></trkpt><trkpt lat="44.18860583268099" lon="10.958425600792726"><ele>382.0</ele><time>2026-04-28T09:41:36.835Z</time></trkpt><trkpt lat="44.18868635522614" lon="10.958526981952632"><ele>382.0</ele><time>2026-04-28T09:41:37.834Z</time></trkpt><trkpt lat="44.18877759922801" lon="10.958638913259163"><ele>382.0</ele><time>2026-04-28T09:41:38.834Z</time></trkpt><trkpt lat="44.18888725848057" lon="10.958748366527029"><ele>382.25</ele><time>2026-04-28T09:41:39.835Z</time></trkpt><trkpt lat="44.18898575344491" lon="10.958880867773836"><ele>382.5</ele><time>2026-04-28T09:41:40.835Z</time></trkpt><trkpt lat="44.18910615652434" lon="10.958984963272481"><ele>382.75</ele><time>2026-04-28T09:41:41.835Z</time></trkpt><trkpt lat="44.189211098947254" lon="10.959106564916894"><ele>383.0</ele><time>2026-04-28T09:41:42.834Z</time></trkpt><trkpt lat="44.18930907662779" lon="10.95922847057948"><ele>383.0</ele><time>2026-04-28T09:41:43.835Z</time></trkpt><trkpt lat="44.18941563873095" lon="10.95935144037044"><ele>383.0</ele><time>2026-04-28T09:41:44.835Z</time></trkpt><trkpt lat="44.18951870231129" lon="10.9594741022459"><ele>383.0</ele><time>2026-04-28T09:41:45.834Z</time></trkpt><trkpt lat="44.1896238958123" lon="10.959611883797276"><ele>383.0</ele><time>2026-04-28T09:41:46.834Z</time></trkpt><trkpt lat="44.18971792204426" lon="10.959764986115204"><ele>383.0</ele><time>2026-04-28T09:41:47.834Z</time></trkpt><trkpt lat="44.18979834487451" lon="10.959924330088757"><ele>383.0</ele><time>2026-04-28T09:41:48.834Z</time></trkpt><trkpt lat="44.18986971772472" lon="10.960100637739583"><ele>383.0</ele><time>2026-04-28T09:41:49.834Z</time></trkpt><trkpt lat="44.18993251736143" lon="10.960297690731352"><ele>383.0</ele><time>2026-04-28T09:41:50.834Z</time></trkpt><trkpt lat="44.189983079495114" lon="10.960508908654614"><ele>383.75</ele><time>2026-04-28T09:41:51.834Z</time></trkpt><trkpt lat="44.19002006331153" lon="10.960711039345947"><ele>384.5</ele><time>2026-04-28T09:41:52.834Z</time></trkpt><trkpt lat="44.19004617041947" lon="10.96089006720261"><ele>385.25</ele><time>2026-04-28T09:41:53.834Z</time></trkpt><trkpt lat="44.190054453917035" lon="10.96104576248054"><ele>386.0</ele><time>2026-04-28T09:41:54.834Z</time></trkpt><trkpt lat="44.19003371189043" lon="10.961194841270174"><ele>386.20000000000005</ele><time>2026-04-28T09:41:55.834Z</time></trkpt><trkpt lat="44.18998204559861" lon="10.961329540910576"><ele>386.40000000000003</ele><time>2026-04-28T09:41:56.834Z</time></trkpt><trkpt lat="44.18990637480704" lon="10.961451009167286"><ele>386.6</ele><time>2026-04-28T09:41:57.834Z</time></trkpt><trkpt lat="44.18981929732319" lon="10.96151425694871"><ele>386.8</ele><time>2026-04-28T09:41:58.834Z</time></trkpt><trkpt lat="44.18972323338841" lon="10.961528160791577"><ele>387.0</ele><time>2026-04-28T09:41:59.834Z</time></trkpt><trkpt lat="44.189609051627194" lon="10.961490519997831"><ele>387.0</ele><time>2026-04-28T09:42:00.834Z</time></trkpt><trkpt lat="44.18948229630276" lon="10.96143278186017"><ele>387.0</ele><time>2026-04-28T09:42:01.834Z</time></trkpt><trkpt lat="44.189342166898356" lon="10.961370733261033"><ele>387.0</ele><time>2026-04-28T09:42:02.834Z</time></trkpt><trkpt lat="44.1892194504206" lon="10.961286753116713"><ele>387.0</ele><time>2026-04-28T09:42:03.834Z</time></trkpt><trkpt lat="44.18911260651135" lon="10.961183842945454"><ele>387.0</ele><time>2026-04-28T09:42:04.834Z</time></trkpt><trkpt lat="44.18902388965272" lon="10.961081706118328"><ele>387.0</ele><time>2026-04-28T09:42:05.834Z</time></trkpt><trkpt lat="44.18893943010734" lon="10.960985529271651"><ele>387.0</ele><time>2026-04-28T09:42:06.834Z</time></trkpt><trkpt lat="44.18884141539046" lon="10.960919256169474"><ele>387.0</ele><time>2026-04-28T09:42:07.834Z</time></trkpt><trkpt lat="44.188722045629724" lon="10.960887572854295"><ele>386.5</ele><time>2026-04-28T09:42:08.834Z</time></trkpt><trkpt lat="44.18859963340232" lon="10.960902912548715"><ele>386.0</ele><time>2026-04-28T09:42:09.834Z</time></trkpt><trkpt lat="44.18847474742813" lon="10.960952734048425"><ele>385.5</ele><time>2026-04-28T09:42:10.834Z</time></trkpt><trkpt lat="44.18833824885281" lon="10.961041122239005"><ele>385.0</ele><time>2026-04-28T09:42:11.834Z</time></trkpt><trkpt lat="44.18819821400285" lon="10.961164982717998"><ele>379.6666666666667</ele><time>2026-04-28T09:42:12.834Z</time></trkpt><trkpt lat="44.1880431726191" lon="10.961301306495903"><ele>374.33333333333337</ele><time>2026-04-28T09:42:13.834Z</time></trkpt><trkpt lat="44.1878957820518" lon="10.961451560144168"><ele>369.0</ele><time>2026-04-28T09:42:14.834Z</time></trkpt><trkpt lat="44.187773225156135" lon="10.961622178758093"><ele>370.75</ele><time>2026-04-28T09:42:15.834Z</time></trkpt><trkpt lat="44.18767046053184" lon="10.961779135104583"><ele>372.5</ele><time>2026-04-28T09:42:16.834Z</time></trkpt><trkpt lat="44.187593578399806" lon="10.96194827475867"><ele>374.25</ele><time>2026-04-28T09:42:17.834Z</time></trkpt><trkpt lat="44.18751761866251" lon="10.962133960844236"><ele>376.0</ele><time>2026-04-28T09:42:18.834Z</time></trkpt><trkpt lat="44.187444431398106" lon="10.96232207977643"><ele>376.0</ele><time>2026-04-28T09:42:19.834Z</time></trkpt><trkpt lat="44.18738582173563" lon="10.962517020249855"><ele>376.0</ele><time>2026-04-28T09:42:20.834Z</time></trkpt><trkpt lat="44.1873493127554" lon="10.962720095163426"><ele>376.0</ele><time>2026-04-28T09:42:21.834Z</time></trkpt><trkpt lat="44.187310344766544" lon="10.962903429203225"><ele>376.0</ele><time>2026-04-28T09:42:22.834Z</time></trkpt><trkpt lat="44.187273078949694" lon="10.96306936801169"><ele>373.5</ele><time>2026-04-28T09:42:23.834Z</time></trkpt><trkpt lat="44.18723522319998" lon="10.96323427727066"><ele>371.0</ele><time>2026-04-28T09:42:24.834Z</time></trkpt><trkpt lat="44.18719435907494" lon="10.963382311161174"><ele>368.5</ele><time>2026-04-28T09:42:25.834Z</time></trkpt><trkpt lat="44.187151980060975" lon="10.963527205549346"><ele>366.0</ele><time>2026-04-28T09:42:26.834Z</time></trkpt><trkpt lat="44.18711594517637" lon="10.96368692797005"><ele>366.0</ele><time>2026-04-28T09:42:27.834Z</time></trkpt><trkpt lat="44.18708290810825" lon="10.963839583867097"><ele>366.0</ele><time>2026-04-28T09:42:28.834Z</time></trkpt><trkpt lat="44.187043602199566" lon="10.964004562353312"><ele>366.0</ele><time>2026-04-28T09:42:29.834Z</time></trkpt><trkpt lat="44.18700724184442" lon="10.964172291873966"><ele>366.0</ele><time>2026-04-28T09:42:30.834Z</time></trkpt><trkpt lat="44.18697540974845" lon="10.964330508014811"><ele>366.4</ele><time>2026-04-28T09:42:31.834Z</time></trkpt><trkpt lat="44.186937995514654" lon="10.964477128620173"><ele>366.8</ele><time>2026-04-28T09:42:32.834Z</time></trkpt><trkpt lat="44.186907712461874" lon="10.964616208414409"><ele>367.2</ele><time>2026-04-28T09:42:33.834Z</time></trkpt><trkpt lat="44.18687547809364" lon="10.964756000276376"><ele>367.59999999999997</ele><time>2026-04-28T09:42:34.834Z</time></trkpt><trkpt lat="44.186845080628004" lon="10.964891264443793"><ele>368.0</ele><time>2026-04-28T09:42:35.834Z</time></trkpt><trkpt lat="44.186809848378566" lon="10.965038536384588"><ele>368.5</ele><time>2026-04-28T09:42:36.834Z</time></trkpt><trkpt lat="44.18677175729597" lon="10.965189773283281"><ele>369.0</ele><time>2026-04-28T09:42:37.834Z</time></trkpt><trkpt lat="44.18673315363001" lon="10.965354371436566"><ele>369.5</ele><time>2026-04-28T09:42:38.834Z</time></trkpt><trkpt lat="44.186701158204954" lon="10.965520888063063"><ele>370.0</ele><time>2026-04-28T09:42:39.834Z</time></trkpt><trkpt lat="44.186667651940624" lon="10.965679192654697"><ele>370.0</ele><time>2026-04-28T09:42:40.834Z</time></trkpt><trkpt lat="44.186627634130225" lon="10.965840277442624"><ele>370.0</ele><time>2026-04-28T09:42:41.834Z</time></trkpt><trkpt lat="44.18658868519796" lon="10.965991051621158"><ele>370.0</ele><time>2026-04-28T09:42:42.834Z</time></trkpt><trkpt lat="44.186542065471805" lon="10.966141490944556"><ele>370.0</ele><time>2026-04-28T09:42:43.834Z</time></trkpt><trkpt lat="44.18647944705457" lon="10.966286265397098"><ele>368.5</ele><time>2026-04-28T09:42:44.834Z</time></trkpt><trkpt lat="44.186399889086026" lon="10.96642196936105"><ele>367.0</ele><time>2026-04-28T09:42:45.834Z</time></trkpt><trkpt lat="44.18629863161858" lon="10.966530346044589"><ele>365.5</ele><time>2026-04-28T09:42:46.834Z</time></trkpt><trkpt lat="44.18616531959415" lon="10.966627026011283"><ele>364.0</ele><time>2026-04-28T09:42:47.834Z</time></trkpt><trkpt lat="44.18601867775461" lon="10.966682473302122"><ele>366.0</ele><time>2026-04-28T09:42:48.833Z</time></trkpt><trkpt lat="44.18587435844325" lon="10.966757644411949"><ele>368.0</ele><time>2026-04-28T09:42:49.833Z</time></trkpt><trkpt lat="44.18573844625782" lon="10.966848096087801"><ele>370.0</ele><time>2026-04-28T09:42:50.833Z</time></trkpt><trkpt lat="44.185611528844625" lon="10.96695790587179"><ele>367.0</ele><time>2026-04-28T09:42:51.833Z</time></trkpt><trkpt lat="44.18548224932408" lon="10.967074922970033"><ele>364.0</ele><time>2026-04-28T09:42:52.833Z</time></trkpt><trkpt lat="44.185358037621604" lon="10.967170828597201"><ele>361.0</ele><time>2026-04-28T09:42:53.833Z</time></trkpt><trkpt lat="44.18523414078667" lon="10.967267348201108"><ele>358.0</ele><time>2026-04-28T09:42:54.833Z</time></trkpt><trkpt lat="44.18509931936422" lon="10.967352894528696"><ele>358.0</ele><time>2026-04-28T09:42:55.833Z</time></trkpt><trkpt lat="44.184964936929234" lon="10.967427111588318"><ele>358.0</ele><time>2026-04-28T09:42:56.833Z</time></trkpt><trkpt lat="44.184836010352996" lon="10.967503264611826"><ele>358.0</ele><time>2026-04-28T09:42:57.833Z</time></trkpt><trkpt lat="44.184702937497" lon="10.967579301612156"><ele>358.0</ele><time>2026-04-28T09:42:58.833Z</time></trkpt><trkpt lat="44.18458520226037" lon="10.96766006705291"><ele>357.0</ele><time>2026-04-28T09:42:59.833Z</time></trkpt><trkpt lat="44.18447244992834" lon="10.967774524352025"><ele>356.0</ele><time>2026-04-28T09:43:00.833Z</time></trkpt><trkpt lat="44.184367534062666" lon="10.967915094314005"><ele>355.0</ele><time>2026-04-28T09:43:01.833Z</time></trkpt><trkpt lat="44.184271895101524" lon="10.96807492205151"><ele>354.0</ele><time>2026-04-28T09:43:02.833Z</time></trkpt><trkpt lat="44.184186357817055" lon="10.968247447071056"><ele>355.75</ele><time>2026-04-28T09:43:03.833Z</time></trkpt><trkpt lat="44.18410671680449" lon="10.968423831199553"><ele>357.5</ele><time>2026-04-28T09:43:04.833Z</time></trkpt><trkpt lat="44.1840423895917" lon="10.968591598962037"><ele>359.25</ele><time>2026-04-28T09:43:05.833Z</time></trkpt><trkpt lat="44.183973374666785" lon="10.968757820904374"><ele>361.0</ele><time>2026-04-28T09:43:06.833Z</time></trkpt><trkpt lat="44.1838994036397" lon="10.968919180891534"><ele>357.25</ele><time>2026-04-28T09:43:07.833Z</time></trkpt><trkpt lat="44.183826040843016" lon="10.969079845148908"><ele>353.5</ele><time>2026-04-28T09:43:08.833Z</time></trkpt><trkpt lat="44.1837636593018" lon="10.969231234092453"><ele>349.75</ele><time>2026-04-28T09:43:09.833Z</time></trkpt><trkpt lat="44.18370162216578" lon="10.969375072589916"><ele>346.0</ele><time>2026-04-28T09:43:10.833Z</time></trkpt><trkpt lat="44.18363136425171" lon="10.969520796120147"><ele>345.25</ele><time>2026-04-28T09:43:11.833Z</time></trkpt><trkpt lat="44.18357123385841" lon="10.969696212721413"><ele>344.5</ele><time>2026-04-28T09:43:12.833Z</time></trkpt><trkpt lat="44.183516092884226" lon="10.969892105474496"><ele>343.75</ele><time>2026-04-28T09:43:13.833Z</time></trkpt><trkpt lat="44.18347229852815" lon="10.970092882733988"><ele>343.0</ele><time>2026-04-28T09:43:14.833Z</time></trkpt><trkpt lat="44.18344866981736" lon="10.970287272168765"><ele>343.0</ele><time>2026-04-28T09:43:15.833Z</time></trkpt><trkpt lat="44.1834069590375" lon="10.970476194643581"><ele>343.0</ele><time>2026-04-28T09:43:16.833Z</time></trkpt><trkpt lat="44.183397238936806" lon="10.970623510306977"><ele>343.0</ele><time>2026-04-28T09:43:17.833Z</time></trkpt><trkpt lat="44.18339038364784" lon="10.970770848195132"><ele>343.0</ele><time>2026-04-28T09:43:18.833Z</time></trkpt><trkpt lat="44.18338136556646" lon="10.970907227120145"><ele>343.0</ele><time>2026-04-28T09:43:19.833Z</time></trkpt><trkpt lat="44.183350964080006" lon="10.971059573113001"><ele>343.0</ele><time>2026-04-28T09:43:20.833Z</time></trkpt><trkpt lat="44.183334835538126" lon="10.971232329022998"><ele>343.0</ele><time>2026-04-28T09:43:21.833Z</time></trkpt><trkpt lat="44.18334034474018" lon="10.971410041252236"><ele>343.0</ele><time>2026-04-28T09:43:22.833Z</time></trkpt><trkpt lat="44.18333064140933" lon="10.971585428713023"><ele>342.5</ele><time>2026-04-28T09:43:23.833Z</time></trkpt><trkpt lat="44.183315416955956" lon="10.971746026089722"><ele>342.0</ele><time>2026-04-28T09:43:24.833Z</time></trkpt><trkpt lat="44.18331000536397" lon="10.971905179076495"><ele>341.5</ele><time>2026-04-28T09:43:25.833Z</time></trkpt><trkpt lat="44.18328333178399" lon="10.972074559130846"><ele>341.0</ele><time>2026-04-28T09:43:26.833Z</time></trkpt><trkpt lat="44.18324496578413" lon="10.972241314844915"><ele>341.0</ele><time>2026-04-28T09:43:27.833Z</time></trkpt><trkpt lat="44.183209310419855" lon="10.972401224434625"><ele>341.0</ele><time>2026-04-28T09:43:28.833Z</time></trkpt><trkpt lat="44.18316172010279" lon="10.972540718023458"><ele>341.0</ele><time>2026-04-28T09:43:29.833Z</time></trkpt><trkpt lat="44.18311207038219" lon="10.972675682988772"><ele>341.0</ele><time>2026-04-28T09:43:30.833Z</time></trkpt><trkpt lat="44.18306871634519" lon="10.972798036362693"><ele>341.0</ele><time>2026-04-28T09:43:31.833Z</time></trkpt><trkpt lat="44.1830285807845" lon="10.972915025637239"><ele>340.0</ele><time>2026-04-28T09:43:32.833Z</time></trkpt><trkpt lat="44.182991246123535" lon="10.973026094476038"><ele>339.0</ele><time>2026-04-28T09:43:33.833Z</time></trkpt><trkpt lat="44.182961087041065" lon="10.97311926919365"><ele>338.0</ele><time>2026-04-28T09:43:34.833Z</time></trkpt><trkpt lat="44.18293501462124" lon="10.973200540085763"><ele>337.0</ele><time>2026-04-28T09:43:35.833Z</time></trkpt><trkpt lat="44.18290849241023" lon="10.973285877754742"><ele>336.0</ele><time>2026-04-28T09:43:36.833Z</time></trkpt><trkpt lat="44.18287967162683" lon="10.973376106108796"><ele>335.0</ele><time>2026-04-28T09:43:37.833Z</time></trkpt><trkpt lat="44.182850212251715" lon="10.97346922353481"><ele>334.0</ele><time>2026-04-28T09:43:38.833Z</time></trkpt><trkpt lat="44.18280479592811" lon="10.973554943575516"><ele>334.0</ele><time>2026-04-28T09:43:39.832Z</time></trkpt><trkpt lat="44.182766908298895" lon="10.97366563959735"><ele>334.0</ele><time>2026-04-28T09:43:40.832Z</time></trkpt><trkpt lat="44.18274410839699" lon="10.9737819114166"><ele>334.0</ele><time>2026-04-28T09:43:41.832Z</time></trkpt><trkpt lat="44.18270387205295" lon="10.973895421049225"><ele>334.0</ele><time>2026-04-28T09:43:42.832Z</time></trkpt><trkpt lat="44.18265724150976" lon="10.974020982535796"><ele>334.0</ele><time>2026-04-28T09:43:43.831Z</time></trkpt><trkpt lat="44.18261454780578" lon="10.974157049624443"><ele>334.2</ele><time>2026-04-28T09:43:44.831Z</time></trkpt><trkpt lat="44.18257062314124" lon="10.974282549817776"><ele>334.4</ele><time>2026-04-28T09:43:45.832Z</time></trkpt><trkpt lat="44.18252642642216" lon="10.974398812184777"><ele>334.6</ele><time>2026-04-28T09:43:46.832Z</time></trkpt><trkpt lat="44.18248176895598" lon="10.9745201469435"><ele>334.8</ele><time>2026-04-28T09:43:47.832Z</time></trkpt><trkpt lat="44.182440110193724" lon="10.97464967772729"><ele>335.0</ele><time>2026-04-28T09:43:48.831Z</time></trkpt><trkpt lat="44.18239521525758" lon="10.974795768309164"><ele>335.0</ele><time>2026-04-28T09:43:49.832Z</time></trkpt><trkpt lat="44.18235173691181" lon="10.97492299882214"><ele>335.0</ele><time>2026-04-28T09:43:50.832Z</time></trkpt><trkpt lat="44.182310359369374" lon="10.975045800602775"><ele>335.0</ele><time>2026-04-28T09:43:51.832Z</time></trkpt><trkpt lat="44.182258341213995" lon="10.975147939616694"><ele>335.0</ele><time>2026-04-28T09:43:52.832Z</time></trkpt><trkpt lat="44.182218640289015" lon="10.975264442531783"><ele>335.0</ele><time>2026-04-28T09:43:53.832Z</time></trkpt><trkpt lat="44.18219406520192" lon="10.975389550922978"><ele>334.2</ele><time>2026-04-28T09:43:54.832Z</time></trkpt><trkpt lat="44.18213065302045" lon="10.975500385303446"><ele>333.4</ele><time>2026-04-28T09:43:55.832Z</time></trkpt><trkpt lat="44.1820921798628" lon="10.975618228875694"><ele>332.6</ele><time>2026-04-28T09:43:56.832Z</time></trkpt><trkpt lat="44.18204694952319" lon="10.975738621569134"><ele>331.8</ele><time>2026-04-28T09:43:57.832Z</time></trkpt><trkpt lat="44.18200089117188" lon="10.975863648768513"><ele>331.0</ele><time>2026-04-28T09:43:58.832Z</time></trkpt><trkpt lat="44.181960130421906" lon="10.975987529617367"><ele>331.0</ele><time>2026-04-28T09:43:59.832Z</time></trkpt><trkpt lat="44.18191870194851" lon="10.97610816556051"><ele>331.0</ele><time>2026-04-28T09:44:00.832Z</time></trkpt><trkpt lat="44.18188080480053" lon="10.97623509521863"><ele>331.0</ele><time>2026-04-28T09:44:01.832Z</time></trkpt><trkpt lat="44.181840272440475" lon="10.976356245641448"><ele>331.0</ele><time>2026-04-28T09:44:02.832Z</time></trkpt><trkpt lat="44.18180057228941" lon="10.976479188829847"><ele>331.0</ele><time>2026-04-28T09:44:03.832Z</time></trkpt><trkpt lat="44.18175651138007" lon="10.976601223712807"><ele>331.20000000000005</ele><time>2026-04-28T09:44:04.832Z</time></trkpt><trkpt lat="44.1817148917" lon="10.97672307154541"><ele>331.40000000000003</ele><time>2026-04-28T09:44:05.832Z</time></trkpt><trkpt lat="44.181672794593304" lon="10.976850684808623"><ele>331.6</ele><time>2026-04-28T09:44:06.832Z</time></trkpt><trkpt lat="44.18163380160049" lon="10.976973931594838"><ele>331.8</ele><time>2026-04-28T09:44:07.832Z</time></trkpt><trkpt lat="44.18159437380026" lon="10.977099841920381"><ele>332.0</ele><time>2026-04-28T09:44:08.832Z</time></trkpt><trkpt lat="44.18154968723642" lon="10.977225189510888"><ele>331.40000000000003</ele><time>2026-04-28T09:44:09.832Z</time></trkpt><trkpt lat="44.18150898863098" lon="10.977343916035434"><ele>330.8</ele><time>2026-04-28T09:44:10.832Z</time></trkpt><trkpt lat="44.181464434974785" lon="10.97747214297727"><ele>330.2</ele><time>2026-04-28T09:44:11.832Z</time></trkpt><trkpt lat="44.181423660532424" lon="10.977595955252687"><ele>329.6</ele><time>2026-04-28T09:44:12.832Z</time></trkpt><trkpt lat="44.18138057985624" lon="10.977716894542871"><ele>329.0</ele><time>2026-04-28T09:44:13.832Z</time></trkpt><trkpt lat="44.181340637630576" lon="10.977840285103255"><ele>329.0</ele><time>2026-04-28T09:44:14.832Z</time></trkpt><trkpt lat="44.18130139765934" lon="10.977968529569363"><ele>329.0</ele><time>2026-04-28T09:44:15.832Z</time></trkpt><trkpt lat="44.18125950443757" lon="10.978104859302968"><ele>329.0</ele><time>2026-04-28T09:44:16.832Z</time></trkpt><trkpt lat="44.18120424727677" lon="10.978225763542273"><ele>329.0</ele><time>2026-04-28T09:44:17.832Z</time></trkpt><trkpt lat="44.18115699767619" lon="10.978365230113136"><ele>329.0</ele><time>2026-04-28T09:44:18.832Z</time></trkpt><trkpt lat="44.18110958485266" lon="10.978498222207358"><ele>329.79999999999995</ele><time>2026-04-28T09:44:19.832Z</time></trkpt><trkpt lat="44.18106282364649" lon="10.978630856696212"><ele>330.59999999999997</ele><time>2026-04-28T09:44:20.832Z</time></trkpt><trkpt lat="44.18102231761129" lon="10.978757619114065"><ele>331.4</ele><time>2026-04-28T09:44:21.832Z</time></trkpt><trkpt lat="44.18098605027151" lon="10.97889744797857"><ele>332.2</ele><time>2026-04-28T09:44:22.832Z</time></trkpt><trkpt lat="44.1809344848881" lon="10.979015598892257"><ele>333.0</ele><time>2026-04-28T09:44:23.832Z</time></trkpt><trkpt lat="44.18088070008766" lon="10.979123931183457"><ele>332.8333333333333</ele><time>2026-04-28T09:44:24.832Z</time></trkpt><trkpt lat="44.18083295295393" lon="10.979227544254748"><ele>332.6666666666667</ele><time>2026-04-28T09:44:25.832Z</time></trkpt><trkpt lat="44.180785504554436" lon="10.979315246222143"><ele>332.5</ele><time>2026-04-28T09:44:26.832Z</time></trkpt><trkpt lat="44.18073590938475" lon="10.9793901511858"><ele>332.33333333333337</ele><time>2026-04-28T09:44:27.832Z</time></trkpt><trkpt lat="44.18066826065732" lon="10.97950341789378"><ele>332.1666666666667</ele><time>2026-04-28T09:44:29.832Z</time></trkpt><trkpt lat="44.18061896870085" lon="10.979580974538997"><ele>332.0</ele><time>2026-04-28T09:44:31.832Z</time></trkpt><trkpt lat="44.18057138067047" lon="10.979666011187783"><ele>331.40000000000003</ele><time>2026-04-28T09:44:33.832Z</time></trkpt><trkpt lat="44.18052503355044" lon="10.979748208498076"><ele>330.8</ele><time>2026-04-28T09:44:35.832Z</time></trkpt><trkpt lat="44.18046287768357" lon="10.979833118815948"><ele>330.2</ele><time>2026-04-28T09:44:37.832Z</time></trkpt><trkpt lat="44.18039500430447" lon="10.97996604382793"><ele>329.6</ele><time>2026-04-28T09:44:39.832Z</time></trkpt><trkpt lat="44.18034502361159" lon="10.98002561477698"><ele>329.0</ele><time>2026-04-28T09:44:40.832Z</time></trkpt><trkpt lat="44.18026728978189" lon="10.980146155272317"><ele>328.25</ele><time>2026-04-28T09:44:42.832Z</time></trkpt><trkpt lat="44.1802112694885" lon="10.980231413132124"><ele>327.5</ele><time>2026-04-28T09:44:44.832Z</time></trkpt><trkpt lat="44.18023361091692" lon="10.980480887030385"><ele>326.75</ele><time>2026-04-28T09:44:47.832Z</time></trkpt><trkpt lat="44.18031848118689" lon="10.98058247733758"><ele>326.0</ele><time>2026-04-28T09:44:49.832Z</time></trkpt><trkpt lat="44.180387339177194" lon="10.98066490093716"><ele>326.0</ele><time>2026-04-28T09:44:51.832Z</time></trkpt><trkpt lat="44.180472044443896" lon="10.980766293796735"><ele>326.0</ele><time>2026-04-28T09:44:53.832Z</time></trkpt><trkpt lat="44.18052910179926" lon="10.980804683674497"><ele>326.0</ele><time>2026-04-28T09:44:54.832Z</time></trkpt><trkpt lat="44.180582598265026" lon="10.98086966458639"><ele>326.0</ele><time>2026-04-28T09:44:55.832Z</time></trkpt><trkpt lat="44.180635039575236" lon="10.980942010463403"><ele>326.0</ele><time>2026-04-28T09:44:56.832Z</time></trkpt><trkpt lat="44.18069236738509" lon="10.981019634243282"><ele>326.0</ele><time>2026-04-28T09:44:57.832Z</time></trkpt><trkpt lat="44.18075034042727" lon="10.98109006831992"><ele>325.6666666666667</ele><time>2026-04-28T09:44:58.832Z</time></trkpt><trkpt lat="44.18080774609962" lon="10.981182664638348"><ele>325.33333333333337</ele><time>2026-04-28T09:44:59.832Z</time></trkpt><trkpt lat="44.18085983547973" lon="10.981283091737792"><ele>325.0</ele><time>2026-04-28T09:45:00.832Z</time></trkpt><trkpt lat="44.18091141164674" lon="10.981384623707998"><ele>324.6666666666667</ele><time>2026-04-28T09:45:01.831Z</time></trkpt><trkpt lat="44.18094804561497" lon="10.98148502431521"><ele>324.3333333333333</ele><time>2026-04-28T09:45:02.831Z</time></trkpt><trkpt lat="44.18098853030613" lon="10.981588425796293"><ele>324.0</ele><time>2026-04-28T09:45:03.831Z</time></trkpt><trkpt lat="44.18101146500299" lon="10.981708069978525"><ele>324.0</ele><time>2026-04-28T09:45:04.831Z</time></trkpt><trkpt lat="44.18104487356735" lon="10.981819211219657"><ele>324.0</ele><time>2026-04-28T09:45:05.831Z</time></trkpt><trkpt lat="44.18107634965581" lon="10.981927992599205"><ele>324.0</ele><time>2026-04-28T09:45:06.831Z</time></trkpt><trkpt lat="44.18112064854992" lon="10.982023918039047"><ele>324.0</ele><time>2026-04-28T09:45:07.831Z</time></trkpt><trkpt lat="44.18112749687382" lon="10.982137615539028"><ele>324.0</ele><time>2026-04-28T09:45:08.831Z</time></trkpt><trkpt lat="44.18114966179197" lon="10.98225865353484"><ele>324.0</ele><time>2026-04-28T09:45:09.831Z</time></trkpt><trkpt lat="44.18117253670301" lon="10.982380225932602"><ele>324.0</ele><time>2026-04-28T09:45:10.831Z</time></trkpt><trkpt lat="44.18119970674379" lon="10.98249660073603"><ele>324.0</ele><time>2026-04-28T09:45:11.831Z</time></trkpt><trkpt lat="44.18121873066585" lon="10.98262056309927"><ele>324.0</ele><time>2026-04-28T09:45:12.831Z</time></trkpt><trkpt lat="44.18123716885205" lon="10.982742894275633"><ele>324.0</ele><time>2026-04-28T09:45:13.831Z</time></trkpt><trkpt lat="44.1812562914023" lon="10.982869300678935"><ele>324.0</ele><time>2026-04-28T09:45:14.831Z</time></trkpt><trkpt lat="44.18127429811793" lon="10.982995644489483"><ele>324.0</ele><time>2026-04-28T09:45:15.831Z</time></trkpt><trkpt lat="44.18129136855232" lon="10.983123243199143"><ele>324.0</ele><time>2026-04-28T09:45:16.831Z</time></trkpt><trkpt lat="44.18131982558784" lon="10.983249093087226"><ele>324.0</ele><time>2026-04-28T09:45:17.831Z</time></trkpt><trkpt lat="44.18133770229494" lon="10.983377156646483"><ele>324.0</ele><time>2026-04-28T09:45:18.831Z</time></trkpt><trkpt lat="44.181359747403526" lon="10.9835145198059"><ele>324.0</ele><time>2026-04-28T09:45:19.831Z</time></trkpt><trkpt lat="44.18138621258153" lon="10.983659707010439"><ele>324.0</ele><time>2026-04-28T09:45:20.831Z</time></trkpt><trkpt lat="44.181408114844146" lon="10.983802884058223"><ele>324.0</ele><time>2026-04-28T09:45:21.831Z</time></trkpt><trkpt lat="44.18143299264999" lon="10.98393169677186"><ele>324.0</ele><time>2026-04-28T09:45:22.831Z</time></trkpt><trkpt lat="44.18145335101425" lon="10.984044212688408"><ele>324.0</ele><time>2026-04-28T09:45:23.831Z</time></trkpt><trkpt lat="44.1814711135069" lon="10.984140104899312"><ele>324.0</ele><time>2026-04-28T09:45:24.831Z</time></trkpt><trkpt lat="44.181497001665235" lon="10.98427742565363"><ele>325.0</ele><time>2026-04-28T09:45:26.831Z</time></trkpt><trkpt lat="44.181520275630774" lon="10.984369277844845"><ele>326.0</ele><time>2026-04-28T09:45:28.831Z</time></trkpt><trkpt lat="44.181521427995456" lon="10.984464515573691"><ele>327.0</ele><time>2026-04-28T09:45:31.831Z</time></trkpt><trkpt lat="44.18152238959131" lon="10.984555584722905"><ele>328.0</ele><time>2026-04-28T09:45:35.831Z</time></trkpt><trkpt lat="44.18152770676828" lon="10.984643583114876"><ele>329.0</ele><time>2026-04-28T09:46:30.829Z</time></trkpt><trkpt lat="44.18157584242117" lon="10.984737563842202"><ele>330.0</ele><time>2026-04-28T09:46:33.829Z</time></trkpt><trkpt lat="44.181632750370234" lon="10.984899986730559"><ele>330.0</ele><time>2026-04-28T09:46:58.829Z</time></trkpt><trkpt lat="44.181665841521536" lon="10.9849905571581"><ele>330.0</ele><time>2026-04-28T09:46:59.829Z</time></trkpt><trkpt lat="44.18170051978648" lon="10.985074984224086"><ele>330.0</ele><time>2026-04-28T09:47:00.829Z</time></trkpt><trkpt lat="44.181754974331426" lon="10.985209451300385"><ele>330.0</ele><time>2026-04-28T09:47:02.829Z</time></trkpt><trkpt lat="44.18181790559359" lon="10.985380331127658"><ele>330.0</ele><time>2026-04-28T09:47:04.829Z</time></trkpt><trkpt lat="44.18184699809893" lon="10.985470766439523"><ele>329.7142857142857</ele><time>2026-04-28T09:47:05.829Z</time></trkpt><trkpt lat="44.181874345075464" lon="10.985561832763112"><ele>329.42857142857144</ele><time>2026-04-28T09:47:06.829Z</time></trkpt><trkpt lat="44.18190112963531" lon="10.985649142613877"><ele>329.1428571428571</ele><time>2026-04-28T09:47:07.829Z</time></trkpt><trkpt lat="44.181935835101015" lon="10.985741373845686"><ele>328.8571428571429</ele><time>2026-04-28T09:47:08.829Z</time></trkpt><trkpt lat="44.18197282296875" lon="10.985837523381033"><ele>328.57142857142856</ele><time>2026-04-28T09:47:09.829Z</time></trkpt><trkpt lat="44.18200686891865" lon="10.985936999923508"><ele>328.2857142857143</ele><time>2026-04-28T09:47:10.829Z</time></trkpt><trkpt lat="44.18202557449144" lon="10.986027377483678"><ele>328.0</ele><time>2026-04-28T09:47:11.829Z</time></trkpt><trkpt lat="44.182006238945256" lon="10.98618625120602"><ele>327.0</ele><time>2026-04-28T09:47:13.829Z</time></trkpt><trkpt lat="44.18190499486485" lon="10.9862589468309"><ele>326.0</ele><time>2026-04-28T09:47:15.829Z</time></trkpt><trkpt lat="44.181836037396856" lon="10.986244412882849"><ele>325.0</ele><time>2026-04-28T09:47:16.829Z</time></trkpt><trkpt lat="44.18175658698137" lon="10.98618522423706"><ele>324.0</ele><time>2026-04-28T09:47:17.829Z</time></trkpt><trkpt lat="44.18167810224525" lon="10.98608707224608"><ele>323.0</ele><time>2026-04-28T09:47:18.829Z</time></trkpt><trkpt lat="44.181595848465165" lon="10.985969428806374"><ele>323.0</ele><time>2026-04-28T09:47:19.829Z</time></trkpt><trkpt lat="44.18150065479968" lon="10.985836869287004"><ele>323.0</ele><time>2026-04-28T09:47:20.829Z</time></trkpt><trkpt lat="44.18139127441003" lon="10.985690961346503"><ele>323.0</ele><time>2026-04-28T09:47:21.829Z</time></trkpt><trkpt lat="44.1812645751987" lon="10.985526312532816"><ele>323.0</ele><time>2026-04-28T09:47:22.829Z</time></trkpt><trkpt lat="44.18114213529614" lon="10.985357270990248"><ele>323.0</ele><time>2026-04-28T09:47:23.829Z</time></trkpt><trkpt lat="44.18102821006128" lon="10.985191358100842"><ele>323.0</ele><time>2026-04-28T09:47:24.829Z</time></trkpt><trkpt lat="44.180917111795345" lon="10.985032956557626"><ele>323.75</ele><time>2026-04-28T09:47:25.829Z</time></trkpt><trkpt lat="44.180809800252455" lon="10.98488322626858"><ele>324.5</ele><time>2026-04-28T09:47:26.829Z</time></trkpt><trkpt lat="44.18070548985649" lon="10.984733666693032"><ele>325.25</ele><time>2026-04-28T09:47:27.829Z</time></trkpt><trkpt lat="44.18060714408654" lon="10.984584624693182"><ele>326.0</ele><time>2026-04-28T09:47:28.829Z</time></trkpt><trkpt lat="44.18050733826106" lon="10.984422018264231"><ele>326.0</ele><time>2026-04-28T09:47:29.829Z</time></trkpt><trkpt lat="44.180410943347994" lon="10.984244047694075"><ele>326.0</ele><time>2026-04-28T09:47:30.829Z</time></trkpt><trkpt lat="44.18030922862945" lon="10.984042768642212"><ele>326.0</ele><time>2026-04-28T09:47:31.829Z</time></trkpt><trkpt lat="44.18021130941772" lon="10.983831142116918"><ele>325.0</ele><time>2026-04-28T09:47:32.829Z</time></trkpt><trkpt lat="44.180126063399605" lon="10.983622204826425"><ele>324.0</ele><time>2026-04-28T09:47:33.829Z</time></trkpt><trkpt lat="44.180048197718044" lon="10.983416125503132"><ele>323.0</ele><time>2026-04-28T09:47:34.829Z</time></trkpt><trkpt lat="44.17996626684035" lon="10.983214402024197"><ele>322.33333333333337</ele><time>2026-04-28T09:47:35.829Z</time></trkpt><trkpt lat="44.17988659996441" lon="10.983008057243355"><ele>321.6666666666667</ele><time>2026-04-28T09:47:36.829Z</time></trkpt><trkpt lat="44.179802653655834" lon="10.98279812007179"><ele>321.0</ele><time>2026-04-28T09:47:37.829Z</time></trkpt><trkpt lat="44.179716233628426" lon="10.982578410307928"><ele>322.3333333333333</ele><time>2026-04-28T09:47:38.829Z</time></trkpt><trkpt lat="44.17962631684592" lon="10.98236400467294"><ele>323.66666666666663</ele><time>2026-04-28T09:47:39.829Z</time></trkpt><trkpt lat="44.179527662497144" lon="10.982149326189644"><ele>325.0</ele><time>2026-04-28T09:47:40.829Z</time></trkpt><trkpt lat="44.17941629687205" lon="10.981933357801797"><ele>325.0</ele><time>2026-04-28T09:47:41.829Z</time></trkpt><trkpt lat="44.179298418024736" lon="10.98173066549192"><ele>325.0</ele><time>2026-04-28T09:47:42.829Z</time></trkpt><trkpt lat="44.17916774595618" lon="10.98152753508798"><ele>325.0</ele><time>2026-04-28T09:47:43.829Z</time></trkpt><trkpt lat="44.1790289610457" lon="10.981323578546355"><ele>325.3333333333333</ele><time>2026-04-28T09:47:44.829Z</time></trkpt><trkpt lat="44.17888098024614" lon="10.981125815321676"><ele>325.6666666666667</ele><time>2026-04-28T09:47:45.829Z</time></trkpt><trkpt lat="44.17872787785273" lon="10.980947497579548"><ele>326.0</ele><time>2026-04-28T09:47:46.828Z</time></trkpt><trkpt lat="44.17856311235104" lon="10.980776478005966"><ele>326.0</ele><time>2026-04-28T09:47:47.828Z</time></trkpt><trkpt lat="44.178396835371395" lon="10.980611561770125"><ele>326.0</ele><time>2026-04-28T09:47:48.828Z</time></trkpt><trkpt lat="44.17822047424139" lon="10.980464205130758"><ele>326.0</ele><time>2026-04-28T09:47:49.828Z</time></trkpt><trkpt lat="44.178039363099806" lon="10.980330547552127"><ele>326.6666666666667</ele><time>2026-04-28T09:47:50.828Z</time></trkpt><trkpt lat="44.17785120612522" lon="10.98020602678041"><ele>327.3333333333333</ele><time>2026-04-28T09:47:51.828Z</time></trkpt><trkpt lat="44.17765931340216" lon="10.980091527159226"><ele>328.0</ele><time>2026-04-28T09:47:52.828Z</time></trkpt><trkpt lat="44.17746582303915" lon="10.979998366552287"><ele>327.0</ele><time>2026-04-28T09:47:53.828Z</time></trkpt><trkpt lat="44.177269486504784" lon="10.979916768463806"><ele>326.0</ele><time>2026-04-28T09:47:54.827Z</time></trkpt><trkpt lat="44.17707436237355" lon="10.979850183011362"><ele>325.0</ele><time>2026-04-28T09:47:55.827Z</time></trkpt><trkpt lat="44.17687023263598" lon="10.9798039346431"><ele>325.0</ele><time>2026-04-28T09:47:56.827Z</time></trkpt><trkpt lat="44.17666707319722" lon="10.97976914918836"><ele>325.0</ele><time>2026-04-28T09:47:57.828Z</time></trkpt><trkpt lat="44.176461392328044" lon="10.979735250748252"><ele>325.0</ele><time>2026-04-28T09:47:58.828Z</time></trkpt><trkpt lat="44.17624870898721" lon="10.979720539544202"><ele>325.0</ele><time>2026-04-28T09:47:59.828Z</time></trkpt><trkpt lat="44.17604122614953" lon="10.979709033490677"><ele>325.0</ele><time>2026-04-28T09:48:00.828Z</time></trkpt><trkpt lat="44.17582044820399" lon="10.97970221648974"><ele>325.0</ele><time>2026-04-28T09:48:01.827Z</time></trkpt><trkpt lat="44.1756033279988" lon="10.97969471163463"><ele>325.0</ele><time>2026-04-28T09:48:02.827Z</time></trkpt><trkpt lat="44.175385220312855" lon="10.979683760022546"><ele>325.0</ele><time>2026-04-28T09:48:03.827Z</time></trkpt><trkpt lat="44.17516449125842" lon="10.979667243897465"><ele>325.0</ele><time>2026-04-28T09:48:04.827Z</time></trkpt><trkpt lat="44.17494442977282" lon="10.979652997482981"><ele>325.0</ele><time>2026-04-28T09:48:05.827Z</time></trkpt><trkpt lat="44.174723540406596" lon="10.9796372720474"><ele>325.0</ele><time>2026-04-28T09:48:06.827Z</time></trkpt><trkpt lat="44.174499468515094" lon="10.979625037028024"><ele>325.0</ele><time>2026-04-28T09:48:07.827Z</time></trkpt><trkpt lat="44.17427975165309" lon="10.979614374623553"><ele>325.0</ele><time>2026-04-28T09:48:08.827Z</time></trkpt><trkpt lat="44.17406744067843" lon="10.979604252211768"><ele>325.0</ele><time>2026-04-28T09:48:09.827Z</time></trkpt><trkpt lat="44.17386877488814" lon="10.979599421992498"><ele>325.0</ele><time>2026-04-28T09:48:10.827Z</time></trkpt><trkpt lat="44.17366870280318" lon="10.97958902043023"><ele>325.66666666666663</ele><time>2026-04-28T09:48:11.827Z</time></trkpt><trkpt lat="44.1734731034547" lon="10.97957715790311"><ele>326.3333333333333</ele><time>2026-04-28T09:48:12.827Z</time></trkpt><trkpt lat="44.1732759666937" lon="10.979549945307582"><ele>327.0</ele><time>2026-04-28T09:48:13.827Z</time></trkpt><trkpt lat="44.17308555774995" lon="10.979507579229516"><ele>327.6666666666667</ele><time>2026-04-28T09:48:14.827Z</time></trkpt><trkpt lat="44.172897434425856" lon="10.979451877111764"><ele>328.33333333333337</ele><time>2026-04-28T09:48:15.827Z</time></trkpt><trkpt lat="44.17270993400036" lon="10.979381470496792"><ele>329.0</ele><time>2026-04-28T09:48:16.827Z</time></trkpt><trkpt lat="44.172530604121405" lon="10.979309955583085"><ele>329.0</ele><time>2026-04-28T09:48:17.827Z</time></trkpt><trkpt lat="44.172357721337455" lon="10.979222008010561"><ele>329.0</ele><time>2026-04-28T09:48:18.827Z</time></trkpt><trkpt lat="44.17218749925901" lon="10.979126815311561"><ele>329.0</ele><time>2026-04-28T09:48:19.827Z</time></trkpt><trkpt lat="44.172009946605556" lon="10.979032281870674"><ele>328.6666666666667</ele><time>2026-04-28T09:48:20.827Z</time></trkpt><trkpt lat="44.17183226635722" lon="10.978948441494333"><ele>328.3333333333333</ele><time>2026-04-28T09:48:21.827Z</time></trkpt><trkpt lat="44.17165619512571" lon="10.978865979225993"><ele>328.0</ele><time>2026-04-28T09:48:22.827Z</time></trkpt><trkpt lat="44.171482292009124" lon="10.978778639554298"><ele>328.66666666666663</ele><time>2026-04-28T09:48:23.827Z</time></trkpt><trkpt lat="44.17130671751317" lon="10.978688462399434"><ele>329.3333333333333</ele><time>2026-04-28T09:48:24.827Z</time></trkpt><trkpt lat="44.171128075663" lon="10.978602941126503"><ele>330.0</ele><time>2026-04-28T09:48:25.827Z</time></trkpt><trkpt lat="44.17094938930939" lon="10.978512368353135"><ele>330.0</ele><time>2026-04-28T09:48:26.827Z</time></trkpt><trkpt lat="44.170770827937446" lon="10.978416603059955"><ele>330.0</ele><time>2026-04-28T09:48:27.827Z</time></trkpt><trkpt lat="44.170587980557194" lon="10.9783250895108"><ele>330.0</ele><time>2026-04-28T09:48:28.827Z</time></trkpt><trkpt lat="44.17039739181377" lon="10.978233209827104"><ele>330.0</ele><time>2026-04-28T09:48:29.827Z</time></trkpt><trkpt lat="44.17020066915873" lon="10.978131816002742"><ele>330.0</ele><time>2026-04-28T09:48:30.827Z</time></trkpt><trkpt lat="44.17000015290108" lon="10.97802722470602"><ele>330.0</ele><time>2026-04-28T09:48:31.827Z</time></trkpt><trkpt lat="44.16979993573267" lon="10.977924606165459"><ele>330.0</ele><time>2026-04-28T09:48:32.827Z</time></trkpt><trkpt lat="44.16959925263044" lon="10.977827896445493"><ele>330.0</ele><time>2026-04-28T09:48:33.827Z</time></trkpt><trkpt lat="44.169410208609285" lon="10.9777329690622"><ele>330.0</ele><time>2026-04-28T09:48:34.827Z</time></trkpt><trkpt lat="44.16922927255209" lon="10.977637698554966"><ele>330.0</ele><time>2026-04-28T09:48:35.827Z</time></trkpt><trkpt lat="44.169054096944095" lon="10.977544200998956"><ele>330.0</ele><time>2026-04-28T09:48:36.827Z</time></trkpt><trkpt lat="44.16888104107541" lon="10.977455055881142"><ele>330.0</ele><time>2026-04-28T09:48:37.827Z</time></trkpt><trkpt lat="44.16871152297269" lon="10.977371763541282"><ele>330.6666666666667</ele><time>2026-04-28T09:48:38.827Z</time></trkpt><trkpt lat="44.16854636228354" lon="10.977288516242115"><ele>331.33333333333337</ele><time>2026-04-28T09:48:39.827Z</time></trkpt><trkpt lat="44.16837815367284" lon="10.977206446194288"><ele>332.0</ele><time>2026-04-28T09:48:40.827Z</time></trkpt><trkpt lat="44.16821022805462" lon="10.977122182032408"><ele>332.6666666666667</ele><time>2026-04-28T09:48:41.827Z</time></trkpt><trkpt lat="44.16803662554471" lon="10.97703622914372"><ele>333.3333333333333</ele><time>2026-04-28T09:48:42.827Z</time></trkpt><trkpt lat="44.167862300295944" lon="10.976946982690185"><ele>334.0</ele><time>2026-04-28T09:48:43.827Z</time></trkpt><trkpt lat="44.167688800783225" lon="10.976857615417655"><ele>334.0</ele><time>2026-04-28T09:48:44.827Z</time></trkpt><trkpt lat="44.16751745221466" lon="10.976770037604249"><ele>334.0</ele><time>2026-04-28T09:48:45.827Z</time></trkpt><trkpt lat="44.16734323626039" lon="10.976683819862263"><ele>334.0</ele><time>2026-04-28T09:48:46.827Z</time></trkpt><trkpt lat="44.16716695478909" lon="10.976593452893963"><ele>334.66666666666663</ele><time>2026-04-28T09:48:47.827Z</time></trkpt><trkpt lat="44.166992782958026" lon="10.976509569112585"><ele>335.3333333333333</ele><time>2026-04-28T09:48:48.827Z</time></trkpt><trkpt lat="44.16682420697774" lon="10.976427992102074"><ele>336.0</ele><time>2026-04-28T09:48:49.827Z</time></trkpt><trkpt lat="44.166656320127146" lon="10.976347935498667"><ele>336.3333333333333</ele><time>2026-04-28T09:48:50.827Z</time></trkpt><trkpt lat="44.16649391958163" lon="10.976264849048203"><ele>336.66666666666663</ele><time>2026-04-28T09:48:51.827Z</time></trkpt><trkpt lat="44.16633075730637" lon="10.976179852273432"><ele>337.0</ele><time>2026-04-28T09:48:52.827Z</time></trkpt><trkpt lat="44.166167691183624" lon="10.976096886934231"><ele>337.0</ele><time>2026-04-28T09:48:53.827Z</time></trkpt><trkpt lat="44.16601100987674" lon="10.97601256040817"><ele>337.0</ele><time>2026-04-28T09:48:54.827Z</time></trkpt><trkpt lat="44.16585304487516" lon="10.975928195131509"><ele>337.0</ele><time>2026-04-28T09:48:55.827Z</time></trkpt><trkpt lat="44.165684251532326" lon="10.975840684094688"><ele>337.0</ele><time>2026-04-28T09:48:56.827Z</time></trkpt><trkpt lat="44.165507184640305" lon="10.975746798815088"><ele>337.0</ele><time>2026-04-28T09:48:57.826Z</time></trkpt><trkpt lat="44.16533018905192" lon="10.975666020814973"><ele>337.0</ele><time>2026-04-28T09:48:58.826Z</time></trkpt><trkpt lat="44.16515645091645" lon="10.975584652310753"><ele>337.0</ele><time>2026-04-28T09:48:59.826Z</time></trkpt><trkpt lat="44.16498352915099" lon="10.975498745644177"><ele>337.0</ele><time>2026-04-28T09:49:00.826Z</time></trkpt><trkpt lat="44.1648178335895" lon="10.975420305599139"><ele>337.0</ele><time>2026-04-28T09:49:01.826Z</time></trkpt><trkpt lat="44.16465220584134" lon="10.975349505206085"><ele>337.0</ele><time>2026-04-28T09:49:02.826Z</time></trkpt><trkpt lat="44.164488979946526" lon="10.975282191240787"><ele>337.0</ele><time>2026-04-28T09:49:03.826Z</time></trkpt><trkpt lat="44.164324338624375" lon="10.975233840924856"><ele>337.0</ele><time>2026-04-28T09:49:04.826Z</time></trkpt><trkpt lat="44.16415372912969" lon="10.975193417301695"><ele>337.66666666666663</ele><time>2026-04-28T09:49:05.826Z</time></trkpt><trkpt lat="44.16398351735857" lon="10.975179853397764"><ele>338.3333333333333</ele><time>2026-04-28T09:49:06.826Z</time></trkpt><trkpt lat="44.163805846029476" lon="10.97517295852993"><ele>339.0</ele><time>2026-04-28T09:49:07.826Z</time></trkpt><trkpt lat="44.16362295750341" lon="10.975191843310242"><ele>339.0</ele><time>2026-04-28T09:49:08.826Z</time></trkpt><trkpt lat="44.16344136784601" lon="10.97522308811472"><ele>339.0</ele><time>2026-04-28T09:49:09.826Z</time></trkpt><trkpt lat="44.16326564997761" lon="10.975278181510292"><ele>339.0</ele><time>2026-04-28T09:49:10.826Z</time></trkpt><trkpt lat="44.1630920276764" lon="10.97534130970339"><ele>339.3333333333333</ele><time>2026-04-28T09:49:11.826Z</time></trkpt><trkpt lat="44.16291790621131" lon="10.975421538633261"><ele>339.66666666666663</ele><time>2026-04-28T09:49:12.826Z</time></trkpt><trkpt lat="44.16274831380296" lon="10.975515454452191"><ele>340.0</ele><time>2026-04-28T09:49:13.826Z</time></trkpt><trkpt lat="44.162586069632844" lon="10.975630099533593"><ele>340.0</ele><time>2026-04-28T09:49:14.826Z</time></trkpt><trkpt lat="44.16243039593975" lon="10.975751505098177"><ele>340.0</ele><time>2026-04-28T09:49:15.826Z</time></trkpt><trkpt lat="44.16228643636407" lon="10.975888003861751"><ele>340.0</ele><time>2026-04-28T09:49:16.826Z</time></trkpt><trkpt lat="44.16214862715473" lon="10.97603996007004"><ele>343.0</ele><time>2026-04-28T09:49:17.826Z</time></trkpt><trkpt lat="44.16201612625405" lon="10.976193693388309"><ele>346.0</ele><time>2026-04-28T09:49:18.826Z</time></trkpt><trkpt lat="44.1618876642311" lon="10.976355489760495"><ele>349.0</ele><time>2026-04-28T09:49:19.826Z</time></trkpt><trkpt lat="44.161771046344874" lon="10.97651358142389"><ele>349.0</ele><time>2026-04-28T09:49:20.826Z</time></trkpt><trkpt lat="44.16165285136167" lon="10.976671598280578"><ele>349.0</ele><time>2026-04-28T09:49:21.826Z</time></trkpt><trkpt lat="44.16153614145499" lon="10.97682980533486"><ele>349.0</ele><time>2026-04-28T09:49:22.826Z</time></trkpt><trkpt lat="44.1614177266927" lon="10.976989125319397"><ele>352.0</ele><time>2026-04-28T09:49:23.826Z</time></trkpt><trkpt lat="44.16129612942323" lon="10.977147805937774"><ele>355.0</ele><time>2026-04-28T09:49:24.826Z</time></trkpt><trkpt lat="44.16117065939585" lon="10.977307326068223"><ele>358.0</ele><time>2026-04-28T09:49:25.826Z</time></trkpt><trkpt lat="44.161041413942314" lon="10.97746372812292"><ele>361.0</ele><time>2026-04-28T09:49:26.826Z</time></trkpt><trkpt lat="44.16091033142669" lon="10.977619532057934"><ele>364.0</ele><time>2026-04-28T09:49:27.826Z</time></trkpt><trkpt lat="44.160773700034795" lon="10.977772253278436"><ele>367.0</ele><time>2026-04-28T09:49:28.826Z</time></trkpt><trkpt lat="44.160645370452265" lon="10.97791874878162"><ele>367.0</ele><time>2026-04-28T09:49:29.826Z</time></trkpt><trkpt lat="44.16050873424453" lon="10.978065630451518"><ele>367.0</ele><time>2026-04-28T09:49:30.826Z</time></trkpt><trkpt lat="44.16037131985495" lon="10.978214725076727"><ele>367.0</ele><time>2026-04-28T09:49:31.826Z</time></trkpt><trkpt lat="44.16023779225515" lon="10.978358008858725"><ele>368.0</ele><time>2026-04-28T09:49:32.826Z</time></trkpt><trkpt lat="44.16010222905071" lon="10.978504251276624"><ele>369.0</ele><time>2026-04-28T09:49:33.826Z</time></trkpt><trkpt lat="44.15995226846674" lon="10.978647573137163"><ele>370.0</ele><time>2026-04-28T09:49:34.826Z</time></trkpt><trkpt lat="44.159802676803636" lon="10.978811182836667"><ele>370.0</ele><time>2026-04-28T09:49:35.826Z</time></trkpt><trkpt lat="44.15964565316198" lon="10.978974787842025"><ele>370.0</ele><time>2026-04-28T09:49:36.826Z</time></trkpt><trkpt lat="44.159480542263644" lon="10.979142444676073"><ele>370.0</ele><time>2026-04-28T09:49:37.826Z</time></trkpt><trkpt lat="44.15932110578567" lon="10.979303003972987"><ele>369.0</ele><time>2026-04-28T09:49:38.826Z</time></trkpt><trkpt lat="44.15916907818444" lon="10.97945747231552"><ele>368.0</ele><time>2026-04-28T09:49:39.826Z</time></trkpt><trkpt lat="44.15901949301894" lon="10.979616170187235"><ele>367.0</ele><time>2026-04-28T09:49:40.826Z</time></trkpt><trkpt lat="44.1588616745966" lon="10.97977539291729"><ele>367.0</ele><time>2026-04-28T09:49:41.826Z</time></trkpt><trkpt lat="44.15869775452108" lon="10.979938551997249"><ele>367.0</ele><time>2026-04-28T09:49:42.826Z</time></trkpt><trkpt lat="44.158540961564405" lon="10.980101071676813"><ele>367.0</ele><time>2026-04-28T09:49:43.826Z</time></trkpt><trkpt lat="44.15840433931776" lon="10.980248238669967"><ele>369.66666666666663</ele><time>2026-04-28T09:49:44.826Z</time></trkpt><trkpt lat="44.158276099316325" lon="10.980389319419999"><ele>372.3333333333333</ele><time>2026-04-28T09:49:45.826Z</time></trkpt><trkpt lat="44.1581400205885" lon="10.980514003931482"><ele>375.0</ele><time>2026-04-28T09:49:46.826Z</time></trkpt><trkpt lat="44.158008664293526" lon="10.980647919757736"><ele>379.66666666666663</ele><time>2026-04-28T09:49:47.826Z</time></trkpt><trkpt lat="44.15787548348236" lon="10.980773094632081"><ele>384.3333333333333</ele><time>2026-04-28T09:49:48.826Z</time></trkpt><trkpt lat="44.15774860035604" lon="10.980893812572528"><ele>389.0</ele><time>2026-04-28T09:49:49.826Z</time></trkpt><trkpt lat="44.15762771856091" lon="10.981007663723046"><ele>391.5</ele><time>2026-04-28T09:49:50.826Z</time></trkpt><trkpt lat="44.15751262307885" lon="10.981115493781344"><ele>394.0</ele><time>2026-04-28T09:49:51.826Z</time></trkpt><trkpt lat="44.157396046015286" lon="10.981222410183419"><ele>396.5</ele><time>2026-04-28T09:49:52.826Z</time></trkpt><trkpt lat="44.157279521213944" lon="10.981327696503199"><ele>399.0</ele><time>2026-04-28T09:49:53.826Z</time></trkpt><trkpt lat="44.15716118293674" lon="10.981433196411608"><ele>419.0</ele><time>2026-04-28T09:49:54.826Z</time></trkpt><trkpt lat="44.155779862875676" lon="10.982870668270552"><ele>418.5</ele><time>2026-04-28T09:49:59.014Z</time></trkpt><trkpt lat="44.15542768985636" lon="10.983255818801897"><ele>418.0</ele><time>2026-04-28T09:50:00.009Z</time></trkpt><trkpt lat="44.15506121313336" lon="10.983622337214387"><ele>425.5</ele><time>2026-04-28T09:50:01.012Z</time></trkpt><trkpt lat="44.15468512221138" lon="10.983964445298339"><ele>433.0</ele><time>2026-04-28T09:50:02.011Z</time></trkpt><trkpt lat="44.15429292981908" lon="10.984273244159905"><ele>439.5</ele><time>2026-04-28T09:50:03.014Z</time></trkpt><trkpt lat="44.1539964" lon="10.9844799"><ele>446.0</ele><time>2026-04-28T09:50:04.014Z</time></trkpt><trkpt lat="44.15139444937345" lon="10.985389206885896"><ele>423.66666666666663</ele><time>2026-04-28T09:50:31.84Z</time></trkpt><trkpt lat="44.1512106639677" lon="10.9854407149424"><ele>401.3333333333333</ele><time>2026-04-28T09:50:32.84Z</time></trkpt><trkpt lat="44.15099188519394" lon="10.985471282562733"><ele>379.0</ele><time>2026-04-28T09:50:33.841Z</time></trkpt><trkpt lat="44.1507706609214" lon="10.985527814431157"><ele>385.0</ele><time>2026-04-28T09:50:34.842Z</time></trkpt><trkpt lat="44.150563103205556" lon="10.985570102667152"><ele>391.0</ele><time>2026-04-28T09:50:35.842Z</time></trkpt><trkpt lat="44.15036825276486" lon="10.985617593002377"><ele>397.0</ele><time>2026-04-28T09:50:36.843Z</time></trkpt><trkpt lat="44.15018001873472" lon="10.985652719699017"><ele>397.0</ele><time>2026-04-28T09:50:37.841Z</time></trkpt><trkpt lat="44.150001403592235" lon="10.985681166927778"><ele>397.0</ele><time>2026-04-28T09:50:38.841Z</time></trkpt><trkpt lat="44.149833367153526" lon="10.985709964006602"><ele>397.0</ele><time>2026-04-28T09:50:39.841Z</time></trkpt><trkpt lat="44.14967459209368" lon="10.985734773767785"><ele>400.0</ele><time>2026-04-28T09:50:40.842Z</time></trkpt><trkpt lat="44.14951413912664" lon="10.985759271732489"><ele>403.0</ele><time>2026-04-28T09:50:41.843Z</time></trkpt><trkpt lat="44.149353639641774" lon="10.985785064830019"><ele>406.0</ele><time>2026-04-28T09:50:42.843Z</time></trkpt><trkpt lat="44.14919047752759" lon="10.985811561897775"><ele>410.0</ele><time>2026-04-28T09:50:43.844Z</time></trkpt><trkpt lat="44.14902605808196" lon="10.985828672167115"><ele>414.0</ele><time>2026-04-28T09:50:44.844Z</time></trkpt><trkpt lat="44.14885903514423" lon="10.985845245432905"><ele>418.0</ele><time>2026-04-28T09:50:45.844Z</time></trkpt><trkpt lat="44.14710754257852" lon="10.985850192115358"><ele>401.33333333333337</ele><time>2026-04-28T09:50:53.845Z</time></trkpt><trkpt lat="44.146919524015544" lon="10.985836166484043"><ele>384.6666666666667</ele><time>2026-04-28T09:50:54.846Z</time></trkpt><trkpt lat="44.14671817751428" lon="10.985809630177656"><ele>368.0</ele><time>2026-04-28T09:50:55.846Z</time></trkpt><trkpt lat="44.14653236996046" lon="10.985782197552409"><ele>368.0</ele><time>2026-04-28T09:50:56.846Z</time></trkpt><trkpt lat="44.14634449778179" lon="10.985763716783724"><ele>368.0</ele><time>2026-04-28T09:50:57.846Z</time></trkpt><trkpt lat="44.14615768761426" lon="10.985742694548044"><ele>368.0</ele><time>2026-04-28T09:50:58.846Z</time></trkpt><trkpt lat="44.1459548403491" lon="10.985734938462842"><ele>368.0</ele><time>2026-04-28T09:50:59.846Z</time></trkpt><trkpt lat="44.14575853940348" lon="10.985717057518798"><ele>368.0</ele><time>2026-04-28T09:51:00.846Z</time></trkpt><trkpt lat="44.14557182310271" lon="10.985715407386161"><ele>368.0</ele><time>2026-04-28T09:51:01.846Z</time></trkpt><trkpt lat="44.14538311978981" lon="10.985731255235939"><ele>371.0</ele><time>2026-04-28T09:51:02.847Z</time></trkpt><trkpt lat="44.145205941226706" lon="10.98574864161517"><ele>374.0</ele><time>2026-04-28T09:51:03.847Z</time></trkpt><trkpt lat="44.14502810675969" lon="10.985829644779544"><ele>377.0</ele><time>2026-04-28T09:51:04.847Z</time></trkpt><trkpt lat="44.14486040738255" lon="10.985906275862241"><ele>377.0</ele><time>2026-04-28T09:51:05.847Z</time></trkpt><trkpt lat="44.14470156660169" lon="10.985990617356759"><ele>377.0</ele><time>2026-04-28T09:51:06.847Z</time></trkpt><trkpt lat="44.14455058345557" lon="10.986068529971664"><ele>377.0</ele><time>2026-04-28T09:51:07.847Z</time></trkpt><trkpt lat="44.14439870258926" lon="10.986137643560767"><ele>377.0</ele><time>2026-04-28T09:51:08.847Z</time></trkpt><trkpt lat="44.14425726561954" lon="10.986209559341901"><ele>377.0</ele><time>2026-04-28T09:51:09.847Z</time></trkpt><trkpt lat="44.14413640730023" lon="10.986315878068782"><ele>377.0</ele><time>2026-04-28T09:51:10.847Z</time></trkpt><trkpt lat="44.14400892922709" lon="10.986396539489478"><ele>377.0</ele><time>2026-04-28T09:51:11.847Z</time></trkpt><trkpt lat="44.143895123527884" lon="10.986494719523021"><ele>377.0</ele><time>2026-04-28T09:51:12.847Z</time></trkpt><trkpt lat="44.14379090533792" lon="10.986598362762816"><ele>377.0</ele><time>2026-04-28T09:51:13.847Z</time></trkpt><trkpt lat="44.14369098983722" lon="10.986709009831129"><ele>377.0</ele><time>2026-04-28T09:51:14.847Z</time></trkpt><trkpt lat="44.14359807059714" lon="10.986821028712283"><ele>377.0</ele><time>2026-04-28T09:51:15.847Z</time></trkpt><trkpt lat="44.1435109800287" lon="10.986920135528047"><ele>377.0</ele><time>2026-04-28T09:51:16.847Z</time></trkpt><trkpt lat="44.14341459292" lon="10.9870104732954"><ele>377.0</ele><time>2026-04-28T09:51:17.847Z</time></trkpt><trkpt lat="44.14330864159044" lon="10.987058645377504"><ele>377.0</ele><time>2026-04-28T09:51:18.847Z</time></trkpt><trkpt lat="44.14319049446828" lon="10.987110897608861"><ele>377.0</ele><time>2026-04-28T09:51:19.847Z</time></trkpt><trkpt lat="44.14308352386029" lon="10.987178513404082"><ele>379.25</ele><time>2026-04-28T09:51:20.848Z</time></trkpt><trkpt lat="44.14296058082854" lon="10.987279962387776"><ele>381.5</ele><time>2026-04-28T09:51:21.848Z</time></trkpt><trkpt lat="44.142845745754265" lon="10.987392066339183"><ele>383.75</ele><time>2026-04-28T09:51:22.848Z</time></trkpt><trkpt lat="44.142745858949866" lon="10.987490075324313"><ele>386.0</ele><time>2026-04-28T09:51:23.848Z</time></trkpt><trkpt lat="44.142641424558796" lon="10.987598148573221"><ele>386.0</ele><time>2026-04-28T09:51:24.848Z</time></trkpt><trkpt lat="44.142538193849056" lon="10.987722557661614"><ele>386.0</ele><time>2026-04-28T09:51:25.848Z</time></trkpt><trkpt lat="44.14247009230879" lon="10.987858584371393"><ele>386.0</ele><time>2026-04-28T09:51:26.848Z</time></trkpt><trkpt lat="44.14240386355772" lon="10.987994378638113"><ele>386.0</ele><time>2026-04-28T09:51:27.848Z</time></trkpt><trkpt lat="44.14234505230596" lon="10.988134479521523"><ele>387.0</ele><time>2026-04-28T09:51:28.848Z</time></trkpt><trkpt lat="44.14227687250804" lon="10.988264267106965"><ele>388.0</ele><time>2026-04-28T09:51:29.848Z</time></trkpt><trkpt lat="44.142219723069275" lon="10.988387043934543"><ele>389.0</ele><time>2026-04-28T09:51:30.848Z</time></trkpt><trkpt lat="44.14213705086782" lon="10.988504378395751"><ele>390.0</ele><time>2026-04-28T09:51:31.848Z</time></trkpt><trkpt lat="44.142051469414795" lon="10.988630012801979"><ele>390.0</ele><time>2026-04-28T09:51:32.848Z</time></trkpt><trkpt lat="44.14196248560373" lon="10.988743268467204"><ele>390.0</ele><time>2026-04-28T09:51:33.848Z</time></trkpt><trkpt lat="44.14187238087686" lon="10.988838323475786"><ele>390.0</ele><time>2026-04-28T09:51:34.848Z</time></trkpt><trkpt lat="44.14177822068549" lon="10.988912686319834"><ele>390.0</ele><time>2026-04-28T09:51:35.848Z</time></trkpt><trkpt lat="44.14169111524335" lon="10.988973698096324"><ele>390.0</ele><time>2026-04-28T09:51:36.848Z</time></trkpt><trkpt lat="44.14159452846498" lon="10.989043068736883"><ele>389.5</ele><time>2026-04-28T09:51:37.848Z</time></trkpt><trkpt lat="44.14149400500224" lon="10.98912123611597"><ele>389.0</ele><time>2026-04-28T09:51:38.848Z</time></trkpt><trkpt lat="44.14139446052729" lon="10.989189885381377"><ele>388.5</ele><time>2026-04-28T09:51:39.848Z</time></trkpt><trkpt lat="44.14128305217033" lon="10.989265870709456"><ele>388.0</ele><time>2026-04-28T09:51:40.848Z</time></trkpt><trkpt lat="44.14117035232169" lon="10.989344092559096"><ele>388.0</ele><time>2026-04-28T09:51:41.848Z</time></trkpt><trkpt lat="44.141053722343536" lon="10.989407937679267"><ele>388.0</ele><time>2026-04-28T09:51:42.848Z</time></trkpt><trkpt lat="44.14094035018344" lon="10.989469199609552"><ele>388.0</ele><time>2026-04-28T09:51:43.848Z</time></trkpt><trkpt lat="44.14082548617288" lon="10.989520071614795"><ele>388.0</ele><time>2026-04-28T09:51:44.848Z</time></trkpt><trkpt lat="44.14070963627723" lon="10.989573879040758"><ele>391.25</ele><time>2026-04-28T09:51:45.848Z</time></trkpt><trkpt lat="44.14059598943572" lon="10.989638487136057"><ele>394.5</ele><time>2026-04-28T09:51:46.848Z</time></trkpt><trkpt lat="44.14048374869476" lon="10.98972256021889"><ele>397.75</ele><time>2026-04-28T09:51:47.848Z</time></trkpt><trkpt lat="44.140373896865874" lon="10.9898098093052"><ele>401.0</ele><time>2026-04-28T09:51:48.848Z</time></trkpt><trkpt lat="44.14025993348656" lon="10.989897786151607"><ele>401.0</ele><time>2026-04-28T09:51:49.848Z</time></trkpt><trkpt lat="44.14015134877702" lon="10.989994367696388"><ele>401.0</ele><time>2026-04-28T09:51:50.848Z</time></trkpt><trkpt lat="44.1400435093752" lon="10.990091327667963"><ele>401.0</ele><time>2026-04-28T09:51:51.848Z</time></trkpt><trkpt lat="44.1399362951442" lon="10.990186127874944"><ele>401.0</ele><time>2026-04-28T09:51:52.848Z</time></trkpt><trkpt lat="44.13982597662595" lon="10.990272137576733"><ele>399.0</ele><time>2026-04-28T09:51:53.848Z</time></trkpt><trkpt lat="44.1397001433981" lon="10.990341262822577"><ele>397.0</ele><time>2026-04-28T09:51:54.848Z</time></trkpt><trkpt lat="44.13956153432965" lon="10.990397803101256"><ele>395.0</ele><time>2026-04-28T09:51:55.848Z</time></trkpt><trkpt lat="44.13941686050585" lon="10.990442370173758"><ele>393.0</ele><time>2026-04-28T09:51:56.848Z</time></trkpt><trkpt lat="44.13928528140444" lon="10.990483974574678"><ele>393.0</ele><time>2026-04-28T09:51:57.848Z</time></trkpt><trkpt lat="44.139138994088825" lon="10.990543992989492"><ele>393.0</ele><time>2026-04-28T09:51:58.848Z</time></trkpt><trkpt lat="44.13900641264613" lon="10.990619147706534"><ele>393.0</ele><time>2026-04-28T09:51:59.848Z</time></trkpt><trkpt lat="44.138880585284916" lon="10.990707902372895"><ele>393.0</ele><time>2026-04-28T09:52:00.848Z</time></trkpt><trkpt lat="44.1387594794976" lon="10.99079662871839"><ele>388.75</ele><time>2026-04-28T09:52:01.848Z</time></trkpt><trkpt lat="44.138644166353664" lon="10.990874590383758"><ele>384.5</ele><time>2026-04-28T09:52:02.848Z</time></trkpt><trkpt lat="44.13853446244881" lon="10.99092579867589"><ele>380.25</ele><time>2026-04-28T09:52:03.848Z</time></trkpt><trkpt lat="44.13842227113032" lon="10.990953276751661"><ele>376.0</ele><time>2026-04-28T09:52:04.848Z</time></trkpt><trkpt lat="44.13830879655211" lon="10.990932870919519"><ele>376.25</ele><time>2026-04-28T09:52:05.848Z</time></trkpt><trkpt lat="44.138191341114386" lon="10.990871394274455"><ele>376.5</ele><time>2026-04-28T09:52:06.848Z</time></trkpt><trkpt lat="44.13806948714712" lon="10.99078478708099"><ele>376.75</ele><time>2026-04-28T09:52:07.848Z</time></trkpt><trkpt lat="44.13793468241471" lon="10.990697453698626"><ele>377.0</ele><time>2026-04-28T09:52:08.848Z</time></trkpt><trkpt lat="44.13778482063507" lon="10.99062214025836"><ele>378.6666666666667</ele><time>2026-04-28T09:52:09.848Z</time></trkpt><trkpt lat="44.137630720108525" lon="10.990577099098028"><ele>380.3333333333333</ele><time>2026-04-28T09:52:10.848Z</time></trkpt><trkpt lat="44.13747861488177" lon="10.990537797271937"><ele>382.0</ele><time>2026-04-28T09:52:11.848Z</time></trkpt><trkpt lat="44.13733839874084" lon="10.990498734823401"><ele>382.0</ele><time>2026-04-28T09:52:12.848Z</time></trkpt><trkpt lat="44.137204512199766" lon="10.990452628924345"><ele>382.0</ele><time>2026-04-28T09:52:13.848Z</time></trkpt><trkpt lat="44.137070947953724" lon="10.990382378647867"><ele>382.0</ele><time>2026-04-28T09:52:14.848Z</time></trkpt><trkpt lat="44.13694204215958" lon="10.990287559580123"><ele>382.0</ele><time>2026-04-28T09:52:15.848Z</time></trkpt><trkpt lat="44.13681922501594" lon="10.990197094630318"><ele>382.0</ele><time>2026-04-28T09:52:16.848Z</time></trkpt><trkpt lat="44.136699400449864" lon="10.990114389093554"><ele>382.0</ele><time>2026-04-28T09:52:17.848Z</time></trkpt><trkpt lat="44.13658653595921" lon="10.990032664838024"><ele>382.0</ele><time>2026-04-28T09:52:18.848Z</time></trkpt><trkpt lat="44.1364799721549" lon="10.989963076196439"><ele>382.0</ele><time>2026-04-28T09:52:19.848Z</time></trkpt><trkpt lat="44.136378836989074" lon="10.989876752183434"><ele>384.0</ele><time>2026-04-28T09:52:20.848Z</time></trkpt><trkpt lat="44.136264352269265" lon="10.989820331230645"><ele>386.0</ele><time>2026-04-28T09:52:21.848Z</time></trkpt><trkpt lat="44.136162987956126" lon="10.98976493444917"><ele>388.0</ele><time>2026-04-28T09:52:22.848Z</time></trkpt><trkpt lat="44.136063326382796" lon="10.989708642117098"><ele>390.0</ele><time>2026-04-28T09:52:23.848Z</time></trkpt><trkpt lat="44.135965056493504" lon="10.98965489442868"><ele>392.0</ele><time>2026-04-28T09:52:24.848Z</time></trkpt><trkpt lat="44.13586114456382" lon="10.989596957591214"><ele>392.0</ele><time>2026-04-28T09:52:25.848Z</time></trkpt><trkpt lat="44.13576082648088" lon="10.989542116217846"><ele>392.0</ele><time>2026-04-28T09:52:26.848Z</time></trkpt><trkpt lat="44.13566004028538" lon="10.989502356403163"><ele>392.0</ele><time>2026-04-28T09:52:27.848Z</time></trkpt><trkpt lat="44.13556060904737" lon="10.989464236731488"><ele>392.0</ele><time>2026-04-28T09:52:28.848Z</time></trkpt><trkpt lat="44.13545037977824" lon="10.989432812777634"><ele>392.0</ele><time>2026-04-28T09:52:29.848Z</time></trkpt><trkpt lat="44.13533538907297" lon="10.989395077308222"><ele>391.5</ele><time>2026-04-28T09:52:30.848Z</time></trkpt><trkpt lat="44.13521710778147" lon="10.989353421605754"><ele>391.0</ele><time>2026-04-28T09:52:31.848Z</time></trkpt><trkpt lat="44.13510575241825" lon="10.98930632154383"><ele>390.5</ele><time>2026-04-28T09:52:32.848Z</time></trkpt><trkpt lat="44.13498752092903" lon="10.989266882617315"><ele>390.0</ele><time>2026-04-28T09:52:33.848Z</time></trkpt><trkpt lat="44.13486805217112" lon="10.9892328658272"><ele>390.0</ele><time>2026-04-28T09:52:34.848Z</time></trkpt><trkpt lat="44.13473628883034" lon="10.989206278126884"><ele>390.0</ele><time>2026-04-28T09:52:35.848Z</time></trkpt><trkpt lat="44.13459382322586" lon="10.989192479700788"><ele>390.0</ele><time>2026-04-28T09:52:36.848Z</time></trkpt><trkpt lat="44.13445657387288" lon="10.989202002056107"><ele>390.0</ele><time>2026-04-28T09:52:37.848Z</time></trkpt><trkpt lat="44.13432879295034" lon="10.989231912882875"><ele>390.0</ele><time>2026-04-28T09:52:38.848Z</time></trkpt><trkpt lat="44.13420164940606" lon="10.989285493907662"><ele>390.0</ele><time>2026-04-28T09:52:39.848Z</time></trkpt><trkpt lat="44.134065114967605" lon="10.989361845170214"><ele>390.0</ele><time>2026-04-28T09:52:40.848Z</time></trkpt><trkpt lat="44.13393495768749" lon="10.989443822970959"><ele>390.0</ele><time>2026-04-28T09:52:41.848Z</time></trkpt><trkpt lat="44.13381627129695" lon="10.989517252925227"><ele>392.75</ele><time>2026-04-28T09:52:42.848Z</time></trkpt><trkpt lat="44.133696950349446" lon="10.989588642812876"><ele>395.5</ele><time>2026-04-28T09:52:43.846Z</time></trkpt><trkpt lat="44.13357830203994" lon="10.989653471404392"><ele>398.25</ele><time>2026-04-28T09:52:44.846Z</time></trkpt><trkpt lat="44.133469276707174" lon="10.989716249825767"><ele>401.0</ele><time>2026-04-28T09:52:45.846Z</time></trkpt><trkpt lat="44.13336439986226" lon="10.989786070508345"><ele>401.0</ele><time>2026-04-28T09:52:46.847Z</time></trkpt><trkpt lat="44.133259137409084" lon="10.989877715749103"><ele>401.0</ele><time>2026-04-28T09:52:47.847Z</time></trkpt><trkpt lat="44.133164208548976" lon="10.989983293410143"><ele>401.0</ele><time>2026-04-28T09:52:48.847Z</time></trkpt><trkpt lat="44.13307709928803" lon="10.990086127064425"><ele>401.0</ele><time>2026-04-28T09:52:49.846Z</time></trkpt><trkpt lat="44.1329915085903" lon="10.990198957083637"><ele>401.75</ele><time>2026-04-28T09:52:50.846Z</time></trkpt><trkpt lat="44.13289896561408" lon="10.990315479112427"><ele>402.5</ele><time>2026-04-28T09:52:51.846Z</time></trkpt><trkpt lat="44.13281043510503" lon="10.990409419347095"><ele>403.25</ele><time>2026-04-28T09:52:52.846Z</time></trkpt><trkpt lat="44.13270788150896" lon="10.990488935130221"><ele>404.0</ele><time>2026-04-28T09:52:53.846Z</time></trkpt><trkpt lat="44.132598748032684" lon="10.990562573196629"><ele>404.0</ele><time>2026-04-28T09:52:54.846Z</time></trkpt><trkpt lat="44.13248389158987" lon="10.990633142042094"><ele>404.0</ele><time>2026-04-28T09:52:55.846Z</time></trkpt><trkpt lat="44.13236815775311" lon="10.990685242951045"><ele>404.0</ele><time>2026-04-28T09:52:56.846Z</time></trkpt><trkpt lat="44.13225209460074" lon="10.990743625705372"><ele>404.0</ele><time>2026-04-28T09:52:57.846Z</time></trkpt><trkpt lat="44.13214019774913" lon="10.990793626130488"><ele>403.6</ele><time>2026-04-28T09:52:58.846Z</time></trkpt><trkpt lat="44.13204260830057" lon="10.990836562330244"><ele>403.2</ele><time>2026-04-28T09:52:59.846Z</time></trkpt><trkpt lat="44.13195195918309" lon="10.9908736819709"><ele>402.8</ele><time>2026-04-28T09:53:00.846Z</time></trkpt><trkpt lat="44.13185358453605" lon="10.990917514019"><ele>402.40000000000003</ele><time>2026-04-28T09:53:01.846Z</time></trkpt><trkpt lat="44.13174690082615" lon="10.990958097001233"><ele>402.0</ele><time>2026-04-28T09:53:02.846Z</time></trkpt><trkpt lat="44.13163624353547" lon="10.99100079781801"><ele>402.0</ele><time>2026-04-28T09:53:03.846Z</time></trkpt><trkpt lat="44.13153307383406" lon="10.991037082231585"><ele>402.0</ele><time>2026-04-28T09:53:04.846Z</time></trkpt><trkpt lat="44.1314344498611" lon="10.991059726573045"><ele>402.0</ele><time>2026-04-28T09:53:05.846Z</time></trkpt><trkpt lat="44.131343969361566" lon="10.991087001687736"><ele>402.0</ele><time>2026-04-28T09:53:06.846Z</time></trkpt><trkpt lat="44.13125228812552" lon="10.99110208704036"><ele>402.0</ele><time>2026-04-28T09:53:07.846Z</time></trkpt><trkpt lat="44.131164689840816" lon="10.991136578707064"><ele>402.0</ele><time>2026-04-28T09:53:08.846Z</time></trkpt><trkpt lat="44.131066101777726" lon="10.991162614741322"><ele>402.0</ele><time>2026-04-28T09:53:09.846Z</time></trkpt><trkpt lat="44.13096431011099" lon="10.991192942780966"><ele>402.0</ele><time>2026-04-28T09:53:10.846Z</time></trkpt><trkpt lat="44.13086172306361" lon="10.991215367922589"><ele>402.0</ele><time>2026-04-28T09:53:11.846Z</time></trkpt><trkpt lat="44.1307597073902" lon="10.99124419650722"><ele>402.0</ele><time>2026-04-28T09:53:12.846Z</time></trkpt><trkpt lat="44.13065988966524" lon="10.99126910436093"><ele>402.5</ele><time>2026-04-28T09:53:13.846Z</time></trkpt><trkpt lat="44.130559263177666" lon="10.991296698746384"><ele>403.0</ele><time>2026-04-28T09:53:14.846Z</time></trkpt><trkpt lat="44.130465389118115" lon="10.991319725367589"><ele>403.5</ele><time>2026-04-28T09:53:15.846Z</time></trkpt><trkpt lat="44.13038199032458" lon="10.99134193955126"><ele>404.0</ele><time>2026-04-28T09:53:16.846Z</time></trkpt><trkpt lat="44.13030645542496" lon="10.991357670710325"><ele>404.5</ele><time>2026-04-28T09:53:17.846Z</time></trkpt><trkpt lat="44.13023890379278" lon="10.991374246660055"><ele>405.0</ele><time>2026-04-28T09:53:18.846Z</time></trkpt><trkpt lat="44.130171069434475" lon="10.991395916422315"><ele>405.0</ele><time>2026-04-28T09:53:19.846Z</time></trkpt><trkpt lat="44.13010536207994" lon="10.991415782675547"><ele>405.0</ele><time>2026-04-28T09:53:20.846Z</time></trkpt><trkpt lat="44.12999615480123" lon="10.99144597467189"><ele>405.0</ele><time>2026-04-28T09:53:22.846Z</time></trkpt><trkpt lat="44.129910130208664" lon="10.991473706167731"><ele>405.0</ele><time>2026-04-28T09:53:24.846Z</time></trkpt><trkpt lat="44.12982681883535" lon="10.991495538582711"><ele>405.0</ele><time>2026-04-28T09:53:26.846Z</time></trkpt><trkpt lat="44.1297480444775" lon="10.991518283586707"><ele>405.0</ele><time>2026-04-28T09:53:28.846Z</time></trkpt><trkpt lat="44.12964002115613" lon="10.991551315078869"><ele>403.8</ele><time>2026-04-28T09:53:30.846Z</time></trkpt><trkpt lat="44.129552250840945" lon="10.991568237388147"><ele>402.6</ele><time>2026-04-28T09:53:32.846Z</time></trkpt><trkpt lat="44.1294439895759" lon="10.991573591201115"><ele>401.4</ele><time>2026-04-28T09:53:34.846Z</time></trkpt><trkpt lat="44.12937909257764" lon="10.991571523607792"><ele>400.2</ele><time>2026-04-28T09:53:35.846Z</time></trkpt><trkpt lat="44.1292538756443" lon="10.991570929957131"><ele>399.0</ele><time>2026-04-28T09:53:37.846Z</time></trkpt><trkpt lat="44.129189837866654" lon="10.99157861970921"><ele>399.0</ele><time>2026-04-28T09:53:38.846Z</time></trkpt><trkpt lat="44.12911329319284" lon="10.991611395588786"><ele>399.0</ele><time>2026-04-28T09:53:39.846Z</time></trkpt><trkpt lat="44.129039309640305" lon="10.991649487481016"><ele>399.0</ele><time>2026-04-28T09:53:40.846Z</time></trkpt><trkpt lat="44.128958504768235" lon="10.99169492625958"><ele>399.0</ele><time>2026-04-28T09:53:41.846Z</time></trkpt><trkpt lat="44.12887242243812" lon="10.991722661028025"><ele>399.0</ele><time>2026-04-28T09:53:42.846Z</time></trkpt><trkpt lat="44.12878960726294" lon="10.99174152220779"><ele>399.0</ele><time>2026-04-28T09:53:43.846Z</time></trkpt><trkpt lat="44.128699506849976" lon="10.991759927714538"><ele>399.6</ele><time>2026-04-28T09:53:44.846Z</time></trkpt><trkpt lat="44.12859937136611" lon="10.991788871742022"><ele>400.2</ele><time>2026-04-28T09:53:45.846Z</time></trkpt><trkpt lat="44.128502397860956" lon="10.991819330396032"><ele>400.8</ele><time>2026-04-28T09:53:46.846Z</time></trkpt><trkpt lat="44.128412022901365" lon="10.991839700944745"><ele>401.40000000000003</ele><time>2026-04-28T09:53:47.846Z</time></trkpt><trkpt lat="44.12832175024783" lon="10.991870366540034"><ele>402.0</ele><time>2026-04-28T09:53:48.846Z</time></trkpt><trkpt lat="44.12823606165067" lon="10.991924164111209"><ele>405.8</ele><time>2026-04-28T09:53:49.846Z</time></trkpt><trkpt lat="44.12818025576691" lon="10.992006282739256"><ele>409.6</ele><time>2026-04-28T09:53:50.846Z</time></trkpt><trkpt lat="44.128143221999544" lon="10.992108117009161"><ele>413.40000000000003</ele><time>2026-04-28T09:53:51.846Z</time></trkpt><trkpt lat="44.12811381124607" lon="10.992238053364623"><ele>417.20000000000005</ele><time>2026-04-28T09:53:52.846Z</time></trkpt><trkpt lat="44.128108043353045" lon="10.99238708343217"><ele>421.0</ele><time>2026-04-28T09:53:53.846Z</time></trkpt><trkpt lat="44.12811866070132" lon="10.992542107530316"><ele>421.0</ele><time>2026-04-28T09:53:54.846Z</time></trkpt><trkpt lat="44.12813104839828" lon="10.992667149683681"><ele>421.0</ele><time>2026-04-28T09:53:55.846Z</time></trkpt><trkpt lat="44.128144341830726" lon="10.992772369809249"><ele>421.0</ele><time>2026-04-28T09:53:56.846Z</time></trkpt><trkpt lat="44.1281638078014" lon="10.992906045669658"><ele>421.0</ele><time>2026-04-28T09:53:58.846Z</time></trkpt><trkpt lat="44.128137561855176" lon="10.993024358149857"><ele>421.0</ele><time>2026-04-28T09:54:00.846Z</time></trkpt><trkpt lat="44.12811251866703" lon="10.993162007181182"><ele>421.00000000000006</ele><time>2026-04-28T09:54:02.846Z</time></trkpt><trkpt lat="44.12807858854667" lon="10.993266240558212"><ele>421.0</ele><time>2026-04-28T09:54:04.846Z</time></trkpt><trkpt lat="44.12804817951769" lon="10.993349952835143"><ele>421.0</ele><time>2026-04-28T09:54:06.846Z</time></trkpt><trkpt lat="44.12800599249722" lon="10.993418385325189"><ele>421.0</ele><time>2026-04-28T09:54:08.846Z</time></trkpt><trkpt lat="44.12798279638523" lon="10.993510839148389"><ele>421.00000000000006</ele><time>2026-04-28T09:54:11.846Z</time></trkpt><trkpt lat="44.128053095342565" lon="10.993714087329797"><ele>421.0</ele><time>2026-04-28T09:54:13.846Z</time></trkpt><trkpt lat="44.12804968690947" lon="10.993801909322073"><ele>422.1666666666667</ele><time>2026-04-28T09:54:14.846Z</time></trkpt><trkpt lat="44.12803976228897" lon="10.99389459252998"><ele>423.33333333333337</ele><time>2026-04-28T09:54:15.846Z</time></trkpt><trkpt lat="44.128036894916406" lon="10.994001660044495"><ele>424.5</ele><time>2026-04-28T09:54:16.846Z</time></trkpt><trkpt lat="44.12803267114683" lon="10.994103781805428"><ele>425.66666666666663</ele><time>2026-04-28T09:54:17.846Z</time></trkpt><trkpt lat="44.12804447037414" lon="10.994201903377265"><ele>426.8333333333333</ele><time>2026-04-28T09:54:18.846Z</time></trkpt><trkpt lat="44.12807705603067" lon="10.994301133948145"><ele>428.0</ele><time>2026-04-28T09:54:19.846Z</time></trkpt><trkpt lat="44.12806214151282" lon="10.994422655026455"><ele>429.3333333333333</ele><time>2026-04-28T09:54:20.846Z</time></trkpt><trkpt lat="44.12809814945235" lon="10.994539603555573"><ele>430.66666666666663</ele><time>2026-04-28T09:54:21.846Z</time></trkpt><trkpt lat="44.128145019039884" lon="10.994641503460025"><ele>432.0</ele><time>2026-04-28T09:54:22.846Z</time></trkpt><trkpt lat="44.128196252545656" lon="10.994735179999434"><ele>433.33333333333337</ele><time>2026-04-28T09:54:23.846Z</time></trkpt><trkpt lat="44.12824400375906" lon="10.99481632008127"><ele>434.6666666666667</ele><time>2026-04-28T09:54:24.846Z</time></trkpt><trkpt lat="44.128300979210174" lon="10.994906943361308"><ele>436.0</ele><time>2026-04-28T09:54:25.846Z</time></trkpt><trkpt lat="44.12836094826684" lon="10.994994555388258"><ele>431.6666666666667</ele><time>2026-04-28T09:54:26.846Z</time></trkpt><trkpt lat="44.12842600155914" lon="10.995078146270794"><ele>427.33333333333337</ele><time>2026-04-28T09:54:27.846Z</time></trkpt><trkpt lat="44.12849423238089" lon="10.995160892992878"><ele>423.0</ele><time>2026-04-28T09:54:28.846Z</time></trkpt><trkpt lat="44.12855968568091" lon="10.995243921485258"><ele>418.66666666666663</ele><time>2026-04-28T09:54:29.846Z</time></trkpt><trkpt lat="44.12859729883999" lon="10.99535739702746"><ele>414.3333333333333</ele><time>2026-04-28T09:54:30.846Z</time></trkpt><trkpt lat="44.12861991449912" lon="10.995477534645122"><ele>410.0</ele><time>2026-04-28T09:54:31.846Z</time></trkpt><trkpt lat="44.128643463158284" lon="10.995603294900299"><ele>410.0</ele><time>2026-04-28T09:54:32.846Z</time></trkpt><trkpt lat="44.1286580622766" lon="10.995716277184263"><ele>410.0</ele><time>2026-04-28T09:54:33.846Z</time></trkpt><trkpt lat="44.128672464568865" lon="10.995853640030239"><ele>410.0</ele><time>2026-04-28T09:54:34.846Z</time></trkpt><trkpt lat="44.12869691368537" lon="10.995984974654364"><ele>410.0</ele><time>2026-04-28T09:54:35.846Z</time></trkpt><trkpt lat="44.128703320280465" lon="10.996114203525913"><ele>410.0</ele><time>2026-04-28T09:54:36.846Z</time></trkpt><trkpt lat="44.128706503161" lon="10.996248104727147"><ele>408.6</ele><time>2026-04-28T09:54:37.846Z</time></trkpt><trkpt lat="44.128705518238704" lon="10.996377220317278"><ele>407.2</ele><time>2026-04-28T09:54:38.846Z</time></trkpt><trkpt lat="44.12868734101218" lon="10.9965081566706"><ele>405.79999999999995</ele><time>2026-04-28T09:54:39.846Z</time></trkpt><trkpt lat="44.12869451546776" lon="10.996638997659698"><ele>404.4</ele><time>2026-04-28T09:54:40.846Z</time></trkpt><trkpt lat="44.12868069641248" lon="10.996776364721832"><ele>403.0</ele><time>2026-04-28T09:54:41.846Z</time></trkpt><trkpt lat="44.128672261690944" lon="10.99691865764168"><ele>401.0</ele><time>2026-04-28T09:54:42.846Z</time></trkpt><trkpt lat="44.1286246597647" lon="10.997058910154479"><ele>399.0</ele><time>2026-04-28T09:54:43.846Z</time></trkpt><trkpt lat="44.12857069577808" lon="10.997181841689455"><ele>397.0</ele><time>2026-04-28T09:54:44.846Z</time></trkpt><trkpt lat="44.128522141794086" lon="10.997287126725771"><ele>395.0</ele><time>2026-04-28T09:54:45.846Z</time></trkpt><trkpt lat="44.12848510571051" lon="10.997385009489205"><ele>393.0</ele><time>2026-04-28T09:54:46.846Z</time></trkpt><trkpt lat="44.12844776630004" lon="10.99746488850205"><ele>393.0</ele><time>2026-04-28T09:54:47.846Z</time></trkpt><trkpt lat="44.12845806488198" lon="10.99755890311592"><ele>393.0</ele><time>2026-04-28T09:54:48.846Z</time></trkpt><trkpt lat="44.128480461935744" lon="10.997666369481935"><ele>393.0</ele><time>2026-04-28T09:54:49.845Z</time></trkpt><trkpt lat="44.128554502932175" lon="10.997758879756121"><ele>393.0</ele><time>2026-04-28T09:54:50.845Z</time></trkpt><trkpt lat="44.12864559427608" lon="10.997833462839132"><ele>393.0</ele><time>2026-04-28T09:54:51.845Z</time></trkpt><trkpt lat="44.128747778271986" lon="10.99791169620325"><ele>393.0</ele><time>2026-04-28T09:54:52.845Z</time></trkpt><trkpt lat="44.128851540990645" lon="10.99799699633198"><ele>393.0</ele><time>2026-04-28T09:54:53.845Z</time></trkpt><trkpt lat="44.128963663396775" lon="10.998089344575023"><ele>393.0</ele><time>2026-04-28T09:54:54.845Z</time></trkpt><trkpt lat="44.129076545277826" lon="10.998180943905885"><ele>393.0</ele><time>2026-04-28T09:54:55.845Z</time></trkpt><trkpt lat="44.12919105213309" lon="10.99827134456918"><ele>397.25</ele><time>2026-04-28T09:54:56.844Z</time></trkpt><trkpt lat="44.129298578157375" lon="10.998339926290827"><ele>401.5</ele><time>2026-04-28T09:54:57.844Z</time></trkpt><trkpt lat="44.12941167529217" lon="10.998374774105327"><ele>405.75</ele><time>2026-04-28T09:54:58.845Z</time></trkpt><trkpt lat="44.1295232034098" lon="10.998378053272292"><ele>410.0</ele><time>2026-04-28T09:54:59.845Z</time></trkpt><trkpt lat="44.12963758599112" lon="10.99837037976814"><ele>410.0</ele><time>2026-04-28T09:55:00.845Z</time></trkpt><trkpt lat="44.12976373811819" lon="10.998357180409943"><ele>410.0</ele><time>2026-04-28T09:55:01.845Z</time></trkpt><trkpt lat="44.129876059197514" lon="10.998339135207486"><ele>410.0</ele><time>2026-04-28T09:55:02.844Z</time></trkpt><trkpt lat="44.12999679865979" lon="10.998302459362595"><ele>410.0</ele><time>2026-04-28T09:55:03.844Z</time></trkpt><trkpt lat="44.13010775453197" lon="10.998249044880067"><ele>409.75</ele><time>2026-04-28T09:55:04.844Z</time></trkpt><trkpt lat="44.13021392095594" lon="10.998170958807874"><ele>409.5</ele><time>2026-04-28T09:55:05.844Z</time></trkpt><trkpt lat="44.13032850702483" lon="10.998122905815464"><ele>409.25</ele><time>2026-04-28T09:55:06.844Z</time></trkpt><trkpt lat="44.13043678754032" lon="10.998055663894965"><ele>409.0</ele><time>2026-04-28T09:55:07.844Z</time></trkpt><trkpt lat="44.13056199288204" lon="10.997977191147719"><ele>409.0</ele><time>2026-04-28T09:55:08.844Z</time></trkpt><trkpt lat="44.13070203479149" lon="10.997895082530091"><ele>409.0</ele><time>2026-04-28T09:55:09.844Z</time></trkpt><trkpt lat="44.130845192517675" lon="10.99780759853441"><ele>409.0</ele><time>2026-04-28T09:55:10.844Z</time></trkpt><trkpt lat="44.130979637784854" lon="10.997726388796858"><ele>409.25</ele><time>2026-04-28T09:55:11.844Z</time></trkpt><trkpt lat="44.131111514139874" lon="10.99763595339351"><ele>409.5</ele><time>2026-04-28T09:55:12.844Z</time></trkpt><trkpt lat="44.13124055291281" lon="10.997545861718294"><ele>409.75</ele><time>2026-04-28T09:55:13.844Z</time></trkpt><trkpt lat="44.13137219732838" lon="10.997445988411826"><ele>410.0</ele><time>2026-04-28T09:55:14.844Z</time></trkpt><trkpt lat="44.13150898030811" lon="10.997349809385925"><ele>414.75</ele><time>2026-04-28T09:55:15.844Z</time></trkpt><trkpt lat="44.131643597556696" lon="10.997257490751329"><ele>419.5</ele><time>2026-04-28T09:55:16.844Z</time></trkpt><trkpt lat="44.13177146307417" lon="10.997169705526495"><ele>424.25</ele><time>2026-04-28T09:55:17.844Z</time></trkpt><trkpt lat="44.1318831453867" lon="10.997081578308784"><ele>429.0</ele><time>2026-04-28T09:55:18.844Z</time></trkpt><trkpt lat="44.131985208589406" lon="10.997007126128421"><ele>429.0</ele><time>2026-04-28T09:55:19.844Z</time></trkpt><trkpt lat="44.132093026867395" lon="10.996941468610661"><ele>429.0</ele><time>2026-04-28T09:55:20.844Z</time></trkpt><trkpt lat="44.13220734527805" lon="10.996901796117966"><ele>429.0</ele><time>2026-04-28T09:55:21.844Z</time></trkpt><trkpt lat="44.13232344293652" lon="10.996900859913866"><ele>429.0</ele><time>2026-04-28T09:55:22.844Z</time></trkpt><trkpt lat="44.13244279946488" lon="10.996922511725138"><ele>431.75</ele><time>2026-04-28T09:55:23.844Z</time></trkpt><trkpt lat="44.13257075390461" lon="10.99696590042588"><ele>434.5</ele><time>2026-04-28T09:55:24.844Z</time></trkpt><trkpt lat="44.13269198134876" lon="10.997014033997967"><ele>437.25</ele><time>2026-04-28T09:55:25.844Z</time></trkpt><trkpt lat="44.1328189999205" lon="10.997073275800192"><ele>440.0</ele><time>2026-04-28T09:55:26.844Z</time></trkpt><trkpt lat="44.132940567695435" lon="10.997136363533235"><ele>440.0</ele><time>2026-04-28T09:55:27.844Z</time></trkpt><trkpt lat="44.13306745424111" lon="10.997214679258704"><ele>440.0</ele><time>2026-04-28T09:55:28.844Z</time></trkpt><trkpt lat="44.1331813667349" lon="10.997306215780123"><ele>440.0</ele><time>2026-04-28T09:55:29.844Z</time></trkpt><trkpt lat="44.133283334484254" lon="10.997393887486679"><ele>440.0</ele><time>2026-04-28T09:55:30.844Z</time></trkpt><trkpt lat="44.13337284130707" lon="10.997486438481152"><ele>440.5</ele><time>2026-04-28T09:55:31.844Z</time></trkpt><trkpt lat="44.13344577174138" lon="10.997607918262645"><ele>441.0</ele><time>2026-04-28T09:55:32.844Z</time></trkpt><trkpt lat="44.133495819846885" lon="10.99774967154582"><ele>441.5</ele><time>2026-04-28T09:55:33.844Z</time></trkpt><trkpt lat="44.1335166137372" lon="10.997896764575623"><ele>442.0</ele><time>2026-04-28T09:55:34.844Z</time></trkpt><trkpt lat="44.13352175419108" lon="10.998063830701776"><ele>442.0</ele><time>2026-04-28T09:55:35.844Z</time></trkpt><trkpt lat="44.13350853937722" lon="10.998246999017129"><ele>442.0</ele><time>2026-04-28T09:55:36.844Z</time></trkpt><trkpt lat="44.133487793164356" lon="10.998452341937735"><ele>442.0</ele><time>2026-04-28T09:55:37.844Z</time></trkpt><trkpt lat="44.1334763800769" lon="10.998666622546722"><ele>442.0</ele><time>2026-04-28T09:55:38.844Z</time></trkpt><trkpt lat="44.133474859670365" lon="10.998881759984211"><ele>444.25</ele><time>2026-04-28T09:55:39.844Z</time></trkpt><trkpt lat="44.133474917496585" lon="10.99907838390551"><ele>446.5</ele><time>2026-04-28T09:55:40.844Z</time></trkpt><trkpt lat="44.133473066680715" lon="10.999259632938738"><ele>448.75</ele><time>2026-04-28T09:55:41.844Z</time></trkpt><trkpt lat="44.133470180835445" lon="10.99943585075176"><ele>451.0</ele><time>2026-04-28T09:55:42.844Z</time></trkpt><trkpt lat="44.13346655318983" lon="10.999624684354972"><ele>452.0</ele><time>2026-04-28T09:55:43.844Z</time></trkpt><trkpt lat="44.1334688589263" lon="10.999812781052077"><ele>453.0</ele><time>2026-04-28T09:55:44.844Z</time></trkpt><trkpt lat="44.13347790268719" lon="10.999991290173996"><ele>454.0</ele><time>2026-04-28T09:55:45.844Z</time></trkpt><trkpt lat="44.133493928495334" lon="11.000170295705145"><ele>455.0</ele><time>2026-04-28T09:55:46.844Z</time></trkpt><trkpt lat="44.13351280132929" lon="11.00034199647918"><ele>455.0</ele><time>2026-04-28T09:55:47.844Z</time></trkpt><trkpt lat="44.13353511406415" lon="11.000523995148184"><ele>455.0</ele><time>2026-04-28T09:55:48.844Z</time></trkpt><trkpt lat="44.133573147660705" lon="11.000673399792976"><ele>455.0</ele><time>2026-04-28T09:55:49.844Z</time></trkpt><trkpt lat="44.1336314834115" lon="11.000794346544557"><ele>455.0</ele><time>2026-04-28T09:55:50.844Z</time></trkpt><trkpt lat="44.133688071424714" lon="11.000902621844114"><ele>455.0</ele><time>2026-04-28T09:55:51.844Z</time></trkpt><trkpt lat="44.13377736943466" lon="11.000963613261176"><ele>455.0</ele><time>2026-04-28T09:55:52.844Z</time></trkpt><trkpt lat="44.13388523082836" lon="11.000971014574139"><ele>455.0</ele><time>2026-04-28T09:55:53.844Z</time></trkpt><trkpt lat="44.13398606382371" lon="11.000924587009896"><ele>455.0</ele><time>2026-04-28T09:55:54.844Z</time></trkpt><trkpt lat="44.134082853185724" lon="11.000825153968973"><ele>455.0</ele><time>2026-04-28T09:55:55.844Z</time></trkpt><trkpt lat="44.134170693993525" lon="11.000705289521944"><ele>455.0</ele><time>2026-04-28T09:55:56.844Z</time></trkpt><trkpt lat="44.134255792144934" lon="11.000582457647837"><ele>455.0</ele><time>2026-04-28T09:55:57.844Z</time></trkpt><trkpt lat="44.13433249450794" lon="11.000494222306582"><ele>455.0</ele><time>2026-04-28T09:55:58.844Z</time></trkpt><trkpt lat="44.13439404843011" lon="11.000441147241592"><ele>455.0</ele><time>2026-04-28T09:55:59.844Z</time></trkpt><trkpt lat="44.1345037739398" lon="11.000517956008629"><ele>455.0</ele><time>2026-04-28T09:56:01.844Z</time></trkpt><trkpt lat="44.13452370472743" lon="11.000613275946463"><ele>455.0</ele><time>2026-04-28T09:56:02.844Z</time></trkpt><trkpt lat="44.13450666475025" lon="11.000728927193988"><ele>455.0</ele><time>2026-04-28T09:56:03.844Z</time></trkpt><trkpt lat="44.134477171045745" lon="11.000854218639228"><ele>455.0</ele><time>2026-04-28T09:56:04.844Z</time></trkpt><trkpt lat="44.13445271370404" lon="11.001007344388142"><ele>455.0</ele><time>2026-04-28T09:56:05.844Z</time></trkpt><trkpt lat="44.134454992874666" lon="11.001187431613944"><ele>455.0</ele><time>2026-04-28T09:56:06.844Z</time></trkpt><trkpt lat="44.13447396919875" lon="11.0013838267205"><ele>457.5</ele><time>2026-04-28T09:56:07.844Z</time></trkpt><trkpt lat="44.1344927762902" lon="11.001580828048455"><ele>460.0</ele><time>2026-04-28T09:56:08.844Z</time></trkpt><trkpt lat="44.134508993422514" lon="11.001754995337272"><ele>462.5</ele><time>2026-04-28T09:56:09.844Z</time></trkpt><trkpt lat="44.13450447748663" lon="11.001901522880804"><ele>465.0</ele><time>2026-04-28T09:56:10.844Z</time></trkpt><trkpt lat="44.13447741551781" lon="11.002032133423405"><ele>467.0</ele><time>2026-04-28T09:56:11.844Z</time></trkpt><trkpt lat="44.134442858290235" lon="11.002151490156454"><ele>469.0</ele><time>2026-04-28T09:56:12.844Z</time></trkpt><trkpt lat="44.134356528765956" lon="11.002202465003082"><ele>471.0</ele><time>2026-04-28T09:56:13.844Z</time></trkpt><trkpt lat="44.13426020685733" lon="11.002179716612504"><ele>473.0</ele><time>2026-04-28T09:56:14.844Z</time></trkpt><trkpt lat="44.13417947094663" lon="11.002156857213118"><ele>475.0</ele><time>2026-04-28T09:56:15.844Z</time></trkpt><trkpt lat="44.134085532119165" lon="11.002171721732651"><ele>476.2</ele><time>2026-04-28T09:56:16.844Z</time></trkpt><trkpt lat="44.133997833414725" lon="11.002236624122876"><ele>477.4</ele><time>2026-04-28T09:56:17.844Z</time></trkpt><trkpt lat="44.133905198951375" lon="11.002335153563703"><ele>478.6</ele><time>2026-04-28T09:56:18.844Z</time></trkpt><trkpt lat="44.133821757482785" lon="11.002442346795387"><ele>479.8</ele><time>2026-04-28T09:56:19.844Z</time></trkpt><trkpt lat="44.133743643129286" lon="11.002526319388725"><ele>481.0</ele><time>2026-04-28T09:56:20.844Z</time></trkpt><trkpt lat="44.13363917394233" lon="11.002536771046335"><ele>481.0</ele><time>2026-04-28T09:56:21.844Z</time></trkpt><trkpt lat="44.13355457378905" lon="11.002463931429151"><ele>481.0</ele><time>2026-04-28T09:56:22.844Z</time></trkpt><trkpt lat="44.13347643594698" lon="11.002387291374253"><ele>481.0</ele><time>2026-04-28T09:56:23.844Z</time></trkpt><trkpt lat="44.133399653318364" lon="11.0022899155375"><ele>481.0</ele><time>2026-04-28T09:56:24.844Z</time></trkpt><trkpt lat="44.13331658548021" lon="11.002211815350977"><ele>481.0</ele><time>2026-04-28T09:56:25.844Z</time></trkpt><trkpt lat="44.133229007360676" lon="11.002125532507616"><ele>482.8</ele><time>2026-04-28T09:56:26.844Z</time></trkpt><trkpt lat="44.133141922960306" lon="11.002033591184977"><ele>484.6</ele><time>2026-04-28T09:56:27.844Z</time></trkpt><trkpt lat="44.133063224835595" lon="11.001931984644797"><ele>486.4</ele><time>2026-04-28T09:56:28.844Z</time></trkpt><trkpt lat="44.13298556209543" lon="11.001838819318984"><ele>488.2</ele><time>2026-04-28T09:56:29.844Z</time></trkpt><trkpt lat="44.13289675169699" lon="11.001779088353494"><ele>490.0</ele><time>2026-04-28T09:56:30.844Z</time></trkpt><trkpt lat="44.13278821654953" lon="11.001751918016492"><ele>490.0</ele><time>2026-04-28T09:56:31.844Z</time></trkpt><trkpt lat="44.132685579400444" lon="11.001747736094552"><ele>490.0</ele><time>2026-04-28T09:56:32.844Z</time></trkpt><trkpt lat="44.132601809311296" lon="11.001771877382744"><ele>490.0</ele><time>2026-04-28T09:56:33.844Z</time></trkpt><trkpt lat="44.13251762632822" lon="11.00183481185921"><ele>490.0</ele><time>2026-04-28T09:56:34.844Z</time></trkpt><trkpt lat="44.13244491024616" lon="11.001930451190441"><ele>490.0</ele><time>2026-04-28T09:56:35.844Z</time></trkpt><trkpt lat="44.132387246457654" lon="11.002050820864195"><ele>490.6</ele><time>2026-04-28T09:56:36.844Z</time></trkpt><trkpt lat="44.132332222829795" lon="11.002173741450868"><ele>491.2</ele><time>2026-04-28T09:56:37.844Z</time></trkpt><trkpt lat="44.1322737893789" lon="11.002296230539306"><ele>491.79999999999995</ele><time>2026-04-28T09:56:38.844Z</time></trkpt><trkpt lat="44.13220880248221" lon="11.00242468512553"><ele>492.4</ele><time>2026-04-28T09:56:39.844Z</time></trkpt><trkpt lat="44.132130202587696" lon="11.002541545427482"><ele>493.0</ele><time>2026-04-28T09:56:40.844Z</time></trkpt><trkpt lat="44.13203206129083" lon="11.002641072276324"><ele>493.0</ele><time>2026-04-28T09:56:41.844Z</time></trkpt><trkpt lat="44.13193407596289" lon="11.0027235824398"><ele>492.99999999999994</ele><time>2026-04-28T09:56:42.844Z</time></trkpt><trkpt lat="44.13184572744658" lon="11.002784364959794"><ele>492.99999999999994</ele><time>2026-04-28T09:56:43.844Z</time></trkpt><trkpt lat="44.131780166603264" lon="11.0028379429071"><ele>493.0</ele><time>2026-04-28T09:56:44.844Z</time></trkpt><trkpt lat="44.1316956566528" lon="11.002972001723109"><ele>493.0</ele><time>2026-04-28T09:56:46.844Z</time></trkpt><trkpt lat="44.13166954426756" lon="11.003057798365301"><ele>493.0</ele><time>2026-04-28T09:56:47.844Z</time></trkpt><trkpt lat="44.13171770078153" lon="11.003254732987909"><ele>493.0</ele><time>2026-04-28T09:56:48.844Z</time></trkpt><trkpt lat="44.13183007397887" lon="11.003333864457698"><ele>493.0</ele><time>2026-04-28T09:56:49.844Z</time></trkpt><trkpt lat="44.13190942620739" lon="11.003447965849922"><ele>493.0</ele><time>2026-04-28T09:56:50.844Z</time></trkpt><trkpt lat="44.13198720473149" lon="11.00356734725782"><ele>495.2</ele><time>2026-04-28T09:56:51.844Z</time></trkpt><trkpt lat="44.1320454829362" lon="11.003684557629489"><ele>497.4</ele><time>2026-04-28T09:56:52.844Z</time></trkpt><trkpt lat="44.132049641406674" lon="11.003838928365873"><ele>499.59999999999997</ele><time>2026-04-28T09:56:53.844Z</time></trkpt><trkpt lat="44.13206741845543" lon="11.00396583485717"><ele>501.79999999999995</ele><time>2026-04-28T09:56:54.844Z</time></trkpt><trkpt lat="44.132066802813995" lon="11.004117643664255"><ele>504.0</ele><time>2026-04-28T09:56:55.844Z</time></trkpt><trkpt lat="44.132054160695525" lon="11.004280515828972"><ele>504.25</ele><time>2026-04-28T09:56:56.844Z</time></trkpt><trkpt lat="44.13203645880616" lon="11.004455342134163"><ele>504.5</ele><time>2026-04-28T09:56:57.844Z</time></trkpt><trkpt lat="44.13204178803642" lon="11.004651085275109"><ele>504.75</ele><time>2026-04-28T09:56:58.844Z</time></trkpt><trkpt lat="44.13203963669669" lon="11.00483461880456"><ele>505.0</ele><time>2026-04-28T09:56:59.844Z</time></trkpt><trkpt lat="44.132045595629386" lon="11.004999769641595"><ele>506.2</ele><time>2026-04-28T09:57:00.844Z</time></trkpt><trkpt lat="44.13205943874397" lon="11.00516085407685"><ele>507.4</ele><time>2026-04-28T09:57:01.844Z</time></trkpt><trkpt lat="44.13207308294437" lon="11.005308104204218"><ele>508.6</ele><time>2026-04-28T09:57:02.843Z</time></trkpt><trkpt lat="44.13207595317281" lon="11.005453855052174"><ele>509.8</ele><time>2026-04-28T09:57:03.843Z</time></trkpt><trkpt lat="44.132086171632814" lon="11.00559461049155"><ele>511.0</ele><time>2026-04-28T09:57:04.844Z</time></trkpt><trkpt lat="44.13209303966543" lon="11.005759361202525"><ele>511.5</ele><time>2026-04-28T09:57:05.844Z</time></trkpt><trkpt lat="44.13209391962566" lon="11.005933983582558"><ele>512.0</ele><time>2026-04-28T09:57:06.844Z</time></trkpt><trkpt lat="44.13212846756781" lon="11.006100170689304"><ele>512.5</ele><time>2026-04-28T09:57:07.843Z</time></trkpt><trkpt lat="44.13217920811397" lon="11.006244735446423"><ele>513.0</ele><time>2026-04-28T09:57:08.843Z</time></trkpt><trkpt lat="44.13223791921931" lon="11.006384253454165"><ele>513.0</ele><time>2026-04-28T09:57:09.843Z</time></trkpt><trkpt lat="44.13230197142862" lon="11.006524848584295"><ele>513.0</ele><time>2026-04-28T09:57:10.843Z</time></trkpt><trkpt lat="44.132368746871855" lon="11.006665378628668"><ele>513.0</ele><time>2026-04-28T09:57:11.843Z</time></trkpt><trkpt lat="44.13244255758203" lon="11.006810524842543"><ele>513.0</ele><time>2026-04-28T09:57:12.843Z</time></trkpt><trkpt lat="44.13251934587243" lon="11.006944111855727"><ele>516.25</ele><time>2026-04-28T09:57:13.843Z</time></trkpt><trkpt lat="44.1326017842016" lon="11.007061112163354"><ele>519.5</ele><time>2026-04-28T09:57:14.843Z</time></trkpt><trkpt lat="44.13264951934822" lon="11.007207973902746"><ele>522.75</ele><time>2026-04-28T09:57:15.843Z</time></trkpt><trkpt lat="44.132695419734446" lon="11.007378735966183"><ele>526.0</ele><time>2026-04-28T09:57:16.843Z</time></trkpt><trkpt lat="44.13273187106795" lon="11.007543687638789"><ele>526.0</ele><time>2026-04-28T09:57:17.843Z</time></trkpt><trkpt lat="44.13275580476353" lon="11.007698556806181"><ele>526.0</ele><time>2026-04-28T09:57:18.843Z</time></trkpt><trkpt lat="44.132822814231176" lon="11.007845723721836"><ele>526.0</ele><time>2026-04-28T09:57:19.843Z</time></trkpt><trkpt lat="44.13290513357049" lon="11.007988177243156"><ele>526.0</ele><time>2026-04-28T09:57:20.843Z</time></trkpt><trkpt lat="44.13298498200657" lon="11.008127249981976"><ele>526.0</ele><time>2026-04-28T09:57:21.843Z</time></trkpt><trkpt lat="44.133027923739824" lon="11.008300880229537"><ele>526.0</ele><time>2026-04-28T09:57:22.843Z</time></trkpt><trkpt lat="44.13305122920471" lon="11.008495563409086"><ele>526.0</ele><time>2026-04-28T09:57:23.843Z</time></trkpt><trkpt lat="44.13305048671094" lon="11.008699332881914"><ele>526.0</ele><time>2026-04-28T09:57:24.843Z</time></trkpt><trkpt lat="44.133033285771134" lon="11.008896128121119"><ele>526.25</ele><time>2026-04-28T09:57:25.843Z</time></trkpt><trkpt lat="44.13299393340834" lon="11.009071406611856"><ele>526.5</ele><time>2026-04-28T09:57:26.843Z</time></trkpt><trkpt lat="44.13295050932535" lon="11.009234770802586"><ele>526.75</ele><time>2026-04-28T09:57:27.843Z</time></trkpt><trkpt lat="44.13290202675635" lon="11.009382634274422"><ele>527.0</ele><time>2026-04-28T09:57:28.843Z</time></trkpt><trkpt lat="44.132854192556" lon="11.009525958456583"><ele>528.6</ele><time>2026-04-28T09:57:29.843Z</time></trkpt><trkpt lat="44.132800447240854" lon="11.00965686805988"><ele>530.2</ele><time>2026-04-28T09:57:30.843Z</time></trkpt><trkpt lat="44.13275604580427" lon="11.009771900888268"><ele>531.8</ele><time>2026-04-28T09:57:31.843Z</time></trkpt><trkpt lat="44.13270284768679" lon="11.009891268221486"><ele>533.4</ele><time>2026-04-28T09:57:32.843Z</time></trkpt><trkpt lat="44.13265858747237" lon="11.01002749993332"><ele>535.0</ele><time>2026-04-28T09:57:33.843Z</time></trkpt><trkpt lat="44.132589471067526" lon="11.010157237908507"><ele>537.25</ele><time>2026-04-28T09:57:34.843Z</time></trkpt><trkpt lat="44.13250947332265" lon="11.010270076898344"><ele>539.5</ele><time>2026-04-28T09:57:35.843Z</time></trkpt><trkpt lat="44.132408688601295" lon="11.01034781829945"><ele>541.75</ele><time>2026-04-28T09:57:36.843Z</time></trkpt><trkpt lat="44.13229063890509" lon="11.010391457123053"><ele>544.0</ele><time>2026-04-28T09:57:37.843Z</time></trkpt><trkpt lat="44.1321649418739" lon="11.010430279704876"><ele>544.0</ele><time>2026-04-28T09:57:38.843Z</time></trkpt><trkpt lat="44.132038957149796" lon="11.010480824073715"><ele>544.0</ele><time>2026-04-28T09:57:39.843Z</time></trkpt><trkpt lat="44.13191194916491" lon="11.010522290059933"><ele>544.0</ele><time>2026-04-28T09:57:40.843Z</time></trkpt><trkpt lat="44.13179190621964" lon="11.01059420643221"><ele>544.0</ele><time>2026-04-28T09:57:41.843Z</time></trkpt><trkpt lat="44.13168566301819" lon="11.010657746430036"><ele>544.0</ele><time>2026-04-28T09:57:42.843Z</time></trkpt><trkpt lat="44.13158522534883" lon="11.010716807898282"><ele>544.0</ele><time>2026-04-28T09:57:43.843Z</time></trkpt><trkpt lat="44.13149252624987" lon="11.010778146588938"><ele>544.0</ele><time>2026-04-28T09:57:44.843Z</time></trkpt><trkpt lat="44.1314108310901" lon="11.010873761838154"><ele>544.0</ele><time>2026-04-28T09:57:45.843Z</time></trkpt><trkpt lat="44.131339271846684" lon="11.010996188166109"><ele>544.0</ele><time>2026-04-28T09:57:46.843Z</time></trkpt><trkpt lat="44.131276855279324" lon="11.011155254009168"><ele>544.75</ele><time>2026-04-28T09:57:47.843Z</time></trkpt><trkpt lat="44.13122059304326" lon="11.011319214146445"><ele>545.5</ele><time>2026-04-28T09:57:48.843Z</time></trkpt><trkpt lat="44.1311744789403" lon="11.011488904113378"><ele>546.25</ele><time>2026-04-28T09:57:49.843Z</time></trkpt><trkpt lat="44.13112565962972" lon="11.011652953646884"><ele>547.0</ele><time>2026-04-28T09:57:50.843Z</time></trkpt><trkpt lat="44.13111280560021" lon="11.011830603907288"><ele>549.0</ele><time>2026-04-28T09:57:51.843Z</time></trkpt><trkpt lat="44.13114540942023" lon="11.012021257837754"><ele>551.0</ele><time>2026-04-28T09:57:52.843Z</time></trkpt><trkpt lat="44.131183816076266" lon="11.012221348441079"><ele>553.0</ele><time>2026-04-28T09:57:53.843Z</time></trkpt><trkpt lat="44.131231262332896" lon="11.012438189164152"><ele>554.6666666666667</ele><time>2026-04-28T09:57:54.843Z</time></trkpt><trkpt lat="44.131297496384114" lon="11.012652618346864"><ele>556.3333333333334</ele><time>2026-04-28T09:57:55.843Z</time></trkpt><trkpt lat="44.13134948099559" lon="11.01287458154547"><ele>558.0</ele><time>2026-04-28T09:57:56.843Z</time></trkpt><trkpt lat="44.131388695968354" lon="11.013090746145949"><ele>558.0</ele><time>2026-04-28T09:57:57.843Z</time></trkpt><trkpt lat="44.13143699506778" lon="11.01327860106236"><ele>558.0</ele><time>2026-04-28T09:57:58.843Z</time></trkpt><trkpt lat="44.13148682584615" lon="11.01346806518034"><ele>558.0</ele><time>2026-04-28T09:57:59.843Z</time></trkpt><trkpt lat="44.13148745932958" lon="11.01366718478032"><ele>558.0</ele><time>2026-04-28T09:58:00.843Z</time></trkpt><trkpt lat="44.13146163923105" lon="11.0138531923145"><ele>559.25</ele><time>2026-04-28T09:58:01.843Z</time></trkpt><trkpt lat="44.13140799221632" lon="11.014006361299284"><ele>560.5</ele><time>2026-04-28T09:58:02.843Z</time></trkpt><trkpt lat="44.13132369603988" lon="11.014127301064745"><ele>561.75</ele><time>2026-04-28T09:58:03.843Z</time></trkpt><trkpt lat="44.131216674798935" lon="11.01423464776314"><ele>563.0</ele><time>2026-04-28T09:58:04.843Z</time></trkpt><trkpt lat="44.131092187335184" lon="11.014325088928892"><ele>564.5</ele><time>2026-04-28T09:58:05.843Z</time></trkpt><trkpt lat="44.130970038823946" lon="11.014429672706433"><ele>566.0</ele><time>2026-04-28T09:58:06.843Z</time></trkpt><trkpt lat="44.130847363298926" lon="11.014541476365368"><ele>567.5</ele><time>2026-04-28T09:58:07.843Z</time></trkpt><trkpt lat="44.13076171799215" lon="11.01466739787772"><ele>569.0</ele><time>2026-04-28T09:58:08.843Z</time></trkpt><trkpt lat="44.130687635386224" lon="11.014813906531693"><ele>569.0</ele><time>2026-04-28T09:58:09.843Z</time></trkpt><trkpt lat="44.13062912816997" lon="11.014974353910993"><ele>569.0</ele><time>2026-04-28T09:58:10.843Z</time></trkpt><trkpt lat="44.130567729865085" lon="11.015140946801079"><ele>569.0</ele><time>2026-04-28T09:58:11.843Z</time></trkpt><trkpt lat="44.1305016139299" lon="11.01530777591295"><ele>569.0</ele><time>2026-04-28T09:58:12.843Z</time></trkpt><trkpt lat="44.13040190768527" lon="11.015458076686345"><ele>572.0</ele><time>2026-04-28T09:58:13.843Z</time></trkpt><trkpt lat="44.13028203016309" lon="11.015579991871768"><ele>575.0</ele><time>2026-04-28T09:58:14.843Z</time></trkpt><trkpt lat="44.130152415249334" lon="11.01568825108746"><ele>578.0</ele><time>2026-04-28T09:58:15.843Z</time></trkpt><trkpt lat="44.1300172805315" lon="11.015795373278438"><ele>578.75</ele><time>2026-04-28T09:58:16.843Z</time></trkpt><trkpt lat="44.1298856305896" lon="11.015895511926736"><ele>579.5</ele><time>2026-04-28T09:58:17.843Z</time></trkpt><trkpt lat="44.12976737117511" lon="11.015981442180392"><ele>580.25</ele><time>2026-04-28T09:58:18.843Z</time></trkpt><trkpt lat="44.12966215726253" lon="11.016076424096848"><ele>581.0</ele><time>2026-04-28T09:58:19.843Z</time></trkpt><trkpt lat="44.12956571535602" lon="11.01617981844498"><ele>581.0</ele><time>2026-04-28T09:58:20.843Z</time></trkpt><trkpt lat="44.12948962198483" lon="11.016288847671653"><ele>581.0</ele><time>2026-04-28T09:58:21.843Z</time></trkpt><trkpt lat="44.12941841946534" lon="11.016417455385902"><ele>581.0</ele><time>2026-04-28T09:58:22.843Z</time></trkpt><trkpt lat="44.12935183224727" lon="11.016550893542032"><ele>581.0</ele><time>2026-04-28T09:58:23.843Z</time></trkpt><trkpt lat="44.12925774060353" lon="11.016706366944867"><ele>583.0</ele><time>2026-04-28T09:58:24.843Z</time></trkpt><trkpt lat="44.129161674680034" lon="11.01682949798491"><ele>585.0</ele><time>2026-04-28T09:58:25.843Z</time></trkpt><trkpt lat="44.129043852039075" lon="11.016910178954046"><ele>587.0</ele><time>2026-04-28T09:58:26.843Z</time></trkpt><trkpt lat="44.12894469106224" lon="11.017000455915186"><ele>589.0</ele><time>2026-04-28T09:58:27.843Z</time></trkpt><trkpt lat="44.128819249852185" lon="11.017059262734604"><ele>589.0</ele><time>2026-04-28T09:58:28.843Z</time></trkpt><trkpt lat="44.12868245840877" lon="11.017134589790745"><ele>589.0</ele><time>2026-04-28T09:58:29.843Z</time></trkpt><trkpt lat="44.12852768645137" lon="11.017221192210611"><ele>589.0</ele><time>2026-04-28T09:58:30.843Z</time></trkpt><trkpt lat="44.12836947700041" lon="11.017335473483618"><ele>588.6666666666667</ele><time>2026-04-28T09:58:31.843Z</time></trkpt><trkpt lat="44.128211945686736" lon="11.017480221964501"><ele>588.3333333333334</ele><time>2026-04-28T09:58:32.843Z</time></trkpt><trkpt lat="44.128057653117324" lon="11.017615497269446"><ele>588.0</ele><time>2026-04-28T09:58:33.843Z</time></trkpt><trkpt lat="44.127914849243275" lon="11.017746541409768"><ele>591.5</ele><time>2026-04-28T09:58:34.843Z</time></trkpt><trkpt lat="44.12779479730793" lon="11.017860451710597"><ele>595.0</ele><time>2026-04-28T09:58:35.843Z</time></trkpt><trkpt lat="44.127682292416466" lon="11.017970462598687"><ele>598.5</ele><time>2026-04-28T09:58:36.843Z</time></trkpt><trkpt lat="44.12757403160252" lon="11.018041303222162"><ele>602.0</ele><time>2026-04-28T09:58:37.843Z</time></trkpt><trkpt lat="44.127460088472766" lon="11.018078470342047"><ele>603.25</ele><time>2026-04-28T09:58:38.843Z</time></trkpt><trkpt lat="44.12734301208916" lon="11.018086855801714"><ele>604.5</ele><time>2026-04-28T09:58:39.843Z</time></trkpt><trkpt lat="44.12721534904617" lon="11.018001158773805"><ele>605.75</ele><time>2026-04-28T09:58:40.843Z</time></trkpt><trkpt lat="44.127082299363444" lon="11.017899150698355"><ele>607.0</ele><time>2026-04-28T09:58:41.843Z</time></trkpt><trkpt lat="44.126983158115415" lon="11.017829250989768"><ele>607.0</ele><time>2026-04-28T09:58:42.843Z</time></trkpt><trkpt lat="44.12687623378306" lon="11.017797412108443"><ele>607.0</ele><time>2026-04-28T09:58:43.843Z</time></trkpt><trkpt lat="44.12676376029474" lon="11.017790209625968"><ele>607.0</ele><time>2026-04-28T09:58:44.843Z</time></trkpt><trkpt lat="44.126645498060554" lon="11.017850216862366"><ele>607.0</ele><time>2026-04-28T09:58:45.843Z</time></trkpt><trkpt lat="44.12651448334813" lon="11.01793362124868"><ele>604.6666666666667</ele><time>2026-04-28T09:58:46.843Z</time></trkpt><trkpt lat="44.126385431328444" lon="11.018031566138651"><ele>602.3333333333334</ele><time>2026-04-28T09:58:47.843Z</time></trkpt><trkpt lat="44.12625370974767" lon="11.01815295082161"><ele>600.0</ele><time>2026-04-28T09:58:48.842Z</time></trkpt><trkpt lat="44.12612116482527" lon="11.018283466560824"><ele>602.3333333333334</ele><time>2026-04-28T09:58:49.842Z</time></trkpt><trkpt lat="44.125982250464155" lon="11.018438141724491"><ele>604.6666666666667</ele><time>2026-04-28T09:58:50.842Z</time></trkpt><trkpt lat="44.12585429024627" lon="11.018612671269075"><ele>607.0</ele><time>2026-04-28T09:58:51.842Z</time></trkpt><trkpt lat="44.12572840639547" lon="11.01878588757556"><ele>607.0</ele><time>2026-04-28T09:58:52.842Z</time></trkpt><trkpt lat="44.125618841809406" lon="11.018965692438556"><ele>607.0</ele><time>2026-04-28T09:58:53.842Z</time></trkpt><trkpt lat="44.12550492020092" lon="11.019109711287424"><ele>607.0</ele><time>2026-04-28T09:58:54.842Z</time></trkpt><trkpt lat="44.125390410450265" lon="11.019233078614523"><ele>610.2</ele><time>2026-04-28T09:58:55.842Z</time></trkpt><trkpt lat="44.12527349344503" lon="11.019308124164949"><ele>613.4000000000001</ele><time>2026-04-28T09:58:56.842Z</time></trkpt><trkpt lat="44.125162833768584" lon="11.019354221135083"><ele>616.5999999999999</ele><time>2026-04-28T09:58:57.842Z</time></trkpt><trkpt lat="44.12506495430526" lon="11.019397274875352"><ele>619.8</ele><time>2026-04-28T09:58:58.842Z</time></trkpt><trkpt lat="44.12499583521768" lon="11.019447001830681"><ele>623.0</ele><time>2026-04-28T09:58:59.842Z</time></trkpt><trkpt lat="44.124929372493504" lon="11.019547611777567"><ele>622.3333333333333</ele><time>2026-04-28T09:59:01.842Z</time></trkpt><trkpt lat="44.12487696919258" lon="11.019643325964447"><ele>621.6666666666666</ele><time>2026-04-28T09:59:04.842Z</time></trkpt><trkpt lat="44.12482313223425" lon="11.019726263980925"><ele>621.0</ele><time>2026-04-28T09:59:06.842Z</time></trkpt><trkpt lat="44.12476887227232" lon="11.019827172766622"><ele>620.3333333333334</ele><time>2026-04-28T09:59:08.842Z</time></trkpt><trkpt lat="44.12471003034737" lon="11.019941378683532"><ele>619.6666666666667</ele><time>2026-04-28T09:59:10.842Z</time></trkpt><trkpt lat="44.12466169827577" lon="11.02000963946313"><ele>619.0</ele><time>2026-04-28T09:59:11.842Z</time></trkpt><trkpt lat="44.12462497009214" lon="11.020107126426282"><ele>621.8</ele><time>2026-04-28T09:59:12.842Z</time></trkpt><trkpt lat="44.124541990560864" lon="11.0201960491375"><ele>624.5999999999999</ele><time>2026-04-28T09:59:13.842Z</time></trkpt><trkpt lat="44.12446566901972" lon="11.020296025288005"><ele>627.4</ele><time>2026-04-28T09:59:14.842Z</time></trkpt><trkpt lat="44.124379409881584" lon="11.020387647811468"><ele>630.1999999999999</ele><time>2026-04-28T09:59:15.842Z</time></trkpt><trkpt lat="44.124279281573436" lon="11.020475710934313"><ele>633.0</ele><time>2026-04-28T09:59:16.842Z</time></trkpt><trkpt lat="44.12417160733386" lon="11.020567267169552"><ele>633.0</ele><time>2026-04-28T09:59:17.842Z</time></trkpt><trkpt lat="44.12407556379046" lon="11.020678555133014"><ele>633.0</ele><time>2026-04-28T09:59:18.842Z</time></trkpt><trkpt lat="44.12400154930381" lon="11.020814534668903"><ele>633.0</ele><time>2026-04-28T09:59:19.842Z</time></trkpt><trkpt lat="44.123938077728376" lon="11.020947579440824"><ele>633.0</ele><time>2026-04-28T09:59:20.842Z</time></trkpt><trkpt lat="44.123899836266155" lon="11.021130087074983"><ele>637.0</ele><time>2026-04-28T09:59:21.842Z</time></trkpt><trkpt lat="44.1238909522017" lon="11.02132961833125"><ele>641.0</ele><time>2026-04-28T09:59:22.842Z</time></trkpt><trkpt lat="44.12390152643032" lon="11.02152784967005"><ele>645.0</ele><time>2026-04-28T09:59:23.842Z</time></trkpt><trkpt lat="44.12392042592296" lon="11.021699313472814"><ele>649.0</ele><time>2026-04-28T09:59:24.842Z</time></trkpt><trkpt lat="44.12394673763359" lon="11.021855616236081"><ele>649.0</ele><time>2026-04-28T09:59:25.842Z</time></trkpt><trkpt lat="44.12397468737885" lon="11.021993197432181"><ele>649.0</ele><time>2026-04-28T09:59:26.842Z</time></trkpt><trkpt lat="44.124000323917976" lon="11.022115741152378"><ele>649.0</ele><time>2026-04-28T09:59:27.842Z</time></trkpt><trkpt lat="44.12402038088491" lon="11.022216353325305"><ele>649.0</ele><time>2026-04-28T09:59:28.842Z</time></trkpt><trkpt lat="44.123988614085874" lon="11.022313608317225"><ele>649.0</ele><time>2026-04-28T09:59:29.842Z</time></trkpt><trkpt lat="44.12393250140923" lon="11.022410991600317"><ele>649.0</ele><time>2026-04-28T09:59:30.842Z</time></trkpt><trkpt lat="44.12383025571484" lon="11.02243961838304"><ele>649.0</ele><time>2026-04-28T09:59:31.842Z</time></trkpt><trkpt lat="44.12372730380204" lon="11.022477406607614"><ele>649.0</ele><time>2026-04-28T09:59:32.842Z</time></trkpt><trkpt lat="44.123619827386094" lon="11.02254142856452"><ele>649.0</ele><time>2026-04-28T09:59:33.842Z</time></trkpt><trkpt lat="44.123518218565835" lon="11.0226333119366"><ele>649.0</ele><time>2026-04-28T09:59:34.842Z</time></trkpt><trkpt lat="44.12342272615695" lon="11.022735599944347"><ele>649.0</ele><time>2026-04-28T09:59:35.842Z</time></trkpt><trkpt lat="44.12333575116267" lon="11.022836898863487"><ele>649.0</ele><time>2026-04-28T09:59:36.842Z</time></trkpt><trkpt lat="44.123254853801775" lon="11.022940303888117"><ele>649.0</ele><time>2026-04-28T09:59:37.842Z</time></trkpt><trkpt lat="44.123177689688816" lon="11.02304631081425"><ele>649.0</ele><time>2026-04-28T09:59:38.842Z</time></trkpt><trkpt lat="44.123104016199946" lon="11.023150394835382"><ele>649.0</ele><time>2026-04-28T09:59:39.842Z</time></trkpt><trkpt lat="44.12304111892418" lon="11.023259116285836"><ele>647.4000000000001</ele><time>2026-04-28T09:59:40.842Z</time></trkpt><trkpt lat="44.12298503240767" lon="11.023380810914418"><ele>645.8</ele><time>2026-04-28T09:59:41.842Z</time></trkpt><trkpt lat="44.12293612324044" lon="11.023511971944348"><ele>644.2</ele><time>2026-04-28T09:59:42.842Z</time></trkpt><trkpt lat="44.12289397907992" lon="11.02364014136856"><ele>642.5999999999999</ele><time>2026-04-28T09:59:43.842Z</time></trkpt><trkpt lat="44.122841333942056" lon="11.023772525583354"><ele>641.0</ele><time>2026-04-28T09:59:44.842Z</time></trkpt><trkpt lat="44.12280828253227" lon="11.023897570929572"><ele>641.0</ele><time>2026-04-28T09:59:45.842Z</time></trkpt><trkpt lat="44.12277485227591" lon="11.024025371669579"><ele>641.0</ele><time>2026-04-28T09:59:46.842Z</time></trkpt><trkpt lat="44.122733874386505" lon="11.024150296439604"><ele>641.0</ele><time>2026-04-28T09:59:47.842Z</time></trkpt><trkpt lat="44.122676182156425" lon="11.02426711103369"><ele>641.0</ele><time>2026-04-28T09:59:48.842Z</time></trkpt><trkpt lat="44.12260496478754" lon="11.024366777087819"><ele>641.0</ele><time>2026-04-28T09:59:49.842Z</time></trkpt><trkpt lat="44.12253159109459" lon="11.024450746551059"><ele>640.0</ele><time>2026-04-28T09:59:50.842Z</time></trkpt><trkpt lat="44.12245444088308" lon="11.024521874082003"><ele>639.0</ele><time>2026-04-28T09:59:51.842Z</time></trkpt><trkpt lat="44.1223715527064" lon="11.0245947431706"><ele>638.0</ele><time>2026-04-28T09:59:52.842Z</time></trkpt><trkpt lat="44.122292130336376" lon="11.02467320323213"><ele>637.0</ele><time>2026-04-28T09:59:53.842Z</time></trkpt><trkpt lat="44.122209350324646" lon="11.024778408259383"><ele>636.0</ele><time>2026-04-28T09:59:54.842Z</time></trkpt><trkpt lat="44.12210690707322" lon="11.024833343313672"><ele>636.0</ele><time>2026-04-28T09:59:55.842Z</time></trkpt><trkpt lat="44.12200823356551" lon="11.024913615812775"><ele>636.0</ele><time>2026-04-28T09:59:56.842Z</time></trkpt><trkpt lat="44.12191085119863" lon="11.024930573705486"><ele>636.0</ele><time>2026-04-28T09:59:57.842Z</time></trkpt><trkpt lat="44.121804920825845" lon="11.024971850113829"><ele>636.0</ele><time>2026-04-28T09:59:58.842Z</time></trkpt><trkpt lat="44.121701357724156" lon="11.025028058359933"><ele>636.0</ele><time>2026-04-28T09:59:59.842Z</time></trkpt><trkpt lat="44.12159562542331" lon="11.025048859170548"><ele>634.4</ele><time>2026-04-28T10:00:00.842Z</time></trkpt><trkpt lat="44.12150070152823" lon="11.025115924950752"><ele>632.8</ele><time>2026-04-28T10:00:01.842Z</time></trkpt><trkpt lat="44.12140006339913" lon="11.025172458147075"><ele>631.1999999999999</ele><time>2026-04-28T10:00:02.842Z</time></trkpt><trkpt lat="44.12129802352965" lon="11.025225349833006"><ele>629.6</ele><time>2026-04-28T10:00:03.842Z</time></trkpt><trkpt lat="44.12120931264324" lon="11.025313378294301"><ele>628.0</ele><time>2026-04-28T10:00:04.842Z</time></trkpt><trkpt lat="44.121120862583396" lon="11.02541267818645"><ele>628.0</ele><time>2026-04-28T10:00:05.842Z</time></trkpt><trkpt lat="44.121033198540665" lon="11.025515382430322"><ele>628.0</ele><time>2026-04-28T10:00:06.842Z</time></trkpt><trkpt lat="44.120947524685604" lon="11.02563374022638"><ele>628.0</ele><time>2026-04-28T10:00:07.842Z</time></trkpt><trkpt lat="44.12086010013117" lon="11.02575127814715"><ele>628.0</ele><time>2026-04-28T10:00:08.842Z</time></trkpt><trkpt lat="44.12075354084136" lon="11.025864085201642"><ele>628.5</ele><time>2026-04-28T10:00:09.842Z</time></trkpt><trkpt lat="44.12065410487826" lon="11.025973141331269"><ele>629.0</ele><time>2026-04-28T10:00:10.842Z</time></trkpt><trkpt lat="44.120565212357235" lon="11.026084574066706"><ele>629.5</ele><time>2026-04-28T10:00:11.842Z</time></trkpt><trkpt lat="44.12047670169117" lon="11.02619158503478"><ele>630.0</ele><time>2026-04-28T10:00:12.842Z</time></trkpt><trkpt lat="44.12038751318802" lon="11.026288792036594"><ele>630.0</ele><time>2026-04-28T10:00:13.842Z</time></trkpt><trkpt lat="44.1202940899285" lon="11.02639008605537"><ele>630.0</ele><time>2026-04-28T10:00:14.842Z</time></trkpt><trkpt lat="44.12020629379078" lon="11.026492650205071"><ele>630.0</ele><time>2026-04-28T10:00:15.842Z</time></trkpt><trkpt lat="44.12011815916099" lon="11.026606506374454"><ele>630.0</ele><time>2026-04-28T10:00:16.842Z</time></trkpt><trkpt lat="44.120027840171076" lon="11.026719220127454"><ele>629.8</ele><time>2026-04-28T10:00:17.842Z</time></trkpt><trkpt lat="44.11994108250221" lon="11.026823968822665"><ele>629.6</ele><time>2026-04-28T10:00:18.842Z</time></trkpt><trkpt lat="44.11986397520588" lon="11.026915467952474"><ele>629.4</ele><time>2026-04-28T10:00:19.842Z</time></trkpt><trkpt lat="44.11979675465642" lon="11.02699662413921"><ele>629.2</ele><time>2026-04-28T10:00:20.842Z</time></trkpt><trkpt lat="44.11972332094317" lon="11.027072233545027"><ele>629.0</ele><time>2026-04-28T10:00:21.842Z</time></trkpt><trkpt lat="44.11965178348979" lon="11.027162892078598"><ele>629.0</ele><time>2026-04-28T10:00:22.842Z</time></trkpt><trkpt lat="44.11957603667968" lon="11.02722546522343"><ele>629.0</ele><time>2026-04-28T10:00:23.842Z</time></trkpt><trkpt lat="44.11951504258277" lon="11.027287176160314"><ele>629.0</ele><time>2026-04-28T10:00:24.842Z</time></trkpt><trkpt lat="44.1195169065462" lon="11.027459357850695"><ele>629.0</ele><time>2026-04-28T10:00:25.842Z</time></trkpt><trkpt lat="44.11946405562992" lon="11.027553817955148"><ele>629.0</ele><time>2026-04-28T10:00:26.842Z</time></trkpt><trkpt lat="44.11938655259381" lon="11.027637949366627"><ele>627.2</ele><time>2026-04-28T10:00:27.842Z</time></trkpt><trkpt lat="44.11931367333973" lon="11.027722735672524"><ele>625.4</ele><time>2026-04-28T10:00:28.842Z</time></trkpt><trkpt lat="44.11923780270206" lon="11.027804806723902"><ele>623.6</ele><time>2026-04-28T10:00:29.842Z</time></trkpt><trkpt lat="44.119174485489374" lon="11.02789561950689"><ele>621.8</ele><time>2026-04-28T10:00:30.842Z</time></trkpt><trkpt lat="44.11912621454816" lon="11.028003771159849"><ele>620.0</ele><time>2026-04-28T10:00:31.842Z</time></trkpt><trkpt lat="44.119081657226914" lon="11.028111483314941"><ele>620.0</ele><time>2026-04-28T10:00:32.842Z</time></trkpt><trkpt lat="44.11907195213911" lon="11.028240311567982"><ele>620.0</ele><time>2026-04-28T10:00:33.842Z</time></trkpt><trkpt lat="44.11908618616251" lon="11.028366583590131"><ele>620.0</ele><time>2026-04-28T10:00:34.842Z</time></trkpt><trkpt lat="44.11911101554874" lon="11.02849191026255"><ele>620.0</ele><time>2026-04-28T10:00:35.842Z</time></trkpt><trkpt lat="44.11916089556449" lon="11.028612913146594"><ele>620.0</ele><time>2026-04-28T10:00:36.842Z</time></trkpt><trkpt lat="44.119239681608384" lon="11.028709295377046"><ele>618.6</ele><time>2026-04-28T10:00:37.842Z</time></trkpt><trkpt lat="44.11931984637376" lon="11.02878008814996"><ele>617.2</ele><time>2026-04-28T10:00:38.842Z</time></trkpt><trkpt lat="44.11940868478897" lon="11.02885023760033"><ele>615.8</ele><time>2026-04-28T10:00:39.842Z</time></trkpt><trkpt lat="44.11951134808742" lon="11.028900916818984"><ele>614.4</ele><time>2026-04-28T10:00:40.842Z</time></trkpt><trkpt lat="44.11962194718" lon="11.02889769726368"><ele>613.0</ele><time>2026-04-28T10:00:41.842Z</time></trkpt><trkpt lat="44.11973245937809" lon="11.02890655970137"><ele>613.0</ele><time>2026-04-28T10:00:42.842Z</time></trkpt><trkpt lat="44.11985650730196" lon="11.02891610683418"><ele>613.0</ele><time>2026-04-28T10:00:43.842Z</time></trkpt><trkpt lat="44.119972964042766" lon="11.028907327436771"><ele>613.0</ele><time>2026-04-28T10:00:44.842Z</time></trkpt><trkpt lat="44.120096349688794" lon="11.028890573315445"><ele>613.0</ele><time>2026-04-28T10:00:45.842Z</time></trkpt><trkpt lat="44.12021676515987" lon="11.028885673850382"><ele>611.1999999999999</ele><time>2026-04-28T10:00:46.842Z</time></trkpt><trkpt lat="44.120333907518265" lon="11.02886772345586"><ele>609.4</ele><time>2026-04-28T10:00:47.842Z</time></trkpt><trkpt lat="44.12045452584221" lon="11.028857002860251"><ele>607.5999999999999</ele><time>2026-04-28T10:00:48.842Z</time></trkpt><trkpt lat="44.12055948112249" lon="11.028851514626716"><ele>605.8</ele><time>2026-04-28T10:00:49.842Z</time></trkpt><trkpt lat="44.12065141576718" lon="11.028866689513112"><ele>604.0</ele><time>2026-04-28T10:00:50.842Z</time></trkpt><trkpt lat="44.12072964472901" lon="11.028915053894112"><ele>602.3333333333334</ele><time>2026-04-28T10:00:51.842Z</time></trkpt><trkpt lat="44.12079073879221" lon="11.028980197955953"><ele>600.6666666666667</ele><time>2026-04-28T10:00:52.842Z</time></trkpt><trkpt lat="44.120805506907196" lon="11.029069559860535"><ele>599.0</ele><time>2026-04-28T10:00:53.842Z</time></trkpt><trkpt lat="44.12079413622977" lon="11.029189899411053"><ele>597.3333333333334</ele><time>2026-04-28T10:00:54.842Z</time></trkpt><trkpt lat="44.12076123279796" lon="11.029314652020886"><ele>595.6666666666666</ele><time>2026-04-28T10:00:55.842Z</time></trkpt><trkpt lat="44.12071196689107" lon="11.029448055289809"><ele>594.0</ele><time>2026-04-28T10:00:56.842Z</time></trkpt><trkpt lat="44.12066104906148" lon="11.029593929014485"><ele>594.0</ele><time>2026-04-28T10:00:57.842Z</time></trkpt><trkpt lat="44.12060538521255" lon="11.029732700762356"><ele>594.0</ele><time>2026-04-28T10:00:58.842Z</time></trkpt><trkpt lat="44.12054030515056" lon="11.029865750490378"><ele>594.0</ele><time>2026-04-28T10:00:59.842Z</time></trkpt><trkpt lat="44.12045832028134" lon="11.029976562075799"><ele>594.0</ele><time>2026-04-28T10:01:00.842Z</time></trkpt><trkpt lat="44.12037097814543" lon="11.0300891068642"><ele>591.0</ele><time>2026-04-28T10:01:01.842Z</time></trkpt><trkpt lat="44.12028758748093" lon="11.030186165212713"><ele>588.0</ele><time>2026-04-28T10:01:02.842Z</time></trkpt><trkpt lat="44.120205965186514" lon="11.030297448482209"><ele>585.0</ele><time>2026-04-28T10:01:03.842Z</time></trkpt><trkpt lat="44.12011868836529" lon="11.030411735298966"><ele>582.0</ele><time>2026-04-28T10:01:04.842Z</time></trkpt><trkpt lat="44.120031424108596" lon="11.030534658788605"><ele>582.0</ele><time>2026-04-28T10:01:05.842Z</time></trkpt><trkpt lat="44.119953768934046" lon="11.030652617207878"><ele>582.0</ele><time>2026-04-28T10:01:06.842Z</time></trkpt><trkpt lat="44.1198819347628" lon="11.03076402573755"><ele>582.0</ele><time>2026-04-28T10:01:07.841Z</time></trkpt><trkpt lat="44.11981556318036" lon="11.030876660829787"><ele>582.0</ele><time>2026-04-28T10:01:08.84Z</time></trkpt><trkpt lat="44.11975778400646" lon="11.031001035549238"><ele>582.0</ele><time>2026-04-28T10:01:09.84Z</time></trkpt><trkpt lat="44.11970513724729" lon="11.031133210223127"><ele>582.6</ele><time>2026-04-28T10:01:10.84Z</time></trkpt><trkpt lat="44.11965625306158" lon="11.031272737907559"><ele>583.2</ele><time>2026-04-28T10:01:11.841Z</time></trkpt><trkpt lat="44.119622247294" lon="11.031405193559364"><ele>583.8</ele><time>2026-04-28T10:01:12.841Z</time></trkpt><trkpt lat="44.11960567780414" lon="11.031534178944248"><ele>584.4</ele><time>2026-04-28T10:01:13.84Z</time></trkpt><trkpt lat="44.11958822226575" lon="11.031680169850963"><ele>585.0</ele><time>2026-04-28T10:01:14.84Z</time></trkpt><trkpt lat="44.11957573312607" lon="11.031840531937723"><ele>585.0</ele><time>2026-04-28T10:01:15.84Z</time></trkpt><trkpt lat="44.11956496353327" lon="11.032001490549268"><ele>585.0</ele><time>2026-04-28T10:01:16.84Z</time></trkpt><trkpt lat="44.11955940301715" lon="11.032133040523618"><ele>585.0</ele><time>2026-04-28T10:01:17.841Z</time></trkpt><trkpt lat="44.1195529617407" lon="11.032272074964135"><ele>585.0</ele><time>2026-04-28T10:01:18.841Z</time></trkpt><trkpt lat="44.11954798362058" lon="11.032398684387012"><ele>585.0</ele><time>2026-04-28T10:01:19.84Z</time></trkpt><trkpt lat="44.119551584406516" lon="11.032541991525228"><ele>582.8</ele><time>2026-04-28T10:01:20.84Z</time></trkpt><trkpt lat="44.11954104478097" lon="11.032666829873554"><ele>580.6</ele><time>2026-04-28T10:01:21.84Z</time></trkpt><trkpt lat="44.11952928514797" lon="11.032784059798653"><ele>578.4</ele><time>2026-04-28T10:01:22.84Z</time></trkpt><trkpt lat="44.119507521089226" lon="11.03291969300409"><ele>576.2</ele><time>2026-04-28T10:01:23.84Z</time></trkpt><trkpt lat="44.1194334466187" lon="11.033042472652983"><ele>574.0</ele><time>2026-04-28T10:01:24.84Z</time></trkpt><trkpt lat="44.11932413456315" lon="11.03311745336491"><ele>574.0</ele><time>2026-04-28T10:01:25.84Z</time></trkpt><trkpt lat="44.11921374093038" lon="11.033171796890002"><ele>574.0</ele><time>2026-04-28T10:01:26.84Z</time></trkpt><trkpt lat="44.119100749175296" lon="11.03322677890321"><ele>574.0</ele><time>2026-04-28T10:01:27.84Z</time></trkpt><trkpt lat="44.118985939597266" lon="11.033280831889723"><ele>574.0</ele><time>2026-04-28T10:01:28.84Z</time></trkpt><trkpt lat="44.11887638185958" lon="11.033332412284038"><ele>572.0</ele><time>2026-04-28T10:01:29.84Z</time></trkpt><trkpt lat="44.118784071641144" lon="11.033373573208285"><ele>570.0</ele><time>2026-04-28T10:01:30.84Z</time></trkpt><trkpt lat="44.11870291414422" lon="11.033409341557853"><ele>568.0</ele><time>2026-04-28T10:01:31.84Z</time></trkpt><trkpt lat="44.118642831405964" lon="11.033440822099598"><ele>566.0</ele><time>2026-04-28T10:01:32.84Z</time></trkpt><trkpt lat="44.11855922550033" lon="11.03354062665518"><ele>564.0</ele><time>2026-04-28T10:01:34.84Z</time></trkpt><trkpt lat="44.11855314961549" lon="11.033693463947873"><ele>564.0</ele><time>2026-04-28T10:01:35.84Z</time></trkpt><trkpt lat="44.11864770499185" lon="11.033837121995361"><ele>564.0</ele><time>2026-04-28T10:01:36.84Z</time></trkpt><trkpt lat="44.11873746289552" lon="11.033910126973488"><ele>564.0</ele><time>2026-04-28T10:01:37.84Z</time></trkpt><trkpt lat="44.11881985494803" lon="11.033976721269932"><ele>564.0</ele><time>2026-04-28T10:01:38.84Z</time></trkpt><trkpt lat="44.118917952480544" lon="11.03406083175619"><ele>560.25</ele><time>2026-04-28T10:01:39.84Z</time></trkpt><trkpt lat="44.11902782308038" lon="11.034161534444001"><ele>556.5</ele><time>2026-04-28T10:01:40.84Z</time></trkpt><trkpt lat="44.11912138192958" lon="11.034251011321581"><ele>552.75</ele><time>2026-04-28T10:01:41.84Z</time></trkpt><trkpt lat="44.11920085775102" lon="11.03433682240713"><ele>549.0</ele><time>2026-04-28T10:01:42.84Z</time></trkpt><trkpt lat="44.11929527853096" lon="11.034443673634607"><ele>548.8</ele><time>2026-04-28T10:01:43.84Z</time></trkpt><trkpt lat="44.11938696498984" lon="11.034525973494144"><ele>548.5999999999999</ele><time>2026-04-28T10:01:44.84Z</time></trkpt><trkpt lat="44.11944604424722" lon="11.03462984639475"><ele>548.4</ele><time>2026-04-28T10:01:45.84Z</time></trkpt><trkpt lat="44.11949503164732" lon="11.034707063439344"><ele>548.1999999999999</ele><time>2026-04-28T10:01:46.84Z</time></trkpt><trkpt lat="44.119540261469616" lon="11.034803039340273"><ele>548.0</ele><time>2026-04-28T10:01:47.84Z</time></trkpt><trkpt lat="44.11955394070273" lon="11.034928505540439"><ele>548.0</ele><time>2026-04-28T10:01:48.84Z</time></trkpt><trkpt lat="44.11950378939172" lon="11.035058845207498"><ele>548.0</ele><time>2026-04-28T10:01:49.84Z</time></trkpt><trkpt lat="44.11939414266675" lon="11.035119178260222"><ele>548.0</ele><time>2026-04-28T10:01:50.84Z</time></trkpt><trkpt lat="44.11930215487448" lon="11.035096396723361"><ele>548.0</ele><time>2026-04-28T10:01:51.84Z</time></trkpt><trkpt lat="44.11922218284282" lon="11.035016016887832"><ele>548.0</ele><time>2026-04-28T10:01:52.84Z</time></trkpt><trkpt lat="44.11913640474198" lon="11.034931272635175"><ele>548.25</ele><time>2026-04-28T10:01:53.84Z</time></trkpt><trkpt lat="44.119047290847696" lon="11.034837181932343"><ele>548.5</ele><time>2026-04-28T10:01:54.84Z</time></trkpt><trkpt lat="44.11894982978693" lon="11.034733602420216"><ele>548.75</ele><time>2026-04-28T10:01:55.84Z</time></trkpt><trkpt lat="44.11885632865755" lon="11.034628663153969"><ele>549.0</ele><time>2026-04-28T10:01:56.84Z</time></trkpt><trkpt lat="44.11878042354313" lon="11.034543472515635"><ele>549.0</ele><time>2026-04-28T10:01:57.84Z</time></trkpt><trkpt lat="44.11870769812391" lon="11.034477952522584"><ele>549.0</ele><time>2026-04-28T10:01:58.84Z</time></trkpt><trkpt lat="44.11863411555592" lon="11.034421597343094"><ele>549.0</ele><time>2026-04-28T10:01:59.84Z</time></trkpt><trkpt lat="44.118565114390236" lon="11.034429885115173"><ele>549.0</ele><time>2026-04-28T10:02:00.84Z</time></trkpt><trkpt lat="44.11849629920113" lon="11.034509163252084"><ele>549.0</ele><time>2026-04-28T10:02:01.84Z</time></trkpt><trkpt lat="44.11843706209879" lon="11.034592324491094"><ele>549.0</ele><time>2026-04-28T10:02:02.84Z</time></trkpt><trkpt lat="44.11840455083829" lon="11.034747888901073"><ele>549.0</ele><time>2026-04-28T10:02:03.84Z</time></trkpt><trkpt lat="44.118477972457725" lon="11.034934132504821"><ele>549.0</ele><time>2026-04-28T10:02:04.84Z</time></trkpt><trkpt lat="44.1185504986236" lon="11.03506671348309"><ele>549.0</ele><time>2026-04-28T10:02:05.84Z</time></trkpt><trkpt lat="44.118637986510194" lon="11.035223102004553"><ele>549.0</ele><time>2026-04-28T10:02:06.84Z</time></trkpt><trkpt lat="44.11872607513442" lon="11.035381206307965"><ele>545.25</ele><time>2026-04-28T10:02:07.84Z</time></trkpt><trkpt lat="44.11880991556514" lon="11.035534769501842"><ele>541.5</ele><time>2026-04-28T10:02:08.84Z</time></trkpt><trkpt lat="44.11889509421091" lon="11.035692404280738"><ele>537.75</ele><time>2026-04-28T10:02:09.84Z</time></trkpt><trkpt lat="44.11897909167845" lon="11.035844038805337"><ele>534.0</ele><time>2026-04-28T10:02:10.84Z</time></trkpt><trkpt lat="44.11905137255051" lon="11.036000763513805"><ele>532.5</ele><time>2026-04-28T10:02:11.84Z</time></trkpt><trkpt lat="44.11913488891832" lon="11.036141841279905"><ele>531.0</ele><time>2026-04-28T10:02:12.84Z</time></trkpt><trkpt lat="44.11920728868918" lon="11.036260506785357"><ele>529.5</ele><time>2026-04-28T10:02:13.84Z</time></trkpt><trkpt lat="44.11931444366471" lon="11.036368357375137"><ele>528.0</ele><time>2026-04-28T10:02:14.84Z</time></trkpt><trkpt lat="44.11941263741438" lon="11.036470674021345"><ele>528.0</ele><time>2026-04-28T10:02:15.839Z</time></trkpt><trkpt lat="44.11955466891886" lon="11.036531346944017"><ele>528.0</ele><time>2026-04-28T10:02:16.839Z</time></trkpt><trkpt lat="44.119683449537" lon="11.036601342447392"><ele>528.0</ele><time>2026-04-28T10:02:17.839Z</time></trkpt><trkpt lat="44.11980142095436" lon="11.036678642212419"><ele>528.0</ele><time>2026-04-28T10:02:18.839Z</time></trkpt><trkpt lat="44.11991929872805" lon="11.036781950280668"><ele>525.4</ele><time>2026-04-28T10:02:19.839Z</time></trkpt><trkpt lat="44.12001986593222" lon="11.036897662054875"><ele>522.8</ele><time>2026-04-28T10:02:20.839Z</time></trkpt><trkpt lat="44.12010528851358" lon="11.036992542457607"><ele>520.2</ele><time>2026-04-28T10:02:21.839Z</time></trkpt><trkpt lat="44.12018170165031" lon="11.037051420971784"><ele>517.6</ele><time>2026-04-28T10:02:22.839Z</time></trkpt><trkpt lat="44.120259561514445" lon="11.037064647217127"><ele>515.0</ele><time>2026-04-28T10:02:23.839Z</time></trkpt><trkpt lat="44.12032174566354" lon="11.037049613150458"><ele>515.0</ele><time>2026-04-28T10:02:24.839Z</time></trkpt><trkpt lat="44.12040434141766" lon="11.036977898205048"><ele>515.0</ele><time>2026-04-28T10:02:25.839Z</time></trkpt><trkpt lat="44.120485453358626" lon="11.036877082645832"><ele>515.0</ele><time>2026-04-28T10:02:26.839Z</time></trkpt><trkpt lat="44.12062828923234" lon="11.036801068058605"><ele>515.0</ele><time>2026-04-28T10:02:27.839Z</time></trkpt><trkpt lat="44.120771333730126" lon="11.036732786456747"><ele>514.0</ele><time>2026-04-28T10:02:28.839Z</time></trkpt><trkpt lat="44.120895853328534" lon="11.036678096517273"><ele>513.0</ele><time>2026-04-28T10:02:29.839Z</time></trkpt><trkpt lat="44.12100742477172" lon="11.036647291317786"><ele>512.0</ele><time>2026-04-28T10:02:30.839Z</time></trkpt><trkpt lat="44.121150748524975" lon="11.03660896324039"><ele>511.0</ele><time>2026-04-28T10:02:31.839Z</time></trkpt><trkpt lat="44.12128233660439" lon="11.036584248166276"><ele>512.25</ele><time>2026-04-28T10:02:32.839Z</time></trkpt><trkpt lat="44.12141893960394" lon="11.03658202130147"><ele>513.5</ele><time>2026-04-28T10:02:33.839Z</time></trkpt><trkpt lat="44.12152869629238" lon="11.036583421310652"><ele>514.75</ele><time>2026-04-28T10:02:34.839Z</time></trkpt><trkpt lat="44.12163404679233" lon="11.036594632705427"><ele>516.0</ele><time>2026-04-28T10:02:35.839Z</time></trkpt><trkpt lat="44.1217341262468" lon="11.036527715970296"><ele>516.0</ele><time>2026-04-28T10:02:36.839Z</time></trkpt><trkpt lat="44.121815204524765" lon="11.036411247958057"><ele>516.0</ele><time>2026-04-28T10:02:37.839Z</time></trkpt><trkpt lat="44.1219338172393" lon="11.036298479358564"><ele>516.0</ele><time>2026-04-28T10:02:38.839Z</time></trkpt><trkpt lat="44.12203147016103" lon="11.036147773806457"><ele>516.0</ele><time>2026-04-28T10:02:39.839Z</time></trkpt><trkpt lat="44.12211109647254" lon="11.0359709814996"><ele>516.0</ele><time>2026-04-28T10:02:40.839Z</time></trkpt><trkpt lat="44.12218948862057" lon="11.035807535735756"><ele>516.0</ele><time>2026-04-28T10:02:41.839Z</time></trkpt><trkpt lat="44.12226859154021" lon="11.03567072480117"><ele>516.0</ele><time>2026-04-28T10:02:42.839Z</time></trkpt><trkpt lat="44.12234834122041" lon="11.035552693017292"><ele>516.0</ele><time>2026-04-28T10:02:43.839Z</time></trkpt><trkpt lat="44.122431403554074" lon="11.035436179235809"><ele>513.0</ele><time>2026-04-28T10:02:44.839Z</time></trkpt><trkpt lat="44.12254389471842" lon="11.03534096072361"><ele>510.0</ele><time>2026-04-28T10:02:45.839Z</time></trkpt><trkpt lat="44.12267825225597" lon="11.035257677968726"><ele>507.0</ele><time>2026-04-28T10:02:46.839Z</time></trkpt><trkpt lat="44.12281209486185" lon="11.035168971775846"><ele>504.0</ele><time>2026-04-28T10:02:47.839Z</time></trkpt><trkpt lat="44.12293074099028" lon="11.035107870898221"><ele>504.0</ele><time>2026-04-28T10:02:48.839Z</time></trkpt><trkpt lat="44.12305331777554" lon="11.035017405044165"><ele>504.0</ele><time>2026-04-28T10:02:49.839Z</time></trkpt><trkpt lat="44.12317527545695" lon="11.034911538388357"><ele>504.0</ele><time>2026-04-28T10:02:50.839Z</time></trkpt><trkpt lat="44.12331027786932" lon="11.034803453642127"><ele>504.0</ele><time>2026-04-28T10:02:51.839Z</time></trkpt><trkpt lat="44.12343256806521" lon="11.03467401991531"><ele>504.33333333333337</ele><time>2026-04-28T10:02:52.839Z</time></trkpt><trkpt lat="44.12355540230188" lon="11.034550149060387"><ele>504.6666666666667</ele><time>2026-04-28T10:02:53.839Z</time></trkpt><trkpt lat="44.12369200716261" lon="11.034412098153778"><ele>505.0</ele><time>2026-04-28T10:02:54.839Z</time></trkpt><trkpt lat="44.12380904792373" lon="11.034296519673648"><ele>505.0</ele><time>2026-04-28T10:02:55.839Z</time></trkpt><trkpt lat="44.123929300492556" lon="11.034156833906358"><ele>505.0</ele><time>2026-04-28T10:02:56.839Z</time></trkpt><trkpt lat="44.12403563593769" lon="11.034021211047527"><ele>505.0</ele><time>2026-04-28T10:02:57.839Z</time></trkpt><trkpt lat="44.124142556606515" lon="11.033898834175606"><ele>505.0</ele><time>2026-04-28T10:02:58.839Z</time></trkpt><trkpt lat="44.12426122839645" lon="11.033773274224757"><ele>505.25</ele><time>2026-04-28T10:02:59.839Z</time></trkpt><trkpt lat="44.12437728596682" lon="11.033642198899202"><ele>505.5</ele><time>2026-04-28T10:03:00.839Z</time></trkpt><trkpt lat="44.12449070355124" lon="11.033521289713224"><ele>505.75</ele><time>2026-04-28T10:03:01.839Z</time></trkpt><trkpt lat="44.124593604584994" lon="11.033397552971334"><ele>506.0</ele><time>2026-04-28T10:03:02.839Z</time></trkpt><trkpt lat="44.12468979943552" lon="11.033268737772522"><ele>506.0</ele><time>2026-04-28T10:03:03.839Z</time></trkpt><trkpt lat="44.12476351168693" lon="11.033126402000608"><ele>506.0</ele><time>2026-04-28T10:03:04.839Z</time></trkpt><trkpt lat="44.12483277018072" lon="11.032993196138127"><ele>506.0</ele><time>2026-04-28T10:03:05.839Z</time></trkpt><trkpt lat="44.12487943000791" lon="11.032839658413069"><ele>506.0</ele><time>2026-04-28T10:03:06.839Z</time></trkpt><trkpt lat="44.12490650705597" lon="11.032661267616193"><ele>507.5</ele><time>2026-04-28T10:03:07.839Z</time></trkpt><trkpt lat="44.12490077390606" lon="11.032507011619062"><ele>509.0</ele><time>2026-04-28T10:03:08.839Z</time></trkpt><trkpt lat="44.12487416445332" lon="11.032357713160613"><ele>510.5</ele><time>2026-04-28T10:03:09.839Z</time></trkpt><trkpt lat="44.12491212742971" lon="11.032210894896657"><ele>512.0</ele><time>2026-04-28T10:03:10.839Z</time></trkpt><trkpt lat="44.124973858501974" lon="11.032071648522981"><ele>510.25</ele><time>2026-04-28T10:03:11.839Z</time></trkpt><trkpt lat="44.12509612063218" lon="11.031983482486664"><ele>508.5</ele><time>2026-04-28T10:03:12.838Z</time></trkpt><trkpt lat="44.125226303692706" lon="11.031878517997432"><ele>506.75</ele><time>2026-04-28T10:03:13.838Z</time></trkpt><trkpt lat="44.125355230598174" lon="11.031748198073146"><ele>505.0</ele><time>2026-04-28T10:03:14.838Z</time></trkpt><trkpt lat="44.12549072532197" lon="11.031631010204222"><ele>505.0</ele><time>2026-04-28T10:03:15.837Z</time></trkpt><trkpt lat="44.12561896875929" lon="11.031517051833386"><ele>505.0</ele><time>2026-04-28T10:03:16.837Z</time></trkpt><trkpt lat="44.125750449369775" lon="11.03142859846776"><ele>505.0</ele><time>2026-04-28T10:03:17.837Z</time></trkpt><trkpt lat="44.1258536795794" lon="11.031316706101826"><ele>505.0</ele><time>2026-04-28T10:03:18.837Z</time></trkpt><trkpt lat="44.12596689504017" lon="11.031243827384252"><ele>504.0</ele><time>2026-04-28T10:03:19.837Z</time></trkpt><trkpt lat="44.12610839192496" lon="11.03118224779631"><ele>503.0</ele><time>2026-04-28T10:03:20.837Z</time></trkpt><trkpt lat="44.126258055436956" lon="11.031143192124595"><ele>502.0</ele><time>2026-04-28T10:03:21.838Z</time></trkpt><trkpt lat="44.126375689750446" lon="11.031085835655459"><ele>501.0</ele><time>2026-04-28T10:03:22.837Z</time></trkpt><trkpt lat="44.1264723362361" lon="11.031045199952512"><ele>498.5</ele><time>2026-04-28T10:03:23.837Z</time></trkpt><trkpt lat="44.12658093041929" lon="11.031006588054375"><ele>496.0</ele><time>2026-04-28T10:03:24.837Z</time></trkpt><trkpt lat="44.126698658367424" lon="11.031013347496586"><ele>493.5</ele><time>2026-04-28T10:03:25.837Z</time></trkpt><trkpt lat="44.12682010176048" lon="11.03106879915987"><ele>491.0</ele><time>2026-04-28T10:03:26.837Z</time></trkpt><trkpt lat="44.126944125202066" lon="11.031190397116841"><ele>491.0</ele><time>2026-04-28T10:03:27.837Z</time></trkpt><trkpt lat="44.127085459879005" lon="11.03126316192879"><ele>491.0</ele><time>2026-04-28T10:03:28.837Z</time></trkpt><trkpt lat="44.12721726321847" lon="11.031363497816729"><ele>491.0</ele><time>2026-04-28T10:03:29.837Z</time></trkpt><trkpt lat="44.12736492133577" lon="11.031403900190305"><ele>490.0</ele><time>2026-04-28T10:03:30.837Z</time></trkpt><trkpt lat="44.12750607933657" lon="11.031435823140017"><ele>489.0</ele><time>2026-04-28T10:03:31.837Z</time></trkpt><trkpt lat="44.127682621498664" lon="11.031444491935748"><ele>488.0</ele><time>2026-04-28T10:03:32.837Z</time></trkpt><trkpt lat="44.12784037141882" lon="11.03145493347074"><ele>488.0</ele><time>2026-04-28T10:03:33.837Z</time></trkpt><trkpt lat="44.12799309005747" lon="11.031458158556054"><ele>488.0</ele><time>2026-04-28T10:03:34.837Z</time></trkpt><trkpt lat="44.128139385760726" lon="11.03142526484568"><ele>488.0</ele><time>2026-04-28T10:03:35.837Z</time></trkpt><trkpt lat="44.12828156935353" lon="11.03143909338037"><ele>488.0</ele><time>2026-04-28T10:03:36.837Z</time></trkpt><trkpt lat="44.1284286266138" lon="11.031376442996732"><ele>488.0</ele><time>2026-04-28T10:03:37.837Z</time></trkpt><trkpt lat="44.128547954328006" lon="11.031289305510365"><ele>487.99999999999994</ele><time>2026-04-28T10:03:38.837Z</time></trkpt><trkpt lat="44.12864713764733" lon="11.031220733265503"><ele>487.99999999999994</ele><time>2026-04-28T10:03:39.837Z</time></trkpt><trkpt lat="44.128751251062695" lon="11.031230541998443"><ele>488.0</ele><time>2026-04-28T10:03:40.837Z</time></trkpt><trkpt lat="44.12882433758224" lon="11.031279097456665"><ele>488.0</ele><time>2026-04-28T10:03:41.837Z</time></trkpt><trkpt lat="44.12891447662708" lon="11.031365323814484"><ele>488.0</ele><time>2026-04-28T10:03:42.837Z</time></trkpt><trkpt lat="44.128952781327996" lon="11.03148987550684"><ele>488.0</ele><time>2026-04-28T10:03:43.837Z</time></trkpt><trkpt lat="44.12896599602944" lon="11.03166081332469"><ele>488.0</ele><time>2026-04-28T10:03:44.837Z</time></trkpt><trkpt lat="44.1289691919618" lon="11.0318390174394"><ele>488.0</ele><time>2026-04-28T10:03:45.837Z</time></trkpt><trkpt lat="44.12897365359689" lon="11.03202705090764"><ele>487.0</ele><time>2026-04-28T10:03:46.837Z</time></trkpt><trkpt lat="44.12898664131716" lon="11.032222339955723"><ele>486.0</ele><time>2026-04-28T10:03:47.837Z</time></trkpt><trkpt lat="44.12901347930847" lon="11.032413239348022"><ele>485.0</ele><time>2026-04-28T10:03:48.837Z</time></trkpt><trkpt lat="44.12905077148856" lon="11.032612378279236"><ele>484.0</ele><time>2026-04-28T10:03:49.837Z</time></trkpt><trkpt lat="44.12911444479841" lon="11.032808250084992"><ele>484.0</ele><time>2026-04-28T10:03:50.837Z</time></trkpt><trkpt lat="44.129180796748415" lon="11.032976190208732"><ele>484.0</ele><time>2026-04-28T10:03:51.837Z</time></trkpt><trkpt lat="44.12924764980832" lon="11.033141013966347"><ele>484.0</ele><time>2026-04-28T10:03:52.837Z</time></trkpt><trkpt lat="44.12931225168836" lon="11.033303285343155"><ele>484.0</ele><time>2026-04-28T10:03:53.837Z</time></trkpt><trkpt lat="44.12938168649335" lon="11.033437117451417"><ele>482.5</ele><time>2026-04-28T10:03:54.837Z</time></trkpt><trkpt lat="44.12946426248439" lon="11.033568239720621"><ele>481.0</ele><time>2026-04-28T10:03:55.837Z</time></trkpt><trkpt lat="44.129594083390614" lon="11.033689640343693"><ele>479.5</ele><time>2026-04-28T10:03:56.837Z</time></trkpt><trkpt lat="44.12973273364916" lon="11.033788783675273"><ele>478.0</ele><time>2026-04-28T10:03:57.837Z</time></trkpt><trkpt lat="44.12986510180889" lon="11.03389768108717"><ele>479.0</ele><time>2026-04-28T10:03:58.837Z</time></trkpt><trkpt lat="44.12996503331611" lon="11.034059084688892"><ele>480.0</ele><time>2026-04-28T10:03:59.837Z</time></trkpt><trkpt lat="44.13004150155798" lon="11.034233938751045"><ele>481.0</ele><time>2026-04-28T10:04:00.837Z</time></trkpt><trkpt lat="44.13009758414441" lon="11.03443113341645"><ele>481.0</ele><time>2026-04-28T10:04:01.837Z</time></trkpt><trkpt lat="44.13014638228089" lon="11.0346305714108"><ele>481.0</ele><time>2026-04-28T10:04:02.837Z</time></trkpt><trkpt lat="44.13019894969433" lon="11.034779540734897"><ele>481.0</ele><time>2026-04-28T10:04:03.837Z</time></trkpt><trkpt lat="44.130276120076324" lon="11.034890561601074"><ele>481.0</ele><time>2026-04-28T10:04:04.837Z</time></trkpt><trkpt lat="44.13037420882788" lon="11.0349628868429"><ele>480.75</ele><time>2026-04-28T10:04:05.837Z</time></trkpt><trkpt lat="44.13048057831128" lon="11.035053779405295"><ele>480.5</ele><time>2026-04-28T10:04:06.837Z</time></trkpt><trkpt lat="44.13060740704239" lon="11.035059403555286"><ele>480.25</ele><time>2026-04-28T10:04:07.837Z</time></trkpt><trkpt lat="44.13072447800853" lon="11.035019693801665"><ele>480.0</ele><time>2026-04-28T10:04:08.837Z</time></trkpt><trkpt lat="44.130824574871646" lon="11.034934408550086"><ele>482.25</ele><time>2026-04-28T10:04:09.837Z</time></trkpt><trkpt lat="44.13095051199567" lon="11.034888265529045"><ele>484.5</ele><time>2026-04-28T10:04:10.837Z</time></trkpt><trkpt lat="44.131075669814926" lon="11.034869648547327"><ele>486.75</ele><time>2026-04-28T10:04:11.837Z</time></trkpt><trkpt lat="44.131197907073215" lon="11.034880000296898"><ele>489.0</ele><time>2026-04-28T10:04:12.837Z</time></trkpt><trkpt lat="44.131318062836044" lon="11.034928887511919"><ele>486.75</ele><time>2026-04-28T10:04:13.837Z</time></trkpt><trkpt lat="44.131432634056665" lon="11.034996717666635"><ele>484.5</ele><time>2026-04-28T10:04:14.837Z</time></trkpt><trkpt lat="44.13154344167681" lon="11.0350758445689"><ele>482.25</ele><time>2026-04-28T10:04:15.837Z</time></trkpt><trkpt lat="44.131642860406444" lon="11.035169375609039"><ele>480.0</ele><time>2026-04-28T10:04:16.837Z</time></trkpt><trkpt lat="44.131739289890625" lon="11.035267238932688"><ele>479.2</ele><time>2026-04-28T10:04:17.837Z</time></trkpt><trkpt lat="44.13182857284375" lon="11.035365151910488"><ele>478.4</ele><time>2026-04-28T10:04:18.837Z</time></trkpt><trkpt lat="44.13190410562794" lon="11.035456310759333"><ele>477.6</ele><time>2026-04-28T10:04:19.837Z</time></trkpt><trkpt lat="44.13198342043201" lon="11.035555433651453"><ele>476.8</ele><time>2026-04-28T10:04:20.837Z</time></trkpt><trkpt lat="44.1320686382417" lon="11.035670741060105"><ele>476.0</ele><time>2026-04-28T10:04:21.837Z</time></trkpt><trkpt lat="44.132149148914536" lon="11.035788983062176"><ele>474.0</ele><time>2026-04-28T10:04:22.837Z</time></trkpt><trkpt lat="44.13222848683226" lon="11.035941433968462"><ele>472.0</ele><time>2026-04-28T10:04:23.837Z</time></trkpt><trkpt lat="44.13230418707946" lon="11.036080957357077"><ele>470.0</ele><time>2026-04-28T10:04:24.837Z</time></trkpt><trkpt lat="44.132376609216394" lon="11.036237382260381"><ele>468.0</ele><time>2026-04-28T10:04:25.837Z</time></trkpt><trkpt lat="44.13244359153688" lon="11.036376596648093"><ele>470.5</ele><time>2026-04-28T10:04:26.837Z</time></trkpt><trkpt lat="44.132518853839706" lon="11.036520339703513"><ele>473.0</ele><time>2026-04-28T10:04:27.837Z</time></trkpt><trkpt lat="44.13258057684643" lon="11.036664803276292"><ele>475.5</ele><time>2026-04-28T10:04:28.837Z</time></trkpt><trkpt lat="44.13266577114242" lon="11.036789988951625"><ele>478.0</ele><time>2026-04-28T10:04:29.837Z</time></trkpt><trkpt lat="44.13274538166131" lon="11.036936611874594"><ele>478.0</ele><time>2026-04-28T10:04:30.837Z</time></trkpt><trkpt lat="44.13281212111867" lon="11.037088077619348"><ele>478.0</ele><time>2026-04-28T10:04:31.837Z</time></trkpt><trkpt lat="44.13288032656566" lon="11.03722844948528"><ele>478.0</ele><time>2026-04-28T10:04:32.837Z</time></trkpt><trkpt lat="44.13294646001052" lon="11.03735086306585"><ele>478.0</ele><time>2026-04-28T10:04:33.837Z</time></trkpt><trkpt lat="44.13299780597424" lon="11.037465428171991"><ele>476.33333333333337</ele><time>2026-04-28T10:04:34.837Z</time></trkpt><trkpt lat="44.13304945939305" lon="11.037565851637554"><ele>474.6666666666667</ele><time>2026-04-28T10:04:35.837Z</time></trkpt><trkpt lat="44.133088198336054" lon="11.037642309041376"><ele>473.0</ele><time>2026-04-28T10:04:36.837Z</time></trkpt><trkpt lat="44.133144334962566" lon="11.037754214484394"><ele>471.33333333333337</ele><time>2026-04-28T10:04:38.837Z</time></trkpt><trkpt lat="44.133197269031776" lon="11.037863885439576"><ele>469.6666666666667</ele><time>2026-04-28T10:04:41.837Z</time></trkpt><trkpt lat="44.13325301241627" lon="11.037917512046281"><ele>468.0</ele><time>2026-04-28T10:04:52.837Z</time></trkpt><trkpt lat="44.13328901473544" lon="11.03800409910932"><ele>469.0</ele><time>2026-04-28T10:04:56.837Z</time></trkpt><trkpt lat="44.133326103462714" lon="11.038085527684672"><ele>470.00000000000006</ele><time>2026-04-28T10:05:00.837Z</time></trkpt><trkpt lat="44.13336526013985" lon="11.03817391519646"><ele>471.0</ele><time>2026-04-28T10:05:03.837Z</time></trkpt><trkpt lat="44.1334091984945" lon="11.038240774054474"><ele>472.0</ele><time>2026-04-28T10:05:27.836Z</time></trkpt><trkpt lat="44.133470812844216" lon="11.03830606216824"><ele>473.00000000000006</ele><time>2026-04-28T10:05:51.836Z</time></trkpt><trkpt lat="44.133510528504345" lon="11.0383861072912"><ele>474.0</ele><time>2026-04-28T10:06:10.836Z</time></trkpt><trkpt lat="44.133541151709785" lon="11.038473140803262"><ele>475.0</ele><time>2026-04-28T10:06:46.871Z</time></trkpt><trkpt lat="44.13366320561262" lon="11.038602546673236"><ele>475.00000000000006</ele><time>2026-04-28T10:16:54.876Z</time></trkpt><trkpt lat="44.133730076227124" lon="11.038682307039677"><ele>475.0</ele><time>2026-04-28T10:16:55.876Z</time></trkpt><trkpt lat="44.13379477074587" lon="11.038751231089275"><ele>475.0</ele><time>2026-04-28T10:16:56.876Z</time></trkpt><trkpt lat="44.13385722548566" lon="11.038808920147526"><ele>475.0</ele><time>2026-04-28T10:16:57.876Z</time></trkpt><trkpt lat="44.13393308680737" lon="11.038863308871559"><ele>475.00000000000006</ele><time>2026-04-28T10:16:58.876Z</time></trkpt><trkpt lat="44.133994286214346" lon="11.03889628806839"><ele>475.0</ele><time>2026-04-28T10:16:59.876Z</time></trkpt><trkpt lat="44.13405524745964" lon="11.038921661491957"><ele>474.8</ele><time>2026-04-28T10:17:00.876Z</time></trkpt><trkpt lat="44.13414001045232" lon="11.03896641759123"><ele>474.6</ele><time>2026-04-28T10:17:02.876Z</time></trkpt><trkpt lat="44.13419360931474" lon="11.039014068087816"><ele>474.4</ele><time>2026-04-28T10:17:04.876Z</time></trkpt><trkpt lat="44.1343361942934" lon="11.038931522173964"><ele>474.2</ele><time>2026-04-28T10:17:06.876Z</time></trkpt><trkpt lat="44.134390378407694" lon="11.038875183910553"><ele>474.0</ele><time>2026-04-28T10:17:07.876Z</time></trkpt><trkpt lat="44.13445771453098" lon="11.03881604133592"><ele>474.0</ele><time>2026-04-28T10:17:08.876Z</time></trkpt><trkpt lat="44.134523142130696" lon="11.038768746192831"><ele>474.0</ele><time>2026-04-28T10:17:09.876Z</time></trkpt><trkpt lat="44.134589685783936" lon="11.038728828941162"><ele>474.0</ele><time>2026-04-28T10:17:10.876Z</time></trkpt><trkpt lat="44.13465356216905" lon="11.038682793275612"><ele>474.0</ele><time>2026-04-28T10:17:11.876Z</time></trkpt><trkpt lat="44.13471518004406" lon="11.038617404724706"><ele>474.0</ele><time>2026-04-28T10:17:12.876Z</time></trkpt><trkpt lat="44.13476208771459" lon="11.038529891495568"><ele>474.0</ele><time>2026-04-28T10:17:13.876Z</time></trkpt><trkpt lat="44.134794813771926" lon="11.038414813409945"><ele>477.79999999999995</ele><time>2026-04-28T10:17:14.876Z</time></trkpt><trkpt lat="44.134812528979154" lon="11.03827736162681"><ele>481.59999999999997</ele><time>2026-04-28T10:17:15.876Z</time></trkpt><trkpt lat="44.13481697377525" lon="11.038135728087317"><ele>485.4</ele><time>2026-04-28T10:17:16.876Z</time></trkpt><trkpt lat="44.13482520398185" lon="11.0380029916774"><ele>489.2</ele><time>2026-04-28T10:17:17.876Z</time></trkpt><trkpt lat="44.13483819061403" lon="11.037875509616269"><ele>493.0</ele><time>2026-04-28T10:17:18.876Z</time></trkpt><trkpt lat="44.13486401706841" lon="11.037759568073701"><ele>488.2</ele><time>2026-04-28T10:17:19.876Z</time></trkpt><trkpt lat="44.13491457913943" lon="11.037654081546048"><ele>483.4</ele><time>2026-04-28T10:17:20.876Z</time></trkpt><trkpt lat="44.134991013694346" lon="11.03758735875835"><ele>478.59999999999997</ele><time>2026-04-28T10:17:21.876Z</time></trkpt><trkpt lat="44.13508341147991" lon="11.037549523142312"><ele>473.79999999999995</ele><time>2026-04-28T10:17:22.876Z</time></trkpt><trkpt lat="44.13517623115311" lon="11.03755665761927"><ele>469.0</ele><time>2026-04-28T10:17:23.876Z</time></trkpt><trkpt lat="44.135255761373344" lon="11.037571036755216"><ele>469.0</ele><time>2026-04-28T10:17:24.876Z</time></trkpt><trkpt lat="44.135334509404665" lon="11.037577256366234"><ele>469.0</ele><time>2026-04-28T10:17:25.876Z</time></trkpt><trkpt lat="44.13541283571904" lon="11.037539126336485"><ele>469.0</ele><time>2026-04-28T10:17:26.876Z</time></trkpt><trkpt lat="44.13548557208612" lon="11.037481808251037"><ele>469.0</ele><time>2026-04-28T10:17:27.876Z</time></trkpt><trkpt lat="44.135544955326" lon="11.037377314600594"><ele>469.0</ele><time>2026-04-28T10:17:28.876Z</time></trkpt><trkpt lat="44.13560143910057" lon="11.037231459506893"><ele>468.79999999999995</ele><time>2026-04-28T10:17:29.876Z</time></trkpt><trkpt lat="44.135663774060234" lon="11.037099568808989"><ele>468.59999999999997</ele><time>2026-04-28T10:17:30.876Z</time></trkpt><trkpt lat="44.13574073527839" lon="11.036999408280982"><ele>468.4</ele><time>2026-04-28T10:17:31.876Z</time></trkpt><trkpt lat="44.13582854362703" lon="11.036914012117878"><ele>468.2</ele><time>2026-04-28T10:17:32.876Z</time></trkpt><trkpt lat="44.135929849021636" lon="11.036840893708872"><ele>468.0</ele><time>2026-04-28T10:17:33.876Z</time></trkpt><trkpt lat="44.136033321857724" lon="11.036780384354874"><ele>468.0</ele><time>2026-04-28T10:17:34.876Z</time></trkpt><trkpt lat="44.13612279161016" lon="11.036724214921218"><ele>467.99999999999994</ele><time>2026-04-28T10:17:35.876Z</time></trkpt><trkpt lat="44.136222536339" lon="11.036691673364448"><ele>467.99999999999994</ele><time>2026-04-28T10:17:36.876Z</time></trkpt><trkpt lat="44.13632496719814" lon="11.036683290373714"><ele>468.0</ele><time>2026-04-28T10:17:37.876Z</time></trkpt><trkpt lat="44.13642226489224" lon="11.03671140724283"><ele>468.0</ele><time>2026-04-28T10:17:38.876Z</time></trkpt><trkpt lat="44.13652370630367" lon="11.036756169630532"><ele>466.25</ele><time>2026-04-28T10:17:39.877Z</time></trkpt><trkpt lat="44.13663930122563" lon="11.036794290883876"><ele>464.5</ele><time>2026-04-28T10:17:40.877Z</time></trkpt><trkpt lat="44.13675982823366" lon="11.03684889819078"><ele>462.75</ele><time>2026-04-28T10:17:41.877Z</time></trkpt><trkpt lat="44.13687921842885" lon="11.036921613270483"><ele>461.0</ele><time>2026-04-28T10:17:42.877Z</time></trkpt><trkpt lat="44.13699523098061" lon="11.036997207350273"><ele>461.0</ele><time>2026-04-28T10:17:43.877Z</time></trkpt><trkpt lat="44.137102275520775" lon="11.037080781632083"><ele>461.0</ele><time>2026-04-28T10:17:44.877Z</time></trkpt><trkpt lat="44.13720591001583" lon="11.037164939951438"><ele>461.0</ele><time>2026-04-28T10:17:45.877Z</time></trkpt><trkpt lat="44.13728910499343" lon="11.037258040596864"><ele>461.0</ele><time>2026-04-28T10:17:46.877Z</time></trkpt><trkpt lat="44.13738077148312" lon="11.037340034267"><ele>462.20000000000005</ele><time>2026-04-28T10:17:47.877Z</time></trkpt><trkpt lat="44.13748888322055" lon="11.03737846925338"><ele>463.40000000000003</ele><time>2026-04-28T10:17:48.877Z</time></trkpt><trkpt lat="44.137584044226855" lon="11.037419624301757"><ele>464.6</ele><time>2026-04-28T10:17:49.877Z</time></trkpt><trkpt lat="44.13767889948076" lon="11.037457712619357"><ele>465.8</ele><time>2026-04-28T10:17:50.877Z</time></trkpt><trkpt lat="44.13776206026384" lon="11.037526907353271"><ele>467.0</ele><time>2026-04-28T10:17:51.877Z</time></trkpt><trkpt lat="44.13781911578254" lon="11.037633610278789"><ele>462.40000000000003</ele><time>2026-04-28T10:17:52.877Z</time></trkpt><trkpt lat="44.13787082090311" lon="11.037773850749296"><ele>457.80000000000007</ele><time>2026-04-28T10:17:53.876Z</time></trkpt><trkpt lat="44.137905148883064" lon="11.037915547212158"><ele>453.2</ele><time>2026-04-28T10:17:54.876Z</time></trkpt><trkpt lat="44.13794693524389" lon="11.038033676211272"><ele>448.6</ele><time>2026-04-28T10:17:55.876Z</time></trkpt><trkpt lat="44.13800443424641" lon="11.038117402797502"><ele>444.0</ele><time>2026-04-28T10:17:56.876Z</time></trkpt><trkpt lat="44.138066790554774" lon="11.03818637946902"><ele>444.0</ele><time>2026-04-28T10:17:57.876Z</time></trkpt><trkpt lat="44.138156808609445" lon="11.038211437539614"><ele>444.0</ele><time>2026-04-28T10:17:58.876Z</time></trkpt><trkpt lat="44.1382474717021" lon="11.038171659779401"><ele>444.0</ele><time>2026-04-28T10:17:59.876Z</time></trkpt><trkpt lat="44.13833508196841" lon="11.038059317360636"><ele>444.0</ele><time>2026-04-28T10:18:00.876Z</time></trkpt><trkpt lat="44.13842321366709" lon="11.037939249950918"><ele>444.0</ele><time>2026-04-28T10:18:01.876Z</time></trkpt><trkpt lat="44.13851882524887" lon="11.03781038214324"><ele>442.75</ele><time>2026-04-28T10:18:02.876Z</time></trkpt><trkpt lat="44.13861900780045" lon="11.037675908900757"><ele>441.5</ele><time>2026-04-28T10:18:03.876Z</time></trkpt><trkpt lat="44.138711619543976" lon="11.037552103634297"><ele>440.25</ele><time>2026-04-28T10:18:04.876Z</time></trkpt><trkpt lat="44.13878731204271" lon="11.03741820688375"><ele>439.0</ele><time>2026-04-28T10:18:05.875Z</time></trkpt><trkpt lat="44.138882998021636" lon="11.037351580521568"><ele>439.6</ele><time>2026-04-28T10:18:06.875Z</time></trkpt><trkpt lat="44.13898252645289" lon="11.037349350731507"><ele>440.2</ele><time>2026-04-28T10:18:07.875Z</time></trkpt><trkpt lat="44.13908088882946" lon="11.037393287451964"><ele>440.80000000000007</ele><time>2026-04-28T10:18:08.875Z</time></trkpt><trkpt lat="44.13916326791146" lon="11.03748782813519"><ele>441.40000000000003</ele><time>2026-04-28T10:18:09.875Z</time></trkpt><trkpt lat="44.13925009323579" lon="11.037596248979327"><ele>442.0</ele><time>2026-04-28T10:18:10.875Z</time></trkpt><trkpt lat="44.139347164117176" lon="11.037685974551659"><ele>438.75</ele><time>2026-04-28T10:18:11.875Z</time></trkpt><trkpt lat="44.139458596241106" lon="11.037750596135849"><ele>435.5</ele><time>2026-04-28T10:18:12.875Z</time></trkpt><trkpt lat="44.139570604508904" lon="11.037796412067392"><ele>432.25</ele><time>2026-04-28T10:18:13.875Z</time></trkpt><trkpt lat="44.13968123570626" lon="11.037833855699066"><ele>429.0</ele><time>2026-04-28T10:18:14.875Z</time></trkpt><trkpt lat="44.13979844807572" lon="11.037861627551012"><ele>428.25</ele><time>2026-04-28T10:18:15.875Z</time></trkpt><trkpt lat="44.13991096990376" lon="11.037857246006006"><ele>427.5</ele><time>2026-04-28T10:18:16.875Z</time></trkpt><trkpt lat="44.140020373787365" lon="11.0378122310318"><ele>426.75</ele><time>2026-04-28T10:18:17.875Z</time></trkpt><trkpt lat="44.140126903518535" lon="11.037748402946281"><ele>426.0</ele><time>2026-04-28T10:18:18.875Z</time></trkpt><trkpt lat="44.140229543757705" lon="11.037674637479272"><ele>426.0</ele><time>2026-04-28T10:18:19.875Z</time></trkpt><trkpt lat="44.14032997304195" lon="11.037601676295274"><ele>426.0</ele><time>2026-04-28T10:18:20.875Z</time></trkpt><trkpt lat="44.140432024313945" lon="11.03757625782549"><ele>426.0</ele><time>2026-04-28T10:18:21.875Z</time></trkpt><trkpt lat="44.14050032441848" lon="11.037509169248692"><ele>426.0</ele><time>2026-04-28T10:18:22.875Z</time></trkpt><trkpt lat="44.14056926540572" lon="11.03751269958958"><ele>426.0</ele><time>2026-04-28T10:18:23.875Z</time></trkpt><trkpt lat="44.140626464084235" lon="11.037560363465838"><ele>426.0</ele><time>2026-04-28T10:18:24.875Z</time></trkpt><trkpt lat="44.14065205885478" lon="11.037641831546557"><ele>426.0</ele><time>2026-04-28T10:18:25.875Z</time></trkpt><trkpt lat="44.140641836212545" lon="11.037762052041826"><ele>426.0</ele><time>2026-04-28T10:18:26.876Z</time></trkpt><trkpt lat="44.14061038336454" lon="11.03789368945742"><ele>426.0</ele><time>2026-04-28T10:18:27.876Z</time></trkpt><trkpt lat="44.14055904389858" lon="11.038042462344059"><ele>426.0</ele><time>2026-04-28T10:18:28.876Z</time></trkpt><trkpt lat="44.14051213508786" lon="11.038193727813088"><ele>426.0</ele><time>2026-04-28T10:18:29.876Z</time></trkpt><trkpt lat="44.14047726589423" lon="11.038346592063613"><ele>423.4</ele><time>2026-04-28T10:18:30.876Z</time></trkpt><trkpt lat="44.140457923700474" lon="11.038497828376219"><ele>420.8</ele><time>2026-04-28T10:18:31.876Z</time></trkpt><trkpt lat="44.14045017546262" lon="11.038645994784257"><ele>418.2</ele><time>2026-04-28T10:18:32.876Z</time></trkpt><trkpt lat="44.14044851957349" lon="11.038788737768815"><ele>415.59999999999997</ele><time>2026-04-28T10:18:33.876Z</time></trkpt><trkpt lat="44.14045409134033" lon="11.038924467336182"><ele>413.0</ele><time>2026-04-28T10:18:34.876Z</time></trkpt><trkpt lat="44.140459882383354" lon="11.039047093225054"><ele>411.8333333333333</ele><time>2026-04-28T10:18:35.876Z</time></trkpt><trkpt lat="44.14046989031628" lon="11.039166125725595"><ele>410.66666666666663</ele><time>2026-04-28T10:18:36.876Z</time></trkpt><trkpt lat="44.1404979348424" lon="11.039273954724768"><ele>409.5</ele><time>2026-04-28T10:18:37.876Z</time></trkpt><trkpt lat="44.14054909842975" lon="11.03935979747238"><ele>408.33333333333337</ele><time>2026-04-28T10:18:38.876Z</time></trkpt><trkpt lat="44.140601660641245" lon="11.039440967382955"><ele>407.1666666666667</ele><time>2026-04-28T10:18:39.876Z</time></trkpt><trkpt lat="44.14068301728113" lon="11.039471543700166"><ele>406.0</ele><time>2026-04-28T10:18:40.876Z</time></trkpt><trkpt lat="44.14077597824389" lon="11.039465809020761"><ele>405.6</ele><time>2026-04-28T10:18:41.876Z</time></trkpt><trkpt lat="44.140871056475476" lon="11.039395448190023"><ele>405.20000000000005</ele><time>2026-04-28T10:18:42.876Z</time></trkpt><trkpt lat="44.140963347943384" lon="11.039301694401198"><ele>404.79999999999995</ele><time>2026-04-28T10:18:43.876Z</time></trkpt><trkpt lat="44.141058360572906" lon="11.03920594200895"><ele>404.4</ele><time>2026-04-28T10:18:44.876Z</time></trkpt><trkpt lat="44.14115452218589" lon="11.03915016337618"><ele>404.0</ele><time>2026-04-28T10:18:45.876Z</time></trkpt><trkpt lat="44.141246046421344" lon="11.03916011976076"><ele>404.0</ele><time>2026-04-28T10:18:46.876Z</time></trkpt><trkpt lat="44.1413473974012" lon="11.039165218288376"><ele>404.0</ele><time>2026-04-28T10:18:47.876Z</time></trkpt><trkpt lat="44.14144539118135" lon="11.039169408712326"><ele>404.0</ele><time>2026-04-28T10:18:48.876Z</time></trkpt><trkpt lat="44.14153410170785" lon="11.039167442957277"><ele>404.0</ele><time>2026-04-28T10:18:49.876Z</time></trkpt><trkpt lat="44.14161469578037" lon="11.03914220681889"><ele>404.0</ele><time>2026-04-28T10:18:50.876Z</time></trkpt><trkpt lat="44.141691060502545" lon="11.039086038656944"><ele>401.75</ele><time>2026-04-28T10:18:51.876Z</time></trkpt><trkpt lat="44.14174141906901" lon="11.038959915065133"><ele>399.5</ele><time>2026-04-28T10:18:52.876Z</time></trkpt><trkpt lat="44.14173530938622" lon="11.038800972559773"><ele>397.25</ele><time>2026-04-28T10:18:53.876Z</time></trkpt><trkpt lat="44.141679845678134" lon="11.038646232161245"><ele>395.0</ele><time>2026-04-28T10:18:54.876Z</time></trkpt><trkpt lat="44.14164802691276" lon="11.038474025135017"><ele>396.0</ele><time>2026-04-28T10:18:55.876Z</time></trkpt><trkpt lat="44.14164372843236" lon="11.038298800635452"><ele>397.0</ele><time>2026-04-28T10:18:56.876Z</time></trkpt><trkpt lat="44.141660897143964" lon="11.038136452033173"><ele>398.0</ele><time>2026-04-28T10:18:57.876Z</time></trkpt><trkpt lat="44.141699131889396" lon="11.03801224253432"><ele>399.0</ele><time>2026-04-28T10:18:58.876Z</time></trkpt><trkpt lat="44.14176311158675" lon="11.037908377491451"><ele>400.0</ele><time>2026-04-28T10:18:59.876Z</time></trkpt><trkpt lat="44.14185235701684" lon="11.037832813507311"><ele>400.0</ele><time>2026-04-28T10:19:00.876Z</time></trkpt><trkpt lat="44.14196969216106" lon="11.037804110415012"><ele>400.0</ele><time>2026-04-28T10:19:01.876Z</time></trkpt><trkpt lat="44.14209840651884" lon="11.037800206186095"><ele>400.0</ele><time>2026-04-28T10:19:02.876Z</time></trkpt><trkpt lat="44.14223614530799" lon="11.03779277945663"><ele>400.0</ele><time>2026-04-28T10:19:03.876Z</time></trkpt><trkpt lat="44.142356134466034" lon="11.037789250041742"><ele>399.4</ele><time>2026-04-28T10:19:04.876Z</time></trkpt><trkpt lat="44.14246651959402" lon="11.037791032377163"><ele>398.8</ele><time>2026-04-28T10:19:05.876Z</time></trkpt><trkpt lat="44.14256444909256" lon="11.037816130683884"><ele>398.20000000000005</ele><time>2026-04-28T10:19:06.876Z</time></trkpt><trkpt lat="44.142643025366304" lon="11.037884679823021"><ele>397.6</ele><time>2026-04-28T10:19:07.876Z</time></trkpt><trkpt lat="44.142704657050665" lon="11.038001127212555"><ele>397.0</ele><time>2026-04-28T10:19:08.876Z</time></trkpt><trkpt lat="44.14274369101472" lon="11.038153071345947"><ele>397.0</ele><time>2026-04-28T10:19:09.876Z</time></trkpt><trkpt lat="44.142800590504564" lon="11.038284761693612"><ele>397.0</ele><time>2026-04-28T10:19:10.876Z</time></trkpt><trkpt lat="44.14286933210654" lon="11.038419784095684"><ele>397.0</ele><time>2026-04-28T10:19:11.876Z</time></trkpt><trkpt lat="44.14296414716081" lon="11.038519846289905"><ele>397.0</ele><time>2026-04-28T10:19:12.876Z</time></trkpt><trkpt lat="44.1430714781834" lon="11.038597077478569"><ele>396.75</ele><time>2026-04-28T10:19:13.876Z</time></trkpt><trkpt lat="44.14318905426676" lon="11.038644799574902"><ele>396.5</ele><time>2026-04-28T10:19:14.876Z</time></trkpt><trkpt lat="44.14329912757314" lon="11.038649415082531"><ele>396.25</ele><time>2026-04-28T10:19:15.876Z</time></trkpt><trkpt lat="44.14342751653133" lon="11.038617628053505"><ele>396.0</ele><time>2026-04-28T10:19:16.876Z</time></trkpt><trkpt lat="44.143544260995405" lon="11.038552552731606"><ele>396.0</ele><time>2026-04-28T10:19:17.876Z</time></trkpt><trkpt lat="44.14364369107104" lon="11.038452278549512"><ele>396.0</ele><time>2026-04-28T10:19:18.876Z</time></trkpt><trkpt lat="44.14372225200346" lon="11.038315726921281"><ele>396.0</ele><time>2026-04-28T10:19:19.876Z</time></trkpt><trkpt lat="44.143786330629496" lon="11.038172875214695"><ele>396.0</ele><time>2026-04-28T10:19:20.876Z</time></trkpt><trkpt lat="44.143862344913245" lon="11.038048744859255"><ele>398.0</ele><time>2026-04-28T10:19:21.876Z</time></trkpt><trkpt lat="44.14397764817676" lon="11.037995000589973"><ele>400.0</ele><time>2026-04-28T10:19:22.876Z</time></trkpt><trkpt lat="44.14409342307135" lon="11.037960021443332"><ele>402.0</ele><time>2026-04-28T10:19:23.876Z</time></trkpt><trkpt lat="44.144230139164904" lon="11.037956036323292"><ele>404.0</ele><time>2026-04-28T10:19:24.876Z</time></trkpt><trkpt lat="44.144384227139206" lon="11.03799525387575"><ele>404.3333333333333</ele><time>2026-04-28T10:19:25.876Z</time></trkpt><trkpt lat="44.144559891583214" lon="11.038047497856047"><ele>404.66666666666663</ele><time>2026-04-28T10:19:26.876Z</time></trkpt><trkpt lat="44.14474430886453" lon="11.038104662098329"><ele>405.0</ele><time>2026-04-28T10:19:27.876Z</time></trkpt><trkpt lat="44.14492944987941" lon="11.03813876104275"><ele>406.33333333333337</ele><time>2026-04-28T10:19:28.876Z</time></trkpt><trkpt lat="44.14510174981502" lon="11.038144884123447"><ele>407.6666666666667</ele><time>2026-04-28T10:19:29.876Z</time></trkpt><trkpt lat="44.145247687867055" lon="11.038183713657036"><ele>409.0</ele><time>2026-04-28T10:19:30.876Z</time></trkpt><trkpt lat="44.14537944771194" lon="11.038250010265957"><ele>409.0</ele><time>2026-04-28T10:19:31.876Z</time></trkpt><trkpt lat="44.14552291519338" lon="11.038296951476566"><ele>409.0</ele><time>2026-04-28T10:19:32.876Z</time></trkpt><trkpt lat="44.145676182943454" lon="11.038313320404638"><ele>409.0</ele><time>2026-04-28T10:19:33.876Z</time></trkpt><trkpt lat="44.1458321140408" lon="11.038296872399501"><ele>409.75</ele><time>2026-04-28T10:19:34.876Z</time></trkpt><trkpt lat="44.145978839171974" lon="11.03827219745271"><ele>410.5</ele><time>2026-04-28T10:19:35.876Z</time></trkpt><trkpt lat="44.14610393442012" lon="11.038270805739657"><ele>411.25</ele><time>2026-04-28T10:19:36.876Z</time></trkpt><trkpt lat="44.14622753654102" lon="11.038317984785033"><ele>412.0</ele><time>2026-04-28T10:19:37.876Z</time></trkpt><trkpt lat="44.14635806410718" lon="11.038396546869139"><ele>407.0</ele><time>2026-04-28T10:19:38.876Z</time></trkpt><trkpt lat="44.146489415203035" lon="11.03851935788903"><ele>402.0</ele><time>2026-04-28T10:19:39.876Z</time></trkpt><trkpt lat="44.146645374364226" lon="11.038640944722637"><ele>397.0</ele><time>2026-04-28T10:19:40.876Z</time></trkpt><trkpt lat="44.14678028448038" lon="11.038728215318017"><ele>397.0</ele><time>2026-04-28T10:19:41.876Z</time></trkpt><trkpt lat="44.146907388365975" lon="11.038805882626882"><ele>397.0</ele><time>2026-04-28T10:19:42.876Z</time></trkpt><trkpt lat="44.14702606692268" lon="11.038864047079919"><ele>397.0</ele><time>2026-04-28T10:19:43.876Z</time></trkpt><trkpt lat="44.14713517426293" lon="11.038989666425243"><ele>397.0</ele><time>2026-04-28T10:19:44.876Z</time></trkpt><trkpt lat="44.147228542742" lon="11.03911745625673"><ele>397.0</ele><time>2026-04-28T10:19:45.876Z</time></trkpt><trkpt lat="44.147300837316834" lon="11.039251137082553"><ele>397.0</ele><time>2026-04-28T10:19:46.876Z</time></trkpt><trkpt lat="44.147398645899756" lon="11.039362047199932"><ele>397.0</ele><time>2026-04-28T10:19:47.876Z</time></trkpt><trkpt lat="44.147546043248" lon="11.039417788981549"><ele>397.0</ele><time>2026-04-28T10:19:48.876Z</time></trkpt><trkpt lat="44.14771292791043" lon="11.039446727469617"><ele>397.0</ele><time>2026-04-28T10:19:49.876Z</time></trkpt><trkpt lat="44.14787610407145" lon="11.039488898273547"><ele>397.0</ele><time>2026-04-28T10:19:50.876Z</time></trkpt><trkpt lat="44.14803408848622" lon="11.039567470070915"><ele>397.0</ele><time>2026-04-28T10:19:51.876Z</time></trkpt><trkpt lat="44.14817898036022" lon="11.039642491128069"><ele>398.75</ele><time>2026-04-28T10:19:52.876Z</time></trkpt><trkpt lat="44.148317045906445" lon="11.03971404302675"><ele>400.5</ele><time>2026-04-28T10:19:53.876Z</time></trkpt><trkpt lat="44.148450426442736" lon="11.039783201945433"><ele>402.25</ele><time>2026-04-28T10:19:54.876Z</time></trkpt><trkpt lat="44.14858042613845" lon="11.039850607880755"><ele>404.0</ele><time>2026-04-28T10:19:55.876Z</time></trkpt><trkpt lat="44.148706399181314" lon="11.039918186728526"><ele>401.75</ele><time>2026-04-28T10:19:56.876Z</time></trkpt><trkpt lat="44.14882897573135" lon="11.039977414655503"><ele>399.5</ele><time>2026-04-28T10:19:57.876Z</time></trkpt><trkpt lat="44.14894833654139" lon="11.040002247879077"><ele>397.25</ele><time>2026-04-28T10:19:58.876Z</time></trkpt><trkpt lat="44.14905273658407" lon="11.040049077039901"><ele>395.0</ele><time>2026-04-28T10:19:59.876Z</time></trkpt><trkpt lat="44.14916372885665" lon="11.039993528623839"><ele>397.25</ele><time>2026-04-28T10:20:00.876Z</time></trkpt><trkpt lat="44.14925264156577" lon="11.039914438749063"><ele>399.5</ele><time>2026-04-28T10:20:01.876Z</time></trkpt><trkpt lat="44.149346311699574" lon="11.039795617853901"><ele>401.75</ele><time>2026-04-28T10:20:02.876Z</time></trkpt><trkpt lat="44.14941528906974" lon="11.039659601514334"><ele>404.0</ele><time>2026-04-28T10:20:03.876Z</time></trkpt><trkpt lat="44.14943521659183" lon="11.039497238255453"><ele>404.0</ele><time>2026-04-28T10:20:04.876Z</time></trkpt><trkpt lat="44.1494202768169" lon="11.039356898184908"><ele>404.0</ele><time>2026-04-28T10:20:05.876Z</time></trkpt><trkpt lat="44.149405855899545" lon="11.039197538042878"><ele>404.0</ele><time>2026-04-28T10:20:06.876Z</time></trkpt><trkpt lat="44.14942886493145" lon="11.039059784076937"><ele>404.0</ele><time>2026-04-28T10:20:07.876Z</time></trkpt><trkpt lat="44.149473579774565" lon="11.038966157928947"><ele>404.0</ele><time>2026-04-28T10:20:08.876Z</time></trkpt><trkpt lat="44.149555664181904" lon="11.038910331538041"><ele>403.2</ele><time>2026-04-28T10:20:09.876Z</time></trkpt><trkpt lat="44.14966094405018" lon="11.038900003391173"><ele>402.4</ele><time>2026-04-28T10:20:10.876Z</time></trkpt><trkpt lat="44.14976018622945" lon="11.038942981015275"><ele>401.6</ele><time>2026-04-28T10:20:11.876Z</time></trkpt><trkpt lat="44.14985890556113" lon="11.039028394072997"><ele>400.8</ele><time>2026-04-28T10:20:12.876Z</time></trkpt><trkpt lat="44.14994452894688" lon="11.039152217599101"><ele>400.0</ele><time>2026-04-28T10:20:13.876Z</time></trkpt><trkpt lat="44.15002548656417" lon="11.039332642125473"><ele>400.0</ele><time>2026-04-28T10:20:14.876Z</time></trkpt><trkpt lat="44.150094795325344" lon="11.039519629583173"><ele>400.0</ele><time>2026-04-28T10:20:15.876Z</time></trkpt><trkpt lat="44.15015600718276" lon="11.039695881785493"><ele>400.0</ele><time>2026-04-28T10:20:16.876Z</time></trkpt><trkpt lat="44.15020187215443" lon="11.039866057345035"><ele>400.0</ele><time>2026-04-28T10:20:17.876Z</time></trkpt><trkpt lat="44.15023045947259" lon="11.040029199911057"><ele>397.75</ele><time>2026-04-28T10:20:18.876Z</time></trkpt><trkpt lat="44.1502687139794" lon="11.040161824840121"><ele>395.5</ele><time>2026-04-28T10:20:19.876Z</time></trkpt><trkpt lat="44.150335906453805" lon="11.04025846005335"><ele>393.25</ele><time>2026-04-28T10:20:20.876Z</time></trkpt><trkpt lat="44.15044163432826" lon="11.040347176390751"><ele>391.0</ele><time>2026-04-28T10:20:21.876Z</time></trkpt><trkpt lat="44.15057701521201" lon="11.040409373248808"><ele>394.6666666666667</ele><time>2026-04-28T10:20:22.876Z</time></trkpt><trkpt lat="44.15073023368542" lon="11.040460746130927"><ele>398.33333333333337</ele><time>2026-04-28T10:20:23.876Z</time></trkpt><trkpt lat="44.15089448838098" lon="11.040504001573423"><ele>402.0</ele><time>2026-04-28T10:20:24.876Z</time></trkpt><trkpt lat="44.15106721072842" lon="11.040546204387855"><ele>402.0</ele><time>2026-04-28T10:20:25.876Z</time></trkpt><trkpt lat="44.15124878057812" lon="11.040576764106005"><ele>402.0</ele><time>2026-04-28T10:20:26.876Z</time></trkpt><trkpt lat="44.15141610244954" lon="11.040591807321853"><ele>402.0</ele><time>2026-04-28T10:20:27.876Z</time></trkpt><trkpt lat="44.15156328513873" lon="11.040598493522099"><ele>402.33333333333337</ele><time>2026-04-28T10:20:28.876Z</time></trkpt><trkpt lat="44.1517267157251" lon="11.04060140206401"><ele>402.6666666666667</ele><time>2026-04-28T10:20:29.876Z</time></trkpt><trkpt lat="44.15189143608718" lon="11.04063179141958"><ele>403.0</ele><time>2026-04-28T10:20:30.876Z</time></trkpt><trkpt lat="44.15204760528711" lon="11.040676983258226"><ele>403.0</ele><time>2026-04-28T10:20:31.876Z</time></trkpt><trkpt lat="44.15221292099823" lon="11.04077488204343"><ele>403.0</ele><time>2026-04-28T10:20:32.876Z</time></trkpt><trkpt lat="44.152380558897626" lon="11.040853814028651"><ele>403.0</ele><time>2026-04-28T10:20:33.876Z</time></trkpt><trkpt lat="44.152578256745876" lon="11.040922161006467"><ele>400.6666666666667</ele><time>2026-04-28T10:20:34.876Z</time></trkpt><trkpt lat="44.15276796407879" lon="11.04100470950162"><ele>398.33333333333337</ele><time>2026-04-28T10:20:35.876Z</time></trkpt><trkpt lat="44.15294370128219" lon="11.041061720012356"><ele>396.0</ele><time>2026-04-28T10:20:36.876Z</time></trkpt><trkpt lat="44.15311130277258" lon="11.0411189883567"><ele>398.0</ele><time>2026-04-28T10:20:37.876Z</time></trkpt><trkpt lat="44.15328063277775" lon="11.041176765506956"><ele>400.0</ele><time>2026-04-28T10:20:38.876Z</time></trkpt><trkpt lat="44.153424971937454" lon="11.041278486858399"><ele>402.0</ele><time>2026-04-28T10:20:39.876Z</time></trkpt><trkpt lat="44.15355989069853" lon="11.041357675478901"><ele>402.0</ele><time>2026-04-28T10:20:40.876Z</time></trkpt><trkpt lat="44.15368595711844" lon="11.04145977132442"><ele>402.0</ele><time>2026-04-28T10:20:41.876Z</time></trkpt><trkpt lat="44.15381442171053" lon="11.041547629598455"><ele>402.0</ele><time>2026-04-28T10:20:42.876Z</time></trkpt><trkpt lat="44.15393958488458" lon="11.041612318990198"><ele>402.0</ele><time>2026-04-28T10:20:43.876Z</time></trkpt><trkpt lat="44.15407247474815" lon="11.041650279763806"><ele>402.75</ele><time>2026-04-28T10:20:44.876Z</time></trkpt><trkpt lat="44.15419468438707" lon="11.04165825755543"><ele>403.5</ele><time>2026-04-28T10:20:45.876Z</time></trkpt><trkpt lat="44.1543444352753" lon="11.041616840481513"><ele>404.25</ele><time>2026-04-28T10:20:46.876Z</time></trkpt><trkpt lat="44.154489878765744" lon="11.041556147631567"><ele>405.0</ele><time>2026-04-28T10:20:47.876Z</time></trkpt><trkpt lat="44.154612465323545" lon="11.041491729722614"><ele>405.0</ele><time>2026-04-28T10:20:48.876Z</time></trkpt><trkpt lat="44.15472238263838" lon="11.041420260936393"><ele>405.0</ele><time>2026-04-28T10:20:49.876Z</time></trkpt><trkpt lat="44.15482719783892" lon="11.041341790344287"><ele>405.0</ele><time>2026-04-28T10:20:50.876Z</time></trkpt><trkpt lat="44.15490620020731" lon="11.041204113786597"><ele>405.0</ele><time>2026-04-28T10:20:51.876Z</time></trkpt><trkpt lat="44.15496185054647" lon="11.04108282013521"><ele>405.2</ele><time>2026-04-28T10:20:52.876Z</time></trkpt><trkpt lat="44.15500976672423" lon="11.040954263089066"><ele>405.4</ele><time>2026-04-28T10:20:53.876Z</time></trkpt><trkpt lat="44.15508941488078" lon="11.040836307777514"><ele>405.6</ele><time>2026-04-28T10:20:54.876Z</time></trkpt><trkpt lat="44.1551701256556" lon="11.04079373373194"><ele>405.8</ele><time>2026-04-28T10:20:55.876Z</time></trkpt><trkpt lat="44.155258950309104" lon="11.04078879888571"><ele>406.0</ele><time>2026-04-28T10:20:56.876Z</time></trkpt><trkpt lat="44.15538369099641" lon="11.040855778701996"><ele>404.0</ele><time>2026-04-28T10:20:57.876Z</time></trkpt><trkpt lat="44.15552622344419" lon="11.040963456335541"><ele>402.0</ele><time>2026-04-28T10:20:58.876Z</time></trkpt><trkpt lat="44.15567229864901" lon="11.041056224439806"><ele>400.0</ele><time>2026-04-28T10:20:59.876Z</time></trkpt><trkpt lat="44.15582232013435" lon="11.041162843388102"><ele>399.75</ele><time>2026-04-28T10:21:00.876Z</time></trkpt><trkpt lat="44.155941481190034" lon="11.041242816791696"><ele>399.5</ele><time>2026-04-28T10:21:01.876Z</time></trkpt><trkpt lat="44.15603293816216" lon="11.04134559089504"><ele>399.25</ele><time>2026-04-28T10:21:02.876Z</time></trkpt><trkpt lat="44.15609867583352" lon="11.04148295086059"><ele>399.0</ele><time>2026-04-28T10:21:03.876Z</time></trkpt><trkpt lat="44.156133058668416" lon="11.041641189303958"><ele>397.5</ele><time>2026-04-28T10:21:04.876Z</time></trkpt><trkpt lat="44.15611041832901" lon="11.04182385118166"><ele>396.0</ele><time>2026-04-28T10:21:05.876Z</time></trkpt><trkpt lat="44.15611438434142" lon="11.041998288437345"><ele>394.5</ele><time>2026-04-28T10:21:06.876Z</time></trkpt><trkpt lat="44.156136651069474" lon="11.04215801550505"><ele>393.0</ele><time>2026-04-28T10:21:07.876Z</time></trkpt><trkpt lat="44.15620506064061" lon="11.042293932401416"><ele>393.0</ele><time>2026-04-28T10:21:08.876Z</time></trkpt><trkpt lat="44.156303859837834" lon="11.042398181687282"><ele>393.0</ele><time>2026-04-28T10:21:09.876Z</time></trkpt><trkpt lat="44.15643501216402" lon="11.042494896044829"><ele>393.0</ele><time>2026-04-28T10:21:10.876Z</time></trkpt><trkpt lat="44.156582025764266" lon="11.042564860246678"><ele>393.0</ele><time>2026-04-28T10:21:11.876Z</time></trkpt><trkpt lat="44.15672761945085" lon="11.042623717187103"><ele>394.33333333333337</ele><time>2026-04-28T10:21:12.876Z</time></trkpt><trkpt lat="44.15689236979027" lon="11.042669948270392"><ele>395.6666666666667</ele><time>2026-04-28T10:21:13.876Z</time></trkpt><trkpt lat="44.15705212530651" lon="11.0427135106538"><ele>397.0</ele><time>2026-04-28T10:21:14.876Z</time></trkpt><trkpt lat="44.15719222077443" lon="11.04275232013826"><ele>397.0</ele><time>2026-04-28T10:21:15.876Z</time></trkpt><trkpt lat="44.157334864828506" lon="11.042786800808125"><ele>397.0</ele><time>2026-04-28T10:21:16.876Z</time></trkpt><trkpt lat="44.1574897104255" lon="11.042784363206378"><ele>397.0</ele><time>2026-04-28T10:21:17.876Z</time></trkpt><trkpt lat="44.15764014753102" lon="11.042752512110129"><ele>397.0</ele><time>2026-04-28T10:21:18.876Z</time></trkpt><trkpt lat="44.15780043725687" lon="11.04270018175726"><ele>397.0</ele><time>2026-04-28T10:21:19.876Z</time></trkpt><trkpt lat="44.1579585362879" lon="11.042663131625345"><ele>397.0</ele><time>2026-04-28T10:21:20.876Z</time></trkpt><trkpt lat="44.158100502351154" lon="11.042635913836783"><ele>397.5</ele><time>2026-04-28T10:21:21.876Z</time></trkpt><trkpt lat="44.15822935508538" lon="11.042625828947711"><ele>398.0</ele><time>2026-04-28T10:21:22.876Z</time></trkpt><trkpt lat="44.15834721750418" lon="11.042655918727263"><ele>398.5</ele><time>2026-04-28T10:21:23.876Z</time></trkpt><trkpt lat="44.15846559455644" lon="11.042727767138532"><ele>399.0</ele><time>2026-04-28T10:21:24.876Z</time></trkpt><trkpt lat="44.158561012790685" lon="11.042864180889277"><ele>399.0</ele><time>2026-04-28T10:21:25.876Z</time></trkpt><trkpt lat="44.15866767779973" lon="11.042994497034952"><ele>399.0</ele><time>2026-04-28T10:21:26.876Z</time></trkpt><trkpt lat="44.15876755736961" lon="11.043177299452763"><ele>399.0</ele><time>2026-04-28T10:21:27.876Z</time></trkpt><trkpt lat="44.158880532546945" lon="11.04334697717258"><ele>399.0</ele><time>2026-04-28T10:21:28.876Z</time></trkpt><trkpt lat="44.158995595209255" lon="11.043492254556053"><ele>399.0</ele><time>2026-04-28T10:21:29.876Z</time></trkpt><trkpt lat="44.15912020159566" lon="11.043588181088733"><ele>399.0</ele><time>2026-04-28T10:21:30.876Z</time></trkpt><trkpt lat="44.15925810448782" lon="11.043663272880105"><ele>399.0</ele><time>2026-04-28T10:21:31.876Z</time></trkpt><trkpt lat="44.15940107718219" lon="11.043739788417989"><ele>399.0</ele><time>2026-04-28T10:21:32.876Z</time></trkpt><trkpt lat="44.159553126736256" lon="11.043826426141008"><ele>399.0</ele><time>2026-04-28T10:21:33.876Z</time></trkpt><trkpt lat="44.15971673883209" lon="11.043893313338113"><ele>399.0</ele><time>2026-04-28T10:21:34.876Z</time></trkpt><trkpt lat="44.15986497581461" lon="11.043934428963627"><ele>404.33333333333337</ele><time>2026-04-28T10:21:35.876Z</time></trkpt><trkpt lat="44.16002466670151" lon="11.04395586567075"><ele>409.6666666666667</ele><time>2026-04-28T10:21:36.876Z</time></trkpt><trkpt lat="44.16018325327482" lon="11.043975972462256"><ele>415.0</ele><time>2026-04-28T10:21:37.876Z</time></trkpt><trkpt lat="44.1603435835936" lon="11.04403379913549"><ele>415.0</ele><time>2026-04-28T10:21:38.876Z</time></trkpt><trkpt lat="44.16050918654827" lon="11.044118630209232"><ele>415.0</ele><time>2026-04-28T10:21:39.876Z</time></trkpt><trkpt lat="44.16068117396549" lon="11.044223241209338"><ele>415.0</ele><time>2026-04-28T10:21:40.876Z</time></trkpt><trkpt lat="44.160819827044456" lon="11.044329647116305"><ele>412.0</ele><time>2026-04-28T10:21:41.876Z</time></trkpt><trkpt lat="44.1609501180725" lon="11.044430192242258"><ele>409.0</ele><time>2026-04-28T10:21:42.876Z</time></trkpt><trkpt lat="44.161072385180674" lon="11.04456490131252"><ele>406.0</ele><time>2026-04-28T10:21:43.876Z</time></trkpt><trkpt lat="44.16118502711458" lon="11.044723270850994"><ele>406.0</ele><time>2026-04-28T10:21:44.876Z</time></trkpt><trkpt lat="44.16129342509785" lon="11.044911435051738"><ele>406.0</ele><time>2026-04-28T10:21:45.876Z</time></trkpt><trkpt lat="44.16141358640191" lon="11.045062137324248"><ele>406.0</ele><time>2026-04-28T10:21:46.876Z</time></trkpt><trkpt lat="44.16150320643935" lon="11.04523328517402"><ele>406.25</ele><time>2026-04-28T10:21:47.876Z</time></trkpt><trkpt lat="44.16160019869022" lon="11.045384720555578"><ele>406.5</ele><time>2026-04-28T10:21:48.876Z</time></trkpt><trkpt lat="44.161697674611524" lon="11.045517272697131"><ele>406.75</ele><time>2026-04-28T10:21:49.876Z</time></trkpt><trkpt lat="44.16176062833948" lon="11.045648170035106"><ele>407.0</ele><time>2026-04-28T10:21:50.876Z</time></trkpt><trkpt lat="44.16179834924765" lon="11.04581323711644"><ele>404.25</ele><time>2026-04-28T10:21:51.876Z</time></trkpt><trkpt lat="44.161794226770105" lon="11.046008963921869"><ele>401.5</ele><time>2026-04-28T10:21:52.876Z</time></trkpt><trkpt lat="44.16180452874412" lon="11.04621136777864"><ele>398.75</ele><time>2026-04-28T10:21:53.876Z</time></trkpt><trkpt lat="44.161838056370904" lon="11.046403438148895"><ele>396.0</ele><time>2026-04-28T10:21:54.876Z</time></trkpt><trkpt lat="44.16190056301522" lon="11.046577954599584"><ele>394.5</ele><time>2026-04-28T10:21:55.876Z</time></trkpt><trkpt lat="44.161952693747786" lon="11.046743912557135"><ele>393.0</ele><time>2026-04-28T10:21:56.876Z</time></trkpt><trkpt lat="44.16201852557553" lon="11.046897407992915"><ele>391.5</ele><time>2026-04-28T10:21:57.876Z</time></trkpt><trkpt lat="44.16208794589763" lon="11.047032603100295"><ele>390.0</ele><time>2026-04-28T10:21:58.876Z</time></trkpt><trkpt lat="44.16215096210591" lon="11.047142006617664"><ele>390.0</ele><time>2026-04-28T10:21:59.876Z</time></trkpt><trkpt lat="44.16220760251748" lon="11.047245876582787"><ele>390.0</ele><time>2026-04-28T10:22:00.876Z</time></trkpt><trkpt lat="44.16228803077894" lon="11.047322539487123"><ele>390.0</ele><time>2026-04-28T10:22:01.876Z</time></trkpt><trkpt lat="44.162409509254154" lon="11.047314896539884"><ele>390.0</ele><time>2026-04-28T10:22:02.876Z</time></trkpt><trkpt lat="44.1625067166371" lon="11.047214512492749"><ele>390.0</ele><time>2026-04-28T10:22:03.876Z</time></trkpt><trkpt lat="44.162606157941006" lon="11.047108951133874"><ele>392.75</ele><time>2026-04-28T10:22:04.876Z</time></trkpt><trkpt lat="44.162713876787485" lon="11.046971548920153"><ele>395.5</ele><time>2026-04-28T10:22:05.876Z</time></trkpt><trkpt lat="44.16282499558545" lon="11.046824763421128"><ele>398.25</ele><time>2026-04-28T10:22:06.876Z</time></trkpt><trkpt lat="44.16291376792901" lon="11.046699308959113"><ele>401.0</ele><time>2026-04-28T10:22:07.876Z</time></trkpt><trkpt lat="44.162989379241495" lon="11.046591771102888"><ele>401.8</ele><time>2026-04-28T10:22:08.876Z</time></trkpt><trkpt lat="44.163064262976874" lon="11.04651588972794"><ele>402.6</ele><time>2026-04-28T10:22:09.876Z</time></trkpt><trkpt lat="44.16314144804887" lon="11.046493042238579"><ele>403.4</ele><time>2026-04-28T10:22:10.876Z</time></trkpt><trkpt lat="44.16323011414587" lon="11.04652471001948"><ele>404.2</ele><time>2026-04-28T10:22:11.876Z</time></trkpt><trkpt lat="44.163321370106665" lon="11.046576777811126"><ele>405.0</ele><time>2026-04-28T10:22:12.876Z</time></trkpt><trkpt lat="44.163396687997995" lon="11.046680515658153"><ele>405.0</ele><time>2026-04-28T10:22:13.875Z</time></trkpt><trkpt lat="44.16343092150646" lon="11.046796985228998"><ele>405.0</ele><time>2026-04-28T10:22:14.876Z</time></trkpt><trkpt lat="44.163424607980154" lon="11.046920720195534"><ele>405.0</ele><time>2026-04-28T10:22:15.876Z</time></trkpt><trkpt lat="44.16338713574581" lon="11.047054020812185"><ele>405.0</ele><time>2026-04-28T10:22:16.876Z</time></trkpt><trkpt lat="44.16335262614265" lon="11.047203081904762"><ele>405.0</ele><time>2026-04-28T10:22:17.876Z</time></trkpt><trkpt lat="44.16336195481565" lon="11.047341594742061"><ele>403.25</ele><time>2026-04-28T10:22:18.876Z</time></trkpt><trkpt lat="44.16339951970478" lon="11.047491988433164"><ele>401.5</ele><time>2026-04-28T10:22:19.876Z</time></trkpt><trkpt lat="44.16344778023886" lon="11.047650387651766"><ele>399.75</ele><time>2026-04-28T10:22:20.876Z</time></trkpt><trkpt lat="44.16350357023559" lon="11.04779354976382"><ele>398.0</ele><time>2026-04-28T10:22:21.876Z</time></trkpt><trkpt lat="44.163567912140905" lon="11.047923931594964"><ele>398.0</ele><time>2026-04-28T10:22:22.876Z</time></trkpt><trkpt lat="44.163627986731974" lon="11.048058457819797"><ele>398.0</ele><time>2026-04-28T10:22:23.876Z</time></trkpt><trkpt lat="44.163748050690245" lon="11.048162110089203"><ele>398.0</ele><time>2026-04-28T10:22:24.876Z</time></trkpt><trkpt lat="44.16390158079025" lon="11.048224728077043"><ele>398.0</ele><time>2026-04-28T10:22:25.876Z</time></trkpt><trkpt lat="44.16405981726652" lon="11.048283879806402"><ele>398.3333333333333</ele><time>2026-04-28T10:22:26.876Z</time></trkpt><trkpt lat="44.16423349923113" lon="11.048347668874664"><ele>398.66666666666663</ele><time>2026-04-28T10:22:27.876Z</time></trkpt><trkpt lat="44.16441930411569" lon="11.04839591211721"><ele>399.0</ele><time>2026-04-28T10:22:28.876Z</time></trkpt><trkpt lat="44.16462313401989" lon="11.048487199747408"><ele>399.0</ele><time>2026-04-28T10:22:29.876Z</time></trkpt><trkpt lat="44.16483506636726" lon="11.048543426389243"><ele>399.0</ele><time>2026-04-28T10:22:30.876Z</time></trkpt><trkpt lat="44.16503069247933" lon="11.048574868734498"><ele>399.0</ele><time>2026-04-28T10:22:31.876Z</time></trkpt><trkpt lat="44.16520643186552" lon="11.048643604472161"><ele>401.66666666666663</ele><time>2026-04-28T10:22:32.876Z</time></trkpt><trkpt lat="44.16537305897159" lon="11.048716329406185"><ele>404.3333333333333</ele><time>2026-04-28T10:22:33.876Z</time></trkpt><trkpt lat="44.165528024247514" lon="11.048746694638368"><ele>407.0</ele><time>2026-04-28T10:22:34.876Z</time></trkpt><trkpt lat="44.165671623489345" lon="11.048740792195023"><ele>407.75</ele><time>2026-04-28T10:22:35.876Z</time></trkpt><trkpt lat="44.16580218357789" lon="11.048716938063798"><ele>408.5</ele><time>2026-04-28T10:22:36.876Z</time></trkpt><trkpt lat="44.16593013913066" lon="11.048675962934794"><ele>409.25</ele><time>2026-04-28T10:22:37.876Z</time></trkpt><trkpt lat="44.16604174804514" lon="11.048623073802352"><ele>410.0</ele><time>2026-04-28T10:22:38.876Z</time></trkpt><trkpt lat="44.16614568421925" lon="11.048485762808541"><ele>410.0</ele><time>2026-04-28T10:22:39.876Z</time></trkpt><trkpt lat="44.16624565362701" lon="11.048338617465836"><ele>410.0</ele><time>2026-04-28T10:22:40.876Z</time></trkpt><trkpt lat="44.16638913060212" lon="11.048227612462465"><ele>410.0</ele><time>2026-04-28T10:22:41.876Z</time></trkpt><trkpt lat="44.16654557372405" lon="11.048120010402126"><ele>412.66666666666663</ele><time>2026-04-28T10:22:42.876Z</time></trkpt><trkpt lat="44.16670690391877" lon="11.048014770795252"><ele>415.33333333333337</ele><time>2026-04-28T10:22:43.876Z</time></trkpt><trkpt lat="44.16684502873803" lon="11.047878209333824"><ele>418.0</ele><time>2026-04-28T10:22:44.876Z</time></trkpt><trkpt lat="44.16697972322013" lon="11.047742107599355"><ele>418.0</ele><time>2026-04-28T10:22:45.876Z</time></trkpt><trkpt lat="44.16711344866268" lon="11.047619194591288"><ele>418.0</ele><time>2026-04-28T10:22:46.876Z</time></trkpt><trkpt lat="44.16726390966341" lon="11.047541239079038"><ele>418.0</ele><time>2026-04-28T10:22:47.876Z</time></trkpt><trkpt lat="44.16742014470924" lon="11.047475127724859"><ele>422.5</ele><time>2026-04-28T10:22:48.876Z</time></trkpt><trkpt lat="44.16755562882519" lon="11.04740827886627"><ele>427.0</ele><time>2026-04-28T10:22:49.876Z</time></trkpt><trkpt lat="44.16768265503369" lon="11.047406662729918"><ele>431.5</ele><time>2026-04-28T10:22:50.876Z</time></trkpt><trkpt lat="44.1678158478029" lon="11.047372817340172"><ele>436.0</ele><time>2026-04-28T10:22:51.876Z</time></trkpt><trkpt lat="44.16794335784836" lon="11.047260869774995"><ele>436.0</ele><time>2026-04-28T10:22:52.876Z</time></trkpt><trkpt lat="44.16805631341106" lon="11.047131057461229"><ele>436.0</ele><time>2026-04-28T10:22:53.876Z</time></trkpt><trkpt lat="44.16815894631305" lon="11.0470183692375"><ele>436.0</ele><time>2026-04-28T10:22:54.876Z</time></trkpt><trkpt lat="44.16822934203296" lon="11.046927372316707"><ele>436.0</ele><time>2026-04-28T10:22:55.876Z</time></trkpt><trkpt lat="44.168281023259816" lon="11.04684440244232"><ele>432.4</ele><time>2026-04-28T10:22:56.876Z</time></trkpt><trkpt lat="44.16838859565444" lon="11.046818812840602"><ele>428.8</ele><time>2026-04-28T10:22:58.876Z</time></trkpt><trkpt lat="44.1684752568763" lon="11.046855570744256"><ele>425.2</ele><time>2026-04-28T10:22:59.876Z</time></trkpt><trkpt lat="44.1685455717875" lon="11.046973138559087"><ele>421.59999999999997</ele><time>2026-04-28T10:23:00.876Z</time></trkpt><trkpt lat="44.16859208665533" lon="11.047106272281477"><ele>418.0</ele><time>2026-04-28T10:23:01.876Z</time></trkpt><trkpt lat="44.16863779894554" lon="11.04724839726831"><ele>418.0</ele><time>2026-04-28T10:23:02.876Z</time></trkpt><trkpt lat="44.16873207467273" lon="11.047372514644026"><ele>418.0</ele><time>2026-04-28T10:23:03.876Z</time></trkpt><trkpt lat="44.16886336583226" lon="11.047451439596212"><ele>418.0</ele><time>2026-04-28T10:23:04.876Z</time></trkpt><trkpt lat="44.16900462765811" lon="11.04752535966882"><ele>418.0</ele><time>2026-04-28T10:23:05.876Z</time></trkpt><trkpt lat="44.1691534655179" lon="11.047573405017772"><ele>413.0</ele><time>2026-04-28T10:23:06.876Z</time></trkpt><trkpt lat="44.16931336483315" lon="11.047629380113445"><ele>408.0</ele><time>2026-04-28T10:23:07.876Z</time></trkpt><trkpt lat="44.16947331771333" lon="11.04774795463478"><ele>403.0</ele><time>2026-04-28T10:23:08.876Z</time></trkpt><trkpt lat="44.16962013130914" lon="11.047908410536794"><ele>403.0</ele><time>2026-04-28T10:23:09.876Z</time></trkpt><trkpt lat="44.16978120603856" lon="11.048056625452395"><ele>403.0</ele><time>2026-04-28T10:23:10.876Z</time></trkpt><trkpt lat="44.16994844927556" lon="11.048205279630576"><ele>403.0</ele><time>2026-04-28T10:23:11.876Z</time></trkpt><trkpt lat="44.170107309037604" lon="11.04834994191413"><ele>400.0</ele><time>2026-04-28T10:23:12.876Z</time></trkpt><trkpt lat="44.17025395989301" lon="11.048484386781496"><ele>397.0</ele><time>2026-04-28T10:23:13.876Z</time></trkpt><trkpt lat="44.170389090385754" lon="11.048597787359553"><ele>394.0</ele><time>2026-04-28T10:23:14.876Z</time></trkpt><trkpt lat="44.170510573661986" lon="11.048685438323988"><ele>394.0</ele><time>2026-04-28T10:23:15.876Z</time></trkpt><trkpt lat="44.170613009223175" lon="11.048762596727114"><ele>394.0</ele><time>2026-04-28T10:23:16.876Z</time></trkpt><trkpt lat="44.17071357503528" lon="11.048872128234693"><ele>394.0</ele><time>2026-04-28T10:23:17.876Z</time></trkpt><trkpt lat="44.17078753069548" lon="11.0490193287995"><ele>394.0</ele><time>2026-04-28T10:23:18.876Z</time></trkpt><trkpt lat="44.170850186134984" lon="11.04916161579569"><ele>393.0</ele><time>2026-04-28T10:23:19.876Z</time></trkpt><trkpt lat="44.17092123091652" lon="11.049320221085619"><ele>392.0</ele><time>2026-04-28T10:23:20.876Z</time></trkpt><trkpt lat="44.17103054667475" lon="11.049446660319331"><ele>391.0</ele><time>2026-04-28T10:23:21.876Z</time></trkpt><trkpt lat="44.171149471962806" lon="11.04954711614714"><ele>390.0</ele><time>2026-04-28T10:23:22.876Z</time></trkpt><trkpt lat="44.17126673923156" lon="11.049617307985088"><ele>390.0</ele><time>2026-04-28T10:23:23.876Z</time></trkpt><trkpt lat="44.17139441499472" lon="11.049653372746748"><ele>390.0</ele><time>2026-04-28T10:23:24.876Z</time></trkpt><trkpt lat="44.1715317030341" lon="11.049624424686137"><ele>390.0</ele><time>2026-04-28T10:23:25.876Z</time></trkpt><trkpt lat="44.17164755963599" lon="11.049602694090565"><ele>390.0</ele><time>2026-04-28T10:23:26.876Z</time></trkpt><trkpt lat="44.17175781688241" lon="11.049603595440026"><ele>395.0</ele><time>2026-04-28T10:23:27.876Z</time></trkpt><trkpt lat="44.1718695646647" lon="11.049622148158521"><ele>400.0</ele><time>2026-04-28T10:23:28.876Z</time></trkpt><trkpt lat="44.17197777779343" lon="11.049707464529044"><ele>405.0</ele><time>2026-04-28T10:23:29.876Z</time></trkpt><trkpt lat="44.17210182670547" lon="11.049822646544289"><ele>410.0</ele><time>2026-04-28T10:23:30.876Z</time></trkpt><trkpt lat="44.17222298581956" lon="11.049944802916936"><ele>405.0</ele><time>2026-04-28T10:23:31.876Z</time></trkpt><trkpt lat="44.17234522149046" lon="11.050075322019838"><ele>400.0</ele><time>2026-04-28T10:23:32.876Z</time></trkpt><trkpt lat="44.172445335209574" lon="11.050219376275392"><ele>395.0</ele><time>2026-04-28T10:23:33.876Z</time></trkpt><trkpt lat="44.17255389282776" lon="11.05036874643672"><ele>395.0</ele><time>2026-04-28T10:23:34.876Z</time></trkpt><trkpt lat="44.17264402439071" lon="11.050550973721775"><ele>395.0</ele><time>2026-04-28T10:23:35.876Z</time></trkpt><trkpt lat="44.17272155181764" lon="11.050742912041564"><ele>395.0</ele><time>2026-04-28T10:23:36.876Z</time></trkpt><trkpt lat="44.17278759803504" lon="11.050928637211978"><ele>390.0</ele><time>2026-04-28T10:23:37.876Z</time></trkpt><trkpt lat="44.17283681560617" lon="11.051109860349927"><ele>385.0</ele><time>2026-04-28T10:23:38.876Z</time></trkpt><trkpt lat="44.17286755187529" lon="11.051271185804037"><ele>380.0</ele><time>2026-04-28T10:23:39.876Z</time></trkpt><trkpt lat="44.17287437036728" lon="11.051430770198394"><ele>375.0</ele><time>2026-04-28T10:23:40.876Z</time></trkpt><trkpt lat="44.17284459870977" lon="11.051582610766465"><ele>374.6</ele><time>2026-04-28T10:23:41.876Z</time></trkpt><trkpt lat="44.172797613399645" lon="11.05170933801138"><ele>374.2</ele><time>2026-04-28T10:23:42.876Z</time></trkpt><trkpt lat="44.172749227177846" lon="11.051824140082301"><ele>373.79999999999995</ele><time>2026-04-28T10:23:43.876Z</time></trkpt><trkpt lat="44.172714970430235" lon="11.051947637664842"><ele>373.4</ele><time>2026-04-28T10:23:44.876Z</time></trkpt><trkpt lat="44.172714912276476" lon="11.052069532041443"><ele>373.0</ele><time>2026-04-28T10:23:45.876Z</time></trkpt><trkpt lat="44.17274940252287" lon="11.05218824374698"><ele>373.0</ele><time>2026-04-28T10:23:46.876Z</time></trkpt><trkpt lat="44.172811308791125" lon="11.05231448240295"><ele>373.0</ele><time>2026-04-28T10:23:47.876Z</time></trkpt><trkpt lat="44.17292340672571" lon="11.052383963943024"><ele>373.0</ele><time>2026-04-28T10:23:48.876Z</time></trkpt><trkpt lat="44.173039249565996" lon="11.052453172648105"><ele>373.0</ele><time>2026-04-28T10:23:49.876Z</time></trkpt><trkpt lat="44.17317474816398" lon="11.052494867251255"><ele>374.3333333333333</ele><time>2026-04-28T10:23:50.876Z</time></trkpt><trkpt lat="44.173321210649895" lon="11.05249040512143"><ele>375.6666666666667</ele><time>2026-04-28T10:23:51.876Z</time></trkpt><trkpt lat="44.17347130669721" lon="11.05247624234658"><ele>377.0</ele><time>2026-04-28T10:23:52.876Z</time></trkpt><trkpt lat="44.17362328957251" lon="11.052501827677034"><ele>377.0</ele><time>2026-04-28T10:23:53.876Z</time></trkpt><trkpt lat="44.173764336983226" lon="11.052525898945074"><ele>377.0</ele><time>2026-04-28T10:23:54.876Z</time></trkpt><trkpt lat="44.17391029382833" lon="11.052510411949937"><ele>377.0</ele><time>2026-04-28T10:23:55.876Z</time></trkpt><trkpt lat="44.17404411317408" lon="11.052465924220693"><ele>377.0</ele><time>2026-04-28T10:23:56.876Z</time></trkpt><trkpt lat="44.17417455179036" lon="11.052439352694591"><ele>376.75</ele><time>2026-04-28T10:23:57.876Z</time></trkpt><trkpt lat="44.1742970859565" lon="11.052464954324734"><ele>376.5</ele><time>2026-04-28T10:23:58.876Z</time></trkpt><trkpt lat="44.174409184206546" lon="11.052535615082235"><ele>376.25</ele><time>2026-04-28T10:23:59.876Z</time></trkpt><trkpt lat="44.174540066058036" lon="11.05265276081539"><ele>376.0</ele><time>2026-04-28T10:24:00.876Z</time></trkpt><trkpt lat="44.17468168741979" lon="11.052762422701225"><ele>376.0</ele><time>2026-04-28T10:24:01.876Z</time></trkpt><trkpt lat="44.17481763504727" lon="11.052843656937535"><ele>376.0</ele><time>2026-04-28T10:24:02.876Z</time></trkpt><trkpt lat="44.17497036853263" lon="11.052886872038748"><ele>376.0</ele><time>2026-04-28T10:24:03.876Z</time></trkpt><trkpt lat="44.17512566562998" lon="11.052892231818495"><ele>377.66666666666663</ele><time>2026-04-28T10:24:04.876Z</time></trkpt><trkpt lat="44.17528309045573" lon="11.052901192392962"><ele>379.3333333333333</ele><time>2026-04-28T10:24:05.876Z</time></trkpt><trkpt lat="44.175446906387734" lon="11.052956238005585"><ele>381.0</ele><time>2026-04-28T10:24:06.876Z</time></trkpt><trkpt lat="44.175599697382246" lon="11.053028586449924"><ele>383.33333333333337</ele><time>2026-04-28T10:24:07.876Z</time></trkpt><trkpt lat="44.17574237931935" lon="11.053133802718586"><ele>385.6666666666667</ele><time>2026-04-28T10:24:08.876Z</time></trkpt><trkpt lat="44.1758826603287" lon="11.053198000982068"><ele>388.0</ele><time>2026-04-28T10:24:09.876Z</time></trkpt><trkpt lat="44.1760240756879" lon="11.053188927104124"><ele>388.0</ele><time>2026-04-28T10:24:10.876Z</time></trkpt><trkpt lat="44.176158860419925" lon="11.053174319211434"><ele>388.0</ele><time>2026-04-28T10:24:11.876Z</time></trkpt><trkpt lat="44.17629142119432" lon="11.053198728911338"><ele>388.0</ele><time>2026-04-28T10:24:12.876Z</time></trkpt><trkpt lat="44.176397646690425" lon="11.053349639567339"><ele>388.0</ele><time>2026-04-28T10:24:13.875Z</time></trkpt><trkpt lat="44.17654629729406" lon="11.053444548726361"><ele>382.25</ele><time>2026-04-28T10:24:14.876Z</time></trkpt><trkpt lat="44.17669030558084" lon="11.053521463672993"><ele>376.5</ele><time>2026-04-28T10:24:15.876Z</time></trkpt><trkpt lat="44.17683402509077" lon="11.053580366314348"><ele>370.75</ele><time>2026-04-28T10:24:16.875Z</time></trkpt><trkpt lat="44.17697330745119" lon="11.053637315641431"><ele>365.0</ele><time>2026-04-28T10:24:17.875Z</time></trkpt><trkpt lat="44.17709892874682" lon="11.053686391677713"><ele>365.0</ele><time>2026-04-28T10:24:18.875Z</time></trkpt><trkpt lat="44.177220628871474" lon="11.053677308273807"><ele>365.0</ele><time>2026-04-28T10:24:19.875Z</time></trkpt><trkpt lat="44.177357267527356" lon="11.05364617707535"><ele>365.0</ele><time>2026-04-28T10:24:20.875Z</time></trkpt><trkpt lat="44.17747139097782" lon="11.053579618385685"><ele>365.0</ele><time>2026-04-28T10:24:21.875Z</time></trkpt><trkpt lat="44.177598954593286" lon="11.053540848260859"><ele>365.75</ele><time>2026-04-28T10:24:22.875Z</time></trkpt><trkpt lat="44.177726823700944" lon="11.053554773209378"><ele>366.5</ele><time>2026-04-28T10:24:23.875Z</time></trkpt><trkpt lat="44.17783070014656" lon="11.05362906993684"><ele>367.25</ele><time>2026-04-28T10:24:24.876Z</time></trkpt><trkpt lat="44.1779193611599" lon="11.053741267587444"><ele>368.0</ele><time>2026-04-28T10:24:25.876Z</time></trkpt><trkpt lat="44.177987681377246" lon="11.053866584736452"><ele>368.0</ele><time>2026-04-28T10:24:26.876Z</time></trkpt><trkpt lat="44.17803016667334" lon="11.053975150509416"><ele>368.0</ele><time>2026-04-28T10:24:27.876Z</time></trkpt><trkpt lat="44.178034554992635" lon="11.054099572630978"><ele>368.0</ele><time>2026-04-28T10:24:28.876Z</time></trkpt><trkpt lat="44.178001451081805" lon="11.054227672668627"><ele>368.0</ele><time>2026-04-28T10:24:29.876Z</time></trkpt><trkpt lat="44.17794762100675" lon="11.054358335785103"><ele>368.0</ele><time>2026-04-28T10:24:30.876Z</time></trkpt><trkpt lat="44.177930658639134" lon="11.054480274660712"><ele>364.25</ele><time>2026-04-28T10:24:31.876Z</time></trkpt><trkpt lat="44.177950074689434" lon="11.054606141562882"><ele>360.5</ele><time>2026-04-28T10:24:32.876Z</time></trkpt><trkpt lat="44.17798508818358" lon="11.054742456877628"><ele>356.75</ele><time>2026-04-28T10:24:33.876Z</time></trkpt><trkpt lat="44.178068620002016" lon="11.054875172356253"><ele>353.0</ele><time>2026-04-28T10:24:34.876Z</time></trkpt><trkpt lat="44.17816367390916" lon="11.055012171752823"><ele>353.33333333333337</ele><time>2026-04-28T10:24:35.876Z</time></trkpt><trkpt lat="44.17826846304997" lon="11.05516236618595"><ele>353.6666666666667</ele><time>2026-04-28T10:24:36.876Z</time></trkpt><trkpt lat="44.1783792445044" lon="11.05532016765879"><ele>354.0</ele><time>2026-04-28T10:24:37.876Z</time></trkpt><trkpt lat="44.17848993855953" lon="11.055476658056046"><ele>354.0</ele><time>2026-04-28T10:24:38.876Z</time></trkpt><trkpt lat="44.17859728782508" lon="11.055628419426604"><ele>354.0</ele><time>2026-04-28T10:24:39.876Z</time></trkpt><trkpt lat="44.17869634737993" lon="11.055766734165204"><ele>354.0</ele><time>2026-04-28T10:24:40.876Z</time></trkpt><trkpt lat="44.17878933204282" lon="11.055897312615237"><ele>354.0</ele><time>2026-04-28T10:24:41.876Z</time></trkpt><trkpt lat="44.17887891170921" lon="11.056015426322254"><ele>352.25</ele><time>2026-04-28T10:24:42.876Z</time></trkpt><trkpt lat="44.17892822232334" lon="11.056158139046936"><ele>350.5</ele><time>2026-04-28T10:24:43.876Z</time></trkpt><trkpt lat="44.17895053703881" lon="11.056327603997735"><ele>348.75</ele><time>2026-04-28T10:24:44.876Z</time></trkpt><trkpt lat="44.178975418170126" lon="11.056495719530686"><ele>347.0</ele><time>2026-04-28T10:24:45.876Z</time></trkpt><trkpt lat="44.179010351272716" lon="11.056672648243307"><ele>348.6666666666667</ele><time>2026-04-28T10:24:46.876Z</time></trkpt><trkpt lat="44.179109288584904" lon="11.056827867745332"><ele>350.3333333333333</ele><time>2026-04-28T10:24:47.876Z</time></trkpt><trkpt lat="44.179216254722604" lon="11.056990851398439"><ele>352.0</ele><time>2026-04-28T10:24:48.876Z</time></trkpt><trkpt lat="44.17931623379447" lon="11.057172219285105"><ele>352.0</ele><time>2026-04-28T10:24:49.876Z</time></trkpt><trkpt lat="44.17941728490913" lon="11.057319885786672"><ele>352.0</ele><time>2026-04-28T10:24:50.876Z</time></trkpt><trkpt lat="44.17951722226396" lon="11.057453135323986"><ele>352.0</ele><time>2026-04-28T10:24:51.876Z</time></trkpt><trkpt lat="44.179619849670964" lon="11.057568493679678"><ele>352.0</ele><time>2026-04-28T10:24:52.876Z</time></trkpt><trkpt lat="44.179748016778895" lon="11.057648611095495"><ele>350.75</ele><time>2026-04-28T10:24:53.876Z</time></trkpt><trkpt lat="44.17988284820024" lon="11.057690569922018"><ele>349.5</ele><time>2026-04-28T10:24:54.876Z</time></trkpt><trkpt lat="44.180017934445765" lon="11.057689323330353"><ele>348.25</ele><time>2026-04-28T10:24:55.876Z</time></trkpt><trkpt lat="44.18015236314915" lon="11.057645301119072"><ele>347.0</ele><time>2026-04-28T10:24:56.876Z</time></trkpt><trkpt lat="44.180280986001456" lon="11.057547637751489"><ele>347.0</ele><time>2026-04-28T10:24:57.879Z</time></trkpt><trkpt lat="44.18044029173488" lon="11.057454749850713"><ele>347.0</ele><time>2026-04-28T10:24:58.882Z</time></trkpt><trkpt lat="44.18058035397402" lon="11.05735718539644"><ele>347.0</ele><time>2026-04-28T10:24:59.884Z</time></trkpt><trkpt lat="44.18070949860015" lon="11.057248187867069"><ele>348.6666666666667</ele><time>2026-04-28T10:25:00.887Z</time></trkpt><trkpt lat="44.18085190866732" lon="11.05717178878967"><ele>350.3333333333333</ele><time>2026-04-28T10:25:01.889Z</time></trkpt><trkpt lat="44.18101056179436" lon="11.057124582282317"><ele>352.0</ele><time>2026-04-28T10:25:02.891Z</time></trkpt><trkpt lat="44.18117296189128" lon="11.057101240632662"><ele>352.0</ele><time>2026-04-28T10:25:03.893Z</time></trkpt><trkpt lat="44.18134032020925" lon="11.057119193675186"><ele>352.0</ele><time>2026-04-28T10:25:04.895Z</time></trkpt><trkpt lat="44.181492344674446" lon="11.057110853486781"><ele>352.0</ele><time>2026-04-28T10:25:05.896Z</time></trkpt><trkpt lat="44.181637177530035" lon="11.057124556952429"><ele>350.25</ele><time>2026-04-28T10:25:06.898Z</time></trkpt><trkpt lat="44.18176622892217" lon="11.057123569620785"><ele>348.5</ele><time>2026-04-28T10:25:07.899Z</time></trkpt><trkpt lat="44.18188579219209" lon="11.057076269432073"><ele>346.75</ele><time>2026-04-28T10:25:08.901Z</time></trkpt><trkpt lat="44.181999726597155" lon="11.056974619147764"><ele>345.0</ele><time>2026-04-28T10:25:09.902Z</time></trkpt><trkpt lat="44.18209770868593" lon="11.056836153713776"><ele>345.0</ele><time>2026-04-28T10:25:10.903Z</time></trkpt><trkpt lat="44.18219369171091" lon="11.056690598690736"><ele>345.0</ele><time>2026-04-28T10:25:11.904Z</time></trkpt><trkpt lat="44.182301417332994" lon="11.056564727994392"><ele>345.0</ele><time>2026-04-28T10:25:12.905Z</time></trkpt><trkpt lat="44.18242148925304" lon="11.056488186088268"><ele>345.0</ele><time>2026-04-28T10:25:13.906Z</time></trkpt><trkpt lat="44.18252233619221" lon="11.05639351155147"><ele>345.8</ele><time>2026-04-28T10:25:14.907Z</time></trkpt><trkpt lat="44.18260147218532" lon="11.056264235455007"><ele>346.6</ele><time>2026-04-28T10:25:15.908Z</time></trkpt><trkpt lat="44.18261718987699" lon="11.056091621638195"><ele>347.4</ele><time>2026-04-28T10:25:16.909Z</time></trkpt><trkpt lat="44.18265879713419" lon="11.055966709560176"><ele>348.2</ele><time>2026-04-28T10:25:17.91Z</time></trkpt><trkpt lat="44.18269841973514" lon="11.055842605279535"><ele>349.0</ele><time>2026-04-28T10:25:18.911Z</time></trkpt><trkpt lat="44.18276750283184" lon="11.055748211000138"><ele>349.0</ele><time>2026-04-28T10:25:19.911Z</time></trkpt><trkpt lat="44.18286095589843" lon="11.055720597130193"><ele>349.0</ele><time>2026-04-28T10:25:20.912Z</time></trkpt><trkpt lat="44.182965217932086" lon="11.055716928492396"><ele>349.0</ele><time>2026-04-28T10:25:21.913Z</time></trkpt><trkpt lat="44.18307403321435" lon="11.055805159249791"><ele>349.0</ele><time>2026-04-28T10:25:22.913Z</time></trkpt><trkpt lat="44.18317305716082" lon="11.055899625071671"><ele>349.0</ele><time>2026-04-28T10:25:23.914Z</time></trkpt><trkpt lat="44.18330371900359" lon="11.055940168742888"><ele>345.75</ele><time>2026-04-28T10:25:24.914Z</time></trkpt><trkpt lat="44.18344430346575" lon="11.05592686339629"><ele>342.5</ele><time>2026-04-28T10:25:25.915Z</time></trkpt><trkpt lat="44.183574760357025" lon="11.055922645092545"><ele>339.25</ele><time>2026-04-28T10:25:26.915Z</time></trkpt><trkpt lat="44.18370679908119" lon="11.055959567211886"><ele>336.0</ele><time>2026-04-28T10:25:27.916Z</time></trkpt><trkpt lat="44.18381886843195" lon="11.056046256794373"><ele>336.0</ele><time>2026-04-28T10:25:28.916Z</time></trkpt><trkpt lat="44.183909967412" lon="11.0561296925391"><ele>336.0</ele><time>2026-04-28T10:25:29.916Z</time></trkpt><trkpt lat="44.18400817052855" lon="11.056154506293392"><ele>336.0</ele><time>2026-04-28T10:25:30.917Z</time></trkpt><trkpt lat="44.18409403913356" lon="11.056152627337486"><ele>336.0</ele><time>2026-04-28T10:25:31.917Z</time></trkpt><trkpt lat="44.18419275635381" lon="11.056095292674218"><ele>336.0</ele><time>2026-04-28T10:25:32.917Z</time></trkpt><trkpt lat="44.18428148508466" lon="11.055993648770425"><ele>335.6</ele><time>2026-04-28T10:25:33.918Z</time></trkpt><trkpt lat="44.18436061083945" lon="11.055899717828144"><ele>335.20000000000005</ele><time>2026-04-28T10:25:34.918Z</time></trkpt><trkpt lat="44.18445810969062" lon="11.055846910157141"><ele>334.79999999999995</ele><time>2026-04-28T10:25:35.918Z</time></trkpt><trkpt lat="44.184567100370245" lon="11.055850789126458"><ele>334.4</ele><time>2026-04-28T10:25:36.918Z</time></trkpt><trkpt lat="44.18466708343899" lon="11.05591419893574"><ele>334.0</ele><time>2026-04-28T10:25:37.919Z</time></trkpt><trkpt lat="44.18474757621222" lon="11.056023011267271"><ele>334.0</ele><time>2026-04-28T10:25:38.919Z</time></trkpt><trkpt lat="44.184817907707824" lon="11.05613651326926"><ele>334.0</ele><time>2026-04-28T10:25:39.919Z</time></trkpt><trkpt lat="44.18490829501535" lon="11.056220832619967"><ele>334.0</ele><time>2026-04-28T10:25:40.919Z</time></trkpt><trkpt lat="44.18501792170516" lon="11.056270669480334"><ele>334.0</ele><time>2026-04-28T10:25:41.919Z</time></trkpt><trkpt lat="44.185129605025125" lon="11.056286400530478"><ele>334.0</ele><time>2026-04-28T10:25:42.92Z</time></trkpt><trkpt lat="44.18524612176301" lon="11.05626476585835"><ele>334.0</ele><time>2026-04-28T10:25:43.92Z</time></trkpt><trkpt lat="44.18537281954518" lon="11.056219924411872"><ele>334.0</ele><time>2026-04-28T10:25:44.92Z</time></trkpt><trkpt lat="44.18549974942301" lon="11.056149737276506"><ele>334.0</ele><time>2026-04-28T10:25:45.92Z</time></trkpt><trkpt lat="44.18563311626767" lon="11.05608321966064"><ele>334.0</ele><time>2026-04-28T10:25:46.92Z</time></trkpt><trkpt lat="44.18577842541441" lon="11.056053822415434"><ele>333.0</ele><time>2026-04-28T10:25:47.92Z</time></trkpt><trkpt lat="44.18591911299989" lon="11.056061897666192"><ele>332.0</ele><time>2026-04-28T10:25:48.92Z</time></trkpt><trkpt lat="44.18606872869611" lon="11.056099889809085"><ele>331.0</ele><time>2026-04-28T10:25:49.92Z</time></trkpt><trkpt lat="44.18622052703462" lon="11.0561395172209"><ele>330.0</ele><time>2026-04-28T10:25:50.921Z</time></trkpt><trkpt lat="44.18637983138786" lon="11.056187727753482"><ele>329.0</ele><time>2026-04-28T10:25:51.921Z</time></trkpt><trkpt lat="44.186530210840814" lon="11.056227709488088"><ele>328.0</ele><time>2026-04-28T10:25:52.921Z</time></trkpt><trkpt lat="44.18667651341073" lon="11.056257084523038"><ele>327.0</ele><time>2026-04-28T10:25:53.921Z</time></trkpt><trkpt lat="44.186815449022845" lon="11.056285945968357"><ele>326.0</ele><time>2026-04-28T10:25:54.921Z</time></trkpt><trkpt lat="44.1869482630699" lon="11.056296493398332"><ele>326.0</ele><time>2026-04-28T10:25:55.921Z</time></trkpt><trkpt lat="44.18708294697529" lon="11.056266685059152"><ele>326.0</ele><time>2026-04-28T10:25:56.921Z</time></trkpt><trkpt lat="44.187210912772876" lon="11.056196783630705"><ele>326.0</ele><time>2026-04-28T10:25:57.921Z</time></trkpt><trkpt lat="44.18733886604151" lon="11.056088232468626"><ele>326.0</ele><time>2026-04-28T10:25:58.921Z</time></trkpt><trkpt lat="44.187465264014016" lon="11.055966918381067"><ele>327.6666666666667</ele><time>2026-04-28T10:25:59.921Z</time></trkpt><trkpt lat="44.18760586422958" lon="11.055860697373998"><ele>329.3333333333333</ele><time>2026-04-28T10:26:00.921Z</time></trkpt><trkpt lat="44.18775488152542" lon="11.055775792622732"><ele>331.0</ele><time>2026-04-28T10:26:01.921Z</time></trkpt><trkpt lat="44.1879123949941" lon="11.055724975745713"><ele>331.0</ele><time>2026-04-28T10:26:02.922Z</time></trkpt><trkpt lat="44.18807460909753" lon="11.05568110503661"><ele>331.0</ele><time>2026-04-28T10:26:03.922Z</time></trkpt><trkpt lat="44.18822454658291" lon="11.055635018134078"><ele>331.0</ele><time>2026-04-28T10:26:04.922Z</time></trkpt><trkpt lat="44.18835465530072" lon="11.055585370389034"><ele>329.5</ele><time>2026-04-28T10:26:05.922Z</time></trkpt><trkpt lat="44.18849014268705" lon="11.055548042193399"><ele>328.0</ele><time>2026-04-28T10:26:06.922Z</time></trkpt><trkpt lat="44.188631679764185" lon="11.055530067806275"><ele>326.5</ele><time>2026-04-28T10:26:07.922Z</time></trkpt><trkpt lat="44.188771179828926" lon="11.055553631218256"><ele>325.0</ele><time>2026-04-28T10:26:08.922Z</time></trkpt><trkpt lat="44.188904767286665" lon="11.05561259078021"><ele>324.0</ele><time>2026-04-28T10:26:09.922Z</time></trkpt><trkpt lat="44.189043719296244" lon="11.055702547088174"><ele>323.0</ele><time>2026-04-28T10:26:10.922Z</time></trkpt><trkpt lat="44.18918738945318" lon="11.055797017876117"><ele>322.0</ele><time>2026-04-28T10:26:11.922Z</time></trkpt><trkpt lat="44.18932224774825" lon="11.055877307088947"><ele>319.25</ele><time>2026-04-28T10:26:12.922Z</time></trkpt><trkpt lat="44.18945941750521" lon="11.055951222928973"><ele>316.5</ele><time>2026-04-28T10:26:13.922Z</time></trkpt><trkpt lat="44.18960299038597" lon="11.055994158350194"><ele>313.75</ele><time>2026-04-28T10:26:14.922Z</time></trkpt><trkpt lat="44.189751538191125" lon="11.05601103713228"><ele>311.0</ele><time>2026-04-28T10:26:15.922Z</time></trkpt><trkpt lat="44.189903266310424" lon="11.056008400187373"><ele>311.0</ele><time>2026-04-28T10:26:16.922Z</time></trkpt><trkpt lat="44.19005496346047" lon="11.055979345493384"><ele>311.0</ele><time>2026-04-28T10:26:17.922Z</time></trkpt><trkpt lat="44.190206608921905" lon="11.055940283986601"><ele>311.0</ele><time>2026-04-28T10:26:18.922Z</time></trkpt><trkpt lat="44.19035823617227" lon="11.055885196403883"><ele>311.0</ele><time>2026-04-28T10:26:19.922Z</time></trkpt><trkpt lat="44.19050117378391" lon="11.055793020183769"><ele>311.0</ele><time>2026-04-28T10:26:20.921Z</time></trkpt><trkpt lat="44.19063797368996" lon="11.055683180279642"><ele>311.0</ele><time>2026-04-28T10:26:21.922Z</time></trkpt><trkpt lat="44.19073800772208" lon="11.055520387906288"><ele>311.25</ele><time>2026-04-28T10:26:22.922Z</time></trkpt><trkpt lat="44.1908376135321" lon="11.05536946604431"><ele>311.5</ele><time>2026-04-28T10:26:23.921Z</time></trkpt><trkpt lat="44.19091062592924" lon="11.055185356447435"><ele>311.75</ele><time>2026-04-28T10:26:24.921Z</time></trkpt><trkpt lat="44.19098280743071" lon="11.055005796196301"><ele>312.0</ele><time>2026-04-28T10:26:25.922Z</time></trkpt><trkpt lat="44.191054232732306" lon="11.05483596682692"><ele>314.25</ele><time>2026-04-28T10:26:26.921Z</time></trkpt><trkpt lat="44.1911458468696" lon="11.05467913071596"><ele>316.5</ele><time>2026-04-28T10:26:27.921Z</time></trkpt><trkpt lat="44.19122010067263" lon="11.054521728248728"><ele>318.75</ele><time>2026-04-28T10:26:28.921Z</time></trkpt><trkpt lat="44.1913133434393" lon="11.05440739176436"><ele>321.0</ele><time>2026-04-28T10:26:29.921Z</time></trkpt><trkpt lat="44.19142268912237" lon="11.054344874627022"><ele>318.75</ele><time>2026-04-28T10:26:30.921Z</time></trkpt><trkpt lat="44.19153385154751" lon="11.054339205264634"><ele>316.5</ele><time>2026-04-28T10:26:31.921Z</time></trkpt><trkpt lat="44.19164329490864" lon="11.054360122660658"><ele>314.25</ele><time>2026-04-28T10:26:32.921Z</time></trkpt><trkpt lat="44.19177861097035" lon="11.054405740523867"><ele>312.0</ele><time>2026-04-28T10:26:33.921Z</time></trkpt><trkpt lat="44.19190573488993" lon="11.054463067898794"><ele>312.0</ele><time>2026-04-28T10:26:34.921Z</time></trkpt><trkpt lat="44.19203013988378" lon="11.054494181968801"><ele>312.0</ele><time>2026-04-28T10:26:35.921Z</time></trkpt><trkpt lat="44.192161339919345" lon="11.054455591059103"><ele>312.0</ele><time>2026-04-28T10:26:36.921Z</time></trkpt><trkpt lat="44.19230196719292" lon="11.054350013184743"><ele>312.0</ele><time>2026-04-28T10:26:37.921Z</time></trkpt><trkpt lat="44.1924531152325" lon="11.054202148392353"><ele>315.6666666666667</ele><time>2026-04-28T10:26:38.921Z</time></trkpt><trkpt lat="44.19261192031734" lon="11.054059552707683"><ele>319.33333333333337</ele><time>2026-04-28T10:26:39.921Z</time></trkpt><trkpt lat="44.192788496079004" lon="11.05392335963922"><ele>323.0</ele><time>2026-04-28T10:26:40.921Z</time></trkpt><trkpt lat="44.19298633701664" lon="11.053847564257874"><ele>315.5</ele><time>2026-04-28T10:26:41.921Z</time></trkpt><trkpt lat="44.19319011832563" lon="11.053730083886355"><ele>308.0</ele><time>2026-04-28T10:26:42.921Z</time></trkpt><trkpt lat="44.193407064777084" lon="11.053599830824124"><ele>308.0</ele><time>2026-04-28T10:26:43.921Z</time></trkpt><trkpt lat="44.19359381175214" lon="11.053453701078805"><ele>308.0</ele><time>2026-04-28T10:26:44.921Z</time></trkpt><trkpt lat="44.19377240712" lon="11.053352379500208"><ele>308.0</ele><time>2026-04-28T10:26:45.921Z</time></trkpt><trkpt lat="44.19395000167865" lon="11.053284636072009"><ele>309.0</ele><time>2026-04-28T10:26:46.922Z</time></trkpt><trkpt lat="44.19410391104816" lon="11.053224145099053"><ele>310.0</ele><time>2026-04-28T10:26:47.922Z</time></trkpt><trkpt lat="44.1942488878419" lon="11.053168708388627"><ele>311.0</ele><time>2026-04-28T10:26:48.922Z</time></trkpt><trkpt lat="44.194386667865984" lon="11.053104853353931"><ele>311.0</ele><time>2026-04-28T10:26:49.922Z</time></trkpt><trkpt lat="44.19453228625964" lon="11.053080067744203"><ele>311.0</ele><time>2026-04-28T10:26:50.922Z</time></trkpt><trkpt lat="44.19470412800614" lon="11.053069690813937"><ele>311.0</ele><time>2026-04-28T10:26:51.922Z</time></trkpt><trkpt lat="44.19487243584982" lon="11.05306927117245"><ele>309.33333333333337</ele><time>2026-04-28T10:26:52.922Z</time></trkpt><trkpt lat="44.19507294225453" lon="11.053115191718453"><ele>307.6666666666667</ele><time>2026-04-28T10:26:53.922Z</time></trkpt><trkpt lat="44.195261351973876" lon="11.053121902527321"><ele>306.0</ele><time>2026-04-28T10:26:54.922Z</time></trkpt><trkpt lat="44.195425834259254" lon="11.053152930724012"><ele>306.0</ele><time>2026-04-28T10:26:55.922Z</time></trkpt><trkpt lat="44.1955680536687" lon="11.053172930874384"><ele>306.0</ele><time>2026-04-28T10:26:56.922Z</time></trkpt><trkpt lat="44.19569326428268" lon="11.053165877138207"><ele>306.0</ele><time>2026-04-28T10:26:57.922Z</time></trkpt><trkpt lat="44.19582022136695" lon="11.053124194753803"><ele>306.0</ele><time>2026-04-28T10:26:58.922Z</time></trkpt><trkpt lat="44.19595336483827" lon="11.053029723530251"><ele>307.0</ele><time>2026-04-28T10:26:59.922Z</time></trkpt><trkpt lat="44.19610236988152" lon="11.052942883089147"><ele>308.0</ele><time>2026-04-28T10:27:00.922Z</time></trkpt><trkpt lat="44.19627981565617" lon="11.05291230688488"><ele>309.0</ele><time>2026-04-28T10:27:01.922Z</time></trkpt><trkpt lat="44.19646071600277" lon="11.052909284690186"><ele>308.0</ele><time>2026-04-28T10:27:02.922Z</time></trkpt><trkpt lat="44.196650916245936" lon="11.052902186406346"><ele>307.0</ele><time>2026-04-28T10:27:03.922Z</time></trkpt><trkpt lat="44.19683509051053" lon="11.052838474892567"><ele>306.0</ele><time>2026-04-28T10:27:04.922Z</time></trkpt><trkpt lat="44.196989947652575" lon="11.052774209905111"><ele>306.0</ele><time>2026-04-28T10:27:05.922Z</time></trkpt><trkpt lat="44.19713648719995" lon="11.052702275436076"><ele>306.0</ele><time>2026-04-28T10:27:06.922Z</time></trkpt><trkpt lat="44.19730001752335" lon="11.052713239896969"><ele>306.0</ele><time>2026-04-28T10:27:07.922Z</time></trkpt><trkpt lat="44.19748521017672" lon="11.05270124124422"><ele>302.3333333333333</ele><time>2026-04-28T10:27:08.922Z</time></trkpt><trkpt lat="44.19768923047939" lon="11.052707780232975"><ele>298.66666666666663</ele><time>2026-04-28T10:27:09.922Z</time></trkpt><trkpt lat="44.19790202109702" lon="11.05271474649574"><ele>295.0</ele><time>2026-04-28T10:27:10.922Z</time></trkpt><trkpt lat="44.19812991750103" lon="11.052716703306745"><ele>296.0</ele><time>2026-04-28T10:27:11.922Z</time></trkpt><trkpt lat="44.19836456560314" lon="11.052711881332112"><ele>297.0</ele><time>2026-04-28T10:27:12.922Z</time></trkpt><trkpt lat="44.19858536152773" lon="11.052713079554794"><ele>297.0</ele><time>2026-04-28T10:27:13.922Z</time></trkpt><trkpt lat="44.19879089479623" lon="11.05271555883345"><ele>297.0</ele><time>2026-04-28T10:27:14.922Z</time></trkpt><trkpt lat="44.198980059412136" lon="11.052716697246318"><ele>297.0</ele><time>2026-04-28T10:27:15.922Z</time></trkpt><trkpt lat="44.19914681211179" lon="11.052739636207214"><ele>296.3333333333333</ele><time>2026-04-28T10:27:16.922Z</time></trkpt><trkpt lat="44.199308918635225" lon="11.05278669662611"><ele>295.66666666666663</ele><time>2026-04-28T10:27:17.922Z</time></trkpt><trkpt lat="44.19945949237106" lon="11.052890722932123"><ele>295.0</ele><time>2026-04-28T10:27:18.922Z</time></trkpt><trkpt lat="44.19962971141891" lon="11.052964115333472"><ele>295.0</ele><time>2026-04-28T10:27:19.922Z</time></trkpt><trkpt lat="44.199808297553986" lon="11.053061851020175"><ele>295.0</ele><time>2026-04-28T10:27:20.922Z</time></trkpt><trkpt lat="44.19999080227881" lon="11.053143865019651"><ele>295.0</ele><time>2026-04-28T10:27:21.922Z</time></trkpt><trkpt lat="44.20019098578953" lon="11.053204136300595"><ele>293.66666666666663</ele><time>2026-04-28T10:27:22.922Z</time></trkpt><trkpt lat="44.20039677757938" lon="11.053253842910351"><ele>292.3333333333333</ele><time>2026-04-28T10:27:23.922Z</time></trkpt><trkpt lat="44.2005958054761" lon="11.053298301828955"><ele>291.0</ele><time>2026-04-28T10:27:24.922Z</time></trkpt><trkpt lat="44.20077697935639" lon="11.053352995028899"><ele>289.0</ele><time>2026-04-28T10:27:25.922Z</time></trkpt><trkpt lat="44.20095157885383" lon="11.053391285558936"><ele>287.0</ele><time>2026-04-28T10:27:26.922Z</time></trkpt><trkpt lat="44.201127135756316" lon="11.053431013386518"><ele>285.0</ele><time>2026-04-28T10:27:27.922Z</time></trkpt><trkpt lat="44.201309209754534" lon="11.053458430764286"><ele>285.0</ele><time>2026-04-28T10:27:28.922Z</time></trkpt><trkpt lat="44.20149737680606" lon="11.053535788443702"><ele>285.0</ele><time>2026-04-28T10:27:29.922Z</time></trkpt><trkpt lat="44.20166519176287" lon="11.053676287816804"><ele>285.0</ele><time>2026-04-28T10:27:30.922Z</time></trkpt><trkpt lat="44.20182899013515" lon="11.053819160861435"><ele>285.6666666666667</ele><time>2026-04-28T10:27:31.922Z</time></trkpt><trkpt lat="44.202012952830415" lon="11.053944683219688"><ele>286.33333333333337</ele><time>2026-04-28T10:27:32.922Z</time></trkpt><trkpt lat="44.202193084267385" lon="11.054051711850937"><ele>287.0</ele><time>2026-04-28T10:27:33.922Z</time></trkpt><trkpt lat="44.20236796981602" lon="11.054154692026383"><ele>287.0</ele><time>2026-04-28T10:27:34.922Z</time></trkpt><trkpt lat="44.202519521571645" lon="11.054243932203677"><ele>287.0</ele><time>2026-04-28T10:27:35.922Z</time></trkpt><trkpt lat="44.202653370019966" lon="11.054323896336168"><ele>287.0</ele><time>2026-04-28T10:27:36.922Z</time></trkpt><trkpt lat="44.20278392380325" lon="11.054417444648815"><ele>287.0</ele><time>2026-04-28T10:27:37.922Z</time></trkpt><trkpt lat="44.20290144719681" lon="11.05452349726352"><ele>287.0</ele><time>2026-04-28T10:27:38.922Z</time></trkpt><trkpt lat="44.20300630695448" lon="11.05464311973344"><ele>287.0</ele><time>2026-04-28T10:27:39.922Z</time></trkpt><trkpt lat="44.20311314258006" lon="11.054767125655221"><ele>287.0</ele><time>2026-04-28T10:27:40.922Z</time></trkpt><trkpt lat="44.203227692468054" lon="11.05489663159542"><ele>285.5</ele><time>2026-04-28T10:27:41.922Z</time></trkpt><trkpt lat="44.203340404298196" lon="11.055014734713287"><ele>284.0</ele><time>2026-04-28T10:27:42.922Z</time></trkpt><trkpt lat="44.20347286517422" lon="11.05512500047567"><ele>282.5</ele><time>2026-04-28T10:27:43.922Z</time></trkpt><trkpt lat="44.20357744874875" lon="11.055265414203259"><ele>281.0</ele><time>2026-04-28T10:27:44.923Z</time></trkpt><trkpt lat="44.20366565329013" lon="11.055438964123747"><ele>281.0</ele><time>2026-04-28T10:27:45.923Z</time></trkpt><trkpt lat="44.203760595279014" lon="11.055614135137441"><ele>281.0</ele><time>2026-04-28T10:27:46.923Z</time></trkpt><trkpt lat="44.20381030250653" lon="11.05580339485982"><ele>281.0</ele><time>2026-04-28T10:27:47.923Z</time></trkpt><trkpt lat="44.2038798081217" lon="11.055954154405834"><ele>281.0</ele><time>2026-04-28T10:27:48.923Z</time></trkpt><trkpt lat="44.20394174628033" lon="11.05610418335191"><ele>281.2</ele><time>2026-04-28T10:27:49.923Z</time></trkpt><trkpt lat="44.204001069308106" lon="11.056245382736728"><ele>281.40000000000003</ele><time>2026-04-28T10:27:50.923Z</time></trkpt><trkpt lat="44.20402004222299" lon="11.056406965064049"><ele>281.6</ele><time>2026-04-28T10:27:51.923Z</time></trkpt><trkpt lat="44.20406347842189" lon="11.056543742819487"><ele>281.8</ele><time>2026-04-28T10:27:52.923Z</time></trkpt><trkpt lat="44.20410443886922" lon="11.056663439273043"><ele>282.0</ele><time>2026-04-28T10:27:53.923Z</time></trkpt><trkpt lat="44.204164835060695" lon="11.05679204207718"><ele>282.0</ele><time>2026-04-28T10:27:54.923Z</time></trkpt><trkpt lat="44.204209777838244" lon="11.05695747209373"><ele>282.0</ele><time>2026-04-28T10:27:55.923Z</time></trkpt><trkpt lat="44.20425438535127" lon="11.05708807014511"><ele>282.0</ele><time>2026-04-28T10:27:56.923Z</time></trkpt><trkpt lat="44.204291650784" lon="11.05719212739215"><ele>282.0</ele><time>2026-04-28T10:27:57.923Z</time></trkpt><trkpt lat="44.20432682684749" lon="11.057283651885022"><ele>282.0</ele><time>2026-04-28T10:27:58.923Z</time></trkpt><trkpt lat="44.20435915139095" lon="11.057367160002057"><ele>282.0</ele><time>2026-04-28T10:27:59.923Z</time></trkpt><trkpt lat="44.20439420312343" lon="11.057443931497662"><ele>282.0</ele><time>2026-04-28T10:28:00.923Z</time></trkpt><trkpt lat="44.204447196556416" lon="11.057542298862096"><ele>282.0</ele><time>2026-04-28T10:28:02.923Z</time></trkpt><trkpt lat="44.20450930175444" lon="11.05759381932442"><ele>282.0</ele><time>2026-04-28T10:28:04.923Z</time></trkpt><trkpt lat="44.20467182969465" lon="11.05757022162381"><ele>282.0</ele><time>2026-04-28T10:28:06.923Z</time></trkpt><trkpt lat="44.20478778376716" lon="11.057551120172507"><ele>282.6</ele><time>2026-04-28T10:28:07.923Z</time></trkpt><trkpt lat="44.2048963319085" lon="11.05753684738751"><ele>283.2</ele><time>2026-04-28T10:28:08.923Z</time></trkpt><trkpt lat="44.205002212931355" lon="11.05752491082639"><ele>283.8</ele><time>2026-04-28T10:28:09.923Z</time></trkpt><trkpt lat="44.20509293258322" lon="11.057514219065888"><ele>284.4</ele><time>2026-04-28T10:28:10.923Z</time></trkpt><trkpt lat="44.2051750276028" lon="11.057499234840979"><ele>285.0</ele><time>2026-04-28T10:28:11.923Z</time></trkpt><trkpt lat="44.205249966437535" lon="11.057481224824922"><ele>285.0</ele><time>2026-04-28T10:28:12.923Z</time></trkpt><trkpt lat="44.20531935115049" lon="11.057489686992213"><ele>285.0</ele><time>2026-04-28T10:28:13.923Z</time></trkpt><trkpt lat="44.205384595760954" lon="11.057481532445214"><ele>285.0</ele><time>2026-04-28T10:28:14.923Z</time></trkpt><trkpt lat="44.205455227243526" lon="11.05746876891695"><ele>285.0</ele><time>2026-04-28T10:28:15.923Z</time></trkpt><trkpt lat="44.205537761386424" lon="11.057459990158922"><ele>285.0</ele><time>2026-04-28T10:28:16.923Z</time></trkpt><trkpt lat="44.205622175008884" lon="11.057448982227404"><ele>285.0</ele><time>2026-04-28T10:28:17.923Z</time></trkpt><trkpt lat="44.20571446711118" lon="11.057430887896864"><ele>286.6</ele><time>2026-04-28T10:28:18.923Z</time></trkpt><trkpt lat="44.20581865208445" lon="11.05739984965902"><ele>288.2</ele><time>2026-04-28T10:28:19.923Z</time></trkpt><trkpt lat="44.2059189507814" lon="11.057368392193984"><ele>289.8</ele><time>2026-04-28T10:28:20.923Z</time></trkpt><trkpt lat="44.20601830570878" lon="11.05735883123888"><ele>291.4</ele><time>2026-04-28T10:28:21.923Z</time></trkpt><trkpt lat="44.20610857661449" lon="11.057339904991423"><ele>293.0</ele><time>2026-04-28T10:28:22.924Z</time></trkpt><trkpt lat="44.20618818301515" lon="11.057313205634491"><ele>293.0</ele><time>2026-04-28T10:28:23.923Z</time></trkpt><trkpt lat="44.206258453900084" lon="11.057285704757831"><ele>293.0</ele><time>2026-04-28T10:28:24.923Z</time></trkpt><trkpt lat="44.20633706975128" lon="11.057254302101272"><ele>293.0</ele><time>2026-04-28T10:28:25.924Z</time></trkpt><trkpt lat="44.20641725541618" lon="11.057219365036401"><ele>293.0</ele><time>2026-04-28T10:28:26.923Z</time></trkpt><trkpt lat="44.20650276233868" lon="11.057192120745679"><ele>293.0</ele><time>2026-04-28T10:28:27.923Z</time></trkpt><trkpt lat="44.20658956134183" lon="11.057165967839497"><ele>293.0</ele><time>2026-04-28T10:28:28.924Z</time></trkpt><trkpt lat="44.20668120292789" lon="11.057142518155686"><ele>292.8</ele><time>2026-04-28T10:28:29.924Z</time></trkpt><trkpt lat="44.20677566711165" lon="11.05712488428321"><ele>292.6</ele><time>2026-04-28T10:28:30.924Z</time></trkpt><trkpt lat="44.20687079499839" lon="11.057103932238679"><ele>292.4</ele><time>2026-04-28T10:28:31.924Z</time></trkpt><trkpt lat="44.20697906503376" lon="11.05708575547256"><ele>292.2</ele><time>2026-04-28T10:28:32.924Z</time></trkpt><trkpt lat="44.207084281678874" lon="11.057071618813126"><ele>292.0</ele><time>2026-04-28T10:28:33.924Z</time></trkpt><trkpt lat="44.207204629708805" lon="11.057061656657202"><ele>292.0</ele><time>2026-04-28T10:28:34.924Z</time></trkpt><trkpt lat="44.20731207693259" lon="11.057047827260059"><ele>292.0</ele><time>2026-04-28T10:28:35.923Z</time></trkpt><trkpt lat="44.20742613660428" lon="11.057026709314457"><ele>292.0</ele><time>2026-04-28T10:28:36.923Z</time></trkpt><trkpt lat="44.20754058451182" lon="11.05700439723985"><ele>292.0</ele><time>2026-04-28T10:28:37.924Z</time></trkpt><trkpt lat="44.20765693794441" lon="11.057010199731678"><ele>291.4</ele><time>2026-04-28T10:28:38.924Z</time></trkpt><trkpt lat="44.20776242835578" lon="11.05704170178299"><ele>290.79999999999995</ele><time>2026-04-28T10:28:39.924Z</time></trkpt><trkpt lat="44.20785543696309" lon="11.057103034642257"><ele>290.2</ele><time>2026-04-28T10:28:40.924Z</time></trkpt><trkpt lat="44.207938328819594" lon="11.057200466449897"><ele>289.59999999999997</ele><time>2026-04-28T10:28:41.924Z</time></trkpt><trkpt lat="44.208013498126334" lon="11.057318847622954"><ele>289.0</ele><time>2026-04-28T10:28:42.924Z</time></trkpt><trkpt lat="44.20806724898195" lon="11.057443943073952"><ele>288.59999999999997</ele><time>2026-04-28T10:28:43.924Z</time></trkpt><trkpt lat="44.20813540464163" lon="11.057554170889661"><ele>288.2</ele><time>2026-04-28T10:28:44.924Z</time></trkpt><trkpt lat="44.20822563905869" lon="11.057641484489855"><ele>287.79999999999995</ele><time>2026-04-28T10:28:45.924Z</time></trkpt><trkpt lat="44.20833012532983" lon="11.05770146265181"><ele>287.4</ele><time>2026-04-28T10:28:46.924Z</time></trkpt><trkpt lat="44.20844156596154" lon="11.057729450608557"><ele>287.0</ele><time>2026-04-28T10:28:47.924Z</time></trkpt><trkpt lat="44.20855769277032" lon="11.05771745597363"><ele>287.0</ele><time>2026-04-28T10:28:48.924Z</time></trkpt><trkpt lat="44.20867285198857" lon="11.057666577040841"><ele>287.0</ele><time>2026-04-28T10:28:49.924Z</time></trkpt><trkpt lat="44.208789284121174" lon="11.057577930923543"><ele>287.0</ele><time>2026-04-28T10:28:50.924Z</time></trkpt><trkpt lat="44.20890883672812" lon="11.057482134285022"><ele>287.0</ele><time>2026-04-28T10:28:51.924Z</time></trkpt><trkpt lat="44.209029969728235" lon="11.057419113979211"><ele>285.75</ele><time>2026-04-28T10:28:52.924Z</time></trkpt><trkpt lat="44.209167448368" lon="11.057376034910657"><ele>284.5</ele><time>2026-04-28T10:28:53.924Z</time></trkpt><trkpt lat="44.20930318043967" lon="11.057407237526713"><ele>283.25</ele><time>2026-04-28T10:28:54.924Z</time></trkpt><trkpt lat="44.20945530705417" lon="11.05743997744054"><ele>282.0</ele><time>2026-04-28T10:28:55.924Z</time></trkpt><trkpt lat="44.20961485026351" lon="11.057497120997294"><ele>282.0</ele><time>2026-04-28T10:28:56.924Z</time></trkpt><trkpt lat="44.20977881512679" lon="11.057557833950561"><ele>282.0</ele><time>2026-04-28T10:28:57.924Z</time></trkpt><trkpt lat="44.20993710571118" lon="11.057593710124154"><ele>282.0</ele><time>2026-04-28T10:28:58.924Z</time></trkpt><trkpt lat="44.210073977883404" lon="11.057667893809336"><ele>283.0</ele><time>2026-04-28T10:28:59.924Z</time></trkpt><trkpt lat="44.21022592581718" lon="11.057697436230823"><ele>284.0</ele><time>2026-04-28T10:29:00.924Z</time></trkpt><trkpt lat="44.21038770109298" lon="11.057693570815506"><ele>285.0</ele><time>2026-04-28T10:29:01.924Z</time></trkpt><trkpt lat="44.21053548598807" lon="11.057634570876525"><ele>285.6666666666667</ele><time>2026-04-28T10:29:02.924Z</time></trkpt><trkpt lat="44.2106884828319" lon="11.057573010837972"><ele>286.33333333333337</ele><time>2026-04-28T10:29:03.924Z</time></trkpt><trkpt lat="44.21084084520823" lon="11.057486691561092"><ele>287.0</ele><time>2026-04-28T10:29:04.924Z</time></trkpt><trkpt lat="44.21100611813101" lon="11.057389069979122"><ele>293.33333333333337</ele><time>2026-04-28T10:29:05.924Z</time></trkpt><trkpt lat="44.21117956901717" lon="11.057311358450644"><ele>299.6666666666667</ele><time>2026-04-28T10:29:06.924Z</time></trkpt><trkpt lat="44.21133556301483" lon="11.05725306586533"><ele>306.0</ele><time>2026-04-28T10:29:07.924Z</time></trkpt><trkpt lat="44.21147522770037" lon="11.057187701929202"><ele>304.0</ele><time>2026-04-28T10:29:08.924Z</time></trkpt><trkpt lat="44.211602589531715" lon="11.057120777952242"><ele>302.0</ele><time>2026-04-28T10:29:09.924Z</time></trkpt><trkpt lat="44.21173963854693" lon="11.05708596076261"><ele>300.0</ele><time>2026-04-28T10:29:10.924Z</time></trkpt><trkpt lat="44.21186940224198" lon="11.057022963584274"><ele>298.0</ele><time>2026-04-28T10:29:11.924Z</time></trkpt><trkpt lat="44.21201646096" lon="11.057008170493361"><ele>298.0</ele><time>2026-04-28T10:29:12.924Z</time></trkpt><trkpt lat="44.21217286777764" lon="11.057027901728018"><ele>298.0</ele><time>2026-04-28T10:29:13.924Z</time></trkpt><trkpt lat="44.21233359702167" lon="11.057110447982165"><ele>298.0</ele><time>2026-04-28T10:29:14.924Z</time></trkpt><trkpt lat="44.21249104618347" lon="11.057206695292741"><ele>299.66666666666663</ele><time>2026-04-28T10:29:15.924Z</time></trkpt><trkpt lat="44.21265224899155" lon="11.057322494438253"><ele>301.3333333333333</ele><time>2026-04-28T10:29:16.924Z</time></trkpt><trkpt lat="44.21281707346733" lon="11.05743680212884"><ele>303.0</ele><time>2026-04-28T10:29:17.924Z</time></trkpt><trkpt lat="44.212965572910925" lon="11.057540813557512"><ele>300.3333333333333</ele><time>2026-04-28T10:29:18.924Z</time></trkpt><trkpt lat="44.21311404660051" lon="11.057628509171744"><ele>297.66666666666663</ele><time>2026-04-28T10:29:19.924Z</time></trkpt><trkpt lat="44.21323876391305" lon="11.057764756754844"><ele>295.0</ele><time>2026-04-28T10:29:20.924Z</time></trkpt><trkpt lat="44.213347485941725" lon="11.057935484199728"><ele>295.0</ele><time>2026-04-28T10:29:21.924Z</time></trkpt><trkpt lat="44.2134500181283" lon="11.058086598160498"><ele>295.0</ele><time>2026-04-28T10:29:22.924Z</time></trkpt><trkpt lat="44.21353880781258" lon="11.058254576783632"><ele>295.0</ele><time>2026-04-28T10:29:23.924Z</time></trkpt><trkpt lat="44.213645931665724" lon="11.058397515398902"><ele>295.0</ele><time>2026-04-28T10:29:24.924Z</time></trkpt><trkpt lat="44.2137807925754" lon="11.058508432152559"><ele>294.0</ele><time>2026-04-28T10:29:25.924Z</time></trkpt><trkpt lat="44.21393506557158" lon="11.058575404251958"><ele>293.0</ele><time>2026-04-28T10:29:26.924Z</time></trkpt><trkpt lat="44.21409890992254" lon="11.058611310288555"><ele>292.0</ele><time>2026-04-28T10:29:27.924Z</time></trkpt><trkpt lat="44.214266029434555" lon="11.058643303127015"><ele>292.0</ele><time>2026-04-28T10:29:28.924Z</time></trkpt><trkpt lat="44.21441942902988" lon="11.05867009189488"><ele>292.0</ele><time>2026-04-28T10:29:29.924Z</time></trkpt><trkpt lat="44.21456067790791" lon="11.058693058514146"><ele>292.0</ele><time>2026-04-28T10:29:30.924Z</time></trkpt><trkpt lat="44.2147079731286" lon="11.058690517890573"><ele>292.0</ele><time>2026-04-28T10:29:31.924Z</time></trkpt><trkpt lat="44.21485383207628" lon="11.05863801597976"><ele>292.0</ele><time>2026-04-28T10:29:32.924Z</time></trkpt><trkpt lat="44.215001886578186" lon="11.058546356130082"><ele>292.0</ele><time>2026-04-28T10:29:33.924Z</time></trkpt><trkpt lat="44.21513986807623" lon="11.058424841881202"><ele>292.0</ele><time>2026-04-28T10:29:34.924Z</time></trkpt><trkpt lat="44.21527184968416" lon="11.058325889269092"><ele>293.66666666666663</ele><time>2026-04-28T10:29:35.924Z</time></trkpt><trkpt lat="44.21542265457204" lon="11.058245586117446"><ele>295.3333333333333</ele><time>2026-04-28T10:29:36.924Z</time></trkpt><trkpt lat="44.21558927983968" lon="11.05819375402683"><ele>297.0</ele><time>2026-04-28T10:29:37.925Z</time></trkpt><trkpt lat="44.215752480134356" lon="11.058177857972124"><ele>297.0</ele><time>2026-04-28T10:29:38.925Z</time></trkpt><trkpt lat="44.21590531412705" lon="11.05816661147361"><ele>297.0</ele><time>2026-04-28T10:29:39.925Z</time></trkpt><trkpt lat="44.21605076655985" lon="11.058138209003271"><ele>297.0</ele><time>2026-04-28T10:29:40.925Z</time></trkpt><trkpt lat="44.21617269817192" lon="11.058148437612333"><ele>297.0</ele><time>2026-04-28T10:29:41.925Z</time></trkpt><trkpt lat="44.21629123594217" lon="11.058100893590714"><ele>297.0</ele><time>2026-04-28T10:29:42.925Z</time></trkpt><trkpt lat="44.21641476763764" lon="11.058061895671974"><ele>297.0</ele><time>2026-04-28T10:29:43.925Z</time></trkpt><trkpt lat="44.21652688547046" lon="11.057942223534"><ele>297.0</ele><time>2026-04-28T10:29:44.925Z</time></trkpt><trkpt lat="44.216625258416784" lon="11.057775772683067"><ele>297.0</ele><time>2026-04-28T10:29:45.925Z</time></trkpt><trkpt lat="44.21671746210819" lon="11.057613466078012"><ele>297.0</ele><time>2026-04-28T10:29:46.925Z</time></trkpt><trkpt lat="44.21681102028448" lon="11.057461419730291"><ele>297.0</ele><time>2026-04-28T10:29:47.925Z</time></trkpt><trkpt lat="44.21692022937276" lon="11.05732114024936"><ele>297.0</ele><time>2026-04-28T10:29:48.925Z</time></trkpt><trkpt lat="44.21704005057995" lon="11.057198624433376"><ele>297.0</ele><time>2026-04-28T10:29:49.925Z</time></trkpt><trkpt lat="44.21720110033998" lon="11.057141504832476"><ele>296.0</ele><time>2026-04-28T10:29:50.925Z</time></trkpt><trkpt lat="44.21738267730939" lon="11.057075261163881"><ele>295.0</ele><time>2026-04-28T10:29:51.925Z</time></trkpt><trkpt lat="44.2175630443718" lon="11.056994882131443"><ele>294.0</ele><time>2026-04-28T10:29:52.925Z</time></trkpt><trkpt lat="44.21776509367185" lon="11.056933876328522"><ele>294.0</ele><time>2026-04-28T10:29:53.925Z</time></trkpt><trkpt lat="44.21796209353693" lon="11.056886144412008"><ele>294.0</ele><time>2026-04-28T10:29:54.925Z</time></trkpt><trkpt lat="44.21815003754051" lon="11.05685878660718"><ele>294.0</ele><time>2026-04-28T10:29:55.925Z</time></trkpt><trkpt lat="44.218347765713425" lon="11.05682832288871"><ele>292.0</ele><time>2026-04-28T10:29:56.925Z</time></trkpt><trkpt lat="44.21856732422129" lon="11.056800237560084"><ele>290.0</ele><time>2026-04-28T10:29:57.925Z</time></trkpt><trkpt lat="44.21877324817755" lon="11.056769397448857"><ele>288.0</ele><time>2026-04-28T10:29:58.925Z</time></trkpt><trkpt lat="44.218971086803656" lon="11.0567414815399"><ele>289.0</ele><time>2026-04-28T10:29:59.925Z</time></trkpt><trkpt lat="44.21915490721077" lon="11.056714097830085"><ele>290.0</ele><time>2026-04-28T10:30:00.925Z</time></trkpt><trkpt lat="44.21932127610482" lon="11.056687240431089"><ele>291.0</ele><time>2026-04-28T10:30:01.925Z</time></trkpt><trkpt lat="44.21947172747791" lon="11.05667925558969"><ele>291.0</ele><time>2026-04-28T10:30:02.925Z</time></trkpt><trkpt lat="44.21961796588245" lon="11.056690162256073"><ele>291.0</ele><time>2026-04-28T10:30:03.925Z</time></trkpt><trkpt lat="44.21974625588646" lon="11.056712608283917"><ele>291.0</ele><time>2026-04-28T10:30:04.925Z</time></trkpt><trkpt lat="44.21987292526116" lon="11.056744154649836"><ele>291.0</ele><time>2026-04-28T10:30:05.925Z</time></trkpt><trkpt lat="44.22001975240629" lon="11.05678339166233"><ele>294.0</ele><time>2026-04-28T10:30:06.925Z</time></trkpt><trkpt lat="44.22018025794673" lon="11.056833079429557"><ele>297.0</ele><time>2026-04-28T10:30:07.925Z</time></trkpt><trkpt lat="44.22034634221343" lon="11.056924743070223"><ele>300.0</ele><time>2026-04-28T10:30:08.925Z</time></trkpt><trkpt lat="44.22050815106678" lon="11.057017077823101"><ele>303.0</ele><time>2026-04-28T10:30:09.925Z</time></trkpt><trkpt lat="44.220668709299474" lon="11.057107151351639"><ele>306.0</ele><time>2026-04-28T10:30:10.925Z</time></trkpt><trkpt lat="44.22080913858494" lon="11.057189488014386"><ele>309.0</ele><time>2026-04-28T10:30:11.925Z</time></trkpt><trkpt lat="44.22093722994446" lon="11.057266615125602"><ele>309.0</ele><time>2026-04-28T10:30:12.925Z</time></trkpt><trkpt lat="44.22105654150539" lon="11.057341179004565"><ele>309.0</ele><time>2026-04-28T10:30:13.925Z</time></trkpt><trkpt lat="44.22116941714579" lon="11.05743271695944"><ele>309.0</ele><time>2026-04-28T10:30:14.925Z</time></trkpt><trkpt lat="44.22127326376332" lon="11.057527108530959"><ele>309.0</ele><time>2026-04-28T10:30:15.925Z</time></trkpt><trkpt lat="44.22138277998558" lon="11.057601250955502"><ele>308.5</ele><time>2026-04-28T10:30:16.925Z</time></trkpt><trkpt lat="44.22148184582618" lon="11.057718612970765"><ele>308.0</ele><time>2026-04-28T10:30:17.925Z</time></trkpt><trkpt lat="44.22158087312647" lon="11.057808520132422"><ele>307.5</ele><time>2026-04-28T10:30:18.925Z</time></trkpt><trkpt lat="44.22167175173985" lon="11.057882378634094"><ele>307.0</ele><time>2026-04-28T10:30:19.925Z</time></trkpt><trkpt lat="44.22177587361807" lon="11.057950501687953"><ele>307.0</ele><time>2026-04-28T10:30:20.925Z</time></trkpt><trkpt lat="44.221889307983545" lon="11.058004545010673"><ele>307.0</ele><time>2026-04-28T10:30:21.925Z</time></trkpt><trkpt lat="44.22201482387802" lon="11.058047102834392"><ele>307.0</ele><time>2026-04-28T10:30:22.925Z</time></trkpt><trkpt lat="44.222147038549195" lon="11.05806956033798"><ele>307.0</ele><time>2026-04-28T10:30:23.925Z</time></trkpt><trkpt lat="44.22228052622999" lon="11.058075086538897"><ele>307.25</ele><time>2026-04-28T10:30:24.925Z</time></trkpt><trkpt lat="44.22241098803" lon="11.05810086128499"><ele>307.5</ele><time>2026-04-28T10:30:25.925Z</time></trkpt><trkpt lat="44.222528369689684" lon="11.0580799936899"><ele>307.75</ele><time>2026-04-28T10:30:26.925Z</time></trkpt><trkpt lat="44.22265018249997" lon="11.05806587536024"><ele>308.0</ele><time>2026-04-28T10:30:27.925Z</time></trkpt><trkpt lat="44.22275824778555" lon="11.058058412295775"><ele>308.0</ele><time>2026-04-28T10:30:28.926Z</time></trkpt><trkpt lat="44.22285595953817" lon="11.05806923000283"><ele>308.0</ele><time>2026-04-28T10:30:29.926Z</time></trkpt><trkpt lat="44.22294713635626" lon="11.058096017685257"><ele>308.0</ele><time>2026-04-28T10:30:30.926Z</time></trkpt><trkpt lat="44.223035595487424" lon="11.058131090001819"><ele>308.0</ele><time>2026-04-28T10:30:31.925Z</time></trkpt><trkpt lat="44.223122323830175" lon="11.05817814559795"><ele>308.0</ele><time>2026-04-28T10:30:32.926Z</time></trkpt><trkpt lat="44.223201415560794" lon="11.058241285788549"><ele>307.4</ele><time>2026-04-28T10:30:33.926Z</time></trkpt><trkpt lat="44.22326695761369" lon="11.058331022797887"><ele>306.8</ele><time>2026-04-28T10:30:34.926Z</time></trkpt><trkpt lat="44.22331013565351" lon="11.058446276650773"><ele>306.2</ele><time>2026-04-28T10:30:35.926Z</time></trkpt><trkpt lat="44.223329757338874" lon="11.058585054531315"><ele>305.6</ele><time>2026-04-28T10:30:36.926Z</time></trkpt><trkpt lat="44.223316198545966" lon="11.058716934402833"><ele>305.0</ele><time>2026-04-28T10:30:37.926Z</time></trkpt><trkpt lat="44.22326769686619" lon="11.058842726584604"><ele>305.0</ele><time>2026-04-28T10:30:38.925Z</time></trkpt><trkpt lat="44.22319092907411" lon="11.058988956321068"><ele>305.0</ele><time>2026-04-28T10:30:39.925Z</time></trkpt><trkpt lat="44.22311458900561" lon="11.059137596256848"><ele>305.0</ele><time>2026-04-28T10:30:40.926Z</time></trkpt><trkpt lat="44.223054297133345" lon="11.05928976865209"><ele>305.0</ele><time>2026-04-28T10:30:41.925Z</time></trkpt><trkpt lat="44.22301480444984" lon="11.059441909956623"><ele>305.4</ele><time>2026-04-28T10:30:42.925Z</time></trkpt><trkpt lat="44.22299805750214" lon="11.059591699138178"><ele>305.8</ele><time>2026-04-28T10:30:43.925Z</time></trkpt><trkpt lat="44.223004840111464" lon="11.059739515613682"><ele>306.2</ele><time>2026-04-28T10:30:44.925Z</time></trkpt><trkpt lat="44.22303972395267" lon="11.059873430072138"><ele>306.6</ele><time>2026-04-28T10:30:45.925Z</time></trkpt><trkpt lat="44.22311054125432" lon="11.060014030128988"><ele>307.0</ele><time>2026-04-28T10:30:46.925Z</time></trkpt><trkpt lat="44.223198123599076" lon="11.060154953238966"><ele>307.0</ele><time>2026-04-28T10:30:47.925Z</time></trkpt><trkpt lat="44.223271784911965" lon="11.060311557596423"><ele>307.0</ele><time>2026-04-28T10:30:48.925Z</time></trkpt><trkpt lat="44.22331460798703" lon="11.060473794294634"><ele>307.0</ele><time>2026-04-28T10:30:49.925Z</time></trkpt><trkpt lat="44.22335285176941" lon="11.060627221577864"><ele>307.0</ele><time>2026-04-28T10:30:50.925Z</time></trkpt><trkpt lat="44.22341234002442" lon="11.060766376512607"><ele>301.75</ele><time>2026-04-28T10:30:51.925Z</time></trkpt><trkpt lat="44.223492647087454" lon="11.060882375719327"><ele>296.5</ele><time>2026-04-28T10:30:52.925Z</time></trkpt><trkpt lat="44.22360485726461" lon="11.060959542435025"><ele>291.25</ele><time>2026-04-28T10:30:53.925Z</time></trkpt><trkpt lat="44.223731082542976" lon="11.060979115498668"><ele>286.0</ele><time>2026-04-28T10:30:54.925Z</time></trkpt><trkpt lat="44.22385103612248" lon="11.060926977879697"><ele>286.0</ele><time>2026-04-28T10:30:55.925Z</time></trkpt><trkpt lat="44.223971722708335" lon="11.060834276991406"><ele>286.0</ele><time>2026-04-28T10:30:56.925Z</time></trkpt><trkpt lat="44.22409754119168" lon="11.060718914709788"><ele>286.0</ele><time>2026-04-28T10:30:57.925Z</time></trkpt><trkpt lat="44.22423550017185" lon="11.060598358948514"><ele>293.66666666666663</ele><time>2026-04-28T10:30:58.925Z</time></trkpt><trkpt lat="44.22438001533058" lon="11.060472904602907"><ele>301.3333333333333</ele><time>2026-04-28T10:30:59.925Z</time></trkpt><trkpt lat="44.22453186876698" lon="11.060339621408092"><ele>309.0</ele><time>2026-04-28T10:31:00.925Z</time></trkpt><trkpt lat="44.22467965483124" lon="11.060198130929997"><ele>309.0</ele><time>2026-04-28T10:31:01.926Z</time></trkpt><trkpt lat="44.22479855113914" lon="11.060015817852634"><ele>309.0</ele><time>2026-04-28T10:31:02.926Z</time></trkpt><trkpt lat="44.224911870593886" lon="11.059846831443151"><ele>309.0</ele><time>2026-04-28T10:31:03.926Z</time></trkpt><trkpt lat="44.22501962585021" lon="11.059680908589153"><ele>304.75</ele><time>2026-04-28T10:31:04.926Z</time></trkpt><trkpt lat="44.22512573132151" lon="11.059544745418226"><ele>300.5</ele><time>2026-04-28T10:31:05.926Z</time></trkpt><trkpt lat="44.22521167507441" lon="11.059411485437971"><ele>296.25</ele><time>2026-04-28T10:31:06.926Z</time></trkpt><trkpt lat="44.225297938649526" lon="11.059282236418666"><ele>292.0</ele><time>2026-04-28T10:31:07.926Z</time></trkpt><trkpt lat="44.22538582992865" lon="11.059167639718261"><ele>291.25</ele><time>2026-04-28T10:31:08.926Z</time></trkpt><trkpt lat="44.225486260611824" lon="11.059074258289495"><ele>290.5</ele><time>2026-04-28T10:31:09.926Z</time></trkpt><trkpt lat="44.22560199014622" lon="11.059031581266263"><ele>289.75</ele><time>2026-04-28T10:31:10.926Z</time></trkpt><trkpt lat="44.22574028916263" lon="11.059023812492535"><ele>289.0</ele><time>2026-04-28T10:31:11.926Z</time></trkpt><trkpt lat="44.22587671146005" lon="11.059043431629581"><ele>289.0</ele><time>2026-04-28T10:31:12.926Z</time></trkpt><trkpt lat="44.2260223189138" lon="11.059071891043898"><ele>289.0</ele><time>2026-04-28T10:31:13.926Z</time></trkpt><trkpt lat="44.22615903167875" lon="11.059094191031988"><ele>289.0</ele><time>2026-04-28T10:31:14.926Z</time></trkpt><trkpt lat="44.226284902419685" lon="11.059112278670032"><ele>289.0</ele><time>2026-04-28T10:31:15.926Z</time></trkpt><trkpt lat="44.22641310293049" lon="11.059129998196696"><ele>286.5</ele><time>2026-04-28T10:31:16.926Z</time></trkpt><trkpt lat="44.22653693815876" lon="11.05913359878453"><ele>284.0</ele><time>2026-04-28T10:31:17.926Z</time></trkpt><trkpt lat="44.22666860193306" lon="11.059119273246553"><ele>281.5</ele><time>2026-04-28T10:31:18.926Z</time></trkpt><trkpt lat="44.2268031349168" lon="11.059076498548311"><ele>279.0</ele><time>2026-04-28T10:31:19.926Z</time></trkpt><trkpt lat="44.22692638787782" lon="11.059010735025153"><ele>279.0</ele><time>2026-04-28T10:31:20.926Z</time></trkpt><trkpt lat="44.22704711092667" lon="11.058920973703042"><ele>279.0</ele><time>2026-04-28T10:31:21.926Z</time></trkpt><trkpt lat="44.22715044016895" lon="11.058817143533133"><ele>279.0</ele><time>2026-04-28T10:31:22.926Z</time></trkpt><trkpt lat="44.22725813387917" lon="11.058712379801781"><ele>279.0</ele><time>2026-04-28T10:31:23.926Z</time></trkpt><trkpt lat="44.22733700237335" lon="11.058545503944059"><ele>275.6666666666667</ele><time>2026-04-28T10:31:24.926Z</time></trkpt><trkpt lat="44.22741934591086" lon="11.058360631872512"><ele>272.33333333333337</ele><time>2026-04-28T10:31:25.926Z</time></trkpt><trkpt lat="44.227495086723465" lon="11.058156893283687"><ele>269.0</ele><time>2026-04-28T10:31:26.926Z</time></trkpt><trkpt lat="44.22758776014531" lon="11.057973069368748"><ele>269.0</ele><time>2026-04-28T10:31:27.926Z</time></trkpt><trkpt lat="44.22766193457685" lon="11.057795538065145"><ele>269.0</ele><time>2026-04-28T10:31:28.926Z</time></trkpt><trkpt lat="44.22773025382053" lon="11.057627784522456"><ele>269.0</ele><time>2026-04-28T10:31:29.926Z</time></trkpt><trkpt lat="44.227797215741575" lon="11.057465321538055"><ele>269.0</ele><time>2026-04-28T10:31:30.926Z</time></trkpt><trkpt lat="44.2278562633328" lon="11.057291103437798"><ele>271.75</ele><time>2026-04-28T10:31:31.926Z</time></trkpt><trkpt lat="44.22793490734699" lon="11.057154755364422"><ele>274.5</ele><time>2026-04-28T10:31:32.926Z</time></trkpt><trkpt lat="44.228021993125125" lon="11.057039634980852"><ele>277.25</ele><time>2026-04-28T10:31:33.926Z</time></trkpt><trkpt lat="44.22812816658273" lon="11.056950627752173"><ele>280.0</ele><time>2026-04-28T10:31:34.926Z</time></trkpt><trkpt lat="44.22822074518979" lon="11.056850285096658"><ele>277.75</ele><time>2026-04-28T10:31:35.926Z</time></trkpt><trkpt lat="44.22829934850086" lon="11.056725936128316"><ele>275.5</ele><time>2026-04-28T10:31:36.926Z</time></trkpt><trkpt lat="44.22839312411773" lon="11.056621513579456"><ele>273.25</ele><time>2026-04-28T10:31:37.926Z</time></trkpt><trkpt lat="44.228486171374726" lon="11.05653011330835"><ele>271.0</ele><time>2026-04-28T10:31:38.926Z</time></trkpt><trkpt lat="44.228587681596885" lon="11.056450069975014"><ele>271.0</ele><time>2026-04-28T10:31:39.926Z</time></trkpt><trkpt lat="44.22870219935584" lon="11.056420984050064"><ele>271.0</ele><time>2026-04-28T10:31:40.926Z</time></trkpt><trkpt lat="44.228814936939386" lon="11.056372619940165"><ele>271.0</ele><time>2026-04-28T10:31:41.926Z</time></trkpt><trkpt lat="44.22891198325605" lon="11.056344461028681"><ele>271.0</ele><time>2026-04-28T10:31:42.926Z</time></trkpt><trkpt lat="44.228999255947585" lon="11.056294554148653"><ele>271.0</ele><time>2026-04-28T10:31:43.926Z</time></trkpt><trkpt lat="44.22908008103238" lon="11.056233903361694"><ele>267.8</ele><time>2026-04-28T10:31:44.926Z</time></trkpt><trkpt lat="44.229109504438604" lon="11.056088347293791"><ele>264.6</ele><time>2026-04-28T10:31:45.926Z</time></trkpt><trkpt lat="44.229130980155496" lon="11.055968230128471"><ele>261.4</ele><time>2026-04-28T10:31:46.926Z</time></trkpt><trkpt lat="44.22915824814137" lon="11.055851176966689"><ele>258.2</ele><time>2026-04-28T10:31:47.926Z</time></trkpt><trkpt lat="44.229192265097225" lon="11.05576999942307"><ele>255.0</ele><time>2026-04-28T10:31:48.926Z</time></trkpt><trkpt lat="44.229301692588834" lon="11.055690423533724"><ele>255.0</ele><time>2026-04-28T10:31:50.926Z</time></trkpt><trkpt lat="44.229376356956756" lon="11.055678435416903"><ele>255.0</ele><time>2026-04-28T10:31:51.926Z</time></trkpt><trkpt lat="44.22945999771872" lon="11.055695275800666"><ele>255.0</ele><time>2026-04-28T10:31:52.926Z</time></trkpt><trkpt lat="44.22954278976104" lon="11.055733737243928"><ele>255.0</ele><time>2026-04-28T10:31:53.926Z</time></trkpt><trkpt lat="44.229624199925134" lon="11.055728358903666"><ele>255.0</ele><time>2026-04-28T10:31:54.926Z</time></trkpt><trkpt lat="44.22969351185179" lon="11.055744616551928"><ele>255.0</ele><time>2026-04-28T10:31:55.926Z</time></trkpt><trkpt lat="44.22976104411152" lon="11.055762952000084"><ele>253.0</ele><time>2026-04-28T10:31:56.926Z</time></trkpt><trkpt lat="44.22982359338342" lon="11.055782062342754"><ele>251.0</ele><time>2026-04-28T10:31:57.926Z</time></trkpt><trkpt lat="44.229940859173865" lon="11.055801325491696"><ele>249.0</ele><time>2026-04-28T10:31:59.926Z</time></trkpt><trkpt lat="44.23004313820317" lon="11.055821753062274"><ele>247.0</ele><time>2026-04-28T10:32:01.927Z</time></trkpt><trkpt lat="44.23013908853625" lon="11.05584766278125"><ele>245.0</ele><time>2026-04-28T10:32:03.927Z</time></trkpt><trkpt lat="44.230229323448505" lon="11.055872611408155"><ele>244.8</ele><time>2026-04-28T10:32:05.927Z</time></trkpt><trkpt lat="44.230294343422706" lon="11.055881794590615"><ele>244.6</ele><time>2026-04-28T10:32:07.927Z</time></trkpt><trkpt lat="44.23037484522339" lon="11.055892489247286"><ele>244.39999999999998</ele><time>2026-04-28T10:32:09.927Z</time></trkpt><trkpt lat="44.230455475928885" lon="11.055910675125292"><ele>244.2</ele><time>2026-04-28T10:32:12.927Z</time></trkpt><trkpt lat="44.23059763351088" lon="11.056009765291233"><ele>244.0</ele><time>2026-04-28T10:32:54.928Z</time></trkpt><trkpt lat="44.23060729365483" lon="11.05613985732321"><ele>244.0</ele><time>2026-04-28T10:32:56.928Z</time></trkpt><trkpt lat="44.23051590228911" lon="11.056291881097561"><ele>243.99999999999997</ele><time>2026-04-28T10:32:58.928Z</time></trkpt><trkpt lat="44.230448999504226" lon="11.056369579965649"><ele>243.99999999999997</ele><time>2026-04-28T10:32:59.928Z</time></trkpt><trkpt lat="44.230387407654234" lon="11.056449893314248"><ele>244.0</ele><time>2026-04-28T10:33:00.928Z</time></trkpt><trkpt lat="44.23033084495941" lon="11.056536563532827"><ele>244.0</ele><time>2026-04-28T10:33:01.928Z</time></trkpt><trkpt lat="44.230258440453" lon="11.056624506123297"><ele>244.6</ele><time>2026-04-28T10:33:02.928Z</time></trkpt><trkpt lat="44.23020154952468" lon="11.056746861071645"><ele>245.2</ele><time>2026-04-28T10:33:03.928Z</time></trkpt><trkpt lat="44.23015780478638" lon="11.056871930652676"><ele>245.79999999999998</ele><time>2026-04-28T10:33:04.928Z</time></trkpt><trkpt lat="44.23012338327495" lon="11.057010581909905"><ele>246.39999999999998</ele><time>2026-04-28T10:33:05.928Z</time></trkpt><trkpt lat="44.23011046339581" lon="11.057163915815444"><ele>247.0</ele><time>2026-04-28T10:33:06.928Z</time></trkpt><trkpt lat="44.23007458807769" lon="11.057286816115775"><ele>247.0</ele><time>2026-04-28T10:33:07.928Z</time></trkpt><trkpt lat="44.23005479725623" lon="11.05740779429756"><ele>247.0</ele><time>2026-04-28T10:33:08.928Z</time></trkpt><trkpt lat="44.23003763658907" lon="11.057554045797486"><ele>247.0</ele><time>2026-04-28T10:33:09.928Z</time></trkpt><trkpt lat="44.2300283580544" lon="11.057690068088855"><ele>247.0</ele><time>2026-04-28T10:33:10.928Z</time></trkpt><trkpt lat="44.23001629684256" lon="11.057824025880622"><ele>247.0</ele><time>2026-04-28T10:33:11.928Z</time></trkpt><trkpt lat="44.22998752311785" lon="11.057974413069452"><ele>247.75</ele><time>2026-04-28T10:33:12.928Z</time></trkpt><trkpt lat="44.229978323472494" lon="11.058133904518058"><ele>248.5</ele><time>2026-04-28T10:33:13.928Z</time></trkpt><trkpt lat="44.229977151526036" lon="11.058290656936686"><ele>249.25</ele><time>2026-04-28T10:33:14.928Z</time></trkpt><trkpt lat="44.22998584658926" lon="11.058458258896819"><ele>250.0</ele><time>2026-04-28T10:33:15.928Z</time></trkpt><trkpt lat="44.229994469339424" lon="11.058620923816413"><ele>251.0</ele><time>2026-04-28T10:33:16.928Z</time></trkpt><trkpt lat="44.23000584631387" lon="11.058787327871125"><ele>252.0</ele><time>2026-04-28T10:33:17.928Z</time></trkpt><trkpt lat="44.23001709634395" lon="11.05894706793855"><ele>253.0</ele><time>2026-04-28T10:33:18.928Z</time></trkpt><trkpt lat="44.23002436957602" lon="11.05910185769088"><ele>254.0</ele><time>2026-04-28T10:33:19.928Z</time></trkpt><trkpt lat="44.23004276126446" lon="11.059257737278834"><ele>254.0</ele><time>2026-04-28T10:33:20.928Z</time></trkpt><trkpt lat="44.230042237303145" lon="11.059422561326773"><ele>254.0</ele><time>2026-04-28T10:33:21.928Z</time></trkpt><trkpt lat="44.230046500902404" lon="11.059597903848282"><ele>254.0</ele><time>2026-04-28T10:33:22.928Z</time></trkpt><trkpt lat="44.23003095105864" lon="11.059799368393199"><ele>254.0</ele><time>2026-04-28T10:33:23.928Z</time></trkpt><trkpt lat="44.23004136630495" lon="11.05997695899348"><ele>255.25</ele><time>2026-04-28T10:33:24.928Z</time></trkpt><trkpt lat="44.23004980007612" lon="11.060157770222984"><ele>256.5</ele><time>2026-04-28T10:33:25.928Z</time></trkpt><trkpt lat="44.23005250041453" lon="11.060344115255456"><ele>257.75</ele><time>2026-04-28T10:33:26.928Z</time></trkpt><trkpt lat="44.23005208736833" lon="11.060519263014388"><ele>259.0</ele><time>2026-04-28T10:33:27.928Z</time></trkpt><trkpt lat="44.23003827497377" lon="11.060685024965512"><ele>261.2</ele><time>2026-04-28T10:33:28.928Z</time></trkpt><trkpt lat="44.229999851403306" lon="11.060841522937231"><ele>263.4</ele><time>2026-04-28T10:33:29.928Z</time></trkpt><trkpt lat="44.229940151981815" lon="11.060975531233305"><ele>265.6</ele><time>2026-04-28T10:33:30.928Z</time></trkpt><trkpt lat="44.22986173536502" lon="11.061090124837513"><ele>267.8</ele><time>2026-04-28T10:33:31.928Z</time></trkpt><trkpt lat="44.229781581371164" lon="11.061180105240224"><ele>270.0</ele><time>2026-04-28T10:33:32.928Z</time></trkpt><trkpt lat="44.22969704453694" lon="11.061273969451957"><ele>266.4</ele><time>2026-04-28T10:33:33.928Z</time></trkpt><trkpt lat="44.22961485550284" lon="11.061383165984212"><ele>262.8</ele><time>2026-04-28T10:33:34.928Z</time></trkpt><trkpt lat="44.229550483993336" lon="11.061481227067464"><ele>259.2</ele><time>2026-04-28T10:33:35.928Z</time></trkpt><trkpt lat="44.229493617584126" lon="11.061597272138995"><ele>255.6</ele><time>2026-04-28T10:33:36.928Z</time></trkpt><trkpt lat="44.229468146819215" lon="11.06172631956057"><ele>252.0</ele><time>2026-04-28T10:33:37.928Z</time></trkpt><trkpt lat="44.22947024881428" lon="11.061870168368689"><ele>252.0</ele><time>2026-04-28T10:33:38.928Z</time></trkpt><trkpt lat="44.229503706466495" lon="11.062020650922904"><ele>252.0</ele><time>2026-04-28T10:33:39.928Z</time></trkpt><trkpt lat="44.22955204458533" lon="11.062175727230992"><ele>252.0</ele><time>2026-04-28T10:33:40.928Z</time></trkpt><trkpt lat="44.229610388241554" lon="11.062336383961005"><ele>252.0</ele><time>2026-04-28T10:33:41.928Z</time></trkpt><trkpt lat="44.22968160935634" lon="11.062513007672692"><ele>251.75</ele><time>2026-04-28T10:33:42.928Z</time></trkpt><trkpt lat="44.229760498506174" lon="11.06266625095505"><ele>251.5</ele><time>2026-04-28T10:33:43.928Z</time></trkpt><trkpt lat="44.22984688155556" lon="11.062803451286966"><ele>251.25</ele><time>2026-04-28T10:33:44.928Z</time></trkpt><trkpt lat="44.22992958743462" lon="11.062943695200062"><ele>251.0</ele><time>2026-04-28T10:33:45.928Z</time></trkpt><trkpt lat="44.23000141408081" lon="11.063083949399369"><ele>253.8</ele><time>2026-04-28T10:33:46.928Z</time></trkpt><trkpt lat="44.23005768433624" lon="11.063225908922234"><ele>256.6</ele><time>2026-04-28T10:33:47.928Z</time></trkpt><trkpt lat="44.23008503138882" lon="11.06337249602036"><ele>259.4</ele><time>2026-04-28T10:33:48.928Z</time></trkpt><trkpt lat="44.23014987592279" lon="11.06348265095044"><ele>262.2</ele><time>2026-04-28T10:33:49.928Z</time></trkpt><trkpt lat="44.23023186275293" lon="11.063583039483786"><ele>265.0</ele><time>2026-04-28T10:33:50.929Z</time></trkpt><trkpt lat="44.23032925489401" lon="11.063679809530045"><ele>265.0</ele><time>2026-04-28T10:33:51.929Z</time></trkpt><trkpt lat="44.230448302116436" lon="11.063744502248769"><ele>265.0</ele><time>2026-04-28T10:33:52.929Z</time></trkpt><trkpt lat="44.23057222350061" lon="11.063799844333474"><ele>265.0</ele><time>2026-04-28T10:33:53.929Z</time></trkpt><trkpt lat="44.230688033280295" lon="11.063910847439443"><ele>265.0</ele><time>2026-04-28T10:33:54.929Z</time></trkpt><trkpt lat="44.23080750430717" lon="11.063987744793657"><ele>264.75</ele><time>2026-04-28T10:33:55.929Z</time></trkpt><trkpt lat="44.23091359421787" lon="11.064063782411674"><ele>264.5</ele><time>2026-04-28T10:33:56.929Z</time></trkpt><trkpt lat="44.23102522299839" lon="11.064136871747255"><ele>264.25</ele><time>2026-04-28T10:33:57.929Z</time></trkpt><trkpt lat="44.23113557644826" lon="11.064242773339325"><ele>264.0</ele><time>2026-04-28T10:33:58.929Z</time></trkpt><trkpt lat="44.23122916624887" lon="11.064372025695983"><ele>264.0</ele><time>2026-04-28T10:33:59.929Z</time></trkpt><trkpt lat="44.23131453677799" lon="11.06450017600464"><ele>264.0</ele><time>2026-04-28T10:34:00.929Z</time></trkpt><trkpt lat="44.231381743119016" lon="11.064669462641984"><ele>264.0</ele><time>2026-04-28T10:34:01.929Z</time></trkpt><trkpt lat="44.231477024484576" lon="11.064821564734766"><ele>264.0</ele><time>2026-04-28T10:34:02.929Z</time></trkpt><trkpt lat="44.23155056069065" lon="11.06499739135669"><ele>264.5</ele><time>2026-04-28T10:34:03.929Z</time></trkpt><trkpt lat="44.231624749178025" lon="11.065177059198229"><ele>265.0</ele><time>2026-04-28T10:34:04.929Z</time></trkpt><trkpt lat="44.23170420141556" lon="11.06535938270674"><ele>265.5</ele><time>2026-04-28T10:34:05.929Z</time></trkpt><trkpt lat="44.23178051696905" lon="11.065534087915104"><ele>266.0</ele><time>2026-04-28T10:34:06.929Z</time></trkpt><trkpt lat="44.23185288120506" lon="11.065700798233738"><ele>264.75</ele><time>2026-04-28T10:34:07.929Z</time></trkpt><trkpt lat="44.23192404313351" lon="11.065867958504334"><ele>263.5</ele><time>2026-04-28T10:34:08.929Z</time></trkpt><trkpt lat="44.23199536892743" lon="11.06603815214484"><ele>262.25</ele><time>2026-04-28T10:34:09.929Z</time></trkpt><trkpt lat="44.23206348551534" lon="11.066206375518508"><ele>261.0</ele><time>2026-04-28T10:34:10.929Z</time></trkpt><trkpt lat="44.23212549774975" lon="11.066384148912066"><ele>261.0</ele><time>2026-04-28T10:34:11.929Z</time></trkpt><trkpt lat="44.23219936798592" lon="11.066557772165414"><ele>261.0</ele><time>2026-04-28T10:34:12.929Z</time></trkpt><trkpt lat="44.23229797233207" lon="11.066710192159329"><ele>261.0</ele><time>2026-04-28T10:34:13.929Z</time></trkpt><trkpt lat="44.23237456186035" lon="11.066879749729553"><ele>261.0</ele><time>2026-04-28T10:34:14.929Z</time></trkpt><trkpt lat="44.232448256128336" lon="11.067039919428439"><ele>262.0</ele><time>2026-04-28T10:34:15.929Z</time></trkpt><trkpt lat="44.23252989606009" lon="11.067202520517611"><ele>263.0</ele><time>2026-04-28T10:34:16.929Z</time></trkpt><trkpt lat="44.23261222063016" lon="11.067369227878128"><ele>264.0</ele><time>2026-04-28T10:34:17.929Z</time></trkpt><trkpt lat="44.23267616893836" lon="11.067538050776488"><ele>265.0</ele><time>2026-04-28T10:34:18.929Z</time></trkpt><trkpt lat="44.2327513655195" lon="11.067690415072137"><ele>265.0</ele><time>2026-04-28T10:34:19.929Z</time></trkpt><trkpt lat="44.232827852296964" lon="11.067845391097562"><ele>265.0</ele><time>2026-04-28T10:34:20.929Z</time></trkpt><trkpt lat="44.232903507247826" lon="11.067971092201715"><ele>265.0</ele><time>2026-04-28T10:34:21.929Z</time></trkpt><trkpt lat="44.2329802733367" lon="11.068068973272467"><ele>265.0</ele><time>2026-04-28T10:34:22.929Z</time></trkpt><trkpt lat="44.23308279182454" lon="11.068114153614292"><ele>271.25</ele><time>2026-04-28T10:34:23.929Z</time></trkpt><trkpt lat="44.233200096513016" lon="11.068126357959665"><ele>277.5</ele><time>2026-04-28T10:34:24.929Z</time></trkpt><trkpt lat="44.23332944187206" lon="11.068123641436536"><ele>283.75</ele><time>2026-04-28T10:34:25.929Z</time></trkpt><trkpt lat="44.233454978633794" lon="11.068183146035008"><ele>290.0</ele><time>2026-04-28T10:34:26.929Z</time></trkpt><trkpt lat="44.23356838614862" lon="11.068239103159325"><ele>285.8</ele><time>2026-04-28T10:34:27.929Z</time></trkpt><trkpt lat="44.23367538519423" lon="11.068291526968867"><ele>281.6</ele><time>2026-04-28T10:34:28.929Z</time></trkpt><trkpt lat="44.2337625218352" lon="11.068395625684122"><ele>277.4</ele><time>2026-04-28T10:34:29.929Z</time></trkpt><trkpt lat="44.23382092531714" lon="11.068524471176962"><ele>273.2</ele><time>2026-04-28T10:34:30.929Z</time></trkpt><trkpt lat="44.23381592943384" lon="11.068669680885922"><ele>269.0</ele><time>2026-04-28T10:34:31.929Z</time></trkpt><trkpt lat="44.23382370995958" lon="11.06882135910593"><ele>269.0</ele><time>2026-04-28T10:34:32.929Z</time></trkpt><trkpt lat="44.23386215308522" lon="11.068956388686399"><ele>269.0</ele><time>2026-04-28T10:34:33.929Z</time></trkpt><trkpt lat="44.23391628245171" lon="11.069068273775398"><ele>269.0</ele><time>2026-04-28T10:34:34.929Z</time></trkpt><trkpt lat="44.233991271642616" lon="11.069183716048213"><ele>269.0</ele><time>2026-04-28T10:34:35.929Z</time></trkpt><trkpt lat="44.234114449488324" lon="11.069250052353594"><ele>269.0</ele><time>2026-04-28T10:34:36.929Z</time></trkpt><trkpt lat="44.234248839273086" lon="11.069321902166129"><ele>269.0</ele><time>2026-04-28T10:34:37.929Z</time></trkpt><trkpt lat="44.23438265361992" lon="11.069371048218324"><ele>269.0</ele><time>2026-04-28T10:34:38.929Z</time></trkpt><trkpt lat="44.234528653457225" lon="11.069420918887616"><ele>269.0</ele><time>2026-04-28T10:34:39.929Z</time></trkpt><trkpt lat="44.23468009079427" lon="11.06946792555145"><ele>269.0</ele><time>2026-04-28T10:34:40.93Z</time></trkpt><trkpt lat="44.234839625756145" lon="11.06950737996115"><ele>269.0</ele><time>2026-04-28T10:34:41.929Z</time></trkpt><trkpt lat="44.23500035752004" lon="11.069538414686274"><ele>269.0</ele><time>2026-04-28T10:34:42.929Z</time></trkpt><trkpt lat="44.23514718678917" lon="11.069563143776538"><ele>269.0</ele><time>2026-04-28T10:34:43.93Z</time></trkpt><trkpt lat="44.23529516117013" lon="11.069565628463256"><ele>269.0</ele><time>2026-04-28T10:34:44.93Z</time></trkpt><trkpt lat="44.23543265971673" lon="11.069605131503499"><ele>269.0</ele><time>2026-04-28T10:34:45.93Z</time></trkpt><trkpt lat="44.23557698674372" lon="11.069631777039037"><ele>269.0</ele><time>2026-04-28T10:34:46.93Z</time></trkpt><trkpt lat="44.23572104215052" lon="11.069649466260227"><ele>269.0</ele><time>2026-04-28T10:34:47.93Z</time></trkpt><trkpt lat="44.23586380307038" lon="11.069664200170937"><ele>269.75</ele><time>2026-04-28T10:34:48.93Z</time></trkpt><trkpt lat="44.23600218917081" lon="11.069671768044032"><ele>270.5</ele><time>2026-04-28T10:34:49.93Z</time></trkpt><trkpt lat="44.236152847464425" lon="11.069684858489898"><ele>271.25</ele><time>2026-04-28T10:34:50.93Z</time></trkpt><trkpt lat="44.236304162404096" lon="11.069701509137927"><ele>272.0</ele><time>2026-04-28T10:34:51.93Z</time></trkpt><trkpt lat="44.23643379211532" lon="11.069772752570604"><ele>272.0</ele><time>2026-04-28T10:34:52.93Z</time></trkpt><trkpt lat="44.23656913209487" lon="11.069847582211045"><ele>272.0</ele><time>2026-04-28T10:34:53.93Z</time></trkpt><trkpt lat="44.236702075052996" lon="11.069917819212852"><ele>272.0</ele><time>2026-04-28T10:34:54.93Z</time></trkpt><trkpt lat="44.236821901785966" lon="11.06998112667538"><ele>272.0</ele><time>2026-04-28T10:34:55.93Z</time></trkpt><trkpt lat="44.23693615725688" lon="11.070039752747405"><ele>268.83333333333337</ele><time>2026-04-28T10:34:56.93Z</time></trkpt><trkpt lat="44.23703502029411" lon="11.070086763962474"><ele>265.6666666666667</ele><time>2026-04-28T10:34:57.93Z</time></trkpt><trkpt lat="44.23711933228161" lon="11.07012365494414"><ele>262.5</ele><time>2026-04-28T10:34:58.93Z</time></trkpt><trkpt lat="44.23718349589925" lon="11.070146985681333"><ele>259.3333333333333</ele><time>2026-04-28T10:34:59.93Z</time></trkpt><trkpt lat="44.23725297026807" lon="11.070171600931575"><ele>256.16666666666663</ele><time>2026-04-28T10:35:00.93Z</time></trkpt><trkpt lat="44.23733019372576" lon="11.070089876949904"><ele>253.0</ele><time>2026-04-28T10:35:01.93Z</time></trkpt><trkpt lat="44.23737869202524" lon="11.070033244478891"><ele>252.49999999999997</ele><time>2026-04-28T10:35:02.93Z</time></trkpt><trkpt lat="44.23743742181894" lon="11.069951121741948"><ele>252.0</ele><time>2026-04-28T10:35:03.93Z</time></trkpt><trkpt lat="44.237484274750365" lon="11.069845142320208"><ele>251.5</ele><time>2026-04-28T10:35:04.93Z</time></trkpt><trkpt lat="44.23753319311432" lon="11.069727359636566"><ele>251.0</ele><time>2026-04-28T10:35:05.93Z</time></trkpt><trkpt lat="44.23757790593065" lon="11.069627977382199"><ele>250.49999999999997</ele><time>2026-04-28T10:35:06.93Z</time></trkpt><trkpt lat="44.237638110906055" lon="11.06955980799755"><ele>250.0</ele><time>2026-04-28T10:35:07.93Z</time></trkpt><trkpt lat="44.23771156850197" lon="11.069520569746246"><ele>250.0</ele><time>2026-04-28T10:35:08.93Z</time></trkpt><trkpt lat="44.23779722510952" lon="11.069520193212297"><ele>250.0</ele><time>2026-04-28T10:35:09.93Z</time></trkpt><trkpt lat="44.23789062367438" lon="11.06956948034869"><ele>250.0</ele><time>2026-04-28T10:35:10.93Z</time></trkpt><trkpt lat="44.23796579687728" lon="11.0696634645903"><ele>250.0</ele><time>2026-04-28T10:35:11.93Z</time></trkpt><trkpt lat="44.238039871046176" lon="11.069794748593635"><ele>250.0</ele><time>2026-04-28T10:35:12.93Z</time></trkpt><trkpt lat="44.23810839800024" lon="11.06994467739632"><ele>249.0</ele><time>2026-04-28T10:35:13.93Z</time></trkpt><trkpt lat="44.2381970786784" lon="11.070042841731473"><ele>248.0</ele><time>2026-04-28T10:35:14.93Z</time></trkpt><trkpt lat="44.23825920240156" lon="11.070222984577404"><ele>247.0</ele><time>2026-04-28T10:35:15.93Z</time></trkpt><trkpt lat="44.238332101793176" lon="11.07037910978651"><ele>246.0</ele><time>2026-04-28T10:35:16.93Z</time></trkpt><trkpt lat="44.23840619735729" lon="11.070527816576005"><ele>246.0</ele><time>2026-04-28T10:35:17.93Z</time></trkpt><trkpt lat="44.2384771176331" lon="11.070685074444167"><ele>246.0</ele><time>2026-04-28T10:35:18.931Z</time></trkpt><trkpt lat="44.2385501212538" lon="11.070851517137626"><ele>246.0</ele><time>2026-04-28T10:35:19.931Z</time></trkpt><trkpt lat="44.23862750645956" lon="11.071026285429761"><ele>246.0</ele><time>2026-04-28T10:35:20.931Z</time></trkpt><trkpt lat="44.23871068774137" lon="11.071216660319855"><ele>244.66666666666669</ele><time>2026-04-28T10:35:21.931Z</time></trkpt><trkpt lat="44.23879488231156" lon="11.071419739246261"><ele>243.33333333333334</ele><time>2026-04-28T10:35:22.931Z</time></trkpt><trkpt lat="44.23888290603212" lon="11.071629766918335"><ele>242.0</ele><time>2026-04-28T10:35:23.931Z</time></trkpt><trkpt lat="44.23897183003598" lon="11.071845975784363"><ele>240.0</ele><time>2026-04-28T10:35:24.931Z</time></trkpt><trkpt lat="44.2390583584604" lon="11.072071490594974"><ele>238.0</ele><time>2026-04-28T10:35:25.931Z</time></trkpt><trkpt lat="44.239156441644205" lon="11.072296541875971"><ele>236.0</ele><time>2026-04-28T10:35:26.931Z</time></trkpt><trkpt lat="44.23925476441718" lon="11.072524385217179"><ele>236.0</ele><time>2026-04-28T10:35:27.931Z</time></trkpt><trkpt lat="44.23935047369551" lon="11.072756730975655"><ele>236.0</ele><time>2026-04-28T10:35:28.931Z</time></trkpt><trkpt lat="44.23944445085371" lon="11.072987762287058"><ele>236.0</ele><time>2026-04-28T10:35:29.931Z</time></trkpt><trkpt lat="44.239535523458805" lon="11.073221531806954"><ele>234.66666666666669</ele><time>2026-04-28T10:35:30.931Z</time></trkpt><trkpt lat="44.23962614416362" lon="11.073457413746624"><ele>233.33333333333331</ele><time>2026-04-28T10:35:31.931Z</time></trkpt><trkpt lat="44.239706586166385" lon="11.073702179887022"><ele>232.0</ele><time>2026-04-28T10:35:32.931Z</time></trkpt><trkpt lat="44.2397720557734" lon="11.073952595948441"><ele>230.66666666666666</ele><time>2026-04-28T10:35:33.931Z</time></trkpt><trkpt lat="44.23982894966499" lon="11.07421614364348"><ele>229.33333333333331</ele><time>2026-04-28T10:35:34.931Z</time></trkpt><trkpt lat="44.23986941719016" lon="11.07447949534385"><ele>228.0</ele><time>2026-04-28T10:35:35.931Z</time></trkpt><trkpt lat="44.2399018879233" lon="11.074749512628259"><ele>229.0</ele><time>2026-04-28T10:35:36.931Z</time></trkpt><trkpt lat="44.23990366889463" lon="11.075036434065627"><ele>230.0</ele><time>2026-04-28T10:35:37.931Z</time></trkpt><trkpt lat="44.239913058253364" lon="11.0753331090923"><ele>231.0</ele><time>2026-04-28T10:35:38.931Z</time></trkpt><trkpt lat="44.23991924808626" lon="11.075629912179746"><ele>231.33333333333331</ele><time>2026-04-28T10:35:39.931Z</time></trkpt><trkpt lat="44.23994187862521" lon="11.075937492179932"><ele>231.66666666666666</ele><time>2026-04-28T10:35:40.931Z</time></trkpt><trkpt lat="44.23995123134204" lon="11.076250880080572"><ele>232.0</ele><time>2026-04-28T10:35:41.931Z</time></trkpt><trkpt lat="44.23996022314699" lon="11.076560214365047"><ele>231.33333333333331</ele><time>2026-04-28T10:35:42.931Z</time></trkpt><trkpt lat="44.23996760855172" lon="11.076875303100156"><ele>230.66666666666669</ele><time>2026-04-28T10:35:43.931Z</time></trkpt><trkpt lat="44.23997338962358" lon="11.07718696158186"><ele>230.0</ele><time>2026-04-28T10:35:44.931Z</time></trkpt><trkpt lat="44.23998060518916" lon="11.077497049026496"><ele>229.66666666666669</ele><time>2026-04-28T10:35:45.931Z</time></trkpt><trkpt lat="44.239989776773506" lon="11.07781065474643"><ele>229.33333333333331</ele><time>2026-04-28T10:35:46.931Z</time></trkpt><trkpt lat="44.2399999673878" lon="11.078115855491154"><ele>229.0</ele><time>2026-04-28T10:35:47.931Z</time></trkpt><trkpt lat="44.24000878231339" lon="11.07842629571636"><ele>229.0</ele><time>2026-04-28T10:35:48.931Z</time></trkpt><trkpt lat="44.2400173260682" lon="11.078740552752903"><ele>229.0</ele><time>2026-04-28T10:35:49.931Z</time></trkpt><trkpt lat="44.24002479547153" lon="11.079059780115035"><ele>228.5</ele><time>2026-04-28T10:35:50.931Z</time></trkpt><trkpt lat="44.24003102628458" lon="11.079381256110414"><ele>228.0</ele><time>2026-04-28T10:35:51.931Z</time></trkpt><trkpt lat="44.24004264048541" lon="11.079709523442128"><ele>228.5</ele><time>2026-04-28T10:35:52.931Z</time></trkpt><trkpt lat="44.24004631063804" lon="11.080043865076487"><ele>229.0</ele><time>2026-04-28T10:35:53.931Z</time></trkpt><trkpt lat="44.240057764303586" lon="11.080372410481614"><ele>229.0</ele><time>2026-04-28T10:35:54.931Z</time></trkpt><trkpt lat="44.24005178001762" lon="11.080704641952824"><ele>229.0</ele><time>2026-04-28T10:35:55.931Z</time></trkpt><trkpt lat="44.24006099015176" lon="11.081035539946813"><ele>228.5</ele><time>2026-04-28T10:35:56.931Z</time></trkpt><trkpt lat="44.24008603257876" lon="11.08136488715311"><ele>228.0</ele><time>2026-04-28T10:35:57.931Z</time></trkpt><trkpt lat="44.240094240784586" lon="11.081696979250744"><ele>227.0</ele><time>2026-04-28T10:35:58.931Z</time></trkpt><trkpt lat="44.24008697242709" lon="11.082019979815138"><ele>226.0</ele><time>2026-04-28T10:35:59.931Z</time></trkpt><trkpt lat="44.24010642961067" lon="11.082345387878593"><ele>227.0</ele><time>2026-04-28T10:36:00.931Z</time></trkpt><trkpt lat="44.2401143952892" lon="11.08266660205764"><ele>228.0</ele><time>2026-04-28T10:36:01.931Z</time></trkpt><trkpt lat="44.2401192163064" lon="11.082989206085832"><ele>228.5</ele><time>2026-04-28T10:36:02.931Z</time></trkpt><trkpt lat="44.24012845515403" lon="11.083307657132908"><ele>229.0</ele><time>2026-04-28T10:36:03.931Z</time></trkpt><trkpt lat="44.240136449805725" lon="11.083640017951076"><ele>229.0</ele><time>2026-04-28T10:36:04.931Z</time></trkpt><trkpt lat="44.24014266463308" lon="11.083940354002863"><ele>229.0</ele><time>2026-04-28T10:36:05.931Z</time></trkpt><trkpt lat="44.24015051752222" lon="11.084229909421548"><ele>229.0</ele><time>2026-04-28T10:36:06.931Z</time></trkpt><trkpt lat="44.240160317828035" lon="11.08451695894305"><ele>228.33333333333331</ele><time>2026-04-28T10:36:07.931Z</time></trkpt><trkpt lat="44.24016503691847" lon="11.084790213482254"><ele>227.66666666666669</ele><time>2026-04-28T10:36:08.931Z</time></trkpt><trkpt lat="44.24017279398572" lon="11.085056191636028"><ele>227.0</ele><time>2026-04-28T10:36:09.931Z</time></trkpt><trkpt lat="44.24018461071798" lon="11.085329361542184"><ele>227.0</ele><time>2026-04-28T10:36:10.931Z</time></trkpt><trkpt lat="44.24018109225777" lon="11.085605451557111"><ele>227.0</ele><time>2026-04-28T10:36:11.931Z</time></trkpt><trkpt lat="44.24018899406402" lon="11.085876893424246"><ele>227.0</ele><time>2026-04-28T10:36:12.931Z</time></trkpt><trkpt lat="44.240264929936586" lon="11.086149165229482"><ele>227.0</ele><time>2026-04-28T10:36:13.931Z</time></trkpt><trkpt lat="44.24029540544497" lon="11.086417157344307"><ele>227.0</ele><time>2026-04-28T10:36:14.931Z</time></trkpt><trkpt lat="44.24035261277469" lon="11.08668227377717"><ele>227.0</ele><time>2026-04-28T10:36:15.931Z</time></trkpt><trkpt lat="44.240421361483094" lon="11.086936484278091"><ele>227.33333333333334</ele><time>2026-04-28T10:36:16.931Z</time></trkpt><trkpt lat="44.240505422557476" lon="11.087184866326513"><ele>227.66666666666669</ele><time>2026-04-28T10:36:17.931Z</time></trkpt><trkpt lat="44.240603871549766" lon="11.087428544360908"><ele>228.0</ele><time>2026-04-28T10:36:18.932Z</time></trkpt><trkpt lat="44.24070926757671" lon="11.087663434965242"><ele>227.0</ele><time>2026-04-28T10:36:19.932Z</time></trkpt><trkpt lat="44.240826182372054" lon="11.087889297427434"><ele>226.0</ele><time>2026-04-28T10:36:20.932Z</time></trkpt><trkpt lat="44.24095468627806" lon="11.088110878612795"><ele>225.0</ele><time>2026-04-28T10:36:21.932Z</time></trkpt><trkpt lat="44.24109488902715" lon="11.088327627258867"><ele>225.0</ele><time>2026-04-28T10:36:22.932Z</time></trkpt><trkpt lat="44.24123909018979" lon="11.088537328825442"><ele>225.0</ele><time>2026-04-28T10:36:23.932Z</time></trkpt><trkpt lat="44.24139266916695" lon="11.088726252374322"><ele>225.0</ele><time>2026-04-28T10:36:24.932Z</time></trkpt><trkpt lat="44.24154570958683" lon="11.088896963367246"><ele>225.0</ele><time>2026-04-28T10:36:25.932Z</time></trkpt><trkpt lat="44.24170707214103" lon="11.089059613816456"><ele>225.0</ele><time>2026-04-28T10:36:26.932Z</time></trkpt><trkpt lat="44.24187734443193" lon="11.089205402482202"><ele>225.0</ele><time>2026-04-28T10:36:27.932Z</time></trkpt><trkpt lat="44.24205347939285" lon="11.089335584256398"><ele>225.0</ele><time>2026-04-28T10:36:28.932Z</time></trkpt><trkpt lat="44.24223154100247" lon="11.089459308107845"><ele>225.0</ele><time>2026-04-28T10:36:29.932Z</time></trkpt><trkpt lat="44.242420085626044" lon="11.089574662175984"><ele>225.0</ele><time>2026-04-28T10:36:30.932Z</time></trkpt><trkpt lat="44.242603968261676" lon="11.089698554860918"><ele>224.33333333333331</ele><time>2026-04-28T10:36:31.932Z</time></trkpt><trkpt lat="44.24278052966932" lon="11.089822511852201"><ele>223.66666666666666</ele><time>2026-04-28T10:36:32.932Z</time></trkpt><trkpt lat="44.24295260177582" lon="11.089945724201359"><ele>223.0</ele><time>2026-04-28T10:36:33.932Z</time></trkpt><trkpt lat="44.24312618410094" lon="11.090070370193684"><ele>223.33333333333331</ele><time>2026-04-28T10:36:34.932Z</time></trkpt><trkpt lat="44.24329583584472" lon="11.09019441960687"><ele>223.66666666666669</ele><time>2026-04-28T10:36:35.932Z</time></trkpt><trkpt lat="44.243462976055696" lon="11.090326086928714"><ele>224.0</ele><time>2026-04-28T10:36:36.932Z</time></trkpt><trkpt lat="44.24362359685965" lon="11.090468232687737"><ele>224.0</ele><time>2026-04-28T10:36:37.932Z</time></trkpt><trkpt lat="44.24377430798138" lon="11.090629041557532"><ele>224.0</ele><time>2026-04-28T10:36:38.932Z</time></trkpt><trkpt lat="44.24391881438488" lon="11.09080186139365"><ele>224.0</ele><time>2026-04-28T10:36:39.932Z</time></trkpt><trkpt lat="44.24405653630089" lon="11.090986746734378"><ele>225.66666666666669</ele><time>2026-04-28T10:36:40.932Z</time></trkpt><trkpt lat="44.244198886866464" lon="11.091181652845583"><ele>227.33333333333331</ele><time>2026-04-28T10:36:41.932Z</time></trkpt><trkpt lat="44.244336126515144" lon="11.091375518541906"><ele>229.0</ele><time>2026-04-28T10:36:42.932Z</time></trkpt><trkpt lat="44.24446821400489" lon="11.091560690498333"><ele>231.33333333333331</ele><time>2026-04-28T10:36:43.932Z</time></trkpt><trkpt lat="44.24458721730876" lon="11.091729472517327"><ele>233.66666666666669</ele><time>2026-04-28T10:36:44.932Z</time></trkpt><trkpt lat="44.24469206599375" lon="11.091876498958325"><ele>236.0</ele><time>2026-04-28T10:36:45.932Z</time></trkpt><trkpt lat="44.24478648365742" lon="11.092013922791164"><ele>235.5</ele><time>2026-04-28T10:36:46.931Z</time></trkpt><trkpt lat="44.24487766478096" lon="11.092142328798232"><ele>235.0</ele><time>2026-04-28T10:36:47.932Z</time></trkpt><trkpt lat="44.24496382845395" lon="11.092264818675675"><ele>234.5</ele><time>2026-04-28T10:36:48.932Z</time></trkpt><trkpt lat="44.24504832569974" lon="11.092376532840843"><ele>234.0</ele><time>2026-04-28T10:36:49.932Z</time></trkpt><trkpt lat="44.24512732538914" lon="11.092479748275402"><ele>234.0</ele><time>2026-04-28T10:36:50.932Z</time></trkpt><trkpt lat="44.245205183315434" lon="11.092584219197306"><ele>234.0</ele><time>2026-04-28T10:36:51.932Z</time></trkpt><trkpt lat="44.24527552240426" lon="11.092695827780172"><ele>234.0</ele><time>2026-04-28T10:36:52.932Z</time></trkpt><trkpt lat="44.245356865199284" lon="11.092809383894169"><ele>234.0</ele><time>2026-04-28T10:36:53.931Z</time></trkpt><trkpt lat="44.24544559743145" lon="11.092929197323581"><ele>234.0</ele><time>2026-04-28T10:36:54.931Z</time></trkpt><trkpt lat="44.24553985716161" lon="11.093058473562488"><ele>234.0</ele><time>2026-04-28T10:36:55.931Z</time></trkpt><trkpt lat="44.245632964239874" lon="11.093201186802741"><ele>234.0</ele><time>2026-04-28T10:36:56.931Z</time></trkpt><trkpt lat="44.24572314029746" lon="11.093327212091843"><ele>234.0</ele><time>2026-04-28T10:36:57.931Z</time></trkpt><trkpt lat="44.24579892366968" lon="11.093440555909012"><ele>232.0</ele><time>2026-04-28T10:36:58.931Z</time></trkpt><trkpt lat="44.24587077672782" lon="11.093547202565933"><ele>230.0</ele><time>2026-04-28T10:36:59.931Z</time></trkpt><trkpt lat="44.24593376105568" lon="11.093632681855862"><ele>228.0</ele><time>2026-04-28T10:37:00.931Z</time></trkpt><trkpt lat="44.24599276882612" lon="11.093706783942913"><ele>226.0</ele><time>2026-04-28T10:37:01.931Z</time></trkpt><trkpt lat="44.24604629890449" lon="11.093782595017586"><ele>224.0</ele><time>2026-04-28T10:37:02.931Z</time></trkpt><trkpt lat="44.246099419608484" lon="11.093855739541587"><ele>222.0</ele><time>2026-04-28T10:37:03.931Z</time></trkpt><trkpt lat="44.24615111467395" lon="11.093925937032596"><ele>222.0</ele><time>2026-04-28T10:37:04.931Z</time></trkpt><trkpt lat="44.24619740534174" lon="11.093994589279749"><ele>222.0</ele><time>2026-04-28T10:37:05.931Z</time></trkpt><trkpt lat="44.24624555463531" lon="11.094060894828544"><ele>222.0</ele><time>2026-04-28T10:37:06.931Z</time></trkpt><trkpt lat="44.246291228304976" lon="11.094125076135334"><ele>222.0</ele><time>2026-04-28T10:37:07.931Z</time></trkpt><trkpt lat="44.24637630759746" lon="11.09424470181905"><ele>222.0</ele><time>2026-04-28T10:37:09.931Z</time></trkpt><trkpt lat="44.24645982540679" lon="11.094351321811482"><ele>222.0</ele><time>2026-04-28T10:37:11.931Z</time></trkpt><trkpt lat="44.24652352137932" lon="11.094434366851488"><ele>223.0</ele><time>2026-04-28T10:37:13.931Z</time></trkpt><trkpt lat="44.24656419385831" lon="11.094523520387735"><ele>224.0</ele><time>2026-04-28T10:38:34.933Z</time></trkpt><trkpt lat="44.24662470371951" lon="11.094598343542716"><ele>225.0</ele><time>2026-04-28T10:38:36.933Z</time></trkpt><trkpt lat="44.246718349068196" lon="11.094700190541936"><ele>226.0</ele><time>2026-04-28T10:38:38.933Z</time></trkpt><trkpt lat="44.24680305108515" lon="11.09484259458731"><ele>227.0</ele><time>2026-04-28T10:38:40.933Z</time></trkpt><trkpt lat="44.24685511802704" lon="11.094915860510868"><ele>226.66666666666669</ele><time>2026-04-28T10:38:41.933Z</time></trkpt><trkpt lat="44.24691220204621" lon="11.094995110647735"><ele>226.33333333333334</ele><time>2026-04-28T10:38:42.933Z</time></trkpt><trkpt lat="44.24697418041754" lon="11.095080377126987"><ele>226.0</ele><time>2026-04-28T10:38:43.933Z</time></trkpt><trkpt lat="44.24704203804806" lon="11.095170797077252"><ele>225.66666666666669</ele><time>2026-04-28T10:38:44.933Z</time></trkpt><trkpt lat="44.24710880600509" lon="11.095259760330011"><ele>225.33333333333334</ele><time>2026-04-28T10:38:45.933Z</time></trkpt><trkpt lat="44.247177191367996" lon="11.095345230897317"><ele>225.0</ele><time>2026-04-28T10:38:46.933Z</time></trkpt><trkpt lat="44.247248287620216" lon="11.09542728495509"><ele>225.8</ele><time>2026-04-28T10:38:47.933Z</time></trkpt><trkpt lat="44.24732858950327" lon="11.095513699506961"><ele>226.6</ele><time>2026-04-28T10:38:48.933Z</time></trkpt><trkpt lat="44.24741043418375" lon="11.095603536709483"><ele>227.39999999999998</ele><time>2026-04-28T10:38:49.933Z</time></trkpt><trkpt lat="44.24749800994696" lon="11.095694365748146"><ele>228.2</ele><time>2026-04-28T10:38:50.933Z</time></trkpt><trkpt lat="44.24758973149055" lon="11.095780740082319"><ele>229.0</ele><time>2026-04-28T10:38:51.933Z</time></trkpt><trkpt lat="44.24768030853079" lon="11.095861089536793"><ele>229.0</ele><time>2026-04-28T10:38:52.933Z</time></trkpt><trkpt lat="44.24777409138121" lon="11.095941825342502"><ele>229.0</ele><time>2026-04-28T10:38:53.933Z</time></trkpt><trkpt lat="44.24787828159696" lon="11.096013503070774"><ele>229.0</ele><time>2026-04-28T10:38:54.933Z</time></trkpt><trkpt lat="44.24798128847712" lon="11.096092277713803"><ele>229.0</ele><time>2026-04-28T10:38:55.934Z</time></trkpt><trkpt lat="44.248100811557336" lon="11.096159993655466"><ele>229.25</ele><time>2026-04-28T10:38:56.933Z</time></trkpt><trkpt lat="44.24822447442689" lon="11.096203249533332"><ele>229.5</ele><time>2026-04-28T10:38:57.933Z</time></trkpt><trkpt lat="44.2483325654312" lon="11.096247085025853"><ele>229.75</ele><time>2026-04-28T10:38:58.934Z</time></trkpt><trkpt lat="44.2484437853675" lon="11.096298649941113"><ele>230.0</ele><time>2026-04-28T10:38:59.933Z</time></trkpt><trkpt lat="44.248543828247485" lon="11.096352074431186"><ele>230.0</ele><time>2026-04-28T10:39:00.933Z</time></trkpt><trkpt lat="44.2486628562124" lon="11.096390603201783"><ele>230.0</ele><time>2026-04-28T10:39:01.933Z</time></trkpt><trkpt lat="44.248786722500725" lon="11.096443531158942"><ele>230.0</ele><time>2026-04-28T10:39:02.933Z</time></trkpt><trkpt lat="44.24891473385975" lon="11.096497491218198"><ele>230.0</ele><time>2026-04-28T10:39:03.933Z</time></trkpt><trkpt lat="44.24904248905125" lon="11.096552292745177"><ele>227.5</ele><time>2026-04-28T10:39:04.934Z</time></trkpt><trkpt lat="44.24915950876448" lon="11.0966037623417"><ele>225.0</ele><time>2026-04-28T10:39:05.933Z</time></trkpt><trkpt lat="44.24928008950573" lon="11.096654573525166"><ele>222.5</ele><time>2026-04-28T10:39:06.933Z</time></trkpt><trkpt lat="44.24940167206373" lon="11.096701748840385"><ele>220.0</ele><time>2026-04-28T10:39:07.933Z</time></trkpt><trkpt lat="44.24952770208064" lon="11.096752611036617"><ele>220.0</ele><time>2026-04-28T10:39:08.933Z</time></trkpt><trkpt lat="44.24966202308563" lon="11.096803821522002"><ele>220.0</ele><time>2026-04-28T10:39:09.934Z</time></trkpt><trkpt lat="44.24980072000871" lon="11.09686052779778"><ele>220.0</ele><time>2026-04-28T10:39:10.934Z</time></trkpt><trkpt lat="44.24993291226236" lon="11.096920143615849"><ele>220.0</ele><time>2026-04-28T10:39:11.934Z</time></trkpt><trkpt lat="44.250064552587936" lon="11.096974438723583"><ele>219.75</ele><time>2026-04-28T10:39:12.934Z</time></trkpt><trkpt lat="44.25019330712243" lon="11.097034490043567"><ele>219.5</ele><time>2026-04-28T10:39:13.934Z</time></trkpt><trkpt lat="44.25031899099942" lon="11.097101193769342"><ele>219.25</ele><time>2026-04-28T10:39:14.934Z</time></trkpt><trkpt lat="44.25044852902356" lon="11.097177744351978"><ele>219.0</ele><time>2026-04-28T10:39:15.934Z</time></trkpt><trkpt lat="44.250572415957585" lon="11.097266973126857"><ele>218.5</ele><time>2026-04-28T10:39:16.934Z</time></trkpt><trkpt lat="44.250684195207235" lon="11.097360556766453"><ele>218.0</ele><time>2026-04-28T10:39:17.934Z</time></trkpt><trkpt lat="44.25080295577196" lon="11.097455706443084"><ele>217.5</ele><time>2026-04-28T10:39:18.934Z</time></trkpt><trkpt lat="44.250919330123985" lon="11.097558986663529"><ele>217.0</ele><time>2026-04-28T10:39:19.934Z</time></trkpt><trkpt lat="44.25103665427968" lon="11.097651706947067"><ele>217.0</ele><time>2026-04-28T10:39:20.934Z</time></trkpt><trkpt lat="44.25116155172221" lon="11.0977398111506"><ele>217.0</ele><time>2026-04-28T10:39:21.934Z</time></trkpt><trkpt lat="44.25128632072468" lon="11.097839256000727"><ele>217.0</ele><time>2026-04-28T10:39:22.934Z</time></trkpt><trkpt lat="44.25141005661087" lon="11.097934812937414"><ele>217.0</ele><time>2026-04-28T10:39:23.934Z</time></trkpt><trkpt lat="44.25154369928537" lon="11.098044274890587"><ele>217.0</ele><time>2026-04-28T10:39:24.934Z</time></trkpt><trkpt lat="44.251673531018504" lon="11.098148072643347"><ele>217.0</ele><time>2026-04-28T10:39:25.934Z</time></trkpt><trkpt lat="44.251800429622136" lon="11.098258013864248"><ele>217.0</ele><time>2026-04-28T10:39:26.934Z</time></trkpt><trkpt lat="44.25193749361553" lon="11.098371694315196"><ele>217.0</ele><time>2026-04-28T10:39:27.934Z</time></trkpt><trkpt lat="44.252086817199626" lon="11.098497164898173"><ele>217.0</ele><time>2026-04-28T10:39:28.934Z</time></trkpt><trkpt lat="44.25224036623331" lon="11.098613205697266"><ele>217.0</ele><time>2026-04-28T10:39:29.934Z</time></trkpt><trkpt lat="44.252385978154535" lon="11.098740876603822"><ele>217.0</ele><time>2026-04-28T10:39:30.934Z</time></trkpt><trkpt lat="44.252527628444106" lon="11.098872063376453"><ele>217.0</ele><time>2026-04-28T10:39:31.934Z</time></trkpt><trkpt lat="44.2526597780752" lon="11.099020644492578"><ele>217.0</ele><time>2026-04-28T10:39:32.934Z</time></trkpt><trkpt lat="44.2527866256704" lon="11.099180163077497"><ele>217.66666666666666</ele><time>2026-04-28T10:39:33.934Z</time></trkpt><trkpt lat="44.252903938483946" lon="11.099350061168229"><ele>218.33333333333331</ele><time>2026-04-28T10:39:34.934Z</time></trkpt><trkpt lat="44.25302073041036" lon="11.099533120289323"><ele>219.0</ele><time>2026-04-28T10:39:35.934Z</time></trkpt><trkpt lat="44.25312505941668" lon="11.099727398723237"><ele>217.66666666666669</ele><time>2026-04-28T10:39:36.934Z</time></trkpt><trkpt lat="44.25322559134252" lon="11.099945343393316"><ele>216.33333333333334</ele><time>2026-04-28T10:39:37.934Z</time></trkpt><trkpt lat="44.253332581860704" lon="11.100180412177435"><ele>215.0</ele><time>2026-04-28T10:39:38.934Z</time></trkpt><trkpt lat="44.253426263322126" lon="11.100413042536015"><ele>215.0</ele><time>2026-04-28T10:39:39.934Z</time></trkpt><trkpt lat="44.253517930543985" lon="11.100639181394236"><ele>215.0</ele><time>2026-04-28T10:39:40.934Z</time></trkpt><trkpt lat="44.25360251336261" lon="11.100860878778148"><ele>215.0</ele><time>2026-04-28T10:39:41.934Z</time></trkpt><trkpt lat="44.25368803986168" lon="11.10108145467258"><ele>215.0</ele><time>2026-04-28T10:39:42.934Z</time></trkpt><trkpt lat="44.2537798516359" lon="11.10130071248331"><ele>215.0</ele><time>2026-04-28T10:39:43.934Z</time></trkpt><trkpt lat="44.253874375812956" lon="11.101513647935425"><ele>215.0</ele><time>2026-04-28T10:39:44.934Z</time></trkpt><trkpt lat="44.25395931866301" lon="11.101712087726318"><ele>215.0</ele><time>2026-04-28T10:39:45.934Z</time></trkpt><trkpt lat="44.25404184641844" lon="11.101909791719029"><ele>215.0</ele><time>2026-04-28T10:39:46.934Z</time></trkpt><trkpt lat="44.25411779078319" lon="11.10210591451437"><ele>215.0</ele><time>2026-04-28T10:39:47.934Z</time></trkpt><trkpt lat="44.25418903955285" lon="11.102287068550739"><ele>214.0</ele><time>2026-04-28T10:39:48.934Z</time></trkpt><trkpt lat="44.25428418931028" lon="11.102470591009356"><ele>213.0</ele><time>2026-04-28T10:39:49.934Z</time></trkpt><trkpt lat="44.254385339917114" lon="11.102642970713195"><ele>212.0</ele><time>2026-04-28T10:39:50.934Z</time></trkpt><trkpt lat="44.25449673786459" lon="11.10280236946464"><ele>212.0</ele><time>2026-04-28T10:39:51.934Z</time></trkpt><trkpt lat="44.254607519053266" lon="11.10295571913075"><ele>212.0</ele><time>2026-04-28T10:39:52.934Z</time></trkpt><trkpt lat="44.25472474133978" lon="11.10309529126326"><ele>212.0</ele><time>2026-04-28T10:39:53.934Z</time></trkpt><trkpt lat="44.25481825484258" lon="11.103241344402624"><ele>212.0</ele><time>2026-04-28T10:39:54.934Z</time></trkpt><trkpt lat="44.254930653075235" lon="11.103390355375796"><ele>212.0</ele><time>2026-04-28T10:39:55.934Z</time></trkpt><trkpt lat="44.255045840733594" lon="11.103527267185934"><ele>212.0</ele><time>2026-04-28T10:39:56.934Z</time></trkpt><trkpt lat="44.255166150583314" lon="11.103655840108246"><ele>212.0</ele><time>2026-04-28T10:39:57.934Z</time></trkpt><trkpt lat="44.25529165456464" lon="11.103778089203317"><ele>212.0</ele><time>2026-04-28T10:39:58.934Z</time></trkpt><trkpt lat="44.2554216993792" lon="11.103886804342794"><ele>212.0</ele><time>2026-04-28T10:39:59.934Z</time></trkpt><trkpt lat="44.25555945108242" lon="11.103959895845618"><ele>212.75</ele><time>2026-04-28T10:40:00.934Z</time></trkpt><trkpt lat="44.255693088661594" lon="11.104042633531826"><ele>213.5</ele><time>2026-04-28T10:40:01.934Z</time></trkpt><trkpt lat="44.255827325223464" lon="11.104119062301164"><ele>214.25</ele><time>2026-04-28T10:40:02.934Z</time></trkpt><trkpt lat="44.255969238136814" lon="11.104191891592505"><ele>215.0</ele><time>2026-04-28T10:40:03.934Z</time></trkpt><trkpt lat="44.25611888111033" lon="11.104261312555858"><ele>213.66666666666669</ele><time>2026-04-28T10:40:04.934Z</time></trkpt><trkpt lat="44.25627399807321" lon="11.104334408132038"><ele>212.33333333333331</ele><time>2026-04-28T10:40:05.934Z</time></trkpt><trkpt lat="44.256436420090964" lon="11.104405547155661"><ele>211.0</ele><time>2026-04-28T10:40:06.934Z</time></trkpt><trkpt lat="44.256602498597864" lon="11.104473403213314"><ele>211.0</ele><time>2026-04-28T10:40:07.934Z</time></trkpt><trkpt lat="44.25676344442555" lon="11.104543846169534"><ele>211.0</ele><time>2026-04-28T10:40:08.934Z</time></trkpt><trkpt lat="44.25691877133855" lon="11.104609188235543"><ele>211.0</ele><time>2026-04-28T10:40:09.935Z</time></trkpt><trkpt lat="44.25705107445824" lon="11.104711778105326"><ele>211.0</ele><time>2026-04-28T10:40:10.935Z</time></trkpt><trkpt lat="44.25720581733236" lon="11.104784413111785"><ele>211.0</ele><time>2026-04-28T10:40:11.935Z</time></trkpt><trkpt lat="44.25736320787943" lon="11.10485693114464"><ele>211.0</ele><time>2026-04-28T10:40:12.935Z</time></trkpt><trkpt lat="44.257527183450534" lon="11.104929833622661"><ele>210.33333333333331</ele><time>2026-04-28T10:40:13.935Z</time></trkpt><trkpt lat="44.25769160117616" lon="11.10499987172056"><ele>209.66666666666669</ele><time>2026-04-28T10:40:14.935Z</time></trkpt><trkpt lat="44.25785811450355" lon="11.105069222498228"><ele>209.0</ele><time>2026-04-28T10:40:15.935Z</time></trkpt><trkpt lat="44.25801266964684" lon="11.10513344240661"><ele>210.0</ele><time>2026-04-28T10:40:16.935Z</time></trkpt><trkpt lat="44.258166955218975" lon="11.105200025995597"><ele>211.0</ele><time>2026-04-28T10:40:17.935Z</time></trkpt><trkpt lat="44.25832741798355" lon="11.10527062565177"><ele>212.0</ele><time>2026-04-28T10:40:18.935Z</time></trkpt><trkpt lat="44.258487335242194" lon="11.1053457338741"><ele>212.0</ele><time>2026-04-28T10:40:19.935Z</time></trkpt><trkpt lat="44.25864341787684" lon="11.105413852823203"><ele>212.0</ele><time>2026-04-28T10:40:20.935Z</time></trkpt><trkpt lat="44.25879622127899" lon="11.105484389629929"><ele>212.0</ele><time>2026-04-28T10:40:21.935Z</time></trkpt><trkpt lat="44.258946786830855" lon="11.105562251534614"><ele>211.33333333333334</ele><time>2026-04-28T10:40:22.935Z</time></trkpt><trkpt lat="44.259096575048076" lon="11.10564873749798"><ele>210.66666666666669</ele><time>2026-04-28T10:40:23.935Z</time></trkpt><trkpt lat="44.25924666610346" lon="11.10573902109438"><ele>210.0</ele><time>2026-04-28T10:40:24.935Z</time></trkpt><trkpt lat="44.25939700073472" lon="11.105828701836986"><ele>209.0</ele><time>2026-04-28T10:40:25.935Z</time></trkpt><trkpt lat="44.2595443710825" lon="11.105924407826688"><ele>208.0</ele><time>2026-04-28T10:40:26.935Z</time></trkpt><trkpt lat="44.25968262299863" lon="11.106026294136033"><ele>207.0</ele><time>2026-04-28T10:40:27.935Z</time></trkpt><trkpt lat="44.25982594078431" lon="11.106127236926785"><ele>206.66666666666669</ele><time>2026-04-28T10:40:28.935Z</time></trkpt><trkpt lat="44.25996734806402" lon="11.10622228508508"><ele>206.33333333333334</ele><time>2026-04-28T10:40:29.935Z</time></trkpt><trkpt lat="44.260118042859844" lon="11.106313393393316"><ele>206.0</ele><time>2026-04-28T10:40:30.935Z</time></trkpt><trkpt lat="44.260270167326944" lon="11.106408070397267"><ele>206.0</ele><time>2026-04-28T10:40:31.935Z</time></trkpt><trkpt lat="44.2604164570025" lon="11.106500874284283"><ele>206.0</ele><time>2026-04-28T10:40:32.935Z</time></trkpt><trkpt lat="44.260557955444376" lon="11.106589146819948"><ele>206.0</ele><time>2026-04-28T10:40:33.935Z</time></trkpt><trkpt lat="44.260696385225" lon="11.1066811882186"><ele>206.0</ele><time>2026-04-28T10:40:34.935Z</time></trkpt><trkpt lat="44.26082998527841" lon="11.106773306113697"><ele>206.0</ele><time>2026-04-28T10:40:35.935Z</time></trkpt><trkpt lat="44.260971373487195" lon="11.106866078347721"><ele>206.0</ele><time>2026-04-28T10:40:36.935Z</time></trkpt><trkpt lat="44.261114521401225" lon="11.106960609281032"><ele>206.0</ele><time>2026-04-28T10:40:37.935Z</time></trkpt><trkpt lat="44.261261179137016" lon="11.107063157868243"><ele>206.0</ele><time>2026-04-28T10:40:38.935Z</time></trkpt><trkpt lat="44.26140598150988" lon="11.1071582765577"><ele>206.0</ele><time>2026-04-28T10:40:39.935Z</time></trkpt><trkpt lat="44.26154908970863" lon="11.107250713973094"><ele>205.33333333333334</ele><time>2026-04-28T10:40:40.935Z</time></trkpt><trkpt lat="44.26169951107731" lon="11.107350655029224"><ele>204.66666666666669</ele><time>2026-04-28T10:40:41.935Z</time></trkpt><trkpt lat="44.261845365596315" lon="11.107451274830838"><ele>204.0</ele><time>2026-04-28T10:40:42.935Z</time></trkpt><trkpt lat="44.26196954119197" lon="11.107565628549192"><ele>204.0</ele><time>2026-04-28T10:40:43.935Z</time></trkpt><trkpt lat="44.26211328014183" lon="11.107663961783357"><ele>204.0</ele><time>2026-04-28T10:40:44.935Z</time></trkpt><trkpt lat="44.26225783313741" lon="11.107760304672805"><ele>204.0</ele><time>2026-04-28T10:40:45.935Z</time></trkpt><trkpt lat="44.26240723700249" lon="11.107860534667184"><ele>205.66666666666669</ele><time>2026-04-28T10:40:46.935Z</time></trkpt><trkpt lat="44.26254840091211" lon="11.107958340075292"><ele>207.33333333333334</ele><time>2026-04-28T10:40:47.935Z</time></trkpt><trkpt lat="44.262684833060206" lon="11.108051766536695"><ele>209.0</ele><time>2026-04-28T10:40:48.935Z</time></trkpt><trkpt lat="44.26282415632013" lon="11.108143048959043"><ele>209.0</ele><time>2026-04-28T10:40:49.935Z</time></trkpt><trkpt lat="44.26297039248348" lon="11.108238184135914"><ele>209.0</ele><time>2026-04-28T10:40:50.935Z</time></trkpt><trkpt lat="44.26312465316717" lon="11.108331669555568"><ele>209.0</ele><time>2026-04-28T10:40:51.935Z</time></trkpt><trkpt lat="44.263274737159335" lon="11.108429129544222"><ele>206.5</ele><time>2026-04-28T10:40:52.935Z</time></trkpt><trkpt lat="44.26342838934938" lon="11.108534862881635"><ele>204.0</ele><time>2026-04-28T10:40:53.935Z</time></trkpt><trkpt lat="44.263898271808216" lon="11.108847129667346"><ele>203.33333333333331</ele><time>2026-04-28T10:40:56.935Z</time></trkpt><trkpt lat="44.26405913199939" lon="11.108954103425784"><ele>202.66666666666666</ele><time>2026-04-28T10:40:57.935Z</time></trkpt><trkpt lat="44.26421142074482" lon="11.10905273830548"><ele>202.0</ele><time>2026-04-28T10:40:58.934Z</time></trkpt><trkpt lat="44.26436088350978" lon="11.109153817735029"><ele>202.0</ele><time>2026-04-28T10:40:59.934Z</time></trkpt><trkpt lat="44.26450953243255" lon="11.109262035336629"><ele>202.0</ele><time>2026-04-28T10:41:00.934Z</time></trkpt><trkpt lat="44.2646657621175" lon="11.109368738917432"><ele>202.0</ele><time>2026-04-28T10:41:01.934Z</time></trkpt><trkpt lat="44.26482255227646" lon="11.109479902576423"><ele>202.66666666666666</ele><time>2026-04-28T10:41:02.934Z</time></trkpt><trkpt lat="44.2649777892019" lon="11.10958528597163"><ele>203.33333333333331</ele><time>2026-04-28T10:41:03.934Z</time></trkpt><trkpt lat="44.26513971420438" lon="11.109688176897205"><ele>204.0</ele><time>2026-04-28T10:41:04.934Z</time></trkpt><trkpt lat="44.26530515294045" lon="11.109789124127573"><ele>204.0</ele><time>2026-04-28T10:41:05.934Z</time></trkpt><trkpt lat="44.26546323916152" lon="11.109890084768109"><ele>204.0</ele><time>2026-04-28T10:41:06.934Z</time></trkpt><trkpt lat="44.265618087192124" lon="11.109995198985166"><ele>204.0</ele><time>2026-04-28T10:41:07.934Z</time></trkpt><trkpt lat="44.2657660495436" lon="11.1100902190006"><ele>204.0</ele><time>2026-04-28T10:41:08.934Z</time></trkpt><trkpt lat="44.26591911843299" lon="11.110181317984322"><ele>204.0</ele><time>2026-04-28T10:41:09.934Z</time></trkpt><trkpt lat="44.266076216210706" lon="11.110271149051611"><ele>204.0</ele><time>2026-04-28T10:41:10.934Z</time></trkpt><trkpt lat="44.26623665248171" lon="11.110347911831603"><ele>204.0</ele><time>2026-04-28T10:41:11.934Z</time></trkpt><trkpt lat="44.26641221456213" lon="11.11041817965702"><ele>204.0</ele><time>2026-04-28T10:41:12.934Z</time></trkpt><trkpt lat="44.26657461405809" lon="11.11049015121342"><ele>204.0</ele><time>2026-04-28T10:41:13.934Z</time></trkpt><trkpt lat="44.26673830228228" lon="11.110561736002794"><ele>205.33333333333331</ele><time>2026-04-28T10:41:14.934Z</time></trkpt><trkpt lat="44.2668951021427" lon="11.110620956071797"><ele>206.66666666666666</ele><time>2026-04-28T10:41:15.934Z</time></trkpt><trkpt lat="44.267052080095375" lon="11.110669693918219"><ele>208.0</ele><time>2026-04-28T10:41:16.934Z</time></trkpt><trkpt lat="44.267217661992134" lon="11.110722953309466"><ele>206.33333333333331</ele><time>2026-04-28T10:41:17.935Z</time></trkpt><trkpt lat="44.267387348783494" lon="11.110765861859822"><ele>204.66666666666669</ele><time>2026-04-28T10:41:18.935Z</time></trkpt><trkpt lat="44.26756666278954" lon="11.11080253848097"><ele>203.0</ele><time>2026-04-28T10:41:19.935Z</time></trkpt><trkpt lat="44.267751983192156" lon="11.110843607448976"><ele>203.0</ele><time>2026-04-28T10:41:20.935Z</time></trkpt><trkpt lat="44.267933620700646" lon="11.11088363245905"><ele>203.0</ele><time>2026-04-28T10:41:21.935Z</time></trkpt><trkpt lat="44.26811687510249" lon="11.110923865675046"><ele>203.0</ele><time>2026-04-28T10:41:22.935Z</time></trkpt><trkpt lat="44.268285694354994" lon="11.110957938902684"><ele>202.0</ele><time>2026-04-28T10:41:23.935Z</time></trkpt><trkpt lat="44.268447608358535" lon="11.110992445935223"><ele>201.0</ele><time>2026-04-28T10:41:24.935Z</time></trkpt><trkpt lat="44.26860160182039" lon="11.111030679503617"><ele>200.0</ele><time>2026-04-28T10:41:25.935Z</time></trkpt><trkpt lat="44.26876293853889" lon="11.111069442403581"><ele>200.0</ele><time>2026-04-28T10:41:26.935Z</time></trkpt><trkpt lat="44.26892792857502" lon="11.111104834353283"><ele>200.0</ele><time>2026-04-28T10:41:27.935Z</time></trkpt><trkpt lat="44.26909123825707" lon="11.111128845003902"><ele>200.0</ele><time>2026-04-28T10:41:28.935Z</time></trkpt><trkpt lat="44.269257321521685" lon="11.111153902397534"><ele>199.0</ele><time>2026-04-28T10:41:29.935Z</time></trkpt><trkpt lat="44.269421675270884" lon="11.111188504721259"><ele>198.0</ele><time>2026-04-28T10:41:30.935Z</time></trkpt><trkpt lat="44.269577780001796" lon="11.111228832333596"><ele>197.0</ele><time>2026-04-28T10:41:31.935Z</time></trkpt><trkpt lat="44.269731587011265" lon="11.111268165426871"><ele>197.0</ele><time>2026-04-28T10:41:32.935Z</time></trkpt><trkpt lat="44.269885070195365" lon="11.111308410776937"><ele>197.0</ele><time>2026-04-28T10:41:33.935Z</time></trkpt><trkpt lat="44.27003994888659" lon="11.111346954221327"><ele>197.0</ele><time>2026-04-28T10:41:34.935Z</time></trkpt><trkpt lat="44.27019305589887" lon="11.111382293966841"><ele>197.0</ele><time>2026-04-28T10:41:35.935Z</time></trkpt><trkpt lat="44.2703459263581" lon="11.111414705014312"><ele>197.0</ele><time>2026-04-28T10:41:36.935Z</time></trkpt><trkpt lat="44.27049699466683" lon="11.11144306150008"><ele>197.0</ele><time>2026-04-28T10:41:37.935Z</time></trkpt><trkpt lat="44.27064046982553" lon="11.111472994253539"><ele>196.75</ele><time>2026-04-28T10:41:38.935Z</time></trkpt><trkpt lat="44.27078186741237" lon="11.111504958479959"><ele>196.5</ele><time>2026-04-28T10:41:39.935Z</time></trkpt><trkpt lat="44.270925277342826" lon="11.111535650073302"><ele>196.25</ele><time>2026-04-28T10:41:40.935Z</time></trkpt><trkpt lat="44.271069529183215" lon="11.111566912713355"><ele>196.0</ele><time>2026-04-28T10:41:41.935Z</time></trkpt><trkpt lat="44.27121307461359" lon="11.111595914296807"><ele>196.0</ele><time>2026-04-28T10:41:42.935Z</time></trkpt><trkpt lat="44.27135735547494" lon="11.111628573572593"><ele>196.0</ele><time>2026-04-28T10:41:43.935Z</time></trkpt><trkpt lat="44.27149803342836" lon="11.111662775514766"><ele>196.0</ele><time>2026-04-28T10:41:44.935Z</time></trkpt><trkpt lat="44.27164690136864" lon="11.111691979032535"><ele>196.0</ele><time>2026-04-28T10:41:45.935Z</time></trkpt><trkpt lat="44.27180181427606" lon="11.111724087903678"><ele>196.0</ele><time>2026-04-28T10:41:46.935Z</time></trkpt><trkpt lat="44.27195356734745" lon="11.111755013933871"><ele>196.0</ele><time>2026-04-28T10:41:47.935Z</time></trkpt><trkpt lat="44.27210147667606" lon="11.11178671900024"><ele>196.0</ele><time>2026-04-28T10:41:48.935Z</time></trkpt><trkpt lat="44.272246935045715" lon="11.11181831366351"><ele>196.0</ele><time>2026-04-28T10:41:49.935Z</time></trkpt><trkpt lat="44.27239469256923" lon="11.111851114853582"><ele>196.0</ele><time>2026-04-28T10:41:50.935Z</time></trkpt><trkpt lat="44.27253493266431" lon="11.111880447902198"><ele>196.0</ele><time>2026-04-28T10:41:51.935Z</time></trkpt><trkpt lat="44.272682187094176" lon="11.11190934720997"><ele>196.0</ele><time>2026-04-28T10:41:52.935Z</time></trkpt><trkpt lat="44.27282733094301" lon="11.111938623653897"><ele>196.0</ele><time>2026-04-28T10:41:53.935Z</time></trkpt><trkpt lat="44.27297495773022" lon="11.11197049312088"><ele>196.0</ele><time>2026-04-28T10:41:54.935Z</time></trkpt><trkpt lat="44.273121992563105" lon="11.112000973817267"><ele>196.0</ele><time>2026-04-28T10:41:55.935Z</time></trkpt><trkpt lat="44.2732641532974" lon="11.112031298835001"><ele>196.0</ele><time>2026-04-28T10:41:56.935Z</time></trkpt><trkpt lat="44.273410823239956" lon="11.11206256116227"><ele>195.75</ele><time>2026-04-28T10:41:57.935Z</time></trkpt><trkpt lat="44.27355205400435" lon="11.112098851866472"><ele>195.5</ele><time>2026-04-28T10:41:58.935Z</time></trkpt><trkpt lat="44.273692992851956" lon="11.1121274863235"><ele>195.25</ele><time>2026-04-28T10:41:59.935Z</time></trkpt><trkpt lat="44.273830221859626" lon="11.112152071948247"><ele>195.0</ele><time>2026-04-28T10:42:00.935Z</time></trkpt><trkpt lat="44.27397219739119" lon="11.112179548672275"><ele>194.66666666666669</ele><time>2026-04-28T10:42:01.935Z</time></trkpt><trkpt lat="44.274119701158426" lon="11.112199184387384"><ele>194.33333333333334</ele><time>2026-04-28T10:42:02.935Z</time></trkpt><trkpt lat="44.2742743563403" lon="11.112213409429616"><ele>194.0</ele><time>2026-04-28T10:42:03.935Z</time></trkpt><trkpt lat="44.27442760819008" lon="11.11222387459918"><ele>194.0</ele><time>2026-04-28T10:42:04.935Z</time></trkpt><trkpt lat="44.27458250694501" lon="11.112229447096565"><ele>194.0</ele><time>2026-04-28T10:42:05.935Z</time></trkpt><trkpt lat="44.274735862293696" lon="11.11222351857974"><ele>194.0</ele><time>2026-04-28T10:42:06.935Z</time></trkpt><trkpt lat="44.2748886271685" lon="11.112210585946775"><ele>194.33333333333334</ele><time>2026-04-28T10:42:07.935Z</time></trkpt><trkpt lat="44.27504150054005" lon="11.11222297764466"><ele>194.66666666666669</ele><time>2026-04-28T10:42:08.935Z</time></trkpt><trkpt lat="44.27519439267882" lon="11.112199249567869"><ele>195.0</ele><time>2026-04-28T10:42:09.935Z</time></trkpt><trkpt lat="44.27535143542312" lon="11.112168268881309"><ele>195.0</ele><time>2026-04-28T10:42:10.935Z</time></trkpt><trkpt lat="44.27550301306379" lon="11.112126741090176"><ele>195.0</ele><time>2026-04-28T10:42:11.935Z</time></trkpt><trkpt lat="44.27565355557642" lon="11.112081067837996"><ele>195.0</ele><time>2026-04-28T10:42:12.935Z</time></trkpt><trkpt lat="44.27580188663469" lon="11.112028609731166"><ele>194.66666666666669</ele><time>2026-04-28T10:42:13.935Z</time></trkpt><trkpt lat="44.27594916315769" lon="11.111974936939694"><ele>194.33333333333334</ele><time>2026-04-28T10:42:14.935Z</time></trkpt><trkpt lat="44.2760965178499" lon="11.111915221780137"><ele>194.0</ele><time>2026-04-28T10:42:15.935Z</time></trkpt><trkpt lat="44.27623852347155" lon="11.11184824680774"><ele>194.0</ele><time>2026-04-28T10:42:16.935Z</time></trkpt><trkpt lat="44.27637701471057" lon="11.111776147303207"><ele>194.0</ele><time>2026-04-28T10:42:17.936Z</time></trkpt><trkpt lat="44.27651675473919" lon="11.111696302859075"><ele>194.0</ele><time>2026-04-28T10:42:18.936Z</time></trkpt><trkpt lat="44.27665074372469" lon="11.111611415613547"><ele>194.0</ele><time>2026-04-28T10:42:19.936Z</time></trkpt><trkpt lat="44.27679506059921" lon="11.111532759270224"><ele>194.0</ele><time>2026-04-28T10:42:20.936Z</time></trkpt><trkpt lat="44.27693506967412" lon="11.111458294834048"><ele>194.0</ele><time>2026-04-28T10:42:21.936Z</time></trkpt><trkpt lat="44.277077950031796" lon="11.111375807998176"><ele>194.0</ele><time>2026-04-28T10:42:22.936Z</time></trkpt><trkpt lat="44.27722361246093" lon="11.11129499369762"><ele>193.66666666666669</ele><time>2026-04-28T10:42:23.936Z</time></trkpt><trkpt lat="44.277368557629906" lon="11.111214800094626"><ele>193.33333333333331</ele><time>2026-04-28T10:42:24.936Z</time></trkpt><trkpt lat="44.27750660775856" lon="11.111134935356908"><ele>193.0</ele><time>2026-04-28T10:42:25.936Z</time></trkpt><trkpt lat="44.2776437626396" lon="11.111057479671251"><ele>193.0</ele><time>2026-04-28T10:42:26.936Z</time></trkpt><trkpt lat="44.277779363618464" lon="11.110982984957314"><ele>193.0</ele><time>2026-04-28T10:42:27.936Z</time></trkpt><trkpt lat="44.277920557838414" lon="11.110908765331438"><ele>193.0</ele><time>2026-04-28T10:42:28.936Z</time></trkpt><trkpt lat="44.278057968576675" lon="11.110831405471284"><ele>193.0</ele><time>2026-04-28T10:42:29.936Z</time></trkpt><trkpt lat="44.27819119944091" lon="11.110752632136615"><ele>194.75</ele><time>2026-04-28T10:42:30.936Z</time></trkpt><trkpt lat="44.27832352542075" lon="11.110680495235881"><ele>196.5</ele><time>2026-04-28T10:42:31.936Z</time></trkpt><trkpt lat="44.27846303921951" lon="11.110612389248413"><ele>198.25</ele><time>2026-04-28T10:42:32.936Z</time></trkpt><trkpt lat="44.27860396914354" lon="11.110552168196142"><ele>200.0</ele><time>2026-04-28T10:42:33.936Z</time></trkpt><trkpt lat="44.278745745587756" lon="11.11049739216248"><ele>200.0</ele><time>2026-04-28T10:42:34.936Z</time></trkpt><trkpt lat="44.278889187427154" lon="11.110450931923248"><ele>200.0</ele><time>2026-04-28T10:42:35.936Z</time></trkpt><trkpt lat="44.27903147128965" lon="11.110402173574741"><ele>200.0</ele><time>2026-04-28T10:42:36.936Z</time></trkpt><trkpt lat="44.27917310775371" lon="11.1103591263145"><ele>200.0</ele><time>2026-04-28T10:42:37.936Z</time></trkpt><trkpt lat="44.27931587400057" lon="11.110323646380255"><ele>200.5</ele><time>2026-04-28T10:42:38.936Z</time></trkpt><trkpt lat="44.27946734787167" lon="11.110295584606854"><ele>201.0</ele><time>2026-04-28T10:42:39.936Z</time></trkpt><trkpt lat="44.27961678263485" lon="11.110276959420975"><ele>201.5</ele><time>2026-04-28T10:42:40.936Z</time></trkpt><trkpt lat="44.27976288944851" lon="11.110260263332252"><ele>202.0</ele><time>2026-04-28T10:42:41.936Z</time></trkpt><trkpt lat="44.27991115899535" lon="11.110239114676139"><ele>203.25</ele><time>2026-04-28T10:42:42.936Z</time></trkpt><trkpt lat="44.28005930958025" lon="11.110223146167446"><ele>204.5</ele><time>2026-04-28T10:42:43.936Z</time></trkpt><trkpt lat="44.28020332812366" lon="11.110214873908232"><ele>205.75</ele><time>2026-04-28T10:42:44.936Z</time></trkpt><trkpt lat="44.28034222750996" lon="11.110228696882329"><ele>207.0</ele><time>2026-04-28T10:42:45.936Z</time></trkpt><trkpt lat="44.28047423317936" lon="11.110248451561068"><ele>207.0</ele><time>2026-04-28T10:42:46.936Z</time></trkpt><trkpt lat="44.280593335545795" lon="11.110269210064935"><ele>207.0</ele><time>2026-04-28T10:42:47.936Z</time></trkpt><trkpt lat="44.28070072713142" lon="11.11028550839634"><ele>207.0</ele><time>2026-04-28T10:42:48.936Z</time></trkpt><trkpt lat="44.28080622181171" lon="11.11030178558738"><ele>207.0</ele><time>2026-04-28T10:42:49.936Z</time></trkpt><trkpt lat="44.28089556198715" lon="11.110323939418716"><ele>207.0</ele><time>2026-04-28T10:42:50.936Z</time></trkpt><trkpt lat="44.28098862427522" lon="11.11034201050896"><ele>207.33333333333334</ele><time>2026-04-28T10:42:51.936Z</time></trkpt><trkpt lat="44.28107317063908" lon="11.110355947989213"><ele>207.66666666666669</ele><time>2026-04-28T10:42:52.936Z</time></trkpt><trkpt lat="44.281148788208874" lon="11.110363377359569"><ele>208.0</ele><time>2026-04-28T10:42:53.936Z</time></trkpt><trkpt lat="44.2812283813477" lon="11.110375274049646"><ele>208.33333333333334</ele><time>2026-04-28T10:42:54.936Z</time></trkpt><trkpt lat="44.28131817461139" lon="11.110410063678644"><ele>208.66666666666669</ele><time>2026-04-28T10:42:55.936Z</time></trkpt><trkpt lat="44.281408423902654" lon="11.110428993809068"><ele>209.0</ele><time>2026-04-28T10:42:56.936Z</time></trkpt><trkpt lat="44.28150737205711" lon="11.110450141875527"><ele>207.83333333333334</ele><time>2026-04-28T10:42:57.936Z</time></trkpt><trkpt lat="44.28158873956245" lon="11.110467806148712"><ele>206.66666666666669</ele><time>2026-04-28T10:42:58.936Z</time></trkpt><trkpt lat="44.28166145880605" lon="11.11047559388363"><ele>205.5</ele><time>2026-04-28T10:42:59.936Z</time></trkpt><trkpt lat="44.28173223126542" lon="11.110488842498441"><ele>204.33333333333331</ele><time>2026-04-28T10:43:00.936Z</time></trkpt><trkpt lat="44.281809663185335" lon="11.11050460994032"><ele>203.16666666666666</ele><time>2026-04-28T10:43:01.936Z</time></trkpt><trkpt lat="44.28188147275123" lon="11.110522233184717"><ele>202.0</ele><time>2026-04-28T10:43:02.936Z</time></trkpt><trkpt lat="44.28195396005039" lon="11.110543751505555"><ele>202.0</ele><time>2026-04-28T10:43:03.936Z</time></trkpt><trkpt lat="44.28202783173074" lon="11.11055420660459"><ele>202.0</ele><time>2026-04-28T10:43:05Z</time></trkpt><trkpt lat="44.28210590828942" lon="11.110574887674938"><ele>202.0</ele><time>2026-04-28T10:43:06Z</time></trkpt><trkpt lat="44.2821761931698" lon="11.110587899490422"><ele>202.0</ele><time>2026-04-28T10:43:07Z</time></trkpt><trkpt lat="44.282297031486515" lon="11.110607879921995"><ele>202.0</ele><time>2026-04-28T10:43:09Z</time></trkpt><trkpt lat="44.28240460230487" lon="11.110629223460894"><ele>201.33333333333331</ele><time>2026-04-28T10:43:11Z</time></trkpt><trkpt lat="44.28247100489031" lon="11.11065983027673"><ele>200.66666666666666</ele><time>2026-04-28T10:43:12Z</time></trkpt><trkpt lat="44.28254810603769" lon="11.110672584001819"><ele>200.0</ele><time>2026-04-28T10:43:13Z</time></trkpt><trkpt lat="44.282625131706055" lon="11.110688953818796"><ele>199.33333333333331</ele><time>2026-04-28T10:43:14Z</time></trkpt><trkpt lat="44.282709061164155" lon="11.110707133447244"><ele>198.66666666666666</ele><time>2026-04-28T10:43:15Z</time></trkpt><trkpt lat="44.28279646009995" lon="11.110730339690788"><ele>198.0</ele><time>2026-04-28T10:43:16Z</time></trkpt><trkpt lat="44.282895814380325" lon="11.110764826693186"><ele>198.0</ele><time>2026-04-28T10:43:17Z</time></trkpt><trkpt lat="44.28298375739649" lon="11.110805061243232"><ele>198.0</ele><time>2026-04-28T10:43:18Z</time></trkpt><trkpt lat="44.28307441637829" lon="11.110859057403141"><ele>198.0</ele><time>2026-04-28T10:43:19Z</time></trkpt><trkpt lat="44.28316251735083" lon="11.110948576627564"><ele>198.0</ele><time>2026-04-28T10:43:20Z</time></trkpt><trkpt lat="44.28323532476337" lon="11.11107783685533"><ele>198.0</ele><time>2026-04-28T10:43:21Z</time></trkpt><trkpt lat="44.28329182014315" lon="11.111212391715451"><ele>198.5</ele><time>2026-04-28T10:43:22Z</time></trkpt><trkpt lat="44.28332226106551" lon="11.11129983908577"><ele>199.0</ele><time>2026-04-28T10:43:23Z</time></trkpt><trkpt lat="44.283358532109055" lon="11.111375703887449"><ele>199.5</ele><time>2026-04-28T10:44:07.002Z</time></trkpt><trkpt lat="44.28340931338729" lon="11.111512063537555"><ele>200.0</ele><time>2026-04-28T10:44:09.002Z</time></trkpt><trkpt lat="44.2834503428972" lon="11.111580585730465"><ele>200.5</ele><time>2026-04-28T10:44:10.002Z</time></trkpt><trkpt lat="44.28351910633307" lon="11.111622097037358"><ele>201.0</ele><time>2026-04-28T10:44:11.002Z</time></trkpt><trkpt lat="44.28358664724517" lon="11.11167345878496"><ele>201.0</ele><time>2026-04-28T10:44:12.002Z</time></trkpt><trkpt lat="44.28366043820784" lon="11.111715949453123"><ele>201.0</ele><time>2026-04-28T10:44:13.002Z</time></trkpt><trkpt lat="44.28373839631427" lon="11.111751525522482"><ele>201.0</ele><time>2026-04-28T10:44:14.002Z</time></trkpt><trkpt lat="44.28381807820973" lon="11.11183728322859"><ele>201.0</ele><time>2026-04-28T10:44:15.002Z</time></trkpt><trkpt lat="44.28391388024814" lon="11.11186970483478"><ele>201.0</ele><time>2026-04-28T10:44:16.002Z</time></trkpt><trkpt lat="44.28401409349951" lon="11.111926857879613"><ele>201.60000000000002</ele><time>2026-04-28T10:44:17.002Z</time></trkpt><trkpt lat="44.28409682517039" lon="11.112014653829524"><ele>202.2</ele><time>2026-04-28T10:44:18.002Z</time></trkpt><trkpt lat="44.28418542034223" lon="11.112057603501293"><ele>202.8</ele><time>2026-04-28T10:44:19.002Z</time></trkpt><trkpt lat="44.284268745954996" lon="11.112100788783444"><ele>203.39999999999998</ele><time>2026-04-28T10:44:20.002Z</time></trkpt><trkpt lat="44.28436956956092" lon="11.112162398023212"><ele>204.0</ele><time>2026-04-28T10:44:21.002Z</time></trkpt><trkpt lat="44.28446800912803" lon="11.112212829724136"><ele>204.0</ele><time>2026-04-28T10:44:22.002Z</time></trkpt><trkpt lat="44.28457331356802" lon="11.112260352656518"><ele>204.0</ele><time>2026-04-28T10:44:23.002Z</time></trkpt><trkpt lat="44.28468087654045" lon="11.112294544463802"><ele>204.0</ele><time>2026-04-28T10:44:24.002Z</time></trkpt><trkpt lat="44.28478540640803" lon="11.112355408694713"><ele>204.0</ele><time>2026-04-28T10:44:25.002Z</time></trkpt><trkpt lat="44.28489239350302" lon="11.11241508669471"><ele>204.0</ele><time>2026-04-28T10:44:26.002Z</time></trkpt><trkpt lat="44.285010188982575" lon="11.11247554829128"><ele>202.5</ele><time>2026-04-28T10:44:27.002Z</time></trkpt><trkpt lat="44.285128685804544" lon="11.112522608155972"><ele>201.0</ele><time>2026-04-28T10:44:28.002Z</time></trkpt><trkpt lat="44.285246301741495" lon="11.112560213253788"><ele>199.5</ele><time>2026-04-28T10:44:29.002Z</time></trkpt><trkpt lat="44.285361194152394" lon="11.112587339723232"><ele>198.0</ele><time>2026-04-28T10:44:30.002Z</time></trkpt><trkpt lat="44.28546813632599" lon="11.112603769348794"><ele>198.0</ele><time>2026-04-28T10:44:31.002Z</time></trkpt><trkpt lat="44.285578202851575" lon="11.112611219431335"><ele>198.0</ele><time>2026-04-28T10:44:32.002Z</time></trkpt><trkpt lat="44.28569126664409" lon="11.112586554780668"><ele>198.0</ele><time>2026-04-28T10:44:33.002Z</time></trkpt><trkpt lat="44.28581040678497" lon="11.112566119097593"><ele>198.0</ele><time>2026-04-28T10:44:34.002Z</time></trkpt><trkpt lat="44.285918695678106" lon="11.112553904106868"><ele>198.0</ele><time>2026-04-28T10:44:35.002Z</time></trkpt><trkpt lat="44.286030571221666" lon="11.112529878634477"><ele>198.0</ele><time>2026-04-28T10:44:36.002Z</time></trkpt><trkpt lat="44.28614654458756" lon="11.112501179646655"><ele>198.0</ele><time>2026-04-28T10:44:37.002Z</time></trkpt><trkpt lat="44.28624730252406" lon="11.11247238991664"><ele>198.0</ele><time>2026-04-28T10:44:38.002Z</time></trkpt><trkpt lat="44.28637140651728" lon="11.11243685438899"><ele>197.0</ele><time>2026-04-28T10:44:39.002Z</time></trkpt><trkpt lat="44.28649589329574" lon="11.112412668654391"><ele>196.0</ele><time>2026-04-28T10:44:40.003Z</time></trkpt><trkpt lat="44.286620993503746" lon="11.11238586655714"><ele>195.0</ele><time>2026-04-28T10:44:41.003Z</time></trkpt><trkpt lat="44.28674154143249" lon="11.112355069459039"><ele>194.0</ele><time>2026-04-28T10:44:42.003Z</time></trkpt><trkpt lat="44.28686003242092" lon="11.112325524961017"><ele>195.75</ele><time>2026-04-28T10:44:43.003Z</time></trkpt><trkpt lat="44.28698019824148" lon="11.112286783987104"><ele>197.5</ele><time>2026-04-28T10:44:44.003Z</time></trkpt><trkpt lat="44.287097640666424" lon="11.112245631001933"><ele>199.25</ele><time>2026-04-28T10:44:45.003Z</time></trkpt><trkpt lat="44.28721954592319" lon="11.112218468062913"><ele>201.0</ele><time>2026-04-28T10:44:46.003Z</time></trkpt><trkpt lat="44.28733340718019" lon="11.11219019768587"><ele>201.0</ele><time>2026-04-28T10:44:47.003Z</time></trkpt><trkpt lat="44.287454863583555" lon="11.112159051743346"><ele>201.0</ele><time>2026-04-28T10:44:48.003Z</time></trkpt><trkpt lat="44.28758376345644" lon="11.112120543108638"><ele>201.0</ele><time>2026-04-28T10:44:49.003Z</time></trkpt><trkpt lat="44.28771454543154" lon="11.112094636226045"><ele>201.0</ele><time>2026-04-28T10:44:50.003Z</time></trkpt><trkpt lat="44.28783773428094" lon="11.112061612042424"><ele>201.0</ele><time>2026-04-28T10:44:51.003Z</time></trkpt><trkpt lat="44.28796932151691" lon="11.112017966607084"><ele>201.0</ele><time>2026-04-28T10:44:52.003Z</time></trkpt><trkpt lat="44.288097060081334" lon="11.112007241459722"><ele>201.0</ele><time>2026-04-28T10:44:53.003Z</time></trkpt><trkpt lat="44.28822530813752" lon="11.11202464258491"><ele>201.0</ele><time>2026-04-28T10:44:54.003Z</time></trkpt><trkpt lat="44.28835811256974" lon="11.112067103659854"><ele>201.25</ele><time>2026-04-28T10:44:55.003Z</time></trkpt><trkpt lat="44.2884920027786" lon="11.112122198250725"><ele>201.5</ele><time>2026-04-28T10:44:56.003Z</time></trkpt><trkpt lat="44.288619080563876" lon="11.112191511932997"><ele>201.75</ele><time>2026-04-28T10:44:57.003Z</time></trkpt><trkpt lat="44.28875116392982" lon="11.112266924130173"><ele>202.0</ele><time>2026-04-28T10:44:58.003Z</time></trkpt><trkpt lat="44.28887811502892" lon="11.112326913686172"><ele>202.75</ele><time>2026-04-28T10:44:59.003Z</time></trkpt><trkpt lat="44.28900490320954" lon="11.112379541666407"><ele>203.5</ele><time>2026-04-28T10:45:00.003Z</time></trkpt><trkpt lat="44.289122388307284" lon="11.11243190756835"><ele>204.25</ele><time>2026-04-28T10:45:01.003Z</time></trkpt><trkpt lat="44.28924056300422" lon="11.11251359388489"><ele>205.0</ele><time>2026-04-28T10:45:02.003Z</time></trkpt><trkpt lat="44.28933903727037" lon="11.11260759853696"><ele>203.25</ele><time>2026-04-28T10:45:03.003Z</time></trkpt><trkpt lat="44.28942358056401" lon="11.112743073113641"><ele>201.5</ele><time>2026-04-28T10:45:04.003Z</time></trkpt><trkpt lat="44.28948408495859" lon="11.112904204847782"><ele>199.75</ele><time>2026-04-28T10:45:05.003Z</time></trkpt><trkpt lat="44.28953268658192" lon="11.113095406878802"><ele>198.0</ele><time>2026-04-28T10:45:06.003Z</time></trkpt><trkpt lat="44.28955373890519" lon="11.113274961139918"><ele>196.8</ele><time>2026-04-28T10:45:07.003Z</time></trkpt><trkpt lat="44.28956929613913" lon="11.113445615081403"><ele>195.60000000000002</ele><time>2026-04-28T10:45:08.003Z</time></trkpt><trkpt lat="44.28958354895055" lon="11.11359056970569"><ele>194.39999999999998</ele><time>2026-04-28T10:45:09.003Z</time></trkpt><trkpt lat="44.28960669003807" lon="11.113724659181074"><ele>193.2</ele><time>2026-04-28T10:45:10.003Z</time></trkpt><trkpt lat="44.2896243860817" lon="11.113849124314386"><ele>192.0</ele><time>2026-04-28T10:45:11.002Z</time></trkpt><trkpt lat="44.28964107244648" lon="11.11394773380896"><ele>191.66666666666666</ele><time>2026-04-28T10:45:12.002Z</time></trkpt><trkpt lat="44.28967871485604" lon="11.114099852315647"><ele>191.33333333333334</ele><time>2026-04-28T10:45:14.002Z</time></trkpt><trkpt lat="44.28970805808428" lon="11.114196130261716"><ele>191.0</ele><time>2026-04-28T10:45:16.001Z</time></trkpt><trkpt lat="44.289746512108294" lon="11.11429104567011"><ele>190.66666666666669</ele><time>2026-04-28T10:45:19.002Z</time></trkpt><trkpt lat="44.28977037014586" lon="11.114380858908225"><ele>190.33333333333334</ele><time>2026-04-28T10:45:47.001Z</time></trkpt><trkpt lat="44.28982884207068" lon="11.114485209101431"><ele>190.0</ele><time>2026-04-28T10:46:09.001Z</time></trkpt><trkpt lat="44.28988693707082" lon="11.114528789671297"><ele>190.16666666666669</ele><time>2026-04-28T10:46:10.001Z</time></trkpt><trkpt lat="44.28995849577947" lon="11.114595816166673"><ele>190.33333333333334</ele><time>2026-04-28T10:46:11.001Z</time></trkpt><trkpt lat="44.29003446996852" lon="11.114664976765527"><ele>190.5</ele><time>2026-04-28T10:46:12.001Z</time></trkpt><trkpt lat="44.29010201596116" lon="11.114756785497846"><ele>190.66666666666666</ele><time>2026-04-28T10:46:13.001Z</time></trkpt><trkpt lat="44.290178894645415" lon="11.114818878743927"><ele>190.83333333333331</ele><time>2026-04-28T10:46:14.001Z</time></trkpt><trkpt lat="44.29024738490146" lon="11.114876484998476"><ele>191.0</ele><time>2026-04-28T10:46:15.001Z</time></trkpt><trkpt lat="44.29030800535661" lon="11.114921847260451"><ele>191.0</ele><time>2026-04-28T10:46:16.001Z</time></trkpt><trkpt lat="44.29037224080781" lon="11.11497189789149"><ele>191.0</ele><time>2026-04-28T10:46:17.001Z</time></trkpt><trkpt lat="44.29044742840386" lon="11.115005109222688"><ele>191.0</ele><time>2026-04-28T10:46:18.001Z</time></trkpt><trkpt lat="44.290510530774476" lon="11.115083396681701"><ele>191.0</ele><time>2026-04-28T10:46:19.001Z</time></trkpt><trkpt lat="44.29058598144204" lon="11.11514447186441"><ele>191.0</ele><time>2026-04-28T10:46:20.001Z</time></trkpt><trkpt lat="44.29067017040097" lon="11.115212456481476"><ele>191.0</ele><time>2026-04-28T10:46:21.001Z</time></trkpt><trkpt lat="44.290758987479876" lon="11.115284178609155"><ele>191.5</ele><time>2026-04-28T10:46:22.001Z</time></trkpt><trkpt lat="44.29085199454636" lon="11.115359284062912"><ele>192.0</ele><time>2026-04-28T10:46:23.001Z</time></trkpt><trkpt lat="44.290949141806344" lon="11.115432252914324"><ele>192.5</ele><time>2026-04-28T10:46:24.001Z</time></trkpt><trkpt lat="44.29105388108877" lon="11.115511938448654"><ele>193.0</ele><time>2026-04-28T10:46:25.001Z</time></trkpt><trkpt lat="44.291156335679595" lon="11.115595792369657"><ele>193.0</ele><time>2026-04-28T10:46:26.001Z</time></trkpt><trkpt lat="44.29126727986924" lon="11.115691080965039"><ele>193.0</ele><time>2026-04-28T10:46:27.001Z</time></trkpt><trkpt lat="44.29138242616352" lon="11.115786124550246"><ele>193.0</ele><time>2026-04-28T10:46:28.001Z</time></trkpt><trkpt lat="44.29149923445544" lon="11.115886088147287"><ele>193.0</ele><time>2026-04-28T10:46:29.001Z</time></trkpt><trkpt lat="44.29160897422828" lon="11.115997563749168"><ele>192.5</ele><time>2026-04-28T10:46:30.001Z</time></trkpt><trkpt lat="44.291737622390784" lon="11.11610226490206"><ele>192.0</ele><time>2026-04-28T10:46:31.001Z</time></trkpt><trkpt lat="44.291864218397365" lon="11.116197073640532"><ele>191.5</ele><time>2026-04-28T10:46:32.001Z</time></trkpt><trkpt lat="44.2920054002526" lon="11.116281458933988"><ele>191.0</ele><time>2026-04-28T10:46:33.001Z</time></trkpt><trkpt lat="44.292159577748876" lon="11.116341887709552"><ele>190.66666666666666</ele><time>2026-04-28T10:46:34.001Z</time></trkpt><trkpt lat="44.292329217960514" lon="11.116374555471479"><ele>190.33333333333334</ele><time>2026-04-28T10:46:35.001Z</time></trkpt><trkpt lat="44.292500353272544" lon="11.116379478421832"><ele>190.0</ele><time>2026-04-28T10:46:36.001Z</time></trkpt><trkpt lat="44.292656693877944" lon="11.116364183397447"><ele>190.0</ele><time>2026-04-28T10:46:37.001Z</time></trkpt><trkpt lat="44.29280031252465" lon="11.116338885630704"><ele>190.0</ele><time>2026-04-28T10:46:38.001Z</time></trkpt><trkpt lat="44.292940826781695" lon="11.11631671323204"><ele>190.0</ele><time>2026-04-28T10:46:39.001Z</time></trkpt><trkpt lat="44.2930820645035" lon="11.116326139477906"><ele>190.0</ele><time>2026-04-28T10:46:40.001Z</time></trkpt><trkpt lat="44.29323520923993" lon="11.116351694756146"><ele>190.0</ele><time>2026-04-28T10:46:41.001Z</time></trkpt><trkpt lat="44.29339193890354" lon="11.116399153991031"><ele>190.0</ele><time>2026-04-28T10:46:42.001Z</time></trkpt><trkpt lat="44.29354536321687" lon="11.11646535619458"><ele>190.0</ele><time>2026-04-28T10:46:43.001Z</time></trkpt><trkpt lat="44.293698916808324" lon="11.116534029603143"><ele>189.0</ele><time>2026-04-28T10:46:44.001Z</time></trkpt><trkpt lat="44.293841765654925" lon="11.116587086310457"><ele>188.0</ele><time>2026-04-28T10:46:45.001Z</time></trkpt><trkpt lat="44.29398166184781" lon="11.116621235453579"><ele>187.0</ele><time>2026-04-28T10:46:46.001Z</time></trkpt><trkpt lat="44.29411569075585" lon="11.116625784903915"><ele>186.0</ele><time>2026-04-28T10:46:47.001Z</time></trkpt><trkpt lat="44.29425707249392" lon="11.116594697528608"><ele>189.66666666666669</ele><time>2026-04-28T10:46:48.001Z</time></trkpt><trkpt lat="44.29440194411452" lon="11.116531964191541"><ele>193.33333333333334</ele><time>2026-04-28T10:46:49.001Z</time></trkpt><trkpt lat="44.294541040187795" lon="11.116448128554854"><ele>197.0</ele><time>2026-04-28T10:46:50.001Z</time></trkpt><trkpt lat="44.29467413721699" lon="11.116357858729245"><ele>196.25</ele><time>2026-04-28T10:46:51.001Z</time></trkpt><trkpt lat="44.2948097256022" lon="11.116276538694942"><ele>195.5</ele><time>2026-04-28T10:46:52.001Z</time></trkpt><trkpt lat="44.29494574507076" lon="11.116220021374204"><ele>194.75</ele><time>2026-04-28T10:46:53.001Z</time></trkpt><trkpt lat="44.29508822067126" lon="11.116202137131008"><ele>194.0</ele><time>2026-04-28T10:46:54.001Z</time></trkpt><trkpt lat="44.295238301865226" lon="11.116210723169145"><ele>194.0</ele><time>2026-04-28T10:46:55.001Z</time></trkpt><trkpt lat="44.29539005650007" lon="11.116253465736685"><ele>194.0</ele><time>2026-04-28T10:46:56.001Z</time></trkpt><trkpt lat="44.29552331660329" lon="11.116314398824105"><ele>194.0</ele><time>2026-04-28T10:46:57.001Z</time></trkpt><trkpt lat="44.29564032760233" lon="11.116405071368444"><ele>194.0</ele><time>2026-04-28T10:46:58.001Z</time></trkpt><trkpt lat="44.29573310839297" lon="11.116533724072243"><ele>193.0</ele><time>2026-04-28T10:46:59.001Z</time></trkpt><trkpt lat="44.295812025587374" lon="11.116710482859832"><ele>192.0</ele><time>2026-04-28T10:47:00.001Z</time></trkpt><trkpt lat="44.2958764499572" lon="11.116903934834975"><ele>191.0</ele><time>2026-04-28T10:47:01.001Z</time></trkpt><trkpt lat="44.295934614490434" lon="11.117091794519704"><ele>190.0</ele><time>2026-04-28T10:47:02.001Z</time></trkpt><trkpt lat="44.29597074144244" lon="11.117268878265438"><ele>188.0</ele><time>2026-04-28T10:47:03.001Z</time></trkpt><trkpt lat="44.29605320652501" lon="11.117428621400151"><ele>186.0</ele><time>2026-04-28T10:47:04.001Z</time></trkpt><trkpt lat="44.296186564949714" lon="11.117532373964757"><ele>184.0</ele><time>2026-04-28T10:47:05.001Z</time></trkpt><trkpt lat="44.29632659683929" lon="11.117643876051385"><ele>186.66666666666669</ele><time>2026-04-28T10:47:06.001Z</time></trkpt><trkpt lat="44.296480955276415" lon="11.11774525398574"><ele>189.33333333333334</ele><time>2026-04-28T10:47:07.001Z</time></trkpt><trkpt lat="44.296656151531884" lon="11.117840414307427"><ele>192.0</ele><time>2026-04-28T10:47:08.001Z</time></trkpt><trkpt lat="44.29683446996651" lon="11.11793442077232"><ele>192.0</ele><time>2026-04-28T10:47:09.001Z</time></trkpt><trkpt lat="44.29702281256897" lon="11.118033607567993"><ele>192.0</ele><time>2026-04-28T10:47:10.001Z</time></trkpt><trkpt lat="44.29720520960337" lon="11.118125070663949"><ele>192.0</ele><time>2026-04-28T10:47:11.001Z</time></trkpt><trkpt lat="44.29738320111603" lon="11.118210626457964"><ele>189.0</ele><time>2026-04-28T10:47:12.001Z</time></trkpt><trkpt lat="44.29755787278629" lon="11.118291023324943"><ele>186.0</ele><time>2026-04-28T10:47:13.002Z</time></trkpt><trkpt lat="44.297729495651524" lon="11.118375578781407"><ele>183.0</ele><time>2026-04-28T10:47:14.002Z</time></trkpt><trkpt lat="44.29789956757794" lon="11.118466947079432"><ele>183.0</ele><time>2026-04-28T10:47:15.002Z</time></trkpt><trkpt lat="44.29806902623585" lon="11.118569423947498"><ele>183.0</ele><time>2026-04-28T10:47:16.002Z</time></trkpt><trkpt lat="44.29822855061952" lon="11.118688624644715"><ele>183.0</ele><time>2026-04-28T10:47:17.002Z</time></trkpt><trkpt lat="44.298389278053804" lon="11.118818672713589"><ele>185.33333333333334</ele><time>2026-04-28T10:47:18.002Z</time></trkpt><trkpt lat="44.298539364615294" lon="11.118966003806674"><ele>187.66666666666669</ele><time>2026-04-28T10:47:19.002Z</time></trkpt><trkpt lat="44.29869603576573" lon="11.119130987158503"><ele>190.0</ele><time>2026-04-28T10:47:20.002Z</time></trkpt><trkpt lat="44.29884177874197" lon="11.11930828253671"><ele>191.0</ele><time>2026-04-28T10:47:21.002Z</time></trkpt><trkpt lat="44.298965228689475" lon="11.119511206741478"><ele>192.0</ele><time>2026-04-28T10:47:22.002Z</time></trkpt><trkpt lat="44.29908987685757" lon="11.119713345123959"><ele>193.0</ele><time>2026-04-28T10:47:23.002Z</time></trkpt><trkpt lat="44.29920707573112" lon="11.119944106135458"><ele>188.66666666666666</ele><time>2026-04-28T10:47:24.002Z</time></trkpt><trkpt lat="44.29933132041361" lon="11.120174756228609"><ele>184.33333333333331</ele><time>2026-04-28T10:47:25.002Z</time></trkpt><trkpt lat="44.29944888366375" lon="11.120394679459713"><ele>180.0</ele><time>2026-04-28T10:47:26.002Z</time></trkpt><trkpt lat="44.29956103156387" lon="11.120605726402193"><ele>179.33333333333334</ele><time>2026-04-28T10:47:27.002Z</time></trkpt><trkpt lat="44.29967170054675" lon="11.120817379587766"><ele>178.66666666666669</ele><time>2026-04-28T10:47:28.002Z</time></trkpt><trkpt lat="44.299780641652916" lon="11.121022175024931"><ele>178.0</ele><time>2026-04-28T10:47:29.002Z</time></trkpt><trkpt lat="44.299888137378346" lon="11.121216523096692"><ele>178.66666666666669</ele><time>2026-04-28T10:47:30.002Z</time></trkpt><trkpt lat="44.29999799308488" lon="11.121407757138266"><ele>179.33333333333334</ele><time>2026-04-28T10:47:31.002Z</time></trkpt><trkpt lat="44.300105107320924" lon="11.121600633741679"><ele>180.0</ele><time>2026-04-28T10:47:32.002Z</time></trkpt><trkpt lat="44.30021617959901" lon="11.121788501490675"><ele>180.0</ele><time>2026-04-28T10:47:33.002Z</time></trkpt><trkpt lat="44.30033562267073" lon="11.121969535165299"><ele>180.0</ele><time>2026-04-28T10:47:34.002Z</time></trkpt><trkpt lat="44.300451901828616" lon="11.122145384066162"><ele>180.0</ele><time>2026-04-28T10:47:35.002Z</time></trkpt><trkpt lat="44.30056619441732" lon="11.122318144794976"><ele>182.0</ele><time>2026-04-28T10:47:36.002Z</time></trkpt><trkpt lat="44.30067279135783" lon="11.122478560864144"><ele>184.0</ele><time>2026-04-28T10:47:37.002Z</time></trkpt><trkpt lat="44.3007762708147" lon="11.122640935069814"><ele>186.0</ele><time>2026-04-28T10:47:38.002Z</time></trkpt><trkpt lat="44.300871413648245" lon="11.122793854927005"><ele>186.0</ele><time>2026-04-28T10:47:39.002Z</time></trkpt><trkpt lat="44.300960688007926" lon="11.122929455391255"><ele>186.0</ele><time>2026-04-28T10:47:40.002Z</time></trkpt><trkpt lat="44.30104818522246" lon="11.123066121437176"><ele>186.0</ele><time>2026-04-28T10:47:41.002Z</time></trkpt><trkpt lat="44.30114173071045" lon="11.123207644249018"><ele>186.0</ele><time>2026-04-28T10:47:42.002Z</time></trkpt><trkpt lat="44.30123120972539" lon="11.123342064525955"><ele>185.0</ele><time>2026-04-28T10:47:43.002Z</time></trkpt><trkpt lat="44.30132096298142" lon="11.12346734427142"><ele>184.0</ele><time>2026-04-28T10:47:44.002Z</time></trkpt><trkpt lat="44.301405797002026" lon="11.123593382263579"><ele>183.0</ele><time>2026-04-28T10:47:45.002Z</time></trkpt><trkpt lat="44.301477767165956" lon="11.123719883754879"><ele>182.0</ele><time>2026-04-28T10:47:46.002Z</time></trkpt><trkpt lat="44.30154088556515" lon="11.123868427474326"><ele>183.0</ele><time>2026-04-28T10:47:47.002Z</time></trkpt><trkpt lat="44.30158860582024" lon="11.12404608185727"><ele>184.0</ele><time>2026-04-28T10:47:48.002Z</time></trkpt><trkpt lat="44.301625083271276" lon="11.124231354678559"><ele>185.0</ele><time>2026-04-28T10:47:49.002Z</time></trkpt><trkpt lat="44.30164495135671" lon="11.124419811328604"><ele>186.0</ele><time>2026-04-28T10:47:50.002Z</time></trkpt><trkpt lat="44.30162552625522" lon="11.124614965105001"><ele>186.0</ele><time>2026-04-28T10:47:51.002Z</time></trkpt><trkpt lat="44.30163293515315" lon="11.12484725460515"><ele>186.0</ele><time>2026-04-28T10:47:52.002Z</time></trkpt><trkpt lat="44.30160804278737" lon="11.125092650357251"><ele>186.0</ele><time>2026-04-28T10:47:53.002Z</time></trkpt><trkpt lat="44.30159979950576" lon="11.125363110527745"><ele>184.33333333333334</ele><time>2026-04-28T10:47:54.002Z</time></trkpt><trkpt lat="44.30159567073169" lon="11.125641312295036"><ele>182.66666666666669</ele><time>2026-04-28T10:47:55.002Z</time></trkpt><trkpt lat="44.30160022150454" lon="11.12594641547841"><ele>181.0</ele><time>2026-04-28T10:47:56.002Z</time></trkpt><trkpt lat="44.30162202597338" lon="11.126226930210558"><ele>181.0</ele><time>2026-04-28T10:47:57.002Z</time></trkpt><trkpt lat="44.30166532922392" lon="11.126498128297873"><ele>181.0</ele><time>2026-04-28T10:47:58.002Z</time></trkpt><trkpt lat="44.301707540999686" lon="11.126775524928235"><ele>181.0</ele><time>2026-04-28T10:47:59.002Z</time></trkpt><trkpt lat="44.30175212932759" lon="11.127050448157513"><ele>180.66666666666669</ele><time>2026-04-28T10:48:00.002Z</time></trkpt><trkpt lat="44.30177621542977" lon="11.127331229143524"><ele>180.33333333333334</ele><time>2026-04-28T10:48:01.002Z</time></trkpt><trkpt lat="44.30182782125694" lon="11.127587220432412"><ele>180.0</ele><time>2026-04-28T10:48:02.002Z</time></trkpt><trkpt lat="44.30185246934729" lon="11.12783265947748"><ele>180.0</ele><time>2026-04-28T10:48:03.002Z</time></trkpt><trkpt lat="44.301885035398556" lon="11.12807254244653"><ele>180.0</ele><time>2026-04-28T10:48:04.002Z</time></trkpt><trkpt lat="44.30191962275453" lon="11.128314353511783"><ele>180.0</ele><time>2026-04-28T10:48:05.002Z</time></trkpt><trkpt lat="44.30195588887723" lon="11.128553984217927"><ele>180.0</ele><time>2026-04-28T10:48:06.002Z</time></trkpt><trkpt lat="44.30199055661068" lon="11.128792724817894"><ele>180.0</ele><time>2026-04-28T10:48:07.002Z</time></trkpt><trkpt lat="44.302023496269456" lon="11.12902315872935"><ele>180.0</ele><time>2026-04-28T10:48:08.002Z</time></trkpt><trkpt lat="44.302047827044476" lon="11.129236182252772"><ele>180.0</ele><time>2026-04-28T10:48:09.002Z</time></trkpt><trkpt lat="44.30205785068021" lon="11.12943430815537"><ele>180.0</ele><time>2026-04-28T10:48:10.002Z</time></trkpt><trkpt lat="44.30204601780764" lon="11.129625343433837"><ele>180.0</ele><time>2026-04-28T10:48:11.002Z</time></trkpt><trkpt lat="44.30199986876659" lon="11.129819793089721"><ele>180.0</ele><time>2026-04-28T10:48:12.002Z</time></trkpt><trkpt lat="44.30192986151316" lon="11.130003395539118"><ele>180.75</ele><time>2026-04-28T10:48:13.002Z</time></trkpt><trkpt lat="44.30184605755931" lon="11.130163492126561"><ele>181.5</ele><time>2026-04-28T10:48:14.002Z</time></trkpt><trkpt lat="44.30176747286835" lon="11.13032570111434"><ele>182.25</ele><time>2026-04-28T10:48:15.002Z</time></trkpt><trkpt lat="44.301700249823696" lon="11.13048316777342"><ele>183.0</ele><time>2026-04-28T10:48:16.002Z</time></trkpt><trkpt lat="44.3016594155578" lon="11.130652164507763"><ele>183.33333333333334</ele><time>2026-04-28T10:48:17.002Z</time></trkpt><trkpt lat="44.30161563133367" lon="11.130835243903363"><ele>183.66666666666669</ele><time>2026-04-28T10:48:18.002Z</time></trkpt><trkpt lat="44.301623015626554" lon="11.131078744255488"><ele>184.0</ele><time>2026-04-28T10:48:19.002Z</time></trkpt><trkpt lat="44.30165920982874" lon="11.131317556683937"><ele>184.0</ele><time>2026-04-28T10:48:20.002Z</time></trkpt><trkpt lat="44.30170213941246" lon="11.131549808579647"><ele>184.0</ele><time>2026-04-28T10:48:21.002Z</time></trkpt><trkpt lat="44.30173596430949" lon="11.131754226654039"><ele>184.0</ele><time>2026-04-28T10:48:22.002Z</time></trkpt><trkpt lat="44.30175979024636" lon="11.131940451931627"><ele>184.25</ele><time>2026-04-28T10:48:23.002Z</time></trkpt><trkpt lat="44.30173426822793" lon="11.132115655644462"><ele>184.5</ele><time>2026-04-28T10:48:24.003Z</time></trkpt><trkpt lat="44.30167954890252" lon="11.132285301609372"><ele>184.75</ele><time>2026-04-28T10:48:25.003Z</time></trkpt><trkpt lat="44.30158208875504" lon="11.132449665441875"><ele>185.0</ele><time>2026-04-28T10:48:26.003Z</time></trkpt><trkpt lat="44.30146672511549" lon="11.13261942153856"><ele>181.33333333333331</ele><time>2026-04-28T10:48:27.003Z</time></trkpt><trkpt lat="44.301340916271876" lon="11.132800971813232"><ele>177.66666666666666</ele><time>2026-04-28T10:48:28.003Z</time></trkpt><trkpt lat="44.301219412498845" lon="11.132984401545617"><ele>174.0</ele><time>2026-04-28T10:48:29.003Z</time></trkpt><trkpt lat="44.30110781946264" lon="11.133154588453941"><ele>175.5</ele><time>2026-04-28T10:48:30.003Z</time></trkpt><trkpt lat="44.30100915250382" lon="11.133319705659734"><ele>177.0</ele><time>2026-04-28T10:48:31.003Z</time></trkpt><trkpt lat="44.300933509234255" lon="11.133492369367918"><ele>178.5</ele><time>2026-04-28T10:48:32.003Z</time></trkpt><trkpt lat="44.3008647368525" lon="11.1336693126165"><ele>180.0</ele><time>2026-04-28T10:48:33.003Z</time></trkpt><trkpt lat="44.30082874993871" lon="11.133870466878866"><ele>180.25</ele><time>2026-04-28T10:48:34.003Z</time></trkpt><trkpt lat="44.300813357472414" lon="11.134082275259859"><ele>180.5</ele><time>2026-04-28T10:48:35.003Z</time></trkpt><trkpt lat="44.30085595232141" lon="11.134282954131045"><ele>180.75</ele><time>2026-04-28T10:48:36.003Z</time></trkpt><trkpt lat="44.3009148463403" lon="11.1344608127193"><ele>181.0</ele><time>2026-04-28T10:48:37.003Z</time></trkpt><trkpt lat="44.30101022825331" lon="11.134617897324954"><ele>181.0</ele><time>2026-04-28T10:48:38.003Z</time></trkpt><trkpt lat="44.301145371126964" lon="11.134720024110912"><ele>181.0</ele><time>2026-04-28T10:48:39.003Z</time></trkpt><trkpt lat="44.30126203511625" lon="11.134847626287103"><ele>181.0</ele><time>2026-04-28T10:48:40.003Z</time></trkpt><trkpt lat="44.30137916052013" lon="11.134955221825939"><ele>181.0</ele><time>2026-04-28T10:48:41.003Z</time></trkpt><trkpt lat="44.30147230920082" lon="11.135109794943785"><ele>185.25</ele><time>2026-04-28T10:48:42.003Z</time></trkpt><trkpt lat="44.30154026881997" lon="11.135273712454635"><ele>189.5</ele><time>2026-04-28T10:48:43.003Z</time></trkpt><trkpt lat="44.30157471608055" lon="11.135454686457772"><ele>193.75</ele><time>2026-04-28T10:48:44.003Z</time></trkpt><trkpt lat="44.301573109550105" lon="11.135662005162754"><ele>198.0</ele><time>2026-04-28T10:48:45.003Z</time></trkpt><trkpt lat="44.30155454295167" lon="11.13588183965584"><ele>198.0</ele><time>2026-04-28T10:48:46.003Z</time></trkpt><trkpt lat="44.30154292909381" lon="11.136118118765914"><ele>198.0</ele><time>2026-04-28T10:48:47.003Z</time></trkpt><trkpt lat="44.30153921971863" lon="11.136364413958031"><ele>198.0</ele><time>2026-04-28T10:48:48.003Z</time></trkpt><trkpt lat="44.30159136297326" lon="11.136602823171456"><ele>198.0</ele><time>2026-04-28T10:48:49.003Z</time></trkpt><trkpt lat="44.30163014801411" lon="11.136852975531548"><ele>198.0</ele><time>2026-04-28T10:48:50.003Z</time></trkpt><trkpt lat="44.30165252172013" lon="11.137104257624278"><ele>198.0</ele><time>2026-04-28T10:48:51.003Z</time></trkpt><trkpt lat="44.30166792359446" lon="11.137353230843617"><ele>197.0</ele><time>2026-04-28T10:48:52.003Z</time></trkpt><trkpt lat="44.30168969544523" lon="11.137594558028109"><ele>196.0</ele><time>2026-04-28T10:48:53.003Z</time></trkpt><trkpt lat="44.30173091250027" lon="11.137815927107162"><ele>195.0</ele><time>2026-04-28T10:48:54.003Z</time></trkpt><trkpt lat="44.30178508040026" lon="11.138013070383213"><ele>195.0</ele><time>2026-04-28T10:48:55.003Z</time></trkpt><trkpt lat="44.301840673845284" lon="11.138188646566936"><ele>195.0</ele><time>2026-04-28T10:48:56.003Z</time></trkpt><trkpt lat="44.301884599639706" lon="11.138331985398052"><ele>195.0</ele><time>2026-04-28T10:48:57.003Z</time></trkpt><trkpt lat="44.301926523883346" lon="11.138454842984716"><ele>195.0</ele><time>2026-04-28T10:48:58.003Z</time></trkpt><trkpt lat="44.30195832125508" lon="11.138558490933542"><ele>195.0</ele><time>2026-04-28T10:48:59.003Z</time></trkpt><trkpt lat="44.30197679513977" lon="11.138647304521134"><ele>193.5</ele><time>2026-04-28T10:49:00.003Z</time></trkpt><trkpt lat="44.30203364011273" lon="11.13878053290706"><ele>192.0</ele><time>2026-04-28T10:49:02.003Z</time></trkpt><trkpt lat="44.3020781162681" lon="11.13887135002862"><ele>190.5</ele><time>2026-04-28T10:49:04.003Z</time></trkpt><trkpt lat="44.30212023617013" lon="11.138951304600415"><ele>189.0</ele><time>2026-04-28T10:49:06.003Z</time></trkpt><trkpt lat="44.3021647071547" lon="11.139032187979245"><ele>187.5</ele><time>2026-04-28T10:49:08.003Z</time></trkpt><trkpt lat="44.30221412082208" lon="11.139104264523883"><ele>186.0</ele><time>2026-04-28T10:49:11.003Z</time></trkpt><trkpt lat="44.30226091759592" lon="11.139203610794132"><ele>190.33333333333334</ele><time>2026-04-28T10:50:33.004Z</time></trkpt><trkpt lat="44.30232141951736" lon="11.139302621049081"><ele>194.66666666666669</ele><time>2026-04-28T10:50:35.004Z</time></trkpt><trkpt lat="44.30235851432186" lon="11.139375820542096"><ele>199.0</ele><time>2026-04-28T10:50:36.004Z</time></trkpt><trkpt lat="44.30243603180843" lon="11.13951571544852"><ele>203.33333333333334</ele><time>2026-04-28T10:50:38.004Z</time></trkpt><trkpt lat="44.302489664416676" lon="11.139592975705007"><ele>207.66666666666669</ele><time>2026-04-28T10:50:39.004Z</time></trkpt><trkpt lat="44.30254260946899" lon="11.139684157954447"><ele>212.0</ele><time>2026-04-28T10:50:40.004Z</time></trkpt><trkpt lat="44.30259690887165" lon="11.139791650467513"><ele>208.8</ele><time>2026-04-28T10:50:41.004Z</time></trkpt><trkpt lat="44.30264164706465" lon="11.13991885212433"><ele>205.6</ele><time>2026-04-28T10:50:42.004Z</time></trkpt><trkpt lat="44.30267365517841" lon="11.140067221735736"><ele>202.4</ele><time>2026-04-28T10:50:43.004Z</time></trkpt><trkpt lat="44.302695718277754" lon="11.14021519805234"><ele>199.20000000000002</ele><time>2026-04-28T10:50:44.004Z</time></trkpt><trkpt lat="44.302714137437015" lon="11.140352596346649"><ele>196.0</ele><time>2026-04-28T10:50:45.004Z</time></trkpt><trkpt lat="44.30272687303334" lon="11.14049855868908"><ele>196.0</ele><time>2026-04-28T10:50:46.005Z</time></trkpt><trkpt lat="44.30273186483987" lon="11.140650831150985"><ele>196.0</ele><time>2026-04-28T10:50:47.005Z</time></trkpt><trkpt lat="44.30272405867627" lon="11.140807556270792"><ele>196.0</ele><time>2026-04-28T10:50:48.005Z</time></trkpt><trkpt lat="44.30270288641784" lon="11.140972014627415"><ele>196.0</ele><time>2026-04-28T10:50:49.005Z</time></trkpt><trkpt lat="44.30267518207743" lon="11.14113709655652"><ele>194.60000000000002</ele><time>2026-04-28T10:50:50.005Z</time></trkpt><trkpt lat="44.302645721018365" lon="11.14129061477549"><ele>193.2</ele><time>2026-04-28T10:50:51.005Z</time></trkpt><trkpt lat="44.30262138630227" lon="11.14144157891587"><ele>191.8</ele><time>2026-04-28T10:50:52.005Z</time></trkpt><trkpt lat="44.302606209175984" lon="11.14159412218581"><ele>190.39999999999998</ele><time>2026-04-28T10:50:53.005Z</time></trkpt><trkpt lat="44.30260064510021" lon="11.14174478164492"><ele>189.0</ele><time>2026-04-28T10:50:54.005Z</time></trkpt><trkpt lat="44.30260168300589" lon="11.141877022308652"><ele>189.0</ele><time>2026-04-28T10:50:55.005Z</time></trkpt><trkpt lat="44.30260100724151" lon="11.14201873713789"><ele>189.0</ele><time>2026-04-28T10:50:56.005Z</time></trkpt><trkpt lat="44.30260057203527" lon="11.142165616989402"><ele>189.0</ele><time>2026-04-28T10:50:57.005Z</time></trkpt><trkpt lat="44.30259902840808" lon="11.142321685684674"><ele>189.0</ele><time>2026-04-28T10:50:58.005Z</time></trkpt><trkpt lat="44.3026039967202" lon="11.142484588736522"><ele>189.0</ele><time>2026-04-28T10:50:59.005Z</time></trkpt><trkpt lat="44.30260519783818" lon="11.142645087173427"><ele>189.5</ele><time>2026-04-28T10:51:00.005Z</time></trkpt><trkpt lat="44.30260559524369" lon="11.142809477534154"><ele>190.0</ele><time>2026-04-28T10:51:01.005Z</time></trkpt><trkpt lat="44.302604183890736" lon="11.142979816768221"><ele>190.5</ele><time>2026-04-28T10:51:02.005Z</time></trkpt><trkpt lat="44.302603652566575" lon="11.143157217817336"><ele>191.0</ele><time>2026-04-28T10:51:03.005Z</time></trkpt><trkpt lat="44.30260263414337" lon="11.143344532471955"><ele>191.0</ele><time>2026-04-28T10:51:04.005Z</time></trkpt><trkpt lat="44.30260395111662" lon="11.14353102062941"><ele>191.0</ele><time>2026-04-28T10:51:05.005Z</time></trkpt><trkpt lat="44.30260008646099" lon="11.143703031974287"><ele>191.0</ele><time>2026-04-28T10:51:06.005Z</time></trkpt><trkpt lat="44.30259759850639" lon="11.143868887033845"><ele>191.0</ele><time>2026-04-28T10:51:07.005Z</time></trkpt><trkpt lat="44.30259464871416" lon="11.144023237417988"><ele>191.25</ele><time>2026-04-28T10:51:08.005Z</time></trkpt><trkpt lat="44.30259118021708" lon="11.14418202142274"><ele>191.5</ele><time>2026-04-28T10:51:09.005Z</time></trkpt><trkpt lat="44.30259212546235" lon="11.144348420809525"><ele>191.75</ele><time>2026-04-28T10:51:10.005Z</time></trkpt><trkpt lat="44.302601359320334" lon="11.144524906221708"><ele>192.0</ele><time>2026-04-28T10:51:11.005Z</time></trkpt><trkpt lat="44.30261760034298" lon="11.144696708811017"><ele>192.0</ele><time>2026-04-28T10:51:12.005Z</time></trkpt><trkpt lat="44.302637845100456" lon="11.144864172074499"><ele>192.0</ele><time>2026-04-28T10:51:13.005Z</time></trkpt><trkpt lat="44.30267145821047" lon="11.145033778721832"><ele>192.0</ele><time>2026-04-28T10:51:14.005Z</time></trkpt><trkpt lat="44.30269400015292" lon="11.145215401429995"><ele>192.0</ele><time>2026-04-28T10:51:15.005Z</time></trkpt><trkpt lat="44.30274026301981" lon="11.145389400832356"><ele>192.25</ele><time>2026-04-28T10:51:16.005Z</time></trkpt><trkpt lat="44.30280422672442" lon="11.14554538471056"><ele>192.5</ele><time>2026-04-28T10:51:17.005Z</time></trkpt><trkpt lat="44.30288392330748" lon="11.14568380717276"><ele>192.75</ele><time>2026-04-28T10:51:18.005Z</time></trkpt><trkpt lat="44.30299326014918" lon="11.145819495201291"><ele>193.0</ele><time>2026-04-28T10:51:19.005Z</time></trkpt><trkpt lat="44.303124193973446" lon="11.145932620361986"><ele>194.33333333333331</ele><time>2026-04-28T10:51:20.005Z</time></trkpt><trkpt lat="44.303258375936544" lon="11.14603579878974"><ele>195.66666666666669</ele><time>2026-04-28T10:51:21.005Z</time></trkpt><trkpt lat="44.303390833967" lon="11.146145515369156"><ele>197.0</ele><time>2026-04-28T10:51:22.005Z</time></trkpt><trkpt lat="44.303515579964944" lon="11.146273797751151"><ele>197.0</ele><time>2026-04-28T10:51:23.005Z</time></trkpt><trkpt lat="44.30361318362623" lon="11.14643850570796"><ele>197.0</ele><time>2026-04-28T10:51:24.005Z</time></trkpt><trkpt lat="44.303696567671324" lon="11.14659826319718"><ele>197.0</ele><time>2026-04-28T10:51:25.005Z</time></trkpt><trkpt lat="44.30378280701727" lon="11.14675180983658"><ele>197.0</ele><time>2026-04-28T10:51:26.005Z</time></trkpt><trkpt lat="44.30388655602763" lon="11.146899003270617"><ele>197.33333333333334</ele><time>2026-04-28T10:51:27.005Z</time></trkpt><trkpt lat="44.30400699378637" lon="11.147037148297867"><ele>197.66666666666669</ele><time>2026-04-28T10:51:28.005Z</time></trkpt><trkpt lat="44.304151420406775" lon="11.147152585071556"><ele>198.0</ele><time>2026-04-28T10:51:29.005Z</time></trkpt><trkpt lat="44.30430539011078" lon="11.147214947086512"><ele>198.0</ele><time>2026-04-28T10:51:30.005Z</time></trkpt><trkpt lat="44.30445009674184" lon="11.147314131460854"><ele>198.0</ele><time>2026-04-28T10:51:31.005Z</time></trkpt><trkpt lat="44.30459303414873" lon="11.147402212218239"><ele>198.0</ele><time>2026-04-28T10:51:32.005Z</time></trkpt><trkpt lat="44.304731293513775" lon="11.147508808076752"><ele>199.0</ele><time>2026-04-28T10:51:33.005Z</time></trkpt><trkpt lat="44.30485847196663" lon="11.147622948191241"><ele>200.0</ele><time>2026-04-28T10:51:34.005Z</time></trkpt><trkpt lat="44.304985422942735" lon="11.147738988324813"><ele>201.0</ele><time>2026-04-28T10:51:35.005Z</time></trkpt><trkpt lat="44.305102920067945" lon="11.147852631336411"><ele>202.0</ele><time>2026-04-28T10:51:36.005Z</time></trkpt><trkpt lat="44.30520176141996" lon="11.147959874248027"><ele>202.0</ele><time>2026-04-28T10:51:37.005Z</time></trkpt><trkpt lat="44.30528304698978" lon="11.14808848365091"><ele>202.0</ele><time>2026-04-28T10:51:38.005Z</time></trkpt><trkpt lat="44.30535871999282" lon="11.148235134362597"><ele>202.0</ele><time>2026-04-28T10:51:39.005Z</time></trkpt><trkpt lat="44.30539826552835" lon="11.148422410710817"><ele>202.0</ele><time>2026-04-28T10:51:40.005Z</time></trkpt><trkpt lat="44.30540982013662" lon="11.148622714083047"><ele>199.0</ele><time>2026-04-28T10:51:41.005Z</time></trkpt><trkpt lat="44.305394244580484" lon="11.148848371096335"><ele>196.0</ele><time>2026-04-28T10:51:42.005Z</time></trkpt><trkpt lat="44.30537604161654" lon="11.149060856886189"><ele>193.0</ele><time>2026-04-28T10:51:43.005Z</time></trkpt><trkpt lat="44.3053533633722" lon="11.149267873919673"><ele>193.0</ele><time>2026-04-28T10:51:44.005Z</time></trkpt><trkpt lat="44.30533339584842" lon="11.149474927574524"><ele>193.0</ele><time>2026-04-28T10:51:45.005Z</time></trkpt><trkpt lat="44.305305039510785" lon="11.149674920528813"><ele>193.0</ele><time>2026-04-28T10:51:46.005Z</time></trkpt><trkpt lat="44.30527755130056" lon="11.149870124421808"><ele>193.0</ele><time>2026-04-28T10:51:47.005Z</time></trkpt><trkpt lat="44.30525999172987" lon="11.150079279973967"><ele>192.25</ele><time>2026-04-28T10:51:48.005Z</time></trkpt><trkpt lat="44.30524659935649" lon="11.150271540950449"><ele>191.5</ele><time>2026-04-28T10:51:49.005Z</time></trkpt><trkpt lat="44.30523161650096" lon="11.150468744604762"><ele>190.75</ele><time>2026-04-28T10:51:50.005Z</time></trkpt><trkpt lat="44.30522372050971" lon="11.150662625670702"><ele>190.0</ele><time>2026-04-28T10:51:51.005Z</time></trkpt><trkpt lat="44.305188804818044" lon="11.150859088945781"><ele>188.5</ele><time>2026-04-28T10:51:52.005Z</time></trkpt><trkpt lat="44.30516895466429" lon="11.151063688605298"><ele>187.0</ele><time>2026-04-28T10:51:53.005Z</time></trkpt><trkpt lat="44.30515002727818" lon="11.151263367486349"><ele>185.5</ele><time>2026-04-28T10:51:54.005Z</time></trkpt><trkpt lat="44.305131257695926" lon="11.151463226842456"><ele>184.0</ele><time>2026-04-28T10:51:55.005Z</time></trkpt><trkpt lat="44.3051125802278" lon="11.151662104907336"><ele>184.0</ele><time>2026-04-28T10:51:56.005Z</time></trkpt><trkpt lat="44.30510944935306" lon="11.151865767379233"><ele>184.0</ele><time>2026-04-28T10:51:57.006Z</time></trkpt><trkpt lat="44.3050859719584" lon="11.152075398834556"><ele>184.0</ele><time>2026-04-28T10:51:58.006Z</time></trkpt><trkpt lat="44.30506219394353" lon="11.152285329120316"><ele>183.25</ele><time>2026-04-28T10:51:59.006Z</time></trkpt><trkpt lat="44.30504367863278" lon="11.152492510088777"><ele>182.5</ele><time>2026-04-28T10:52:00.006Z</time></trkpt><trkpt lat="44.30502619292517" lon="11.152696221185751"><ele>181.75</ele><time>2026-04-28T10:52:01.006Z</time></trkpt><trkpt lat="44.305004066090106" lon="11.152904318039258"><ele>181.0</ele><time>2026-04-28T10:52:02.006Z</time></trkpt><trkpt lat="44.304982928003" lon="11.153117831322534"><ele>180.0</ele><time>2026-04-28T10:52:03.006Z</time></trkpt><trkpt lat="44.304966020555334" lon="11.15333382402212"><ele>179.0</ele><time>2026-04-28T10:52:04.006Z</time></trkpt><trkpt lat="44.304947886414624" lon="11.15354780049369"><ele>178.0</ele><time>2026-04-28T10:52:05.006Z</time></trkpt><trkpt lat="44.30493815328408" lon="11.153750526782279"><ele>178.0</ele><time>2026-04-28T10:52:06.006Z</time></trkpt><trkpt lat="44.30492986099618" lon="11.153948299324464"><ele>178.0</ele><time>2026-04-28T10:52:07.006Z</time></trkpt><trkpt lat="44.304928341749125" lon="11.154147226510979"><ele>178.0</ele><time>2026-04-28T10:52:08.006Z</time></trkpt><trkpt lat="44.30493548816849" lon="11.154352049422286"><ele>178.0</ele><time>2026-04-28T10:52:09.006Z</time></trkpt><trkpt lat="44.30494246755224" lon="11.154559915506013"><ele>178.25</ele><time>2026-04-28T10:52:10.006Z</time></trkpt><trkpt lat="44.30496446869113" lon="11.154766175699889"><ele>178.5</ele><time>2026-04-28T10:52:11.006Z</time></trkpt><trkpt lat="44.30498061178189" lon="11.154968497553284"><ele>178.75</ele><time>2026-04-28T10:52:12.006Z</time></trkpt><trkpt lat="44.30501939319336" lon="11.15517196608836"><ele>179.0</ele><time>2026-04-28T10:52:13.006Z</time></trkpt><trkpt lat="44.3050723884949" lon="11.155367549496141"><ele>179.33333333333331</ele><time>2026-04-28T10:52:14.006Z</time></trkpt><trkpt lat="44.30513916986428" lon="11.155553682323584"><ele>179.66666666666666</ele><time>2026-04-28T10:52:15.006Z</time></trkpt><trkpt lat="44.30522151798066" lon="11.155738705829627"><ele>180.0</ele><time>2026-04-28T10:52:16.006Z</time></trkpt><trkpt lat="44.3053035857681" lon="11.155926931620812"><ele>180.0</ele><time>2026-04-28T10:52:17.006Z</time></trkpt><trkpt lat="44.30541443623667" lon="11.156081291863197"><ele>180.0</ele><time>2026-04-28T10:52:18.006Z</time></trkpt><trkpt lat="44.30553295965976" lon="11.156215088272432"><ele>180.0</ele><time>2026-04-28T10:52:19.006Z</time></trkpt><trkpt lat="44.305659853919785" lon="11.156329992241172"><ele>179.5</ele><time>2026-04-28T10:52:20.006Z</time></trkpt><trkpt lat="44.305793953165704" lon="11.15639852174369"><ele>179.0</ele><time>2026-04-28T10:52:21.006Z</time></trkpt><trkpt lat="44.305923374042486" lon="11.15646563372505"><ele>178.5</ele><time>2026-04-28T10:52:22.006Z</time></trkpt><trkpt lat="44.30605676250832" lon="11.156506820006602"><ele>178.0</ele><time>2026-04-28T10:52:23.006Z</time></trkpt><trkpt lat="44.306196062787265" lon="11.156543728901815"><ele>178.0</ele><time>2026-04-28T10:52:24.006Z</time></trkpt><trkpt lat="44.30633596587753" lon="11.15658007008542"><ele>178.0</ele><time>2026-04-28T10:52:25.006Z</time></trkpt><trkpt lat="44.30647091953679" lon="11.15662937707843"><ele>178.0</ele><time>2026-04-28T10:52:26.006Z</time></trkpt><trkpt lat="44.306588880655" lon="11.156703262399008"><ele>178.0</ele><time>2026-04-28T10:52:27.006Z</time></trkpt><trkpt lat="44.306704962679106" lon="11.156771159727974"><ele>178.60000000000002</ele><time>2026-04-28T10:52:28.006Z</time></trkpt><trkpt lat="44.30681040570442" lon="11.156837708267393"><ele>179.20000000000002</ele><time>2026-04-28T10:52:29.006Z</time></trkpt><trkpt lat="44.306899156016854" lon="11.156900468857499"><ele>179.8</ele><time>2026-04-28T10:52:30.006Z</time></trkpt><trkpt lat="44.30697222638958" lon="11.156953001854218"><ele>180.4</ele><time>2026-04-28T10:52:31.006Z</time></trkpt><trkpt lat="44.30704025467448" lon="11.156988631607634"><ele>181.0</ele><time>2026-04-28T10:52:32.006Z</time></trkpt><trkpt lat="44.3071261853847" lon="11.157056738066103"><ele>181.0</ele><time>2026-04-28T10:52:34.006Z</time></trkpt><trkpt lat="44.307191087195505" lon="11.157109512324565"><ele>181.0</ele><time>2026-04-28T10:52:36.006Z</time></trkpt><trkpt lat="44.30726112364298" lon="11.157171128344082"><ele>181.0</ele><time>2026-04-28T10:52:39.006Z</time></trkpt><trkpt lat="44.30731450582304" lon="11.157226955083969"><ele>181.0</ele><time>2026-04-28T10:52:42.006Z</time></trkpt><trkpt lat="44.3073827260942" lon="11.15727994629842"><ele>181.0</ele><time>2026-04-28T10:52:47.006Z</time></trkpt><trkpt lat="44.30744294441711" lon="11.157345511188176"><ele>181.0</ele><time>2026-04-28T10:52:59.006Z</time></trkpt><trkpt lat="44.3075190586798" lon="11.15741153655781"><ele>179.66666666666669</ele><time>2026-04-28T10:53:02.006Z</time></trkpt><trkpt lat="44.307627281541" lon="11.157458005130396"><ele>178.33333333333334</ele><time>2026-04-28T10:53:04.006Z</time></trkpt><trkpt lat="44.30768622757608" lon="11.157501412738702"><ele>177.0</ele><time>2026-04-28T10:53:05.006Z</time></trkpt><trkpt lat="44.30775178051651" lon="11.157527959316754"><ele>175.66666666666666</ele><time>2026-04-28T10:53:06.006Z</time></trkpt><trkpt lat="44.30783744376995" lon="11.15755701430751"><ele>174.33333333333331</ele><time>2026-04-28T10:53:07.006Z</time></trkpt><trkpt lat="44.30794002973289" lon="11.157585814012021"><ele>173.0</ele><time>2026-04-28T10:53:08.007Z</time></trkpt><trkpt lat="44.30804568483599" lon="11.157612467034411"><ele>174.8</ele><time>2026-04-28T10:53:09.007Z</time></trkpt><trkpt lat="44.30814416967428" lon="11.15763165213104"><ele>176.60000000000002</ele><time>2026-04-28T10:53:10.007Z</time></trkpt><trkpt lat="44.3082500056714" lon="11.157649241793962"><ele>178.39999999999998</ele><time>2026-04-28T10:53:11.007Z</time></trkpt><trkpt lat="44.308362898477924" lon="11.157665844549923"><ele>180.2</ele><time>2026-04-28T10:53:12.007Z</time></trkpt><trkpt lat="44.30848972238406" lon="11.157682392160341"><ele>182.0</ele><time>2026-04-28T10:53:13.007Z</time></trkpt><trkpt lat="44.30862395153884" lon="11.15769742311534"><ele>182.0</ele><time>2026-04-28T10:53:14.007Z</time></trkpt><trkpt lat="44.30876120443711" lon="11.157710823159118"><ele>182.0</ele><time>2026-04-28T10:53:15.007Z</time></trkpt><trkpt lat="44.30890562158751" lon="11.157722881399696"><ele>182.0</ele><time>2026-04-28T10:53:16.007Z</time></trkpt><trkpt lat="44.30904944846269" lon="11.15772631833177"><ele>182.0</ele><time>2026-04-28T10:53:17.007Z</time></trkpt><trkpt lat="44.30918263474796" lon="11.157738858223334"><ele>180.5</ele><time>2026-04-28T10:53:18.007Z</time></trkpt><trkpt lat="44.30931869133304" lon="11.157749659012199"><ele>179.0</ele><time>2026-04-28T10:53:19.007Z</time></trkpt><trkpt lat="44.3094575909568" lon="11.157753331080512"><ele>177.5</ele><time>2026-04-28T10:53:20.007Z</time></trkpt><trkpt lat="44.30960050061001" lon="11.15775106325797"><ele>176.0</ele><time>2026-04-28T10:53:21.007Z</time></trkpt><trkpt lat="44.30976238428477" lon="11.157741746138827"><ele>171.66666666666666</ele><time>2026-04-28T10:53:22.007Z</time></trkpt><trkpt lat="44.30992985601421" lon="11.157727498334795"><ele>167.33333333333334</ele><time>2026-04-28T10:53:23.007Z</time></trkpt><trkpt lat="44.31010155874667" lon="11.15771994971226"><ele>163.0</ele><time>2026-04-28T10:53:24.007Z</time></trkpt><trkpt lat="44.31026534401276" lon="11.15772629333192"><ele>163.0</ele><time>2026-04-28T10:53:25.007Z</time></trkpt><trkpt lat="44.310427741563856" lon="11.157727301124952"><ele>163.0</ele><time>2026-04-28T10:53:26.007Z</time></trkpt><trkpt lat="44.310591615105885" lon="11.157734037409545"><ele>163.0</ele><time>2026-04-28T10:53:27.007Z</time></trkpt><trkpt lat="44.31075756978016" lon="11.157735828033463"><ele>163.0</ele><time>2026-04-28T10:53:28.007Z</time></trkpt><trkpt lat="44.31093556791196" lon="11.157735626618987"><ele>163.0</ele><time>2026-04-28T10:53:29.007Z</time></trkpt><trkpt lat="44.3111112914372" lon="11.15773449811035"><ele>163.0</ele><time>2026-04-28T10:53:30.007Z</time></trkpt><trkpt lat="44.311283285113845" lon="11.15772888388565"><ele>163.66666666666669</ele><time>2026-04-28T10:53:31.007Z</time></trkpt><trkpt lat="44.31145597983596" lon="11.157736446986664"><ele>164.33333333333334</ele><time>2026-04-28T10:53:32.007Z</time></trkpt><trkpt lat="44.31162713824305" lon="11.157766635349848"><ele>165.0</ele><time>2026-04-28T10:53:33.007Z</time></trkpt><trkpt lat="44.31180175184305" lon="11.157824265133316"><ele>165.0</ele><time>2026-04-28T10:53:34.007Z</time></trkpt><trkpt lat="44.311985362674264" lon="11.157898593579773"><ele>165.0</ele><time>2026-04-28T10:53:35.007Z</time></trkpt><trkpt lat="44.31215236452465" lon="11.157969395365855"><ele>165.0</ele><time>2026-04-28T10:53:36.007Z</time></trkpt><trkpt lat="44.31230626252219" lon="11.158048744232723"><ele>162.66666666666666</ele><time>2026-04-28T10:53:37.007Z</time></trkpt><trkpt lat="44.31246029349578" lon="11.158090558605238"><ele>160.33333333333331</ele><time>2026-04-28T10:53:38.007Z</time></trkpt><trkpt lat="44.31260414978358" lon="11.158164759411413"><ele>158.0</ele><time>2026-04-28T10:53:39.007Z</time></trkpt><trkpt lat="44.31275117609672" lon="11.158255474064031"><ele>158.0</ele><time>2026-04-28T10:53:40.007Z</time></trkpt><trkpt lat="44.31289749826419" lon="11.158363543604986"><ele>158.0</ele><time>2026-04-28T10:53:41.007Z</time></trkpt><trkpt lat="44.313022157052636" lon="11.15848878885457"><ele>158.0</ele><time>2026-04-28T10:53:42.007Z</time></trkpt><trkpt lat="44.313132130888214" lon="11.158625760155818"><ele>158.75</ele><time>2026-04-28T10:53:43.007Z</time></trkpt><trkpt lat="44.31323378676778" lon="11.158774762203695"><ele>159.5</ele><time>2026-04-28T10:53:44.007Z</time></trkpt><trkpt lat="44.31331650188613" lon="11.158941081819352"><ele>160.25</ele><time>2026-04-28T10:53:45.007Z</time></trkpt><trkpt lat="44.31339037569767" lon="11.159122880149354"><ele>161.0</ele><time>2026-04-28T10:53:46.007Z</time></trkpt><trkpt lat="44.313455227376494" lon="11.159320017599047"><ele>161.0</ele><time>2026-04-28T10:53:47.007Z</time></trkpt><trkpt lat="44.313505942810984" lon="11.159509463090881"><ele>161.0</ele><time>2026-04-28T10:53:48.007Z</time></trkpt><trkpt lat="44.31355173222198" lon="11.159708730454154"><ele>161.0</ele><time>2026-04-28T10:53:49.007Z</time></trkpt><trkpt lat="44.313578257933166" lon="11.159913140451788"><ele>161.0</ele><time>2026-04-28T10:53:50.007Z</time></trkpt><trkpt lat="44.31359037026416" lon="11.16012087186145"><ele>160.25</ele><time>2026-04-28T10:53:51.007Z</time></trkpt><trkpt lat="44.31358358847375" lon="11.160320591775651"><ele>159.5</ele><time>2026-04-28T10:53:52.007Z</time></trkpt><trkpt lat="44.313555312460146" lon="11.16051558166296"><ele>158.75</ele><time>2026-04-28T10:53:53.007Z</time></trkpt><trkpt lat="44.31352370715037" lon="11.160700531175216"><ele>158.0</ele><time>2026-04-28T10:53:54.007Z</time></trkpt><trkpt lat="44.31349396789238" lon="11.16087388965798"><ele>158.0</ele><time>2026-04-28T10:53:55.007Z</time></trkpt><trkpt lat="44.31346139044182" lon="11.16105580981007"><ele>158.0</ele><time>2026-04-28T10:53:56.007Z</time></trkpt><trkpt lat="44.31341899184748" lon="11.161243781338346"><ele>158.0</ele><time>2026-04-28T10:53:57.007Z</time></trkpt><trkpt lat="44.31335661800159" lon="11.161438316337454"><ele>158.0</ele><time>2026-04-28T10:53:58.007Z</time></trkpt><trkpt lat="44.31328698379098" lon="11.161626606257872"><ele>160.25</ele><time>2026-04-28T10:53:59.007Z</time></trkpt><trkpt lat="44.31321504218596" lon="11.161803674625027"><ele>162.5</ele><time>2026-04-28T10:54:00.007Z</time></trkpt><trkpt lat="44.31316397638752" lon="11.161974079735634"><ele>164.75</ele><time>2026-04-28T10:54:01.007Z</time></trkpt><trkpt lat="44.31313590976407" lon="11.162146501321239"><ele>167.0</ele><time>2026-04-28T10:54:02.007Z</time></trkpt><trkpt lat="44.31311143216123" lon="11.162301459657568"><ele>164.0</ele><time>2026-04-28T10:54:03.007Z</time></trkpt><trkpt lat="44.31307105623449" lon="11.162455739519066"><ele>161.0</ele><time>2026-04-28T10:54:04.007Z</time></trkpt><trkpt lat="44.31301148757325" lon="11.162600182156968"><ele>158.0</ele><time>2026-04-28T10:54:05.007Z</time></trkpt><trkpt lat="44.31296958884697" lon="11.162745632311616"><ele>155.0</ele><time>2026-04-28T10:54:06.007Z</time></trkpt><trkpt lat="44.3129420252392" lon="11.16288861273087"><ele>155.0</ele><time>2026-04-28T10:54:07.007Z</time></trkpt><trkpt lat="44.31294149908121" lon="11.163039099357107"><ele>155.0</ele><time>2026-04-28T10:54:08.007Z</time></trkpt><trkpt lat="44.31297612720083" lon="11.163205380809664"><ele>155.0</ele><time>2026-04-28T10:54:09.007Z</time></trkpt><trkpt lat="44.3130375520897" lon="11.163373047473984"><ele>155.0</ele><time>2026-04-28T10:54:10.007Z</time></trkpt><trkpt lat="44.31311015806717" lon="11.163541431870991"><ele>158.25</ele><time>2026-04-28T10:54:11.007Z</time></trkpt><trkpt lat="44.313177825228124" lon="11.16370899436803"><ele>161.5</ele><time>2026-04-28T10:54:12.007Z</time></trkpt><trkpt lat="44.31322625941929" lon="11.16388289924318"><ele>164.75</ele><time>2026-04-28T10:54:13.007Z</time></trkpt><trkpt lat="44.31329291139566" lon="11.164028434564743"><ele>168.0</ele><time>2026-04-28T10:54:14.007Z</time></trkpt><trkpt lat="44.31335806015675" lon="11.16416960966299"><ele>168.0</ele><time>2026-04-28T10:54:15.007Z</time></trkpt><trkpt lat="44.313424789372505" lon="11.164308650973894"><ele>168.0</ele><time>2026-04-28T10:54:16.007Z</time></trkpt><trkpt lat="44.313490362780485" lon="11.164444955284578"><ele>168.0</ele><time>2026-04-28T10:54:17.007Z</time></trkpt><trkpt lat="44.31355738397902" lon="11.1645809875401"><ele>168.0</ele><time>2026-04-28T10:54:18.007Z</time></trkpt><trkpt lat="44.31362194615926" lon="11.16471587822644"><ele>168.0</ele><time>2026-04-28T10:54:19.008Z</time></trkpt><trkpt lat="44.31367894150231" lon="11.164834959367488"><ele>168.0</ele><time>2026-04-28T10:54:20.008Z</time></trkpt><trkpt lat="44.313730648497376" lon="11.16494299151166"><ele>168.0</ele><time>2026-04-28T10:54:21.008Z</time></trkpt><trkpt lat="44.31377752410367" lon="11.165053895285327"><ele>168.0</ele><time>2026-04-28T10:54:22.008Z</time></trkpt><trkpt lat="44.313821550047045" lon="11.165175790219301"><ele>168.0</ele><time>2026-04-28T10:54:23.008Z</time></trkpt><trkpt lat="44.31384574208636" lon="11.165305709108733"><ele>167.2</ele><time>2026-04-28T10:54:24.008Z</time></trkpt><trkpt lat="44.31386810642607" lon="11.165433370107783"><ele>166.4</ele><time>2026-04-28T10:54:25.008Z</time></trkpt><trkpt lat="44.31385500258237" lon="11.165567040891705"><ele>165.6</ele><time>2026-04-28T10:54:26.008Z</time></trkpt><trkpt lat="44.31382686910332" lon="11.165692253858369"><ele>164.79999999999998</ele><time>2026-04-28T10:54:27.008Z</time></trkpt><trkpt lat="44.31378337593466" lon="11.16580410286745"><ele>164.0</ele><time>2026-04-28T10:54:28.008Z</time></trkpt><trkpt lat="44.31373919929065" lon="11.165918752056193"><ele>164.0</ele><time>2026-04-28T10:54:29.008Z</time></trkpt><trkpt lat="44.31371002405493" lon="11.166034582604297"><ele>164.0</ele><time>2026-04-28T10:54:30.008Z</time></trkpt><trkpt lat="44.31369877455992" lon="11.166169414155815"><ele>164.0</ele><time>2026-04-28T10:54:31.008Z</time></trkpt><trkpt lat="44.313718560462846" lon="11.166317107294095"><ele>164.0</ele><time>2026-04-28T10:54:32.008Z</time></trkpt><trkpt lat="44.31374721454109" lon="11.166472394732866"><ele>164.0</ele><time>2026-04-28T10:54:33.008Z</time></trkpt><trkpt lat="44.313825759782134" lon="11.166609291194991"><ele>168.5</ele><time>2026-04-28T10:54:34.008Z</time></trkpt><trkpt lat="44.31390790289386" lon="11.166737578357042"><ele>173.0</ele><time>2026-04-28T10:54:35.008Z</time></trkpt><trkpt lat="44.31399890816694" lon="11.166851681632826"><ele>177.5</ele><time>2026-04-28T10:54:36.008Z</time></trkpt><trkpt lat="44.314085862039484" lon="11.166976447852832"><ele>182.0</ele><time>2026-04-28T10:54:37.008Z</time></trkpt><trkpt lat="44.31417585658623" lon="11.167102865694059"><ele>182.0</ele><time>2026-04-28T10:54:38.008Z</time></trkpt><trkpt lat="44.314265218841285" lon="11.16724387596886"><ele>182.0</ele><time>2026-04-28T10:54:39.008Z</time></trkpt><trkpt lat="44.31438095495073" lon="11.167334801194196"><ele>182.0</ele><time>2026-04-28T10:54:40.008Z</time></trkpt><trkpt lat="44.31450965900243" lon="11.167390919841528"><ele>182.0</ele><time>2026-04-28T10:54:41.008Z</time></trkpt><trkpt lat="44.31464129417935" lon="11.167420699939091"><ele>182.75</ele><time>2026-04-28T10:54:42.008Z</time></trkpt><trkpt lat="44.314765383156754" lon="11.167441393077056"><ele>183.5</ele><time>2026-04-28T10:54:43.008Z</time></trkpt><trkpt lat="44.314884645201104" lon="11.167475417207621"><ele>184.25</ele><time>2026-04-28T10:54:44.008Z</time></trkpt><trkpt lat="44.314987426750704" lon="11.16754729750148"><ele>185.0</ele><time>2026-04-28T10:54:45.008Z</time></trkpt><trkpt lat="44.3150621880067" lon="11.167645236557119"><ele>185.0</ele><time>2026-04-28T10:54:46.008Z</time></trkpt><trkpt lat="44.31512037112773" lon="11.167768952539031"><ele>185.0</ele><time>2026-04-28T10:54:47.008Z</time></trkpt><trkpt lat="44.315144600127745" lon="11.167910151818834"><ele>185.0</ele><time>2026-04-28T10:54:48.008Z</time></trkpt><trkpt lat="44.31514606418613" lon="11.168079446709493"><ele>185.0</ele><time>2026-04-28T10:54:49.008Z</time></trkpt><trkpt lat="44.31511412544882" lon="11.168255028665158"><ele>185.8</ele><time>2026-04-28T10:54:50.008Z</time></trkpt><trkpt lat="44.31507577694196" lon="11.16842454045221"><ele>186.6</ele><time>2026-04-28T10:54:51.008Z</time></trkpt><trkpt lat="44.31504405105862" lon="11.168582353237559"><ele>187.39999999999998</ele><time>2026-04-28T10:54:52.008Z</time></trkpt><trkpt lat="44.3150151613745" lon="11.16872472383114"><ele>188.2</ele><time>2026-04-28T10:54:53.008Z</time></trkpt><trkpt lat="44.31496900159435" lon="11.168846708429069"><ele>189.0</ele><time>2026-04-28T10:54:54.008Z</time></trkpt><trkpt lat="44.31494527942835" lon="11.168965274502893"><ele>187.6</ele><time>2026-04-28T10:54:55.008Z</time></trkpt><trkpt lat="44.31489900730522" lon="11.169080268272296"><ele>186.2</ele><time>2026-04-28T10:54:56.008Z</time></trkpt><trkpt lat="44.31483955293082" lon="11.169186346379652"><ele>184.79999999999998</ele><time>2026-04-28T10:54:57.008Z</time></trkpt><trkpt lat="44.3147652602556" lon="11.169285853369649"><ele>183.39999999999998</ele><time>2026-04-28T10:54:58.008Z</time></trkpt><trkpt lat="44.314677407090294" lon="11.169372114788791"><ele>182.0</ele><time>2026-04-28T10:54:59.008Z</time></trkpt><trkpt lat="44.31458688965387" lon="11.1694471806136"><ele>182.0</ele><time>2026-04-28T10:55:00.008Z</time></trkpt><trkpt lat="44.31450014382039" lon="11.169524438065485"><ele>182.0</ele><time>2026-04-28T10:55:01.008Z</time></trkpt><trkpt lat="44.3144111708375" lon="11.169605941821692"><ele>182.0</ele><time>2026-04-28T10:55:02.008Z</time></trkpt><trkpt lat="44.31432818500524" lon="11.169694514350287"><ele>182.0</ele><time>2026-04-28T10:55:03.008Z</time></trkpt><trkpt lat="44.31423845579419" lon="11.169789186047137"><ele>182.0</ele><time>2026-04-28T10:55:04.008Z</time></trkpt><trkpt lat="44.314147293534255" lon="11.16989572149778"><ele>183.75</ele><time>2026-04-28T10:55:05.008Z</time></trkpt><trkpt lat="44.31406343191721" lon="11.170008407727199"><ele>185.5</ele><time>2026-04-28T10:55:06.008Z</time></trkpt><trkpt lat="44.313984752653795" lon="11.170136427094597"><ele>187.25</ele><time>2026-04-28T10:55:07.008Z</time></trkpt><trkpt lat="44.31391613826125" lon="11.1702824415412"><ele>189.0</ele><time>2026-04-28T10:55:08.008Z</time></trkpt><trkpt lat="44.3138687510921" lon="11.170433140653406"><ele>184.0</ele><time>2026-04-28T10:55:09.008Z</time></trkpt><trkpt lat="44.313827277963355" lon="11.170589009451948"><ele>179.0</ele><time>2026-04-28T10:55:10.008Z</time></trkpt><trkpt lat="44.31379846207967" lon="11.17075588365146"><ele>174.0</ele><time>2026-04-28T10:55:11.008Z</time></trkpt><trkpt lat="44.313777297853484" lon="11.170927857483184"><ele>169.0</ele><time>2026-04-28T10:55:12.008Z</time></trkpt><trkpt lat="44.31376588818128" lon="11.171116360599038"><ele>169.0</ele><time>2026-04-28T10:55:13.008Z</time></trkpt><trkpt lat="44.31374986476297" lon="11.171305186593047"><ele>169.0</ele><time>2026-04-28T10:55:14.008Z</time></trkpt><trkpt lat="44.31374492477441" lon="11.171502688836288"><ele>169.0</ele><time>2026-04-28T10:55:15.008Z</time></trkpt><trkpt lat="44.31374251255147" lon="11.171708458495122"><ele>169.0</ele><time>2026-04-28T10:55:16.008Z</time></trkpt><trkpt lat="44.31374140096943" lon="11.171910997594686"><ele>168.75</ele><time>2026-04-28T10:55:17.008Z</time></trkpt><trkpt lat="44.31375347677779" lon="11.172109072293978"><ele>168.5</ele><time>2026-04-28T10:55:18.008Z</time></trkpt><trkpt lat="44.3137674752061" lon="11.172297511489521"><ele>168.25</ele><time>2026-04-28T10:55:19.008Z</time></trkpt><trkpt lat="44.31377573943619" lon="11.172478160716922"><ele>168.0</ele><time>2026-04-28T10:55:20.008Z</time></trkpt><trkpt lat="44.313794450641204" lon="11.172651070416231"><ele>167.25</ele><time>2026-04-28T10:55:21.008Z</time></trkpt><trkpt lat="44.313818915765985" lon="11.172821036846072"><ele>166.5</ele><time>2026-04-28T10:55:22.008Z</time></trkpt><trkpt lat="44.31384600869953" lon="11.172983515719123"><ele>165.75</ele><time>2026-04-28T10:55:23.008Z</time></trkpt><trkpt lat="44.31388343836784" lon="11.173151464446697"><ele>165.0</ele><time>2026-04-28T10:55:24.008Z</time></trkpt><trkpt lat="44.313927964780895" lon="11.173319075319327"><ele>174.25</ele><time>2026-04-28T10:55:25.008Z</time></trkpt><trkpt lat="44.31399216767246" lon="11.1734789036498"><ele>183.5</ele><time>2026-04-28T10:55:26.008Z</time></trkpt><trkpt lat="44.31406925317406" lon="11.17362865600429"><ele>192.75</ele><time>2026-04-28T10:55:27.008Z</time></trkpt><trkpt lat="44.31414784064229" lon="11.17379443633706"><ele>202.0</ele><time>2026-04-28T10:55:28.008Z</time></trkpt><trkpt lat="44.31424570638164" lon="11.17393192650711"><ele>199.25</ele><time>2026-04-28T10:55:29.008Z</time></trkpt><trkpt lat="44.31434494395948" lon="11.174073236256957"><ele>196.5</ele><time>2026-04-28T10:55:30.009Z</time></trkpt><trkpt lat="44.314443603297384" lon="11.174222346464987"><ele>193.75</ele><time>2026-04-28T10:55:31.009Z</time></trkpt><trkpt lat="44.31453306556252" lon="11.174385753735827"><ele>191.0</ele><time>2026-04-28T10:55:32.009Z</time></trkpt><trkpt lat="44.31462282951114" lon="11.174549742878932"><ele>191.0</ele><time>2026-04-28T10:55:33.009Z</time></trkpt><trkpt lat="44.31468671511065" lon="11.174740428068269"><ele>191.0</ele><time>2026-04-28T10:55:34.009Z</time></trkpt><trkpt lat="44.31473799053301" lon="11.17494033726005"><ele>191.0</ele><time>2026-04-28T10:55:35.009Z</time></trkpt><trkpt lat="44.31475290948578" lon="11.175155405584604"><ele>195.0</ele><time>2026-04-28T10:55:36.009Z</time></trkpt><trkpt lat="44.31475211624242" lon="11.17534421688912"><ele>199.0</ele><time>2026-04-28T10:55:37.009Z</time></trkpt><trkpt lat="44.314757898010164" lon="11.175548034141098"><ele>203.0</ele><time>2026-04-28T10:55:38.009Z</time></trkpt><trkpt lat="44.31478988817677" lon="11.175748156906211"><ele>207.0</ele><time>2026-04-28T10:55:39.009Z</time></trkpt><trkpt lat="44.31482081181036" lon="11.17595641991653"><ele>207.0</ele><time>2026-04-28T10:55:40.009Z</time></trkpt><trkpt lat="44.31488524703963" lon="11.176163918039755"><ele>207.0</ele><time>2026-04-28T10:55:41.009Z</time></trkpt><trkpt lat="44.314965180735165" lon="11.176365291303856"><ele>207.0</ele><time>2026-04-28T10:55:42.009Z</time></trkpt><trkpt lat="44.315061556872585" lon="11.176547542267947"><ele>204.0</ele><time>2026-04-28T10:55:43.009Z</time></trkpt><trkpt lat="44.31512543098205" lon="11.176755564813325"><ele>201.0</ele><time>2026-04-28T10:55:44.009Z</time></trkpt><trkpt lat="44.3151949381856" lon="11.17694390627896"><ele>198.0</ele><time>2026-04-28T10:55:45.009Z</time></trkpt><trkpt lat="44.31526171166475" lon="11.177129273055913"><ele>198.0</ele><time>2026-04-28T10:55:46.009Z</time></trkpt><trkpt lat="44.31532904250338" lon="11.177316675554467"><ele>198.0</ele><time>2026-04-28T10:55:47.009Z</time></trkpt><trkpt lat="44.31539496931888" lon="11.177506610495508"><ele>198.0</ele><time>2026-04-28T10:55:48.009Z</time></trkpt><trkpt lat="44.31545300359801" lon="11.177683428879169"><ele>198.0</ele><time>2026-04-28T10:55:49.009Z</time></trkpt><trkpt lat="44.315507778395386" lon="11.177867946269721"><ele>200.5</ele><time>2026-04-28T10:55:50.009Z</time></trkpt><trkpt lat="44.31555326333816" lon="11.17805868992983"><ele>203.0</ele><time>2026-04-28T10:55:51.009Z</time></trkpt><trkpt lat="44.31558398274393" lon="11.17824501271395"><ele>205.5</ele><time>2026-04-28T10:55:52.009Z</time></trkpt><trkpt lat="44.31560852110666" lon="11.178423008438019"><ele>208.0</ele><time>2026-04-28T10:55:53.009Z</time></trkpt><trkpt lat="44.315644270416115" lon="11.178588746228534"><ele>208.0</ele><time>2026-04-28T10:55:54.009Z</time></trkpt><trkpt lat="44.315705036770325" lon="11.1787579030242"><ele>208.0</ele><time>2026-04-28T10:55:55.009Z</time></trkpt><trkpt lat="44.3157957988887" lon="11.17890937014123"><ele>208.0</ele><time>2026-04-28T10:55:56.009Z</time></trkpt><trkpt lat="44.315914524185395" lon="11.17904745295106"><ele>208.0</ele><time>2026-04-28T10:55:57.009Z</time></trkpt><trkpt lat="44.31603060181164" lon="11.179161868594097"><ele>209.5</ele><time>2026-04-28T10:55:58.009Z</time></trkpt><trkpt lat="44.316145426873945" lon="11.179265458182831"><ele>211.0</ele><time>2026-04-28T10:55:59.009Z</time></trkpt><trkpt lat="44.31625549969764" lon="11.179377850147612"><ele>212.5</ele><time>2026-04-28T10:56:00.009Z</time></trkpt><trkpt lat="44.316355325002306" lon="11.179507788915668"><ele>214.0</ele><time>2026-04-28T10:56:01.009Z</time></trkpt><trkpt lat="44.31642817789862" lon="11.179652981980734"><ele>214.0</ele><time>2026-04-28T10:56:02.009Z</time></trkpt><trkpt lat="44.31649163745769" lon="11.179805090598112"><ele>214.0</ele><time>2026-04-28T10:56:03.009Z</time></trkpt><trkpt lat="44.31655857670221" lon="11.179957212377"><ele>214.0</ele><time>2026-04-28T10:56:04.009Z</time></trkpt><trkpt lat="44.31663815406754" lon="11.180108235989692"><ele>214.0</ele><time>2026-04-28T10:56:05.009Z</time></trkpt><trkpt lat="44.31672267176373" lon="11.180250436130283"><ele>207.0</ele><time>2026-04-28T10:56:06.009Z</time></trkpt><trkpt lat="44.31680781770941" lon="11.180386199064312"><ele>200.0</ele><time>2026-04-28T10:56:07.009Z</time></trkpt><trkpt lat="44.31689698120505" lon="11.180523330770365"><ele>193.0</ele><time>2026-04-28T10:56:08.009Z</time></trkpt><trkpt lat="44.316990836265234" lon="11.180647316374847"><ele>186.0</ele><time>2026-04-28T10:56:09.009Z</time></trkpt><trkpt lat="44.317077205582144" lon="11.18077145383994"><ele>184.25</ele><time>2026-04-28T10:56:10.009Z</time></trkpt><trkpt lat="44.317167896792995" lon="11.18089548212257"><ele>182.5</ele><time>2026-04-28T10:56:11.009Z</time></trkpt><trkpt lat="44.317262716293385" lon="11.180993164379794"><ele>180.75</ele><time>2026-04-28T10:56:12.009Z</time></trkpt><trkpt lat="44.31736619933486" lon="11.181072255703214"><ele>179.0</ele><time>2026-04-28T10:56:13.009Z</time></trkpt><trkpt lat="44.317477492803604" lon="11.18112188258198"><ele>179.0</ele><time>2026-04-28T10:56:14.009Z</time></trkpt><trkpt lat="44.31758945975868" lon="11.181130792400433"><ele>179.0</ele><time>2026-04-28T10:56:15.009Z</time></trkpt><trkpt lat="44.31770241476439" lon="11.181097825158226"><ele>179.0</ele><time>2026-04-28T10:56:16.009Z</time></trkpt><trkpt lat="44.31782227399513" lon="11.181027115207842"><ele>179.0</ele><time>2026-04-28T10:56:17.009Z</time></trkpt><trkpt lat="44.317950498289555" lon="11.18092829933377"><ele>180.0</ele><time>2026-04-28T10:56:18.009Z</time></trkpt><trkpt lat="44.31808508338276" lon="11.180820615122508"><ele>181.0</ele><time>2026-04-28T10:56:19.009Z</time></trkpt><trkpt lat="44.31822402795244" lon="11.180710401302061"><ele>182.0</ele><time>2026-04-28T10:56:20.009Z</time></trkpt><trkpt lat="44.31835980886597" lon="11.180598539419133"><ele>182.0</ele><time>2026-04-28T10:56:21.009Z</time></trkpt><trkpt lat="44.3184947744758" lon="11.180485753339342"><ele>182.0</ele><time>2026-04-28T10:56:22.009Z</time></trkpt><trkpt lat="44.31862432789245" lon="11.180379134484642"><ele>182.0</ele><time>2026-04-28T10:56:23.009Z</time></trkpt><trkpt lat="44.318754125223315" lon="11.18027770429989"><ele>182.0</ele><time>2026-04-28T10:56:24.009Z</time></trkpt><trkpt lat="44.31888308789401" lon="11.180176080583317"><ele>182.0</ele><time>2026-04-28T10:56:25.009Z</time></trkpt><trkpt lat="44.319011602633545" lon="11.180071879701938"><ele>182.0</ele><time>2026-04-28T10:56:26.009Z</time></trkpt><trkpt lat="44.31913688456653" lon="11.179965703685733"><ele>182.0</ele><time>2026-04-28T10:56:27.009Z</time></trkpt><trkpt lat="44.31926333661301" lon="11.17986004603237"><ele>179.25</ele><time>2026-04-28T10:56:28.009Z</time></trkpt><trkpt lat="44.31938667126693" lon="11.17975006208773"><ele>176.5</ele><time>2026-04-28T10:56:29.009Z</time></trkpt><trkpt lat="44.319510682650275" lon="11.179648082248226"><ele>173.75</ele><time>2026-04-28T10:56:30.009Z</time></trkpt><trkpt lat="44.31964127780324" lon="11.179566298261559"><ele>171.0</ele><time>2026-04-28T10:56:31.009Z</time></trkpt><trkpt lat="44.31978012092705" lon="11.179509172741447"><ele>168.0</ele><time>2026-04-28T10:56:32.009Z</time></trkpt><trkpt lat="44.31992788976133" lon="11.179485307394584"><ele>165.0</ele><time>2026-04-28T10:56:33.009Z</time></trkpt><trkpt lat="44.32007571751922" lon="11.179496046728108"><ele>162.0</ele><time>2026-04-28T10:56:34.009Z</time></trkpt><trkpt lat="44.32022062488365" lon="11.179544142562994"><ele>159.0</ele><time>2026-04-28T10:56:35.009Z</time></trkpt><trkpt lat="44.32034537805357" lon="11.17961898789667"><ele>159.0</ele><time>2026-04-28T10:56:36.009Z</time></trkpt><trkpt lat="44.32046971998908" lon="11.17971405710662"><ele>159.0</ele><time>2026-04-28T10:56:37.009Z</time></trkpt><trkpt lat="44.32059057911041" lon="11.179816310951072"><ele>159.0</ele><time>2026-04-28T10:56:38.009Z</time></trkpt><trkpt lat="44.3207007061626" lon="11.179913547025977"><ele>159.0</ele><time>2026-04-28T10:56:39.009Z</time></trkpt><trkpt lat="44.32081794048452" lon="11.180010435401632"><ele>158.0</ele><time>2026-04-28T10:56:40.009Z</time></trkpt><trkpt lat="44.32093954055687" lon="11.180107940314906"><ele>157.0</ele><time>2026-04-28T10:56:41.01Z</time></trkpt><trkpt lat="44.32106426093934" lon="11.180201906417263"><ele>156.0</ele><time>2026-04-28T10:56:42.01Z</time></trkpt><trkpt lat="44.32118607783445" lon="11.180281726840805"><ele>155.0</ele><time>2026-04-28T10:56:43.01Z</time></trkpt><trkpt lat="44.32130981981204" lon="11.180342086345055"><ele>155.25</ele><time>2026-04-28T10:56:44.01Z</time></trkpt><trkpt lat="44.32143308771856" lon="11.180381545453633"><ele>155.5</ele><time>2026-04-28T10:56:45.01Z</time></trkpt><trkpt lat="44.32155825215354" lon="11.180399043671267"><ele>155.75</ele><time>2026-04-28T10:56:46.01Z</time></trkpt><trkpt lat="44.3216806296896" lon="11.180399163207335"><ele>156.0</ele><time>2026-04-28T10:56:47.01Z</time></trkpt><trkpt lat="44.32179570422191" lon="11.18038816662872"><ele>156.0</ele><time>2026-04-28T10:56:48.01Z</time></trkpt><trkpt lat="44.321903182695834" lon="11.180364660498846"><ele>156.0</ele><time>2026-04-28T10:56:49.01Z</time></trkpt><trkpt lat="44.32200290172334" lon="11.180335785791298"><ele>156.0</ele><time>2026-04-28T10:56:50.01Z</time></trkpt><trkpt lat="44.32209832434246" lon="11.180305900966383"><ele>156.0</ele><time>2026-04-28T10:56:51.01Z</time></trkpt><trkpt lat="44.322194801003064" lon="11.180279026863944"><ele>156.0</ele><time>2026-04-28T10:56:52.01Z</time></trkpt><trkpt lat="44.32229768876249" lon="11.180247405094244"><ele>155.8</ele><time>2026-04-28T10:56:53.01Z</time></trkpt><trkpt lat="44.322405678366735" lon="11.18021088248889"><ele>155.6</ele><time>2026-04-28T10:56:54.01Z</time></trkpt><trkpt lat="44.322511354795004" lon="11.18017484197597"><ele>155.4</ele><time>2026-04-28T10:56:55.01Z</time></trkpt><trkpt lat="44.322608810565825" lon="11.180135408097755"><ele>155.2</ele><time>2026-04-28T10:56:56.01Z</time></trkpt><trkpt lat="44.32270215939261" lon="11.180098605787975"><ele>155.0</ele><time>2026-04-28T10:56:57.01Z</time></trkpt><trkpt lat="44.32280875053871" lon="11.180056342819393"><ele>155.0</ele><time>2026-04-28T10:56:58.01Z</time></trkpt><trkpt lat="44.32292085054598" lon="11.180015054087587"><ele>155.0</ele><time>2026-04-28T10:56:59.01Z</time></trkpt><trkpt lat="44.323034963849075" lon="11.179952314313327"><ele>155.0</ele><time>2026-04-28T10:57:00.01Z</time></trkpt><trkpt lat="44.32315093287269" lon="11.17988336023164"><ele>155.0</ele><time>2026-04-28T10:57:01.01Z</time></trkpt><trkpt lat="44.32327225804667" lon="11.179812604932192"><ele>156.25</ele><time>2026-04-28T10:57:02.01Z</time></trkpt><trkpt lat="44.32339340245079" lon="11.179748352979502"><ele>157.5</ele><time>2026-04-28T10:57:03.01Z</time></trkpt><trkpt lat="44.32351063117968" lon="11.179695439306332"><ele>158.75</ele><time>2026-04-28T10:57:04.01Z</time></trkpt><trkpt lat="44.32363015403845" lon="11.179664158515756"><ele>160.0</ele><time>2026-04-28T10:57:05.01Z</time></trkpt><trkpt lat="44.32375795932598" lon="11.17964563707766"><ele>160.0</ele><time>2026-04-28T10:57:06.01Z</time></trkpt><trkpt lat="44.32388268998826" lon="11.179643559710737"><ele>160.0</ele><time>2026-04-28T10:57:07.01Z</time></trkpt><trkpt lat="44.32399403198521" lon="11.179670598557744"><ele>160.0</ele><time>2026-04-28T10:57:08.01Z</time></trkpt><trkpt lat="44.32409600377379" lon="11.179718078106315"><ele>160.0</ele><time>2026-04-28T10:57:09.01Z</time></trkpt><trkpt lat="44.324177788343796" lon="11.179820088324224"><ele>163.25</ele><time>2026-04-28T10:57:10.01Z</time></trkpt><trkpt lat="44.32424174376134" lon="11.179954810078476"><ele>166.5</ele><time>2026-04-28T10:57:11.01Z</time></trkpt><trkpt lat="44.3242502026059" lon="11.180114685740453"><ele>169.75</ele><time>2026-04-28T10:57:12.01Z</time></trkpt><trkpt lat="44.32425764429837" lon="11.180272558876526"><ele>173.0</ele><time>2026-04-28T10:57:13.01Z</time></trkpt><trkpt lat="44.324265186979666" lon="11.1804471604183"><ele>173.0</ele><time>2026-04-28T10:57:14.01Z</time></trkpt><trkpt lat="44.32428133407573" lon="11.180643877589345"><ele>173.0</ele><time>2026-04-28T10:57:15.01Z</time></trkpt><trkpt lat="44.324324148872826" lon="11.180864347846232"><ele>173.0</ele><time>2026-04-28T10:57:16.01Z</time></trkpt><trkpt lat="44.32438297139131" lon="11.181076733863971"><ele>170.0</ele><time>2026-04-28T10:57:17.01Z</time></trkpt><trkpt lat="44.324459416666535" lon="11.181280538537946"><ele>167.0</ele><time>2026-04-28T10:57:18.01Z</time></trkpt><trkpt lat="44.32455857146172" lon="11.18147456762881"><ele>164.0</ele><time>2026-04-28T10:57:19.01Z</time></trkpt><trkpt lat="44.32464937241569" lon="11.181673479895881"><ele>162.0</ele><time>2026-04-28T10:57:20.01Z</time></trkpt><trkpt lat="44.32471258810805" lon="11.181880799466029"><ele>160.0</ele><time>2026-04-28T10:57:21.01Z</time></trkpt><trkpt lat="44.32474949953511" lon="11.182072474209745"><ele>158.0</ele><time>2026-04-28T10:57:22.01Z</time></trkpt><trkpt lat="44.32475336831824" lon="11.182255059941932"><ele>156.0</ele><time>2026-04-28T10:57:23.01Z</time></trkpt><trkpt lat="44.3247605961154" lon="11.182438837570434"><ele>161.5</ele><time>2026-04-28T10:57:24.01Z</time></trkpt><trkpt lat="44.324783803882326" lon="11.18261422251963"><ele>167.0</ele><time>2026-04-28T10:57:25.01Z</time></trkpt><trkpt lat="44.32482364456969" lon="11.18276996993605"><ele>172.5</ele><time>2026-04-28T10:57:26.01Z</time></trkpt><trkpt lat="44.32488048622717" lon="11.182924823322558"><ele>178.0</ele><time>2026-04-28T10:57:27.01Z</time></trkpt><trkpt lat="44.3249346869836" lon="11.183065767119142"><ele>174.75</ele><time>2026-04-28T10:57:28.01Z</time></trkpt><trkpt lat="44.32499303047912" lon="11.183212126512304"><ele>171.5</ele><time>2026-04-28T10:57:29.01Z</time></trkpt><trkpt lat="44.32506742657202" lon="11.183365918623066"><ele>168.25</ele><time>2026-04-28T10:57:30.01Z</time></trkpt><trkpt lat="44.32516012350631" lon="11.18350558728151"><ele>165.0</ele><time>2026-04-28T10:57:31.01Z</time></trkpt><trkpt lat="44.32525521106897" lon="11.183633795631893"><ele>165.0</ele><time>2026-04-28T10:57:32.01Z</time></trkpt><trkpt lat="44.32533815530506" lon="11.183770179654488"><ele>165.0</ele><time>2026-04-28T10:57:33.01Z</time></trkpt><trkpt lat="44.325424284400285" lon="11.183913393395747"><ele>165.0</ele><time>2026-04-28T10:57:34.01Z</time></trkpt><trkpt lat="44.32551232648605" lon="11.184066962330125"><ele>165.0</ele><time>2026-04-28T10:57:35.01Z</time></trkpt><trkpt lat="44.32559786901877" lon="11.184228385182172"><ele>167.25</ele><time>2026-04-28T10:57:36.01Z</time></trkpt><trkpt lat="44.32568297461725" lon="11.184371560179049"><ele>169.5</ele><time>2026-04-28T10:57:37.01Z</time></trkpt><trkpt lat="44.325774830185125" lon="11.184512889880219"><ele>171.75</ele><time>2026-04-28T10:57:38.01Z</time></trkpt><trkpt lat="44.3258696858047" lon="11.184665235472792"><ele>174.0</ele><time>2026-04-28T10:57:39.01Z</time></trkpt><trkpt lat="44.325962247448494" lon="11.184822574912019"><ele>174.75</ele><time>2026-04-28T10:57:40.01Z</time></trkpt><trkpt lat="44.32606298445028" lon="11.184976856858807"><ele>175.5</ele><time>2026-04-28T10:57:41.01Z</time></trkpt><trkpt lat="44.326167128281455" lon="11.185122408311319"><ele>176.25</ele><time>2026-04-28T10:57:42.01Z</time></trkpt><trkpt lat="44.32628334081956" lon="11.185241135832385"><ele>177.0</ele><time>2026-04-28T10:57:43.01Z</time></trkpt><trkpt lat="44.32640204856277" lon="11.185335193599094"><ele>177.0</ele><time>2026-04-28T10:57:44.01Z</time></trkpt><trkpt lat="44.326520131606316" lon="11.185414692624844"><ele>177.0</ele><time>2026-04-28T10:57:45.01Z</time></trkpt><trkpt lat="44.32664226296131" lon="11.185482085345201"><ele>177.0</ele><time>2026-04-28T10:57:46.01Z</time></trkpt><trkpt lat="44.32676290634077" lon="11.185526793871542"><ele>177.0</ele><time>2026-04-28T10:57:47.01Z</time></trkpt><trkpt lat="44.32688132450933" lon="11.185542352728339"><ele>177.0</ele><time>2026-04-28T10:57:48.01Z</time></trkpt><trkpt lat="44.32700470092378" lon="11.185554605534778"><ele>177.0</ele><time>2026-04-28T10:57:49.01Z</time></trkpt><trkpt lat="44.32712670387038" lon="11.185503773820203"><ele>177.0</ele><time>2026-04-28T10:57:50.01Z</time></trkpt><trkpt lat="44.327236670544465" lon="11.18541924609783"><ele>177.0</ele><time>2026-04-28T10:57:51.011Z</time></trkpt><trkpt lat="44.32733835650448" lon="11.18530742321136"><ele>173.75</ele><time>2026-04-28T10:57:52.011Z</time></trkpt><trkpt lat="44.32744628179262" lon="11.185182210817821"><ele>170.5</ele><time>2026-04-28T10:57:53.011Z</time></trkpt><trkpt lat="44.32753969361748" lon="11.185047096114452"><ele>167.25</ele><time>2026-04-28T10:57:54.011Z</time></trkpt><trkpt lat="44.327647081144896" lon="11.184946848527893"><ele>164.0</ele><time>2026-04-28T10:57:55.011Z</time></trkpt><trkpt lat="44.32776675700788" lon="11.184883326121675"><ele>167.25</ele><time>2026-04-28T10:57:56.011Z</time></trkpt><trkpt lat="44.32786568577398" lon="11.184810416533862"><ele>170.5</ele><time>2026-04-28T10:57:57.011Z</time></trkpt><trkpt lat="44.32797417944943" lon="11.184755696653585"><ele>173.75</ele><time>2026-04-28T10:57:58.011Z</time></trkpt><trkpt lat="44.32808652929192" lon="11.18470913725229"><ele>177.0</ele><time>2026-04-28T10:57:59.011Z</time></trkpt><trkpt lat="44.32819888481292" lon="11.184653901287918"><ele>177.0</ele><time>2026-04-28T10:58:00.011Z</time></trkpt><trkpt lat="44.32831528274797" lon="11.184598003612265"><ele>177.0</ele><time>2026-04-28T10:58:01.011Z</time></trkpt><trkpt lat="44.328429172025395" lon="11.184531795722235"><ele>177.0</ele><time>2026-04-28T10:58:02.011Z</time></trkpt><trkpt lat="44.328554625638255" lon="11.18448319148295"><ele>177.0</ele><time>2026-04-28T10:58:03.011Z</time></trkpt><trkpt lat="44.32869232655909" lon="11.184447263223692"><ele>177.0</ele><time>2026-04-28T10:58:04.011Z</time></trkpt><trkpt lat="44.32884987970086" lon="11.184445934776193"><ele>177.0</ele><time>2026-04-28T10:58:05.011Z</time></trkpt><trkpt lat="44.32900616168736" lon="11.184464126213607"><ele>177.0</ele><time>2026-04-28T10:58:06.011Z</time></trkpt><trkpt lat="44.32915351718787" lon="11.184503413380915"><ele>174.75</ele><time>2026-04-28T10:58:07.011Z</time></trkpt><trkpt lat="44.32929205351248" lon="11.184573309857377"><ele>172.5</ele><time>2026-04-28T10:58:08.011Z</time></trkpt><trkpt lat="44.32941853339446" lon="11.184668693791659"><ele>170.25</ele><time>2026-04-28T10:58:09.011Z</time></trkpt><trkpt lat="44.329538103118345" lon="11.184764998433712"><ele>168.0</ele><time>2026-04-28T10:58:10.011Z</time></trkpt><trkpt lat="44.32966277408578" lon="11.184841281356954"><ele>163.75</ele><time>2026-04-28T10:58:11.011Z</time></trkpt><trkpt lat="44.32978913458416" lon="11.184908966184517"><ele>159.5</ele><time>2026-04-28T10:58:12.011Z</time></trkpt><trkpt lat="44.329915519468685" lon="11.184960643345464"><ele>155.25</ele><time>2026-04-28T10:58:13.011Z</time></trkpt><trkpt lat="44.330038448327706" lon="11.184994366980291"><ele>151.0</ele><time>2026-04-28T10:58:14.011Z</time></trkpt><trkpt lat="44.33014568166281" lon="11.185021039765763"><ele>151.0</ele><time>2026-04-28T10:58:15.011Z</time></trkpt><trkpt lat="44.33024519726753" lon="11.185048962239893"><ele>151.0</ele><time>2026-04-28T10:58:16.011Z</time></trkpt><trkpt lat="44.33033474664358" lon="11.185081377107524"><ele>151.0</ele><time>2026-04-28T10:58:17.011Z</time></trkpt><trkpt lat="44.33042709103386" lon="11.185122544975876"><ele>151.0</ele><time>2026-04-28T10:58:18.011Z</time></trkpt><trkpt lat="44.33051915985172" lon="11.185177783765795"><ele>151.0</ele><time>2026-04-28T10:58:19.011Z</time></trkpt><trkpt lat="44.3306098886001" lon="11.185242800621188"><ele>151.0</ele><time>2026-04-28T10:58:20.011Z</time></trkpt><trkpt lat="44.330690139178465" lon="11.185305078910659"><ele>151.0</ele><time>2026-04-28T10:58:21.011Z</time></trkpt><trkpt lat="44.330766102510445" lon="11.185378994998425"><ele>151.0</ele><time>2026-04-28T10:58:22.011Z</time></trkpt><trkpt lat="44.330843611377546" lon="11.185464203620608"><ele>151.0</ele><time>2026-04-28T10:58:23.011Z</time></trkpt><trkpt lat="44.330925820538404" lon="11.185558392809378"><ele>151.0</ele><time>2026-04-28T10:58:24.011Z</time></trkpt><trkpt lat="44.33101190533063" lon="11.185656056799148"><ele>149.75</ele><time>2026-04-28T10:58:25.011Z</time></trkpt><trkpt lat="44.33110152682459" lon="11.1857612493146"><ele>148.5</ele><time>2026-04-28T10:58:26.011Z</time></trkpt><trkpt lat="44.3311971989563" lon="11.18586383080345"><ele>147.25</ele><time>2026-04-28T10:58:27.011Z</time></trkpt><trkpt lat="44.331294668057524" lon="11.185968986107556"><ele>146.0</ele><time>2026-04-28T10:58:28.011Z</time></trkpt><trkpt lat="44.331387188198875" lon="11.186072490714214"><ele>146.75</ele><time>2026-04-28T10:58:29.011Z</time></trkpt><trkpt lat="44.33147542541702" lon="11.186180979961595"><ele>147.5</ele><time>2026-04-28T10:58:30.011Z</time></trkpt><trkpt lat="44.33156734621098" lon="11.186290735382581"><ele>148.25</ele><time>2026-04-28T10:58:31.011Z</time></trkpt><trkpt lat="44.331647189469244" lon="11.186402251710687"><ele>149.0</ele><time>2026-04-28T10:58:32.011Z</time></trkpt><trkpt lat="44.33172438465343" lon="11.186503270551485"><ele>148.6</ele><time>2026-04-28T10:58:33.011Z</time></trkpt><trkpt lat="44.33180564888465" lon="11.186605211008555"><ele>148.2</ele><time>2026-04-28T10:58:34.011Z</time></trkpt><trkpt lat="44.33189060790304" lon="11.186711015956043"><ele>147.79999999999998</ele><time>2026-04-28T10:58:35.011Z</time></trkpt><trkpt lat="44.331964903094985" lon="11.186812952867664"><ele>147.4</ele><time>2026-04-28T10:58:36.011Z</time></trkpt><trkpt lat="44.332039415757436" lon="11.186905687476417"><ele>147.0</ele><time>2026-04-28T10:58:37.011Z</time></trkpt><trkpt lat="44.33210540473085" lon="11.18699101939008"><ele>147.0</ele><time>2026-04-28T10:58:38.011Z</time></trkpt><trkpt lat="44.33216819636804" lon="11.187069756113011"><ele>147.0</ele><time>2026-04-28T10:58:39.011Z</time></trkpt><trkpt lat="44.33222977163958" lon="11.187146066303379"><ele>147.0</ele><time>2026-04-28T10:58:40.011Z</time></trkpt><trkpt lat="44.332283039549274" lon="11.187217374764867"><ele>147.0</ele><time>2026-04-28T10:58:41.011Z</time></trkpt><trkpt lat="44.33233205397863" lon="11.18727943101595"><ele>147.0</ele><time>2026-04-28T10:58:42.011Z</time></trkpt><trkpt lat="44.332407086408345" lon="11.187390363156927"><ele>147.0</ele><time>2026-04-28T10:58:44.011Z</time></trkpt><trkpt lat="44.332460452454576" lon="11.187469631123047"><ele>147.0</ele><time>2026-04-28T10:58:46.011Z</time></trkpt><trkpt lat="44.332617541741676" lon="11.187372491366165"><ele>147.0</ele><time>2026-04-28T10:58:50.011Z</time></trkpt><trkpt lat="44.33266204890441" lon="11.187267247598573"><ele>147.0</ele><time>2026-04-28T10:58:51.011Z</time></trkpt><trkpt lat="44.3327099829021" lon="11.187150830311486"><ele>147.0</ele><time>2026-04-28T10:58:52.011Z</time></trkpt><trkpt lat="44.33275580849438" lon="11.187039534452683"><ele>147.0</ele><time>2026-04-28T10:58:53.011Z</time></trkpt><trkpt lat="44.332798414431245" lon="11.18693547933018"><ele>147.4</ele><time>2026-04-28T10:58:54.011Z</time></trkpt><trkpt lat="44.33284481429413" lon="11.186822174159808"><ele>147.79999999999998</ele><time>2026-04-28T10:58:55.011Z</time></trkpt><trkpt lat="44.33289307354906" lon="11.186710079003232"><ele>148.2</ele><time>2026-04-28T10:58:56.011Z</time></trkpt><trkpt lat="44.332946932152055" lon="11.18658168116924"><ele>148.6</ele><time>2026-04-28T10:58:57.011Z</time></trkpt><trkpt lat="44.333003671503235" lon="11.186446225412409"><ele>149.0</ele><time>2026-04-28T10:58:58.011Z</time></trkpt><trkpt lat="44.33304805074042" lon="11.186301876168445"><ele>149.8</ele><time>2026-04-28T10:58:59.011Z</time></trkpt><trkpt lat="44.333104590191" lon="11.18617297717769"><ele>150.60000000000002</ele><time>2026-04-28T10:59:00.011Z</time></trkpt><trkpt lat="44.33316805935132" lon="11.186045017669613"><ele>151.4</ele><time>2026-04-28T10:59:01.011Z</time></trkpt><trkpt lat="44.33322071242989" lon="11.185915356480596"><ele>152.20000000000002</ele><time>2026-04-28T10:59:02.012Z</time></trkpt><trkpt lat="44.33327537883364" lon="11.185784158516034"><ele>153.0</ele><time>2026-04-28T10:59:03.012Z</time></trkpt><trkpt lat="44.33332164348148" lon="11.185666286905928"><ele>153.0</ele><time>2026-04-28T10:59:04.012Z</time></trkpt><trkpt lat="44.33337449336002" lon="11.185546452321326"><ele>153.0</ele><time>2026-04-28T10:59:05.012Z</time></trkpt><trkpt lat="44.333433273343424" lon="11.18542160799556"><ele>153.0</ele><time>2026-04-28T10:59:06.012Z</time></trkpt><trkpt lat="44.333491976266345" lon="11.185289763991884"><ele>153.0</ele><time>2026-04-28T10:59:07.012Z</time></trkpt><trkpt lat="44.333548364442464" lon="11.185144239240314"><ele>153.0</ele><time>2026-04-28T10:59:08.012Z</time></trkpt><trkpt lat="44.33360384361756" lon="11.185003480784456"><ele>153.0</ele><time>2026-04-28T10:59:09.012Z</time></trkpt><trkpt lat="44.333669302269335" lon="11.184856092462416"><ele>153.0</ele><time>2026-04-28T10:59:10.012Z</time></trkpt><trkpt lat="44.333739053453456" lon="11.184701220925534"><ele>153.0</ele><time>2026-04-28T10:59:11.012Z</time></trkpt><trkpt lat="44.3338058625384" lon="11.184542967139029"><ele>153.0</ele><time>2026-04-28T10:59:12.012Z</time></trkpt><trkpt lat="44.333852865594956" lon="11.184371313416017"><ele>153.5</ele><time>2026-04-28T10:59:13.012Z</time></trkpt><trkpt lat="44.333882873073065" lon="11.184186236264075"><ele>154.0</ele><time>2026-04-28T10:59:14.012Z</time></trkpt><trkpt lat="44.33389943034565" lon="11.184005711325248"><ele>154.5</ele><time>2026-04-28T10:59:15.012Z</time></trkpt><trkpt lat="44.33390601244599" lon="11.183805240589004"><ele>155.0</ele><time>2026-04-28T10:59:16.012Z</time></trkpt><trkpt lat="44.33392189686521" lon="11.183578508635243"><ele>157.66666666666666</ele><time>2026-04-28T10:59:17.012Z</time></trkpt><trkpt lat="44.33393361629884" lon="11.183325234842846"><ele>160.33333333333334</ele><time>2026-04-28T10:59:18.012Z</time></trkpt><trkpt lat="44.33395980746232" lon="11.18306447398282"><ele>163.0</ele><time>2026-04-28T10:59:19.012Z</time></trkpt><trkpt lat="44.33398934688021" lon="11.18276947755303"><ele>163.0</ele><time>2026-04-28T10:59:20.012Z</time></trkpt><trkpt lat="44.33401335430918" lon="11.182462876900033"><ele>163.0</ele><time>2026-04-28T10:59:21.012Z</time></trkpt><trkpt lat="44.33403291838184" lon="11.182175032137081"><ele>163.0</ele><time>2026-04-28T10:59:22.012Z</time></trkpt><trkpt lat="44.33404165713158" lon="11.181894725526071"><ele>163.33333333333334</ele><time>2026-04-28T10:59:23.012Z</time></trkpt><trkpt lat="44.334054790787825" lon="11.181634998222467"><ele>163.66666666666666</ele><time>2026-04-28T10:59:24.012Z</time></trkpt><trkpt lat="44.334080722895806" lon="11.181382787834796"><ele>164.0</ele><time>2026-04-28T10:59:25.012Z</time></trkpt><trkpt lat="44.33411323519277" lon="11.181134135506253"><ele>164.66666666666666</ele><time>2026-04-28T10:59:26.012Z</time></trkpt><trkpt lat="44.334160391590835" lon="11.180862640959745"><ele>165.33333333333334</ele><time>2026-04-28T10:59:27.012Z</time></trkpt><trkpt lat="44.33420613764969" lon="11.180598989956527"><ele>166.0</ele><time>2026-04-28T10:59:28.012Z</time></trkpt><trkpt lat="44.33424649714691" lon="11.180357363762376"><ele>166.66666666666669</ele><time>2026-04-28T10:59:29.012Z</time></trkpt><trkpt lat="44.334284154158546" lon="11.18010036789422"><ele>167.33333333333334</ele><time>2026-04-28T10:59:30.012Z</time></trkpt><trkpt lat="44.334335243276854" lon="11.179848741921049"><ele>168.0</ele><time>2026-04-28T10:59:31.012Z</time></trkpt><trkpt lat="44.33440852687576" lon="11.179618148019145"><ele>168.33333333333334</ele><time>2026-04-28T10:59:32.012Z</time></trkpt><trkpt lat="44.3344790803172" lon="11.179398283376209"><ele>168.66666666666669</ele><time>2026-04-28T10:59:33.012Z</time></trkpt><trkpt lat="44.33454715846902" lon="11.179147656246668"><ele>169.0</ele><time>2026-04-28T10:59:34.012Z</time></trkpt><trkpt lat="44.334581866599535" lon="11.178866386790357"><ele>168.33333333333334</ele><time>2026-04-28T10:59:35.012Z</time></trkpt><trkpt lat="44.33462109266359" lon="11.1786177740049"><ele>167.66666666666666</ele><time>2026-04-28T10:59:36.012Z</time></trkpt><trkpt lat="44.334674044166775" lon="11.178394885930869"><ele>167.0</ele><time>2026-04-28T10:59:37.012Z</time></trkpt><trkpt lat="44.33474334266065" lon="11.178193533699247"><ele>169.5</ele><time>2026-04-28T10:59:38.012Z</time></trkpt><trkpt lat="44.334822683113764" lon="11.178022208227095"><ele>172.0</ele><time>2026-04-28T10:59:39.012Z</time></trkpt><trkpt lat="44.334925759260365" lon="11.177909919966199"><ele>174.5</ele><time>2026-04-28T10:59:40.012Z</time></trkpt><trkpt lat="44.335035073447195" lon="11.177820730534192"><ele>177.0</ele><time>2026-04-28T10:59:41.012Z</time></trkpt><trkpt lat="44.33513421616219" lon="11.177703361944566"><ele>177.0</ele><time>2026-04-28T10:59:42.012Z</time></trkpt><trkpt lat="44.33521540719297" lon="11.177561944884218"><ele>177.0</ele><time>2026-04-28T10:59:43.012Z</time></trkpt><trkpt lat="44.33525473398968" lon="11.17741747325564"><ele>177.0</ele><time>2026-04-28T10:59:44.012Z</time></trkpt><trkpt lat="44.3352608287515" lon="11.177276975906693"><ele>177.0</ele><time>2026-04-28T10:59:45.012Z</time></trkpt><trkpt lat="44.335245902442374" lon="11.177181524392411"><ele>177.0</ele><time>2026-04-28T10:59:46.012Z</time></trkpt><trkpt lat="44.335182762146104" lon="11.177097919238115"><ele>177.5</ele><time>2026-04-28T10:59:47.012Z</time></trkpt><trkpt lat="44.335087114825306" lon="11.177026345798783"><ele>178.0</ele><time>2026-04-28T10:59:48.012Z</time></trkpt><trkpt lat="44.334962637327145" lon="11.176983046568772"><ele>178.5</ele><time>2026-04-28T10:59:49.012Z</time></trkpt><trkpt lat="44.334818817858825" lon="11.17692577431293"><ele>179.0</ele><time>2026-04-28T10:59:50.012Z</time></trkpt><trkpt lat="44.33469708899156" lon="11.17686131773149"><ele>183.0</ele><time>2026-04-28T10:59:51.012Z</time></trkpt><trkpt lat="44.33460023437625" lon="11.17679388410625"><ele>187.0</ele><time>2026-04-28T10:59:52.012Z</time></trkpt><trkpt lat="44.33451996130201" lon="11.176711563286185"><ele>191.0</ele><time>2026-04-28T10:59:53.012Z</time></trkpt><trkpt lat="44.33448732958889" lon="11.176592986362214"><ele>195.0</ele><time>2026-04-28T10:59:54.012Z</time></trkpt><trkpt lat="44.33448866744562" lon="11.176452136443633"><ele>199.0</ele><time>2026-04-28T10:59:55.012Z</time></trkpt><trkpt lat="44.33451616710355" lon="11.176308857163665"><ele>197.2</ele><time>2026-04-28T10:59:56.012Z</time></trkpt><trkpt lat="44.334580170266484" lon="11.17617835449142"><ele>195.39999999999998</ele><time>2026-04-28T10:59:57.012Z</time></trkpt><trkpt lat="44.33466719543472" lon="11.176064790674623"><ele>193.6</ele><time>2026-04-28T10:59:58.012Z</time></trkpt><trkpt lat="44.33472836623561" lon="11.175950592365552"><ele>191.8</ele><time>2026-04-28T10:59:59.012Z</time></trkpt><trkpt lat="44.33477178985762" lon="11.175807121454513"><ele>190.0</ele><time>2026-04-28T11:00:00.012Z</time></trkpt><trkpt lat="44.334777029245934" lon="11.175601764952129"><ele>190.0</ele><time>2026-04-28T11:00:01.012Z</time></trkpt><trkpt lat="44.334757165020264" lon="11.175393273664442"><ele>190.0</ele><time>2026-04-28T11:00:02.012Z</time></trkpt><trkpt lat="44.334724740117316" lon="11.17519337423069"><ele>190.0</ele><time>2026-04-28T11:00:03.012Z</time></trkpt><trkpt lat="44.33469157691075" lon="11.175039380283954"><ele>190.0</ele><time>2026-04-28T11:00:04.012Z</time></trkpt><trkpt lat="44.334686836164735" lon="11.174890991434468"><ele>192.2</ele><time>2026-04-28T11:00:05.012Z</time></trkpt><trkpt lat="44.3346983359409" lon="11.174748106481161"><ele>194.4</ele><time>2026-04-28T11:00:06.012Z</time></trkpt><trkpt lat="44.33468427316188" lon="11.174612165156809"><ele>196.60000000000002</ele><time>2026-04-28T11:00:07.012Z</time></trkpt><trkpt lat="44.33472146507" lon="11.174475082246781"><ele>198.8</ele><time>2026-04-28T11:00:08.012Z</time></trkpt><trkpt lat="44.33478408302746" lon="11.174361833943703"><ele>201.0</ele><time>2026-04-28T11:00:09.012Z</time></trkpt><trkpt lat="44.334844582090355" lon="11.174279806277864"><ele>201.0</ele><time>2026-04-28T11:00:10.012Z</time></trkpt><trkpt lat="44.33488913787396" lon="11.174207451834931"><ele>201.0</ele><time>2026-04-28T11:00:11.012Z</time></trkpt><trkpt lat="44.334922254334806" lon="11.174129158460715"><ele>201.0</ele><time>2026-04-28T11:00:12.012Z</time></trkpt><trkpt lat="44.334950216689776" lon="11.174004870334295"><ele>201.0</ele><time>2026-04-28T11:00:14.013Z</time></trkpt><trkpt lat="44.334988359709165" lon="11.173908208139983"><ele>201.0</ele><time>2026-04-28T11:00:16.013Z</time></trkpt><trkpt lat="44.33502933534484" lon="11.17380512928342"><ele>201.0</ele><time>2026-04-28T11:00:20.013Z</time></trkpt><trkpt lat="44.33504567888276" lon="11.173705226367508"><ele>203.66666666666666</ele><time>2026-04-28T11:00:22.013Z</time></trkpt><trkpt lat="44.335086960795095" lon="11.173613609350953"><ele>206.33333333333331</ele><time>2026-04-28T11:00:25.013Z</time></trkpt><trkpt lat="44.33510154614382" lon="11.173496529265272"><ele>209.0</ele><time>2026-04-28T11:02:56.015Z</time></trkpt><trkpt lat="44.335144130862616" lon="11.173362232330543"><ele>211.66666666666666</ele><time>2026-04-28T11:02:58.015Z</time></trkpt><trkpt lat="44.33516842167856" lon="11.173252397436057"><ele>214.33333333333331</ele><time>2026-04-28T11:03:00.015Z</time></trkpt><trkpt lat="44.335182863149825" lon="11.173156036979325"><ele>217.0</ele><time>2026-04-28T11:03:02.015Z</time></trkpt><trkpt lat="44.33521503182486" lon="11.173056158931432"><ele>214.39999999999998</ele><time>2026-04-28T11:03:04.015Z</time></trkpt><trkpt lat="44.33527621215338" lon="11.172973091803538"><ele>211.79999999999998</ele><time>2026-04-28T11:03:06.015Z</time></trkpt><trkpt lat="44.33535381170741" lon="11.172893573507974"><ele>209.2</ele><time>2026-04-28T11:03:09.015Z</time></trkpt><trkpt lat="44.335449491351824" lon="11.172785555767772"><ele>206.6</ele><time>2026-04-28T11:03:11.015Z</time></trkpt><trkpt lat="44.33551350587164" lon="11.172629935780435"><ele>204.0</ele><time>2026-04-28T11:03:13.015Z</time></trkpt><trkpt lat="44.335555598273224" lon="11.172486089177411"><ele>204.75</ele><time>2026-04-28T11:03:15.015Z</time></trkpt><trkpt lat="44.33558389154751" lon="11.172332182490758"><ele>205.5</ele><time>2026-04-28T11:03:17.015Z</time></trkpt><trkpt lat="44.335584287443254" lon="11.172165859876284"><ele>206.25</ele><time>2026-04-28T11:03:19.015Z</time></trkpt><trkpt lat="44.33558634297906" lon="11.17198467780897"><ele>207.0</ele><time>2026-04-28T11:03:21.015Z</time></trkpt><trkpt lat="44.335593085285616" lon="11.171815707557082"><ele>207.0</ele><time>2026-04-28T11:03:23.015Z</time></trkpt><trkpt lat="44.33560809702316" lon="11.171663683450744"><ele>207.0</ele><time>2026-04-28T11:03:25.015Z</time></trkpt><trkpt lat="44.33564417975752" lon="11.171520223222078"><ele>207.0</ele><time>2026-04-28T11:03:27.015Z</time></trkpt><trkpt lat="44.33570186861505" lon="11.171381171424878"><ele>207.0</ele><time>2026-04-28T11:03:29.015Z</time></trkpt><trkpt lat="44.33573870745054" lon="11.171236722095252"><ele>207.0</ele><time>2026-04-28T11:03:31.015Z</time></trkpt><trkpt lat="44.335778699781436" lon="11.171086483567061"><ele>209.0</ele><time>2026-04-28T11:03:33.015Z</time></trkpt><trkpt lat="44.33581879431349" lon="11.170929966651178"><ele>211.0</ele><time>2026-04-28T11:03:35.015Z</time></trkpt><trkpt lat="44.335853732294964" lon="11.17077575414543"><ele>213.0</ele><time>2026-04-28T11:03:37.015Z</time></trkpt><trkpt lat="44.33588934898539" lon="11.170613677026674"><ele>215.0</ele><time>2026-04-28T11:03:39.015Z</time></trkpt><trkpt lat="44.33592257095211" lon="11.170462497000567"><ele>216.2</ele><time>2026-04-28T11:03:41.015Z</time></trkpt><trkpt lat="44.33595956440968" lon="11.170318669185667"><ele>217.4</ele><time>2026-04-28T11:03:43.015Z</time></trkpt><trkpt lat="44.335995271907784" lon="11.170198987677344"><ele>218.60000000000002</ele><time>2026-04-28T11:03:45.015Z</time></trkpt><trkpt lat="44.33604139294124" lon="11.170104748070006"><ele>219.8</ele><time>2026-04-28T11:03:47.016Z</time></trkpt><trkpt lat="44.336096282179675" lon="11.169983374203285"><ele>221.0</ele><time>2026-04-28T11:03:49.016Z</time></trkpt><trkpt lat="44.33614739321253" lon="11.169848478269166"><ele>222.00000000000003</ele><time>2026-04-28T11:03:51.016Z</time></trkpt><trkpt lat="44.3361710966582" lon="11.169760584339011"><ele>223.0</ele><time>2026-04-28T11:03:52.016Z</time></trkpt><trkpt lat="44.33620304174675" lon="11.169659142040505"><ele>224.0</ele><time>2026-04-28T11:03:54.016Z</time></trkpt><trkpt lat="44.33624713709211" lon="11.169519116771058"><ele>225.0</ele><time>2026-04-28T11:03:56.016Z</time></trkpt><trkpt lat="44.33627478572774" lon="11.169404874875688"><ele>226.00000000000003</ele><time>2026-04-28T11:03:58.016Z</time></trkpt><trkpt lat="44.33629410294981" lon="11.169260749414173"><ele>227.0</ele><time>2026-04-28T11:04:00.016Z</time></trkpt><trkpt lat="44.33626999329637" lon="11.169121860611435"><ele>227.8</ele><time>2026-04-28T11:04:02.016Z</time></trkpt><trkpt lat="44.33633720880664" lon="11.168972471389875"><ele>228.6</ele><time>2026-04-28T11:04:04.016Z</time></trkpt><trkpt lat="44.33638913049745" lon="11.168867441342888"><ele>229.40000000000003</ele><time>2026-04-28T11:04:05.016Z</time></trkpt><trkpt lat="44.33647651745383" lon="11.168768007487017"><ele>230.20000000000002</ele><time>2026-04-28T11:04:06.016Z</time></trkpt><trkpt lat="44.33657581922104" lon="11.168710113960223"><ele>231.0</ele><time>2026-04-28T11:04:07.016Z</time></trkpt><trkpt lat="44.33665383539575" lon="11.168618993240282"><ele>229.8</ele><time>2026-04-28T11:04:08.016Z</time></trkpt><trkpt lat="44.33674271147727" lon="11.168538339712542"><ele>228.60000000000002</ele><time>2026-04-28T11:04:09.016Z</time></trkpt><trkpt lat="44.336831434524775" lon="11.16845339344978"><ele>227.4</ele><time>2026-04-28T11:04:10.016Z</time></trkpt><trkpt lat="44.336910394526406" lon="11.168353644479726"><ele>226.2</ele><time>2026-04-28T11:04:11.016Z</time></trkpt><trkpt lat="44.33698565339799" lon="11.168250393557008"><ele>225.0</ele><time>2026-04-28T11:04:12.016Z</time></trkpt><trkpt lat="44.33704884379811" lon="11.168148728699906"><ele>225.0</ele><time>2026-04-28T11:04:13.016Z</time></trkpt><trkpt lat="44.33709342759043" lon="11.168041984032014"><ele>225.0</ele><time>2026-04-28T11:04:14.016Z</time></trkpt><trkpt lat="44.33712526928814" lon="11.167934370592258"><ele>225.0</ele><time>2026-04-28T11:04:15.016Z</time></trkpt><trkpt lat="44.337147070292566" lon="11.16781763778753"><ele>225.0</ele><time>2026-04-28T11:04:16.016Z</time></trkpt><trkpt lat="44.33713049269363" lon="11.167668912187686"><ele>225.0</ele><time>2026-04-28T11:04:17.016Z</time></trkpt><trkpt lat="44.33707888017873" lon="11.167493226185965"><ele>227.0</ele><time>2026-04-28T11:04:18.016Z</time></trkpt><trkpt lat="44.33701672461325" lon="11.167307073499417"><ele>229.0</ele><time>2026-04-28T11:04:19.016Z</time></trkpt><trkpt lat="44.33697572585724" lon="11.167141769402471"><ele>231.0</ele><time>2026-04-28T11:04:20.016Z</time></trkpt><trkpt lat="44.33696553592276" lon="11.166972329479846"><ele>233.0</ele><time>2026-04-28T11:04:21.016Z</time></trkpt><trkpt lat="44.33698325300443" lon="11.166816930325364"><ele>233.0</ele><time>2026-04-28T11:04:22.016Z</time></trkpt><trkpt lat="44.33703029560138" lon="11.166662414670114"><ele>233.0</ele><time>2026-04-28T11:04:23.016Z</time></trkpt><trkpt lat="44.3370843735459" lon="11.166517757592645"><ele>233.0</ele><time>2026-04-28T11:04:24.016Z</time></trkpt><trkpt lat="44.33713763116678" lon="11.166346522098195"><ele>233.0</ele><time>2026-04-28T11:04:25.016Z</time></trkpt><trkpt lat="44.33719294615643" lon="11.166171521476109"><ele>233.25</ele><time>2026-04-28T11:04:26.016Z</time></trkpt><trkpt lat="44.33724937559815" lon="11.165997456915145"><ele>233.5</ele><time>2026-04-28T11:04:27.016Z</time></trkpt><trkpt lat="44.337289518584946" lon="11.165808582909461"><ele>233.75</ele><time>2026-04-28T11:04:28.016Z</time></trkpt><trkpt lat="44.337312853973074" lon="11.165601018453453"><ele>234.0</ele><time>2026-04-28T11:04:29.016Z</time></trkpt><trkpt lat="44.33730660929421" lon="11.165398091731827"><ele>234.0</ele><time>2026-04-28T11:04:30.016Z</time></trkpt><trkpt lat="44.33729213646651" lon="11.165219083484088"><ele>234.0</ele><time>2026-04-28T11:04:31.016Z</time></trkpt><trkpt lat="44.33727553020856" lon="11.165042598081268"><ele>234.0</ele><time>2026-04-28T11:04:32.016Z</time></trkpt><trkpt lat="44.3372797144075" lon="11.164882117433672"><ele>234.0</ele><time>2026-04-28T11:04:33.016Z</time></trkpt><trkpt lat="44.337313745838614" lon="11.164748847417107"><ele>233.75</ele><time>2026-04-28T11:04:34.016Z</time></trkpt><trkpt lat="44.33736027890394" lon="11.164623757610507"><ele>233.5</ele><time>2026-04-28T11:04:35.016Z</time></trkpt><trkpt lat="44.33738221907719" lon="11.164480341202417"><ele>233.25</ele><time>2026-04-28T11:04:36.016Z</time></trkpt><trkpt lat="44.33735994309063" lon="11.164311325353555"><ele>233.0</ele><time>2026-04-28T11:04:37.016Z</time></trkpt><trkpt lat="44.33731807004768" lon="11.164124273149099"><ele>231.33333333333334</ele><time>2026-04-28T11:04:38.016Z</time></trkpt><trkpt lat="44.33727461663454" lon="11.163914262884175"><ele>229.66666666666669</ele><time>2026-04-28T11:04:39.016Z</time></trkpt><trkpt lat="44.33723753855968" lon="11.16368131208863"><ele>228.0</ele><time>2026-04-28T11:04:40.016Z</time></trkpt><trkpt lat="44.33721057043388" lon="11.163428263004844"><ele>229.0</ele><time>2026-04-28T11:04:41.016Z</time></trkpt><trkpt lat="44.337187092224525" lon="11.163161353559486"><ele>230.0</ele><time>2026-04-28T11:04:42.016Z</time></trkpt><trkpt lat="44.33715656493403" lon="11.162889395941146"><ele>231.0</ele><time>2026-04-28T11:04:43.016Z</time></trkpt><trkpt lat="44.33711249523209" lon="11.16262559229653"><ele>231.0</ele><time>2026-04-28T11:04:44.016Z</time></trkpt><trkpt lat="44.33704468678707" lon="11.162383265181502"><ele>231.0</ele><time>2026-04-28T11:04:45.016Z</time></trkpt><trkpt lat="44.33698783689085" lon="11.162171439808095"><ele>231.0</ele><time>2026-04-28T11:04:46.016Z</time></trkpt><trkpt lat="44.33695525649251" lon="11.161969406646913"><ele>230.0</ele><time>2026-04-28T11:04:47.016Z</time></trkpt><trkpt lat="44.33695044112775" lon="11.161757522302494"><ele>229.0</ele><time>2026-04-28T11:04:48.016Z</time></trkpt><trkpt lat="44.336939418371244" lon="11.161534721420837"><ele>228.0</ele><time>2026-04-28T11:04:49.017Z</time></trkpt><trkpt lat="44.3369344339027" lon="11.161298311579465"><ele>230.0</ele><time>2026-04-28T11:04:50.017Z</time></trkpt><trkpt lat="44.336936018792414" lon="11.161077484770463"><ele>232.0</ele><time>2026-04-28T11:04:51.017Z</time></trkpt><trkpt lat="44.33695359241392" lon="11.16087320399517"><ele>234.0</ele><time>2026-04-28T11:04:52.017Z</time></trkpt><trkpt lat="44.336996115909436" lon="11.160676654648148"><ele>235.0</ele><time>2026-04-28T11:04:53.017Z</time></trkpt><trkpt lat="44.33706377367166" lon="11.160486198822055"><ele>236.0</ele><time>2026-04-28T11:04:54.017Z</time></trkpt><trkpt lat="44.337129222295424" lon="11.160294874657193"><ele>237.0</ele><time>2026-04-28T11:04:55.017Z</time></trkpt><trkpt lat="44.337163004694474" lon="11.160099599189934"><ele>238.0</ele><time>2026-04-28T11:04:56.017Z</time></trkpt><trkpt lat="44.33715187329177" lon="11.159890227836545"><ele>239.0</ele><time>2026-04-28T11:04:57.017Z</time></trkpt><trkpt lat="44.33712366588064" lon="11.159665196190678"><ele>240.0</ele><time>2026-04-28T11:04:58.017Z</time></trkpt><trkpt lat="44.337082645462736" lon="11.15943070171674"><ele>241.0</ele><time>2026-04-28T11:04:59.017Z</time></trkpt><trkpt lat="44.33703276945664" lon="11.15919131490375"><ele>241.66666666666666</ele><time>2026-04-28T11:05:00.017Z</time></trkpt><trkpt lat="44.336977788949866" lon="11.158950177917815"><ele>242.33333333333331</ele><time>2026-04-28T11:05:01.017Z</time></trkpt><trkpt lat="44.33691917757137" lon="11.158721789028958"><ele>243.0</ele><time>2026-04-28T11:05:02.017Z</time></trkpt><trkpt lat="44.336867196841624" lon="11.15853324184748"><ele>243.0</ele><time>2026-04-28T11:05:03.017Z</time></trkpt><trkpt lat="44.33682691844715" lon="11.158354976666873"><ele>243.0</ele><time>2026-04-28T11:05:04.017Z</time></trkpt><trkpt lat="44.33680349393265" lon="11.158175703536534"><ele>243.0</ele><time>2026-04-28T11:05:05.017Z</time></trkpt><trkpt lat="44.33681311775517" lon="11.158013642558306"><ele>243.0</ele><time>2026-04-28T11:05:06.017Z</time></trkpt><trkpt lat="44.33685021435008" lon="11.157860245921526"><ele>243.0</ele><time>2026-04-28T11:05:07.017Z</time></trkpt><trkpt lat="44.33693255963899" lon="11.157729212671006"><ele>243.0</ele><time>2026-04-28T11:05:08.017Z</time></trkpt><trkpt lat="44.33700919390844" lon="11.157533695226531"><ele>243.0</ele><time>2026-04-28T11:05:09.017Z</time></trkpt><trkpt lat="44.33707734265035" lon="11.157344502632322"><ele>243.0</ele><time>2026-04-28T11:05:10.017Z</time></trkpt><trkpt lat="44.33714533886501" lon="11.157166702586185"><ele>245.75</ele><time>2026-04-28T11:05:11.017Z</time></trkpt><trkpt lat="44.33722002424001" lon="11.157029042859312"><ele>248.5</ele><time>2026-04-28T11:05:12.017Z</time></trkpt><trkpt lat="44.33733105298783" lon="11.156892181009479"><ele>251.25</ele><time>2026-04-28T11:05:13.017Z</time></trkpt><trkpt lat="44.33745316597542" lon="11.156727328172893"><ele>254.0</ele><time>2026-04-28T11:05:14.017Z</time></trkpt><trkpt lat="44.33755089885514" lon="11.156537878426638"><ele>252.75</ele><time>2026-04-28T11:05:15.017Z</time></trkpt><trkpt lat="44.33762800223427" lon="11.156345483308899"><ele>251.5</ele><time>2026-04-28T11:05:16.017Z</time></trkpt><trkpt lat="44.33767551345568" lon="11.15615314886078"><ele>250.25</ele><time>2026-04-28T11:05:17.017Z</time></trkpt><trkpt lat="44.337706353928326" lon="11.155955494891701"><ele>249.0</ele><time>2026-04-28T11:05:18.017Z</time></trkpt><trkpt lat="44.33772050563453" lon="11.155752003692584"><ele>248.75</ele><time>2026-04-28T11:05:19.017Z</time></trkpt><trkpt lat="44.33775905402558" lon="11.155555918539823"><ele>248.5</ele><time>2026-04-28T11:05:20.017Z</time></trkpt><trkpt lat="44.337828379611715" lon="11.155406010478277"><ele>248.25</ele><time>2026-04-28T11:05:21.017Z</time></trkpt><trkpt lat="44.3379187022005" lon="11.155310323883098"><ele>248.0</ele><time>2026-04-28T11:05:22.017Z</time></trkpt><trkpt lat="44.33803524881208" lon="11.155297828165281"><ele>250.2</ele><time>2026-04-28T11:05:23.017Z</time></trkpt><trkpt lat="44.33813864943429" lon="11.155250913587123"><ele>252.4</ele><time>2026-04-28T11:05:24.003Z</time></trkpt><trkpt lat="44.33822034749218" lon="11.15521275568338"><ele>254.59999999999997</ele><time>2026-04-28T11:05:25.003Z</time></trkpt><trkpt lat="44.33827153626605" lon="11.155119768299262"><ele>256.8</ele><time>2026-04-28T11:05:26.003Z</time></trkpt><trkpt lat="44.33828944433621" lon="11.154984995220977"><ele>259.0</ele><time>2026-04-28T11:05:27.003Z</time></trkpt><trkpt lat="44.33828987199968" lon="11.15483060378838"><ele>260.75</ele><time>2026-04-28T11:05:28.003Z</time></trkpt><trkpt lat="44.33829454818124" lon="11.15466128788069"><ele>262.5</ele><time>2026-04-28T11:05:29.003Z</time></trkpt><trkpt lat="44.33820085680314" lon="11.154504633661446"><ele>264.25</ele><time>2026-04-28T11:05:30.003Z</time></trkpt><trkpt lat="44.33809272794618" lon="11.154398861952158"><ele>266.0</ele><time>2026-04-28T11:05:31.003Z</time></trkpt><trkpt lat="44.337990712769376" lon="11.154314909967116"><ele>263.25</ele><time>2026-04-28T11:05:32.003Z</time></trkpt><trkpt lat="44.33790969492633" lon="11.154182232796106"><ele>260.5</ele><time>2026-04-28T11:05:33.003Z</time></trkpt><trkpt lat="44.33787917788838" lon="11.153994630713841"><ele>257.75</ele><time>2026-04-28T11:05:34.003Z</time></trkpt><trkpt lat="44.337869900888194" lon="11.153791398764136"><ele>255.0</ele><time>2026-04-28T11:05:35.003Z</time></trkpt><trkpt lat="44.33785309127726" lon="11.15355840730932"><ele>255.0</ele><time>2026-04-28T11:05:36.003Z</time></trkpt><trkpt lat="44.33780845676051" lon="11.153330886799537"><ele>255.0</ele><time>2026-04-28T11:05:37.003Z</time></trkpt><trkpt lat="44.33775201866475" lon="11.153105601961224"><ele>255.0</ele><time>2026-04-28T11:05:38.003Z</time></trkpt><trkpt lat="44.33769366191709" lon="11.152882239244668"><ele>257.0</ele><time>2026-04-28T11:05:39.003Z</time></trkpt><trkpt lat="44.337655163640726" lon="11.152652103161914"><ele>259.0</ele><time>2026-04-28T11:05:40.003Z</time></trkpt><trkpt lat="44.33762172351959" lon="11.152417104520781"><ele>261.0</ele><time>2026-04-28T11:05:41.003Z</time></trkpt><trkpt lat="44.33759986735112" lon="11.15217695404076"><ele>262.3333333333333</ele><time>2026-04-28T11:05:42.003Z</time></trkpt><trkpt lat="44.33758304597214" lon="11.151933088807802"><ele>263.66666666666663</ele><time>2026-04-28T11:05:43.003Z</time></trkpt><trkpt lat="44.33757718294631" lon="11.15168379470894"><ele>265.0</ele><time>2026-04-28T11:05:44.004Z</time></trkpt><trkpt lat="44.337562522753664" lon="11.15144786807594"><ele>265.75</ele><time>2026-04-28T11:05:45.004Z</time></trkpt><trkpt lat="44.33755348953232" lon="11.151233888889658"><ele>266.5</ele><time>2026-04-28T11:05:46.004Z</time></trkpt><trkpt lat="44.33754929975844" lon="11.151057041664785"><ele>267.25</ele><time>2026-04-28T11:05:47.004Z</time></trkpt><trkpt lat="44.33755330832601" lon="11.150919749559899"><ele>268.0</ele><time>2026-04-28T11:05:48.004Z</time></trkpt><trkpt lat="44.33755634561382" lon="11.150802398933113"><ele>268.0</ele><time>2026-04-28T11:05:49.004Z</time></trkpt><trkpt lat="44.33756702976913" lon="11.15070818499548"><ele>268.0</ele><time>2026-04-28T11:05:50.004Z</time></trkpt><trkpt lat="44.33758494615658" lon="11.150608434731305"><ele>268.0</ele><time>2026-04-28T11:05:51.004Z</time></trkpt><trkpt lat="44.33760305052654" lon="11.15051521666676"><ele>268.0</ele><time>2026-04-28T11:05:52.004Z</time></trkpt><trkpt lat="44.33762060869868" lon="11.15042247742421"><ele>268.0</ele><time>2026-04-28T11:05:53.004Z</time></trkpt><trkpt lat="44.33765504348523" lon="11.150288472071162"><ele>268.0</ele><time>2026-04-28T11:05:55.004Z</time></trkpt><trkpt lat="44.33772263090529" lon="11.150228987168001"><ele>269.0</ele><time>2026-04-28T11:05:59.004Z</time></trkpt><trkpt lat="44.3378125239256" lon="11.15019695618084"><ele>269.0</ele><time>2026-04-28T11:06:01.004Z</time></trkpt><trkpt lat="44.33782723716451" lon="11.150092825465698"><ele>269.0</ele><time>2026-04-28T11:06:04.004Z</time></trkpt><trkpt lat="44.33783091664191" lon="11.15000167268316"><ele>269.0</ele><time>2026-04-28T11:06:06.004Z</time></trkpt><trkpt lat="44.33787949068424" lon="11.149937225315973"><ele>269.0</ele><time>2026-04-28T11:06:10.004Z</time></trkpt></trkseg><trkseg><trkpt lat="44.337799309185414" lon="11.14981067354137"><ele>267.0</ele><time>2026-04-28T13:27:44.927Z</time></trkpt><trkpt lat="44.33774013418237" lon="11.149779031048086"><ele>267.0</ele><time>2026-04-28T13:30:17.924Z</time></trkpt><trkpt lat="44.33768348256897" lon="11.149896050577908"><ele>267.0</ele><time>2026-04-28T13:30:21.924Z</time></trkpt><trkpt lat="44.33768698231324" lon="11.150086574247565"><ele>267.0</ele><time>2026-04-28T13:30:23.924Z</time></trkpt><trkpt lat="44.33766482335001" lon="11.150197138170228"><ele>267.0</ele><time>2026-04-28T13:30:25.924Z</time></trkpt><trkpt lat="44.337646423218395" lon="11.150336541471107"><ele>267.1666666666667</ele><time>2026-04-28T13:30:28.924Z</time></trkpt><trkpt lat="44.33763021122885" lon="11.15042180682499"><ele>267.3333333333333</ele><time>2026-04-28T13:30:29.924Z</time></trkpt><trkpt lat="44.33760956473531" lon="11.15050670169569"><ele>267.5</ele><time>2026-04-28T13:30:30.924Z</time></trkpt><trkpt lat="44.33755945108583" lon="11.150604629922876"><ele>267.66666666666663</ele><time>2026-04-28T13:30:31.924Z</time></trkpt><trkpt lat="44.337541375496386" lon="11.150725810689197"><ele>267.8333333333333</ele><time>2026-04-28T13:30:32.924Z</time></trkpt><trkpt lat="44.337528441267416" lon="11.150848418244646"><ele>268.0</ele><time>2026-04-28T13:30:33.924Z</time></trkpt><trkpt lat="44.33751806787679" lon="11.150972989371533"><ele>268.0</ele><time>2026-04-28T13:30:34.924Z</time></trkpt><trkpt lat="44.33751775186442" lon="11.15111154843502"><ele>268.0</ele><time>2026-04-28T13:30:35.924Z</time></trkpt><trkpt lat="44.33752388875857" lon="11.15125929667478"><ele>268.0</ele><time>2026-04-28T13:30:36.924Z</time></trkpt><trkpt lat="44.337548386169395" lon="11.151408315998074"><ele>268.0</ele><time>2026-04-28T13:30:37.924Z</time></trkpt><trkpt lat="44.33753773470531" lon="11.151558202624305"><ele>268.0</ele><time>2026-04-28T13:30:38.924Z</time></trkpt><trkpt lat="44.337533629207314" lon="11.151717573252926"><ele>267.25</ele><time>2026-04-28T13:30:39.924Z</time></trkpt><trkpt lat="44.337540655938156" lon="11.151875919155598"><ele>266.5</ele><time>2026-04-28T13:30:40.924Z</time></trkpt><trkpt lat="44.33755129989784" lon="11.152033661735427"><ele>265.75</ele><time>2026-04-28T13:30:41.924Z</time></trkpt><trkpt lat="44.33756752963682" lon="11.152193962785182"><ele>265.0</ele><time>2026-04-28T13:30:42.924Z</time></trkpt><trkpt lat="44.33759050042439" lon="11.152358566226976"><ele>264.0</ele><time>2026-04-28T13:30:43.924Z</time></trkpt><trkpt lat="44.33761914898414" lon="11.152511423407434"><ele>263.0</ele><time>2026-04-28T13:30:44.924Z</time></trkpt><trkpt lat="44.33764758535026" lon="11.152667553901171"><ele>262.0</ele><time>2026-04-28T13:30:45.924Z</time></trkpt><trkpt lat="44.33767329066779" lon="11.152822806691676"><ele>261.0</ele><time>2026-04-28T13:30:46.924Z</time></trkpt><trkpt lat="44.33768749581508" lon="11.15298030563891"><ele>261.0</ele><time>2026-04-28T13:30:47.924Z</time></trkpt><trkpt lat="44.337716094115336" lon="11.153132558176328"><ele>261.0</ele><time>2026-04-28T13:30:48.924Z</time></trkpt><trkpt lat="44.3377538279133" lon="11.153290905180093"><ele>261.0</ele><time>2026-04-28T13:30:49.924Z</time></trkpt><trkpt lat="44.337809239869706" lon="11.153435768277962"><ele>261.0</ele><time>2026-04-28T13:30:50.921Z</time></trkpt><trkpt lat="44.337822815088586" lon="11.153584827614898"><ele>259.8</ele><time>2026-04-28T13:30:51.922Z</time></trkpt><trkpt lat="44.3378335429397" lon="11.153730546251065"><ele>258.6</ele><time>2026-04-28T13:30:52.922Z</time></trkpt><trkpt lat="44.337840175656396" lon="11.15388433504059"><ele>257.4</ele><time>2026-04-28T13:30:53.921Z</time></trkpt><trkpt lat="44.337854343271204" lon="11.154029318587"><ele>256.2</ele><time>2026-04-28T13:30:54.921Z</time></trkpt><trkpt lat="44.33788624157415" lon="11.154173262102024"><ele>255.0</ele><time>2026-04-28T13:30:55.921Z</time></trkpt><trkpt lat="44.33794490693105" lon="11.15428820784273"><ele>254.2</ele><time>2026-04-28T13:30:56.922Z</time></trkpt><trkpt lat="44.33798892475913" lon="11.154412248944233"><ele>253.4</ele><time>2026-04-28T13:30:57.922Z</time></trkpt><trkpt lat="44.33808362709227" lon="11.15447968266409"><ele>252.60000000000002</ele><time>2026-04-28T13:30:58.922Z</time></trkpt><trkpt lat="44.338169058624544" lon="11.154550650074551"><ele>251.8</ele><time>2026-04-28T13:30:59.921Z</time></trkpt><trkpt lat="44.33823648373748" lon="11.154635939944178"><ele>251.0</ele><time>2026-04-28T13:31:00.921Z</time></trkpt><trkpt lat="44.33827642072434" lon="11.1547606444828"><ele>252.60000000000002</ele><time>2026-04-28T13:31:01.921Z</time></trkpt><trkpt lat="44.33827851631635" lon="11.154903134925714"><ele>254.20000000000002</ele><time>2026-04-28T13:31:02.921Z</time></trkpt><trkpt lat="44.338247424190804" lon="11.15503386541191"><ele>255.79999999999998</ele><time>2026-04-28T13:31:03.921Z</time></trkpt><trkpt lat="44.33820614211052" lon="11.155140264796081"><ele>257.4</ele><time>2026-04-28T13:31:04.921Z</time></trkpt><trkpt lat="44.338154772553935" lon="11.155224752179688"><ele>259.0</ele><time>2026-04-28T13:31:05.921Z</time></trkpt><trkpt lat="44.3380733486626" lon="11.15524909599967"><ele>256.8</ele><time>2026-04-28T13:31:06.921Z</time></trkpt><trkpt lat="44.3379809384803" lon="11.155279577062796"><ele>254.59999999999997</ele><time>2026-04-28T13:31:07.921Z</time></trkpt><trkpt lat="44.337892126288224" lon="11.15529832932452"><ele>252.4</ele><time>2026-04-28T13:31:08.921Z</time></trkpt><trkpt lat="44.3378159106453" lon="11.155363720931309"><ele>250.2</ele><time>2026-04-28T13:31:09.921Z</time></trkpt><trkpt lat="44.33775491159483" lon="11.15546344647148"><ele>248.0</ele><time>2026-04-28T13:31:10.921Z</time></trkpt><trkpt lat="44.337709700480396" lon="11.155590542280235"><ele>248.2</ele><time>2026-04-28T13:31:11.921Z</time></trkpt><trkpt lat="44.33767783502685" lon="11.155733562960997"><ele>248.4</ele><time>2026-04-28T13:31:12.921Z</time></trkpt><trkpt lat="44.33765288435364" lon="11.15588746191206"><ele>248.59999999999997</ele><time>2026-04-28T13:31:13.921Z</time></trkpt><trkpt lat="44.3376346523302" lon="11.156042064471368"><ele>248.79999999999998</ele><time>2026-04-28T13:31:14.921Z</time></trkpt><trkpt lat="44.33762539346169" lon="11.156201245207884"><ele>249.0</ele><time>2026-04-28T13:31:15.921Z</time></trkpt><trkpt lat="44.33759707468761" lon="11.156343482706557"><ele>249.0</ele><time>2026-04-28T13:31:16.921Z</time></trkpt><trkpt lat="44.33753028322455" lon="11.15647675408921"><ele>249.0</ele><time>2026-04-28T13:31:17.921Z</time></trkpt><trkpt lat="44.33746960855" lon="11.156608722419262"><ele>249.0</ele><time>2026-04-28T13:31:18.921Z</time></trkpt><trkpt lat="44.337415393355705" lon="11.156752770272186"><ele>249.0</ele><time>2026-04-28T13:31:19.921Z</time></trkpt><trkpt lat="44.33733490138761" lon="11.156862895336042"><ele>250.0</ele><time>2026-04-28T13:31:20.921Z</time></trkpt><trkpt lat="44.33724923805447" lon="11.156939963932093"><ele>250.99999999999997</ele><time>2026-04-28T13:31:21.921Z</time></trkpt><trkpt lat="44.33717805832089" lon="11.157057949921706"><ele>251.99999999999997</ele><time>2026-04-28T13:31:22.921Z</time></trkpt><trkpt lat="44.3370994092819" lon="11.157179844605945"><ele>253.0</ele><time>2026-04-28T13:31:23.921Z</time></trkpt><trkpt lat="44.33704734360152" lon="11.157325306394489"><ele>254.0</ele><time>2026-04-28T13:31:24.921Z</time></trkpt><trkpt lat="44.336993503500395" lon="11.157474591894692"><ele>251.79999999999998</ele><time>2026-04-28T13:31:25.921Z</time></trkpt><trkpt lat="44.336937476586186" lon="11.157621131217667"><ele>249.59999999999997</ele><time>2026-04-28T13:31:26.921Z</time></trkpt><trkpt lat="44.336892058862304" lon="11.15776890330631"><ele>247.4</ele><time>2026-04-28T13:31:27.921Z</time></trkpt><trkpt lat="44.33682287378023" lon="11.15788606314563"><ele>245.2</ele><time>2026-04-28T13:31:28.921Z</time></trkpt><trkpt lat="44.33678475416088" lon="11.158009380560294"><ele>243.0</ele><time>2026-04-28T13:31:29.921Z</time></trkpt><trkpt lat="44.33678093977164" lon="11.158138539358273"><ele>243.0</ele><time>2026-04-28T13:31:30.921Z</time></trkpt><trkpt lat="44.33678852434641" lon="11.158275670458009"><ele>243.0</ele><time>2026-04-28T13:31:31.921Z</time></trkpt><trkpt lat="44.33682554500458" lon="11.15844299632545"><ele>243.0</ele><time>2026-04-28T13:31:32.921Z</time></trkpt><trkpt lat="44.336851895240386" lon="11.158620563740037"><ele>243.0</ele><time>2026-04-28T13:31:33.921Z</time></trkpt><trkpt lat="44.336908648379776" lon="11.158783710975047"><ele>243.0</ele><time>2026-04-28T13:31:34.921Z</time></trkpt><trkpt lat="44.33693796645569" lon="11.15898016259385"><ele>243.0</ele><time>2026-04-28T13:31:35.921Z</time></trkpt><trkpt lat="44.33698417163755" lon="11.1591728110851"><ele>243.0</ele><time>2026-04-28T13:31:36.921Z</time></trkpt><trkpt lat="44.33702854298599" lon="11.159362418690122"><ele>243.0</ele><time>2026-04-28T13:31:37.921Z</time></trkpt><trkpt lat="44.33705877864405" lon="11.159554128757994"><ele>242.5</ele><time>2026-04-28T13:31:38.921Z</time></trkpt><trkpt lat="44.337080254257074" lon="11.159714990807213"><ele>242.0</ele><time>2026-04-28T13:31:39.921Z</time></trkpt><trkpt lat="44.33709570271417" lon="11.15986680857431"><ele>241.5</ele><time>2026-04-28T13:31:40.921Z</time></trkpt><trkpt lat="44.337099906891225" lon="11.160035564734029"><ele>241.0</ele><time>2026-04-28T13:31:41.921Z</time></trkpt><trkpt lat="44.33709452813856" lon="11.160202886746742"><ele>240.25</ele><time>2026-04-28T13:31:42.921Z</time></trkpt><trkpt lat="44.33707037581267" lon="11.160366400172562"><ele>239.5</ele><time>2026-04-28T13:31:43.921Z</time></trkpt><trkpt lat="44.33702214809807" lon="11.160522194698464"><ele>238.75</ele><time>2026-04-28T13:31:44.921Z</time></trkpt><trkpt lat="44.33696604751669" lon="11.160668655138197"><ele>238.0</ele><time>2026-04-28T13:31:45.921Z</time></trkpt><trkpt lat="44.33691721381729" lon="11.160823308669226"><ele>237.0</ele><time>2026-04-28T13:31:46.921Z</time></trkpt><trkpt lat="44.336886431109306" lon="11.161004518335334"><ele>236.0</ele><time>2026-04-28T13:31:47.921Z</time></trkpt><trkpt lat="44.336876008506344" lon="11.16118552576893"><ele>235.0</ele><time>2026-04-28T13:31:48.921Z</time></trkpt><trkpt lat="44.33687849221137" lon="11.161355654813095"><ele>234.0</ele><time>2026-04-28T13:31:49.921Z</time></trkpt><trkpt lat="44.336891283024016" lon="11.161537562895381"><ele>232.5</ele><time>2026-04-28T13:31:50.921Z</time></trkpt><trkpt lat="44.3368866897785" lon="11.161730991559471"><ele>231.0</ele><time>2026-04-28T13:31:51.921Z</time></trkpt><trkpt lat="44.33689222691706" lon="11.161917673048517"><ele>229.5</ele><time>2026-04-28T13:31:52.921Z</time></trkpt><trkpt lat="44.336912230324415" lon="11.162094778780299"><ele>228.0</ele><time>2026-04-28T13:31:53.921Z</time></trkpt><trkpt lat="44.336940852963686" lon="11.162270856000578"><ele>228.75</ele><time>2026-04-28T13:31:54.921Z</time></trkpt><trkpt lat="44.336997324954055" lon="11.162424981947895"><ele>229.5</ele><time>2026-04-28T13:31:55.921Z</time></trkpt><trkpt lat="44.33706134341713" lon="11.16258974976746"><ele>230.25</ele><time>2026-04-28T13:31:56.921Z</time></trkpt><trkpt lat="44.33712229175315" lon="11.162780818464368"><ele>231.0</ele><time>2026-04-28T13:31:57.921Z</time></trkpt><trkpt lat="44.337135869535395" lon="11.162995623627289"><ele>230.0</ele><time>2026-04-28T13:31:58.921Z</time></trkpt><trkpt lat="44.33714762009165" lon="11.163205797908649"><ele>229.0</ele><time>2026-04-28T13:31:59.921Z</time></trkpt><trkpt lat="44.33717063361846" lon="11.163422495321951"><ele>228.0</ele><time>2026-04-28T13:32:00.921Z</time></trkpt><trkpt lat="44.33718681315782" lon="11.163626597462802"><ele>228.0</ele><time>2026-04-28T13:32:01.921Z</time></trkpt><trkpt lat="44.33720699582113" lon="11.16380896653758"><ele>228.0</ele><time>2026-04-28T13:32:02.921Z</time></trkpt><trkpt lat="44.33724226095056" lon="11.163977309962773"><ele>228.0</ele><time>2026-04-28T13:32:03.921Z</time></trkpt><trkpt lat="44.33727789547234" lon="11.16412936211669"><ele>228.0</ele><time>2026-04-28T13:32:04.921Z</time></trkpt><trkpt lat="44.337300944751156" lon="11.164265751215378"><ele>229.0</ele><time>2026-04-28T13:32:05.921Z</time></trkpt><trkpt lat="44.33732783028566" lon="11.164386152757755"><ele>230.0</ele><time>2026-04-28T13:32:06.921Z</time></trkpt><trkpt lat="44.337345970607274" lon="11.16450570476343"><ele>231.0</ele><time>2026-04-28T13:32:07.921Z</time></trkpt><trkpt lat="44.3373136409153" lon="11.164630562354999"><ele>232.0</ele><time>2026-04-28T13:32:08.921Z</time></trkpt><trkpt lat="44.33724120159069" lon="11.164739822163208"><ele>233.0</ele><time>2026-04-28T13:32:09.921Z</time></trkpt><trkpt lat="44.33720688494612" lon="11.164897969927983"><ele>233.2</ele><time>2026-04-28T13:32:10.921Z</time></trkpt><trkpt lat="44.33724662514426" lon="11.165067189641073"><ele>233.4</ele><time>2026-04-28T13:32:11.921Z</time></trkpt><trkpt lat="44.337258982020295" lon="11.165216019244038"><ele>233.59999999999997</ele><time>2026-04-28T13:32:12.921Z</time></trkpt><trkpt lat="44.33726789345396" lon="11.165347213971673"><ele>233.79999999999998</ele><time>2026-04-28T13:32:13.921Z</time></trkpt><trkpt lat="44.337273003934605" lon="11.165475044439088"><ele>234.0</ele><time>2026-04-28T13:32:14.921Z</time></trkpt><trkpt lat="44.337264207281414" lon="11.165609414092183"><ele>234.79999999999998</ele><time>2026-04-28T13:32:15.921Z</time></trkpt><trkpt lat="44.33723651956832" lon="11.165762727787122"><ele>235.59999999999997</ele><time>2026-04-28T13:32:16.921Z</time></trkpt><trkpt lat="44.33719975475808" lon="11.165904147728632"><ele>236.4</ele><time>2026-04-28T13:32:17.921Z</time></trkpt><trkpt lat="44.33715923441967" lon="11.166040247843467"><ele>237.2</ele><time>2026-04-28T13:32:18.921Z</time></trkpt><trkpt lat="44.33711535220805" lon="11.166187183121195"><ele>238.0</ele><time>2026-04-28T13:32:19.921Z</time></trkpt><trkpt lat="44.33707701725833" lon="11.166326081389046"><ele>238.0</ele><time>2026-04-28T13:32:20.921Z</time></trkpt><trkpt lat="44.337005844039616" lon="11.166459990033697"><ele>238.0</ele><time>2026-04-28T13:32:21.921Z</time></trkpt><trkpt lat="44.33695922938721" lon="11.166588953842837"><ele>238.0</ele><time>2026-04-28T13:32:22.921Z</time></trkpt><trkpt lat="44.3369231871033" lon="11.16672200659909"><ele>238.0</ele><time>2026-04-28T13:32:23.921Z</time></trkpt><trkpt lat="44.33691075590595" lon="11.166852360130175"><ele>238.0</ele><time>2026-04-28T13:32:24.921Z</time></trkpt><trkpt lat="44.33689313799076" lon="11.166976531831304"><ele>237.0</ele><time>2026-04-28T13:32:25.921Z</time></trkpt><trkpt lat="44.33690618415714" lon="11.16710641083713"><ele>236.0</ele><time>2026-04-28T13:32:26.921Z</time></trkpt><trkpt lat="44.33694341698138" lon="11.167247715393191"><ele>235.0</ele><time>2026-04-28T13:32:27.921Z</time></trkpt><trkpt lat="44.336992698549" lon="11.167378995571323"><ele>234.0</ele><time>2026-04-28T13:32:28.921Z</time></trkpt><trkpt lat="44.33703817804898" lon="11.167496699556247"><ele>233.0</ele><time>2026-04-28T13:32:29.921Z</time></trkpt><trkpt lat="44.33708973178829" lon="11.167594819622147"><ele>231.4</ele><time>2026-04-28T13:32:30.921Z</time></trkpt><trkpt lat="44.33709686347683" lon="11.167721874637504"><ele>229.8</ele><time>2026-04-28T13:32:31.921Z</time></trkpt><trkpt lat="44.33708258456641" lon="11.167843585734046"><ele>228.2</ele><time>2026-04-28T13:32:32.921Z</time></trkpt><trkpt lat="44.33704520920924" lon="11.167957294247987"><ele>226.6</ele><time>2026-04-28T13:32:33.921Z</time></trkpt><trkpt lat="44.33698448986709" lon="11.168062401439741"><ele>225.0</ele><time>2026-04-28T13:32:34.921Z</time></trkpt><trkpt lat="44.33690649400863" lon="11.168180362317765"><ele>224.33333333333334</ele><time>2026-04-28T13:32:35.921Z</time></trkpt><trkpt lat="44.3368422753369" lon="11.168276136368522"><ele>223.66666666666669</ele><time>2026-04-28T13:32:36.921Z</time></trkpt><trkpt lat="44.33677316636349" lon="11.168340453716661"><ele>223.0</ele><time>2026-04-28T13:32:37.921Z</time></trkpt><trkpt lat="44.33671002292737" lon="11.168408948306464"><ele>222.33333333333334</ele><time>2026-04-28T13:32:38.921Z</time></trkpt><trkpt lat="44.33665033834607" lon="11.168469655155075"><ele>221.66666666666669</ele><time>2026-04-28T13:32:39.921Z</time></trkpt><trkpt lat="44.336584980830246" lon="11.168539496144428"><ele>221.0</ele><time>2026-04-28T13:32:41.921Z</time></trkpt><trkpt lat="44.336541125477325" lon="11.168607483594586"><ele>221.00000000000003</ele><time>2026-04-28T13:32:49.921Z</time></trkpt><trkpt lat="44.33644443260628" lon="11.168665849947295"><ele>221.0</ele><time>2026-04-28T13:34:49.919Z</time></trkpt><trkpt lat="44.33638815068254" lon="11.168718780015533"><ele>221.0</ele><time>2026-04-28T13:34:50.919Z</time></trkpt><trkpt lat="44.3363298180096" lon="11.168789061363288"><ele>221.0</ele><time>2026-04-28T13:34:51.919Z</time></trkpt><trkpt lat="44.336270240594985" lon="11.168870083780176"><ele>221.00000000000003</ele><time>2026-04-28T13:34:52.919Z</time></trkpt><trkpt lat="44.336216218074256" lon="11.168945031270185"><ele>221.0</ele><time>2026-04-28T13:34:53.919Z</time></trkpt><trkpt lat="44.3362078975488" lon="11.16909843088574"><ele>222.20000000000002</ele><time>2026-04-28T13:34:55.919Z</time></trkpt><trkpt lat="44.33621551312339" lon="11.169252067824946"><ele>223.40000000000003</ele><time>2026-04-28T13:34:57.919Z</time></trkpt><trkpt lat="44.336208091762224" lon="11.16934831045312"><ele>224.6</ele><time>2026-04-28T13:34:58.919Z</time></trkpt><trkpt lat="44.33618620478223" lon="11.169447715137961"><ele>225.8</ele><time>2026-04-28T13:34:59.919Z</time></trkpt><trkpt lat="44.3361344927998" lon="11.16961702610542"><ele>227.0</ele><time>2026-04-28T13:35:01.919Z</time></trkpt><trkpt lat="44.336100545303225" lon="11.169724826536852"><ele>225.8</ele><time>2026-04-28T13:35:02.916Z</time></trkpt><trkpt lat="44.33605615349425" lon="11.169874407220142"><ele>224.6</ele><time>2026-04-28T13:35:03.916Z</time></trkpt><trkpt lat="44.33600595882655" lon="11.16998796674846"><ele>223.40000000000003</ele><time>2026-04-28T13:35:04.916Z</time></trkpt><trkpt lat="44.3359521205875" lon="11.170102297240138"><ele>222.20000000000002</ele><time>2026-04-28T13:35:05.915Z</time></trkpt><trkpt lat="44.33590867874954" lon="11.170206051883644"><ele>221.0</ele><time>2026-04-28T13:35:06.916Z</time></trkpt><trkpt lat="44.33588047103462" lon="11.17031439930046"><ele>221.0</ele><time>2026-04-28T13:35:07.916Z</time></trkpt><trkpt lat="44.3358473681875" lon="11.170448173944152"><ele>221.00000000000003</ele><time>2026-04-28T13:35:08.916Z</time></trkpt><trkpt lat="44.33581170379079" lon="11.170610468239575"><ele>221.00000000000003</ele><time>2026-04-28T13:35:09.916Z</time></trkpt><trkpt lat="44.335778264376266" lon="11.170762166118195"><ele>221.0</ele><time>2026-04-28T13:35:10.916Z</time></trkpt><trkpt lat="44.335744764713404" lon="11.170909958742554"><ele>221.0</ele><time>2026-04-28T13:35:11.916Z</time></trkpt><trkpt lat="44.335705715247805" lon="11.171060428095606"><ele>219.8</ele><time>2026-04-28T13:35:12.916Z</time></trkpt><trkpt lat="44.33566892029002" lon="11.17119861148034"><ele>218.60000000000002</ele><time>2026-04-28T13:35:13.916Z</time></trkpt><trkpt lat="44.33563254008818" lon="11.171341262270913"><ele>217.4</ele><time>2026-04-28T13:35:14.916Z</time></trkpt><trkpt lat="44.33557747060101" lon="11.171469921915971"><ele>216.2</ele><time>2026-04-28T13:35:15.916Z</time></trkpt><trkpt lat="44.335545361635056" lon="11.17159396697774"><ele>215.0</ele><time>2026-04-28T13:35:16.916Z</time></trkpt><trkpt lat="44.335525250340034" lon="11.171722448374846"><ele>218.2</ele><time>2026-04-28T13:35:17.916Z</time></trkpt><trkpt lat="44.335514055235095" lon="11.17187444372143"><ele>221.4</ele><time>2026-04-28T13:35:18.916Z</time></trkpt><trkpt lat="44.33551089747011" lon="11.172030412842341"><ele>224.60000000000002</ele><time>2026-04-28T13:35:19.916Z</time></trkpt><trkpt lat="44.33550926210967" lon="11.172174558437192"><ele>227.8</ele><time>2026-04-28T13:35:20.916Z</time></trkpt><trkpt lat="44.33550835947881" lon="11.172328256760737"><ele>231.0</ele><time>2026-04-28T13:35:21.916Z</time></trkpt><trkpt lat="44.33547388230564" lon="11.172492345012316"><ele>231.0</ele><time>2026-04-28T13:35:22.916Z</time></trkpt><trkpt lat="44.33542783175707" lon="11.17263944290166"><ele>231.00000000000003</ele><time>2026-04-28T13:35:23.916Z</time></trkpt><trkpt lat="44.33537567714743" lon="11.172768857696967"><ele>231.00000000000003</ele><time>2026-04-28T13:35:24.916Z</time></trkpt><trkpt lat="44.33526039236257" lon="11.172859563519927"><ele>231.0</ele><time>2026-04-28T13:35:25.916Z</time></trkpt><trkpt lat="44.33520422720006" lon="11.172922092284681"><ele>231.0</ele><time>2026-04-28T13:35:26.916Z</time></trkpt><trkpt lat="44.33515402381898" lon="11.173007287261871"><ele>231.0</ele><time>2026-04-28T13:35:27.916Z</time></trkpt><trkpt lat="44.3351184917319" lon="11.173116977561333"><ele>231.0</ele><time>2026-04-28T13:35:28.916Z</time></trkpt><trkpt lat="44.33509671948775" lon="11.173231885533054"><ele>231.0</ele><time>2026-04-28T13:35:29.916Z</time></trkpt><trkpt lat="44.33506039657327" lon="11.17333775411651"><ele>231.0</ele><time>2026-04-28T13:35:30.916Z</time></trkpt><trkpt lat="44.33501783907942" lon="11.173439318667796"><ele>231.0</ele><time>2026-04-28T13:35:31.916Z</time></trkpt><trkpt lat="44.33501622785487" lon="11.173556568679736"><ele>231.0</ele><time>2026-04-28T13:35:32.916Z</time></trkpt><trkpt lat="44.3349789339913" lon="11.173642745773405"><ele>228.20000000000002</ele><time>2026-04-28T13:35:33.916Z</time></trkpt><trkpt lat="44.334943131185874" lon="11.17373616204442"><ele>225.40000000000003</ele><time>2026-04-28T13:35:34.916Z</time></trkpt><trkpt lat="44.33490930550722" lon="11.17388212107799"><ele>222.6</ele><time>2026-04-28T13:35:36.916Z</time></trkpt><trkpt lat="44.33485370057966" lon="11.174050368525776"><ele>219.8</ele><time>2026-04-28T13:35:38.916Z</time></trkpt><trkpt lat="44.33483283616468" lon="11.174142400093334"><ele>217.0</ele><time>2026-04-28T13:35:39.916Z</time></trkpt><trkpt lat="44.33478168716261" lon="11.174200817157269"><ele>213.8</ele><time>2026-04-28T13:35:40.916Z</time></trkpt><trkpt lat="44.334731351998926" lon="11.17428705110309"><ele>210.6</ele><time>2026-04-28T13:35:41.916Z</time></trkpt><trkpt lat="44.334685412783436" lon="11.1743652903558"><ele>207.4</ele><time>2026-04-28T13:35:42.916Z</time></trkpt><trkpt lat="44.33465067396693" lon="11.174442016355297"><ele>204.20000000000002</ele><time>2026-04-28T13:35:43.916Z</time></trkpt><trkpt lat="44.334609107615016" lon="11.174601725327404"><ele>201.0</ele><time>2026-04-28T13:35:45.916Z</time></trkpt><trkpt lat="44.334610421700084" lon="11.174766827709165"><ele>209.20000000000002</ele><time>2026-04-28T13:35:47.916Z</time></trkpt><trkpt lat="44.33462375247743" lon="11.174903291426922"><ele>217.4</ele><time>2026-04-28T13:35:49.916Z</time></trkpt><trkpt lat="44.33463938685833" lon="11.175057338116655"><ele>225.6</ele><time>2026-04-28T13:35:52.916Z</time></trkpt><trkpt lat="44.334651177831915" lon="11.175173515407756"><ele>233.8</ele><time>2026-04-28T13:35:54.916Z</time></trkpt><trkpt lat="44.33466403905061" lon="11.175297456585158"><ele>242.0</ele><time>2026-04-28T13:35:56.916Z</time></trkpt><trkpt lat="44.334678665631046" lon="11.175428043548516"><ele>242.00000000000003</ele><time>2026-04-28T13:35:59.915Z</time></trkpt><trkpt lat="44.33469038387528" lon="11.17554371408404"><ele>242.0</ele><time>2026-04-28T13:36:02.915Z</time></trkpt><trkpt lat="44.33469694981877" lon="11.175683861609157"><ele>242.0</ele><time>2026-04-28T13:36:04.915Z</time></trkpt><trkpt lat="44.33470865343311" lon="11.175793687603589"><ele>242.0</ele><time>2026-04-28T13:36:06.915Z</time></trkpt><trkpt lat="44.33466693490504" lon="11.175882111563919"><ele>242.00000000000003</ele><time>2026-04-28T13:36:07.915Z</time></trkpt><trkpt lat="44.334611040559416" lon="11.175978100822572"><ele>242.0</ele><time>2026-04-28T13:36:08.915Z</time></trkpt><trkpt lat="44.334563516843815" lon="11.176084085493752"><ele>238.8</ele><time>2026-04-28T13:36:09.915Z</time></trkpt><trkpt lat="44.33451886866827" lon="11.176187345253796"><ele>235.6</ele><time>2026-04-28T13:36:10.915Z</time></trkpt><trkpt lat="44.3344997151774" lon="11.176315086546458"><ele>232.40000000000003</ele><time>2026-04-28T13:36:11.915Z</time></trkpt><trkpt lat="44.334450478500685" lon="11.176466981546803"><ele>229.20000000000002</ele><time>2026-04-28T13:36:12.915Z</time></trkpt><trkpt lat="44.334464853606406" lon="11.176625310993112"><ele>226.0</ele><time>2026-04-28T13:36:13.915Z</time></trkpt><trkpt lat="44.334541508255846" lon="11.176781950251044"><ele>220.60000000000002</ele><time>2026-04-28T13:36:14.915Z</time></trkpt><trkpt lat="44.33464171288109" lon="11.176873354764375"><ele>215.20000000000002</ele><time>2026-04-28T13:36:15.915Z</time></trkpt><trkpt lat="44.33475516084417" lon="11.176930743416476"><ele>209.8</ele><time>2026-04-28T13:36:16.915Z</time></trkpt><trkpt lat="44.33485472190741" lon="11.176983028901464"><ele>204.39999999999998</ele><time>2026-04-28T13:36:17.915Z</time></trkpt><trkpt lat="44.33493930965486" lon="11.177028250081344"><ele>199.0</ele><time>2026-04-28T13:36:18.915Z</time></trkpt><trkpt lat="44.3350258805424" lon="11.177076361210272"><ele>195.0</ele><time>2026-04-28T13:36:19.915Z</time></trkpt><trkpt lat="44.335109664196466" lon="11.177124227452166"><ele>191.0</ele><time>2026-04-28T13:36:20.915Z</time></trkpt><trkpt lat="44.33516820811348" lon="11.177171201913847"><ele>187.0</ele><time>2026-04-28T13:36:21.915Z</time></trkpt><trkpt lat="44.33522123691827" lon="11.177331439864998"><ele>183.0</ele><time>2026-04-28T13:36:23.915Z</time></trkpt><trkpt lat="44.335194399168095" lon="11.17744782612672"><ele>179.0</ele><time>2026-04-28T13:36:24.915Z</time></trkpt><trkpt lat="44.33514660967013" lon="11.177575158966553"><ele>178.5</ele><time>2026-04-28T13:36:25.915Z</time></trkpt><trkpt lat="44.33507585758921" lon="11.177691480292209"><ele>178.0</ele><time>2026-04-28T13:36:26.915Z</time></trkpt><trkpt lat="44.33498493404726" lon="11.17779383898346"><ele>177.5</ele><time>2026-04-28T13:36:27.915Z</time></trkpt><trkpt lat="44.33488269155671" lon="11.177884632391276"><ele>177.0</ele><time>2026-04-28T13:36:28.915Z</time></trkpt><trkpt lat="44.33478797027646" lon="11.178004453943236"><ele>177.25</ele><time>2026-04-28T13:36:29.915Z</time></trkpt><trkpt lat="44.33470865232822" lon="11.17815322838331"><ele>177.5</ele><time>2026-04-28T13:36:30.915Z</time></trkpt><trkpt lat="44.334648774542245" lon="11.178321710255572"><ele>177.75</ele><time>2026-04-28T13:36:31.915Z</time></trkpt><trkpt lat="44.33460192530684" lon="11.178504919288777"><ele>178.0</ele><time>2026-04-28T13:36:32.915Z</time></trkpt><trkpt lat="44.334566714227286" lon="11.178699721095658"><ele>175.75</ele><time>2026-04-28T13:36:33.915Z</time></trkpt><trkpt lat="44.33454030436362" lon="11.178890391626977"><ele>173.5</ele><time>2026-04-28T13:36:34.915Z</time></trkpt><trkpt lat="44.33450912133923" lon="11.179079210093363"><ele>171.25</ele><time>2026-04-28T13:36:35.915Z</time></trkpt><trkpt lat="44.33447165637153" lon="11.17926435250202"><ele>169.0</ele><time>2026-04-28T13:36:36.915Z</time></trkpt><trkpt lat="44.33443105417528" lon="11.179453169600936"><ele>169.0</ele><time>2026-04-28T13:36:37.915Z</time></trkpt><trkpt lat="44.33437429088858" lon="11.179641343980135"><ele>169.0</ele><time>2026-04-28T13:36:38.915Z</time></trkpt><trkpt lat="44.334318332013616" lon="11.17983785719575"><ele>169.0</ele><time>2026-04-28T13:36:39.915Z</time></trkpt><trkpt lat="44.33426885729559" lon="11.180039469443365"><ele>168.66666666666669</ele><time>2026-04-28T13:36:40.915Z</time></trkpt><trkpt lat="44.3342343045279" lon="11.180249781258471"><ele>168.33333333333334</ele><time>2026-04-28T13:36:41.915Z</time></trkpt><trkpt lat="44.33420104540571" lon="11.180470887983805"><ele>168.0</ele><time>2026-04-28T13:36:42.915Z</time></trkpt><trkpt lat="44.334165936945304" lon="11.180692067714975"><ele>167.33333333333334</ele><time>2026-04-28T13:36:43.915Z</time></trkpt><trkpt lat="44.334131501064206" lon="11.180917102977679"><ele>166.66666666666669</ele><time>2026-04-28T13:36:44.915Z</time></trkpt><trkpt lat="44.334097107273635" lon="11.18114263578805"><ele>166.0</ele><time>2026-04-28T13:36:45.915Z</time></trkpt><trkpt lat="44.334064037838004" lon="11.181376831821263"><ele>165.33333333333334</ele><time>2026-04-28T13:36:46.915Z</time></trkpt><trkpt lat="44.33404282552551" lon="11.181620278001052"><ele>164.66666666666666</ele><time>2026-04-28T13:36:47.915Z</time></trkpt><trkpt lat="44.33402433030026" lon="11.181863046390351"><ele>164.0</ele><time>2026-04-28T13:36:48.915Z</time></trkpt><trkpt lat="44.334007342510986" lon="11.182106691537298"><ele>163.66666666666666</ele><time>2026-04-28T13:36:49.915Z</time></trkpt><trkpt lat="44.333986889471525" lon="11.182348247968028"><ele>163.33333333333334</ele><time>2026-04-28T13:36:50.915Z</time></trkpt><trkpt lat="44.33396629539273" lon="11.182585124316125"><ele>163.0</ele><time>2026-04-28T13:36:51.915Z</time></trkpt><trkpt lat="44.33394824816636" lon="11.182816177990118"><ele>163.0</ele><time>2026-04-28T13:36:52.915Z</time></trkpt><trkpt lat="44.33392917060831" lon="11.18304903895747"><ele>163.0</ele><time>2026-04-28T13:36:53.915Z</time></trkpt><trkpt lat="44.33390945932971" lon="11.183282778530563"><ele>163.0</ele><time>2026-04-28T13:36:54.915Z</time></trkpt><trkpt lat="44.333890329164795" lon="11.183509561002321"><ele>161.25</ele><time>2026-04-28T13:36:55.915Z</time></trkpt><trkpt lat="44.333876253285275" lon="11.18372030594434"><ele>159.5</ele><time>2026-04-28T13:36:56.915Z</time></trkpt><trkpt lat="44.33386384205081" lon="11.183917944173313"><ele>157.75</ele><time>2026-04-28T13:36:57.915Z</time></trkpt><trkpt lat="44.333847225888256" lon="11.184108272378827"><ele>156.0</ele><time>2026-04-28T13:36:58.915Z</time></trkpt><trkpt lat="44.33382916764596" lon="11.184280755950626"><ele>155.75</ele><time>2026-04-28T13:36:59.915Z</time></trkpt><trkpt lat="44.33379393710261" lon="11.184455580754454"><ele>155.5</ele><time>2026-04-28T13:37:00.915Z</time></trkpt><trkpt lat="44.33373461028098" lon="11.18461434367265"><ele>155.25</ele><time>2026-04-28T13:37:01.915Z</time></trkpt><trkpt lat="44.33365653126183" lon="11.184805189410968"><ele>155.0</ele><time>2026-04-28T13:37:02.915Z</time></trkpt><trkpt lat="44.33357970039465" lon="11.184994293610746"><ele>154.33333333333331</ele><time>2026-04-28T13:37:03.915Z</time></trkpt><trkpt lat="44.333499174147846" lon="11.185185363839684"><ele>153.66666666666666</ele><time>2026-04-28T13:37:04.915Z</time></trkpt><trkpt lat="44.333420840365406" lon="11.185368211898108"><ele>153.0</ele><time>2026-04-28T13:37:05.915Z</time></trkpt><trkpt lat="44.33334315978123" lon="11.185546607958129"><ele>153.33333333333334</ele><time>2026-04-28T13:37:06.915Z</time></trkpt><trkpt lat="44.333268474295366" lon="11.185730112783247"><ele>153.66666666666669</ele><time>2026-04-28T13:37:07.915Z</time></trkpt><trkpt lat="44.33319248519179" lon="11.185913792153679"><ele>154.0</ele><time>2026-04-28T13:37:08.913Z</time></trkpt><trkpt lat="44.333114088528845" lon="11.186094392970563"><ele>153.25</ele><time>2026-04-28T13:37:09.913Z</time></trkpt><trkpt lat="44.3330474276439" lon="11.186281724067895"><ele>152.5</ele><time>2026-04-28T13:37:10.913Z</time></trkpt><trkpt lat="44.332971399690415" lon="11.186460402913374"><ele>151.75</ele><time>2026-04-28T13:37:11.913Z</time></trkpt><trkpt lat="44.332894598264694" lon="11.186636704304023"><ele>151.0</ele><time>2026-04-28T13:37:12.913Z</time></trkpt><trkpt lat="44.33282295969518" lon="11.186795246096755"><ele>150.5</ele><time>2026-04-28T13:37:13.913Z</time></trkpt><trkpt lat="44.33275036077445" lon="11.186965828335849"><ele>150.0</ele><time>2026-04-28T13:37:14.912Z</time></trkpt><trkpt lat="44.3326936356229" lon="11.187105849451264"><ele>149.5</ele><time>2026-04-28T13:37:15.913Z</time></trkpt><trkpt lat="44.33264284562996" lon="11.187230823166962"><ele>149.0</ele><time>2026-04-28T13:37:16.913Z</time></trkpt><trkpt lat="44.33259952928058" lon="11.187341837415582"><ele>148.6</ele><time>2026-04-28T13:37:17.912Z</time></trkpt><trkpt lat="44.33255300727519" lon="11.18745898068471"><ele>148.2</ele><time>2026-04-28T13:37:19.912Z</time></trkpt><trkpt lat="44.33249418365662" lon="11.187565494261097"><ele>147.79999999999998</ele><time>2026-04-28T13:37:23.913Z</time></trkpt><trkpt lat="44.33257013471835" lon="11.187696902084042"><ele>147.4</ele><time>2026-04-28T13:37:24.913Z</time></trkpt><trkpt lat="44.332611664794996" lon="11.187775517479048"><ele>147.0</ele><time>2026-04-28T13:37:25.913Z</time></trkpt><trkpt lat="44.33264418148712" lon="11.187864615554133"><ele>147.0</ele><time>2026-04-28T13:37:26.913Z</time></trkpt><trkpt lat="44.3326767279942" lon="11.187955490156982"><ele>147.0</ele><time>2026-04-28T13:37:27.913Z</time></trkpt><trkpt lat="44.33270143485642" lon="11.188039143108027"><ele>147.0</ele><time>2026-04-28T13:37:28.913Z</time></trkpt><trkpt lat="44.332745702368655" lon="11.188166687054284"><ele>147.0</ele><time>2026-04-28T13:37:30.913Z</time></trkpt><trkpt lat="44.332780743763045" lon="11.188250071348557"><ele>147.0</ele><time>2026-04-28T13:37:32.913Z</time></trkpt><trkpt lat="44.33282544453148" lon="11.18842430217223"><ele>147.0</ele><time>2026-04-28T13:38:06.913Z</time></trkpt><trkpt lat="44.332871698521195" lon="11.188567531449042"><ele>146.79999999999998</ele><time>2026-04-28T13:38:08.913Z</time></trkpt><trkpt lat="44.33290518027663" lon="11.188671387607322"><ele>146.6</ele><time>2026-04-28T13:38:09.913Z</time></trkpt><trkpt lat="44.332943331515715" lon="11.188789727954944"><ele>146.39999999999998</ele><time>2026-04-28T13:38:10.913Z</time></trkpt><trkpt lat="44.33298752104216" lon="11.188926798270733"><ele>146.2</ele><time>2026-04-28T13:38:11.913Z</time></trkpt><trkpt lat="44.333035383331406" lon="11.189075261722193"><ele>146.0</ele><time>2026-04-28T13:38:12.913Z</time></trkpt><trkpt lat="44.333103252055714" lon="11.189213215251309"><ele>145.75</ele><time>2026-04-28T13:38:13.913Z</time></trkpt><trkpt lat="44.33315146637564" lon="11.189379977187125"><ele>145.5</ele><time>2026-04-28T13:38:14.913Z</time></trkpt><trkpt lat="44.33320596504993" lon="11.189554220171221"><ele>145.25</ele><time>2026-04-28T13:38:15.913Z</time></trkpt><trkpt lat="44.333265004389894" lon="11.189729091181198"><ele>145.0</ele><time>2026-04-28T13:38:16.913Z</time></trkpt><trkpt lat="44.33332686175374" lon="11.189918649415793"><ele>144.33333333333334</ele><time>2026-04-28T13:38:17.913Z</time></trkpt><trkpt lat="44.33338500311533" lon="11.190113645379409"><ele>143.66666666666666</ele><time>2026-04-28T13:38:18.913Z</time></trkpt><trkpt lat="44.333447805223" lon="11.190306742298304"><ele>143.0</ele><time>2026-04-28T13:38:19.913Z</time></trkpt><trkpt lat="44.33351524079918" lon="11.190506335614115"><ele>142.33333333333331</ele><time>2026-04-28T13:38:20.913Z</time></trkpt><trkpt lat="44.3335815212822" lon="11.19070292554553"><ele>141.66666666666666</ele><time>2026-04-28T13:38:21.913Z</time></trkpt><trkpt lat="44.33364833488893" lon="11.190913147864089"><ele>141.0</ele><time>2026-04-28T13:38:22.913Z</time></trkpt><trkpt lat="44.333720619750146" lon="11.191131420162433"><ele>141.0</ele><time>2026-04-28T13:38:23.913Z</time></trkpt><trkpt lat="44.33379179983117" lon="11.191360648425823"><ele>141.0</ele><time>2026-04-28T13:38:24.913Z</time></trkpt><trkpt lat="44.333867636861406" lon="11.19158527619804"><ele>141.0</ele><time>2026-04-28T13:38:25.913Z</time></trkpt><trkpt lat="44.33393910159405" lon="11.19182127224497"><ele>141.33333333333334</ele><time>2026-04-28T13:38:26.913Z</time></trkpt><trkpt lat="44.33401063866661" lon="11.192053549757125"><ele>141.66666666666669</ele><time>2026-04-28T13:38:27.913Z</time></trkpt><trkpt lat="44.334082581133686" lon="11.192285890627533"><ele>142.0</ele><time>2026-04-28T13:38:28.913Z</time></trkpt><trkpt lat="44.33414307589488" lon="11.192534124572052"><ele>142.0</ele><time>2026-04-28T13:38:29.913Z</time></trkpt><trkpt lat="44.33420287660892" lon="11.19278136579895"><ele>142.0</ele><time>2026-04-28T13:38:30.913Z</time></trkpt><trkpt lat="44.33426582626045" lon="11.193028850101278"><ele>142.0</ele><time>2026-04-28T13:38:31.913Z</time></trkpt><trkpt lat="44.33432807473728" lon="11.193279700289061"><ele>141.33333333333334</ele><time>2026-04-28T13:38:32.913Z</time></trkpt><trkpt lat="44.33438786701873" lon="11.193529677162285"><ele>140.66666666666666</ele><time>2026-04-28T13:38:33.913Z</time></trkpt><trkpt lat="44.33444517314737" lon="11.193780095686101"><ele>140.0</ele><time>2026-04-28T13:38:34.913Z</time></trkpt><trkpt lat="44.33450729389008" lon="11.194033518508682"><ele>139.66666666666666</ele><time>2026-04-28T13:38:35.913Z</time></trkpt><trkpt lat="44.33457226383403" lon="11.194291436857736"><ele>139.33333333333334</ele><time>2026-04-28T13:38:36.913Z</time></trkpt><trkpt lat="44.334636749677955" lon="11.194549700077113"><ele>139.0</ele><time>2026-04-28T13:38:37.913Z</time></trkpt><trkpt lat="44.33470099320261" lon="11.194810905264118"><ele>144.0</ele><time>2026-04-28T13:38:38.913Z</time></trkpt><trkpt lat="44.33477008406132" lon="11.19507556969997"><ele>149.0</ele><time>2026-04-28T13:38:39.913Z</time></trkpt><trkpt lat="44.334840809371876" lon="11.195342504861141"><ele>154.0</ele><time>2026-04-28T13:38:40.913Z</time></trkpt><trkpt lat="44.33490845868001" lon="11.195618955357764"><ele>152.33333333333334</ele><time>2026-04-28T13:38:41.913Z</time></trkpt><trkpt lat="44.33498186070477" lon="11.195896537408238"><ele>150.66666666666666</ele><time>2026-04-28T13:38:42.913Z</time></trkpt><trkpt lat="44.335043734236145" lon="11.196167582176956"><ele>149.0</ele><time>2026-04-28T13:38:43.913Z</time></trkpt><trkpt lat="44.3351033902223" lon="11.196435286809162"><ele>147.66666666666666</ele><time>2026-04-28T13:38:44.913Z</time></trkpt><trkpt lat="44.33516272716514" lon="11.19668953945219"><ele>146.33333333333334</ele><time>2026-04-28T13:38:45.913Z</time></trkpt><trkpt lat="44.33522414436071" lon="11.196922079054643"><ele>145.0</ele><time>2026-04-28T13:38:46.913Z</time></trkpt><trkpt lat="44.33527879810167" lon="11.19713449023309"><ele>144.0</ele><time>2026-04-28T13:38:47.913Z</time></trkpt><trkpt lat="44.33533054677712" lon="11.197345089337459"><ele>143.0</ele><time>2026-04-28T13:38:48.913Z</time></trkpt><trkpt lat="44.335374076647106" lon="11.197534061789765"><ele>142.0</ele><time>2026-04-28T13:38:49.913Z</time></trkpt><trkpt lat="44.33541115401039" lon="11.197706714720745"><ele>141.0</ele><time>2026-04-28T13:38:50.913Z</time></trkpt><trkpt lat="44.33543920653045" lon="11.197882325735545"><ele>141.0</ele><time>2026-04-28T13:38:51.913Z</time></trkpt><trkpt lat="44.33544974030308" lon="11.198061435849967"><ele>141.0</ele><time>2026-04-28T13:38:52.912Z</time></trkpt><trkpt lat="44.33543452387112" lon="11.198260944116889"><ele>141.0</ele><time>2026-04-28T13:38:53.912Z</time></trkpt><trkpt lat="44.335400599963656" lon="11.19847835852665"><ele>141.0</ele><time>2026-04-28T13:38:54.912Z</time></trkpt><trkpt lat="44.33535726512314" lon="11.198703213778831"><ele>141.0</ele><time>2026-04-28T13:38:55.912Z</time></trkpt><trkpt lat="44.335311804037445" lon="11.198935675986856"><ele>141.0</ele><time>2026-04-28T13:38:56.912Z</time></trkpt><trkpt lat="44.33527028831952" lon="11.199153206176254"><ele>141.0</ele><time>2026-04-28T13:38:57.912Z</time></trkpt><trkpt lat="44.335232469830856" lon="11.19936477803546"><ele>142.75</ele><time>2026-04-28T13:38:58.912Z</time></trkpt><trkpt lat="44.33519988964557" lon="11.199561948457289"><ele>144.5</ele><time>2026-04-28T13:38:59.912Z</time></trkpt><trkpt lat="44.335177223487534" lon="11.199738371206717"><ele>146.25</ele><time>2026-04-28T13:39:00.912Z</time></trkpt><trkpt lat="44.33516107166415" lon="11.199906689273638"><ele>148.0</ele><time>2026-04-28T13:39:01.912Z</time></trkpt><trkpt lat="44.33517080179244" lon="11.200082315346739"><ele>149.25</ele><time>2026-04-28T13:39:02.912Z</time></trkpt><trkpt lat="44.33520281131468" lon="11.20026055249827"><ele>150.5</ele><time>2026-04-28T13:39:03.912Z</time></trkpt><trkpt lat="44.33525751449388" lon="11.200439493981596"><ele>151.75</ele><time>2026-04-28T13:39:04.912Z</time></trkpt><trkpt lat="44.33533489143872" lon="11.200602473361464"><ele>153.0</ele><time>2026-04-28T13:39:05.912Z</time></trkpt><trkpt lat="44.33544079350919" lon="11.20074585288719"><ele>157.66666666666666</ele><time>2026-04-28T13:39:06.912Z</time></trkpt><trkpt lat="44.3355822324341" lon="11.200885393324302"><ele>162.33333333333331</ele><time>2026-04-28T13:39:07.912Z</time></trkpt><trkpt lat="44.335729048196626" lon="11.20102135875282"><ele>167.0</ele><time>2026-04-28T13:39:08.912Z</time></trkpt><trkpt lat="44.335884152390776" lon="11.201145347597544"><ele>167.0</ele><time>2026-04-28T13:39:09.912Z</time></trkpt><trkpt lat="44.336045900010376" lon="11.201292743395685"><ele>167.0</ele><time>2026-04-28T13:39:10.912Z</time></trkpt><trkpt lat="44.33620571260416" lon="11.201440209570805"><ele>167.0</ele><time>2026-04-28T13:39:11.912Z</time></trkpt><trkpt lat="44.33634559821626" lon="11.201583376476993"><ele>165.66666666666666</ele><time>2026-04-28T13:39:12.912Z</time></trkpt><trkpt lat="44.33648242316935" lon="11.20171531193793"><ele>164.33333333333334</ele><time>2026-04-28T13:39:13.912Z</time></trkpt><trkpt lat="44.336609008994344" lon="11.201835204145494"><ele>163.0</ele><time>2026-04-28T13:39:14.911Z</time></trkpt><trkpt lat="44.336726934916975" lon="11.201943194815163"><ele>163.0</ele><time>2026-04-28T13:39:15.91Z</time></trkpt><trkpt lat="44.336826118109386" lon="11.202064834978774"><ele>163.0</ele><time>2026-04-28T13:39:16.91Z</time></trkpt><trkpt lat="44.3369016448301" lon="11.2022118759982"><ele>163.0</ele><time>2026-04-28T13:39:17.91Z</time></trkpt><trkpt lat="44.33695025114133" lon="11.202390629003702"><ele>163.0</ele><time>2026-04-28T13:39:18.91Z</time></trkpt><trkpt lat="44.33696762886655" lon="11.202574332164135"><ele>161.75</ele><time>2026-04-28T13:39:19.91Z</time></trkpt><trkpt lat="44.336981490731844" lon="11.202749079080851"><ele>160.5</ele><time>2026-04-28T13:39:20.911Z</time></trkpt><trkpt lat="44.33702383461419" lon="11.202901324991114"><ele>159.25</ele><time>2026-04-28T13:39:21.91Z</time></trkpt><trkpt lat="44.33709093751484" lon="11.203038009600455"><ele>158.0</ele><time>2026-04-28T13:39:22.91Z</time></trkpt><trkpt lat="44.33718695711267" lon="11.203163710077575"><ele>157.0</ele><time>2026-04-28T13:39:23.911Z</time></trkpt><trkpt lat="44.337300065521916" lon="11.203259014047845"><ele>156.0</ele><time>2026-04-28T13:39:24.91Z</time></trkpt><trkpt lat="44.337429846952325" lon="11.203326681428667"><ele>155.0</ele><time>2026-04-28T13:39:25.91Z</time></trkpt><trkpt lat="44.33758395146466" lon="11.203360225426437"><ele>154.0</ele><time>2026-04-28T13:39:26.91Z</time></trkpt><trkpt lat="44.33774494286307" lon="11.20338398967643"><ele>154.0</ele><time>2026-04-28T13:39:27.911Z</time></trkpt><trkpt lat="44.337899711154535" lon="11.203367838124201"><ele>154.0</ele><time>2026-04-28T13:39:28.911Z</time></trkpt><trkpt lat="44.33804696344076" lon="11.203319848858312"><ele>154.0</ele><time>2026-04-28T13:39:29.911Z</time></trkpt><trkpt lat="44.33819595619994" lon="11.203250047367831"><ele>155.5</ele><time>2026-04-28T13:39:30.911Z</time></trkpt><trkpt lat="44.33833085877842" lon="11.203195471485524"><ele>157.0</ele><time>2026-04-28T13:39:31.911Z</time></trkpt><trkpt lat="44.33845757829142" lon="11.203144375085367"><ele>158.5</ele><time>2026-04-28T13:39:32.911Z</time></trkpt><trkpt lat="44.338584119786816" lon="11.20310537039016"><ele>160.0</ele><time>2026-04-28T13:39:33.911Z</time></trkpt><trkpt lat="44.33870201980955" lon="11.203060253911298"><ele>160.0</ele><time>2026-04-28T13:39:34.911Z</time></trkpt><trkpt lat="44.338824128201175" lon="11.203015544786208"><ele>160.0</ele><time>2026-04-28T13:39:35.911Z</time></trkpt><trkpt lat="44.33893807554916" lon="11.202986146907744"><ele>160.0</ele><time>2026-04-28T13:39:36.911Z</time></trkpt><trkpt lat="44.339053614369895" lon="11.202961225205243"><ele>160.0</ele><time>2026-04-28T13:39:37.911Z</time></trkpt><trkpt lat="44.33917365693976" lon="11.202939614139586"><ele>159.5</ele><time>2026-04-28T13:39:38.911Z</time></trkpt><trkpt lat="44.33929603523265" lon="11.202924638527604"><ele>159.0</ele><time>2026-04-28T13:39:39.911Z</time></trkpt><trkpt lat="44.33941820734408" lon="11.202915256444369"><ele>158.5</ele><time>2026-04-28T13:39:40.911Z</time></trkpt><trkpt lat="44.33953964849554" lon="11.202912812245772"><ele>158.0</ele><time>2026-04-28T13:39:41.911Z</time></trkpt><trkpt lat="44.33966336033348" lon="11.20290408140656"><ele>156.0</ele><time>2026-04-28T13:39:42.911Z</time></trkpt><trkpt lat="44.339777590054545" lon="11.202905780955906"><ele>154.0</ele><time>2026-04-28T13:39:43.911Z</time></trkpt><trkpt lat="44.339896041832596" lon="11.202910756036374"><ele>152.0</ele><time>2026-04-28T13:39:44.911Z</time></trkpt><trkpt lat="44.3400102198057" lon="11.202919166046819"><ele>150.0</ele><time>2026-04-28T13:39:45.911Z</time></trkpt><trkpt lat="44.340129776482" lon="11.20293780747041"><ele>150.0</ele><time>2026-04-28T13:39:46.911Z</time></trkpt><trkpt lat="44.340253968258736" lon="11.202964466481385"><ele>150.0</ele><time>2026-04-28T13:39:47.911Z</time></trkpt><trkpt lat="44.34036725673778" lon="11.203010439973793"><ele>150.0</ele><time>2026-04-28T13:39:48.911Z</time></trkpt><trkpt lat="44.3404758954239" lon="11.203078858183185"><ele>150.0</ele><time>2026-04-28T13:39:49.911Z</time></trkpt><trkpt lat="44.34058221799281" lon="11.203163661387196"><ele>146.0</ele><time>2026-04-28T13:39:50.911Z</time></trkpt><trkpt lat="44.340677919132546" lon="11.203264727649183"><ele>142.0</ele><time>2026-04-28T13:39:51.911Z</time></trkpt><trkpt lat="44.34077690552734" lon="11.203378492477597"><ele>138.0</ele><time>2026-04-28T13:39:52.911Z</time></trkpt><trkpt lat="44.340858610415324" lon="11.203495834434015"><ele>134.0</ele><time>2026-04-28T13:39:53.911Z</time></trkpt><trkpt lat="44.340936542391574" lon="11.203609846906453"><ele>134.0</ele><time>2026-04-28T13:39:54.911Z</time></trkpt><trkpt lat="44.34101893516895" lon="11.203713656694603"><ele>134.0</ele><time>2026-04-28T13:39:55.911Z</time></trkpt><trkpt lat="44.34109203147646" lon="11.20382278726656"><ele>134.0</ele><time>2026-04-28T13:39:56.911Z</time></trkpt><trkpt lat="44.34116729905488" lon="11.20392371219224"><ele>134.0</ele><time>2026-04-28T13:39:57.911Z</time></trkpt><trkpt lat="44.34124713716453" lon="11.204034350495565"><ele>134.0</ele><time>2026-04-28T13:39:58.911Z</time></trkpt><trkpt lat="44.34132278783202" lon="11.204146743763426"><ele>134.4</ele><time>2026-04-28T13:39:59.911Z</time></trkpt><trkpt lat="44.34140471542443" lon="11.204254215440503"><ele>134.8</ele><time>2026-04-28T13:40:00.911Z</time></trkpt><trkpt lat="44.341482211833274" lon="11.204358361936174"><ele>135.2</ele><time>2026-04-28T13:40:01.911Z</time></trkpt><trkpt lat="44.34156251969697" lon="11.204460885893814"><ele>135.6</ele><time>2026-04-28T13:40:02.911Z</time></trkpt><trkpt lat="44.341641549101354" lon="11.204564792679259"><ele>136.0</ele><time>2026-04-28T13:40:03.911Z</time></trkpt><trkpt lat="44.34172824510905" lon="11.204670243352846"><ele>136.0</ele><time>2026-04-28T13:40:04.911Z</time></trkpt><trkpt lat="44.341818234699026" lon="11.204792427748002"><ele>136.0</ele><time>2026-04-28T13:40:05.911Z</time></trkpt><trkpt lat="44.34191735626913" lon="11.20492692298726"><ele>136.0</ele><time>2026-04-28T13:40:06.911Z</time></trkpt><trkpt lat="44.342023921114496" lon="11.205066517274505"><ele>136.0</ele><time>2026-04-28T13:40:07.911Z</time></trkpt><trkpt lat="44.34213085316607" lon="11.205224782078407"><ele>137.33333333333334</ele><time>2026-04-28T13:40:08.911Z</time></trkpt><trkpt lat="44.34224481497763" lon="11.205400706554105"><ele>138.66666666666666</ele><time>2026-04-28T13:40:09.911Z</time></trkpt><trkpt lat="44.34237645138098" lon="11.205579350608131"><ele>140.0</ele><time>2026-04-28T13:40:10.911Z</time></trkpt><trkpt lat="44.34251697326546" lon="11.205765217925546"><ele>136.66666666666666</ele><time>2026-04-28T13:40:11.911Z</time></trkpt><trkpt lat="44.34265265902435" lon="11.205961259098379"><ele>133.33333333333334</ele><time>2026-04-28T13:40:12.911Z</time></trkpt><trkpt lat="44.3427846534156" lon="11.206132340934733"><ele>130.0</ele><time>2026-04-28T13:40:13.911Z</time></trkpt><trkpt lat="44.34291405279844" lon="11.206306044236666"><ele>130.0</ele><time>2026-04-28T13:40:14.911Z</time></trkpt><trkpt lat="44.34303445625913" lon="11.20646636431175"><ele>130.0</ele><time>2026-04-28T13:40:15.911Z</time></trkpt><trkpt lat="44.343144708482704" lon="11.20661145033836"><ele>130.0</ele><time>2026-04-28T13:40:16.911Z</time></trkpt><trkpt lat="44.34324845555866" lon="11.206722943452025"><ele>130.0</ele><time>2026-04-28T13:40:17.911Z</time></trkpt><trkpt lat="44.34336522751518" lon="11.206807076900397"><ele>131.25</ele><time>2026-04-28T13:40:18.911Z</time></trkpt><trkpt lat="44.34350319123607" lon="11.206846624242214"><ele>132.5</ele><time>2026-04-28T13:40:19.911Z</time></trkpt><trkpt lat="44.34364884978806" lon="11.206844255937288"><ele>133.75</ele><time>2026-04-28T13:40:20.911Z</time></trkpt><trkpt lat="44.34380771809296" lon="11.206803554403525"><ele>135.0</ele><time>2026-04-28T13:40:21.911Z</time></trkpt><trkpt lat="44.34398154991006" lon="11.206738714911344"><ele>139.0</ele><time>2026-04-28T13:40:22.911Z</time></trkpt><trkpt lat="44.34415334106243" lon="11.206673603875892"><ele>143.0</ele><time>2026-04-28T13:40:23.911Z</time></trkpt><trkpt lat="44.34431452492795" lon="11.20661736636062"><ele>147.0</ele><time>2026-04-28T13:40:24.911Z</time></trkpt><trkpt lat="44.34446857851542" lon="11.206528474696555"><ele>146.5</ele><time>2026-04-28T13:40:25.911Z</time></trkpt><trkpt lat="44.34460670200047" lon="11.206452156785558"><ele>146.0</ele><time>2026-04-28T13:40:26.911Z</time></trkpt><trkpt lat="44.344727837248634" lon="11.206362772103262"><ele>145.5</ele><time>2026-04-28T13:40:27.911Z</time></trkpt><trkpt lat="44.34483289903521" lon="11.20624087974815"><ele>145.0</ele><time>2026-04-28T13:40:28.911Z</time></trkpt><trkpt lat="44.344929774378656" lon="11.20608453347576"><ele>145.0</ele><time>2026-04-28T13:40:29.911Z</time></trkpt><trkpt lat="44.34502470110383" lon="11.205889597112959"><ele>145.0</ele><time>2026-04-28T13:40:30.911Z</time></trkpt><trkpt lat="44.34508820543892" lon="11.205684058436345"><ele>145.0</ele><time>2026-04-28T13:40:31.911Z</time></trkpt><trkpt lat="44.345144472633024" lon="11.20549894276031"><ele>147.0</ele><time>2026-04-28T13:40:32.911Z</time></trkpt><trkpt lat="44.34519653743422" lon="11.205326153744462"><ele>149.0</ele><time>2026-04-28T13:40:33.911Z</time></trkpt><trkpt lat="44.34526467869253" lon="11.205164937086794"><ele>151.0</ele><time>2026-04-28T13:40:34.911Z</time></trkpt><trkpt lat="44.345338636328094" lon="11.20501722726306"><ele>153.0</ele><time>2026-04-28T13:40:35.911Z</time></trkpt><trkpt lat="44.34542032474484" lon="11.204895607359308"><ele>150.0</ele><time>2026-04-28T13:40:36.911Z</time></trkpt><trkpt lat="44.34551876411779" lon="11.204785332189875"><ele>147.0</ele><time>2026-04-28T13:40:37.91Z</time></trkpt><trkpt lat="44.345643126829756" lon="11.204712020652746"><ele>144.0</ele><time>2026-04-28T13:40:38.91Z</time></trkpt><trkpt lat="44.345783369982186" lon="11.204688114997875"><ele>141.0</ele><time>2026-04-28T13:40:39.91Z</time></trkpt><trkpt lat="44.3459306067087" lon="11.204718155932547"><ele>141.0</ele><time>2026-04-28T13:40:40.91Z</time></trkpt><trkpt lat="44.3460802144407" lon="11.204786965716886"><ele>141.0</ele><time>2026-04-28T13:40:41.91Z</time></trkpt><trkpt lat="44.34622959268114" lon="11.20488654439129"><ele>141.0</ele><time>2026-04-28T13:40:42.91Z</time></trkpt><trkpt lat="44.346373449864195" lon="11.204981586982514"><ele>140.25</ele><time>2026-04-28T13:40:43.91Z</time></trkpt><trkpt lat="44.34650691148297" lon="11.205060707491704"><ele>139.5</ele><time>2026-04-28T13:40:44.91Z</time></trkpt><trkpt lat="44.34665085253498" lon="11.205115365222401"><ele>138.75</ele><time>2026-04-28T13:40:45.91Z</time></trkpt><trkpt lat="44.34680473373097" lon="11.205131530324339"><ele>138.0</ele><time>2026-04-28T13:40:46.91Z</time></trkpt><trkpt lat="44.34698010263905" lon="11.205115439258872"><ele>138.0</ele><time>2026-04-28T13:40:47.91Z</time></trkpt><trkpt lat="44.34715660437854" lon="11.205072456969592"><ele>138.0</ele><time>2026-04-28T13:40:48.91Z</time></trkpt><trkpt lat="44.34732524453092" lon="11.205032098778313"><ele>138.0</ele><time>2026-04-28T13:40:49.91Z</time></trkpt><trkpt lat="44.3474969082668" lon="11.205013534303285"><ele>139.33333333333334</ele><time>2026-04-28T13:40:50.91Z</time></trkpt><trkpt lat="44.347673048558015" lon="11.205030183000655"><ele>140.66666666666669</ele><time>2026-04-28T13:40:51.91Z</time></trkpt><trkpt lat="44.34786518168743" lon="11.205074145627972"><ele>142.0</ele><time>2026-04-28T13:40:52.91Z</time></trkpt><trkpt lat="44.34804308861922" lon="11.205142851213207"><ele>142.66666666666669</ele><time>2026-04-28T13:40:53.91Z</time></trkpt><trkpt lat="44.348223573437146" lon="11.205220702701775"><ele>143.33333333333334</ele><time>2026-04-28T13:40:54.91Z</time></trkpt><trkpt lat="44.3484150298992" lon="11.205317858767874"><ele>144.0</ele><time>2026-04-28T13:40:55.91Z</time></trkpt><trkpt lat="44.348611233226755" lon="11.205425055685353"><ele>144.0</ele><time>2026-04-28T13:40:56.91Z</time></trkpt><trkpt lat="44.34881517788277" lon="11.205531126954822"><ele>144.0</ele><time>2026-04-28T13:40:57.91Z</time></trkpt><trkpt lat="44.34902977526725" lon="11.205624534562848"><ele>144.0</ele><time>2026-04-28T13:40:58.91Z</time></trkpt><trkpt lat="44.34925242061717" lon="11.205708776143076"><ele>138.5</ele><time>2026-04-28T13:40:59.91Z</time></trkpt><trkpt lat="44.34948146348084" lon="11.205799783695241"><ele>133.0</ele><time>2026-04-28T13:41:00.91Z</time></trkpt><trkpt lat="44.3496874740514" lon="11.20587328568563"><ele>134.66666666666669</ele><time>2026-04-28T13:41:01.91Z</time></trkpt><trkpt lat="44.349882655742284" lon="11.20594896076478"><ele>136.33333333333334</ele><time>2026-04-28T13:41:02.91Z</time></trkpt><trkpt lat="44.35007303756363" lon="11.206003791839004"><ele>138.0</ele><time>2026-04-28T13:41:03.91Z</time></trkpt><trkpt lat="44.35026384307093" lon="11.206038551856231"><ele>138.0</ele><time>2026-04-28T13:41:04.91Z</time></trkpt><trkpt lat="44.35046393418987" lon="11.206051430608786"><ele>138.0</ele><time>2026-04-28T13:41:05.91Z</time></trkpt><trkpt lat="44.35068376412555" lon="11.206034887808311"><ele>138.0</ele><time>2026-04-28T13:41:06.91Z</time></trkpt><trkpt lat="44.35089934555402" lon="11.205995477548015"><ele>139.33333333333334</ele><time>2026-04-28T13:41:07.91Z</time></trkpt><trkpt lat="44.351096996741894" lon="11.205956713090915"><ele>140.66666666666669</ele><time>2026-04-28T13:41:08.91Z</time></trkpt><trkpt lat="44.3512853229169" lon="11.205927116319794"><ele>142.0</ele><time>2026-04-28T13:41:09.91Z</time></trkpt><trkpt lat="44.351469121578575" lon="11.20590045993809"><ele>143.33333333333334</ele><time>2026-04-28T13:41:10.91Z</time></trkpt><trkpt lat="44.35165873753661" lon="11.205890906059365"><ele>144.66666666666666</ele><time>2026-04-28T13:41:11.91Z</time></trkpt><trkpt lat="44.35185078889283" lon="11.205905134997371"><ele>146.0</ele><time>2026-04-28T13:41:12.91Z</time></trkpt><trkpt lat="44.3520575130842" lon="11.205934554548705"><ele>145.66666666666666</ele><time>2026-04-28T13:41:13.91Z</time></trkpt><trkpt lat="44.35226434879821" lon="11.205978414137174"><ele>145.33333333333334</ele><time>2026-04-28T13:41:14.91Z</time></trkpt><trkpt lat="44.352456470796575" lon="11.206018701429981"><ele>145.0</ele><time>2026-04-28T13:41:15.91Z</time></trkpt><trkpt lat="44.35265487762341" lon="11.206050450802008"><ele>145.0</ele><time>2026-04-28T13:41:16.91Z</time></trkpt><trkpt lat="44.35285139873851" lon="11.206064431086713"><ele>145.0</ele><time>2026-04-28T13:41:17.91Z</time></trkpt><trkpt lat="44.3530254916427" lon="11.206093630016898"><ele>145.0</ele><time>2026-04-28T13:41:18.91Z</time></trkpt><trkpt lat="44.353185194409775" lon="11.206119752400562"><ele>147.33333333333334</ele><time>2026-04-28T13:41:19.91Z</time></trkpt><trkpt lat="44.35335172237656" lon="11.206155870431626"><ele>149.66666666666666</ele><time>2026-04-28T13:41:20.908Z</time></trkpt><trkpt lat="44.35350902876896" lon="11.206195395572196"><ele>152.0</ele><time>2026-04-28T13:41:21.908Z</time></trkpt><trkpt lat="44.35366376439386" lon="11.206250714017017"><ele>152.0</ele><time>2026-04-28T13:41:22.908Z</time></trkpt><trkpt lat="44.35382611766353" lon="11.20629523504288"><ele>152.0</ele><time>2026-04-28T13:41:23.908Z</time></trkpt><trkpt lat="44.3539856680069" lon="11.206345419303904"><ele>152.0</ele><time>2026-04-28T13:41:24.908Z</time></trkpt><trkpt lat="44.3541425022051" lon="11.206383055406032"><ele>153.33333333333331</ele><time>2026-04-28T13:41:25.908Z</time></trkpt><trkpt lat="44.35429808606506" lon="11.206413691389624"><ele>154.66666666666666</ele><time>2026-04-28T13:41:26.908Z</time></trkpt><trkpt lat="44.35445690107964" lon="11.206440475884335"><ele>156.0</ele><time>2026-04-28T13:41:27.908Z</time></trkpt><trkpt lat="44.35461625819213" lon="11.206462274058314"><ele>156.0</ele><time>2026-04-28T13:41:28.908Z</time></trkpt><trkpt lat="44.35476785194987" lon="11.20648825641647"><ele>156.0</ele><time>2026-04-28T13:41:29.908Z</time></trkpt><trkpt lat="44.35490882902105" lon="11.20650456723443"><ele>156.0</ele><time>2026-04-28T13:41:30.907Z</time></trkpt><trkpt lat="44.35504501334424" lon="11.206511760375786"><ele>156.0</ele><time>2026-04-28T13:41:31.907Z</time></trkpt><trkpt lat="44.355172656871495" lon="11.206531184395114"><ele>151.5</ele><time>2026-04-28T13:41:32.908Z</time></trkpt><trkpt lat="44.3553129880633" lon="11.206556411555173"><ele>147.0</ele><time>2026-04-28T13:41:33.908Z</time></trkpt><trkpt lat="44.355442173962636" lon="11.206582625409522"><ele>142.5</ele><time>2026-04-28T13:41:34.908Z</time></trkpt><trkpt lat="44.35556972180553" lon="11.206636283293824"><ele>138.0</ele><time>2026-04-28T13:41:35.908Z</time></trkpt><trkpt lat="44.35568165455764" lon="11.206716402880122"><ele>137.33333333333334</ele><time>2026-04-28T13:41:36.908Z</time></trkpt><trkpt lat="44.355794072725466" lon="11.206835508199623"><ele>136.66666666666669</ele><time>2026-04-28T13:41:37.908Z</time></trkpt><trkpt lat="44.35590032564448" lon="11.206975820325125"><ele>136.0</ele><time>2026-04-28T13:41:38.908Z</time></trkpt><trkpt lat="44.35602208304217" lon="11.207127512273678"><ele>136.0</ele><time>2026-04-28T13:41:39.908Z</time></trkpt><trkpt lat="44.35613533331749" lon="11.207280861374166"><ele>136.0</ele><time>2026-04-28T13:41:40.908Z</time></trkpt><trkpt lat="44.356285634334874" lon="11.207418886414356"><ele>136.0</ele><time>2026-04-28T13:41:41.908Z</time></trkpt><trkpt lat="44.35641685716386" lon="11.207549387692303"><ele>136.0</ele><time>2026-04-28T13:41:42.908Z</time></trkpt><trkpt lat="44.35652033534019" lon="11.207691377024402"><ele>136.0</ele><time>2026-04-28T13:41:43.908Z</time></trkpt><trkpt lat="44.35661462235818" lon="11.20780838355168"><ele>136.0</ele><time>2026-04-28T13:41:44.908Z</time></trkpt><trkpt lat="44.35667327387918" lon="11.207917219919421"><ele>136.0</ele><time>2026-04-28T13:41:45.908Z</time></trkpt><trkpt lat="44.35672133616554" lon="11.208012621930774"><ele>136.0</ele><time>2026-04-28T13:41:46.908Z</time></trkpt><trkpt lat="44.35677173314728" lon="11.208099474552727"><ele>136.0</ele><time>2026-04-28T13:41:47.908Z</time></trkpt><trkpt lat="44.35682523633606" lon="11.208190174033296"><ele>136.0</ele><time>2026-04-28T13:41:48.908Z</time></trkpt><trkpt lat="44.356878659443325" lon="11.208288617170309"><ele>136.0</ele><time>2026-04-28T13:41:49.908Z</time></trkpt><trkpt lat="44.35692726202108" lon="11.208374340844282"><ele>136.0</ele><time>2026-04-28T13:41:50.908Z</time></trkpt><trkpt lat="44.35697713723031" lon="11.208438658267337"><ele>136.0</ele><time>2026-04-28T13:41:51.908Z</time></trkpt><trkpt lat="44.35702688870682" lon="11.208500743601238"><ele>135.33333333333334</ele><time>2026-04-28T13:41:52.908Z</time></trkpt><trkpt lat="44.35707547982681" lon="11.208559672446365"><ele>134.66666666666669</ele><time>2026-04-28T13:41:53.908Z</time></trkpt><trkpt lat="44.35716457115104" lon="11.208622148128859"><ele>134.0</ele><time>2026-04-28T13:41:55.908Z</time></trkpt><trkpt lat="44.35727314570079" lon="11.20865480002598"><ele>133.33333333333334</ele><time>2026-04-28T13:41:57.908Z</time></trkpt><trkpt lat="44.357345357435534" lon="11.208662361246322"><ele>132.66666666666666</ele><time>2026-04-28T13:41:58.908Z</time></trkpt><trkpt lat="44.35743235832788" lon="11.208654849398993"><ele>132.0</ele><time>2026-04-28T13:41:59.908Z</time></trkpt><trkpt lat="44.357514598241714" lon="11.208625728114516"><ele>132.0</ele><time>2026-04-28T13:42:00.908Z</time></trkpt><trkpt lat="44.35758262475164" lon="11.208581400801297"><ele>132.0</ele><time>2026-04-28T13:42:01.908Z</time></trkpt><trkpt lat="44.357644672961825" lon="11.208529384733831"><ele>132.0</ele><time>2026-04-28T13:42:02.908Z</time></trkpt><trkpt lat="44.35770895638406" lon="11.20847828437742"><ele>132.0</ele><time>2026-04-28T13:42:03.908Z</time></trkpt><trkpt lat="44.35777137032352" lon="11.208410310770914"><ele>132.0</ele><time>2026-04-28T13:42:04.908Z</time></trkpt><trkpt lat="44.35782650089522" lon="11.208341634797572"><ele>132.0</ele><time>2026-04-28T13:42:05.908Z</time></trkpt><trkpt lat="44.35787840489032" lon="11.208272493234883"><ele>132.0</ele><time>2026-04-28T13:42:06.908Z</time></trkpt><trkpt lat="44.357922373506106" lon="11.208207427164513"><ele>131.71428571428572</ele><time>2026-04-28T13:42:07.908Z</time></trkpt><trkpt lat="44.35796930568075" lon="11.208138973359231"><ele>131.42857142857144</ele><time>2026-04-28T13:42:08.908Z</time></trkpt><trkpt lat="44.35801790963966" lon="11.208062377354658"><ele>131.14285714285717</ele><time>2026-04-28T13:42:09.908Z</time></trkpt><trkpt lat="44.35807211220921" lon="11.207978469210907"><ele>130.85714285714286</ele><time>2026-04-28T13:42:10.908Z</time></trkpt><trkpt lat="44.358124271235496" lon="11.207897010941522"><ele>130.57142857142858</ele><time>2026-04-28T13:42:11.908Z</time></trkpt><trkpt lat="44.35817500487588" lon="11.207821490161571"><ele>130.2857142857143</ele><time>2026-04-28T13:42:12.908Z</time></trkpt><trkpt lat="44.35822228146831" lon="11.207743269408532"><ele>130.0</ele><time>2026-04-28T13:42:13.908Z</time></trkpt><trkpt lat="44.35826805071534" lon="11.207669249893733"><ele>130.0</ele><time>2026-04-28T13:42:14.908Z</time></trkpt><trkpt lat="44.35832412339632" lon="11.20757837302449"><ele>130.0</ele><time>2026-04-28T13:42:15.908Z</time></trkpt><trkpt lat="44.35837731500948" lon="11.207492014460529"><ele>130.0</ele><time>2026-04-28T13:42:16.908Z</time></trkpt><trkpt lat="44.35842794728899" lon="11.207417258494809"><ele>130.0</ele><time>2026-04-28T13:42:17.908Z</time></trkpt><trkpt lat="44.358481405042376" lon="11.207340620347226"><ele>130.0</ele><time>2026-04-28T13:42:18.908Z</time></trkpt><trkpt lat="44.358521972147855" lon="11.207270324048535"><ele>130.0</ele><time>2026-04-28T13:42:19.908Z</time></trkpt><trkpt lat="44.358569973885515" lon="11.207194925646855"><ele>126.4</ele><time>2026-04-28T13:42:20.908Z</time></trkpt><trkpt lat="44.35861268551766" lon="11.20712610197645"><ele>122.8</ele><time>2026-04-28T13:42:21.908Z</time></trkpt><trkpt lat="44.35865798737618" lon="11.207055630496997"><ele>119.19999999999999</ele><time>2026-04-28T13:42:22.908Z</time></trkpt><trkpt lat="44.35873523780615" lon="11.206937317343138"><ele>115.6</ele><time>2026-04-28T13:42:24.908Z</time></trkpt><trkpt lat="44.358802400952854" lon="11.206835653459184"><ele>112.0</ele><time>2026-04-28T13:42:26.907Z</time></trkpt><trkpt lat="44.3588881415309" lon="11.206700679745959"><ele>112.00000000000001</ele><time>2026-04-28T13:42:28.907Z</time></trkpt><trkpt lat="44.35893577979058" lon="11.206627198094736"><ele>112.0</ele><time>2026-04-28T13:42:29.907Z</time></trkpt><trkpt lat="44.35898242520621" lon="11.206550492202789"><ele>112.0</ele><time>2026-04-28T13:42:30.907Z</time></trkpt><trkpt lat="44.35903200057653" lon="11.206475696509518"><ele>112.0</ele><time>2026-04-28T13:42:31.907Z</time></trkpt><trkpt lat="44.35908381707171" lon="11.206409308874255"><ele>112.00000000000001</ele><time>2026-04-28T13:42:32.907Z</time></trkpt><trkpt lat="44.35915295171478" lon="11.206338785476659"><ele>112.0</ele><time>2026-04-28T13:42:33.907Z</time></trkpt><trkpt lat="44.35921413523146" lon="11.206264962568493"><ele>115.66666666666667</ele><time>2026-04-28T13:42:34.907Z</time></trkpt><trkpt lat="44.359267187560754" lon="11.206195424132764"><ele>119.33333333333334</ele><time>2026-04-28T13:42:35.907Z</time></trkpt><trkpt lat="44.35932985687673" lon="11.206117327692326"><ele>123.0</ele><time>2026-04-28T13:42:36.907Z</time></trkpt><trkpt lat="44.359392902675026" lon="11.206034671142952"><ele>126.66666666666666</ele><time>2026-04-28T13:42:37.907Z</time></trkpt><trkpt lat="44.35945331107897" lon="11.20595272989993"><ele>130.33333333333331</ele><time>2026-04-28T13:42:38.907Z</time></trkpt><trkpt lat="44.35951464170186" lon="11.205877987300681"><ele>134.0</ele><time>2026-04-28T13:42:39.907Z</time></trkpt><trkpt lat="44.35957504774912" lon="11.205805096662095"><ele>134.0</ele><time>2026-04-28T13:42:40.907Z</time></trkpt><trkpt lat="44.35963550520468" lon="11.205732739258549"><ele>134.0</ele><time>2026-04-28T13:42:41.907Z</time></trkpt><trkpt lat="44.35969740021115" lon="11.205659995452324"><ele>134.0</ele><time>2026-04-28T13:42:42.907Z</time></trkpt><trkpt lat="44.3597599456351" lon="11.205591198769817"><ele>134.0</ele><time>2026-04-28T13:42:43.907Z</time></trkpt><trkpt lat="44.35981959489307" lon="11.205526337828852"><ele>134.0</ele><time>2026-04-28T13:42:44.907Z</time></trkpt><trkpt lat="44.35987759893602" lon="11.205465640028667"><ele>134.0</ele><time>2026-04-28T13:42:45.907Z</time></trkpt><trkpt lat="44.35994244768547" lon="11.205400684886785"><ele>133.83333333333331</ele><time>2026-04-28T13:42:46.907Z</time></trkpt><trkpt lat="44.360008792056036" lon="11.20533082670509"><ele>133.66666666666666</ele><time>2026-04-28T13:42:47.907Z</time></trkpt><trkpt lat="44.36007783568606" lon="11.205269465389026"><ele>133.5</ele><time>2026-04-28T13:42:48.907Z</time></trkpt><trkpt lat="44.36014686853374" lon="11.205210909711578"><ele>133.33333333333334</ele><time>2026-04-28T13:42:49.907Z</time></trkpt><trkpt lat="44.360215216634714" lon="11.205161504983723"><ele>133.16666666666669</ele><time>2026-04-28T13:42:50.907Z</time></trkpt><trkpt lat="44.36027872662393" lon="11.205122116099501"><ele>133.0</ele><time>2026-04-28T13:42:51.907Z</time></trkpt><trkpt lat="44.36034046438724" lon="11.205094231316036"><ele>133.0</ele><time>2026-04-28T13:42:52.907Z</time></trkpt><trkpt lat="44.36045823040318" lon="11.205055172684478"><ele>133.0</ele><time>2026-04-28T13:42:54.907Z</time></trkpt><trkpt lat="44.36056456655732" lon="11.205009068118034"><ele>133.0</ele><time>2026-04-28T13:42:56.907Z</time></trkpt><trkpt lat="44.360688477932044" lon="11.204965697520576"><ele>133.0</ele><time>2026-04-28T13:42:58.907Z</time></trkpt><trkpt lat="44.36076167262797" lon="11.204934614532908"><ele>133.0</ele><time>2026-04-28T13:42:59.907Z</time></trkpt><trkpt lat="44.36083877942255" lon="11.204905810186917"><ele>134.83333333333334</ele><time>2026-04-28T13:43:00.907Z</time></trkpt><trkpt lat="44.36091697171366" lon="11.20487601150424"><ele>136.66666666666669</ele><time>2026-04-28T13:43:01.907Z</time></trkpt><trkpt lat="44.36099870791954" lon="11.20484539343648"><ele>138.5</ele><time>2026-04-28T13:43:02.907Z</time></trkpt><trkpt lat="44.36107982484" lon="11.204815167652008"><ele>140.33333333333334</ele><time>2026-04-28T13:43:03.907Z</time></trkpt><trkpt lat="44.36116080560302" lon="11.204786704000155"><ele>142.16666666666666</ele><time>2026-04-28T13:43:04.907Z</time></trkpt><trkpt lat="44.36123940434697" lon="11.20475721917568"><ele>144.0</ele><time>2026-04-28T13:43:05.907Z</time></trkpt><trkpt lat="44.36132218446687" lon="11.204728545275144"><ele>142.0</ele><time>2026-04-28T13:43:06.907Z</time></trkpt><trkpt lat="44.36141418721222" lon="11.20469386173023"><ele>140.0</ele><time>2026-04-28T13:43:07.907Z</time></trkpt><trkpt lat="44.36150978532717" lon="11.204662600303903"><ele>138.0</ele><time>2026-04-28T13:43:08.907Z</time></trkpt><trkpt lat="44.36159735819075" lon="11.204630005226937"><ele>136.0</ele><time>2026-04-28T13:43:09.907Z</time></trkpt><trkpt lat="44.36169029272533" lon="11.204605600459283"><ele>134.0</ele><time>2026-04-28T13:43:10.907Z</time></trkpt><trkpt lat="44.361785775488826" lon="11.204593270149605"><ele>134.0</ele><time>2026-04-28T13:43:11.907Z</time></trkpt><trkpt lat="44.36189263024341" lon="11.2045953964674"><ele>134.0</ele><time>2026-04-28T13:43:12.907Z</time></trkpt><trkpt lat="44.362001356363066" lon="11.204597724172714"><ele>134.0</ele><time>2026-04-28T13:43:13.907Z</time></trkpt><trkpt lat="44.36210177868689" lon="11.204618818978005"><ele>134.0</ele><time>2026-04-28T13:43:14.907Z</time></trkpt><trkpt lat="44.36218547617271" lon="11.204671140356611"><ele>134.0</ele><time>2026-04-28T13:43:15.907Z</time></trkpt><trkpt lat="44.362272727458226" lon="11.204731542850356"><ele>134.75</ele><time>2026-04-28T13:43:16.907Z</time></trkpt><trkpt lat="44.36236495388004" lon="11.204817547536805"><ele>135.5</ele><time>2026-04-28T13:43:17.907Z</time></trkpt><trkpt lat="44.36246133885781" lon="11.204911421202024"><ele>136.25</ele><time>2026-04-28T13:43:18.907Z</time></trkpt><trkpt lat="44.36255601469388" lon="11.205024242533499"><ele>137.0</ele><time>2026-04-28T13:43:19.907Z</time></trkpt><trkpt lat="44.3626471243924" lon="11.205152456660553"><ele>132.5</ele><time>2026-04-28T13:43:20.907Z</time></trkpt><trkpt lat="44.362724312420696" lon="11.205295846205502"><ele>128.0</ele><time>2026-04-28T13:43:21.907Z</time></trkpt><trkpt lat="44.362784601112445" lon="11.205447480902608"><ele>123.5</ele><time>2026-04-28T13:43:22.907Z</time></trkpt><trkpt lat="44.36282987673743" lon="11.205588611700502"><ele>119.0</ele><time>2026-04-28T13:43:23.907Z</time></trkpt><trkpt lat="44.36287320786589" lon="11.205732633402253"><ele>118.0</ele><time>2026-04-28T13:43:24.907Z</time></trkpt><trkpt lat="44.362905509899214" lon="11.205859042243326"><ele>117.0</ele><time>2026-04-28T13:43:25.907Z</time></trkpt><trkpt lat="44.36294651497616" lon="11.20598154732408"><ele>116.0</ele><time>2026-04-28T13:43:26.906Z</time></trkpt><trkpt lat="44.36298085843887" lon="11.206112294776892"><ele>115.0</ele><time>2026-04-28T13:43:27.906Z</time></trkpt><trkpt lat="44.363022654197245" lon="11.206241808382236"><ele>114.0</ele><time>2026-04-28T13:43:28.906Z</time></trkpt><trkpt lat="44.36306873144197" lon="11.206367971646284"><ele>116.2</ele><time>2026-04-28T13:43:29.906Z</time></trkpt><trkpt lat="44.363122897592355" lon="11.206490839368918"><ele>118.4</ele><time>2026-04-28T13:43:30.906Z</time></trkpt><trkpt lat="44.363184892594944" lon="11.206610770996432"><ele>120.6</ele><time>2026-04-28T13:43:31.906Z</time></trkpt><trkpt lat="44.363247616334355" lon="11.206727508039961"><ele>122.8</ele><time>2026-04-28T13:43:32.906Z</time></trkpt><trkpt lat="44.36331104115351" lon="11.206846378246363"><ele>125.0</ele><time>2026-04-28T13:43:33.906Z</time></trkpt><trkpt lat="44.36337181071411" lon="11.206968201085473"><ele>125.0</ele><time>2026-04-28T13:43:34.906Z</time></trkpt><trkpt lat="44.36344183362694" lon="11.20709109864979"><ele>125.0</ele><time>2026-04-28T13:43:35.906Z</time></trkpt><trkpt lat="44.363505503890615" lon="11.20721869377487"><ele>125.0</ele><time>2026-04-28T13:43:36.906Z</time></trkpt><trkpt lat="44.363565498623274" lon="11.207333125710633"><ele>125.0</ele><time>2026-04-28T13:43:37.906Z</time></trkpt><trkpt lat="44.3636211318312" lon="11.207446064167708"><ele>125.0</ele><time>2026-04-28T13:43:38.906Z</time></trkpt><trkpt lat="44.36368260916852" lon="11.20755403209586"><ele>122.25</ele><time>2026-04-28T13:43:39.905Z</time></trkpt><trkpt lat="44.363743720341446" lon="11.207679195205799"><ele>119.5</ele><time>2026-04-28T13:43:40.905Z</time></trkpt><trkpt lat="44.36379716838945" lon="11.207820739856936"><ele>116.75</ele><time>2026-04-28T13:43:41.905Z</time></trkpt><trkpt lat="44.36385733409803" lon="11.207977585428276"><ele>114.0</ele><time>2026-04-28T13:43:42.905Z</time></trkpt><trkpt lat="44.36391823476363" lon="11.208131149665986"><ele>117.0</ele><time>2026-04-28T13:43:43.905Z</time></trkpt><trkpt lat="44.3639840876483" lon="11.208294959305048"><ele>120.0</ele><time>2026-04-28T13:43:44.905Z</time></trkpt><trkpt lat="44.36405312524812" lon="11.208459450048741"><ele>123.0</ele><time>2026-04-28T13:43:45.905Z</time></trkpt><trkpt lat="44.36412928813296" lon="11.208629640143439"><ele>126.0</ele><time>2026-04-28T13:43:46.905Z</time></trkpt><trkpt lat="44.364204442121974" lon="11.208783556320654"><ele>126.0</ele><time>2026-04-28T13:43:47.905Z</time></trkpt><trkpt lat="44.36427156861495" lon="11.208930793538865"><ele>126.0</ele><time>2026-04-28T13:43:48.905Z</time></trkpt><trkpt lat="44.364345439367455" lon="11.209074995265363"><ele>126.0</ele><time>2026-04-28T13:43:49.905Z</time></trkpt><trkpt lat="44.36442444459422" lon="11.20922049721067"><ele>126.0</ele><time>2026-04-28T13:43:50.905Z</time></trkpt><trkpt lat="44.36450485749076" lon="11.209359996168095"><ele>125.0</ele><time>2026-04-28T13:43:51.905Z</time></trkpt><trkpt lat="44.3645863362933" lon="11.209491695883655"><ele>124.0</ele><time>2026-04-28T13:43:52.905Z</time></trkpt><trkpt lat="44.36466443339081" lon="11.209627956796558"><ele>123.0</ele><time>2026-04-28T13:43:53.905Z</time></trkpt><trkpt lat="44.364735336153" lon="11.209762972314632"><ele>122.0</ele><time>2026-04-28T13:43:54.905Z</time></trkpt><trkpt lat="44.3647967686813" lon="11.209920725838836"><ele>122.0</ele><time>2026-04-28T13:43:55.905Z</time></trkpt><trkpt lat="44.3648575959019" lon="11.210073116145729"><ele>122.0</ele><time>2026-04-28T13:43:56.905Z</time></trkpt><trkpt lat="44.36491339531611" lon="11.210217341639199"><ele>122.0</ele><time>2026-04-28T13:43:57.905Z</time></trkpt><trkpt lat="44.36497129249506" lon="11.210360064038897"><ele>122.0</ele><time>2026-04-28T13:43:58.905Z</time></trkpt><trkpt lat="44.365024712456204" lon="11.210506357653117"><ele>120.0</ele><time>2026-04-28T13:43:59.905Z</time></trkpt><trkpt lat="44.365079585355396" lon="11.210661822579542"><ele>118.0</ele><time>2026-04-28T13:44:00.905Z</time></trkpt><trkpt lat="44.365135051241985" lon="11.210823746010217"><ele>116.0</ele><time>2026-04-28T13:44:01.905Z</time></trkpt><trkpt lat="44.365195799288045" lon="11.210989931335"><ele>114.0</ele><time>2026-04-28T13:44:02.905Z</time></trkpt><trkpt lat="44.36525526171524" lon="11.211159960353532"><ele>114.0</ele><time>2026-04-28T13:44:03.905Z</time></trkpt><trkpt lat="44.36531076924246" lon="11.211321831982927"><ele>114.0</ele><time>2026-04-28T13:44:04.905Z</time></trkpt><trkpt lat="44.3653689183392" lon="11.211484480197164"><ele>114.0</ele><time>2026-04-28T13:44:05.905Z</time></trkpt><trkpt lat="44.36542155987508" lon="11.211648359038204"><ele>114.0</ele><time>2026-04-28T13:44:06.905Z</time></trkpt><trkpt lat="44.36547856692499" lon="11.211816594229937"><ele>118.75</ele><time>2026-04-28T13:44:07.905Z</time></trkpt><trkpt lat="44.365530784207415" lon="11.211989304864156"><ele>123.5</ele><time>2026-04-28T13:44:08.905Z</time></trkpt><trkpt lat="44.365574538932165" lon="11.212137713838594"><ele>128.25</ele><time>2026-04-28T13:44:09.905Z</time></trkpt><trkpt lat="44.36561876348586" lon="11.212277988679155"><ele>133.0</ele><time>2026-04-28T13:44:10.905Z</time></trkpt><trkpt lat="44.36566582528525" lon="11.212418302754964"><ele>133.0</ele><time>2026-04-28T13:44:11.905Z</time></trkpt><trkpt lat="44.36570716143365" lon="11.212558077340539"><ele>133.0</ele><time>2026-04-28T13:44:12.905Z</time></trkpt><trkpt lat="44.36575465308217" lon="11.212692969582003"><ele>133.0</ele><time>2026-04-28T13:44:13.905Z</time></trkpt><trkpt lat="44.36580750721935" lon="11.21282526228537"><ele>133.0</ele><time>2026-04-28T13:44:14.905Z</time></trkpt><trkpt lat="44.36586931861688" lon="11.212963548238358"><ele>133.0</ele><time>2026-04-28T13:44:15.905Z</time></trkpt><trkpt lat="44.36593477033246" lon="11.213086275297139"><ele>130.25</ele><time>2026-04-28T13:44:16.905Z</time></trkpt><trkpt lat="44.3660083009679" lon="11.21321779185131"><ele>127.5</ele><time>2026-04-28T13:44:17.905Z</time></trkpt><trkpt lat="44.36609214564106" lon="11.213339723807563"><ele>124.75</ele><time>2026-04-28T13:44:18.905Z</time></trkpt><trkpt lat="44.36618457440146" lon="11.213454404587432"><ele>122.0</ele><time>2026-04-28T13:44:19.905Z</time></trkpt><trkpt lat="44.36627796454267" lon="11.213547931447629"><ele>124.5</ele><time>2026-04-28T13:44:20.905Z</time></trkpt><trkpt lat="44.366376740332036" lon="11.213634835305786"><ele>127.0</ele><time>2026-04-28T13:44:21.905Z</time></trkpt><trkpt lat="44.366482448322714" lon="11.213703637177877"><ele>129.5</ele><time>2026-04-28T13:44:22.905Z</time></trkpt><trkpt lat="44.36658226158154" lon="11.213764800611884"><ele>132.0</ele><time>2026-04-28T13:44:23.905Z</time></trkpt><trkpt lat="44.366686372000245" lon="11.213812183166299"><ele>132.0</ele><time>2026-04-28T13:44:24.905Z</time></trkpt><trkpt lat="44.36679884917598" lon="11.213851746893573"><ele>132.0</ele><time>2026-04-28T13:44:25.905Z</time></trkpt><trkpt lat="44.366909033537" lon="11.213881159520422"><ele>132.0</ele><time>2026-04-28T13:44:26.905Z</time></trkpt><trkpt lat="44.36701476351427" lon="11.213903425754744"><ele>132.0</ele><time>2026-04-28T13:44:27.905Z</time></trkpt><trkpt lat="44.367129786858754" lon="11.21392419481528"><ele>132.6</ele><time>2026-04-28T13:44:28.905Z</time></trkpt><trkpt lat="44.367238264659896" lon="11.213939953216828"><ele>133.2</ele><time>2026-04-28T13:44:29.905Z</time></trkpt><trkpt lat="44.367346676684576" lon="11.213960978971881"><ele>133.8</ele><time>2026-04-28T13:44:30.905Z</time></trkpt><trkpt lat="44.36745762524945" lon="11.213990313502363"><ele>134.4</ele><time>2026-04-28T13:44:31.905Z</time></trkpt><trkpt lat="44.36756254939419" lon="11.2140297193935"><ele>135.0</ele><time>2026-04-28T13:44:32.905Z</time></trkpt><trkpt lat="44.36766095386304" lon="11.21407376656859"><ele>134.0</ele><time>2026-04-28T13:44:33.905Z</time></trkpt><trkpt lat="44.36775592093967" lon="11.214118277661052"><ele>133.0</ele><time>2026-04-28T13:44:34.905Z</time></trkpt><trkpt lat="44.36785182702025" lon="11.21416956066901"><ele>132.0</ele><time>2026-04-28T13:44:35.905Z</time></trkpt><trkpt lat="44.367949205422484" lon="11.214227048001655"><ele>131.0</ele><time>2026-04-28T13:44:36.905Z</time></trkpt><trkpt lat="44.368037745847346" lon="11.214283417492359"><ele>130.0</ele><time>2026-04-28T13:44:37.905Z</time></trkpt><trkpt lat="44.36811802774685" lon="11.214351094080733"><ele>130.0</ele><time>2026-04-28T13:44:38.905Z</time></trkpt><trkpt lat="44.368194967141804" lon="11.214427202541293"><ele>130.0</ele><time>2026-04-28T13:44:39.905Z</time></trkpt><trkpt lat="44.36827377856588" lon="11.214508413275324"><ele>130.0</ele><time>2026-04-28T13:44:40.905Z</time></trkpt><trkpt lat="44.368356843210016" lon="11.214591528077749"><ele>130.0</ele><time>2026-04-28T13:44:41.905Z</time></trkpt><trkpt lat="44.3684289660687" lon="11.214679376751066"><ele>130.0</ele><time>2026-04-28T13:44:42.905Z</time></trkpt><trkpt lat="44.36850298871488" lon="11.214766572769467"><ele>126.75</ele><time>2026-04-28T13:44:43.905Z</time></trkpt><trkpt lat="44.36857946180413" lon="11.214857023351966"><ele>123.5</ele><time>2026-04-28T13:44:44.905Z</time></trkpt><trkpt lat="44.368653675162946" lon="11.214961122403551"><ele>120.25</ele><time>2026-04-28T13:44:45.905Z</time></trkpt><trkpt lat="44.36873263026436" lon="11.215080788884412"><ele>117.0</ele><time>2026-04-28T13:44:46.905Z</time></trkpt><trkpt lat="44.368829873130736" lon="11.215213987779013"><ele>119.0</ele><time>2026-04-28T13:44:47.905Z</time></trkpt><trkpt lat="44.368934666005025" lon="11.215367702209651"><ele>121.0</ele><time>2026-04-28T13:44:48.905Z</time></trkpt><trkpt lat="44.36904696970632" lon="11.2155362215092"><ele>123.0</ele><time>2026-04-28T13:44:49.905Z</time></trkpt><trkpt lat="44.36915948371254" lon="11.21570551306609"><ele>123.0</ele><time>2026-04-28T13:44:50.905Z</time></trkpt><trkpt lat="44.36926455851313" lon="11.215868292514118"><ele>123.0</ele><time>2026-04-28T13:44:51.905Z</time></trkpt><trkpt lat="44.369365408154" lon="11.216014443578315"><ele>123.0</ele><time>2026-04-28T13:44:52.905Z</time></trkpt><trkpt lat="44.36945921993111" lon="11.216140234418653"><ele>123.0</ele><time>2026-04-28T13:44:53.905Z</time></trkpt><trkpt lat="44.369545206096824" lon="11.216258776097881"><ele>123.0</ele><time>2026-04-28T13:44:54.905Z</time></trkpt><trkpt lat="44.369629996215785" lon="11.216374711107134"><ele>123.0</ele><time>2026-04-28T13:44:55.905Z</time></trkpt><trkpt lat="44.369712827020805" lon="11.216493662825272"><ele>123.0</ele><time>2026-04-28T13:44:56.905Z</time></trkpt><trkpt lat="44.36979072814935" lon="11.2166086478281"><ele>123.0</ele><time>2026-04-28T13:44:57.905Z</time></trkpt><trkpt lat="44.369870084533986" lon="11.216715235612458"><ele>125.0</ele><time>2026-04-28T13:44:58.905Z</time></trkpt><trkpt lat="44.369945101081406" lon="11.216811483949364"><ele>127.00000000000001</ele><time>2026-04-28T13:44:59.905Z</time></trkpt><trkpt lat="44.37001509794669" lon="11.216904954845436"><ele>129.0</ele><time>2026-04-28T13:45:00.905Z</time></trkpt><trkpt lat="44.37008478840933" lon="11.216996123829945"><ele>131.0</ele><time>2026-04-28T13:45:01.905Z</time></trkpt><trkpt lat="44.37014707791195" lon="11.217078246149853"><ele>133.0</ele><time>2026-04-28T13:45:02.905Z</time></trkpt><trkpt lat="44.37020234036837" lon="11.217149038369158"><ele>133.0</ele><time>2026-04-28T13:45:03.905Z</time></trkpt><trkpt lat="44.37025165203594" lon="11.217211842462719"><ele>133.0</ele><time>2026-04-28T13:45:04.905Z</time></trkpt><trkpt lat="44.37029514520453" lon="11.217284356622962"><ele>133.0</ele><time>2026-04-28T13:45:05.905Z</time></trkpt><trkpt lat="44.37033736431498" lon="11.217371877613385"><ele>133.0</ele><time>2026-04-28T13:45:06.905Z</time></trkpt><trkpt lat="44.370377422600264" lon="11.21748136209974"><ele>133.0</ele><time>2026-04-28T13:45:07.905Z</time></trkpt><trkpt lat="44.37041213745158" lon="11.217597421784475"><ele>133.0</ele><time>2026-04-28T13:45:08.905Z</time></trkpt><trkpt lat="44.370424451877234" lon="11.21772983004729"><ele>130.4</ele><time>2026-04-28T13:45:09.905Z</time></trkpt><trkpt lat="44.37044352475044" lon="11.217870543685816"><ele>127.80000000000001</ele><time>2026-04-28T13:45:10.905Z</time></trkpt><trkpt lat="44.37045702459962" lon="11.21800380438336"><ele>125.2</ele><time>2026-04-28T13:45:11.905Z</time></trkpt><trkpt lat="44.37047724469849" lon="11.218147449998645"><ele>122.6</ele><time>2026-04-28T13:45:12.905Z</time></trkpt><trkpt lat="44.370497403596524" lon="11.2182989873277"><ele>120.0</ele><time>2026-04-28T13:45:13.905Z</time></trkpt><trkpt lat="44.37051363338353" lon="11.21844762300187"><ele>121.0</ele><time>2026-04-28T13:45:14.905Z</time></trkpt><trkpt lat="44.37053300482362" lon="11.21859614976337"><ele>122.0</ele><time>2026-04-28T13:45:15.905Z</time></trkpt><trkpt lat="44.3705530701551" lon="11.21874931215387"><ele>123.0</ele><time>2026-04-28T13:45:16.905Z</time></trkpt><trkpt lat="44.37057197105679" lon="11.218898835061175"><ele>124.0</ele><time>2026-04-28T13:45:17.905Z</time></trkpt><trkpt lat="44.370594769885905" lon="11.219050550286545"><ele>125.0</ele><time>2026-04-28T13:45:18.905Z</time></trkpt><trkpt lat="44.37061415913335" lon="11.219201308635753"><ele>125.0</ele><time>2026-04-28T13:45:19.905Z</time></trkpt><trkpt lat="44.37063811578807" lon="11.219360556207889"><ele>125.0</ele><time>2026-04-28T13:45:20.905Z</time></trkpt><trkpt lat="44.3706664220772" lon="11.219519204810462"><ele>125.0</ele><time>2026-04-28T13:45:21.905Z</time></trkpt><trkpt lat="44.3707070036615" lon="11.219667905730764"><ele>125.0</ele><time>2026-04-28T13:45:22.905Z</time></trkpt><trkpt lat="44.37075614273521" lon="11.219822983455376"><ele>123.0</ele><time>2026-04-28T13:45:23.905Z</time></trkpt><trkpt lat="44.37081160082005" lon="11.219968675537954"><ele>121.0</ele><time>2026-04-28T13:45:24.905Z</time></trkpt><trkpt lat="44.37087116897228" lon="11.220107599633533"><ele>119.0</ele><time>2026-04-28T13:45:25.905Z</time></trkpt><trkpt lat="44.37093742379934" lon="11.220254969783808"><ele>117.0</ele><time>2026-04-28T13:45:26.905Z</time></trkpt><trkpt lat="44.371025370324276" lon="11.220409846498242"><ele>117.0</ele><time>2026-04-28T13:45:27.905Z</time></trkpt><trkpt lat="44.37111038940572" lon="11.220563850431038"><ele>117.0</ele><time>2026-04-28T13:45:28.905Z</time></trkpt><trkpt lat="44.37119335890773" lon="11.220708532807903"><ele>117.0</ele><time>2026-04-28T13:45:29.905Z</time></trkpt><trkpt lat="44.371279567614145" lon="11.220851083869995"><ele>117.0</ele><time>2026-04-28T13:45:30.905Z</time></trkpt><trkpt lat="44.37136071476863" lon="11.220970525801224"><ele>119.6</ele><time>2026-04-28T13:45:31.905Z</time></trkpt><trkpt lat="44.371431691878165" lon="11.221075248756698"><ele>122.19999999999999</ele><time>2026-04-28T13:45:32.904Z</time></trkpt><trkpt lat="44.37150029818835" lon="11.221171104791553"><ele>124.8</ele><time>2026-04-28T13:45:33.904Z</time></trkpt><trkpt lat="44.371557914637364" lon="11.221261938604574"><ele>127.4</ele><time>2026-04-28T13:45:34.904Z</time></trkpt><trkpt lat="44.371618986182376" lon="11.221362926484062"><ele>130.0</ele><time>2026-04-28T13:45:35.904Z</time></trkpt><trkpt lat="44.37167111216851" lon="11.221440664965103"><ele>127.66666666666667</ele><time>2026-04-28T13:45:36.904Z</time></trkpt><trkpt lat="44.37170935145642" lon="11.22151344178289"><ele>125.33333333333334</ele><time>2026-04-28T13:45:37.904Z</time></trkpt><trkpt lat="44.37175895755778" lon="11.221588566216752"><ele>123.0</ele><time>2026-04-28T13:45:38.903Z</time></trkpt><trkpt lat="44.37182886141618" lon="11.221699337346184"><ele>120.66666666666666</ele><time>2026-04-28T13:45:40.904Z</time></trkpt><trkpt lat="44.371904450435885" lon="11.221826795817563"><ele>118.33333333333333</ele><time>2026-04-28T13:45:42.904Z</time></trkpt><trkpt lat="44.37196678465259" lon="11.221907804533327"><ele>116.0</ele><time>2026-04-28T13:45:43.904Z</time></trkpt><trkpt lat="44.372024590581155" lon="11.22197973204782"><ele>116.0</ele><time>2026-04-28T13:45:44.904Z</time></trkpt><trkpt lat="44.372088937746746" lon="11.222063508269839"><ele>116.0</ele><time>2026-04-28T13:45:45.903Z</time></trkpt><trkpt lat="44.37217030519714" lon="11.222170314062396"><ele>116.0</ele><time>2026-04-28T13:45:46.903Z</time></trkpt><trkpt lat="44.37227645352267" lon="11.222340364106884"><ele>116.0</ele><time>2026-04-28T13:45:47.903Z</time></trkpt><trkpt lat="44.37239330980755" lon="11.222492100111271"><ele>118.66666666666666</ele><time>2026-04-28T13:45:48.903Z</time></trkpt><trkpt lat="44.37252092076438" lon="11.222641061148972"><ele>121.33333333333334</ele><time>2026-04-28T13:45:49.903Z</time></trkpt><trkpt lat="44.37266491774429" lon="11.222804989980215"><ele>124.0</ele><time>2026-04-28T13:45:50.903Z</time></trkpt><trkpt lat="44.3728300515441" lon="11.222968942322792"><ele>124.0</ele><time>2026-04-28T13:45:51.903Z</time></trkpt><trkpt lat="44.3730031617771" lon="11.22313188622923"><ele>124.0</ele><time>2026-04-28T13:45:52.903Z</time></trkpt><trkpt lat="44.37318737057931" lon="11.223307792423528"><ele>124.0</ele><time>2026-04-28T13:45:53.903Z</time></trkpt><trkpt lat="44.37336886115663" lon="11.22348598234792"><ele>124.0</ele><time>2026-04-28T13:45:54.903Z</time></trkpt><trkpt lat="44.37352484445711" lon="11.22367161257873"><ele>124.0</ele><time>2026-04-28T13:45:55.903Z</time></trkpt><trkpt lat="44.373670503793605" lon="11.223887089317934"><ele>124.0</ele><time>2026-04-28T13:45:56.903Z</time></trkpt><trkpt lat="44.373808928241246" lon="11.224079032338372"><ele>123.33333333333334</ele><time>2026-04-28T13:45:57.903Z</time></trkpt><trkpt lat="44.373947849427765" lon="11.22426091729004"><ele>122.66666666666666</ele><time>2026-04-28T13:45:58.903Z</time></trkpt><trkpt lat="44.37407754349568" lon="11.22445126263396"><ele>122.0</ele><time>2026-04-28T13:45:59.903Z</time></trkpt><trkpt lat="44.37420451360034" lon="11.224624226065405"><ele>122.0</ele><time>2026-04-28T13:46:00.903Z</time></trkpt><trkpt lat="44.37435294862781" lon="11.224808779233431"><ele>122.0</ele><time>2026-04-28T13:46:01.903Z</time></trkpt><trkpt lat="44.374514710503654" lon="11.224998426418471"><ele>122.0</ele><time>2026-04-28T13:46:02.903Z</time></trkpt><trkpt lat="44.37468422238089" lon="11.22518541821515"><ele>122.33333333333333</ele><time>2026-04-28T13:46:03.903Z</time></trkpt><trkpt lat="44.3748559009396" lon="11.225356014031421"><ele>122.66666666666666</ele><time>2026-04-28T13:46:04.903Z</time></trkpt><trkpt lat="44.37502464401211" lon="11.22551456576506"><ele>123.0</ele><time>2026-04-28T13:46:05.903Z</time></trkpt><trkpt lat="44.37518939664446" lon="11.225685555196652"><ele>125.33333333333334</ele><time>2026-04-28T13:46:06.903Z</time></trkpt><trkpt lat="44.37534971475501" lon="11.225869803196142"><ele>127.66666666666667</ele><time>2026-04-28T13:46:07.903Z</time></trkpt><trkpt lat="44.375512531171594" lon="11.226070873770468"><ele>130.0</ele><time>2026-04-28T13:46:08.903Z</time></trkpt><trkpt lat="44.3756684440499" lon="11.22628041484227"><ele>123.0</ele><time>2026-04-28T13:46:09.903Z</time></trkpt><trkpt lat="44.375823271214784" lon="11.226512074972216"><ele>116.0</ele><time>2026-04-28T13:46:10.903Z</time></trkpt><trkpt lat="44.37597279058683" lon="11.226749909410996"><ele>116.0</ele><time>2026-04-28T13:46:11.903Z</time></trkpt><trkpt lat="44.37610289653521" lon="11.226995003772162"><ele>116.0</ele><time>2026-04-28T13:46:12.903Z</time></trkpt><trkpt lat="44.37622978906504" lon="11.227232740972866"><ele>116.0</ele><time>2026-04-28T13:46:13.903Z</time></trkpt><trkpt lat="44.376347568118554" lon="11.227490620938658"><ele>117.0</ele><time>2026-04-28T13:46:14.903Z</time></trkpt><trkpt lat="44.376459843530654" lon="11.227755599278106"><ele>118.0</ele><time>2026-04-28T13:46:15.903Z</time></trkpt><trkpt lat="44.376571533846956" lon="11.228031430322167"><ele>119.0</ele><time>2026-04-28T13:46:16.903Z</time></trkpt><trkpt lat="44.37668063163836" lon="11.228317115037799"><ele>119.0</ele><time>2026-04-28T13:46:17.903Z</time></trkpt><trkpt lat="44.376785532526725" lon="11.228602889561204"><ele>119.0</ele><time>2026-04-28T13:46:18.903Z</time></trkpt><trkpt lat="44.37688954729768" lon="11.228870592305247"><ele>119.0</ele><time>2026-04-28T13:46:19.903Z</time></trkpt><trkpt lat="44.376991154133066" lon="11.229124921222118"><ele>116.33333333333333</ele><time>2026-04-28T13:46:20.903Z</time></trkpt><trkpt lat="44.377110532019564" lon="11.229366231252719"><ele>113.66666666666666</ele><time>2026-04-28T13:46:21.903Z</time></trkpt><trkpt lat="44.377238127000886" lon="11.229594980353939"><ele>111.0</ele><time>2026-04-28T13:46:22.903Z</time></trkpt><trkpt lat="44.37737991126665" lon="11.229805282875017"><ele>114.33333333333334</ele><time>2026-04-28T13:46:23.903Z</time></trkpt><trkpt lat="44.3775351053218" lon="11.230005827492455"><ele>117.66666666666667</ele><time>2026-04-28T13:46:24.903Z</time></trkpt><trkpt lat="44.37770752005943" lon="11.230201200877701"><ele>121.0</ele><time>2026-04-28T13:46:25.903Z</time></trkpt><trkpt lat="44.37788590805727" lon="11.230385360359254"><ele>121.33333333333334</ele><time>2026-04-28T13:46:26.903Z</time></trkpt><trkpt lat="44.378058100901484" lon="11.230563545866936"><ele>121.66666666666666</ele><time>2026-04-28T13:46:27.903Z</time></trkpt><trkpt lat="44.37822748928101" lon="11.230738405074344"><ele>122.0</ele><time>2026-04-28T13:46:28.903Z</time></trkpt><trkpt lat="44.3783982856827" lon="11.23091142852789"><ele>122.0</ele><time>2026-04-28T13:46:29.903Z</time></trkpt><trkpt lat="44.37856907338549" lon="11.231065857455567"><ele>122.0</ele><time>2026-04-28T13:46:30.903Z</time></trkpt><trkpt lat="44.378747987639684" lon="11.231213638020344"><ele>122.0</ele><time>2026-04-28T13:46:31.903Z</time></trkpt><trkpt lat="44.37893671022866" lon="11.231366493954123"><ele>122.66666666666666</ele><time>2026-04-28T13:46:32.903Z</time></trkpt><trkpt lat="44.3791314733931" lon="11.231532846060913"><ele>123.33333333333334</ele><time>2026-04-28T13:46:33.903Z</time></trkpt><trkpt lat="44.37931683820993" lon="11.23169944855023"><ele>124.0</ele><time>2026-04-28T13:46:34.903Z</time></trkpt><trkpt lat="44.37949268857858" lon="11.231855049522995"><ele>124.0</ele><time>2026-04-28T13:46:35.903Z</time></trkpt><trkpt lat="44.379666722492665" lon="11.232003493370485"><ele>124.0</ele><time>2026-04-28T13:46:36.903Z</time></trkpt><trkpt lat="44.37984145701214" lon="11.232166041252293"><ele>124.0</ele><time>2026-04-28T13:46:37.903Z</time></trkpt><trkpt lat="44.38001149723376" lon="11.232345172696702"><ele>125.33333333333334</ele><time>2026-04-28T13:46:38.903Z</time></trkpt><trkpt lat="44.38017994537779" lon="11.232532852489863"><ele>126.66666666666666</ele><time>2026-04-28T13:46:39.903Z</time></trkpt><trkpt lat="44.38034600732468" lon="11.232710908385224"><ele>128.0</ele><time>2026-04-28T13:46:40.903Z</time></trkpt><trkpt lat="44.38051526981559" lon="11.232876109324419"><ele>128.66666666666666</ele><time>2026-04-28T13:46:41.903Z</time></trkpt><trkpt lat="44.380678983802525" lon="11.23302817480056"><ele>129.33333333333334</ele><time>2026-04-28T13:46:42.903Z</time></trkpt><trkpt lat="44.38082460297051" lon="11.233181152497846"><ele>130.0</ele><time>2026-04-28T13:46:43.903Z</time></trkpt><trkpt lat="44.380955824144294" lon="11.233319763334306"><ele>130.0</ele><time>2026-04-28T13:46:44.903Z</time></trkpt><trkpt lat="44.38108485213668" lon="11.233454353408359"><ele>130.0</ele><time>2026-04-28T13:46:45.903Z</time></trkpt><trkpt lat="44.38121404392356" lon="11.233574730967167"><ele>130.0</ele><time>2026-04-28T13:46:46.903Z</time></trkpt><trkpt lat="44.38134951378272" lon="11.233704055539857"><ele>130.0</ele><time>2026-04-28T13:46:47.903Z</time></trkpt><trkpt lat="44.38148628885235" lon="11.233845945820743"><ele>130.0</ele><time>2026-04-28T13:46:48.903Z</time></trkpt><trkpt lat="44.38162396439856" lon="11.233991395653694"><ele>130.0</ele><time>2026-04-28T13:46:49.903Z</time></trkpt><trkpt lat="44.38176701083451" lon="11.234145226037604"><ele>128.33333333333334</ele><time>2026-04-28T13:46:50.903Z</time></trkpt><trkpt lat="44.38191100354717" lon="11.234301919699103"><ele>126.66666666666666</ele><time>2026-04-28T13:46:51.903Z</time></trkpt><trkpt lat="44.382051598860855" lon="11.234459081506385"><ele>125.0</ele><time>2026-04-28T13:46:52.903Z</time></trkpt><trkpt lat="44.38219140704991" lon="11.234614104058734"><ele>125.0</ele><time>2026-04-28T13:46:53.903Z</time></trkpt><trkpt lat="44.38233527445124" lon="11.234762838092083"><ele>125.0</ele><time>2026-04-28T13:46:54.903Z</time></trkpt><trkpt lat="44.38247412509989" lon="11.234903821424135"><ele>125.0</ele><time>2026-04-28T13:46:55.903Z</time></trkpt><trkpt lat="44.38261788289543" lon="11.235041822516896"><ele>125.0</ele><time>2026-04-28T13:46:56.903Z</time></trkpt><trkpt lat="44.382762142941495" lon="11.235184048588108"><ele>125.0</ele><time>2026-04-28T13:46:57.903Z</time></trkpt><trkpt lat="44.382898053873426" lon="11.235320020597918"><ele>125.0</ele><time>2026-04-28T13:46:58.903Z</time></trkpt><trkpt lat="44.38302226624553" lon="11.235445799001791"><ele>125.0</ele><time>2026-04-28T13:46:59.903Z</time></trkpt><trkpt lat="44.38315029760939" lon="11.235565975739938"><ele>125.0</ele><time>2026-04-28T13:47:00.903Z</time></trkpt><trkpt lat="44.383277479327326" lon="11.235679792080946"><ele>125.0</ele><time>2026-04-28T13:47:01.903Z</time></trkpt><trkpt lat="44.383413951067084" lon="11.235788056912044"><ele>124.75</ele><time>2026-04-28T13:47:02.903Z</time></trkpt><trkpt lat="44.383546105128175" lon="11.235890714480238"><ele>124.5</ele><time>2026-04-28T13:47:03.903Z</time></trkpt><trkpt lat="44.3836773578372" lon="11.23597831820654"><ele>124.25</ele><time>2026-04-28T13:47:04.903Z</time></trkpt><trkpt lat="44.383807615929776" lon="11.236055774226298"><ele>124.0</ele><time>2026-04-28T13:47:05.903Z</time></trkpt><trkpt lat="44.38394029633265" lon="11.236126647045726"><ele>125.0</ele><time>2026-04-28T13:47:06.903Z</time></trkpt><trkpt lat="44.38408079622299" lon="11.236200458879617"><ele>126.0</ele><time>2026-04-28T13:47:07.903Z</time></trkpt><trkpt lat="44.38422073790362" lon="11.236275988462586"><ele>127.0</ele><time>2026-04-28T13:47:08.903Z</time></trkpt><trkpt lat="44.384360748198766" lon="11.23635731204071"><ele>127.0</ele><time>2026-04-28T13:47:09.903Z</time></trkpt><trkpt lat="44.384495418810495" lon="11.236439364637121"><ele>127.0</ele><time>2026-04-28T13:47:10.903Z</time></trkpt><trkpt lat="44.38461742106124" lon="11.236520807782629"><ele>127.0</ele><time>2026-04-28T13:47:11.903Z</time></trkpt><trkpt lat="44.384733055450276" lon="11.236601405176437"><ele>127.0</ele><time>2026-04-28T13:47:12.903Z</time></trkpt><trkpt lat="44.38484634438946" lon="11.236689087437886"><ele>127.25</ele><time>2026-04-28T13:47:13.903Z</time></trkpt><trkpt lat="44.384958662591025" lon="11.236783725403276"><ele>127.5</ele><time>2026-04-28T13:47:14.903Z</time></trkpt><trkpt lat="44.3850728844601" lon="11.236881691678827"><ele>127.75</ele><time>2026-04-28T13:47:15.903Z</time></trkpt><trkpt lat="44.38518340514673" lon="11.236987037631215"><ele>128.0</ele><time>2026-04-28T13:47:16.903Z</time></trkpt><trkpt lat="44.385286175943804" lon="11.237090904728879"><ele>128.0</ele><time>2026-04-28T13:47:17.903Z</time></trkpt><trkpt lat="44.38538548960488" lon="11.237197662352576"><ele>128.0</ele><time>2026-04-28T13:47:18.903Z</time></trkpt><trkpt lat="44.38548302917965" lon="11.237310870182595"><ele>128.0</ele><time>2026-04-28T13:47:19.903Z</time></trkpt><trkpt lat="44.38558574768687" lon="11.237432436077976"><ele>128.0</ele><time>2026-04-28T13:47:20.903Z</time></trkpt><trkpt lat="44.38568410442914" lon="11.237564855932616"><ele>127.5</ele><time>2026-04-28T13:47:21.903Z</time></trkpt><trkpt lat="44.38577846960111" lon="11.237706831258935"><ele>127.0</ele><time>2026-04-28T13:47:22.903Z</time></trkpt><trkpt lat="44.38586946649973" lon="11.237839598357708"><ele>126.5</ele><time>2026-04-28T13:47:23.903Z</time></trkpt><trkpt lat="44.38595510785772" lon="11.237970247676596"><ele>126.0</ele><time>2026-04-28T13:47:24.903Z</time></trkpt><trkpt lat="44.38604884705703" lon="11.238111301186827"><ele>126.5</ele><time>2026-04-28T13:47:25.903Z</time></trkpt><trkpt lat="44.38613851864781" lon="11.23826371230577"><ele>127.0</ele><time>2026-04-28T13:47:26.903Z</time></trkpt><trkpt lat="44.38623422607929" lon="11.238416738576394"><ele>127.5</ele><time>2026-04-28T13:47:27.903Z</time></trkpt><trkpt lat="44.38632672346732" lon="11.238580412192096"><ele>128.0</ele><time>2026-04-28T13:47:28.903Z</time></trkpt><trkpt lat="44.38643051448273" lon="11.238743704585996"><ele>126.0</ele><time>2026-04-28T13:47:29.903Z</time></trkpt><trkpt lat="44.386630084294836" lon="11.239063582893628"><ele>124.0</ele><time>2026-04-28T13:47:31.903Z</time></trkpt><trkpt lat="44.386725575552894" lon="11.239221011294596"><ele>124.0</ele><time>2026-04-28T13:47:32.903Z</time></trkpt><trkpt lat="44.38681964857029" lon="11.239379718468427"><ele>124.0</ele><time>2026-04-28T13:47:33.903Z</time></trkpt><trkpt lat="44.38690635224543" lon="11.239536387416155"><ele>124.0</ele><time>2026-04-28T13:47:34.903Z</time></trkpt><trkpt lat="44.38699056286504" lon="11.239697889497116"><ele>124.0</ele><time>2026-04-28T13:47:35.903Z</time></trkpt><trkpt lat="44.38706961420899" lon="11.23986848075972"><ele>123.0</ele><time>2026-04-28T13:47:36.903Z</time></trkpt><trkpt lat="44.38714096456869" lon="11.24004477675688"><ele>122.0</ele><time>2026-04-28T13:47:37.903Z</time></trkpt><trkpt lat="44.387202058155886" lon="11.240214570304978"><ele>121.0</ele><time>2026-04-28T13:47:38.902Z</time></trkpt><trkpt lat="44.38725045440029" lon="11.240382420918957"><ele>120.0</ele><time>2026-04-28T13:47:39.901Z</time></trkpt><trkpt lat="44.387298425536954" lon="11.240558596864075"><ele>128.0</ele><time>2026-04-28T13:47:40.901Z</time></trkpt><trkpt lat="44.38734215277933" lon="11.240734152349145"><ele>136.0</ele><time>2026-04-28T13:47:41.901Z</time></trkpt><trkpt lat="44.38737373631729" lon="11.240919806516265"><ele>144.0</ele><time>2026-04-28T13:47:42.902Z</time></trkpt><trkpt lat="44.38740239034752" lon="11.241110635704748"><ele>152.0</ele><time>2026-04-28T13:47:43.902Z</time></trkpt><trkpt lat="44.387428989425466" lon="11.24130008650467"><ele>151.25</ele><time>2026-04-28T13:47:44.901Z</time></trkpt><trkpt lat="44.38745229389192" lon="11.241487306448107"><ele>150.5</ele><time>2026-04-28T13:47:45.901Z</time></trkpt><trkpt lat="44.387474880333414" lon="11.241659756665866"><ele>149.75</ele><time>2026-04-28T13:47:46.901Z</time></trkpt><trkpt lat="44.38750198276042" lon="11.241812737945997"><ele>149.0</ele><time>2026-04-28T13:47:47.901Z</time></trkpt><trkpt lat="44.387511149691555" lon="11.241961789318692"><ele>149.0</ele><time>2026-04-28T13:47:48.901Z</time></trkpt><trkpt lat="44.38752644431409" lon="11.242105896843054"><ele>149.0</ele><time>2026-04-28T13:47:49.901Z</time></trkpt><trkpt lat="44.38752977367016" lon="11.242241814009237"><ele>149.0</ele><time>2026-04-28T13:47:50.901Z</time></trkpt><trkpt lat="44.38753308825009" lon="11.242367974496643"><ele>149.0</ele><time>2026-04-28T13:47:51.901Z</time></trkpt><trkpt lat="44.38754008627146" lon="11.24247764047254"><ele>149.0</ele><time>2026-04-28T13:47:52.901Z</time></trkpt><trkpt lat="44.38756123935358" lon="11.242593208732375"><ele>144.6</ele><time>2026-04-28T13:47:53.901Z</time></trkpt><trkpt lat="44.387596885803234" lon="11.242699159489515"><ele>140.2</ele><time>2026-04-28T13:47:54.901Z</time></trkpt><trkpt lat="44.38765117526373" lon="11.24279736757274"><ele>135.79999999999998</ele><time>2026-04-28T13:47:55.901Z</time></trkpt><trkpt lat="44.38770901100488" lon="11.242895273664903"><ele>131.4</ele><time>2026-04-28T13:47:56.901Z</time></trkpt><trkpt lat="44.387776681394726" lon="11.242984130244698"><ele>127.0</ele><time>2026-04-28T13:47:57.901Z</time></trkpt><trkpt lat="44.38784964990707" lon="11.24307951304529"><ele>123.39999999999999</ele><time>2026-04-28T13:47:58.901Z</time></trkpt><trkpt lat="44.387923807938556" lon="11.24318129747641"><ele>119.79999999999998</ele><time>2026-04-28T13:47:59.901Z</time></trkpt><trkpt lat="44.3880008545629" lon="11.24328825905024"><ele>116.2</ele><time>2026-04-28T13:48:00.901Z</time></trkpt><trkpt lat="44.388079302698" lon="11.243402041609905"><ele>112.6</ele><time>2026-04-28T13:48:01.901Z</time></trkpt><trkpt lat="44.388171868448076" lon="11.243508852859062"><ele>109.0</ele><time>2026-04-28T13:48:02.901Z</time></trkpt><trkpt lat="44.38826495348724" lon="11.24360980690209"><ele>124.25</ele><time>2026-04-28T13:48:03.901Z</time></trkpt><trkpt lat="44.38836400188413" lon="11.243717854340948"><ele>139.5</ele><time>2026-04-28T13:48:04.901Z</time></trkpt><trkpt lat="44.38845877512372" lon="11.243806560071178"><ele>154.75</ele><time>2026-04-28T13:48:05.901Z</time></trkpt><trkpt lat="44.38856922321514" lon="11.243865064544464"><ele>170.0</ele><time>2026-04-28T13:48:06.901Z</time></trkpt><trkpt lat="44.3886624519966" lon="11.243957808844156"><ele>165.0</ele><time>2026-04-28T13:48:07.901Z</time></trkpt><trkpt lat="44.38875884312772" lon="11.244037722237504"><ele>160.0</ele><time>2026-04-28T13:48:08.901Z</time></trkpt><trkpt lat="44.388843475059915" lon="11.244140537301123"><ele>155.0</ele><time>2026-04-28T13:48:09.901Z</time></trkpt><trkpt lat="44.38891569740847" lon="11.244255312047201"><ele>150.0</ele><time>2026-04-28T13:48:10.901Z</time></trkpt><trkpt lat="44.38898981341023" lon="11.2443748956043"><ele>145.0</ele><time>2026-04-28T13:48:11.901Z</time></trkpt><trkpt lat="44.38907196800197" lon="11.244507477633428"><ele>145.0</ele><time>2026-04-28T13:48:12.901Z</time></trkpt><trkpt lat="44.3891442377473" lon="11.244624107384773"><ele>145.0</ele><time>2026-04-28T13:48:13.901Z</time></trkpt><trkpt lat="44.38922718762905" lon="11.244725044616697"><ele>145.0</ele><time>2026-04-28T13:48:14.901Z</time></trkpt><trkpt lat="44.38928867678984" lon="11.24485879477282"><ele>145.0</ele><time>2026-04-28T13:48:15.901Z</time></trkpt><trkpt lat="44.38936776779656" lon="11.244959751515633"><ele>145.0</ele><time>2026-04-28T13:48:16.901Z</time></trkpt><trkpt lat="44.38946207210713" lon="11.245047184553249"><ele>139.25</ele><time>2026-04-28T13:48:17.901Z</time></trkpt><trkpt lat="44.389567010105154" lon="11.245123818776321"><ele>133.5</ele><time>2026-04-28T13:48:18.901Z</time></trkpt><trkpt lat="44.38968325643019" lon="11.245195974010468"><ele>127.75</ele><time>2026-04-28T13:48:19.901Z</time></trkpt><trkpt lat="44.389807145675164" lon="11.245256792152464"><ele>122.0</ele><time>2026-04-28T13:48:20.901Z</time></trkpt><trkpt lat="44.389917646046825" lon="11.245311120848068"><ele>122.0</ele><time>2026-04-28T13:48:21.901Z</time></trkpt><trkpt lat="44.39002092778064" lon="11.245350957630901"><ele>121.99999999999999</ele><time>2026-04-28T13:48:22.901Z</time></trkpt><trkpt lat="44.39012165171258" lon="11.245399723588106"><ele>121.99999999999999</ele><time>2026-04-28T13:48:23.901Z</time></trkpt><trkpt lat="44.39021967983315" lon="11.24544466621521"><ele>122.0</ele><time>2026-04-28T13:48:24.901Z</time></trkpt><trkpt lat="44.390301075319336" lon="11.245478394107115"><ele>122.0</ele><time>2026-04-28T13:48:25.901Z</time></trkpt><trkpt lat="44.39036822861615" lon="11.24551087237283"><ele>121.99999999999999</ele><time>2026-04-28T13:48:26.901Z</time></trkpt><trkpt lat="44.3904266600662" lon="11.24554900773882"><ele>122.0</ele><time>2026-04-28T13:48:27.901Z</time></trkpt><trkpt lat="44.39050579196232" lon="11.245651168558098"><ele>122.0</ele><time>2026-04-28T13:48:29.901Z</time></trkpt><trkpt lat="44.39053352401466" lon="11.245741086296873"><ele>122.0</ele><time>2026-04-28T13:48:31.901Z</time></trkpt><trkpt lat="44.390570702903204" lon="11.245852383127003"><ele>121.99999999999999</ele><time>2026-04-28T13:48:34.901Z</time></trkpt><trkpt lat="44.39055622551254" lon="11.245994320307432"><ele>122.0</ele><time>2026-04-28T13:48:36.901Z</time></trkpt><trkpt lat="44.39049125342538" lon="11.246126562395466"><ele>119.8</ele><time>2026-04-28T13:48:38.901Z</time></trkpt><trkpt lat="44.39040098993184" lon="11.246253645478724"><ele>117.6</ele><time>2026-04-28T13:48:40.901Z</time></trkpt><trkpt lat="44.390292904363186" lon="11.246260454316486"><ele>115.39999999999999</ele><time>2026-04-28T13:48:41.901Z</time></trkpt><trkpt lat="44.39021299792111" lon="11.246300393922612"><ele>113.19999999999999</ele><time>2026-04-28T13:48:42.901Z</time></trkpt><trkpt lat="44.39012191588115" lon="11.246343089997692"><ele>111.0</ele><time>2026-04-28T13:48:43.901Z</time></trkpt><trkpt lat="44.39002960456231" lon="11.246391372708636"><ele>111.0</ele><time>2026-04-28T13:48:44.903Z</time></trkpt><trkpt lat="44.389939869174064" lon="11.246433918283909"><ele>111.0</ele><time>2026-04-28T13:48:45.905Z</time></trkpt><trkpt lat="44.389843799805796" lon="11.2464808030941"><ele>111.0</ele><time>2026-04-28T13:48:46.908Z</time></trkpt><trkpt lat="44.38974433529702" lon="11.246526222543514"><ele>111.0</ele><time>2026-04-28T13:48:47.91Z</time></trkpt><trkpt lat="44.38964394711949" lon="11.246575094462287"><ele>111.0</ele><time>2026-04-28T13:48:48.912Z</time></trkpt><trkpt lat="44.389541208602054" lon="11.246623057236015"><ele>109.0</ele><time>2026-04-28T13:48:49.915Z</time></trkpt><trkpt lat="44.38944012618649" lon="11.246676499431468"><ele>107.0</ele><time>2026-04-28T13:48:50.916Z</time></trkpt><trkpt lat="44.38934047093206" lon="11.246723244880782"><ele>105.0</ele><time>2026-04-28T13:48:51.918Z</time></trkpt><trkpt lat="44.38924515438088" lon="11.246771453897638"><ele>103.0</ele><time>2026-04-28T13:48:52.92Z</time></trkpt><trkpt lat="44.389151171314246" lon="11.246798027411252"><ele>101.0</ele><time>2026-04-28T13:48:53.922Z</time></trkpt><trkpt lat="44.38907035778222" lon="11.246839001443924"><ele>100.99999999999999</ele><time>2026-04-28T13:48:54.923Z</time></trkpt><trkpt lat="44.388986104281024" lon="11.246879915851132"><ele>101.0</ele><time>2026-04-28T13:48:55.925Z</time></trkpt><trkpt lat="44.38890155609867" lon="11.246917265011914"><ele>101.0</ele><time>2026-04-28T13:48:56.926Z</time></trkpt><trkpt lat="44.388822929803084" lon="11.246959089304157"><ele>101.0</ele><time>2026-04-28T13:48:57.927Z</time></trkpt><trkpt lat="44.3887503498743" lon="11.246995461141285"><ele>100.99999999999999</ele><time>2026-04-28T13:48:58.928Z</time></trkpt><trkpt lat="44.38868489312464" lon="11.247025839818432"><ele>101.0</ele><time>2026-04-28T13:48:59.93Z</time></trkpt><trkpt lat="44.38860110492522" lon="11.247062420440669"><ele>103.19999999999999</ele><time>2026-04-28T13:49:01.932Z</time></trkpt><trkpt lat="44.388531789245135" lon="11.247097580934456"><ele>105.39999999999999</ele><time>2026-04-28T13:49:03.933Z</time></trkpt><trkpt lat="44.38843694076134" lon="11.24713350547087"><ele>107.6</ele><time>2026-04-28T13:49:05.935Z</time></trkpt><trkpt lat="44.38832151132747" lon="11.247114012562887"><ele>109.8</ele><time>2026-04-28T13:49:07.936Z</time></trkpt><trkpt lat="44.38820700133122" lon="11.247134613729996"><ele>112.0</ele><time>2026-04-28T13:49:09.937Z</time></trkpt><trkpt lat="44.38815445619391" lon="11.247186896400258"><ele>112.00000000000001</ele><time>2026-04-28T13:49:10.938Z</time></trkpt><trkpt lat="44.388109462185035" lon="11.247262761874325"><ele>112.0</ele><time>2026-04-28T13:49:11.938Z</time></trkpt><trkpt lat="44.38809006862612" lon="11.247361101762666"><ele>112.0</ele><time>2026-04-28T13:49:12.939Z</time></trkpt><trkpt lat="44.38810740549165" lon="11.247460915898607"><ele>112.0</ele><time>2026-04-28T13:49:13.939Z</time></trkpt><trkpt lat="44.388158056616305" lon="11.247543072357082"><ele>112.00000000000001</ele><time>2026-04-28T13:49:14.94Z</time></trkpt><trkpt lat="44.388220731763596" lon="11.247592466639716"><ele>112.0</ele><time>2026-04-28T13:49:15.94Z</time></trkpt><trkpt lat="44.388352754882526" lon="11.247570842342453"><ele>113.28571428571428</ele><time>2026-04-28T13:49:17.941Z</time></trkpt><trkpt lat="44.38842823377823" lon="11.24752767870488"><ele>114.57142857142857</ele><time>2026-04-28T13:49:18.941Z</time></trkpt><trkpt lat="44.38848321096824" lon="11.247449359028781"><ele>115.85714285714286</ele><time>2026-04-28T13:49:19.942Z</time></trkpt><trkpt lat="44.38855521964902" lon="11.247427509255242"><ele>117.14285714285714</ele><time>2026-04-28T13:49:20.942Z</time></trkpt><trkpt lat="44.38862371455697" lon="11.247446152670106"><ele>118.42857142857142</ele><time>2026-04-28T13:49:21.942Z</time></trkpt><trkpt lat="44.38867970580013" lon="11.247505129699634"><ele>119.71428571428571</ele><time>2026-04-28T13:49:22.942Z</time></trkpt><trkpt lat="44.38871970349166" lon="11.247584980931082"><ele>121.0</ele><time>2026-04-28T13:49:23.943Z</time></trkpt><trkpt lat="44.388783072435025" lon="11.247660525472947"><ele>121.0</ele><time>2026-04-28T13:49:24.943Z</time></trkpt><trkpt lat="44.3888426502778" lon="11.247770259026392"><ele>121.0</ele><time>2026-04-28T13:49:25.943Z</time></trkpt><trkpt lat="44.38890452293882" lon="11.247898997862475"><ele>121.0</ele><time>2026-04-28T13:49:26.943Z</time></trkpt><trkpt lat="44.388961725376724" lon="11.248030703890691"><ele>121.0</ele><time>2026-04-28T13:49:27.943Z</time></trkpt><trkpt lat="44.389005422751495" lon="11.248196262461429"><ele>121.0</ele><time>2026-04-28T13:49:28.944Z</time></trkpt><trkpt lat="44.38906449124905" lon="11.248355510497445"><ele>120.75</ele><time>2026-04-28T13:49:29.944Z</time></trkpt><trkpt lat="44.38912419886236" lon="11.24852304109003"><ele>120.5</ele><time>2026-04-28T13:49:30.944Z</time></trkpt><trkpt lat="44.38918217853187" lon="11.24869279173581"><ele>120.25</ele><time>2026-04-28T13:49:31.944Z</time></trkpt><trkpt lat="44.389242845168944" lon="11.248861981294104"><ele>120.0</ele><time>2026-04-28T13:49:32.944Z</time></trkpt><trkpt lat="44.38931093322423" lon="11.249038656154982"><ele>120.0</ele><time>2026-04-28T13:49:33.944Z</time></trkpt><trkpt lat="44.389351230503074" lon="11.249216826749425"><ele>120.0</ele><time>2026-04-28T13:49:34.944Z</time></trkpt><trkpt lat="44.389416098352555" lon="11.249397106315284"><ele>120.0</ele><time>2026-04-28T13:49:35.945Z</time></trkpt><trkpt lat="44.38947535173088" lon="11.249583727639628"><ele>120.0</ele><time>2026-04-28T13:49:36.945Z</time></trkpt><trkpt lat="44.38954368580686" lon="11.249770228864627"><ele>120.25</ele><time>2026-04-28T13:49:37.945Z</time></trkpt><trkpt lat="44.389603015738416" lon="11.249959886081701"><ele>120.5</ele><time>2026-04-28T13:49:38.945Z</time></trkpt><trkpt lat="44.3896584326363" lon="11.25014472660627"><ele>120.75</ele><time>2026-04-28T13:49:39.945Z</time></trkpt><trkpt lat="44.389705569392056" lon="11.250324287178499"><ele>121.0</ele><time>2026-04-28T13:49:40.945Z</time></trkpt><trkpt lat="44.38974904013002" lon="11.250510028532394"><ele>118.75</ele><time>2026-04-28T13:49:41.945Z</time></trkpt><trkpt lat="44.389783264231916" lon="11.25070247004601"><ele>116.5</ele><time>2026-04-28T13:49:42.945Z</time></trkpt><trkpt lat="44.389810721766715" lon="11.25089374100956"><ele>114.25</ele><time>2026-04-28T13:49:43.945Z</time></trkpt><trkpt lat="44.38982937048637" lon="11.251097986586771"><ele>112.0</ele><time>2026-04-28T13:49:44.942Z</time></trkpt><trkpt lat="44.38985217780833" lon="11.251300472958388"><ele>113.0</ele><time>2026-04-28T13:49:45.942Z</time></trkpt><trkpt lat="44.389880030159475" lon="11.251508076106033"><ele>114.0</ele><time>2026-04-28T13:49:46.942Z</time></trkpt><trkpt lat="44.389907406562685" lon="11.25172108083943"><ele>115.0</ele><time>2026-04-28T13:49:47.942Z</time></trkpt><trkpt lat="44.38992955151586" lon="11.251930296572292"><ele>115.0</ele><time>2026-04-28T13:49:48.942Z</time></trkpt><trkpt lat="44.38995567263032" lon="11.25214302307218"><ele>115.0</ele><time>2026-04-28T13:49:49.942Z</time></trkpt><trkpt lat="44.389980664144154" lon="11.252370970732247"><ele>115.0</ele><time>2026-04-28T13:49:50.942Z</time></trkpt><trkpt lat="44.39000439272047" lon="11.25258356364116"><ele>114.33333333333334</ele><time>2026-04-28T13:49:51.943Z</time></trkpt><trkpt lat="44.390010819896354" lon="11.252815668658746"><ele>113.66666666666666</ele><time>2026-04-28T13:49:52.943Z</time></trkpt><trkpt lat="44.39003367503685" lon="11.253042587983513"><ele>113.0</ele><time>2026-04-28T13:49:53.943Z</time></trkpt><trkpt lat="44.39005694786229" lon="11.253270468041807"><ele>112.66666666666666</ele><time>2026-04-28T13:49:54.942Z</time></trkpt><trkpt lat="44.39008980302899" lon="11.253500973387183"><ele>112.33333333333334</ele><time>2026-04-28T13:49:55.942Z</time></trkpt><trkpt lat="44.39015550165839" lon="11.253721128164303"><ele>112.0</ele><time>2026-04-28T13:49:56.942Z</time></trkpt><trkpt lat="44.39021715473786" lon="11.253945407781659"><ele>112.33333333333334</ele><time>2026-04-28T13:49:57.942Z</time></trkpt><trkpt lat="44.390291971110464" lon="11.254158894883329"><ele>112.66666666666666</ele><time>2026-04-28T13:49:58.942Z</time></trkpt><trkpt lat="44.390371448908965" lon="11.254363699538683"><ele>113.0</ele><time>2026-04-28T13:49:59.942Z</time></trkpt><trkpt lat="44.39044864590015" lon="11.254555936879877"><ele>110.0</ele><time>2026-04-28T13:50:00.942Z</time></trkpt><trkpt lat="44.390517456145496" lon="11.25474192410422"><ele>107.0</ele><time>2026-04-28T13:50:01.942Z</time></trkpt><trkpt lat="44.39057232056563" lon="11.254937795616934"><ele>104.0</ele><time>2026-04-28T13:50:02.942Z</time></trkpt><trkpt lat="44.39061088565666" lon="11.255153928838967"><ele>104.0</ele><time>2026-04-28T13:50:03.942Z</time></trkpt><trkpt lat="44.39064740326935" lon="11.255384025555328"><ele>104.0</ele><time>2026-04-28T13:50:04.942Z</time></trkpt><trkpt lat="44.39067467900595" lon="11.255625006778912"><ele>104.0</ele><time>2026-04-28T13:50:05.942Z</time></trkpt><trkpt lat="44.39070023883462" lon="11.255844204623932"><ele>105.0</ele><time>2026-04-28T13:50:06.942Z</time></trkpt><trkpt lat="44.39072610924474" lon="11.25605941207148"><ele>106.0</ele><time>2026-04-28T13:50:07.942Z</time></trkpt><trkpt lat="44.39076648404868" lon="11.256260827684061"><ele>107.0</ele><time>2026-04-28T13:50:08.942Z</time></trkpt><trkpt lat="44.390820720823974" lon="11.256498680797225"><ele>107.0</ele><time>2026-04-28T13:50:09.942Z</time></trkpt><trkpt lat="44.39087516126517" lon="11.256714487586615"><ele>107.0</ele><time>2026-04-28T13:50:10.942Z</time></trkpt><trkpt lat="44.39093209940225" lon="11.256923090779463"><ele>107.0</ele><time>2026-04-28T13:50:11.942Z</time></trkpt><trkpt lat="44.390999264762975" lon="11.257123069865521"><ele>107.75</ele><time>2026-04-28T13:50:12.942Z</time></trkpt><trkpt lat="44.39105929445816" lon="11.257311610794211"><ele>108.5</ele><time>2026-04-28T13:50:13.942Z</time></trkpt><trkpt lat="44.39111123683204" lon="11.257500045954433"><ele>109.25</ele><time>2026-04-28T13:50:14.942Z</time></trkpt><trkpt lat="44.39116319311658" lon="11.257667861860353"><ele>110.0</ele><time>2026-04-28T13:50:15.942Z</time></trkpt><trkpt lat="44.391216333139845" lon="11.257808710555175"><ele>110.0</ele><time>2026-04-28T13:50:16.942Z</time></trkpt><trkpt lat="44.391265048790686" lon="11.257948016252314"><ele>110.0</ele><time>2026-04-28T13:50:17.942Z</time></trkpt><trkpt lat="44.39135008323555" lon="11.258073107448798"><ele>110.0</ele><time>2026-04-28T13:50:18.942Z</time></trkpt><trkpt lat="44.39144664099309" lon="11.258163448876672"><ele>110.0</ele><time>2026-04-28T13:50:19.942Z</time></trkpt><trkpt lat="44.39155643799381" lon="11.258210616395505"><ele>109.0</ele><time>2026-04-28T13:50:20.942Z</time></trkpt><trkpt lat="44.39167278338927" lon="11.258218390564757"><ele>108.0</ele><time>2026-04-28T13:50:21.942Z</time></trkpt><trkpt lat="44.39177988570551" lon="11.258199444230943"><ele>107.0</ele><time>2026-04-28T13:50:22.942Z</time></trkpt><trkpt lat="44.3918756758482" lon="11.258162041019114"><ele>106.0</ele><time>2026-04-28T13:50:23.942Z</time></trkpt><trkpt lat="44.39197457429047" lon="11.258081981700393"><ele>105.0</ele><time>2026-04-28T13:50:25.942Z</time></trkpt><trkpt lat="44.392055457402996" lon="11.258078221309804"><ele>104.0</ele><time>2026-04-28T13:50:27.942Z</time></trkpt><trkpt lat="44.39212317265634" lon="11.257999691934927"><ele>103.0</ele><time>2026-04-28T13:50:35.942Z</time></trkpt><trkpt lat="44.392219036917005" lon="11.2581317632537"><ele>102.0</ele><time>2026-04-28T13:50:36.942Z</time></trkpt><trkpt lat="44.39228760165573" lon="11.25828588967254"><ele>101.0</ele><time>2026-04-28T13:50:38.942Z</time></trkpt><trkpt lat="44.39233255366048" lon="11.25838897957286"><ele>100.0</ele><time>2026-04-28T13:50:39.942Z</time></trkpt><trkpt lat="44.39238130392686" lon="11.258518954840362"><ele>99.75</ele><time>2026-04-28T13:50:40.942Z</time></trkpt><trkpt lat="44.39240330442127" lon="11.258685832324657"><ele>99.5</ele><time>2026-04-28T13:50:41.942Z</time></trkpt><trkpt lat="44.392467655528264" lon="11.258870621947953"><ele>99.25</ele><time>2026-04-28T13:50:42.942Z</time></trkpt><trkpt lat="44.392528366674966" lon="11.259072142299885"><ele>99.0</ele><time>2026-04-28T13:50:43.942Z</time></trkpt><trkpt lat="44.39259115427961" lon="11.25929210714887"><ele>99.0</ele><time>2026-04-28T13:50:44.942Z</time></trkpt><trkpt lat="44.392642725197646" lon="11.259543316744152"><ele>99.0</ele><time>2026-04-28T13:50:45.942Z</time></trkpt><trkpt lat="44.39270488114921" lon="11.259816682958567"><ele>99.0</ele><time>2026-04-28T13:50:46.942Z</time></trkpt><trkpt lat="44.39276416637907" lon="11.260084674639714"><ele>100.66666666666666</ele><time>2026-04-28T13:50:47.942Z</time></trkpt><trkpt lat="44.392799904858464" lon="11.26034578561634"><ele>102.33333333333333</ele><time>2026-04-28T13:50:48.942Z</time></trkpt><trkpt lat="44.39282377559384" lon="11.260618700691335"><ele>104.0</ele><time>2026-04-28T13:50:49.942Z</time></trkpt><trkpt lat="44.39284368947675" lon="11.260893891256165"><ele>104.66666666666666</ele><time>2026-04-28T13:50:50.942Z</time></trkpt><trkpt lat="44.392856177015695" lon="11.26118438933556"><ele>105.33333333333334</ele><time>2026-04-28T13:50:51.942Z</time></trkpt><trkpt lat="44.39286765615355" lon="11.261479650441679"><ele>106.0</ele><time>2026-04-28T13:50:52.942Z</time></trkpt><trkpt lat="44.39288480064012" lon="11.261777768442139"><ele>107.33333333333334</ele><time>2026-04-28T13:50:53.942Z</time></trkpt><trkpt lat="44.39291025972535" lon="11.262070051933517"><ele>108.66666666666666</ele><time>2026-04-28T13:50:54.942Z</time></trkpt><trkpt lat="44.39294344310675" lon="11.262365238925852"><ele>110.0</ele><time>2026-04-28T13:50:55.942Z</time></trkpt><trkpt lat="44.39298061121428" lon="11.262657008344588"><ele>106.33333333333333</ele><time>2026-04-28T13:50:56.942Z</time></trkpt><trkpt lat="44.393002515662076" lon="11.262949492940615"><ele>102.66666666666666</ele><time>2026-04-28T13:50:57.942Z</time></trkpt><trkpt lat="44.39304169195263" lon="11.26324392397337"><ele>99.0</ele><time>2026-04-28T13:50:58.942Z</time></trkpt><trkpt lat="44.393083988892265" lon="11.263524713174991"><ele>99.0</ele><time>2026-04-28T13:50:59.943Z</time></trkpt><trkpt lat="44.393133470159995" lon="11.263807279602062"><ele>99.0</ele><time>2026-04-28T13:51:00.943Z</time></trkpt><trkpt lat="44.39319530673438" lon="11.264086490161715"><ele>99.0</ele><time>2026-04-28T13:51:01.943Z</time></trkpt><trkpt lat="44.39322629673377" lon="11.26437570211772"><ele>99.0</ele><time>2026-04-28T13:51:02.943Z</time></trkpt><trkpt lat="44.39324061017919" lon="11.264674971134111"><ele>99.0</ele><time>2026-04-28T13:51:03.943Z</time></trkpt><trkpt lat="44.39324663101381" lon="11.26496575351295"><ele>99.0</ele><time>2026-04-28T13:51:04.943Z</time></trkpt><trkpt lat="44.39325138243192" lon="11.26526446491389"><ele>99.33333333333334</ele><time>2026-04-28T13:51:05.943Z</time></trkpt><trkpt lat="44.39326441801914" lon="11.26557407174519"><ele>99.66666666666667</ele><time>2026-04-28T13:51:06.943Z</time></trkpt><trkpt lat="44.39327295824891" lon="11.265884758104487"><ele>100.0</ele><time>2026-04-28T13:51:07.943Z</time></trkpt><trkpt lat="44.39328516573066" lon="11.266192336677609"><ele>99.33333333333334</ele><time>2026-04-28T13:51:08.943Z</time></trkpt><trkpt lat="44.39330467489139" lon="11.266497833894402"><ele>98.66666666666666</ele><time>2026-04-28T13:51:09.943Z</time></trkpt><trkpt lat="44.39332295976466" lon="11.266795688280617"><ele>98.0</ele><time>2026-04-28T13:51:10.943Z</time></trkpt><trkpt lat="44.393342095658966" lon="11.267084664278832"><ele>98.66666666666666</ele><time>2026-04-28T13:51:11.943Z</time></trkpt><trkpt lat="44.39336515392526" lon="11.267366519118468"><ele>99.33333333333334</ele><time>2026-04-28T13:51:12.943Z</time></trkpt><trkpt lat="44.39337149168254" lon="11.26764512455345"><ele>100.0</ele><time>2026-04-28T13:51:13.943Z</time></trkpt><trkpt lat="44.39338796949098" lon="11.267916589448223"><ele>102.66666666666667</ele><time>2026-04-28T13:51:14.943Z</time></trkpt><trkpt lat="44.39340710184686" lon="11.268183655107405"><ele>105.33333333333334</ele><time>2026-04-28T13:51:15.943Z</time></trkpt><trkpt lat="44.39343028689879" lon="11.268451557547573"><ele>108.0</ele><time>2026-04-28T13:51:16.943Z</time></trkpt><trkpt lat="44.393454669419775" lon="11.268718621145748"><ele>110.33333333333334</ele><time>2026-04-28T13:51:17.943Z</time></trkpt><trkpt lat="44.3934819793206" lon="11.268982913017812"><ele>112.66666666666667</ele><time>2026-04-28T13:51:18.943Z</time></trkpt><trkpt lat="44.393508980652264" lon="11.269244218717155"><ele>115.0</ele><time>2026-04-28T13:51:19.943Z</time></trkpt><trkpt lat="44.39353590392264" lon="11.269504769003126"><ele>115.0</ele><time>2026-04-28T13:51:20.943Z</time></trkpt><trkpt lat="44.393576132617795" lon="11.269756511939704"><ele>115.0</ele><time>2026-04-28T13:51:21.943Z</time></trkpt><trkpt lat="44.39360287685568" lon="11.27001609661203"><ele>115.0</ele><time>2026-04-28T13:51:22.943Z</time></trkpt><trkpt lat="44.393629517815455" lon="11.270268381209258"><ele>117.66666666666667</ele><time>2026-04-28T13:51:23.943Z</time></trkpt><trkpt lat="44.393643801157616" lon="11.270508614034853"><ele>120.33333333333334</ele><time>2026-04-28T13:51:24.943Z</time></trkpt><trkpt lat="44.39364920289115" lon="11.270740254726713"><ele>123.0</ele><time>2026-04-28T13:51:25.943Z</time></trkpt><trkpt lat="44.393634618872944" lon="11.27096356861415"><ele>122.66666666666666</ele><time>2026-04-28T13:51:26.943Z</time></trkpt><trkpt lat="44.39360689009739" lon="11.271183102935046"><ele>122.33333333333333</ele><time>2026-04-28T13:51:27.943Z</time></trkpt><trkpt lat="44.393574617404845" lon="11.27138926113231"><ele>122.0</ele><time>2026-04-28T13:51:28.943Z</time></trkpt><trkpt lat="44.39356771991978" lon="11.271585698307257"><ele>122.0</ele><time>2026-04-28T13:51:29.943Z</time></trkpt><trkpt lat="44.393583555918276" lon="11.271785154923961"><ele>122.0</ele><time>2026-04-28T13:51:30.943Z</time></trkpt><trkpt lat="44.3936232190958" lon="11.271981168757224"><ele>122.0</ele><time>2026-04-28T13:51:31.943Z</time></trkpt><trkpt lat="44.39369340862102" lon="11.27217047226013"><ele>122.0</ele><time>2026-04-28T13:51:32.943Z</time></trkpt><trkpt lat="44.393769240978614" lon="11.272355306587201"><ele>122.75</ele><time>2026-04-28T13:51:33.943Z</time></trkpt><trkpt lat="44.39383585928877" lon="11.272539539800649"><ele>123.5</ele><time>2026-04-28T13:51:34.943Z</time></trkpt><trkpt lat="44.393896591005884" lon="11.272719670527335"><ele>124.25</ele><time>2026-04-28T13:51:35.943Z</time></trkpt><trkpt lat="44.393940148900995" lon="11.272913063853023"><ele>125.0</ele><time>2026-04-28T13:51:36.943Z</time></trkpt><trkpt lat="44.39396220207308" lon="11.273106342161036"><ele>122.5</ele><time>2026-04-28T13:51:37.943Z</time></trkpt><trkpt lat="44.3939905900711" lon="11.273317015748997"><ele>120.0</ele><time>2026-04-28T13:51:38.943Z</time></trkpt><trkpt lat="44.394014852909486" lon="11.27351836179428"><ele>117.5</ele><time>2026-04-28T13:51:39.943Z</time></trkpt><trkpt lat="44.394035357402466" lon="11.273690123399701"><ele>115.0</ele><time>2026-04-28T13:51:40.943Z</time></trkpt><trkpt lat="44.39407382919743" lon="11.27386120561896"><ele>120.75</ele><time>2026-04-28T13:51:41.943Z</time></trkpt><trkpt lat="44.394133500798105" lon="11.274018089877826"><ele>126.5</ele><time>2026-04-28T13:51:42.943Z</time></trkpt><trkpt lat="44.394217547717034" lon="11.274162746656884"><ele>132.25</ele><time>2026-04-28T13:51:43.943Z</time></trkpt><trkpt lat="44.39433351389098" lon="11.274296066740144"><ele>138.0</ele><time>2026-04-28T13:51:44.943Z</time></trkpt><trkpt lat="44.39444579325989" lon="11.274414919290443"><ele>138.0</ele><time>2026-04-28T13:51:45.943Z</time></trkpt><trkpt lat="44.394563447216356" lon="11.274519145502907"><ele>138.0</ele><time>2026-04-28T13:51:46.943Z</time></trkpt><trkpt lat="44.39466579388425" lon="11.274623798734936"><ele>138.0</ele><time>2026-04-28T13:51:47.943Z</time></trkpt><trkpt lat="44.394769604703235" lon="11.27472298533237"><ele>138.0</ele><time>2026-04-28T13:51:48.943Z</time></trkpt><trkpt lat="44.39486683029151" lon="11.274831108728533"><ele>140.75</ele><time>2026-04-28T13:51:49.943Z</time></trkpt><trkpt lat="44.394942997581104" lon="11.274951843858984"><ele>143.5</ele><time>2026-04-28T13:51:50.942Z</time></trkpt><trkpt lat="44.395002776767534" lon="11.27507804949576"><ele>146.25</ele><time>2026-04-28T13:51:51.942Z</time></trkpt><trkpt lat="44.39504234037361" lon="11.275216248103607"><ele>149.0</ele><time>2026-04-28T13:51:52.942Z</time></trkpt><trkpt lat="44.39506122544096" lon="11.275382266488782"><ele>149.0</ele><time>2026-04-28T13:51:53.942Z</time></trkpt><trkpt lat="44.395080527098145" lon="11.275553939890402"><ele>149.0</ele><time>2026-04-28T13:51:54.941Z</time></trkpt><trkpt lat="44.395078363560295" lon="11.275714662977284"><ele>149.0</ele><time>2026-04-28T13:51:55.941Z</time></trkpt><trkpt lat="44.395093373623624" lon="11.27585561115615"><ele>149.0</ele><time>2026-04-28T13:51:56.942Z</time></trkpt><trkpt lat="44.395110919204136" lon="11.276008538504195"><ele>149.5</ele><time>2026-04-28T13:51:57.942Z</time></trkpt><trkpt lat="44.395133187282745" lon="11.276183738744752"><ele>150.0</ele><time>2026-04-28T13:51:58.942Z</time></trkpt><trkpt lat="44.3951564157301" lon="11.276354674758439"><ele>150.5</ele><time>2026-04-28T13:51:59.941Z</time></trkpt><trkpt lat="44.39517664901539" lon="11.276515920895202"><ele>151.0</ele><time>2026-04-28T13:52:00.942Z</time></trkpt><trkpt lat="44.3952026452927" lon="11.276680651190878"><ele>148.25</ele><time>2026-04-28T13:52:01.942Z</time></trkpt><trkpt lat="44.39517647678313" lon="11.276835435871238"><ele>145.5</ele><time>2026-04-28T13:52:02.941Z</time></trkpt><trkpt lat="44.39511814014136" lon="11.276970169803336"><ele>142.75</ele><time>2026-04-28T13:52:03.942Z</time></trkpt><trkpt lat="44.39503839335677" lon="11.27709708090246"><ele>140.0</ele><time>2026-04-28T13:52:04.942Z</time></trkpt><trkpt lat="44.39493155070491" lon="11.277218126051617"><ele>138.5</ele><time>2026-04-28T13:52:05.942Z</time></trkpt><trkpt lat="44.39481520201806" lon="11.277346529325488"><ele>137.0</ele><time>2026-04-28T13:52:06.942Z</time></trkpt><trkpt lat="44.39469896425833" lon="11.277461061543578"><ele>135.5</ele><time>2026-04-28T13:52:07.942Z</time></trkpt><trkpt lat="44.39459002844585" lon="11.277570397390065"><ele>134.0</ele><time>2026-04-28T13:52:08.942Z</time></trkpt><trkpt lat="44.39448348275204" lon="11.277671671417151"><ele>134.0</ele><time>2026-04-28T13:52:09.942Z</time></trkpt><trkpt lat="44.39437747524982" lon="11.277766806841221"><ele>134.0</ele><time>2026-04-28T13:52:10.942Z</time></trkpt><trkpt lat="44.39427666395055" lon="11.277857053220519"><ele>134.0</ele><time>2026-04-28T13:52:11.942Z</time></trkpt><trkpt lat="44.39418817888058" lon="11.277931645557002"><ele>134.0</ele><time>2026-04-28T13:52:12.942Z</time></trkpt><trkpt lat="44.39411474494663" lon="11.27800111278562"><ele>134.0</ele><time>2026-04-28T13:52:13.942Z</time></trkpt><trkpt lat="44.39405329090836" lon="11.278076772002045"><ele>131.66666666666666</ele><time>2026-04-28T13:52:14.942Z</time></trkpt><trkpt lat="44.39400243724272" lon="11.27816493949715"><ele>129.33333333333331</ele><time>2026-04-28T13:52:15.942Z</time></trkpt><trkpt lat="44.39398607743772" lon="11.278254500539855"><ele>127.0</ele><time>2026-04-28T13:52:16.942Z</time></trkpt><trkpt lat="44.39396469922446" lon="11.27837821653366"><ele>124.66666666666666</ele><time>2026-04-28T13:52:17.942Z</time></trkpt><trkpt lat="44.39398994616014" lon="11.27850890116424"><ele>122.33333333333333</ele><time>2026-04-28T13:52:18.942Z</time></trkpt><trkpt lat="44.394036529424454" lon="11.27862102132942"><ele>120.0</ele><time>2026-04-28T13:52:19.942Z</time></trkpt><trkpt lat="44.39408615278753" lon="11.27870863849634"><ele>120.0</ele><time>2026-04-28T13:52:20.942Z</time></trkpt><trkpt lat="44.394134489177254" lon="11.278783786974477"><ele>120.0</ele><time>2026-04-28T13:52:21.942Z</time></trkpt><trkpt lat="44.39419422396799" lon="11.278873469597908"><ele>120.0</ele><time>2026-04-28T13:52:22.942Z</time></trkpt><trkpt lat="44.394260540581676" lon="11.27896138803287"><ele>120.0</ele><time>2026-04-28T13:52:23.942Z</time></trkpt><trkpt lat="44.39432711262907" lon="11.279040828379761"><ele>120.0</ele><time>2026-04-28T13:52:24.942Z</time></trkpt><trkpt lat="44.39439845741387" lon="11.279092793273474"><ele>120.0</ele><time>2026-04-28T13:52:25.942Z</time></trkpt><trkpt lat="44.394449209152086" lon="11.279171955527737"><ele>119.66666666666667</ele><time>2026-04-28T13:52:26.942Z</time></trkpt><trkpt lat="44.394549334114004" lon="11.279263098065922"><ele>119.33333333333334</ele><time>2026-04-28T13:52:28.942Z</time></trkpt><trkpt lat="44.394608745742275" lon="11.279309463182695"><ele>119.0</ele><time>2026-04-28T13:52:29.942Z</time></trkpt><trkpt lat="44.394667183598216" lon="11.279351665728447"><ele>118.66666666666667</ele><time>2026-04-28T13:52:30.942Z</time></trkpt><trkpt lat="44.39477224064676" lon="11.279410161131105"><ele>118.33333333333334</ele><time>2026-04-28T13:52:32.942Z</time></trkpt><trkpt lat="44.3948441742618" lon="11.279435951417"><ele>118.0</ele><time>2026-04-28T13:52:34.942Z</time></trkpt><trkpt lat="44.39491220611011" lon="11.279451696379331"><ele>118.0</ele><time>2026-04-28T13:52:41.942Z</time></trkpt><trkpt lat="44.39498484329973" lon="11.27950670442586"><ele>118.00000000000001</ele><time>2026-04-28T13:55:45.942Z</time></trkpt><trkpt lat="44.395080223956974" lon="11.279491781554148"><ele>118.00000000000001</ele><time>2026-04-28T13:55:47.942Z</time></trkpt><trkpt lat="44.39519862041402" lon="11.27955725387323"><ele>118.0</ele><time>2026-04-28T13:55:49.942Z</time></trkpt><trkpt lat="44.395278673476106" lon="11.279586514837831"><ele>118.0</ele><time>2026-04-28T13:55:50.942Z</time></trkpt><trkpt lat="44.39534437690683" lon="11.279666992195699"><ele>116.4</ele><time>2026-04-28T13:55:51.942Z</time></trkpt><trkpt lat="44.39537907881373" lon="11.279780769816176"><ele>114.80000000000001</ele><time>2026-04-28T13:55:52.942Z</time></trkpt><trkpt lat="44.39543007102137" lon="11.279887733682417"><ele>113.2</ele><time>2026-04-28T13:55:53.942Z</time></trkpt><trkpt lat="44.395463016323575" lon="11.280019039392053"><ele>111.6</ele><time>2026-04-28T13:55:54.942Z</time></trkpt><trkpt lat="44.39548463304331" lon="11.280166829075222"><ele>110.0</ele><time>2026-04-28T13:55:55.942Z</time></trkpt><trkpt lat="44.39548831663982" lon="11.280320503268351"><ele>110.0</ele><time>2026-04-28T13:55:56.942Z</time></trkpt><trkpt lat="44.39547643796704" lon="11.280477401460258"><ele>110.0</ele><time>2026-04-28T13:55:57.942Z</time></trkpt><trkpt lat="44.395453649649404" lon="11.28064377441835"><ele>110.0</ele><time>2026-04-28T13:55:58.942Z</time></trkpt><trkpt lat="44.395435767006504" lon="11.280818865539674"><ele>110.0</ele><time>2026-04-28T13:55:59.942Z</time></trkpt><trkpt lat="44.39541665755611" lon="11.281018745369494"><ele>111.25</ele><time>2026-04-28T13:56:00.942Z</time></trkpt><trkpt lat="44.39540480742108" lon="11.28121052038656"><ele>112.5</ele><time>2026-04-28T13:56:01.942Z</time></trkpt><trkpt lat="44.39540443849767" lon="11.281403107163367"><ele>113.75</ele><time>2026-04-28T13:56:02.942Z</time></trkpt><trkpt lat="44.39539350292271" lon="11.28158852409775"><ele>115.0</ele><time>2026-04-28T13:56:03.942Z</time></trkpt><trkpt lat="44.39540221168768" lon="11.281764788455932"><ele>115.0</ele><time>2026-04-28T13:56:04.942Z</time></trkpt><trkpt lat="44.39541639434762" lon="11.28193383271548"><ele>115.0</ele><time>2026-04-28T13:56:05.941Z</time></trkpt><trkpt lat="44.395450452509074" lon="11.282102086955494"><ele>115.0</ele><time>2026-04-28T13:56:06.941Z</time></trkpt><trkpt lat="44.39545719403335" lon="11.282286203696396"><ele>115.0</ele><time>2026-04-28T13:56:07.941Z</time></trkpt><trkpt lat="44.39547872949391" lon="11.28248937982254"><ele>114.66666666666667</ele><time>2026-04-28T13:56:08.941Z</time></trkpt><trkpt lat="44.39550358652533" lon="11.282701949035062"><ele>114.33333333333334</ele><time>2026-04-28T13:56:09.941Z</time></trkpt><trkpt lat="44.395539835242516" lon="11.282930572400353"><ele>114.0</ele><time>2026-04-28T13:56:10.941Z</time></trkpt><trkpt lat="44.395570184013636" lon="11.283168398071293"><ele>109.66666666666666</ele><time>2026-04-28T13:56:11.941Z</time></trkpt><trkpt lat="44.39559816320729" lon="11.283409809509399"><ele>105.33333333333333</ele><time>2026-04-28T13:56:12.942Z</time></trkpt><trkpt lat="44.395626119664506" lon="11.283654143694875"><ele>101.0</ele><time>2026-04-28T13:56:13.942Z</time></trkpt><trkpt lat="44.395653353669196" lon="11.283894640593125"><ele>102.33333333333333</ele><time>2026-04-28T13:56:14.941Z</time></trkpt><trkpt lat="44.39567269964369" lon="11.284118321031409"><ele>103.66666666666666</ele><time>2026-04-28T13:56:15.941Z</time></trkpt><trkpt lat="44.39567538218827" lon="11.284343409788859"><ele>105.0</ele><time>2026-04-28T13:56:16.941Z</time></trkpt><trkpt lat="44.395665764592145" lon="11.284551552586464"><ele>105.0</ele><time>2026-04-28T13:56:17.941Z</time></trkpt><trkpt lat="44.39564836167715" lon="11.284757215470531"><ele>105.0</ele><time>2026-04-28T13:56:18.941Z</time></trkpt><trkpt lat="44.39560798858925" lon="11.284965868159986"><ele>105.0</ele><time>2026-04-28T13:56:19.941Z</time></trkpt><trkpt lat="44.39558086232657" lon="11.285186409855308"><ele>105.0</ele><time>2026-04-28T13:56:20.941Z</time></trkpt><trkpt lat="44.39555372470643" lon="11.285415180728835"><ele>105.0</ele><time>2026-04-28T13:56:21.941Z</time></trkpt><trkpt lat="44.39552344599811" lon="11.285654639007818"><ele>105.0</ele><time>2026-04-28T13:56:22.941Z</time></trkpt><trkpt lat="44.395492817380074" lon="11.28588108555972"><ele>105.0</ele><time>2026-04-28T13:56:23.941Z</time></trkpt><trkpt lat="44.39546384644181" lon="11.286095276454297"><ele>105.0</ele><time>2026-04-28T13:56:24.941Z</time></trkpt><trkpt lat="44.39543689980914" lon="11.286294501039713"><ele>105.0</ele><time>2026-04-28T13:56:25.941Z</time></trkpt><trkpt lat="44.39541134412452" lon="11.286481851709738"><ele>105.0</ele><time>2026-04-28T13:56:26.941Z</time></trkpt><trkpt lat="44.39538749121495" lon="11.286654253517078"><ele>105.6</ele><time>2026-04-28T13:56:27.941Z</time></trkpt><trkpt lat="44.3953654735665" lon="11.286810359158684"><ele>106.2</ele><time>2026-04-28T13:56:28.941Z</time></trkpt><trkpt lat="44.39532298171961" lon="11.286957617940233"><ele>106.80000000000001</ele><time>2026-04-28T13:56:29.941Z</time></trkpt><trkpt lat="44.3952657681543" lon="11.28708575597464"><ele>107.4</ele><time>2026-04-28T13:56:30.941Z</time></trkpt><trkpt lat="44.39519062893219" lon="11.287198677218857"><ele>108.0</ele><time>2026-04-28T13:56:31.941Z</time></trkpt><trkpt lat="44.39508323859903" lon="11.28728476581197"><ele>108.75</ele><time>2026-04-28T13:56:32.941Z</time></trkpt><trkpt lat="44.394963502588524" lon="11.287353144365229"><ele>109.5</ele><time>2026-04-28T13:56:33.941Z</time></trkpt><trkpt lat="44.39482975402398" lon="11.287447650387433"><ele>110.25</ele><time>2026-04-28T13:56:34.941Z</time></trkpt><trkpt lat="44.39470891060275" lon="11.287571625111992"><ele>111.0</ele><time>2026-04-28T13:56:35.941Z</time></trkpt><trkpt lat="44.39459827541484" lon="11.287729806190045"><ele>111.0</ele><time>2026-04-28T13:56:36.941Z</time></trkpt><trkpt lat="44.394485853093755" lon="11.287893888921495"><ele>111.0</ele><time>2026-04-28T13:56:37.941Z</time></trkpt><trkpt lat="44.39436640059511" lon="11.288044909910758"><ele>111.0</ele><time>2026-04-28T13:56:38.941Z</time></trkpt><trkpt lat="44.39425368048676" lon="11.288183035716557"><ele>114.0</ele><time>2026-04-28T13:56:39.941Z</time></trkpt><trkpt lat="44.3941545637225" lon="11.28829300090935"><ele>117.0</ele><time>2026-04-28T13:56:40.941Z</time></trkpt><trkpt lat="44.39406513209007" lon="11.288393221578252"><ele>120.0</ele><time>2026-04-28T13:56:41.941Z</time></trkpt><trkpt lat="44.39400124992462" lon="11.28850480577638"><ele>123.0</ele><time>2026-04-28T13:56:42.941Z</time></trkpt><trkpt lat="44.393965538278934" lon="11.288642021290235"><ele>126.0</ele><time>2026-04-28T13:56:43.941Z</time></trkpt><trkpt lat="44.3939696095304" lon="11.288778661656325"><ele>128.75</ele><time>2026-04-28T13:56:44.941Z</time></trkpt><trkpt lat="44.394001553122514" lon="11.288931159447262"><ele>131.5</ele><time>2026-04-28T13:56:45.941Z</time></trkpt><trkpt lat="44.394046183174815" lon="11.289089857473128"><ele>134.25</ele><time>2026-04-28T13:56:46.941Z</time></trkpt><trkpt lat="44.39409077583565" lon="11.289267342031536"><ele>137.0</ele><time>2026-04-28T13:56:47.941Z</time></trkpt><trkpt lat="44.39413378039109" lon="11.289451373342859"><ele>137.0</ele><time>2026-04-28T13:56:48.941Z</time></trkpt><trkpt lat="44.394170277578226" lon="11.289641375742919"><ele>137.0</ele><time>2026-04-28T13:56:49.941Z</time></trkpt><trkpt lat="44.394198490257544" lon="11.289838838128953"><ele>137.0</ele><time>2026-04-28T13:56:50.941Z</time></trkpt><trkpt lat="44.39420588788012" lon="11.290039973827176"><ele>137.0</ele><time>2026-04-28T13:56:51.941Z</time></trkpt><trkpt lat="44.39419598249979" lon="11.290247157993049"><ele>139.66666666666666</ele><time>2026-04-28T13:56:52.941Z</time></trkpt><trkpt lat="44.394173242127394" lon="11.290457469433239"><ele>142.33333333333334</ele><time>2026-04-28T13:56:53.941Z</time></trkpt><trkpt lat="44.394146372627176" lon="11.290674674496362"><ele>145.0</ele><time>2026-04-28T13:56:54.941Z</time></trkpt><trkpt lat="44.39410585052177" lon="11.290889216958258"><ele>147.0</ele><time>2026-04-28T13:56:55.941Z</time></trkpt><trkpt lat="44.394065943814326" lon="11.291092901966543"><ele>149.0</ele><time>2026-04-28T13:56:56.941Z</time></trkpt><trkpt lat="44.39404158037295" lon="11.291293007394287"><ele>151.0</ele><time>2026-04-28T13:56:57.941Z</time></trkpt><trkpt lat="44.39403695814637" lon="11.291503579308648"><ele>153.0</ele><time>2026-04-28T13:56:58.941Z</time></trkpt><trkpt lat="44.39405698175442" lon="11.291715413299587"><ele>154.0</ele><time>2026-04-28T13:56:59.941Z</time></trkpt><trkpt lat="44.394101412227116" lon="11.29193364867963"><ele>155.0</ele><time>2026-04-28T13:57:00.941Z</time></trkpt><trkpt lat="44.39415685469669" lon="11.29216109653185"><ele>156.0</ele><time>2026-04-28T13:57:01.941Z</time></trkpt><trkpt lat="44.39419025203707" lon="11.292395604270773"><ele>157.66666666666666</ele><time>2026-04-28T13:57:02.941Z</time></trkpt><trkpt lat="44.39419235957202" lon="11.29264513603375"><ele>159.33333333333331</ele><time>2026-04-28T13:57:03.941Z</time></trkpt><trkpt lat="44.394170512502704" lon="11.292898960399093"><ele>161.0</ele><time>2026-04-28T13:57:04.941Z</time></trkpt><trkpt lat="44.394137814103594" lon="11.293145787176142"><ele>162.66666666666666</ele><time>2026-04-28T13:57:05.941Z</time></trkpt><trkpt lat="44.39408240726224" lon="11.293389045965085"><ele>164.33333333333334</ele><time>2026-04-28T13:57:06.941Z</time></trkpt><trkpt lat="44.39400654089152" lon="11.293611936844375"><ele>166.0</ele><time>2026-04-28T13:57:07.941Z</time></trkpt><trkpt lat="44.39392705586247" lon="11.293808846198779"><ele>166.5</ele><time>2026-04-28T13:57:08.941Z</time></trkpt><trkpt lat="44.39385709687905" lon="11.293986682846944"><ele>167.0</ele><time>2026-04-28T13:57:09.941Z</time></trkpt><trkpt lat="44.393781563932514" lon="11.29414953633179"><ele>167.5</ele><time>2026-04-28T13:57:10.941Z</time></trkpt><trkpt lat="44.39368157187736" lon="11.294287153171517"><ele>168.0</ele><time>2026-04-28T13:57:11.941Z</time></trkpt><trkpt lat="44.393561072763745" lon="11.294396791385815"><ele>172.33333333333334</ele><time>2026-04-28T13:57:12.941Z</time></trkpt><trkpt lat="44.39341303450141" lon="11.294471146222325"><ele>176.66666666666669</ele><time>2026-04-28T13:57:13.941Z</time></trkpt><trkpt lat="44.39326384789136" lon="11.29453930104819"><ele>181.0</ele><time>2026-04-28T13:57:14.941Z</time></trkpt><trkpt lat="44.39313445705645" lon="11.294599257516937"><ele>181.0</ele><time>2026-04-28T13:57:15.941Z</time></trkpt><trkpt lat="44.39302575115757" lon="11.294630211004687"><ele>181.0</ele><time>2026-04-28T13:57:16.941Z</time></trkpt><trkpt lat="44.392913566714405" lon="11.294619496119422"><ele>181.0</ele><time>2026-04-28T13:57:17.941Z</time></trkpt><trkpt lat="44.39280538939529" lon="11.294562604709458"><ele>181.0</ele><time>2026-04-28T13:57:18.941Z</time></trkpt><trkpt lat="44.392717890800185" lon="11.29444290615061"><ele>184.5</ele><time>2026-04-28T13:57:19.941Z</time></trkpt><trkpt lat="44.39262626971568" lon="11.294319556075742"><ele>188.0</ele><time>2026-04-28T13:57:20.941Z</time></trkpt><trkpt lat="44.39253682994473" lon="11.294173991972581"><ele>191.5</ele><time>2026-04-28T13:57:21.941Z</time></trkpt><trkpt lat="44.39245922686097" lon="11.294003881030903"><ele>195.0</ele><time>2026-04-28T13:57:22.941Z</time></trkpt><trkpt lat="44.39238278603635" lon="11.29381994662031"><ele>195.0</ele><time>2026-04-28T13:57:23.941Z</time></trkpt><trkpt lat="44.39231203055837" lon="11.293649191601734"><ele>195.0</ele><time>2026-04-28T13:57:24.941Z</time></trkpt><trkpt lat="44.39225051610439" lon="11.293497249322716"><ele>195.0</ele><time>2026-04-28T13:57:25.941Z</time></trkpt><trkpt lat="44.39219493965703" lon="11.293378254598814"><ele>195.0</ele><time>2026-04-28T13:57:26.941Z</time></trkpt><trkpt lat="44.39212205465867" lon="11.293263373651213"><ele>203.25</ele><time>2026-04-28T13:57:27.941Z</time></trkpt><trkpt lat="44.39202054537362" lon="11.293180701540248"><ele>211.5</ele><time>2026-04-28T13:57:28.941Z</time></trkpt><trkpt lat="44.391904555771156" lon="11.293143240348964"><ele>219.75</ele><time>2026-04-28T13:57:29.941Z</time></trkpt><trkpt lat="44.391788365886526" lon="11.293125923599309"><ele>228.0</ele><time>2026-04-28T13:57:30.941Z</time></trkpt><trkpt lat="44.39167425997514" lon="11.293119451096656"><ele>228.0</ele><time>2026-04-28T13:57:31.941Z</time></trkpt><trkpt lat="44.391563719544415" lon="11.293101373065022"><ele>228.0</ele><time>2026-04-28T13:57:32.941Z</time></trkpt><trkpt lat="44.391465534682325" lon="11.29310338300476"><ele>228.0</ele><time>2026-04-28T13:57:33.941Z</time></trkpt><trkpt lat="44.39137441661166" lon="11.29314043196199"><ele>228.0</ele><time>2026-04-28T13:57:34.941Z</time></trkpt><trkpt lat="44.391314365092036" lon="11.29320166120368"><ele>228.0</ele><time>2026-04-28T13:57:35.941Z</time></trkpt><trkpt lat="44.39126753467807" lon="11.293296793444442"><ele>226.75</ele><time>2026-04-28T13:57:36.941Z</time></trkpt><trkpt lat="44.39120372109991" lon="11.293427149453288"><ele>225.5</ele><time>2026-04-28T13:57:37.941Z</time></trkpt><trkpt lat="44.39116033251591" lon="11.293619929915167"><ele>224.25</ele><time>2026-04-28T13:57:38.941Z</time></trkpt><trkpt lat="44.391156062943956" lon="11.293847416995307"><ele>223.0</ele><time>2026-04-28T13:57:39.941Z</time></trkpt><trkpt lat="44.39113996012465" lon="11.294085800037466"><ele>222.33333333333331</ele><time>2026-04-28T13:57:40.941Z</time></trkpt><trkpt lat="44.391121076331416" lon="11.294329000629142"><ele>221.66666666666669</ele><time>2026-04-28T13:57:41.941Z</time></trkpt><trkpt lat="44.391111607342424" lon="11.294580837608127"><ele>221.0</ele><time>2026-04-28T13:57:42.941Z</time></trkpt><trkpt lat="44.39112120763852" lon="11.294823919117402"><ele>222.33333333333334</ele><time>2026-04-28T13:57:43.941Z</time></trkpt><trkpt lat="44.39114033339504" lon="11.295054586792874"><ele>223.66666666666669</ele><time>2026-04-28T13:57:44.941Z</time></trkpt><trkpt lat="44.39119460095474" lon="11.295270787563595"><ele>225.0</ele><time>2026-04-28T13:57:45.941Z</time></trkpt><trkpt lat="44.39127572880385" lon="11.295481995311357"><ele>230.66666666666669</ele><time>2026-04-28T13:57:46.941Z</time></trkpt><trkpt lat="44.39138219907885" lon="11.295677502136439"><ele>236.33333333333334</ele><time>2026-04-28T13:57:47.941Z</time></trkpt><trkpt lat="44.391521075851735" lon="11.295839681598235"><ele>242.0</ele><time>2026-04-28T13:57:48.941Z</time></trkpt><trkpt lat="44.391654210443846" lon="11.296005501629665"><ele>242.0</ele><time>2026-04-28T13:57:49.941Z</time></trkpt><trkpt lat="44.391792584268245" lon="11.29616167233829"><ele>242.0</ele><time>2026-04-28T13:57:50.941Z</time></trkpt><trkpt lat="44.391931145631176" lon="11.296312520219768"><ele>242.0</ele><time>2026-04-28T13:57:51.941Z</time></trkpt><trkpt lat="44.392071062968014" lon="11.296456980186802"><ele>242.0</ele><time>2026-04-28T13:57:52.941Z</time></trkpt><trkpt lat="44.392205529120474" lon="11.296600554845934"><ele>242.0</ele><time>2026-04-28T13:57:53.941Z</time></trkpt><trkpt lat="44.392327470597074" lon="11.296746368179075"><ele>242.0</ele><time>2026-04-28T13:57:54.941Z</time></trkpt><trkpt lat="44.39243005426409" lon="11.296902461104231"><ele>242.0</ele><time>2026-04-28T13:57:55.941Z</time></trkpt><trkpt lat="44.392523584596915" lon="11.297072438804108"><ele>242.0</ele><time>2026-04-28T13:57:56.941Z</time></trkpt><trkpt lat="44.392613407617446" lon="11.297283278007976"><ele>242.0</ele><time>2026-04-28T13:57:57.941Z</time></trkpt><trkpt lat="44.39268960913168" lon="11.297495844304414"><ele>244.0</ele><time>2026-04-28T13:57:58.941Z</time></trkpt><trkpt lat="44.392764863277975" lon="11.297714386960655"><ele>246.0</ele><time>2026-04-28T13:57:59.941Z</time></trkpt><trkpt lat="44.39282679094101" lon="11.297927802637759"><ele>248.0</ele><time>2026-04-28T13:58:00.941Z</time></trkpt><trkpt lat="44.39288011684349" lon="11.298142988027184"><ele>248.0</ele><time>2026-04-28T13:58:01.942Z</time></trkpt><trkpt lat="44.39291531356211" lon="11.298361796018067"><ele>248.0</ele><time>2026-04-28T13:58:02.942Z</time></trkpt><trkpt lat="44.39292808795719" lon="11.29859240234785"><ele>248.0</ele><time>2026-04-28T13:58:03.942Z</time></trkpt><trkpt lat="44.39293213678042" lon="11.29883483157248"><ele>248.0</ele><time>2026-04-28T13:58:04.942Z</time></trkpt><trkpt lat="44.39292601502803" lon="11.299085258113399"><ele>248.0</ele><time>2026-04-28T13:58:05.942Z</time></trkpt><trkpt lat="44.392920333546336" lon="11.29934838256728"><ele>248.0</ele><time>2026-04-28T13:58:06.942Z</time></trkpt><trkpt lat="44.39291113144563" lon="11.299593998134329"><ele>249.0</ele><time>2026-04-28T13:58:07.942Z</time></trkpt><trkpt lat="44.3929053730252" lon="11.299829925186135"><ele>250.0</ele><time>2026-04-28T13:58:08.94Z</time></trkpt><trkpt lat="44.39290163040537" lon="11.300060352224945"><ele>251.0</ele><time>2026-04-28T13:58:09.94Z</time></trkpt><trkpt lat="44.39289521850907" lon="11.300286817479243"><ele>251.0</ele><time>2026-04-28T13:58:10.94Z</time></trkpt><trkpt lat="44.3929066061125" lon="11.300500175971388"><ele>251.0</ele><time>2026-04-28T13:58:11.94Z</time></trkpt><trkpt lat="44.3929405344267" lon="11.300710839180693"><ele>251.0</ele><time>2026-04-28T13:58:12.941Z</time></trkpt><trkpt lat="44.392990763607756" lon="11.30091376973829"><ele>258.0</ele><time>2026-04-28T13:58:13.941Z</time></trkpt><trkpt lat="44.39306245191185" lon="11.301122950192966"><ele>265.0</ele><time>2026-04-28T13:58:14.94Z</time></trkpt><trkpt lat="44.39314381599957" lon="11.301324105106868"><ele>272.0</ele><time>2026-04-28T13:58:15.941Z</time></trkpt><trkpt lat="44.39321780529423" lon="11.301529832644444"><ele>274.0</ele><time>2026-04-28T13:58:16.941Z</time></trkpt><trkpt lat="44.393279969292756" lon="11.30173267366109"><ele>276.0</ele><time>2026-04-28T13:58:17.94Z</time></trkpt><trkpt lat="44.39333613816442" lon="11.301934461949037"><ele>278.0</ele><time>2026-04-28T13:58:18.94Z</time></trkpt><trkpt lat="44.39339565408547" lon="11.302134816948312"><ele>276.33333333333337</ele><time>2026-04-28T13:58:19.94Z</time></trkpt><trkpt lat="44.39343761408938" lon="11.302343622512742"><ele>274.6666666666667</ele><time>2026-04-28T13:58:20.941Z</time></trkpt><trkpt lat="44.39346108906157" lon="11.302555701836603"><ele>273.0</ele><time>2026-04-28T13:58:21.941Z</time></trkpt><trkpt lat="44.39347033145951" lon="11.302771973250831"><ele>273.0</ele><time>2026-04-28T13:58:22.941Z</time></trkpt><trkpt lat="44.39347158442361" lon="11.302993079694106"><ele>273.0</ele><time>2026-04-28T13:58:23.941Z</time></trkpt><trkpt lat="44.39347226418185" lon="11.303235856898532"><ele>273.0</ele><time>2026-04-28T13:58:24.941Z</time></trkpt><trkpt lat="44.39346976299185" lon="11.303495900062076"><ele>273.3333333333333</ele><time>2026-04-28T13:58:25.941Z</time></trkpt><trkpt lat="44.39347096773972" lon="11.303763669944896"><ele>273.66666666666663</ele><time>2026-04-28T13:58:26.941Z</time></trkpt><trkpt lat="44.393474296110725" lon="11.304037106254276"><ele>274.0</ele><time>2026-04-28T13:58:27.941Z</time></trkpt><trkpt lat="44.39347092005868" lon="11.304321310580054"><ele>274.0</ele><time>2026-04-28T13:58:28.941Z</time></trkpt><trkpt lat="44.393460524849964" lon="11.304616877461639"><ele>274.0</ele><time>2026-04-28T13:58:29.941Z</time></trkpt><trkpt lat="44.393439059087264" lon="11.304915350965391"><ele>274.0</ele><time>2026-04-28T13:58:30.941Z</time></trkpt><trkpt lat="44.39341074342031" lon="11.30521893485078"><ele>276.0</ele><time>2026-04-28T13:58:31.941Z</time></trkpt><trkpt lat="44.39337401753037" lon="11.305498079402984"><ele>278.0</ele><time>2026-04-28T13:58:32.941Z</time></trkpt><trkpt lat="44.39333495123891" lon="11.30574587395673"><ele>280.0</ele><time>2026-04-28T13:58:33.941Z</time></trkpt><trkpt lat="44.39331160674522" lon="11.305952162755228"><ele>282.75</ele><time>2026-04-28T13:58:34.941Z</time></trkpt><trkpt lat="44.39330428765407" lon="11.306148102798353"><ele>285.5</ele><time>2026-04-28T13:58:35.941Z</time></trkpt><trkpt lat="44.39330570934786" lon="11.306348897230034"><ele>288.25</ele><time>2026-04-28T13:58:36.941Z</time></trkpt><trkpt lat="44.39333659304593" lon="11.30653807704361"><ele>291.0</ele><time>2026-04-28T13:58:37.941Z</time></trkpt><trkpt lat="44.39336551369118" lon="11.306733533631654"><ele>292.5</ele><time>2026-04-28T13:58:38.941Z</time></trkpt><trkpt lat="44.39340444767229" lon="11.30691218684665"><ele>294.0</ele><time>2026-04-28T13:58:39.941Z</time></trkpt><trkpt lat="44.393444056466144" lon="11.307103437237178"><ele>295.5</ele><time>2026-04-28T13:58:40.941Z</time></trkpt><trkpt lat="44.393492459256166" lon="11.307293372527734"><ele>297.0</ele><time>2026-04-28T13:58:41.941Z</time></trkpt><trkpt lat="44.39354879904204" lon="11.307499863768696"><ele>298.5</ele><time>2026-04-28T13:58:42.941Z</time></trkpt><trkpt lat="44.39360335965452" lon="11.30767966366728"><ele>300.0</ele><time>2026-04-28T13:58:43.941Z</time></trkpt><trkpt lat="44.393653736117514" lon="11.30783552680464"><ele>301.5</ele><time>2026-04-28T13:58:44.941Z</time></trkpt><trkpt lat="44.39368827691363" lon="11.307989407260651"><ele>303.0</ele><time>2026-04-28T13:58:45.941Z</time></trkpt><trkpt lat="44.39369438209036" lon="11.308129128375926"><ele>304.8</ele><time>2026-04-28T13:58:46.941Z</time></trkpt><trkpt lat="44.393671655184434" lon="11.308251661771948"><ele>306.6</ele><time>2026-04-28T13:58:47.941Z</time></trkpt><trkpt lat="44.39361127525104" lon="11.308354923851073"><ele>308.4</ele><time>2026-04-28T13:58:48.941Z</time></trkpt><trkpt lat="44.393520179349146" lon="11.308442298864717"><ele>310.2</ele><time>2026-04-28T13:58:49.941Z</time></trkpt><trkpt lat="44.39340143399783" lon="11.308500404243699"><ele>312.0</ele><time>2026-04-28T13:58:50.941Z</time></trkpt><trkpt lat="44.39326142597452" lon="11.308560265351407"><ele>312.0</ele><time>2026-04-28T13:58:51.941Z</time></trkpt><trkpt lat="44.393117200766866" lon="11.308645435919146"><ele>312.0</ele><time>2026-04-28T13:58:52.941Z</time></trkpt><trkpt lat="44.39296681912358" lon="11.308762165260358"><ele>312.0</ele><time>2026-04-28T13:58:53.941Z</time></trkpt><trkpt lat="44.39281405063064" lon="11.308898279360292"><ele>311.6666666666667</ele><time>2026-04-28T13:58:54.941Z</time></trkpt><trkpt lat="44.39267396340242" lon="11.309046046532226"><ele>311.33333333333337</ele><time>2026-04-28T13:58:55.941Z</time></trkpt><trkpt lat="44.392565269036325" lon="11.309176371609674"><ele>311.0</ele><time>2026-04-28T13:58:56.941Z</time></trkpt><trkpt lat="44.39246085918355" lon="11.309294412215248"><ele>311.0</ele><time>2026-04-28T13:58:57.941Z</time></trkpt><trkpt lat="44.39236727821688" lon="11.309398379180742"><ele>311.0</ele><time>2026-04-28T13:58:58.941Z</time></trkpt><trkpt lat="44.392291412281565" lon="11.309498754918618"><ele>311.0</ele><time>2026-04-28T13:58:59.941Z</time></trkpt><trkpt lat="44.39223306947048" lon="11.309573581506562"><ele>311.0</ele><time>2026-04-28T13:59:00.941Z</time></trkpt><trkpt lat="44.39219191825179" lon="11.309677820049286"><ele>311.0</ele><time>2026-04-28T13:59:02.941Z</time></trkpt><trkpt lat="44.39232983432435" lon="11.309878493694045"><ele>311.25</ele><time>2026-04-28T13:59:06.941Z</time></trkpt><trkpt lat="44.39242970410522" lon="11.309943755492661"><ele>311.5</ele><time>2026-04-28T13:59:07.941Z</time></trkpt><trkpt lat="44.39255061531695" lon="11.310003958972493"><ele>311.75</ele><time>2026-04-28T13:59:08.941Z</time></trkpt><trkpt lat="44.39266358359655" lon="11.310082694283704"><ele>312.0</ele><time>2026-04-28T13:59:09.941Z</time></trkpt><trkpt lat="44.39276944071229" lon="11.310203676614973"><ele>312.0</ele><time>2026-04-28T13:59:10.941Z</time></trkpt><trkpt lat="44.39287473962927" lon="11.310324712421911"><ele>312.0</ele><time>2026-04-28T13:59:11.941Z</time></trkpt><trkpt lat="44.39298266518113" lon="11.310427968408456"><ele>312.0</ele><time>2026-04-28T13:59:12.941Z</time></trkpt><trkpt lat="44.393069580407236" lon="11.31055055669668"><ele>312.0</ele><time>2026-04-28T13:59:13.941Z</time></trkpt><trkpt lat="44.393144038083086" lon="11.310689890001983"><ele>316.0</ele><time>2026-04-28T13:59:14.941Z</time></trkpt><trkpt lat="44.393214582330394" lon="11.310867367167754"><ele>320.0</ele><time>2026-04-28T13:59:15.941Z</time></trkpt><trkpt lat="44.39324418381597" lon="11.31107530741028"><ele>324.0</ele><time>2026-04-28T13:59:16.941Z</time></trkpt><trkpt lat="44.393302853121" lon="11.311285015600452"><ele>320.3333333333333</ele><time>2026-04-28T13:59:17.941Z</time></trkpt><trkpt lat="44.39333821303872" lon="11.311514336508456"><ele>316.66666666666663</ele><time>2026-04-28T13:59:18.941Z</time></trkpt><trkpt lat="44.39338091865283" lon="11.311752924735726"><ele>313.0</ele><time>2026-04-28T13:59:19.941Z</time></trkpt><trkpt lat="44.393422096637906" lon="11.311973711433975"><ele>313.0</ele><time>2026-04-28T13:59:20.941Z</time></trkpt><trkpt lat="44.39343573287438" lon="11.312193693476926"><ele>313.0</ele><time>2026-04-28T13:59:21.941Z</time></trkpt><trkpt lat="44.39340538409212" lon="11.312426803234782"><ele>313.0</ele><time>2026-04-28T13:59:22.941Z</time></trkpt><trkpt lat="44.39339859818626" lon="11.312684459094738"><ele>311.3333333333333</ele><time>2026-04-28T13:59:23.941Z</time></trkpt><trkpt lat="44.393366817297775" lon="11.312946673582847"><ele>309.6666666666667</ele><time>2026-04-28T13:59:24.941Z</time></trkpt><trkpt lat="44.393342045253284" lon="11.313201143174389"><ele>308.0</ele><time>2026-04-28T13:59:25.941Z</time></trkpt><trkpt lat="44.39331782415858" lon="11.31346103347756"><ele>308.0</ele><time>2026-04-28T13:59:26.941Z</time></trkpt><trkpt lat="44.39329147919455" lon="11.313701578334646"><ele>308.0</ele><time>2026-04-28T13:59:27.941Z</time></trkpt><trkpt lat="44.393267142269984" lon="11.3139252221862"><ele>308.0</ele><time>2026-04-28T13:59:28.941Z</time></trkpt><trkpt lat="44.393242079944976" lon="11.314142561495794"><ele>308.0</ele><time>2026-04-28T13:59:29.941Z</time></trkpt><trkpt lat="44.39320085164865" lon="11.314351497023765"><ele>308.0</ele><time>2026-04-28T13:59:30.941Z</time></trkpt><trkpt lat="44.39315773251692" lon="11.314568468008765"><ele>308.0</ele><time>2026-04-28T13:59:31.941Z</time></trkpt><trkpt lat="44.39311327764098" lon="11.314787557285412"><ele>306.0</ele><time>2026-04-28T13:59:32.941Z</time></trkpt><trkpt lat="44.39307433227808" lon="11.31502551413152"><ele>304.0</ele><time>2026-04-28T13:59:33.941Z</time></trkpt><trkpt lat="44.3930243336147" lon="11.315247751324462"><ele>302.0</ele><time>2026-04-28T13:59:34.941Z</time></trkpt><trkpt lat="44.39297758740288" lon="11.315470101419521"><ele>302.0</ele><time>2026-04-28T13:59:35.941Z</time></trkpt><trkpt lat="44.392940233705644" lon="11.31567177694155"><ele>302.0</ele><time>2026-04-28T13:59:36.941Z</time></trkpt><trkpt lat="44.392921171976724" lon="11.315877909704414"><ele>302.0</ele><time>2026-04-28T13:59:37.941Z</time></trkpt><trkpt lat="44.392915452268085" lon="11.316086171249317"><ele>302.0</ele><time>2026-04-28T13:59:38.941Z</time></trkpt><trkpt lat="44.392907177882584" lon="11.316275417824308"><ele>300.5</ele><time>2026-04-28T13:59:39.941Z</time></trkpt><trkpt lat="44.392896301292055" lon="11.316461170764878"><ele>299.0</ele><time>2026-04-28T13:59:40.941Z</time></trkpt><trkpt lat="44.392858970079324" lon="11.316637287512858"><ele>297.5</ele><time>2026-04-28T13:59:41.941Z</time></trkpt><trkpt lat="44.39279422970136" lon="11.316817743447457"><ele>296.0</ele><time>2026-04-28T13:59:42.941Z</time></trkpt><trkpt lat="44.39270163196837" lon="11.316996013156247"><ele>296.0</ele><time>2026-04-28T13:59:43.941Z</time></trkpt><trkpt lat="44.39260390283874" lon="11.31717589486762"><ele>296.0</ele><time>2026-04-28T13:59:44.941Z</time></trkpt><trkpt lat="44.39253674131519" lon="11.317344287235798"><ele>296.0</ele><time>2026-04-28T13:59:45.941Z</time></trkpt><trkpt lat="44.39249434605917" lon="11.317514366138422"><ele>296.0</ele><time>2026-04-28T13:59:46.941Z</time></trkpt><trkpt lat="44.3924170459932" lon="11.317675521526109"><ele>296.0</ele><time>2026-04-28T13:59:47.941Z</time></trkpt><trkpt lat="44.39229181202053" lon="11.31776600579689"><ele>296.0</ele><time>2026-04-28T13:59:48.941Z</time></trkpt><trkpt lat="44.39217382640405" lon="11.317877793873848"><ele>296.0</ele><time>2026-04-28T13:59:49.941Z</time></trkpt><trkpt lat="44.39204819719413" lon="11.317971650944267"><ele>296.0</ele><time>2026-04-28T13:59:50.941Z</time></trkpt><trkpt lat="44.39193793219138" lon="11.318121944868206"><ele>293.0</ele><time>2026-04-28T13:59:51.941Z</time></trkpt><trkpt lat="44.39182212717548" lon="11.318300196577331"><ele>290.0</ele><time>2026-04-28T13:59:52.941Z</time></trkpt><trkpt lat="44.391700065363366" lon="11.318492232654647"><ele>287.0</ele><time>2026-04-28T13:59:53.941Z</time></trkpt><trkpt lat="44.39158050363897" lon="11.31869600033641"><ele>287.0</ele><time>2026-04-28T13:59:54.941Z</time></trkpt><trkpt lat="44.39146654206054" lon="11.318886097552172"><ele>287.0</ele><time>2026-04-28T13:59:55.941Z</time></trkpt><trkpt lat="44.39135542535665" lon="11.319081902113679"><ele>287.0</ele><time>2026-04-28T13:59:56.941Z</time></trkpt><trkpt lat="44.39124464375379" lon="11.319279122076521"><ele>284.6666666666667</ele><time>2026-04-28T13:59:57.941Z</time></trkpt><trkpt lat="44.391158377917236" lon="11.31947496666575"><ele>282.3333333333333</ele><time>2026-04-28T13:59:58.941Z</time></trkpt><trkpt lat="44.39106919620491" lon="11.319657411932146"><ele>280.0</ele><time>2026-04-28T13:59:59.941Z</time></trkpt><trkpt lat="44.39097733185286" lon="11.319819166032214"><ele>280.0</ele><time>2026-04-28T14:00:00.941Z</time></trkpt><trkpt lat="44.390893874018516" lon="11.319983074109844"><ele>280.0</ele><time>2026-04-28T14:00:01.941Z</time></trkpt><trkpt lat="44.390821807707695" lon="11.320152505032127"><ele>280.0</ele><time>2026-04-28T14:00:02.941Z</time></trkpt><trkpt lat="44.39073951743691" lon="11.320307690572957"><ele>280.0</ele><time>2026-04-28T14:00:03.941Z</time></trkpt><trkpt lat="44.390629926059226" lon="11.320450253899052"><ele>277.0</ele><time>2026-04-28T14:00:04.941Z</time></trkpt><trkpt lat="44.39050318432828" lon="11.32058190614731"><ele>274.0</ele><time>2026-04-28T14:00:05.941Z</time></trkpt><trkpt lat="44.39038292877591" lon="11.320718101775348"><ele>271.0</ele><time>2026-04-28T14:00:06.941Z</time></trkpt><trkpt lat="44.39027543725142" lon="11.320857446788153"><ele>271.0</ele><time>2026-04-28T14:00:07.941Z</time></trkpt><trkpt lat="44.39016068424357" lon="11.32098993351924"><ele>271.0</ele><time>2026-04-28T14:00:08.941Z</time></trkpt><trkpt lat="44.3900183047431" lon="11.321111469664155"><ele>271.0</ele><time>2026-04-28T14:00:09.941Z</time></trkpt><trkpt lat="44.38987488325653" lon="11.32118948103295"><ele>271.0</ele><time>2026-04-28T14:00:10.941Z</time></trkpt><trkpt lat="44.38974002773423" lon="11.321266717248184"><ele>271.0</ele><time>2026-04-28T14:00:11.941Z</time></trkpt><trkpt lat="44.38961670532248" lon="11.321368121812545"><ele>271.0</ele><time>2026-04-28T14:00:12.941Z</time></trkpt><trkpt lat="44.38949862783192" lon="11.321485871510065"><ele>271.0</ele><time>2026-04-28T14:00:13.941Z</time></trkpt><trkpt lat="44.389389667499564" lon="11.321619794666814"><ele>269.0</ele><time>2026-04-28T14:00:14.939Z</time></trkpt><trkpt lat="44.3892958369289" lon="11.321793430818744"><ele>267.0</ele><time>2026-04-28T14:00:15.939Z</time></trkpt><trkpt lat="44.38922392109771" lon="11.32198966310545"><ele>265.0</ele><time>2026-04-28T14:00:16.939Z</time></trkpt><trkpt lat="44.38916944118811" lon="11.3221898228924"><ele>266.25</ele><time>2026-04-28T14:00:17.94Z</time></trkpt><trkpt lat="44.389118088793694" lon="11.322376128248065"><ele>267.5</ele><time>2026-04-28T14:00:18.939Z</time></trkpt><trkpt lat="44.38905394056324" lon="11.32254017722151"><ele>268.75</ele><time>2026-04-28T14:00:19.939Z</time></trkpt><trkpt lat="44.38895995807049" lon="11.322666979062951"><ele>270.0</ele><time>2026-04-28T14:00:20.94Z</time></trkpt><trkpt lat="44.3888539995092" lon="11.322771868860917"><ele>265.25</ele><time>2026-04-28T14:00:21.939Z</time></trkpt><trkpt lat="44.38876708083293" lon="11.322891778999448"><ele>260.5</ele><time>2026-04-28T14:00:22.939Z</time></trkpt><trkpt lat="44.38868075848225" lon="11.32300159916902"><ele>255.75</ele><time>2026-04-28T14:00:23.94Z</time></trkpt><trkpt lat="44.38862500855743" lon="11.323152321928255"><ele>251.0</ele><time>2026-04-28T14:00:24.94Z</time></trkpt><trkpt lat="44.38858739587727" lon="11.323329578192984"><ele>250.25</ele><time>2026-04-28T14:00:25.94Z</time></trkpt><trkpt lat="44.388591255770564" lon="11.323509005560856"><ele>249.5</ele><time>2026-04-28T14:00:26.939Z</time></trkpt><trkpt lat="44.38861417486064" lon="11.323686892658376"><ele>248.75</ele><time>2026-04-28T14:00:27.939Z</time></trkpt><trkpt lat="44.3886542562668" lon="11.323885291822513"><ele>248.0</ele><time>2026-04-28T14:00:28.939Z</time></trkpt><trkpt lat="44.388686845045" lon="11.324084989546071"><ele>247.25</ele><time>2026-04-28T14:00:29.939Z</time></trkpt><trkpt lat="44.38870210020868" lon="11.324291735769087"><ele>246.5</ele><time>2026-04-28T14:00:30.939Z</time></trkpt><trkpt lat="44.38871435070676" lon="11.324502661419498"><ele>245.75</ele><time>2026-04-28T14:00:31.939Z</time></trkpt><trkpt lat="44.38871483170089" lon="11.32468896375094"><ele>245.0</ele><time>2026-04-28T14:00:32.939Z</time></trkpt><trkpt lat="44.38870142537627" lon="11.324885866593918"><ele>245.0</ele><time>2026-04-28T14:00:33.939Z</time></trkpt><trkpt lat="44.38866908901745" lon="11.325070864048634"><ele>245.0</ele><time>2026-04-28T14:00:34.939Z</time></trkpt><trkpt lat="44.388595550559984" lon="11.325252765551015"><ele>245.0</ele><time>2026-04-28T14:00:35.939Z</time></trkpt><trkpt lat="44.388513807287715" lon="11.325412185661019"><ele>245.0</ele><time>2026-04-28T14:00:36.939Z</time></trkpt><trkpt lat="44.388454462811815" lon="11.325586189206414"><ele>245.75</ele><time>2026-04-28T14:00:37.939Z</time></trkpt><trkpt lat="44.388395971164066" lon="11.325760814869952"><ele>246.5</ele><time>2026-04-28T14:00:38.939Z</time></trkpt><trkpt lat="44.3883268057915" lon="11.325942181274074"><ele>247.25</ele><time>2026-04-28T14:00:39.939Z</time></trkpt><trkpt lat="44.38824677566944" lon="11.326104198288593"><ele>248.0</ele><time>2026-04-28T14:00:40.939Z</time></trkpt><trkpt lat="44.38815783307015" lon="11.326244152577027"><ele>246.5</ele><time>2026-04-28T14:00:41.939Z</time></trkpt><trkpt lat="44.38808571604082" lon="11.326404252577717"><ele>245.0</ele><time>2026-04-28T14:00:42.939Z</time></trkpt><trkpt lat="44.38803097714008" lon="11.32655897044961"><ele>243.5</ele><time>2026-04-28T14:00:43.939Z</time></trkpt><trkpt lat="44.38799465429542" lon="11.326735845000073"><ele>242.0</ele><time>2026-04-28T14:00:44.939Z</time></trkpt><trkpt lat="44.38799088271488" lon="11.32690381466033"><ele>242.0</ele><time>2026-04-28T14:00:45.939Z</time></trkpt><trkpt lat="44.388014530029196" lon="11.327072331636606"><ele>242.0</ele><time>2026-04-28T14:00:46.939Z</time></trkpt><trkpt lat="44.38806343630026" lon="11.327227828557492"><ele>242.0</ele><time>2026-04-28T14:00:47.939Z</time></trkpt><trkpt lat="44.388122520630695" lon="11.327338111056685"><ele>242.0</ele><time>2026-04-28T14:00:48.939Z</time></trkpt><trkpt lat="44.38817492726752" lon="11.327417573920611"><ele>242.0</ele><time>2026-04-28T14:00:49.939Z</time></trkpt><trkpt lat="44.38826033221559" lon="11.327450516495555"><ele>238.75</ele><time>2026-04-28T14:00:50.939Z</time></trkpt><trkpt lat="44.3883503796742" lon="11.327432966979728"><ele>235.5</ele><time>2026-04-28T14:00:51.939Z</time></trkpt><trkpt lat="44.38845182880616" lon="11.32737258941508"><ele>232.25</ele><time>2026-04-28T14:00:52.94Z</time></trkpt><trkpt lat="44.38857646195793" lon="11.32729593463758"><ele>229.0</ele><time>2026-04-28T14:00:53.94Z</time></trkpt><trkpt lat="44.388714063129996" lon="11.327229410377816"><ele>231.25</ele><time>2026-04-28T14:00:54.94Z</time></trkpt><trkpt lat="44.388857163089064" lon="11.327165854001027"><ele>233.5</ele><time>2026-04-28T14:00:55.94Z</time></trkpt><trkpt lat="44.38899743627421" lon="11.3271160335574"><ele>235.75</ele><time>2026-04-28T14:00:56.94Z</time></trkpt><trkpt lat="44.38914266446872" lon="11.327083280881386"><ele>238.0</ele><time>2026-04-28T14:00:57.94Z</time></trkpt><trkpt lat="44.38927643569277" lon="11.327042654648023"><ele>238.0</ele><time>2026-04-28T14:00:58.94Z</time></trkpt><trkpt lat="44.38940140802909" lon="11.326968964785687"><ele>238.0</ele><time>2026-04-28T14:00:59.94Z</time></trkpt><trkpt lat="44.3895147405943" lon="11.32687220280226"><ele>238.0</ele><time>2026-04-28T14:01:00.94Z</time></trkpt><trkpt lat="44.389599539248564" lon="11.326742119036023"><ele>238.0</ele><time>2026-04-28T14:01:01.94Z</time></trkpt><trkpt lat="44.389665045441134" lon="11.326591140508778"><ele>236.25</ele><time>2026-04-28T14:01:02.94Z</time></trkpt><trkpt lat="44.389734437584046" lon="11.326449646955885"><ele>234.5</ele><time>2026-04-28T14:01:03.94Z</time></trkpt><trkpt lat="44.38982167660121" lon="11.326330292078204"><ele>232.75</ele><time>2026-04-28T14:01:04.94Z</time></trkpt><trkpt lat="44.38992314603371" lon="11.32625608869357"><ele>231.0</ele><time>2026-04-28T14:01:05.94Z</time></trkpt><trkpt lat="44.39003332390623" lon="11.326217687441483"><ele>231.0</ele><time>2026-04-28T14:01:06.94Z</time></trkpt><trkpt lat="44.3901354154747" lon="11.326223687159658"><ele>231.00000000000003</ele><time>2026-04-28T14:01:07.94Z</time></trkpt><trkpt lat="44.390232275785344" lon="11.326285301822642"><ele>231.00000000000003</ele><time>2026-04-28T14:01:08.94Z</time></trkpt><trkpt lat="44.39031102548408" lon="11.326386901075512"><ele>231.0</ele><time>2026-04-28T14:01:09.94Z</time></trkpt><trkpt lat="44.3903861474573" lon="11.326525060238922"><ele>231.0</ele><time>2026-04-28T14:01:10.94Z</time></trkpt><trkpt lat="44.39047218099007" lon="11.326682225487534"><ele>227.0</ele><time>2026-04-28T14:01:11.94Z</time></trkpt><trkpt lat="44.39055998726445" lon="11.32684294641766"><ele>223.0</ele><time>2026-04-28T14:01:12.94Z</time></trkpt><trkpt lat="44.39065036990634" lon="11.32699434935669"><ele>219.0</ele><time>2026-04-28T14:01:13.94Z</time></trkpt><trkpt lat="44.39073319101727" lon="11.327144102470555"><ele>215.0</ele><time>2026-04-28T14:01:14.94Z</time></trkpt><trkpt lat="44.39081088190053" lon="11.327276007571312"><ele>213.50000000000003</ele><time>2026-04-28T14:01:15.94Z</time></trkpt><trkpt lat="44.39087797084883" lon="11.327399741326918"><ele>212.0</ele><time>2026-04-28T14:01:16.94Z</time></trkpt><trkpt lat="44.39092141937134" lon="11.327508683652127"><ele>210.5</ele><time>2026-04-28T14:01:17.94Z</time></trkpt><trkpt lat="44.39095043118223" lon="11.327604749187541"><ele>209.0</ele><time>2026-04-28T14:01:18.94Z</time></trkpt><trkpt lat="44.39094095315343" lon="11.327697571945956"><ele>207.50000000000003</ele><time>2026-04-28T14:01:19.94Z</time></trkpt><trkpt lat="44.39090469066997" lon="11.327771411242752"><ele>206.0</ele><time>2026-04-28T14:01:20.94Z</time></trkpt><trkpt lat="44.39084210588699" lon="11.327793855326593"><ele>206.0</ele><time>2026-04-28T14:01:21.94Z</time></trkpt><trkpt lat="44.390757669667686" lon="11.327768494995421"><ele>206.0</ele><time>2026-04-28T14:01:22.94Z</time></trkpt><trkpt lat="44.39065642267482" lon="11.327701381204307"><ele>206.0</ele><time>2026-04-28T14:01:23.94Z</time></trkpt><trkpt lat="44.3905629366212" lon="11.32761318103677"><ele>206.0</ele><time>2026-04-28T14:01:24.94Z</time></trkpt><trkpt lat="44.3904643907043" lon="11.327537365454388"><ele>206.0</ele><time>2026-04-28T14:01:25.94Z</time></trkpt><trkpt lat="44.39036086043006" lon="11.327492719289136"><ele>205.50000000000003</ele><time>2026-04-28T14:01:26.94Z</time></trkpt><trkpt lat="44.390263323612636" lon="11.327453110586664"><ele>205.0</ele><time>2026-04-28T14:01:27.94Z</time></trkpt><trkpt lat="44.3901649998201" lon="11.32744069891865"><ele>204.5</ele><time>2026-04-28T14:01:28.94Z</time></trkpt><trkpt lat="44.39007663243348" lon="11.327452095857923"><ele>204.0</ele><time>2026-04-28T14:01:29.94Z</time></trkpt><trkpt lat="44.39000665587438" lon="11.32750018141537"><ele>203.50000000000003</ele><time>2026-04-28T14:01:30.94Z</time></trkpt><trkpt lat="44.38995859704711" lon="11.327577654041901"><ele>203.0</ele><time>2026-04-28T14:01:31.94Z</time></trkpt><trkpt lat="44.3899414142267" lon="11.327675985522998"><ele>203.0</ele><time>2026-04-28T14:01:32.94Z</time></trkpt><trkpt lat="44.38993375182034" lon="11.327780279151229"><ele>203.0</ele><time>2026-04-28T14:01:33.94Z</time></trkpt><trkpt lat="44.38998910471011" lon="11.327893488924625"><ele>203.0</ele><time>2026-04-28T14:01:34.94Z</time></trkpt><trkpt lat="44.39008496619564" lon="11.327983760720713"><ele>203.0</ele><time>2026-04-28T14:01:35.94Z</time></trkpt><trkpt lat="44.39020940240153" lon="11.328071645042519"><ele>203.0</ele><time>2026-04-28T14:01:36.94Z</time></trkpt><trkpt lat="44.39034611838855" lon="11.328168802645328"><ele>200.0</ele><time>2026-04-28T14:01:37.94Z</time></trkpt><trkpt lat="44.39048666112112" lon="11.328273202464626"><ele>197.0</ele><time>2026-04-28T14:01:38.94Z</time></trkpt><trkpt lat="44.3906393955049" lon="11.3283911578797"><ele>194.0</ele><time>2026-04-28T14:01:39.94Z</time></trkpt><trkpt lat="44.39080660563411" lon="11.328505972093343"><ele>194.0</ele><time>2026-04-28T14:01:40.94Z</time></trkpt><trkpt lat="44.390983309788105" lon="11.328620013843091"><ele>194.0</ele><time>2026-04-28T14:01:41.94Z</time></trkpt><trkpt lat="44.39116085535901" lon="11.328730235118499"><ele>194.0</ele><time>2026-04-28T14:01:42.94Z</time></trkpt><trkpt lat="44.39134902995132" lon="11.328852138349257"><ele>190.0</ele><time>2026-04-28T14:01:43.94Z</time></trkpt><trkpt lat="44.39152889259522" lon="11.328975368491934"><ele>186.0</ele><time>2026-04-28T14:01:44.94Z</time></trkpt><trkpt lat="44.39169904166251" lon="11.32909032210141"><ele>182.0</ele><time>2026-04-28T14:01:45.94Z</time></trkpt><trkpt lat="44.39186063442054" lon="11.32919462783392"><ele>182.0</ele><time>2026-04-28T14:01:46.94Z</time></trkpt><trkpt lat="44.39202509020191" lon="11.32930030818562"><ele>182.0</ele><time>2026-04-28T14:01:47.94Z</time></trkpt><trkpt lat="44.3921932175264" lon="11.329411083062057"><ele>182.0</ele><time>2026-04-28T14:01:48.94Z</time></trkpt><trkpt lat="44.392366049954106" lon="11.329523478181587"><ele>179.33333333333331</ele><time>2026-04-28T14:01:49.94Z</time></trkpt><trkpt lat="44.39254940003075" lon="11.329637232759948"><ele>176.66666666666666</ele><time>2026-04-28T14:01:50.94Z</time></trkpt><trkpt lat="44.39272573692187" lon="11.329751062385066"><ele>174.0</ele><time>2026-04-28T14:01:51.94Z</time></trkpt><trkpt lat="44.39288869451273" lon="11.329860580867651"><ele>172.66666666666666</ele><time>2026-04-28T14:01:52.94Z</time></trkpt><trkpt lat="44.39304717239834" lon="11.329967414864928"><ele>171.33333333333331</ele><time>2026-04-28T14:01:53.94Z</time></trkpt><trkpt lat="44.39319563088899" lon="11.330068718757193"><ele>170.0</ele><time>2026-04-28T14:01:54.94Z</time></trkpt><trkpt lat="44.39333459510502" lon="11.330164697801964"><ele>170.0</ele><time>2026-04-28T14:01:55.94Z</time></trkpt><trkpt lat="44.39345922305132" lon="11.330252440175329"><ele>170.0</ele><time>2026-04-28T14:01:56.94Z</time></trkpt><trkpt lat="44.39356311014148" lon="11.330359755101789"><ele>170.0</ele><time>2026-04-28T14:01:57.94Z</time></trkpt><trkpt lat="44.39365513762547" lon="11.330501333247543"><ele>170.0</ele><time>2026-04-28T14:01:58.94Z</time></trkpt><trkpt lat="44.3937358144654" lon="11.330659052222861"><ele>169.66666666666666</ele><time>2026-04-28T14:01:59.94Z</time></trkpt><trkpt lat="44.39379610676026" lon="11.330843989680258"><ele>169.33333333333334</ele><time>2026-04-28T14:02:00.94Z</time></trkpt><trkpt lat="44.39385140620566" lon="11.331047629896903"><ele>169.0</ele><time>2026-04-28T14:02:01.94Z</time></trkpt><trkpt lat="44.393912344408434" lon="11.331248852881604"><ele>168.5</ele><time>2026-04-28T14:02:02.94Z</time></trkpt><trkpt lat="44.39396748369824" lon="11.33144458671246"><ele>168.0</ele><time>2026-04-28T14:02:03.94Z</time></trkpt><trkpt lat="44.39401844615752" lon="11.33161570209494"><ele>167.5</ele><time>2026-04-28T14:02:04.94Z</time></trkpt><trkpt lat="44.394068152991665" lon="11.331767861211938"><ele>167.0</ele><time>2026-04-28T14:02:05.94Z</time></trkpt><trkpt lat="44.39412712560101" lon="11.33189754649497"><ele>167.0</ele><time>2026-04-28T14:02:06.94Z</time></trkpt><trkpt lat="44.39420897763541" lon="11.332024543052748"><ele>167.0</ele><time>2026-04-28T14:02:07.94Z</time></trkpt><trkpt lat="44.39433148516846" lon="11.332118623865508"><ele>167.0</ele><time>2026-04-28T14:02:08.94Z</time></trkpt><trkpt lat="44.39445903931393" lon="11.332207178202223"><ele>167.0</ele><time>2026-04-28T14:02:09.94Z</time></trkpt><trkpt lat="44.39460764631395" lon="11.332295797920809"><ele>166.66666666666666</ele><time>2026-04-28T14:02:10.94Z</time></trkpt><trkpt lat="44.394768133210434" lon="11.332391338543509"><ele>166.33333333333334</ele><time>2026-04-28T14:02:11.94Z</time></trkpt><trkpt lat="44.39492799267953" lon="11.332495107843606"><ele>166.0</ele><time>2026-04-28T14:02:12.94Z</time></trkpt><trkpt lat="44.395084709945834" lon="11.332600567146939"><ele>166.0</ele><time>2026-04-28T14:02:13.94Z</time></trkpt><trkpt lat="44.395243931296385" lon="11.332705692301804"><ele>166.0</ele><time>2026-04-28T14:02:14.94Z</time></trkpt><trkpt lat="44.39539843400882" lon="11.332806341383519"><ele>166.0</ele><time>2026-04-28T14:02:15.94Z</time></trkpt><trkpt lat="44.39554893695723" lon="11.332901346916154"><ele>166.0</ele><time>2026-04-28T14:02:16.94Z</time></trkpt><trkpt lat="44.39570492519792" lon="11.33302385128072"><ele>166.0</ele><time>2026-04-28T14:02:17.94Z</time></trkpt><trkpt lat="44.39584966348583" lon="11.333127772171363"><ele>166.0</ele><time>2026-04-28T14:02:18.94Z</time></trkpt><trkpt lat="44.39600484330162" lon="11.33323734246498"><ele>165.0</ele><time>2026-04-28T14:02:19.94Z</time></trkpt><trkpt lat="44.396167290591876" lon="11.333340829666579"><ele>164.0</ele><time>2026-04-28T14:02:20.939Z</time></trkpt><trkpt lat="44.39633935134628" lon="11.333456789697694"><ele>163.0</ele><time>2026-04-28T14:02:21.939Z</time></trkpt><trkpt lat="44.39652490476871" lon="11.333585626699662"><ele>163.0</ele><time>2026-04-28T14:02:22.939Z</time></trkpt><trkpt lat="44.39672869319344" lon="11.333705002262894"><ele>163.0</ele><time>2026-04-28T14:02:23.939Z</time></trkpt><trkpt lat="44.39694406009581" lon="11.33383262365811"><ele>161.0</ele><time>2026-04-28T14:02:24.938Z</time></trkpt><trkpt lat="44.397155849957535" lon="11.333964185843348"><ele>159.0</ele><time>2026-04-28T14:02:25.938Z</time></trkpt><trkpt lat="44.397368617711805" lon="11.334096907853239"><ele>159.0</ele><time>2026-04-28T14:02:26.939Z</time></trkpt><trkpt lat="44.397567839263466" lon="11.33422046234241"><ele>159.0</ele><time>2026-04-28T14:02:27.939Z</time></trkpt><trkpt lat="44.39775920356497" lon="11.334331792206212"><ele>159.0</ele><time>2026-04-28T14:02:28.939Z</time></trkpt><trkpt lat="44.397935332485076" lon="11.334441343955456"><ele>158.0</ele><time>2026-04-28T14:02:29.939Z</time></trkpt><trkpt lat="44.39810817630535" lon="11.334555048715503"><ele>157.0</ele><time>2026-04-28T14:02:30.939Z</time></trkpt><trkpt lat="44.39826818013102" lon="11.334654277510953"><ele>156.0</ele><time>2026-04-28T14:02:31.939Z</time></trkpt><trkpt lat="44.39840428324519" lon="11.334743755071024"><ele>156.0</ele><time>2026-04-28T14:02:32.939Z</time></trkpt><trkpt lat="44.398520871491485" lon="11.334833613949064"><ele>156.0</ele><time>2026-04-28T14:02:33.938Z</time></trkpt><trkpt lat="44.398621856804375" lon="11.33490599705474"><ele>156.0</ele><time>2026-04-28T14:02:34.938Z</time></trkpt><trkpt lat="44.39870450757381" lon="11.334989046685854"><ele>156.0</ele><time>2026-04-28T14:02:35.938Z</time></trkpt><trkpt lat="44.3987699022108" lon="11.335090644208544"><ele>156.0</ele><time>2026-04-28T14:02:36.938Z</time></trkpt><trkpt lat="44.39880687493071" lon="11.33521201098896"><ele>156.0</ele><time>2026-04-28T14:02:37.938Z</time></trkpt><trkpt lat="44.39882338392154" lon="11.335344307753477"><ele>156.0</ele><time>2026-04-28T14:02:38.938Z</time></trkpt><trkpt lat="44.3988217922728" lon="11.335491628837818"><ele>156.0</ele><time>2026-04-28T14:02:39.938Z</time></trkpt><trkpt lat="44.39880417429279" lon="11.335652395987328"><ele>156.0</ele><time>2026-04-28T14:02:40.938Z</time></trkpt><trkpt lat="44.39878782806472" lon="11.335830708981728"><ele>156.0</ele><time>2026-04-28T14:02:41.938Z</time></trkpt><trkpt lat="44.39876680713284" lon="11.336004392989345"><ele>154.5</ele><time>2026-04-28T14:02:42.938Z</time></trkpt><trkpt lat="44.39875198948951" lon="11.336174898897411"><ele>153.0</ele><time>2026-04-28T14:02:43.938Z</time></trkpt><trkpt lat="44.398733509042195" lon="11.336337721081582"><ele>151.5</ele><time>2026-04-28T14:02:44.938Z</time></trkpt><trkpt lat="44.39871768299428" lon="11.336498163801304"><ele>150.0</ele><time>2026-04-28T14:02:45.938Z</time></trkpt><trkpt lat="44.39871073393165" lon="11.336653444711455"><ele>148.5</ele><time>2026-04-28T14:02:46.938Z</time></trkpt><trkpt lat="44.39869752674908" lon="11.336807317522485"><ele>147.0</ele><time>2026-04-28T14:02:47.938Z</time></trkpt><trkpt lat="44.39867664298383" lon="11.336948774033312"><ele>145.5</ele><time>2026-04-28T14:02:48.938Z</time></trkpt><trkpt lat="44.39866438558407" lon="11.337041522465462"><ele>144.0</ele><time>2026-04-28T14:02:49.938Z</time></trkpt><trkpt lat="44.39859367342708" lon="11.3371308004451"><ele>142.5</ele><time>2026-04-28T14:02:51.938Z</time></trkpt><trkpt lat="44.39854154943087" lon="11.337190752251505"><ele>141.0</ele><time>2026-04-28T14:02:52.938Z</time></trkpt><trkpt lat="44.39846710366659" lon="11.337318621405052"><ele>139.0</ele><time>2026-04-28T14:02:54.938Z</time></trkpt></trkseg></trk></gpx>